<?xml version='1.0' encoding='UTF-8'?><gpx version="1.1" creator="JPX - https://github.com/jenetics/jpx" xmlns="http://www.topografix.com/GPX/1/1"><trk><trkseg><trkpt lat="43.5637416" lon="11.5311859"><ele>141.0</ele><time>2026-04-22T07:02:03.305Z</time></trkpt><trkpt lat="43.5638226" lon="11.5311238"><ele>141.0</ele><time>2026-04-22T07:02:06.323Z</time></trkpt><trkpt lat="43.5638761" lon="11.5310761"><ele>141.0</ele><time>2026-04-22T07:02:08.284Z</time></trkpt><trkpt lat="43.5639515" lon="11.5309984"><ele>141.0</ele><time>2026-04-22T07:02:10.311Z</time></trkpt><trkpt lat="43.5640412" lon="11.5309346"><ele>141.0</ele><time>2026-04-22T07:02:12.298Z</time></trkpt><trkpt lat="43.564105" lon="11.5308741"><ele>141.0</ele><time>2026-04-22T07:02:14.299Z</time></trkpt><trkpt lat="43.5641768" lon="11.5308061"><ele>141.0</ele><time>2026-04-22T07:02:16.293Z</time></trkpt><trkpt lat="43.5642581" lon="11.530745"><ele>141.0</ele><time>2026-04-22T07:02:18.316Z</time></trkpt><trkpt lat="43.5643322" lon="11.5306724"><ele>141.0</ele><time>2026-04-22T07:02:20.29Z</time></trkpt><trkpt lat="43.564414" lon="11.5305938"><ele>141.0</ele><time>2026-04-22T07:02:22.301Z</time></trkpt><trkpt lat="43.5644989" lon="11.5305192"><ele>141.0</ele><time>2026-04-22T07:02:24.301Z</time></trkpt><trkpt lat="43.5645817" lon="11.5304397"><ele>140.8</ele><time>2026-04-22T07:02:26.295Z</time></trkpt><trkpt lat="43.5646761" lon="11.5303842"><ele>140.6</ele><time>2026-04-22T07:02:28.279Z</time></trkpt><trkpt lat="43.5647851" lon="11.5303352"><ele>140.4</ele><time>2026-04-22T07:02:30.291Z</time></trkpt><trkpt lat="43.5648847" lon="11.5302701"><ele>140.2</ele><time>2026-04-22T07:02:32.306Z</time></trkpt><trkpt lat="43.5649712" lon="11.5301764"><ele>140.0</ele><time>2026-04-22T07:02:34.299Z</time></trkpt><trkpt lat="43.5650563" lon="11.5301033"><ele>140.0</ele><time>2026-04-22T07:02:36.295Z</time></trkpt><trkpt lat="43.5651382" lon="11.5300252"><ele>140.0</ele><time>2026-04-22T07:02:38.308Z</time></trkpt><trkpt lat="43.56521" lon="11.5299574"><ele>140.0</ele><time>2026-04-22T07:02:40.307Z</time></trkpt><trkpt lat="43.5652797" lon="11.5298863"><ele>140.0</ele><time>2026-04-22T07:02:42.273Z</time></trkpt><trkpt lat="43.5653495" lon="11.529808"><ele>140.0</ele><time>2026-04-22T07:02:44.284Z</time></trkpt><trkpt lat="43.5654345" lon="11.5297314"><ele>140.0</ele><time>2026-04-22T07:02:46.286Z</time></trkpt><trkpt lat="43.5655089" lon="11.5296568"><ele>140.0</ele><time>2026-04-22T07:02:48.291Z</time></trkpt><trkpt lat="43.5655732" lon="11.5295828"><ele>140.0</ele><time>2026-04-22T07:02:50.286Z</time></trkpt><trkpt lat="43.5656595" lon="11.5295091"><ele>140.0</ele><time>2026-04-22T07:02:52.304Z</time></trkpt><trkpt lat="43.5657465" lon="11.5294168"><ele>140.0</ele><time>2026-04-22T07:02:54.297Z</time></trkpt><trkpt lat="43.5658343" lon="11.5293283"><ele>140.25</ele><time>2026-04-22T07:02:56.294Z</time></trkpt><trkpt lat="43.5659263" lon="11.5292444"><ele>140.5</ele><time>2026-04-22T07:02:58.298Z</time></trkpt><trkpt lat="43.5660186" lon="11.5291415"><ele>140.75</ele><time>2026-04-22T07:03:00.284Z</time></trkpt><trkpt lat="43.5661207" lon="11.5290558"><ele>141.0</ele><time>2026-04-22T07:03:02.302Z</time></trkpt><trkpt lat="43.5662197" lon="11.528974"><ele>140.25</ele><time>2026-04-22T07:03:04.31Z</time></trkpt><trkpt lat="43.5663248" lon="11.5288924"><ele>139.5</ele><time>2026-04-22T07:03:06.301Z</time></trkpt><trkpt lat="43.5664123" lon="11.5288145"><ele>138.75</ele><time>2026-04-22T07:03:08.294Z</time></trkpt><trkpt lat="43.5665225" lon="11.5287591"><ele>138.0</ele><time>2026-04-22T07:03:10.315Z</time></trkpt><trkpt lat="43.5666254" lon="11.5286872"><ele>138.0</ele><time>2026-04-22T07:03:12.306Z</time></trkpt><trkpt lat="43.566715" lon="11.5286171"><ele>138.0</ele><time>2026-04-22T07:03:14.297Z</time></trkpt><trkpt lat="43.5668039" lon="11.5285612"><ele>138.0</ele><time>2026-04-22T07:03:16.315Z</time></trkpt><trkpt lat="43.5668547" lon="11.5285046"><ele>138.0</ele><time>2026-04-22T07:03:17.313Z</time></trkpt><trkpt lat="43.5669289" lon="11.5284514"><ele>138.0</ele><time>2026-04-22T07:03:18.299Z</time></trkpt><trkpt lat="43.5670217" lon="11.5283741"><ele>137.5</ele><time>2026-04-22T07:03:19.319Z</time></trkpt><trkpt lat="43.5671115" lon="11.5282851"><ele>137.0</ele><time>2026-04-22T07:03:20.306Z</time></trkpt><trkpt lat="43.5671959" lon="11.5281923"><ele>136.5</ele><time>2026-04-22T07:03:21.318Z</time></trkpt><trkpt lat="43.5672724" lon="11.5281305"><ele>136.0</ele><time>2026-04-22T07:03:22.301Z</time></trkpt><trkpt lat="43.5673336" lon="11.5280674"><ele>135.5</ele><time>2026-04-22T07:03:23.296Z</time></trkpt><trkpt lat="43.5673902" lon="11.5280244"><ele>135.0</ele><time>2026-04-22T07:03:24.313Z</time></trkpt><trkpt lat="43.5674684" lon="11.5280482"><ele>135.0</ele><time>2026-04-22T07:03:26.312Z</time></trkpt><trkpt lat="43.5675125" lon="11.5281535"><ele>135.0</ele><time>2026-04-22T07:03:28.308Z</time></trkpt><trkpt lat="43.5675569" lon="11.5282299"><ele>135.0</ele><time>2026-04-22T07:03:29.309Z</time></trkpt><trkpt lat="43.5676068" lon="11.5283441"><ele>135.0</ele><time>2026-04-22T07:03:30.315Z</time></trkpt><trkpt lat="43.5676698" lon="11.5284565"><ele>135.0</ele><time>2026-04-22T07:03:31.312Z</time></trkpt><trkpt lat="43.5677293" lon="11.5285744"><ele>135.0</ele><time>2026-04-22T07:03:32.314Z</time></trkpt><trkpt lat="43.5677894" lon="11.5286914"><ele>135.0</ele><time>2026-04-22T07:03:33.295Z</time></trkpt><trkpt lat="43.5678486" lon="11.528801"><ele>135.0</ele><time>2026-04-22T07:03:34.302Z</time></trkpt><trkpt lat="43.5679048" lon="11.5289139"><ele>135.0</ele><time>2026-04-22T07:03:35.314Z</time></trkpt><trkpt lat="43.567967" lon="11.5290215"><ele>135.0</ele><time>2026-04-22T07:03:36.304Z</time></trkpt><trkpt lat="43.5680258" lon="11.5291367"><ele>134.8</ele><time>2026-04-22T07:03:37.299Z</time></trkpt><trkpt lat="43.5680842" lon="11.5292476"><ele>134.6</ele><time>2026-04-22T07:03:38.311Z</time></trkpt><trkpt lat="43.5681446" lon="11.5293502"><ele>134.4</ele><time>2026-04-22T07:03:39.297Z</time></trkpt><trkpt lat="43.5682009" lon="11.5294631"><ele>134.2</ele><time>2026-04-22T07:03:40.307Z</time></trkpt><trkpt lat="43.5682589" lon="11.5295765"><ele>134.0</ele><time>2026-04-22T07:03:41.314Z</time></trkpt><trkpt lat="43.5683184" lon="11.5296856"><ele>133.66666666666666</ele><time>2026-04-22T07:03:42.318Z</time></trkpt><trkpt lat="43.5683706" lon="11.5297842"><ele>133.33333333333331</ele><time>2026-04-22T07:03:43.29Z</time></trkpt><trkpt lat="43.5684221" lon="11.5298743"><ele>133.0</ele><time>2026-04-22T07:03:44.3Z</time></trkpt><trkpt lat="43.568474" lon="11.5299675"><ele>132.66666666666666</ele><time>2026-04-22T07:03:45.307Z</time></trkpt><trkpt lat="43.5685187" lon="11.5300405"><ele>132.33333333333334</ele><time>2026-04-22T07:03:46.32Z</time></trkpt><trkpt lat="43.5685678" lon="11.5301155"><ele>132.0</ele><time>2026-04-22T07:03:48.278Z</time></trkpt><trkpt lat="43.5686093" lon="11.5301855"><ele>132.0</ele><time>2026-04-22T07:03:50.302Z</time></trkpt><trkpt lat="43.5686698" lon="11.5303146"><ele>132.0</ele><time>2026-04-22T07:03:52.307Z</time></trkpt><trkpt lat="43.5687059" lon="11.5303892"><ele>132.0</ele><time>2026-04-22T07:03:53.292Z</time></trkpt><trkpt lat="43.5687478" lon="11.5304717"><ele>132.0</ele><time>2026-04-22T07:03:54.286Z</time></trkpt><trkpt lat="43.5687886" lon="11.5305475"><ele>132.0</ele><time>2026-04-22T07:03:55.313Z</time></trkpt><trkpt lat="43.568834" lon="11.5306275"><ele>132.0</ele><time>2026-04-22T07:03:56.309Z</time></trkpt><trkpt lat="43.5688706" lon="11.5307149"><ele>132.33333333333334</ele><time>2026-04-22T07:03:57.311Z</time></trkpt><trkpt lat="43.5689127" lon="11.5308031"><ele>132.66666666666666</ele><time>2026-04-22T07:03:58.316Z</time></trkpt><trkpt lat="43.5689563" lon="11.5308912"><ele>133.0</ele><time>2026-04-22T07:03:59.306Z</time></trkpt><trkpt lat="43.5690057" lon="11.5309813"><ele>133.33333333333331</ele><time>2026-04-22T07:04:00.295Z</time></trkpt><trkpt lat="43.5690577" lon="11.5310691"><ele>133.66666666666666</ele><time>2026-04-22T07:04:01.308Z</time></trkpt><trkpt lat="43.5691026" lon="11.5311713"><ele>134.0</ele><time>2026-04-22T07:04:02.32Z</time></trkpt><trkpt lat="43.569147" lon="11.5312701"><ele>134.0</ele><time>2026-04-22T07:04:03.337Z</time></trkpt><trkpt lat="43.5691924" lon="11.531361"><ele>134.0</ele><time>2026-04-22T07:04:04.322Z</time></trkpt><trkpt lat="43.5692429" lon="11.5314493"><ele>134.0</ele><time>2026-04-22T07:04:05.314Z</time></trkpt><trkpt lat="43.5692886" lon="11.5315415"><ele>134.0</ele><time>2026-04-22T07:04:06.325Z</time></trkpt><trkpt lat="43.569338" lon="11.5316292"><ele>134.0</ele><time>2026-04-22T07:04:07.313Z</time></trkpt><trkpt lat="43.5693833" lon="11.5317098"><ele>134.0</ele><time>2026-04-22T07:04:08.318Z</time></trkpt><trkpt lat="43.5694385" lon="11.5318538"><ele>134.0</ele><time>2026-04-22T07:04:10.291Z</time></trkpt><trkpt lat="43.5694734" lon="11.5319719"><ele>134.0</ele><time>2026-04-22T07:04:12.311Z</time></trkpt><trkpt lat="43.5694188" lon="11.5320443"><ele>134.0</ele><time>2026-04-22T07:04:14.292Z</time></trkpt><trkpt lat="43.5693516" lon="11.532087"><ele>134.0</ele><time>2026-04-22T07:04:15.3Z</time></trkpt><trkpt lat="43.5692595" lon="11.5321565"><ele>134.0</ele><time>2026-04-22T07:04:16.293Z</time></trkpt><trkpt lat="43.5691437" lon="11.5322389"><ele>134.0</ele><time>2026-04-22T07:04:17.316Z</time></trkpt><trkpt lat="43.5690148" lon="11.5323305"><ele>134.0</ele><time>2026-04-22T07:04:18.312Z</time></trkpt><trkpt lat="43.5688711" lon="11.5324236"><ele>134.0</ele><time>2026-04-22T07:04:19.324Z</time></trkpt><trkpt lat="43.5687304" lon="11.5325097"><ele>134.0</ele><time>2026-04-22T07:04:20.317Z</time></trkpt><trkpt lat="43.5685888" lon="11.5326053"><ele>134.0</ele><time>2026-04-22T07:04:21.296Z</time></trkpt><trkpt lat="43.5684578" lon="11.5326939"><ele>134.0</ele><time>2026-04-22T07:04:22.301Z</time></trkpt><trkpt lat="43.5683209" lon="11.532787"><ele>134.0</ele><time>2026-04-22T07:04:23.313Z</time></trkpt><trkpt lat="43.5681751" lon="11.5328796"><ele>134.0</ele><time>2026-04-22T07:04:24.312Z</time></trkpt><trkpt lat="43.5680419" lon="11.5329586"><ele>134.0</ele><time>2026-04-22T07:04:25.315Z</time></trkpt><trkpt lat="43.567921" lon="11.5330324"><ele>134.0</ele><time>2026-04-22T07:04:26.295Z</time></trkpt><trkpt lat="43.567815" lon="11.5330918"><ele>134.8</ele><time>2026-04-22T07:04:27.326Z</time></trkpt><trkpt lat="43.5677319" lon="11.5331471"><ele>135.60000000000002</ele><time>2026-04-22T07:04:28.316Z</time></trkpt><trkpt lat="43.5676723" lon="11.5331906"><ele>136.4</ele><time>2026-04-22T07:04:29.326Z</time></trkpt><trkpt lat="43.5676089" lon="11.533249"><ele>137.20000000000002</ele><time>2026-04-22T07:04:31.31Z</time></trkpt><trkpt lat="43.5675379" lon="11.5333041"><ele>138.0</ele><time>2026-04-22T07:05:00.303Z</time></trkpt><trkpt lat="43.5674033" lon="11.5333867"><ele>138.0</ele><time>2026-04-22T07:05:02.31Z</time></trkpt><trkpt lat="43.5673067" lon="11.533462"><ele>138.0</ele><time>2026-04-22T07:05:03.31Z</time></trkpt><trkpt lat="43.5670959" lon="11.5336058"><ele>138.0</ele><time>2026-04-22T07:05:05.304Z</time></trkpt><trkpt lat="43.5669779" lon="11.5336827"><ele>137.25</ele><time>2026-04-22T07:05:06.316Z</time></trkpt><trkpt lat="43.5668667" lon="11.5337443"><ele>136.5</ele><time>2026-04-22T07:05:07.317Z</time></trkpt><trkpt lat="43.5667568" lon="11.533813"><ele>135.75</ele><time>2026-04-22T07:05:08.328Z</time></trkpt><trkpt lat="43.566654" lon="11.5338843"><ele>135.0</ele><time>2026-04-22T07:05:09.319Z</time></trkpt><trkpt lat="43.5665523" lon="11.5339515"><ele>135.0</ele><time>2026-04-22T07:05:10.294Z</time></trkpt><trkpt lat="43.5664576" lon="11.5340135"><ele>135.0</ele><time>2026-04-22T07:05:11.299Z</time></trkpt><trkpt lat="43.5663675" lon="11.5340737"><ele>135.0</ele><time>2026-04-22T07:05:12.307Z</time></trkpt><trkpt lat="43.5662848" lon="11.5341257"><ele>135.0</ele><time>2026-04-22T07:05:13.294Z</time></trkpt><trkpt lat="43.5662002" lon="11.534177"><ele>135.0</ele><time>2026-04-22T07:05:14.296Z</time></trkpt><trkpt lat="43.566123" lon="11.5342222"><ele>135.5</ele><time>2026-04-22T07:05:15.307Z</time></trkpt><trkpt lat="43.5660543" lon="11.5342575"><ele>136.0</ele><time>2026-04-22T07:05:16.313Z</time></trkpt><trkpt lat="43.5659893" lon="11.5342808"><ele>136.5</ele><time>2026-04-22T07:05:17.308Z</time></trkpt><trkpt lat="43.5659216" lon="11.534276"><ele>137.0</ele><time>2026-04-22T07:05:18.307Z</time></trkpt><trkpt lat="43.5658078" lon="11.5342664"><ele>137.5</ele><time>2026-04-22T07:05:20.305Z</time></trkpt><trkpt lat="43.5657184" lon="11.5343443"><ele>138.0</ele><time>2026-04-22T07:05:22.305Z</time></trkpt><trkpt lat="43.5656902" lon="11.5344246"><ele>138.0</ele><time>2026-04-22T07:05:23.284Z</time></trkpt><trkpt lat="43.5656385" lon="11.5345248"><ele>138.0</ele><time>2026-04-22T07:05:24.312Z</time></trkpt><trkpt lat="43.5655721" lon="11.5345985"><ele>138.0</ele><time>2026-04-22T07:05:25.307Z</time></trkpt><trkpt lat="43.5654811" lon="11.5346628"><ele>138.0</ele><time>2026-04-22T07:05:26.308Z</time></trkpt><trkpt lat="43.5653854" lon="11.5347223"><ele>138.0</ele><time>2026-04-22T07:05:27.284Z</time></trkpt><trkpt lat="43.5652927" lon="11.5347785"><ele>137.4</ele><time>2026-04-22T07:05:28.285Z</time></trkpt><trkpt lat="43.5651968" lon="11.5348378"><ele>136.8</ele><time>2026-04-22T07:05:29.292Z</time></trkpt><trkpt lat="43.5650978" lon="11.5349128"><ele>136.2</ele><time>2026-04-22T07:05:30.295Z</time></trkpt><trkpt lat="43.5649972" lon="11.5349788"><ele>135.6</ele><time>2026-04-22T07:05:31.307Z</time></trkpt><trkpt lat="43.5648987" lon="11.5350397"><ele>135.0</ele><time>2026-04-22T07:05:32.308Z</time></trkpt><trkpt lat="43.564795" lon="11.5351174"><ele>135.0</ele><time>2026-04-22T07:05:33.314Z</time></trkpt><trkpt lat="43.564678" lon="11.5351834"><ele>135.0</ele><time>2026-04-22T07:05:34.313Z</time></trkpt><trkpt lat="43.5645675" lon="11.5352575"><ele>135.0</ele><time>2026-04-22T07:05:35.306Z</time></trkpt><trkpt lat="43.5644582" lon="11.5353338"><ele>135.0</ele><time>2026-04-22T07:05:36.306Z</time></trkpt><trkpt lat="43.5643491" lon="11.535402"><ele>135.0</ele><time>2026-04-22T07:05:37.297Z</time></trkpt><trkpt lat="43.5642458" lon="11.5354714"><ele>135.0</ele><time>2026-04-22T07:05:38.325Z</time></trkpt><trkpt lat="43.5641391" lon="11.5355438"><ele>135.0</ele><time>2026-04-22T07:05:39.315Z</time></trkpt><trkpt lat="43.5640339" lon="11.535604"><ele>135.0</ele><time>2026-04-22T07:05:40.319Z</time></trkpt><trkpt lat="43.5639283" lon="11.5356603"><ele>135.0</ele><time>2026-04-22T07:05:41.296Z</time></trkpt><trkpt lat="43.5638304" lon="11.5357092"><ele>135.0</ele><time>2026-04-22T07:05:42.324Z</time></trkpt><trkpt lat="43.5637318" lon="11.535763"><ele>135.0</ele><time>2026-04-22T07:05:43.309Z</time></trkpt><trkpt lat="43.5636435" lon="11.5358174"><ele>135.0</ele><time>2026-04-22T07:05:44.303Z</time></trkpt><trkpt lat="43.5635585" lon="11.5358809"><ele>135.0</ele><time>2026-04-22T07:05:45.31Z</time></trkpt><trkpt lat="43.5634806" lon="11.5359338"><ele>135.0</ele><time>2026-04-22T07:05:46.291Z</time></trkpt><trkpt lat="43.5634011" lon="11.5359893"><ele>135.0</ele><time>2026-04-22T07:05:47.301Z</time></trkpt><trkpt lat="43.5633182" lon="11.5360554"><ele>135.0</ele><time>2026-04-22T07:05:48.306Z</time></trkpt><trkpt lat="43.5632403" lon="11.5361117"><ele>135.0</ele><time>2026-04-22T07:05:49.312Z</time></trkpt><trkpt lat="43.5631566" lon="11.5361653"><ele>135.0</ele><time>2026-04-22T07:05:50.301Z</time></trkpt><trkpt lat="43.5630674" lon="11.5362217"><ele>135.0</ele><time>2026-04-22T07:05:51.3Z</time></trkpt><trkpt lat="43.5629806" lon="11.5362826"><ele>135.0</ele><time>2026-04-22T07:05:52.302Z</time></trkpt><trkpt lat="43.5628914" lon="11.5363395"><ele>135.0</ele><time>2026-04-22T07:05:53.299Z</time></trkpt><trkpt lat="43.5627984" lon="11.5364034"><ele>135.0</ele><time>2026-04-22T07:05:54.302Z</time></trkpt><trkpt lat="43.5627017" lon="11.5364718"><ele>135.0</ele><time>2026-04-22T07:05:55.294Z</time></trkpt><trkpt lat="43.5626054" lon="11.536543"><ele>135.75</ele><time>2026-04-22T07:05:56.289Z</time></trkpt><trkpt lat="43.5625062" lon="11.5366098"><ele>136.5</ele><time>2026-04-22T07:05:57.315Z</time></trkpt><trkpt lat="43.5624011" lon="11.5366779"><ele>137.25</ele><time>2026-04-22T07:05:58.312Z</time></trkpt><trkpt lat="43.5622938" lon="11.5367404"><ele>138.0</ele><time>2026-04-22T07:05:59.291Z</time></trkpt><trkpt lat="43.5621901" lon="11.5368046"><ele>138.0</ele><time>2026-04-22T07:06:00.299Z</time></trkpt><trkpt lat="43.5620822" lon="11.5368707"><ele>138.0</ele><time>2026-04-22T07:06:01.314Z</time></trkpt><trkpt lat="43.5619698" lon="11.5369486"><ele>138.0</ele><time>2026-04-22T07:06:02.32Z</time></trkpt><trkpt lat="43.5618631" lon="11.5370174"><ele>138.0</ele><time>2026-04-22T07:06:03.315Z</time></trkpt><trkpt lat="43.5617578" lon="11.537096"><ele>137.5</ele><time>2026-04-22T07:06:04.313Z</time></trkpt><trkpt lat="43.5616547" lon="11.5371691"><ele>137.0</ele><time>2026-04-22T07:06:05.329Z</time></trkpt><trkpt lat="43.561549" lon="11.5372398"><ele>136.5</ele><time>2026-04-22T07:06:06.304Z</time></trkpt><trkpt lat="43.5614508" lon="11.5373057"><ele>136.0</ele><time>2026-04-22T07:06:07.319Z</time></trkpt><trkpt lat="43.561349" lon="11.537372"><ele>136.0</ele><time>2026-04-22T07:06:08.326Z</time></trkpt><trkpt lat="43.5612473" lon="11.5374345"><ele>136.0</ele><time>2026-04-22T07:06:09.289Z</time></trkpt><trkpt lat="43.5611439" lon="11.5375059"><ele>136.0</ele><time>2026-04-22T07:06:10.291Z</time></trkpt><trkpt lat="43.5610302" lon="11.5375817"><ele>136.0</ele><time>2026-04-22T07:06:11.299Z</time></trkpt><trkpt lat="43.560919" lon="11.5376514"><ele>136.5</ele><time>2026-04-22T07:06:12.319Z</time></trkpt><trkpt lat="43.5608089" lon="11.5377234"><ele>137.0</ele><time>2026-04-22T07:06:13.315Z</time></trkpt><trkpt lat="43.5606893" lon="11.5377987"><ele>137.5</ele><time>2026-04-22T07:06:14.292Z</time></trkpt><trkpt lat="43.5605715" lon="11.5378755"><ele>138.0</ele><time>2026-04-22T07:06:15.302Z</time></trkpt><trkpt lat="43.5604458" lon="11.5379559"><ele>137.5</ele><time>2026-04-22T07:06:16.305Z</time></trkpt><trkpt lat="43.5603207" lon="11.5380296"><ele>137.0</ele><time>2026-04-22T07:06:17.306Z</time></trkpt><trkpt lat="43.560194" lon="11.5381017"><ele>136.5</ele><time>2026-04-22T07:06:18.303Z</time></trkpt><trkpt lat="43.5600682" lon="11.5381787"><ele>136.0</ele><time>2026-04-22T07:06:19.293Z</time></trkpt><trkpt lat="43.5599454" lon="11.5382666"><ele>136.0</ele><time>2026-04-22T07:06:20.298Z</time></trkpt><trkpt lat="43.5598256" lon="11.5383463"><ele>136.0</ele><time>2026-04-22T07:06:21.315Z</time></trkpt><trkpt lat="43.5597159" lon="11.5384191"><ele>136.0</ele><time>2026-04-22T07:06:22.318Z</time></trkpt><trkpt lat="43.5595927" lon="11.5384967"><ele>136.0</ele><time>2026-04-22T07:06:23.297Z</time></trkpt><trkpt lat="43.559481" lon="11.5385759"><ele>136.0</ele><time>2026-04-22T07:06:24.311Z</time></trkpt><trkpt lat="43.5593629" lon="11.5386497"><ele>136.0</ele><time>2026-04-22T07:06:25.302Z</time></trkpt><trkpt lat="43.5592449" lon="11.538722"><ele>136.0</ele><time>2026-04-22T07:06:26.323Z</time></trkpt><trkpt lat="43.5591263" lon="11.5387927"><ele>136.0</ele><time>2026-04-22T07:06:27.31Z</time></trkpt><trkpt lat="43.5590114" lon="11.5388516"><ele>135.5</ele><time>2026-04-22T07:06:28.316Z</time></trkpt><trkpt lat="43.5588928" lon="11.5389043"><ele>135.0</ele><time>2026-04-22T07:06:29.318Z</time></trkpt><trkpt lat="43.5587763" lon="11.538952"><ele>134.5</ele><time>2026-04-22T07:06:30.301Z</time></trkpt><trkpt lat="43.5586558" lon="11.5389934"><ele>134.0</ele><time>2026-04-22T07:06:31.296Z</time></trkpt><trkpt lat="43.5585327" lon="11.5390283"><ele>134.0</ele><time>2026-04-22T07:06:32.299Z</time></trkpt><trkpt lat="43.5584074" lon="11.5390474"><ele>134.0</ele><time>2026-04-22T07:06:33.302Z</time></trkpt><trkpt lat="43.5582793" lon="11.5390612"><ele>134.0</ele><time>2026-04-22T07:06:34.289Z</time></trkpt><trkpt lat="43.5581508" lon="11.5390731"><ele>134.0</ele><time>2026-04-22T07:06:35.314Z</time></trkpt><trkpt lat="43.5580187" lon="11.5390829"><ele>134.0</ele><time>2026-04-22T07:06:36.303Z</time></trkpt><trkpt lat="43.5578887" lon="11.5390843"><ele>134.0</ele><time>2026-04-22T07:06:37.309Z</time></trkpt><trkpt lat="43.5577587" lon="11.5390773"><ele>134.0</ele><time>2026-04-22T07:06:38.317Z</time></trkpt><trkpt lat="43.5576275" lon="11.5390684"><ele>134.0</ele><time>2026-04-22T07:06:39.288Z</time></trkpt><trkpt lat="43.5574968" lon="11.5390514"><ele>134.0</ele><time>2026-04-22T07:06:40.298Z</time></trkpt><trkpt lat="43.5573661" lon="11.5390203"><ele>134.0</ele><time>2026-04-22T07:06:41.309Z</time></trkpt><trkpt lat="43.5572371" lon="11.5389898"><ele>134.0</ele><time>2026-04-22T07:06:42.292Z</time></trkpt><trkpt lat="43.5571054" lon="11.5389602"><ele>134.0</ele><time>2026-04-22T07:06:43.3Z</time></trkpt><trkpt lat="43.5569723" lon="11.5389286"><ele>134.25</ele><time>2026-04-22T07:06:44.307Z</time></trkpt><trkpt lat="43.5568419" lon="11.5388998"><ele>134.5</ele><time>2026-04-22T07:06:45.32Z</time></trkpt><trkpt lat="43.5567184" lon="11.5388726"><ele>134.75</ele><time>2026-04-22T07:06:46.304Z</time></trkpt><trkpt lat="43.5565855" lon="11.5388508"><ele>135.0</ele><time>2026-04-22T07:06:47.304Z</time></trkpt><trkpt lat="43.5564618" lon="11.5388231"><ele>135.0</ele><time>2026-04-22T07:06:48.302Z</time></trkpt><trkpt lat="43.5563385" lon="11.5387971"><ele>135.0</ele><time>2026-04-22T07:06:49.33Z</time></trkpt><trkpt lat="43.5562257" lon="11.5387636"><ele>135.0</ele><time>2026-04-22T07:06:50.301Z</time></trkpt><trkpt lat="43.5561185" lon="11.5387396"><ele>135.0</ele><time>2026-04-22T07:06:51.307Z</time></trkpt><trkpt lat="43.5560203" lon="11.5387101"><ele>135.0</ele><time>2026-04-22T07:06:52.332Z</time></trkpt><trkpt lat="43.5559392" lon="11.5386866"><ele>135.33333333333334</ele><time>2026-04-22T07:06:53.308Z</time></trkpt><trkpt lat="43.5558778" lon="11.5386552"><ele>135.66666666666666</ele><time>2026-04-22T07:06:54.312Z</time></trkpt><trkpt lat="43.5557852" lon="11.5385962"><ele>136.0</ele><time>2026-04-22T07:06:56.301Z</time></trkpt><trkpt lat="43.5557195" lon="11.5385457"><ele>136.33333333333331</ele><time>2026-04-22T07:06:59.314Z</time></trkpt><trkpt lat="43.5556344" lon="11.5385309"><ele>136.66666666666666</ele><time>2026-04-22T07:07:05.304Z</time></trkpt><trkpt lat="43.5555628" lon="11.5385543"><ele>137.0</ele><time>2026-04-22T07:07:06.3Z</time></trkpt><trkpt lat="43.5554866" lon="11.5385981"><ele>137.0</ele><time>2026-04-22T07:07:07.304Z</time></trkpt><trkpt lat="43.555411" lon="11.5386706"><ele>137.0</ele><time>2026-04-22T07:07:08.308Z</time></trkpt><trkpt lat="43.5553218" lon="11.5387475"><ele>137.0</ele><time>2026-04-22T07:07:09.32Z</time></trkpt><trkpt lat="43.5552038" lon="11.5388557"><ele>137.0</ele><time>2026-04-22T07:07:10.313Z</time></trkpt><trkpt lat="43.5550637" lon="11.5389899"><ele>136.33333333333331</ele><time>2026-04-22T07:07:11.309Z</time></trkpt><trkpt lat="43.5548951" lon="11.5391295"><ele>135.66666666666666</ele><time>2026-04-22T07:07:12.33Z</time></trkpt><trkpt lat="43.5547404" lon="11.5392476"><ele>135.0</ele><time>2026-04-22T07:07:13.315Z</time></trkpt><trkpt lat="43.55461" lon="11.5393596"><ele>135.25</ele><time>2026-04-22T07:07:14.313Z</time></trkpt><trkpt lat="43.5544798" lon="11.539473"><ele>135.5</ele><time>2026-04-22T07:07:15.298Z</time></trkpt><trkpt lat="43.5543558" lon="11.5395802"><ele>135.75</ele><time>2026-04-22T07:07:16.309Z</time></trkpt><trkpt lat="43.5542415" lon="11.5396811"><ele>136.0</ele><time>2026-04-22T07:07:17.318Z</time></trkpt><trkpt lat="43.5541245" lon="11.5397814"><ele>136.4</ele><time>2026-04-22T07:07:18.308Z</time></trkpt><trkpt lat="43.5540289" lon="11.5398627"><ele>136.8</ele><time>2026-04-22T07:07:19.298Z</time></trkpt><trkpt lat="43.5539327" lon="11.5399405"><ele>137.20000000000002</ele><time>2026-04-22T07:07:20.326Z</time></trkpt><trkpt lat="43.5538406" lon="11.5400236"><ele>137.6</ele><time>2026-04-22T07:07:21.321Z</time></trkpt><trkpt lat="43.5537526" lon="11.5401146"><ele>138.0</ele><time>2026-04-22T07:07:22.306Z</time></trkpt><trkpt lat="43.5536653" lon="11.5401973"><ele>138.0</ele><time>2026-04-22T07:07:23.307Z</time></trkpt><trkpt lat="43.5535746" lon="11.5402733"><ele>138.0</ele><time>2026-04-22T07:07:24.288Z</time></trkpt><trkpt lat="43.5534841" lon="11.5403511"><ele>138.0</ele><time>2026-04-22T07:07:25.32Z</time></trkpt><trkpt lat="43.5533951" lon="11.5404313"><ele>138.0</ele><time>2026-04-22T07:07:26.315Z</time></trkpt><trkpt lat="43.5533126" lon="11.5405078"><ele>138.0</ele><time>2026-04-22T07:07:27.307Z</time></trkpt><trkpt lat="43.553233" lon="11.540582"><ele>138.0</ele><time>2026-04-22T07:07:28.298Z</time></trkpt><trkpt lat="43.5531527" lon="11.5406555"><ele>138.0</ele><time>2026-04-22T07:07:29.312Z</time></trkpt><trkpt lat="43.5530742" lon="11.5407325"><ele>138.0</ele><time>2026-04-22T07:07:30.291Z</time></trkpt><trkpt lat="43.5529967" lon="11.5408012"><ele>138.0</ele><time>2026-04-22T07:07:31.307Z</time></trkpt><trkpt lat="43.5529144" lon="11.5408613"><ele>138.0</ele><time>2026-04-22T07:07:32.302Z</time></trkpt><trkpt lat="43.5528407" lon="11.5409292"><ele>137.83333333333334</ele><time>2026-04-22T07:07:33.309Z</time></trkpt><trkpt lat="43.5527645" lon="11.5409971"><ele>137.66666666666666</ele><time>2026-04-22T07:07:34.311Z</time></trkpt><trkpt lat="43.5526934" lon="11.5410556"><ele>137.5</ele><time>2026-04-22T07:07:35.279Z</time></trkpt><trkpt lat="43.5526245" lon="11.5411197"><ele>137.33333333333331</ele><time>2026-04-22T07:07:36.275Z</time></trkpt><trkpt lat="43.5525684" lon="11.5411806"><ele>137.16666666666666</ele><time>2026-04-22T07:07:37.28Z</time></trkpt><trkpt lat="43.5525094" lon="11.5412284"><ele>137.0</ele><time>2026-04-22T07:07:38.33Z</time></trkpt><trkpt lat="43.5524174" lon="11.541311"><ele>137.2</ele><time>2026-04-22T07:07:40.313Z</time></trkpt><trkpt lat="43.5523373" lon="11.541366"><ele>137.39999999999998</ele><time>2026-04-22T07:07:42.286Z</time></trkpt><trkpt lat="43.5522397" lon="11.5414037"><ele>137.60000000000002</ele><time>2026-04-22T07:07:44.288Z</time></trkpt><trkpt lat="43.5521198" lon="11.5414554"><ele>137.8</ele><time>2026-04-22T07:07:46.286Z</time></trkpt><trkpt lat="43.5520672" lon="11.5415125"><ele>138.0</ele><time>2026-04-22T07:07:47.308Z</time></trkpt><trkpt lat="43.5520228" lon="11.5415858"><ele>138.0</ele><time>2026-04-22T07:07:48.305Z</time></trkpt><trkpt lat="43.5519723" lon="11.5416579"><ele>138.0</ele><time>2026-04-22T07:07:49.298Z</time></trkpt><trkpt lat="43.5519194" lon="11.541742"><ele>138.0</ele><time>2026-04-22T07:07:50.316Z</time></trkpt><trkpt lat="43.551848" lon="11.541816"><ele>138.0</ele><time>2026-04-22T07:07:51.296Z</time></trkpt><trkpt lat="43.5517736" lon="11.5418844"><ele>138.0</ele><time>2026-04-22T07:07:52.303Z</time></trkpt><trkpt lat="43.5517032" lon="11.5419515"><ele>138.0</ele><time>2026-04-22T07:07:53.292Z</time></trkpt><trkpt lat="43.5516253" lon="11.5420248"><ele>138.0</ele><time>2026-04-22T07:07:54.308Z</time></trkpt><trkpt lat="43.5515441" lon="11.5420997"><ele>138.0</ele><time>2026-04-22T07:07:55.321Z</time></trkpt><trkpt lat="43.5514625" lon="11.5421756"><ele>138.0</ele><time>2026-04-22T07:07:56.3Z</time></trkpt><trkpt lat="43.5513776" lon="11.5422537"><ele>138.0</ele><time>2026-04-22T07:07:57.32Z</time></trkpt><trkpt lat="43.5512913" lon="11.5423255"><ele>138.0</ele><time>2026-04-22T07:07:58.317Z</time></trkpt><trkpt lat="43.5512047" lon="11.5423972"><ele>138.0</ele><time>2026-04-22T07:07:59.317Z</time></trkpt><trkpt lat="43.5511139" lon="11.5424772"><ele>138.0</ele><time>2026-04-22T07:08:00.302Z</time></trkpt><trkpt lat="43.551016" lon="11.542565"><ele>138.0</ele><time>2026-04-22T07:08:01.307Z</time></trkpt><trkpt lat="43.5509198" lon="11.5426551"><ele>138.0</ele><time>2026-04-22T07:08:02.309Z</time></trkpt><trkpt lat="43.5508222" lon="11.5427437"><ele>138.0</ele><time>2026-04-22T07:08:03.313Z</time></trkpt><trkpt lat="43.5507199" lon="11.5428345"><ele>138.0</ele><time>2026-04-22T07:08:04.313Z</time></trkpt><trkpt lat="43.5506201" lon="11.5429227"><ele>138.0</ele><time>2026-04-22T07:08:05.302Z</time></trkpt><trkpt lat="43.5505204" lon="11.5430114"><ele>138.0</ele><time>2026-04-22T07:08:06.297Z</time></trkpt><trkpt lat="43.5504221" lon="11.5431037"><ele>137.75</ele><time>2026-04-22T07:08:07.306Z</time></trkpt><trkpt lat="43.5503192" lon="11.5431933"><ele>137.5</ele><time>2026-04-22T07:08:08.313Z</time></trkpt><trkpt lat="43.5502249" lon="11.5432825"><ele>137.25</ele><time>2026-04-22T07:08:09.289Z</time></trkpt><trkpt lat="43.5501241" lon="11.5433732"><ele>137.0</ele><time>2026-04-22T07:08:10.31Z</time></trkpt><trkpt lat="43.5500275" lon="11.5434691"><ele>137.0</ele><time>2026-04-22T07:08:11.315Z</time></trkpt><trkpt lat="43.5499289" lon="11.5435544"><ele>137.0</ele><time>2026-04-22T07:08:12.306Z</time></trkpt><trkpt lat="43.5498386" lon="11.5436384"><ele>137.0</ele><time>2026-04-22T07:08:13.311Z</time></trkpt><trkpt lat="43.5497553" lon="11.5437135"><ele>137.0</ele><time>2026-04-22T07:08:14.303Z</time></trkpt><trkpt lat="43.5496756" lon="11.5437723"><ele>137.0</ele><time>2026-04-22T07:08:15.304Z</time></trkpt><trkpt lat="43.5495932" lon="11.54383"><ele>137.00000000000003</ele><time>2026-04-22T07:08:16.308Z</time></trkpt><trkpt lat="43.5495179" lon="11.543874"><ele>137.0</ele><time>2026-04-22T07:08:17.308Z</time></trkpt><trkpt lat="43.5494488" lon="11.5438941"><ele>137.0</ele><time>2026-04-22T07:08:18.291Z</time></trkpt><trkpt lat="43.5493783" lon="11.5438977"><ele>137.0</ele><time>2026-04-22T07:08:19.305Z</time></trkpt><trkpt lat="43.5493112" lon="11.5439018"><ele>137.0</ele><time>2026-04-22T07:08:20.294Z</time></trkpt><trkpt lat="43.5492514" lon="11.5439435"><ele>137.00000000000003</ele><time>2026-04-22T07:08:21.289Z</time></trkpt><trkpt lat="43.5491991" lon="11.5440126"><ele>137.0</ele><time>2026-04-22T07:08:22.3Z</time></trkpt><trkpt lat="43.5491737" lon="11.5441071"><ele>137.0</ele><time>2026-04-22T07:08:23.303Z</time></trkpt><trkpt lat="43.549143" lon="11.5442042"><ele>137.0</ele><time>2026-04-22T07:08:24.306Z</time></trkpt><trkpt lat="43.549105" lon="11.5442923"><ele>137.0</ele><time>2026-04-22T07:08:25.304Z</time></trkpt><trkpt lat="43.5490527" lon="11.5443852"><ele>137.0</ele><time>2026-04-22T07:08:26.32Z</time></trkpt><trkpt lat="43.5489809" lon="11.5444835"><ele>137.0</ele><time>2026-04-22T07:08:27.299Z</time></trkpt><trkpt lat="43.548873" lon="11.5445689"><ele>137.0</ele><time>2026-04-22T07:08:28.327Z</time></trkpt><trkpt lat="43.548755" lon="11.5446615"><ele>137.0</ele><time>2026-04-22T07:08:29.328Z</time></trkpt><trkpt lat="43.5486377" lon="11.5447489"><ele>137.0</ele><time>2026-04-22T07:08:30.318Z</time></trkpt><trkpt lat="43.5485249" lon="11.5448379"><ele>137.0</ele><time>2026-04-22T07:08:31.313Z</time></trkpt><trkpt lat="43.548417" lon="11.5449298"><ele>136.75</ele><time>2026-04-22T07:08:32.316Z</time></trkpt><trkpt lat="43.548308" lon="11.5450278"><ele>136.5</ele><time>2026-04-22T07:08:33.296Z</time></trkpt><trkpt lat="43.5481953" lon="11.5451318"><ele>136.25</ele><time>2026-04-22T07:08:34.307Z</time></trkpt><trkpt lat="43.5480751" lon="11.5452359"><ele>136.0</ele><time>2026-04-22T07:08:35.292Z</time></trkpt><trkpt lat="43.5479548" lon="11.5453352"><ele>135.75</ele><time>2026-04-22T07:08:36.309Z</time></trkpt><trkpt lat="43.5478372" lon="11.5454374"><ele>135.5</ele><time>2026-04-22T07:08:37.312Z</time></trkpt><trkpt lat="43.5477245" lon="11.5455428"><ele>135.25</ele><time>2026-04-22T07:08:38.313Z</time></trkpt><trkpt lat="43.5476022" lon="11.5456425"><ele>135.0</ele><time>2026-04-22T07:08:39.308Z</time></trkpt><trkpt lat="43.5474845" lon="11.5457513"><ele>135.0</ele><time>2026-04-22T07:08:40.308Z</time></trkpt><trkpt lat="43.547371" lon="11.5458557"><ele>135.0</ele><time>2026-04-22T07:08:41.303Z</time></trkpt><trkpt lat="43.547252" lon="11.5459611"><ele>135.0</ele><time>2026-04-22T07:08:42.306Z</time></trkpt><trkpt lat="43.5471352" lon="11.5460596"><ele>135.0</ele><time>2026-04-22T07:08:43.286Z</time></trkpt><trkpt lat="43.5470193" lon="11.5461674"><ele>134.75</ele><time>2026-04-22T07:08:44.309Z</time></trkpt><trkpt lat="43.5469038" lon="11.5462666"><ele>134.5</ele><time>2026-04-22T07:08:45.313Z</time></trkpt><trkpt lat="43.5467872" lon="11.5463672"><ele>134.25</ele><time>2026-04-22T07:08:46.301Z</time></trkpt><trkpt lat="43.5466721" lon="11.5464722"><ele>134.0</ele><time>2026-04-22T07:08:47.301Z</time></trkpt><trkpt lat="43.5465546" lon="11.546576"><ele>134.0</ele><time>2026-04-22T07:08:48.305Z</time></trkpt><trkpt lat="43.5464345" lon="11.5466822"><ele>134.0</ele><time>2026-04-22T07:08:49.304Z</time></trkpt><trkpt lat="43.5463205" lon="11.5467868"><ele>134.0</ele><time>2026-04-22T07:08:50.291Z</time></trkpt><trkpt lat="43.5462065" lon="11.5468893"><ele>134.0</ele><time>2026-04-22T07:08:51.309Z</time></trkpt><trkpt lat="43.5460946" lon="11.5469966"><ele>134.75</ele><time>2026-04-22T07:08:52.313Z</time></trkpt><trkpt lat="43.5459798" lon="11.5471022"><ele>135.5</ele><time>2026-04-22T07:08:53.323Z</time></trkpt><trkpt lat="43.5458592" lon="11.5472033"><ele>136.25</ele><time>2026-04-22T07:08:54.314Z</time></trkpt><trkpt lat="43.5457546" lon="11.5473046"><ele>137.0</ele><time>2026-04-22T07:08:55.303Z</time></trkpt><trkpt lat="43.5456429" lon="11.5474076"><ele>137.0</ele><time>2026-04-22T07:08:56.3Z</time></trkpt><trkpt lat="43.5455313" lon="11.5475039"><ele>137.0</ele><time>2026-04-22T07:08:57.304Z</time></trkpt><trkpt lat="43.5454243" lon="11.5475978"><ele>137.0</ele><time>2026-04-22T07:08:58.301Z</time></trkpt><trkpt lat="43.5453228" lon="11.5476882"><ele>137.0</ele><time>2026-04-22T07:08:59.286Z</time></trkpt><trkpt lat="43.5452242" lon="11.5477679"><ele>137.2</ele><time>2026-04-22T07:09:00.3Z</time></trkpt><trkpt lat="43.5451361" lon="11.5478472"><ele>137.39999999999998</ele><time>2026-04-22T07:09:01.29Z</time></trkpt><trkpt lat="43.5450584" lon="11.5478974"><ele>137.60000000000002</ele><time>2026-04-22T07:09:02.296Z</time></trkpt><trkpt lat="43.5449734" lon="11.5479244"><ele>137.8</ele><time>2026-04-22T07:09:03.289Z</time></trkpt><trkpt lat="43.5448919" lon="11.5479197"><ele>138.0</ele><time>2026-04-22T07:09:04.306Z</time></trkpt><trkpt lat="43.5448002" lon="11.5479131"><ele>138.0</ele><time>2026-04-22T07:09:05.29Z</time></trkpt><trkpt lat="43.5447101" lon="11.54793"><ele>138.0</ele><time>2026-04-22T07:09:06.308Z</time></trkpt><trkpt lat="43.5446323" lon="11.5479793"><ele>138.0</ele><time>2026-04-22T07:09:07.305Z</time></trkpt><trkpt lat="43.5445625" lon="11.5480515"><ele>138.0</ele><time>2026-04-22T07:09:08.299Z</time></trkpt><trkpt lat="43.5445156" lon="11.5481596"><ele>138.0</ele><time>2026-04-22T07:09:09.27Z</time></trkpt><trkpt lat="43.5444822" lon="11.5482863"><ele>138.0</ele><time>2026-04-22T07:09:10.296Z</time></trkpt><trkpt lat="43.5444314" lon="11.5484075"><ele>138.0</ele><time>2026-04-22T07:09:11.281Z</time></trkpt><trkpt lat="43.544367" lon="11.5485066"><ele>138.0</ele><time>2026-04-22T07:09:12.311Z</time></trkpt><trkpt lat="43.5442812" lon="11.5486017"><ele>138.0</ele><time>2026-04-22T07:09:13.304Z</time></trkpt><trkpt lat="43.5441882" lon="11.5486889"><ele>138.0</ele><time>2026-04-22T07:09:14.305Z</time></trkpt><trkpt lat="43.5440801" lon="11.5487846"><ele>137.5</ele><time>2026-04-22T07:09:15.289Z</time></trkpt><trkpt lat="43.5439675" lon="11.548882"><ele>137.0</ele><time>2026-04-22T07:09:16.292Z</time></trkpt><trkpt lat="43.5438559" lon="11.5489801"><ele>136.5</ele><time>2026-04-22T07:09:17.321Z</time></trkpt><trkpt lat="43.5437398" lon="11.5490875"><ele>136.0</ele><time>2026-04-22T07:09:18.297Z</time></trkpt><trkpt lat="43.5436195" lon="11.5491961"><ele>137.0</ele><time>2026-04-22T07:09:19.311Z</time></trkpt><trkpt lat="43.5435026" lon="11.5492935"><ele>138.0</ele><time>2026-04-22T07:09:20.289Z</time></trkpt><trkpt lat="43.5433908" lon="11.5493954"><ele>139.0</ele><time>2026-04-22T07:09:21.287Z</time></trkpt><trkpt lat="43.5432761" lon="11.5495002"><ele>140.0</ele><time>2026-04-22T07:09:22.309Z</time></trkpt><trkpt lat="43.5431645" lon="11.5495997"><ele>140.0</ele><time>2026-04-22T07:09:23.312Z</time></trkpt><trkpt lat="43.5430459" lon="11.5497082"><ele>140.0</ele><time>2026-04-22T07:09:24.308Z</time></trkpt><trkpt lat="43.5429275" lon="11.5498127"><ele>140.0</ele><time>2026-04-22T07:09:25.288Z</time></trkpt><trkpt lat="43.5428027" lon="11.5499216"><ele>140.0</ele><time>2026-04-22T07:09:26.304Z</time></trkpt><trkpt lat="43.5426756" lon="11.5500319"><ele>140.0</ele><time>2026-04-22T07:09:27.295Z</time></trkpt><trkpt lat="43.5425528" lon="11.55014"><ele>140.0</ele><time>2026-04-22T07:09:28.307Z</time></trkpt><trkpt lat="43.5424275" lon="11.5502432"><ele>140.0</ele><time>2026-04-22T07:09:29.3Z</time></trkpt><trkpt lat="43.5422995" lon="11.5503536"><ele>140.0</ele><time>2026-04-22T07:09:30.3Z</time></trkpt><trkpt lat="43.542171" lon="11.5504729"><ele>139.66666666666666</ele><time>2026-04-22T07:09:31.29Z</time></trkpt><trkpt lat="43.5420325" lon="11.5505893"><ele>139.33333333333334</ele><time>2026-04-22T07:09:32.312Z</time></trkpt><trkpt lat="43.5418998" lon="11.5507048"><ele>139.0</ele><time>2026-04-22T07:09:33.301Z</time></trkpt><trkpt lat="43.5417627" lon="11.5508308"><ele>139.0</ele><time>2026-04-22T07:09:34.305Z</time></trkpt><trkpt lat="43.5416238" lon="11.5509413"><ele>139.0</ele><time>2026-04-22T07:09:35.328Z</time></trkpt><trkpt lat="43.5414834" lon="11.5510611"><ele>139.0</ele><time>2026-04-22T07:09:36.296Z</time></trkpt><trkpt lat="43.5413489" lon="11.5511827"><ele>138.66666666666669</ele><time>2026-04-22T07:09:37.315Z</time></trkpt><trkpt lat="43.5412143" lon="11.551308"><ele>138.33333333333334</ele><time>2026-04-22T07:09:38.314Z</time></trkpt><trkpt lat="43.5410793" lon="11.551423"><ele>138.0</ele><time>2026-04-22T07:09:39.294Z</time></trkpt><trkpt lat="43.5409466" lon="11.5515427"><ele>138.0</ele><time>2026-04-22T07:09:40.31Z</time></trkpt><trkpt lat="43.5408121" lon="11.5516582"><ele>138.0</ele><time>2026-04-22T07:09:41.306Z</time></trkpt><trkpt lat="43.5406752" lon="11.5517787"><ele>138.0</ele><time>2026-04-22T07:09:42.302Z</time></trkpt><trkpt lat="43.5405431" lon="11.5518975"><ele>138.0</ele><time>2026-04-22T07:09:43.314Z</time></trkpt><trkpt lat="43.5404098" lon="11.5520219"><ele>138.0</ele><time>2026-04-22T07:09:44.3Z</time></trkpt><trkpt lat="43.5402782" lon="11.5521323"><ele>138.0</ele><time>2026-04-22T07:09:45.295Z</time></trkpt><trkpt lat="43.5401442" lon="11.552245"><ele>138.0</ele><time>2026-04-22T07:09:46.299Z</time></trkpt><trkpt lat="43.5400186" lon="11.5523589"><ele>138.0</ele><time>2026-04-22T07:09:47.313Z</time></trkpt><trkpt lat="43.539897" lon="11.5524935"><ele>138.0</ele><time>2026-04-22T07:09:48.306Z</time></trkpt><trkpt lat="43.5397735" lon="11.5526204"><ele>138.0</ele><time>2026-04-22T07:09:49.291Z</time></trkpt><trkpt lat="43.5396535" lon="11.5527547"><ele>138.0</ele><time>2026-04-22T07:09:50.301Z</time></trkpt><trkpt lat="43.5395454" lon="11.5528885"><ele>138.0</ele><time>2026-04-22T07:09:51.315Z</time></trkpt><trkpt lat="43.539441" lon="11.5530271"><ele>138.0</ele><time>2026-04-22T07:09:52.299Z</time></trkpt><trkpt lat="43.5393426" lon="11.5531735"><ele>138.0</ele><time>2026-04-22T07:09:53.295Z</time></trkpt><trkpt lat="43.5392484" lon="11.5533182"><ele>138.0</ele><time>2026-04-22T07:09:54.298Z</time></trkpt><trkpt lat="43.5391533" lon="11.5534672"><ele>138.0</ele><time>2026-04-22T07:09:55.315Z</time></trkpt><trkpt lat="43.53907" lon="11.5536062"><ele>138.0</ele><time>2026-04-22T07:09:56.289Z</time></trkpt><trkpt lat="43.5389952" lon="11.5537347"><ele>138.0</ele><time>2026-04-22T07:09:57.292Z</time></trkpt><trkpt lat="43.5389211" lon="11.5538564"><ele>138.0</ele><time>2026-04-22T07:09:58.3Z</time></trkpt><trkpt lat="43.5388568" lon="11.5539592"><ele>138.0</ele><time>2026-04-22T07:09:59.32Z</time></trkpt><trkpt lat="43.538794" lon="11.5540426"><ele>138.0</ele><time>2026-04-22T07:10:00.291Z</time></trkpt><trkpt lat="43.5387297" lon="11.5540962"><ele>138.0</ele><time>2026-04-22T07:10:01.301Z</time></trkpt><trkpt lat="43.5385946" lon="11.5541517"><ele>139.20000000000002</ele><time>2026-04-22T07:10:03.294Z</time></trkpt><trkpt lat="43.5384979" lon="11.5541865"><ele>140.4</ele><time>2026-04-22T07:10:04.291Z</time></trkpt><trkpt lat="43.5383973" lon="11.5542523"><ele>141.60000000000002</ele><time>2026-04-22T07:10:05.287Z</time></trkpt><trkpt lat="43.5382921" lon="11.5543223"><ele>142.8</ele><time>2026-04-22T07:10:06.298Z</time></trkpt><trkpt lat="43.5381826" lon="11.5543701"><ele>144.0</ele><time>2026-04-22T07:10:07.288Z</time></trkpt><trkpt lat="43.5380635" lon="11.5544035"><ele>144.0</ele><time>2026-04-22T07:10:08.284Z</time></trkpt><trkpt lat="43.5379354" lon="11.5544556"><ele>144.0</ele><time>2026-04-22T07:10:09.314Z</time></trkpt><trkpt lat="43.5378097" lon="11.5545288"><ele>144.0</ele><time>2026-04-22T07:10:10.298Z</time></trkpt><trkpt lat="43.5376812" lon="11.5546144"><ele>144.0</ele><time>2026-04-22T07:10:11.312Z</time></trkpt><trkpt lat="43.5375488" lon="11.5546997"><ele>143.66666666666666</ele><time>2026-04-22T07:10:12.324Z</time></trkpt><trkpt lat="43.5374173" lon="11.5548076"><ele>143.33333333333331</ele><time>2026-04-22T07:10:13.31Z</time></trkpt><trkpt lat="43.5372838" lon="11.5549104"><ele>143.0</ele><time>2026-04-22T07:10:14.282Z</time></trkpt><trkpt lat="43.5371592" lon="11.5550206"><ele>142.66666666666666</ele><time>2026-04-22T07:10:15.285Z</time></trkpt><trkpt lat="43.5370345" lon="11.5551315"><ele>142.33333333333334</ele><time>2026-04-22T07:10:16.295Z</time></trkpt><trkpt lat="43.5369059" lon="11.5552421"><ele>142.0</ele><time>2026-04-22T07:10:17.301Z</time></trkpt><trkpt lat="43.5367733" lon="11.5553547"><ele>142.5</ele><time>2026-04-22T07:10:18.291Z</time></trkpt><trkpt lat="43.5366476" lon="11.5554617"><ele>143.0</ele><time>2026-04-22T07:10:19.301Z</time></trkpt><trkpt lat="43.5365182" lon="11.555566"><ele>143.5</ele><time>2026-04-22T07:10:20.307Z</time></trkpt><trkpt lat="43.5363963" lon="11.5556729"><ele>144.0</ele><time>2026-04-22T07:10:21.306Z</time></trkpt><trkpt lat="43.536274" lon="11.5557729"><ele>143.75</ele><time>2026-04-22T07:10:22.314Z</time></trkpt><trkpt lat="43.5361571" lon="11.5558819"><ele>143.5</ele><time>2026-04-22T07:10:23.307Z</time></trkpt><trkpt lat="43.5360349" lon="11.5559893"><ele>143.25</ele><time>2026-04-22T07:10:24.307Z</time></trkpt><trkpt lat="43.535915" lon="11.5560928"><ele>143.0</ele><time>2026-04-22T07:10:25.306Z</time></trkpt><trkpt lat="43.5357968" lon="11.5562001"><ele>143.0</ele><time>2026-04-22T07:10:26.308Z</time></trkpt><trkpt lat="43.5356734" lon="11.5563073"><ele>143.0</ele><time>2026-04-22T07:10:27.31Z</time></trkpt><trkpt lat="43.5355505" lon="11.5564067"><ele>143.0</ele><time>2026-04-22T07:10:28.303Z</time></trkpt><trkpt lat="43.5354306" lon="11.5565141"><ele>143.0</ele><time>2026-04-22T07:10:29.3Z</time></trkpt><trkpt lat="43.5353086" lon="11.556624"><ele>143.0</ele><time>2026-04-22T07:10:30.308Z</time></trkpt><trkpt lat="43.5351911" lon="11.5567343"><ele>143.0</ele><time>2026-04-22T07:10:31.296Z</time></trkpt><trkpt lat="43.5350745" lon="11.5568414"><ele>143.0</ele><time>2026-04-22T07:10:32.303Z</time></trkpt><trkpt lat="43.5349589" lon="11.5569399"><ele>143.0</ele><time>2026-04-22T07:10:33.295Z</time></trkpt><trkpt lat="43.5348405" lon="11.5570414"><ele>143.0</ele><time>2026-04-22T07:10:34.299Z</time></trkpt><trkpt lat="43.5347239" lon="11.5571417"><ele>143.0</ele><time>2026-04-22T07:10:35.299Z</time></trkpt><trkpt lat="43.5346058" lon="11.5572421"><ele>143.0</ele><time>2026-04-22T07:10:36.316Z</time></trkpt><trkpt lat="43.5344887" lon="11.5573397"><ele>143.0</ele><time>2026-04-22T07:10:37.309Z</time></trkpt><trkpt lat="43.5343793" lon="11.5574299"><ele>143.0</ele><time>2026-04-22T07:10:38.311Z</time></trkpt><trkpt lat="43.534269" lon="11.5575247"><ele>143.0</ele><time>2026-04-22T07:10:39.316Z</time></trkpt><trkpt lat="43.5341636" lon="11.5576088"><ele>143.0</ele><time>2026-04-22T07:10:40.301Z</time></trkpt><trkpt lat="43.5340595" lon="11.557697"><ele>143.0</ele><time>2026-04-22T07:10:41.317Z</time></trkpt><trkpt lat="43.5339584" lon="11.5577865"><ele>143.0</ele><time>2026-04-22T07:10:42.303Z</time></trkpt><trkpt lat="43.533848" lon="11.5578787"><ele>143.0</ele><time>2026-04-22T07:10:43.306Z</time></trkpt><trkpt lat="43.5337325" lon="11.5579688"><ele>143.0</ele><time>2026-04-22T07:10:44.3Z</time></trkpt><trkpt lat="43.5336132" lon="11.5580629"><ele>143.0</ele><time>2026-04-22T07:10:45.294Z</time></trkpt><trkpt lat="43.5334962" lon="11.5581652"><ele>143.0</ele><time>2026-04-22T07:10:46.288Z</time></trkpt><trkpt lat="43.5333801" lon="11.5582727"><ele>143.0</ele><time>2026-04-22T07:10:47.299Z</time></trkpt><trkpt lat="43.5332625" lon="11.5583713"><ele>143.0</ele><time>2026-04-22T07:10:48.315Z</time></trkpt><trkpt lat="43.5331483" lon="11.5584691"><ele>143.0</ele><time>2026-04-22T07:10:49.303Z</time></trkpt><trkpt lat="43.5330378" lon="11.5585751"><ele>143.0</ele><time>2026-04-22T07:10:50.295Z</time></trkpt><trkpt lat="43.5329217" lon="11.5586855"><ele>143.0</ele><time>2026-04-22T07:10:51.318Z</time></trkpt><trkpt lat="43.5328188" lon="11.5587966"><ele>143.0</ele><time>2026-04-22T07:10:52.305Z</time></trkpt><trkpt lat="43.5327181" lon="11.5589078"><ele>143.0</ele><time>2026-04-22T07:10:53.311Z</time></trkpt><trkpt lat="43.5326113" lon="11.5590103"><ele>143.5</ele><time>2026-04-22T07:10:54.295Z</time></trkpt><trkpt lat="43.5324977" lon="11.559111"><ele>144.0</ele><time>2026-04-22T07:10:55.307Z</time></trkpt><trkpt lat="43.5323829" lon="11.5592049"><ele>144.5</ele><time>2026-04-22T07:10:56.316Z</time></trkpt><trkpt lat="43.5322731" lon="11.5592957"><ele>145.0</ele><time>2026-04-22T07:10:57.315Z</time></trkpt><trkpt lat="43.5321584" lon="11.5593869"><ele>145.0</ele><time>2026-04-22T07:10:58.313Z</time></trkpt><trkpt lat="43.5320496" lon="11.5594813"><ele>145.0</ele><time>2026-04-22T07:10:59.333Z</time></trkpt><trkpt lat="43.5319316" lon="11.5595747"><ele>145.0</ele><time>2026-04-22T07:11:00.283Z</time></trkpt><trkpt lat="43.5318172" lon="11.5596663"><ele>145.0</ele><time>2026-04-22T07:11:01.309Z</time></trkpt><trkpt lat="43.5317038" lon="11.559759"><ele>145.0</ele><time>2026-04-22T07:11:02.296Z</time></trkpt><trkpt lat="43.5315941" lon="11.5598612"><ele>145.0</ele><time>2026-04-22T07:11:03.312Z</time></trkpt><trkpt lat="43.5314893" lon="11.5599551"><ele>145.0</ele><time>2026-04-22T07:11:04.299Z</time></trkpt><trkpt lat="43.5313867" lon="11.5600438"><ele>145.0</ele><time>2026-04-22T07:11:05.316Z</time></trkpt><trkpt lat="43.5312795" lon="11.5601314"><ele>145.25</ele><time>2026-04-22T07:11:06.314Z</time></trkpt><trkpt lat="43.5311769" lon="11.5602221"><ele>145.5</ele><time>2026-04-22T07:11:07.293Z</time></trkpt><trkpt lat="43.5310652" lon="11.5603112"><ele>145.75</ele><time>2026-04-22T07:11:08.298Z</time></trkpt><trkpt lat="43.5309545" lon="11.5604016"><ele>146.0</ele><time>2026-04-22T07:11:09.295Z</time></trkpt><trkpt lat="43.5308523" lon="11.5604953"><ele>146.0</ele><time>2026-04-22T07:11:10.315Z</time></trkpt><trkpt lat="43.5307421" lon="11.5605945"><ele>146.0</ele><time>2026-04-22T07:11:11.294Z</time></trkpt><trkpt lat="43.5306377" lon="11.5606921"><ele>146.0</ele><time>2026-04-22T07:11:12.295Z</time></trkpt><trkpt lat="43.5305321" lon="11.560788"><ele>146.0</ele><time>2026-04-22T07:11:13.315Z</time></trkpt><trkpt lat="43.5304238" lon="11.5608815"><ele>146.0</ele><time>2026-04-22T07:11:14.28Z</time></trkpt><trkpt lat="43.5303148" lon="11.5609786"><ele>146.0</ele><time>2026-04-22T07:11:15.296Z</time></trkpt><trkpt lat="43.5302111" lon="11.5610725"><ele>146.0</ele><time>2026-04-22T07:11:16.283Z</time></trkpt><trkpt lat="43.5301062" lon="11.5611668"><ele>146.0</ele><time>2026-04-22T07:11:17.32Z</time></trkpt><trkpt lat="43.5300011" lon="11.5612538"><ele>146.0</ele><time>2026-04-22T07:11:18.306Z</time></trkpt><trkpt lat="43.529898" lon="11.5613413"><ele>146.0</ele><time>2026-04-22T07:11:19.299Z</time></trkpt><trkpt lat="43.5297932" lon="11.5614395"><ele>146.0</ele><time>2026-04-22T07:11:20.27Z</time></trkpt><trkpt lat="43.5296913" lon="11.5615504"><ele>146.0</ele><time>2026-04-22T07:11:21.3Z</time></trkpt><trkpt lat="43.529585" lon="11.5616482"><ele>146.25</ele><time>2026-04-22T07:11:22.319Z</time></trkpt><trkpt lat="43.5294736" lon="11.561747"><ele>146.5</ele><time>2026-04-22T07:11:23.29Z</time></trkpt><trkpt lat="43.5293593" lon="11.5618285"><ele>146.75</ele><time>2026-04-22T07:11:24.299Z</time></trkpt><trkpt lat="43.5292451" lon="11.5619215"><ele>147.0</ele><time>2026-04-22T07:11:25.3Z</time></trkpt><trkpt lat="43.529141" lon="11.5620104"><ele>146.75</ele><time>2026-04-22T07:11:26.317Z</time></trkpt><trkpt lat="43.5290402" lon="11.5620987"><ele>146.5</ele><time>2026-04-22T07:11:27.304Z</time></trkpt><trkpt lat="43.5289447" lon="11.5621926"><ele>146.25</ele><time>2026-04-22T07:11:28.292Z</time></trkpt><trkpt lat="43.5288505" lon="11.5622932"><ele>146.0</ele><time>2026-04-22T07:11:29.291Z</time></trkpt><trkpt lat="43.5287565" lon="11.5623924"><ele>146.25</ele><time>2026-04-22T07:11:30.308Z</time></trkpt><trkpt lat="43.5286572" lon="11.5624919"><ele>146.5</ele><time>2026-04-22T07:11:31.312Z</time></trkpt><trkpt lat="43.5285601" lon="11.5625795"><ele>146.75</ele><time>2026-04-22T07:11:32.329Z</time></trkpt><trkpt lat="43.5284579" lon="11.5626608"><ele>147.0</ele><time>2026-04-22T07:11:33.31Z</time></trkpt><trkpt lat="43.5283526" lon="11.5627523"><ele>147.0</ele><time>2026-04-22T07:11:34.286Z</time></trkpt><trkpt lat="43.52825" lon="11.5628426"><ele>147.0</ele><time>2026-04-22T07:11:35.294Z</time></trkpt><trkpt lat="43.528149" lon="11.5629294"><ele>147.0</ele><time>2026-04-22T07:11:36.303Z</time></trkpt><trkpt lat="43.5280513" lon="11.5630093"><ele>147.0</ele><time>2026-04-22T07:11:37.308Z</time></trkpt><trkpt lat="43.5279565" lon="11.563092"><ele>147.0</ele><time>2026-04-22T07:11:38.304Z</time></trkpt><trkpt lat="43.5278609" lon="11.5631762"><ele>147.0</ele><time>2026-04-22T07:11:39.306Z</time></trkpt><trkpt lat="43.5277687" lon="11.5632611"><ele>147.0</ele><time>2026-04-22T07:11:40.296Z</time></trkpt><trkpt lat="43.5276699" lon="11.563345"><ele>147.0</ele><time>2026-04-22T07:11:41.297Z</time></trkpt><trkpt lat="43.527579" lon="11.5634254"><ele>147.0</ele><time>2026-04-22T07:11:42.285Z</time></trkpt><trkpt lat="43.5274854" lon="11.5635072"><ele>147.0</ele><time>2026-04-22T07:11:43.292Z</time></trkpt><trkpt lat="43.5273927" lon="11.5635823"><ele>147.0</ele><time>2026-04-22T07:11:44.292Z</time></trkpt><trkpt lat="43.5272996" lon="11.5636578"><ele>147.0</ele><time>2026-04-22T07:11:45.304Z</time></trkpt><trkpt lat="43.5272068" lon="11.5637337"><ele>147.0</ele><time>2026-04-22T07:11:46.301Z</time></trkpt><trkpt lat="43.527113" lon="11.5638095"><ele>147.0</ele><time>2026-04-22T07:11:47.303Z</time></trkpt><trkpt lat="43.5270332" lon="11.5638821"><ele>147.4</ele><time>2026-04-22T07:11:48.308Z</time></trkpt><trkpt lat="43.5269595" lon="11.5639585"><ele>147.79999999999998</ele><time>2026-04-22T07:11:49.29Z</time></trkpt><trkpt lat="43.5268822" lon="11.5640331"><ele>148.2</ele><time>2026-04-22T07:11:50.33Z</time></trkpt><trkpt lat="43.5268032" lon="11.5641035"><ele>148.6</ele><time>2026-04-22T07:11:51.303Z</time></trkpt><trkpt lat="43.5267265" lon="11.5641697"><ele>149.0</ele><time>2026-04-22T07:11:52.291Z</time></trkpt><trkpt lat="43.5266544" lon="11.5642276"><ele>149.0</ele><time>2026-04-22T07:11:53.306Z</time></trkpt><trkpt lat="43.5265822" lon="11.5642852"><ele>149.0</ele><time>2026-04-22T07:11:54.302Z</time></trkpt><trkpt lat="43.5265077" lon="11.564337"><ele>149.0</ele><time>2026-04-22T07:11:55.291Z</time></trkpt><trkpt lat="43.5264337" lon="11.5643846"><ele>149.0</ele><time>2026-04-22T07:11:56.293Z</time></trkpt><trkpt lat="43.5263609" lon="11.5644461"><ele>149.0</ele><time>2026-04-22T07:11:57.319Z</time></trkpt><trkpt lat="43.5262962" lon="11.5645026"><ele>149.0</ele><time>2026-04-22T07:11:58.299Z</time></trkpt><trkpt lat="43.5262401" lon="11.5645667"><ele>148.83333333333331</ele><time>2026-04-22T07:11:59.306Z</time></trkpt><trkpt lat="43.5261822" lon="11.5646175"><ele>148.66666666666666</ele><time>2026-04-22T07:12:00.313Z</time></trkpt><trkpt lat="43.5261171" lon="11.5646643"><ele>148.5</ele><time>2026-04-22T07:12:11.303Z</time></trkpt><trkpt lat="43.5260549" lon="11.5646815"><ele>148.33333333333334</ele><time>2026-04-22T07:12:13.297Z</time></trkpt><trkpt lat="43.5259964" lon="11.5647158"><ele>148.16666666666669</ele><time>2026-04-22T07:12:15.301Z</time></trkpt><trkpt lat="43.5259219" lon="11.5647889"><ele>148.0</ele><time>2026-04-22T07:12:17.293Z</time></trkpt><trkpt lat="43.525841" lon="11.5648809"><ele>148.0</ele><time>2026-04-22T07:12:19.293Z</time></trkpt><trkpt lat="43.5257457" lon="11.5649784"><ele>148.0</ele><time>2026-04-22T07:12:21.304Z</time></trkpt><trkpt lat="43.5256899" lon="11.5650244"><ele>148.0</ele><time>2026-04-22T07:12:22.287Z</time></trkpt><trkpt lat="43.5255822" lon="11.5651196"><ele>148.0</ele><time>2026-04-22T07:12:24.308Z</time></trkpt><trkpt lat="43.5255188" lon="11.5651705"><ele>148.0</ele><time>2026-04-22T07:12:25.298Z</time></trkpt><trkpt lat="43.5254628" lon="11.565217"><ele>148.0</ele><time>2026-04-22T07:12:26.292Z</time></trkpt><trkpt lat="43.5253996" lon="11.5652718"><ele>148.0</ele><time>2026-04-22T07:12:27.292Z</time></trkpt><trkpt lat="43.5253384" lon="11.5653243"><ele>148.0</ele><time>2026-04-22T07:12:28.31Z</time></trkpt><trkpt lat="43.5252802" lon="11.5653729"><ele>148.0</ele><time>2026-04-22T07:12:29.308Z</time></trkpt><trkpt lat="43.5251797" lon="11.5654576"><ele>148.0</ele><time>2026-04-22T07:12:31.302Z</time></trkpt><trkpt lat="43.5250851" lon="11.5655426"><ele>148.0</ele><time>2026-04-22T07:12:33.294Z</time></trkpt><trkpt lat="43.5250142" lon="11.5656137"><ele>148.4</ele><time>2026-04-22T07:12:35.3Z</time></trkpt><trkpt lat="43.5249518" lon="11.5656854"><ele>148.8</ele><time>2026-04-22T07:12:38.285Z</time></trkpt><trkpt lat="43.5248819" lon="11.5657153"><ele>149.2</ele><time>2026-04-22T07:12:41.299Z</time></trkpt><trkpt lat="43.5247886" lon="11.5656832"><ele>149.6</ele><time>2026-04-22T07:12:43.299Z</time></trkpt><trkpt lat="43.5246814" lon="11.5656296"><ele>150.0</ele><time>2026-04-22T07:12:45.306Z</time></trkpt><trkpt lat="43.524575" lon="11.5655753"><ele>149.83333333333334</ele><time>2026-04-22T07:12:47.289Z</time></trkpt><trkpt lat="43.5244518" lon="11.565557"><ele>149.66666666666666</ele><time>2026-04-22T07:12:49.283Z</time></trkpt><trkpt lat="43.5243798" lon="11.5655562"><ele>149.5</ele><time>2026-04-22T07:12:50.312Z</time></trkpt><trkpt lat="43.5243144" lon="11.5655605"><ele>149.33333333333331</ele><time>2026-04-22T07:12:51.321Z</time></trkpt><trkpt lat="43.5242475" lon="11.5655736"><ele>149.16666666666666</ele><time>2026-04-22T07:12:52.287Z</time></trkpt><trkpt lat="43.5241718" lon="11.5655883"><ele>149.0</ele><time>2026-04-22T07:12:53.302Z</time></trkpt><trkpt lat="43.5240932" lon="11.5656058"><ele>149.0</ele><time>2026-04-22T07:12:54.277Z</time></trkpt><trkpt lat="43.5240187" lon="11.5656382"><ele>149.0</ele><time>2026-04-22T07:12:55.282Z</time></trkpt><trkpt lat="43.5239392" lon="11.5656639"><ele>149.0</ele><time>2026-04-22T07:12:56.305Z</time></trkpt><trkpt lat="43.5238636" lon="11.5656885"><ele>149.0</ele><time>2026-04-22T07:12:57.299Z</time></trkpt><trkpt lat="43.5237865" lon="11.5657245"><ele>149.0</ele><time>2026-04-22T07:12:58.298Z</time></trkpt><trkpt lat="43.5237052" lon="11.5657617"><ele>149.0</ele><time>2026-04-22T07:12:59.293Z</time></trkpt><trkpt lat="43.5236373" lon="11.5658159"><ele>149.0</ele><time>2026-04-22T07:13:00.311Z</time></trkpt><trkpt lat="43.5235816" lon="11.5658851"><ele>149.0</ele><time>2026-04-22T07:13:01.3Z</time></trkpt><trkpt lat="43.5235187" lon="11.5659626"><ele>149.0</ele><time>2026-04-22T07:13:02.307Z</time></trkpt><trkpt lat="43.5234523" lon="11.5660411"><ele>149.0</ele><time>2026-04-22T07:13:03.286Z</time></trkpt><trkpt lat="43.5233809" lon="11.5661183"><ele>149.0</ele><time>2026-04-22T07:13:04.299Z</time></trkpt><trkpt lat="43.5233123" lon="11.5661918"><ele>149.0</ele><time>2026-04-22T07:13:05.299Z</time></trkpt><trkpt lat="43.523249" lon="11.5662637"><ele>149.0</ele><time>2026-04-22T07:13:06.311Z</time></trkpt><trkpt lat="43.5231845" lon="11.5663424"><ele>149.0</ele><time>2026-04-22T07:13:07.303Z</time></trkpt><trkpt lat="43.5231116" lon="11.5664151"><ele>149.0</ele><time>2026-04-22T07:13:08.306Z</time></trkpt><trkpt lat="43.5230458" lon="11.5664837"><ele>149.0</ele><time>2026-04-22T07:13:09.286Z</time></trkpt><trkpt lat="43.5229747" lon="11.5665475"><ele>149.0</ele><time>2026-04-22T07:13:10.31Z</time></trkpt><trkpt lat="43.5229011" lon="11.5666165"><ele>149.0</ele><time>2026-04-22T07:13:11.316Z</time></trkpt><trkpt lat="43.5228258" lon="11.5666932"><ele>149.0</ele><time>2026-04-22T07:13:12.305Z</time></trkpt><trkpt lat="43.5227541" lon="11.5667648"><ele>149.0</ele><time>2026-04-22T07:13:13.306Z</time></trkpt><trkpt lat="43.5226753" lon="11.5668333"><ele>149.0</ele><time>2026-04-22T07:13:14.307Z</time></trkpt><trkpt lat="43.5226044" lon="11.5669162"><ele>149.0</ele><time>2026-04-22T07:13:15.319Z</time></trkpt><trkpt lat="43.5225283" lon="11.567002"><ele>149.0</ele><time>2026-04-22T07:13:16.315Z</time></trkpt><trkpt lat="43.5224555" lon="11.5670852"><ele>149.6</ele><time>2026-04-22T07:13:17.302Z</time></trkpt><trkpt lat="43.522386" lon="11.5671662"><ele>150.2</ele><time>2026-04-22T07:13:18.312Z</time></trkpt><trkpt lat="43.5223097" lon="11.5672407"><ele>150.79999999999998</ele><time>2026-04-22T07:13:19.303Z</time></trkpt><trkpt lat="43.5222345" lon="11.5673166"><ele>151.4</ele><time>2026-04-22T07:13:20.313Z</time></trkpt><trkpt lat="43.5221555" lon="11.5673955"><ele>152.0</ele><time>2026-04-22T07:13:21.306Z</time></trkpt><trkpt lat="43.5220887" lon="11.5674749"><ele>151.83333333333331</ele><time>2026-04-22T07:13:22.295Z</time></trkpt><trkpt lat="43.5220212" lon="11.5675617"><ele>151.66666666666666</ele><time>2026-04-22T07:13:23.319Z</time></trkpt><trkpt lat="43.5219616" lon="11.5676488"><ele>151.5</ele><time>2026-04-22T07:13:24.3Z</time></trkpt><trkpt lat="43.5219032" lon="11.5677345"><ele>151.33333333333334</ele><time>2026-04-22T07:13:25.292Z</time></trkpt><trkpt lat="43.5218448" lon="11.5678225"><ele>151.16666666666669</ele><time>2026-04-22T07:13:26.301Z</time></trkpt><trkpt lat="43.5217923" lon="11.5679092"><ele>151.0</ele><time>2026-04-22T07:13:27.299Z</time></trkpt><trkpt lat="43.521734" lon="11.5679936"><ele>151.0</ele><time>2026-04-22T07:13:28.305Z</time></trkpt><trkpt lat="43.5216817" lon="11.5680769"><ele>151.0</ele><time>2026-04-22T07:13:29.296Z</time></trkpt><trkpt lat="43.5216329" lon="11.5681496"><ele>151.0</ele><time>2026-04-22T07:13:30.3Z</time></trkpt><trkpt lat="43.5215923" lon="11.5682177"><ele>151.0</ele><time>2026-04-22T07:13:31.306Z</time></trkpt><trkpt lat="43.5215617" lon="11.5683896"><ele>151.0</ele><time>2026-04-22T07:13:33.302Z</time></trkpt><trkpt lat="43.5215491" lon="11.5684764"><ele>151.0</ele><time>2026-04-22T07:13:34.314Z</time></trkpt><trkpt lat="43.5215319" lon="11.5686174"><ele>151.16666666666669</ele><time>2026-04-22T07:13:36.295Z</time></trkpt><trkpt lat="43.5215188" lon="11.5687262"><ele>151.33333333333334</ele><time>2026-04-22T07:13:39.313Z</time></trkpt><trkpt lat="43.5214829" lon="11.5688252"><ele>151.5</ele><time>2026-04-22T07:13:43.304Z</time></trkpt><trkpt lat="43.5215043" lon="11.5689528"><ele>151.66666666666666</ele><time>2026-04-22T07:13:46.312Z</time></trkpt><trkpt lat="43.52157" lon="11.5690853"><ele>151.83333333333331</ele><time>2026-04-22T07:13:48.301Z</time></trkpt><trkpt lat="43.5216092" lon="11.5691546"><ele>152.0</ele><time>2026-04-22T07:13:49.294Z</time></trkpt><trkpt lat="43.5216821" lon="11.5693038"><ele>152.0</ele><time>2026-04-22T07:13:51.295Z</time></trkpt><trkpt lat="43.5217236" lon="11.5693836"><ele>152.0</ele><time>2026-04-22T07:13:52.309Z</time></trkpt><trkpt lat="43.5217513" lon="11.5695584"><ele>152.0</ele><time>2026-04-22T07:13:54.285Z</time></trkpt><trkpt lat="43.5217265" lon="11.5696674"><ele>152.0</ele><time>2026-04-22T07:13:55.284Z</time></trkpt><trkpt lat="43.5217051" lon="11.5697726"><ele>152.0</ele><time>2026-04-22T07:13:56.287Z</time></trkpt><trkpt lat="43.5216762" lon="11.5698629"><ele>152.0</ele><time>2026-04-22T07:13:57.315Z</time></trkpt><trkpt lat="43.521643" lon="11.5699608"><ele>151.83333333333331</ele><time>2026-04-22T07:13:58.282Z</time></trkpt><trkpt lat="43.5216044" lon="11.5700633"><ele>151.66666666666666</ele><time>2026-04-22T07:13:59.3Z</time></trkpt><trkpt lat="43.5215641" lon="11.5701667"><ele>151.5</ele><time>2026-04-22T07:14:00.3Z</time></trkpt><trkpt lat="43.5215263" lon="11.5702688"><ele>151.33333333333334</ele><time>2026-04-22T07:14:01.306Z</time></trkpt><trkpt lat="43.5214893" lon="11.5703749"><ele>151.16666666666669</ele><time>2026-04-22T07:14:02.305Z</time></trkpt><trkpt lat="43.521449" lon="11.5704815"><ele>151.0</ele><time>2026-04-22T07:14:03.289Z</time></trkpt><trkpt lat="43.5214166" lon="11.5705915"><ele>150.83333333333334</ele><time>2026-04-22T07:14:04.303Z</time></trkpt><trkpt lat="43.521391" lon="11.5707019"><ele>150.66666666666669</ele><time>2026-04-22T07:14:05.303Z</time></trkpt><trkpt lat="43.5213561" lon="11.5708047"><ele>150.5</ele><time>2026-04-22T07:14:06.296Z</time></trkpt><trkpt lat="43.521325" lon="11.5709134"><ele>150.33333333333334</ele><time>2026-04-22T07:14:07.326Z</time></trkpt><trkpt lat="43.5212923" lon="11.5710191"><ele>150.16666666666666</ele><time>2026-04-22T07:14:08.316Z</time></trkpt><trkpt lat="43.5212623" lon="11.5711297"><ele>150.0</ele><time>2026-04-22T07:14:09.299Z</time></trkpt><trkpt lat="43.521234" lon="11.5712296"><ele>150.16666666666666</ele><time>2026-04-22T07:14:10.311Z</time></trkpt><trkpt lat="43.521207" lon="11.571325"><ele>150.33333333333334</ele><time>2026-04-22T07:14:11.31Z</time></trkpt><trkpt lat="43.5211805" lon="11.5714235"><ele>150.5</ele><time>2026-04-22T07:14:12.32Z</time></trkpt><trkpt lat="43.5211508" lon="11.5715322"><ele>150.66666666666669</ele><time>2026-04-22T07:14:13.31Z</time></trkpt><trkpt lat="43.521124" lon="11.5716318"><ele>150.83333333333334</ele><time>2026-04-22T07:14:14.304Z</time></trkpt><trkpt lat="43.5211038" lon="11.5717388"><ele>151.0</ele><time>2026-04-22T07:14:15.313Z</time></trkpt><trkpt lat="43.5210779" lon="11.571838"><ele>151.0</ele><time>2026-04-22T07:14:16.315Z</time></trkpt><trkpt lat="43.5210525" lon="11.5719331"><ele>151.0</ele><time>2026-04-22T07:14:17.296Z</time></trkpt><trkpt lat="43.5210219" lon="11.5720191"><ele>151.0</ele><time>2026-04-22T07:14:18.312Z</time></trkpt><trkpt lat="43.5209958" lon="11.5721103"><ele>151.0</ele><time>2026-04-22T07:14:19.293Z</time></trkpt><trkpt lat="43.520975" lon="11.5721935"><ele>151.0</ele><time>2026-04-22T07:14:20.294Z</time></trkpt><trkpt lat="43.5209367" lon="11.5723281"><ele>151.0</ele><time>2026-04-22T07:14:22.306Z</time></trkpt><trkpt lat="43.5208948" lon="11.5724466"><ele>150.8</ele><time>2026-04-22T07:14:26.301Z</time></trkpt><trkpt lat="43.5208372" lon="11.5726003"><ele>150.6</ele><time>2026-04-22T07:14:28.293Z</time></trkpt><trkpt lat="43.520802" lon="11.5726837"><ele>150.4</ele><time>2026-04-22T07:14:29.293Z</time></trkpt><trkpt lat="43.5207722" lon="11.5727673"><ele>150.2</ele><time>2026-04-22T07:14:30.314Z</time></trkpt><trkpt lat="43.5207231" lon="11.5728961"><ele>150.0</ele><time>2026-04-22T07:14:32.305Z</time></trkpt><trkpt lat="43.5206888" lon="11.5730007"><ele>149.6</ele><time>2026-04-22T07:14:34.29Z</time></trkpt><trkpt lat="43.5206527" lon="11.5731129"><ele>149.2</ele><time>2026-04-22T07:14:36.289Z</time></trkpt><trkpt lat="43.5206261" lon="11.573223"><ele>148.8</ele><time>2026-04-22T07:14:38.299Z</time></trkpt><trkpt lat="43.5205939" lon="11.5733666"><ele>148.4</ele><time>2026-04-22T07:14:40.304Z</time></trkpt><trkpt lat="43.5205515" lon="11.5735184"><ele>148.0</ele><time>2026-04-22T07:14:42.314Z</time></trkpt><trkpt lat="43.5205213" lon="11.5736128"><ele>147.83333333333334</ele><time>2026-04-22T07:14:43.316Z</time></trkpt><trkpt lat="43.5204884" lon="11.5736981"><ele>147.66666666666669</ele><time>2026-04-22T07:14:44.314Z</time></trkpt><trkpt lat="43.5204567" lon="11.5737829"><ele>147.5</ele><time>2026-04-22T07:14:45.296Z</time></trkpt><trkpt lat="43.5204291" lon="11.5738808"><ele>147.33333333333334</ele><time>2026-04-22T07:14:46.29Z</time></trkpt><trkpt lat="43.5204007" lon="11.5739836"><ele>147.16666666666666</ele><time>2026-04-22T07:14:47.289Z</time></trkpt><trkpt lat="43.5203647" lon="11.574095"><ele>147.0</ele><time>2026-04-22T07:14:48.304Z</time></trkpt><trkpt lat="43.5203299" lon="11.5742195"><ele>147.4</ele><time>2026-04-22T07:14:49.303Z</time></trkpt><trkpt lat="43.5202904" lon="11.5743479"><ele>147.79999999999998</ele><time>2026-04-22T07:14:50.304Z</time></trkpt><trkpt lat="43.5202527" lon="11.574475"><ele>148.2</ele><time>2026-04-22T07:14:51.287Z</time></trkpt><trkpt lat="43.5202179" lon="11.5746101"><ele>148.6</ele><time>2026-04-22T07:14:52.31Z</time></trkpt><trkpt lat="43.5201735" lon="11.5747489"><ele>149.0</ele><time>2026-04-22T07:14:53.281Z</time></trkpt><trkpt lat="43.52013" lon="11.5748898"><ele>149.0</ele><time>2026-04-22T07:14:54.286Z</time></trkpt><trkpt lat="43.5200853" lon="11.5750324"><ele>149.0</ele><time>2026-04-22T07:14:55.31Z</time></trkpt><trkpt lat="43.5200392" lon="11.5751738"><ele>149.0</ele><time>2026-04-22T07:14:56.296Z</time></trkpt><trkpt lat="43.519995" lon="11.5753208"><ele>149.0</ele><time>2026-04-22T07:14:57.307Z</time></trkpt><trkpt lat="43.5199508" lon="11.5754639"><ele>148.8</ele><time>2026-04-22T07:14:58.309Z</time></trkpt><trkpt lat="43.5199141" lon="11.5755965"><ele>148.60000000000002</ele><time>2026-04-22T07:14:59.303Z</time></trkpt><trkpt lat="43.5198694" lon="11.5757377"><ele>148.4</ele><time>2026-04-22T07:15:00.283Z</time></trkpt><trkpt lat="43.5198265" lon="11.5758799"><ele>148.20000000000002</ele><time>2026-04-22T07:15:01.298Z</time></trkpt><trkpt lat="43.5197808" lon="11.5760192"><ele>148.0</ele><time>2026-04-22T07:15:02.302Z</time></trkpt><trkpt lat="43.5197356" lon="11.5761728"><ele>148.0</ele><time>2026-04-22T07:15:03.287Z</time></trkpt><trkpt lat="43.5196906" lon="11.576321"><ele>148.0</ele><time>2026-04-22T07:15:04.296Z</time></trkpt><trkpt lat="43.5196459" lon="11.5764696"><ele>148.0</ele><time>2026-04-22T07:15:05.302Z</time></trkpt><trkpt lat="43.5196052" lon="11.576619"><ele>148.0</ele><time>2026-04-22T07:15:06.282Z</time></trkpt><trkpt lat="43.5195613" lon="11.5767651"><ele>148.0</ele><time>2026-04-22T07:15:07.281Z</time></trkpt><trkpt lat="43.5195215" lon="11.5769138"><ele>148.0</ele><time>2026-04-22T07:15:08.3Z</time></trkpt><trkpt lat="43.5194801" lon="11.5770614"><ele>148.0</ele><time>2026-04-22T07:15:09.284Z</time></trkpt><trkpt lat="43.5194411" lon="11.5772049"><ele>148.0</ele><time>2026-04-22T07:15:10.308Z</time></trkpt><trkpt lat="43.5194042" lon="11.5773415"><ele>148.0</ele><time>2026-04-22T07:15:11.286Z</time></trkpt><trkpt lat="43.5193625" lon="11.5774861"><ele>148.0</ele><time>2026-04-22T07:15:12.293Z</time></trkpt><trkpt lat="43.5193237" lon="11.577622"><ele>148.0</ele><time>2026-04-22T07:15:13.283Z</time></trkpt><trkpt lat="43.5192779" lon="11.5777659"><ele>148.0</ele><time>2026-04-22T07:15:14.289Z</time></trkpt><trkpt lat="43.5192348" lon="11.577911"><ele>148.0</ele><time>2026-04-22T07:15:15.296Z</time></trkpt><trkpt lat="43.5191932" lon="11.5780596"><ele>148.0</ele><time>2026-04-22T07:15:16.287Z</time></trkpt><trkpt lat="43.5191531" lon="11.5782011"><ele>148.0</ele><time>2026-04-22T07:15:17.293Z</time></trkpt><trkpt lat="43.519109" lon="11.5783413"><ele>148.0</ele><time>2026-04-22T07:15:18.328Z</time></trkpt><trkpt lat="43.5190694" lon="11.57848"><ele>148.0</ele><time>2026-04-22T07:15:19.294Z</time></trkpt><trkpt lat="43.5190252" lon="11.5786185"><ele>148.0</ele><time>2026-04-22T07:15:20.277Z</time></trkpt><trkpt lat="43.5189833" lon="11.5787562"><ele>148.0</ele><time>2026-04-22T07:15:21.274Z</time></trkpt><trkpt lat="43.5189414" lon="11.5788931"><ele>148.0</ele><time>2026-04-22T07:15:22.314Z</time></trkpt><trkpt lat="43.5188932" lon="11.5790269"><ele>148.0</ele><time>2026-04-22T07:15:23.307Z</time></trkpt><trkpt lat="43.5188492" lon="11.5791659"><ele>148.0</ele><time>2026-04-22T07:15:24.287Z</time></trkpt><trkpt lat="43.5188072" lon="11.579315"><ele>148.0</ele><time>2026-04-22T07:15:25.281Z</time></trkpt><trkpt lat="43.5187692" lon="11.5794651"><ele>148.6</ele><time>2026-04-22T07:15:26.304Z</time></trkpt><trkpt lat="43.518729" lon="11.5796067"><ele>149.20000000000002</ele><time>2026-04-22T07:15:27.288Z</time></trkpt><trkpt lat="43.5186813" lon="11.5797462"><ele>149.8</ele><time>2026-04-22T07:15:28.295Z</time></trkpt><trkpt lat="43.5186356" lon="11.5798861"><ele>150.4</ele><time>2026-04-22T07:15:29.299Z</time></trkpt><trkpt lat="43.5185956" lon="11.5800243"><ele>151.0</ele><time>2026-04-22T07:15:30.275Z</time></trkpt><trkpt lat="43.5185595" lon="11.5801561"><ele>151.0</ele><time>2026-04-22T07:15:31.304Z</time></trkpt><trkpt lat="43.5185148" lon="11.5802952"><ele>151.0</ele><time>2026-04-22T07:15:32.306Z</time></trkpt><trkpt lat="43.5184689" lon="11.5804547"><ele>151.0</ele><time>2026-04-22T07:15:33.306Z</time></trkpt><trkpt lat="43.5184154" lon="11.5806077"><ele>151.0</ele><time>2026-04-22T07:15:34.289Z</time></trkpt><trkpt lat="43.5183666" lon="11.5807683"><ele>150.75</ele><time>2026-04-22T07:15:35.292Z</time></trkpt><trkpt lat="43.5183169" lon="11.5809263"><ele>150.5</ele><time>2026-04-22T07:15:36.307Z</time></trkpt><trkpt lat="43.5182737" lon="11.5810925"><ele>150.25</ele><time>2026-04-22T07:15:37.283Z</time></trkpt><trkpt lat="43.518227" lon="11.5812548"><ele>150.0</ele><time>2026-04-22T07:15:38.294Z</time></trkpt><trkpt lat="43.5181815" lon="11.5814183"><ele>149.0</ele><time>2026-04-22T07:15:39.29Z</time></trkpt><trkpt lat="43.5181275" lon="11.5815836"><ele>148.0</ele><time>2026-04-22T07:15:40.288Z</time></trkpt><trkpt lat="43.5180718" lon="11.5817418"><ele>147.0</ele><time>2026-04-22T07:15:41.314Z</time></trkpt><trkpt lat="43.5180161" lon="11.5819128"><ele>146.0</ele><time>2026-04-22T07:15:42.312Z</time></trkpt><trkpt lat="43.5179731" lon="11.5820716"><ele>146.0</ele><time>2026-04-22T07:15:43.318Z</time></trkpt><trkpt lat="43.5179276" lon="11.5822316"><ele>146.0</ele><time>2026-04-22T07:15:44.305Z</time></trkpt><trkpt lat="43.5178763" lon="11.5823961"><ele>146.0</ele><time>2026-04-22T07:15:45.304Z</time></trkpt><trkpt lat="43.5178314" lon="11.5825586"><ele>146.0</ele><time>2026-04-22T07:15:46.305Z</time></trkpt><trkpt lat="43.5177851" lon="11.5827249"><ele>146.75</ele><time>2026-04-22T07:15:47.296Z</time></trkpt><trkpt lat="43.5177409" lon="11.5828793"><ele>147.5</ele><time>2026-04-22T07:15:48.317Z</time></trkpt><trkpt lat="43.5176968" lon="11.5830337"><ele>148.25</ele><time>2026-04-22T07:15:49.312Z</time></trkpt><trkpt lat="43.5176551" lon="11.5831785"><ele>149.0</ele><time>2026-04-22T07:15:50.311Z</time></trkpt><trkpt lat="43.5176123" lon="11.5833236"><ele>149.0</ele><time>2026-04-22T07:15:51.303Z</time></trkpt><trkpt lat="43.5175723" lon="11.5834656"><ele>149.0</ele><time>2026-04-22T07:15:52.29Z</time></trkpt><trkpt lat="43.5175319" lon="11.5836013"><ele>149.0</ele><time>2026-04-22T07:15:53.313Z</time></trkpt><trkpt lat="43.5174906" lon="11.5837337"><ele>149.0</ele><time>2026-04-22T07:15:54.308Z</time></trkpt><trkpt lat="43.5174538" lon="11.5838597"><ele>149.0</ele><time>2026-04-22T07:15:55.311Z</time></trkpt><trkpt lat="43.5174173" lon="11.5839942"><ele>148.75</ele><time>2026-04-22T07:15:56.307Z</time></trkpt><trkpt lat="43.5173789" lon="11.5841295"><ele>148.5</ele><time>2026-04-22T07:15:57.309Z</time></trkpt><trkpt lat="43.5173345" lon="11.5842757"><ele>148.25</ele><time>2026-04-22T07:15:58.312Z</time></trkpt><trkpt lat="43.5172842" lon="11.5844231"><ele>148.0</ele><time>2026-04-22T07:15:59.319Z</time></trkpt><trkpt lat="43.5172385" lon="11.5845713"><ele>147.75</ele><time>2026-04-22T07:16:00.284Z</time></trkpt><trkpt lat="43.5171866" lon="11.5847192"><ele>147.5</ele><time>2026-04-22T07:16:01.282Z</time></trkpt><trkpt lat="43.5171423" lon="11.5848741"><ele>147.25</ele><time>2026-04-22T07:16:02.302Z</time></trkpt><trkpt lat="43.5170987" lon="11.5850324"><ele>147.0</ele><time>2026-04-22T07:16:03.303Z</time></trkpt><trkpt lat="43.5170536" lon="11.5851823"><ele>147.5</ele><time>2026-04-22T07:16:04.294Z</time></trkpt><trkpt lat="43.5170053" lon="11.5853407"><ele>148.0</ele><time>2026-04-22T07:16:05.321Z</time></trkpt><trkpt lat="43.5169571" lon="11.5854923"><ele>148.5</ele><time>2026-04-22T07:16:06.305Z</time></trkpt><trkpt lat="43.5169157" lon="11.5856505"><ele>149.0</ele><time>2026-04-22T07:16:07.296Z</time></trkpt><trkpt lat="43.5168716" lon="11.5858042"><ele>149.0</ele><time>2026-04-22T07:16:08.295Z</time></trkpt><trkpt lat="43.5168232" lon="11.5859579"><ele>149.0</ele><time>2026-04-22T07:16:09.29Z</time></trkpt><trkpt lat="43.516775" lon="11.5861101"><ele>149.0</ele><time>2026-04-22T07:16:10.303Z</time></trkpt><trkpt lat="43.5167252" lon="11.5862659"><ele>149.0</ele><time>2026-04-22T07:16:11.287Z</time></trkpt><trkpt lat="43.5166761" lon="11.5864236"><ele>149.0</ele><time>2026-04-22T07:16:12.308Z</time></trkpt><trkpt lat="43.5166361" lon="11.5865736"><ele>149.0</ele><time>2026-04-22T07:16:13.324Z</time></trkpt><trkpt lat="43.5165846" lon="11.5867377"><ele>149.0</ele><time>2026-04-22T07:16:14.317Z</time></trkpt><trkpt lat="43.5165427" lon="11.5868961"><ele>149.0</ele><time>2026-04-22T07:16:15.312Z</time></trkpt><trkpt lat="43.5164904" lon="11.5870594"><ele>148.75</ele><time>2026-04-22T07:16:16.302Z</time></trkpt><trkpt lat="43.5164441" lon="11.5872296"><ele>148.5</ele><time>2026-04-22T07:16:17.327Z</time></trkpt><trkpt lat="43.5163931" lon="11.5874106"><ele>148.25</ele><time>2026-04-22T07:16:18.317Z</time></trkpt><trkpt lat="43.5163379" lon="11.5875918"><ele>148.0</ele><time>2026-04-22T07:16:19.311Z</time></trkpt><trkpt lat="43.5162829" lon="11.5877731"><ele>148.25</ele><time>2026-04-22T07:16:20.312Z</time></trkpt><trkpt lat="43.5162247" lon="11.5879505"><ele>148.5</ele><time>2026-04-22T07:16:21.292Z</time></trkpt><trkpt lat="43.516167" lon="11.5881297"><ele>148.75</ele><time>2026-04-22T07:16:22.29Z</time></trkpt><trkpt lat="43.5161164" lon="11.5883059"><ele>149.0</ele><time>2026-04-22T07:16:23.299Z</time></trkpt><trkpt lat="43.516061" lon="11.5884851"><ele>149.0</ele><time>2026-04-22T07:16:24.311Z</time></trkpt><trkpt lat="43.5160028" lon="11.5886638"><ele>149.0</ele><time>2026-04-22T07:16:25.276Z</time></trkpt><trkpt lat="43.5159442" lon="11.5888297"><ele>149.0</ele><time>2026-04-22T07:16:26.281Z</time></trkpt><trkpt lat="43.5158913" lon="11.589005"><ele>149.0</ele><time>2026-04-22T07:16:27.296Z</time></trkpt><trkpt lat="43.5158376" lon="11.5891696"><ele>148.5</ele><time>2026-04-22T07:16:28.288Z</time></trkpt><trkpt lat="43.515779" lon="11.5893375"><ele>148.0</ele><time>2026-04-22T07:16:29.293Z</time></trkpt><trkpt lat="43.5157141" lon="11.5894887"><ele>147.5</ele><time>2026-04-22T07:16:30.288Z</time></trkpt><trkpt lat="43.5156538" lon="11.5896416"><ele>147.0</ele><time>2026-04-22T07:16:31.282Z</time></trkpt><trkpt lat="43.5155876" lon="11.5897739"><ele>147.4</ele><time>2026-04-22T07:16:32.291Z</time></trkpt><trkpt lat="43.5155095" lon="11.5899051"><ele>147.79999999999998</ele><time>2026-04-22T07:16:33.283Z</time></trkpt><trkpt lat="43.515436" lon="11.590024"><ele>148.2</ele><time>2026-04-22T07:16:34.315Z</time></trkpt><trkpt lat="43.5153565" lon="11.590135"><ele>148.6</ele><time>2026-04-22T07:16:35.307Z</time></trkpt><trkpt lat="43.5152907" lon="11.5902364"><ele>149.0</ele><time>2026-04-22T07:16:36.277Z</time></trkpt><trkpt lat="43.5152353" lon="11.5903167"><ele>148.83333333333331</ele><time>2026-04-22T07:16:37.319Z</time></trkpt><trkpt lat="43.5151832" lon="11.5903836"><ele>148.66666666666666</ele><time>2026-04-22T07:16:38.301Z</time></trkpt><trkpt lat="43.5151345" lon="11.5904443"><ele>148.5</ele><time>2026-04-22T07:16:39.302Z</time></trkpt><trkpt lat="43.5150363" lon="11.5905085"><ele>148.33333333333334</ele><time>2026-04-22T07:16:41.306Z</time></trkpt><trkpt lat="43.5149422" lon="11.5904898"><ele>148.16666666666669</ele><time>2026-04-22T07:16:43.295Z</time></trkpt><trkpt lat="43.5148592" lon="11.5905234"><ele>148.0</ele><time>2026-04-22T07:16:45.317Z</time></trkpt><trkpt lat="43.5148283" lon="11.5906352"><ele>148.0</ele><time>2026-04-22T07:16:47.295Z</time></trkpt><trkpt lat="43.514822" lon="11.5907803"><ele>148.0</ele><time>2026-04-22T07:16:49.296Z</time></trkpt><trkpt lat="43.514777" lon="11.5909079"><ele>148.0</ele><time>2026-04-22T07:16:51.309Z</time></trkpt><trkpt lat="43.5147308" lon="11.5909743"><ele>148.0</ele><time>2026-04-22T07:16:52.289Z</time></trkpt><trkpt lat="43.5146814" lon="11.5910411"><ele>148.0</ele><time>2026-04-22T07:16:53.28Z</time></trkpt><trkpt lat="43.5146254" lon="11.5911122"><ele>148.0</ele><time>2026-04-22T07:16:54.289Z</time></trkpt><trkpt lat="43.5145636" lon="11.591187"><ele>148.33333333333334</ele><time>2026-04-22T07:16:55.299Z</time></trkpt><trkpt lat="43.5145052" lon="11.5912787"><ele>148.66666666666669</ele><time>2026-04-22T07:16:56.309Z</time></trkpt><trkpt lat="43.5144468" lon="11.5913674"><ele>149.0</ele><time>2026-04-22T07:16:57.312Z</time></trkpt><trkpt lat="43.5143868" lon="11.5914549"><ele>149.33333333333334</ele><time>2026-04-22T07:16:58.296Z</time></trkpt><trkpt lat="43.5143252" lon="11.5915448"><ele>149.66666666666666</ele><time>2026-04-22T07:16:59.298Z</time></trkpt><trkpt lat="43.5142591" lon="11.5916385"><ele>150.0</ele><time>2026-04-22T07:17:00.289Z</time></trkpt><trkpt lat="43.5141889" lon="11.5917409"><ele>150.0</ele><time>2026-04-22T07:17:01.302Z</time></trkpt><trkpt lat="43.5141251" lon="11.5918407"><ele>150.0</ele><time>2026-04-22T07:17:02.316Z</time></trkpt><trkpt lat="43.5140617" lon="11.591946"><ele>150.0</ele><time>2026-04-22T07:17:03.306Z</time></trkpt><trkpt lat="43.5139943" lon="11.592048"><ele>150.0</ele><time>2026-04-22T07:17:04.317Z</time></trkpt><trkpt lat="43.5139241" lon="11.5921495"><ele>150.0</ele><time>2026-04-22T07:17:05.294Z</time></trkpt><trkpt lat="43.5138612" lon="11.5922565"><ele>149.8</ele><time>2026-04-22T07:17:06.321Z</time></trkpt><trkpt lat="43.5137975" lon="11.5923598"><ele>149.6</ele><time>2026-04-22T07:17:07.306Z</time></trkpt><trkpt lat="43.5137295" lon="11.5924686"><ele>149.4</ele><time>2026-04-22T07:17:08.299Z</time></trkpt><trkpt lat="43.5136636" lon="11.5925742"><ele>149.2</ele><time>2026-04-22T07:17:09.292Z</time></trkpt><trkpt lat="43.5135947" lon="11.5926789"><ele>149.0</ele><time>2026-04-22T07:17:10.304Z</time></trkpt><trkpt lat="43.513532" lon="11.5927856"><ele>149.4</ele><time>2026-04-22T07:17:11.306Z</time></trkpt><trkpt lat="43.5134624" lon="11.5928875"><ele>149.8</ele><time>2026-04-22T07:17:12.291Z</time></trkpt><trkpt lat="43.5134027" lon="11.5929981"><ele>150.2</ele><time>2026-04-22T07:17:13.303Z</time></trkpt><trkpt lat="43.5133298" lon="11.5930999"><ele>150.6</ele><time>2026-04-22T07:17:14.305Z</time></trkpt><trkpt lat="43.513259" lon="11.593194"><ele>151.0</ele><time>2026-04-22T07:17:15.298Z</time></trkpt><trkpt lat="43.5131884" lon="11.5932886"><ele>151.0</ele><time>2026-04-22T07:17:16.295Z</time></trkpt><trkpt lat="43.5131146" lon="11.5933876"><ele>151.0</ele><time>2026-04-22T07:17:17.3Z</time></trkpt><trkpt lat="43.5130447" lon="11.593488"><ele>151.0</ele><time>2026-04-22T07:17:18.315Z</time></trkpt><trkpt lat="43.5129686" lon="11.593581"><ele>151.0</ele><time>2026-04-22T07:17:19.301Z</time></trkpt><trkpt lat="43.5128937" lon="11.5936743"><ele>151.0</ele><time>2026-04-22T07:17:20.311Z</time></trkpt><trkpt lat="43.5128225" lon="11.5937691"><ele>150.83333333333334</ele><time>2026-04-22T07:17:21.3Z</time></trkpt><trkpt lat="43.5127542" lon="11.5938521"><ele>150.66666666666669</ele><time>2026-04-22T07:17:22.303Z</time></trkpt><trkpt lat="43.5126998" lon="11.5939278"><ele>150.5</ele><time>2026-04-22T07:17:23.308Z</time></trkpt><trkpt lat="43.5126554" lon="11.5939915"><ele>150.33333333333334</ele><time>2026-04-22T07:17:24.295Z</time></trkpt><trkpt lat="43.5126074" lon="11.5940592"><ele>150.16666666666666</ele><time>2026-04-22T07:17:25.309Z</time></trkpt><trkpt lat="43.5125431" lon="11.5941415"><ele>150.0</ele><time>2026-04-22T07:17:27.269Z</time></trkpt><trkpt lat="43.51243" lon="11.5942603"><ele>150.0</ele><time>2026-04-22T07:17:31.27Z</time></trkpt><trkpt lat="43.5123776" lon="11.5943532"><ele>150.0</ele><time>2026-04-22T07:17:33.271Z</time></trkpt><trkpt lat="43.512297" lon="11.5944637"><ele>150.0</ele><time>2026-04-22T07:17:35.283Z</time></trkpt><trkpt lat="43.5122064" lon="11.5945743"><ele>150.0</ele><time>2026-04-22T07:17:37.272Z</time></trkpt><trkpt lat="43.5121634" lon="11.594642"><ele>150.0</ele><time>2026-04-22T07:17:38.277Z</time></trkpt><trkpt lat="43.5121171" lon="11.5947023"><ele>150.0</ele><time>2026-04-22T07:17:39.277Z</time></trkpt><trkpt lat="43.5120495" lon="11.5947934"><ele>149.6</ele><time>2026-04-22T07:17:41.283Z</time></trkpt><trkpt lat="43.5120024" lon="11.5948636"><ele>149.2</ele><time>2026-04-22T07:17:43.287Z</time></trkpt><trkpt lat="43.5119026" lon="11.5950073"><ele>148.8</ele><time>2026-04-22T07:17:45.272Z</time></trkpt><trkpt lat="43.511843" lon="11.5950951"><ele>148.4</ele><time>2026-04-22T07:17:46.292Z</time></trkpt><trkpt lat="43.5117868" lon="11.5951819"><ele>148.0</ele><time>2026-04-22T07:17:47.314Z</time></trkpt><trkpt lat="43.5117282" lon="11.5952643"><ele>148.0</ele><time>2026-04-22T07:17:48.302Z</time></trkpt><trkpt lat="43.51166" lon="11.5953514"><ele>148.0</ele><time>2026-04-22T07:17:49.301Z</time></trkpt><trkpt lat="43.5115858" lon="11.5954475"><ele>148.0</ele><time>2026-04-22T07:17:50.292Z</time></trkpt><trkpt lat="43.5115191" lon="11.5955497"><ele>148.0</ele><time>2026-04-22T07:17:51.28Z</time></trkpt><trkpt lat="43.5114451" lon="11.5956459"><ele>148.0</ele><time>2026-04-22T07:17:52.298Z</time></trkpt><trkpt lat="43.5113633" lon="11.5957459"><ele>148.0</ele><time>2026-04-22T07:17:53.292Z</time></trkpt><trkpt lat="43.5112859" lon="11.5958552"><ele>148.0</ele><time>2026-04-22T07:17:54.294Z</time></trkpt><trkpt lat="43.5112033" lon="11.5959655"><ele>148.0</ele><time>2026-04-22T07:17:55.304Z</time></trkpt><trkpt lat="43.5111201" lon="11.5960855"><ele>148.0</ele><time>2026-04-22T07:17:56.286Z</time></trkpt><trkpt lat="43.511024" lon="11.596207"><ele>148.0</ele><time>2026-04-22T07:17:57.301Z</time></trkpt><trkpt lat="43.5109362" lon="11.5963363"><ele>148.0</ele><time>2026-04-22T07:17:58.283Z</time></trkpt><trkpt lat="43.5108358" lon="11.5964684"><ele>148.0</ele><time>2026-04-22T07:17:59.308Z</time></trkpt><trkpt lat="43.510743" lon="11.5966001"><ele>148.0</ele><time>2026-04-22T07:18:00.287Z</time></trkpt><trkpt lat="43.5106502" lon="11.5967248"><ele>148.0</ele><time>2026-04-22T07:18:01.313Z</time></trkpt><trkpt lat="43.5105549" lon="11.5968429"><ele>148.0</ele><time>2026-04-22T07:18:02.298Z</time></trkpt><trkpt lat="43.5104619" lon="11.5969658"><ele>148.0</ele><time>2026-04-22T07:18:03.305Z</time></trkpt><trkpt lat="43.5103703" lon="11.5970866"><ele>148.0</ele><time>2026-04-22T07:18:04.299Z</time></trkpt><trkpt lat="43.5102779" lon="11.597213"><ele>148.5</ele><time>2026-04-22T07:18:05.29Z</time></trkpt><trkpt lat="43.5101901" lon="11.5973416"><ele>149.0</ele><time>2026-04-22T07:18:06.301Z</time></trkpt><trkpt lat="43.5100972" lon="11.597466"><ele>149.5</ele><time>2026-04-22T07:18:07.29Z</time></trkpt><trkpt lat="43.5100023" lon="11.5975967"><ele>150.0</ele><time>2026-04-22T07:18:08.307Z</time></trkpt><trkpt lat="43.5099074" lon="11.5977357"><ele>150.25</ele><time>2026-04-22T07:18:09.293Z</time></trkpt><trkpt lat="43.5098073" lon="11.5978658"><ele>150.5</ele><time>2026-04-22T07:18:10.31Z</time></trkpt><trkpt lat="43.5097158" lon="11.5979877"><ele>150.75</ele><time>2026-04-22T07:18:11.303Z</time></trkpt><trkpt lat="43.5096282" lon="11.598112"><ele>151.0</ele><time>2026-04-22T07:18:12.301Z</time></trkpt><trkpt lat="43.509543" lon="11.5982244"><ele>151.2</ele><time>2026-04-22T07:18:13.311Z</time></trkpt><trkpt lat="43.5094679" lon="11.5983298"><ele>151.39999999999998</ele><time>2026-04-22T07:18:14.289Z</time></trkpt><trkpt lat="43.5093957" lon="11.598446"><ele>151.6</ele><time>2026-04-22T07:18:15.306Z</time></trkpt><trkpt lat="43.5093299" lon="11.5985291"><ele>151.79999999999998</ele><time>2026-04-22T07:18:16.287Z</time></trkpt><trkpt lat="43.5092752" lon="11.5986134"><ele>152.0</ele><time>2026-04-22T07:18:46.306Z</time></trkpt><trkpt lat="43.5091748" lon="11.5987614"><ele>152.0</ele><time>2026-04-22T07:18:48.3Z</time></trkpt><trkpt lat="43.5091173" lon="11.5988541"><ele>152.0</ele><time>2026-04-22T07:18:49.286Z</time></trkpt><trkpt lat="43.5090598" lon="11.5989532"><ele>152.0</ele><time>2026-04-22T07:18:50.32Z</time></trkpt><trkpt lat="43.5089971" lon="11.599066"><ele>152.0</ele><time>2026-04-22T07:18:51.288Z</time></trkpt><trkpt lat="43.5089345" lon="11.5991904"><ele>152.0</ele><time>2026-04-22T07:18:52.303Z</time></trkpt><trkpt lat="43.5088649" lon="11.5993105"><ele>152.0</ele><time>2026-04-22T07:18:53.302Z</time></trkpt><trkpt lat="43.5087932" lon="11.5994371"><ele>152.0</ele><time>2026-04-22T07:18:54.293Z</time></trkpt><trkpt lat="43.5087291" lon="11.5995676"><ele>152.0</ele><time>2026-04-22T07:18:55.308Z</time></trkpt><trkpt lat="43.5086544" lon="11.5996915"><ele>152.0</ele><time>2026-04-22T07:18:56.289Z</time></trkpt><trkpt lat="43.5085858" lon="11.5998177"><ele>152.0</ele><time>2026-04-22T07:18:57.313Z</time></trkpt><trkpt lat="43.5085138" lon="11.5999496"><ele>152.0</ele><time>2026-04-22T07:18:58.322Z</time></trkpt><trkpt lat="43.5084437" lon="11.6000811"><ele>152.0</ele><time>2026-04-22T07:18:59.312Z</time></trkpt><trkpt lat="43.5083767" lon="11.6002142"><ele>152.0</ele><time>2026-04-22T07:19:00.324Z</time></trkpt><trkpt lat="43.5083089" lon="11.6003505"><ele>151.75</ele><time>2026-04-22T07:19:01.315Z</time></trkpt><trkpt lat="43.50824" lon="11.6004853"><ele>151.5</ele><time>2026-04-22T07:19:02.299Z</time></trkpt><trkpt lat="43.5081665" lon="11.6006248"><ele>151.25</ele><time>2026-04-22T07:19:03.308Z</time></trkpt><trkpt lat="43.5080832" lon="11.6007702"><ele>151.0</ele><time>2026-04-22T07:19:04.294Z</time></trkpt><trkpt lat="43.5080054" lon="11.6009167"><ele>151.0</ele><time>2026-04-22T07:19:05.297Z</time></trkpt><trkpt lat="43.5079287" lon="11.6010676"><ele>151.0</ele><time>2026-04-22T07:19:06.307Z</time></trkpt><trkpt lat="43.5078433" lon="11.6012206"><ele>151.0</ele><time>2026-04-22T07:19:07.309Z</time></trkpt><trkpt lat="43.5077582" lon="11.6013879"><ele>151.0</ele><time>2026-04-22T07:19:08.285Z</time></trkpt><trkpt lat="43.5076721" lon="11.6015519"><ele>151.0</ele><time>2026-04-22T07:19:09.301Z</time></trkpt><trkpt lat="43.5075767" lon="11.6017196"><ele>151.0</ele><time>2026-04-22T07:19:10.294Z</time></trkpt><trkpt lat="43.5074947" lon="11.6018922"><ele>151.0</ele><time>2026-04-22T07:19:11.318Z</time></trkpt><trkpt lat="43.5074165" lon="11.6020706"><ele>150.66666666666669</ele><time>2026-04-22T07:19:12.314Z</time></trkpt><trkpt lat="43.5073427" lon="11.6022547"><ele>150.33333333333334</ele><time>2026-04-22T07:19:13.286Z</time></trkpt><trkpt lat="43.5072753" lon="11.6024448"><ele>150.0</ele><time>2026-04-22T07:19:14.295Z</time></trkpt><trkpt lat="43.5072128" lon="11.6026389"><ele>150.33333333333334</ele><time>2026-04-22T07:19:15.293Z</time></trkpt><trkpt lat="43.5071474" lon="11.602835"><ele>150.66666666666669</ele><time>2026-04-22T07:19:16.315Z</time></trkpt><trkpt lat="43.5070869" lon="11.6030339"><ele>151.0</ele><time>2026-04-22T07:19:17.303Z</time></trkpt><trkpt lat="43.5070267" lon="11.603227"><ele>151.66666666666669</ele><time>2026-04-22T07:19:18.315Z</time></trkpt><trkpt lat="43.506974" lon="11.6034247"><ele>152.33333333333334</ele><time>2026-04-22T07:19:19.308Z</time></trkpt><trkpt lat="43.5069183" lon="11.6036226"><ele>153.0</ele><time>2026-04-22T07:19:20.316Z</time></trkpt><trkpt lat="43.5068626" lon="11.6038314"><ele>153.0</ele><time>2026-04-22T07:19:21.286Z</time></trkpt><trkpt lat="43.5068023" lon="11.6040368"><ele>153.0</ele><time>2026-04-22T07:19:22.31Z</time></trkpt><trkpt lat="43.506745" lon="11.6042468"><ele>153.0</ele><time>2026-04-22T07:19:23.305Z</time></trkpt><trkpt lat="43.5066903" lon="11.604458"><ele>152.33333333333334</ele><time>2026-04-22T07:19:24.308Z</time></trkpt><trkpt lat="43.5066317" lon="11.6046601"><ele>151.66666666666669</ele><time>2026-04-22T07:19:25.294Z</time></trkpt><trkpt lat="43.5065815" lon="11.6048527"><ele>151.0</ele><time>2026-04-22T07:19:26.308Z</time></trkpt><trkpt lat="43.5065293" lon="11.6050498"><ele>151.0</ele><time>2026-04-22T07:19:27.3Z</time></trkpt><trkpt lat="43.506484" lon="11.6052561"><ele>151.0</ele><time>2026-04-22T07:19:28.307Z</time></trkpt><trkpt lat="43.506442" lon="11.6054595"><ele>151.0</ele><time>2026-04-22T07:19:29.312Z</time></trkpt><trkpt lat="43.506393" lon="11.605674"><ele>151.33333333333334</ele><time>2026-04-22T07:19:30.28Z</time></trkpt><trkpt lat="43.5063455" lon="11.6058788"><ele>151.66666666666666</ele><time>2026-04-22T07:19:31.288Z</time></trkpt><trkpt lat="43.5063078" lon="11.6060789"><ele>152.0</ele><time>2026-04-22T07:19:32.299Z</time></trkpt><trkpt lat="43.5062651" lon="11.6062784"><ele>152.0</ele><time>2026-04-22T07:19:33.319Z</time></trkpt><trkpt lat="43.506222" lon="11.6064758"><ele>152.0</ele><time>2026-04-22T07:19:34.284Z</time></trkpt><trkpt lat="43.5061877" lon="11.6066684"><ele>152.0</ele><time>2026-04-22T07:19:35.305Z</time></trkpt><trkpt lat="43.5061508" lon="11.6068467"><ele>152.0</ele><time>2026-04-22T07:19:36.31Z</time></trkpt><trkpt lat="43.506114" lon="11.6070215"><ele>152.0</ele><time>2026-04-22T07:19:37.359Z</time></trkpt><trkpt lat="43.5060846" lon="11.6071825"><ele>152.0</ele><time>2026-04-22T07:19:38.309Z</time></trkpt><trkpt lat="43.5060526" lon="11.6073328"><ele>152.0</ele><time>2026-04-22T07:19:39.298Z</time></trkpt><trkpt lat="43.5060231" lon="11.6074626"><ele>152.0</ele><time>2026-04-22T07:19:40.295Z</time></trkpt><trkpt lat="43.5059901" lon="11.6075785"><ele>152.0</ele><time>2026-04-22T07:19:41.302Z</time></trkpt><trkpt lat="43.5059345" lon="11.6076677"><ele>152.0</ele><time>2026-04-22T07:19:42.304Z</time></trkpt><trkpt lat="43.5058725" lon="11.6077299"><ele>152.0</ele><time>2026-04-22T07:19:43.311Z</time></trkpt><trkpt lat="43.5058114" lon="11.6078014"><ele>152.0</ele><time>2026-04-22T07:19:44.307Z</time></trkpt><trkpt lat="43.5057753" lon="11.6078991"><ele>152.0</ele><time>2026-04-22T07:19:45.288Z</time></trkpt><trkpt lat="43.5057516" lon="11.6080306"><ele>152.0</ele><time>2026-04-22T07:19:46.304Z</time></trkpt><trkpt lat="43.505724" lon="11.6081795"><ele>152.0</ele><time>2026-04-22T07:19:47.306Z</time></trkpt><trkpt lat="43.5056791" lon="11.6083263"><ele>152.0</ele><time>2026-04-22T07:19:48.318Z</time></trkpt><trkpt lat="43.505626" lon="11.6084989"><ele>152.0</ele><time>2026-04-22T07:19:49.311Z</time></trkpt><trkpt lat="43.5055495" lon="11.6086779"><ele>152.0</ele><time>2026-04-22T07:19:50.316Z</time></trkpt><trkpt lat="43.5054647" lon="11.608868"><ele>152.0</ele><time>2026-04-22T07:19:51.282Z</time></trkpt><trkpt lat="43.5053878" lon="11.609052"><ele>152.0</ele><time>2026-04-22T07:19:52.284Z</time></trkpt><trkpt lat="43.5053156" lon="11.6092397"><ele>152.0</ele><time>2026-04-22T07:19:53.345Z</time></trkpt><trkpt lat="43.5052362" lon="11.6094199"><ele>152.0</ele><time>2026-04-22T07:19:54.304Z</time></trkpt><trkpt lat="43.5051521" lon="11.6095738"><ele>152.0</ele><time>2026-04-22T07:19:55.306Z</time></trkpt><trkpt lat="43.5050576" lon="11.6097225"><ele>152.0</ele><time>2026-04-22T07:19:56.329Z</time></trkpt><trkpt lat="43.5049525" lon="11.6098647"><ele>152.0</ele><time>2026-04-22T07:19:57.299Z</time></trkpt><trkpt lat="43.5048485" lon="11.609984"><ele>152.0</ele><time>2026-04-22T07:19:58.298Z</time></trkpt><trkpt lat="43.5047435" lon="11.610107"><ele>152.0</ele><time>2026-04-22T07:19:59.301Z</time></trkpt><trkpt lat="43.5046522" lon="11.6102192"><ele>151.79999999999998</ele><time>2026-04-22T07:20:00.309Z</time></trkpt><trkpt lat="43.5045626" lon="11.6103331"><ele>151.6</ele><time>2026-04-22T07:20:01.306Z</time></trkpt><trkpt lat="43.5044702" lon="11.6104347"><ele>151.39999999999998</ele><time>2026-04-22T07:20:02.291Z</time></trkpt><trkpt lat="43.5043841" lon="11.6105268"><ele>151.2</ele><time>2026-04-22T07:20:03.288Z</time></trkpt><trkpt lat="43.5043095" lon="11.6105926"><ele>151.0</ele><time>2026-04-22T07:20:04.305Z</time></trkpt><trkpt lat="43.504225" lon="11.6106151"><ele>151.0</ele><time>2026-04-22T07:20:05.306Z</time></trkpt><trkpt lat="43.5041582" lon="11.6106119"><ele>151.0</ele><time>2026-04-22T07:20:06.29Z</time></trkpt><trkpt lat="43.5040892" lon="11.6106043"><ele>151.0</ele><time>2026-04-22T07:20:07.321Z</time></trkpt><trkpt lat="43.5039746" lon="11.6105414"><ele>151.0</ele><time>2026-04-22T07:20:09.286Z</time></trkpt><trkpt lat="43.503914" lon="11.6104895"><ele>151.0</ele><time>2026-04-22T07:20:10.313Z</time></trkpt><trkpt lat="43.503794" lon="11.6104119"><ele>150.8</ele><time>2026-04-22T07:20:12.321Z</time></trkpt><trkpt lat="43.5037065" lon="11.6103942"><ele>150.6</ele><time>2026-04-22T07:20:13.384Z</time></trkpt><trkpt lat="43.5036137" lon="11.6103648"><ele>150.4</ele><time>2026-04-22T07:20:14.334Z</time></trkpt><trkpt lat="43.503509" lon="11.610318"><ele>150.2</ele><time>2026-04-22T07:20:15.337Z</time></trkpt><trkpt lat="43.5033846" lon="11.610237"><ele>150.0</ele><time>2026-04-22T07:20:16.336Z</time></trkpt><trkpt lat="43.5032654" lon="11.6101522"><ele>150.0</ele><time>2026-04-22T07:20:17.294Z</time></trkpt><trkpt lat="43.5031252" lon="11.6100775"><ele>150.0</ele><time>2026-04-22T07:20:18.301Z</time></trkpt><trkpt lat="43.5029804" lon="11.6100235"><ele>150.0</ele><time>2026-04-22T07:20:19.275Z</time></trkpt><trkpt lat="43.5028241" lon="11.6100001"><ele>150.66666666666666</ele><time>2026-04-22T07:20:20.284Z</time></trkpt><trkpt lat="43.5026723" lon="11.6100077"><ele>151.33333333333331</ele><time>2026-04-22T07:20:21.339Z</time></trkpt><trkpt lat="43.5025188" lon="11.6100199"><ele>152.0</ele><time>2026-04-22T07:20:22.362Z</time></trkpt><trkpt lat="43.5023707" lon="11.6100763"><ele>152.0</ele><time>2026-04-22T07:20:23.351Z</time></trkpt><trkpt lat="43.5022192" lon="11.6101517"><ele>152.0</ele><time>2026-04-22T07:20:24.353Z</time></trkpt><trkpt lat="43.5020765" lon="11.6102601"><ele>152.0</ele><time>2026-04-22T07:20:25.344Z</time></trkpt><trkpt lat="43.5019288" lon="11.6103868"><ele>152.0</ele><time>2026-04-22T07:20:26.36Z</time></trkpt><trkpt lat="43.5017649" lon="11.6105476"><ele>152.0</ele><time>2026-04-22T07:20:27.348Z</time></trkpt><trkpt lat="43.501599" lon="11.6107128"><ele>152.0</ele><time>2026-04-22T07:20:28.364Z</time></trkpt><trkpt lat="43.5014346" lon="11.6108626"><ele>152.0</ele><time>2026-04-22T07:20:29.335Z</time></trkpt><trkpt lat="43.501271" lon="11.6110082"><ele>152.0</ele><time>2026-04-22T07:20:30.334Z</time></trkpt><trkpt lat="43.5011034" lon="11.6111609"><ele>152.0</ele><time>2026-04-22T07:20:31.318Z</time></trkpt><trkpt lat="43.5009361" lon="11.6113221"><ele>152.33333333333331</ele><time>2026-04-22T07:20:32.403Z</time></trkpt><trkpt lat="43.5007661" lon="11.6114681"><ele>152.66666666666666</ele><time>2026-04-22T07:20:33.397Z</time></trkpt><trkpt lat="43.5005927" lon="11.6116097"><ele>153.0</ele><time>2026-04-22T07:20:34.345Z</time></trkpt><trkpt lat="43.5004219" lon="11.611748"><ele>153.33333333333334</ele><time>2026-04-22T07:20:35.346Z</time></trkpt><trkpt lat="43.5002492" lon="11.6118976"><ele>153.66666666666669</ele><time>2026-04-22T07:20:36.39Z</time></trkpt><trkpt lat="43.5000767" lon="11.6120447"><ele>154.0</ele><time>2026-04-22T07:20:37.367Z</time></trkpt><trkpt lat="43.4999109" lon="11.6121832"><ele>154.0</ele><time>2026-04-22T07:20:38.401Z</time></trkpt><trkpt lat="43.4997428" lon="11.6123259"><ele>154.0</ele><time>2026-04-22T07:20:39.405Z</time></trkpt><trkpt lat="43.4995743" lon="11.612462"><ele>154.0</ele><time>2026-04-22T07:20:40.401Z</time></trkpt><trkpt lat="43.4994068" lon="11.612606"><ele>154.66666666666669</ele><time>2026-04-22T07:20:41.369Z</time></trkpt><trkpt lat="43.4992398" lon="11.6127475"><ele>155.33333333333334</ele><time>2026-04-22T07:20:42.406Z</time></trkpt><trkpt lat="43.4990752" lon="11.6128844"><ele>156.0</ele><time>2026-04-22T07:20:43.408Z</time></trkpt><trkpt lat="43.498905" lon="11.6130126"><ele>158.0</ele><time>2026-04-22T07:20:44.359Z</time></trkpt><trkpt lat="43.4987366" lon="11.6131496"><ele>160.0</ele><time>2026-04-22T07:20:45.384Z</time></trkpt><trkpt lat="43.498568" lon="11.6132897"><ele>162.0</ele><time>2026-04-22T07:20:46.386Z</time></trkpt><trkpt lat="43.4983982" lon="11.613428"><ele>162.0</ele><time>2026-04-22T07:20:47.378Z</time></trkpt><trkpt lat="43.4982302" lon="11.6135651"><ele>162.0</ele><time>2026-04-22T07:20:48.38Z</time></trkpt><trkpt lat="43.4980637" lon="11.613701"><ele>162.0</ele><time>2026-04-22T07:20:49.388Z</time></trkpt><trkpt lat="43.4978934" lon="11.6138342"><ele>162.33333333333334</ele><time>2026-04-22T07:20:50.342Z</time></trkpt><trkpt lat="43.4977294" lon="11.6139696"><ele>162.66666666666669</ele><time>2026-04-22T07:20:51.399Z</time></trkpt><trkpt lat="43.4975636" lon="11.6141001"><ele>163.0</ele><time>2026-04-22T07:20:52.374Z</time></trkpt><trkpt lat="43.4974008" lon="11.6142366"><ele>163.0</ele><time>2026-04-22T07:20:53.34Z</time></trkpt><trkpt lat="43.4972385" lon="11.614367"><ele>163.0</ele><time>2026-04-22T07:20:54.336Z</time></trkpt><trkpt lat="43.4970797" lon="11.6144788"><ele>163.0</ele><time>2026-04-22T07:20:55.374Z</time></trkpt><trkpt lat="43.4969226" lon="11.6145727"><ele>161.33333333333334</ele><time>2026-04-22T07:20:56.366Z</time></trkpt><trkpt lat="43.4967571" lon="11.6146478"><ele>159.66666666666666</ele><time>2026-04-22T07:20:57.417Z</time></trkpt><trkpt lat="43.496584" lon="11.6147127"><ele>158.0</ele><time>2026-04-22T07:20:58.373Z</time></trkpt><trkpt lat="43.4964084" lon="11.6147502"><ele>158.0</ele><time>2026-04-22T07:20:59.382Z</time></trkpt><trkpt lat="43.4962293" lon="11.6147726"><ele>158.0</ele><time>2026-04-22T07:21:00.377Z</time></trkpt><trkpt lat="43.4960439" lon="11.6147778"><ele>158.0</ele><time>2026-04-22T07:21:01.365Z</time></trkpt><trkpt lat="43.4958536" lon="11.6147788"><ele>158.0</ele><time>2026-04-22T07:21:02.422Z</time></trkpt><trkpt lat="43.495669" lon="11.6147785"><ele>158.0</ele><time>2026-04-22T07:21:03.362Z</time></trkpt><trkpt lat="43.4954833" lon="11.6148095"><ele>158.0</ele><time>2026-04-22T07:21:04.39Z</time></trkpt><trkpt lat="43.4953" lon="11.6148446"><ele>158.66666666666666</ele><time>2026-04-22T07:21:05.353Z</time></trkpt><trkpt lat="43.4951237" lon="11.614904"><ele>159.33333333333334</ele><time>2026-04-22T07:21:06.419Z</time></trkpt><trkpt lat="43.4949451" lon="11.614974"><ele>160.0</ele><time>2026-04-22T07:21:07.408Z</time></trkpt><trkpt lat="43.4947728" lon="11.6150545"><ele>160.0</ele><time>2026-04-22T07:21:08.407Z</time></trkpt><trkpt lat="43.4946055" lon="11.6151445"><ele>160.0</ele><time>2026-04-22T07:21:09.408Z</time></trkpt><trkpt lat="43.4944463" lon="11.6152473"><ele>160.0</ele><time>2026-04-22T07:21:10.405Z</time></trkpt><trkpt lat="43.4942952" lon="11.6153463"><ele>160.25</ele><time>2026-04-22T07:21:11.398Z</time></trkpt><trkpt lat="43.4941525" lon="11.6154382"><ele>160.5</ele><time>2026-04-22T07:21:12.361Z</time></trkpt><trkpt lat="43.4940169" lon="11.6155247"><ele>160.75</ele><time>2026-04-22T07:21:13.412Z</time></trkpt><trkpt lat="43.4938996" lon="11.6156016"><ele>161.0</ele><time>2026-04-22T07:21:14.363Z</time></trkpt><trkpt lat="43.4937985" lon="11.6156677"><ele>161.60000000000002</ele><time>2026-04-22T07:21:15.396Z</time></trkpt><trkpt lat="43.4936979" lon="11.6157313"><ele>162.2</ele><time>2026-04-22T07:21:16.373Z</time></trkpt><trkpt lat="43.4936063" lon="11.6157799"><ele>162.8</ele><time>2026-04-22T07:21:17.328Z</time></trkpt><trkpt lat="43.4935116" lon="11.6157936"><ele>163.39999999999998</ele><time>2026-04-22T07:21:18.397Z</time></trkpt><trkpt lat="43.4934214" lon="11.6157957"><ele>164.0</ele><time>2026-04-22T07:21:19.386Z</time></trkpt><trkpt lat="43.4933295" lon="11.6157929"><ele>164.0</ele><time>2026-04-22T07:21:20.39Z</time></trkpt><trkpt lat="43.4932395" lon="11.6158282"><ele>164.0</ele><time>2026-04-22T07:21:21.354Z</time></trkpt><trkpt lat="43.4931684" lon="11.6159111"><ele>164.0</ele><time>2026-04-22T07:21:22.39Z</time></trkpt><trkpt lat="43.4930947" lon="11.6160111"><ele>164.0</ele><time>2026-04-22T07:21:23.394Z</time></trkpt><trkpt lat="43.4930077" lon="11.616132"><ele>164.0</ele><time>2026-04-22T07:21:24.398Z</time></trkpt><trkpt lat="43.4929122" lon="11.6162496"><ele>164.33333333333331</ele><time>2026-04-22T07:21:25.411Z</time></trkpt><trkpt lat="43.4927851" lon="11.6163539"><ele>164.66666666666666</ele><time>2026-04-22T07:21:26.416Z</time></trkpt><trkpt lat="43.4926434" lon="11.6164516"><ele>165.0</ele><time>2026-04-22T07:21:27.406Z</time></trkpt><trkpt lat="43.4925101" lon="11.6165493"><ele>165.0</ele><time>2026-04-22T07:21:28.392Z</time></trkpt><trkpt lat="43.4923847" lon="11.6166835"><ele>165.0</ele><time>2026-04-22T07:21:29.409Z</time></trkpt><trkpt lat="43.4922684" lon="11.616823"><ele>165.0</ele><time>2026-04-22T07:21:30.416Z</time></trkpt><trkpt lat="43.4921562" lon="11.6169807"><ele>163.0</ele><time>2026-04-22T07:21:31.418Z</time></trkpt><trkpt lat="43.4920525" lon="11.6171485"><ele>161.0</ele><time>2026-04-22T07:21:32.399Z</time></trkpt><trkpt lat="43.4919522" lon="11.6173262"><ele>159.0</ele><time>2026-04-22T07:21:33.419Z</time></trkpt><trkpt lat="43.4918513" lon="11.6175066"><ele>159.0</ele><time>2026-04-22T07:21:34.413Z</time></trkpt><trkpt lat="43.491749" lon="11.6176805"><ele>159.0</ele><time>2026-04-22T07:21:35.328Z</time></trkpt><trkpt lat="43.4916509" lon="11.6178539"><ele>159.0</ele><time>2026-04-22T07:21:36.338Z</time></trkpt><trkpt lat="43.4915512" lon="11.6180201"><ele>160.66666666666666</ele><time>2026-04-22T07:21:37.328Z</time></trkpt><trkpt lat="43.4914529" lon="11.618193"><ele>162.33333333333331</ele><time>2026-04-22T07:21:38.333Z</time></trkpt><trkpt lat="43.4913534" lon="11.6183627"><ele>164.0</ele><time>2026-04-22T07:21:39.367Z</time></trkpt><trkpt lat="43.4912539" lon="11.6185266"><ele>166.5</ele><time>2026-04-22T07:21:40.362Z</time></trkpt><trkpt lat="43.491151" lon="11.6186847"><ele>169.0</ele><time>2026-04-22T07:21:41.362Z</time></trkpt><trkpt lat="43.4910596" lon="11.6188482"><ele>171.5</ele><time>2026-04-22T07:21:42.352Z</time></trkpt><trkpt lat="43.4909692" lon="11.6189955"><ele>174.0</ele><time>2026-04-22T07:21:43.346Z</time></trkpt><trkpt lat="43.4908791" lon="11.619133"><ele>174.0</ele><time>2026-04-22T07:21:44.352Z</time></trkpt><trkpt lat="43.4907818" lon="11.6192535"><ele>174.0</ele><time>2026-04-22T07:21:45.355Z</time></trkpt><trkpt lat="43.4906841" lon="11.6193596"><ele>174.0</ele><time>2026-04-22T07:21:46.353Z</time></trkpt><trkpt lat="43.4905785" lon="11.6194342"><ele>174.0</ele><time>2026-04-22T07:21:47.345Z</time></trkpt><trkpt lat="43.4904708" lon="11.6194906"><ele>174.79999999999998</ele><time>2026-04-22T07:21:48.362Z</time></trkpt><trkpt lat="43.4903626" lon="11.6195158"><ele>175.6</ele><time>2026-04-22T07:21:49.341Z</time></trkpt><trkpt lat="43.4902516" lon="11.6195315"><ele>176.4</ele><time>2026-04-22T07:21:50.355Z</time></trkpt><trkpt lat="43.4901382" lon="11.619528"><ele>177.2</ele><time>2026-04-22T07:21:51.364Z</time></trkpt><trkpt lat="43.4900274" lon="11.6195231"><ele>178.0</ele><time>2026-04-22T07:21:52.36Z</time></trkpt><trkpt lat="43.4899188" lon="11.6195159"><ele>178.0</ele><time>2026-04-22T07:21:53.343Z</time></trkpt><trkpt lat="43.4898193" lon="11.6195127"><ele>178.0</ele><time>2026-04-22T07:21:54.352Z</time></trkpt><trkpt lat="43.4897313" lon="11.6195084"><ele>178.0</ele><time>2026-04-22T07:21:55.371Z</time></trkpt><trkpt lat="43.4896576" lon="11.6195085"><ele>178.0</ele><time>2026-04-22T07:21:56.364Z</time></trkpt><trkpt lat="43.4895556" lon="11.6195043"><ele>178.0</ele><time>2026-04-22T07:21:58.356Z</time></trkpt><trkpt lat="43.4894782" lon="11.6195211"><ele>178.0</ele><time>2026-04-22T07:22:01.348Z</time></trkpt><trkpt lat="43.4894199" lon="11.6195828"><ele>176.4</ele><time>2026-04-22T07:22:03.356Z</time></trkpt><trkpt lat="43.4893974" lon="11.6197435"><ele>174.8</ele><time>2026-04-22T07:22:05.348Z</time></trkpt><trkpt lat="43.4894032" lon="11.6198629"><ele>173.2</ele><time>2026-04-22T07:22:06.333Z</time></trkpt><trkpt lat="43.4894071" lon="11.6199941"><ele>171.6</ele><time>2026-04-22T07:22:07.358Z</time></trkpt><trkpt lat="43.4894172" lon="11.6201366"><ele>170.0</ele><time>2026-04-22T07:22:08.354Z</time></trkpt><trkpt lat="43.4894232" lon="11.6202864"><ele>171.0</ele><time>2026-04-22T07:22:09.351Z</time></trkpt><trkpt lat="43.4894276" lon="11.6204476"><ele>172.0</ele><time>2026-04-22T07:22:10.367Z</time></trkpt><trkpt lat="43.4894241" lon="11.6206129"><ele>173.0</ele><time>2026-04-22T07:22:11.357Z</time></trkpt><trkpt lat="43.4894156" lon="11.6207748"><ele>174.0</ele><time>2026-04-22T07:22:12.366Z</time></trkpt><trkpt lat="43.4893933" lon="11.62093"><ele>174.0</ele><time>2026-04-22T07:22:13.343Z</time></trkpt><trkpt lat="43.489351" lon="11.6210802"><ele>174.0</ele><time>2026-04-22T07:22:14.348Z</time></trkpt><trkpt lat="43.4892839" lon="11.6212157"><ele>174.0</ele><time>2026-04-22T07:22:15.351Z</time></trkpt><trkpt lat="43.489202" lon="11.6213402"><ele>174.0</ele><time>2026-04-22T07:22:16.359Z</time></trkpt><trkpt lat="43.4891123" lon="11.6214575"><ele>174.25</ele><time>2026-04-22T07:22:17.339Z</time></trkpt><trkpt lat="43.4890099" lon="11.6215555"><ele>174.5</ele><time>2026-04-22T07:22:18.368Z</time></trkpt><trkpt lat="43.4888932" lon="11.6216398"><ele>174.75</ele><time>2026-04-22T07:22:19.347Z</time></trkpt><trkpt lat="43.4887607" lon="11.621718"><ele>175.0</ele><time>2026-04-22T07:22:20.352Z</time></trkpt><trkpt lat="43.4886163" lon="11.6217936"><ele>175.0</ele><time>2026-04-22T07:22:21.363Z</time></trkpt><trkpt lat="43.488467" lon="11.6218739"><ele>175.0</ele><time>2026-04-22T07:22:22.336Z</time></trkpt><trkpt lat="43.4883108" lon="11.6219625"><ele>175.0</ele><time>2026-04-22T07:22:23.35Z</time></trkpt><trkpt lat="43.48816" lon="11.6220479"><ele>179.33333333333334</ele><time>2026-04-22T07:22:24.348Z</time></trkpt><trkpt lat="43.4880137" lon="11.6221272"><ele>183.66666666666666</ele><time>2026-04-22T07:22:25.345Z</time></trkpt><trkpt lat="43.487871" lon="11.6222034"><ele>188.0</ele><time>2026-04-22T07:22:26.341Z</time></trkpt><trkpt lat="43.4877367" lon="11.6222724"><ele>188.0</ele><time>2026-04-22T07:22:27.353Z</time></trkpt><trkpt lat="43.4875977" lon="11.6223094"><ele>188.0</ele><time>2026-04-22T07:22:28.356Z</time></trkpt><trkpt lat="43.4874467" lon="11.6223102"><ele>188.0</ele><time>2026-04-22T07:22:29.346Z</time></trkpt><trkpt lat="43.4872973" lon="11.6222826"><ele>188.0</ele><time>2026-04-22T07:22:30.348Z</time></trkpt><trkpt lat="43.4871496" lon="11.6222403"><ele>189.33333333333331</ele><time>2026-04-22T07:22:31.34Z</time></trkpt><trkpt lat="43.4869959" lon="11.6221817"><ele>190.66666666666666</ele><time>2026-04-22T07:22:32.346Z</time></trkpt><trkpt lat="43.4868395" lon="11.6221219"><ele>192.0</ele><time>2026-04-22T07:22:33.351Z</time></trkpt><trkpt lat="43.4866754" lon="11.6220583"><ele>192.0</ele><time>2026-04-22T07:22:34.359Z</time></trkpt><trkpt lat="43.4865099" lon="11.6219988"><ele>192.0</ele><time>2026-04-22T07:22:35.358Z</time></trkpt><trkpt lat="43.4863502" lon="11.6219482"><ele>192.0</ele><time>2026-04-22T07:22:36.345Z</time></trkpt><trkpt lat="43.4861977" lon="11.6218999"><ele>188.5</ele><time>2026-04-22T07:22:37.369Z</time></trkpt><trkpt lat="43.486055" lon="11.6218464"><ele>185.0</ele><time>2026-04-22T07:22:38.354Z</time></trkpt><trkpt lat="43.4859158" lon="11.6217667"><ele>181.5</ele><time>2026-04-22T07:22:39.345Z</time></trkpt><trkpt lat="43.4857908" lon="11.6216523"><ele>178.0</ele><time>2026-04-22T07:22:40.357Z</time></trkpt><trkpt lat="43.4856773" lon="11.6214928"><ele>178.0</ele><time>2026-04-22T07:22:41.352Z</time></trkpt><trkpt lat="43.4855507" lon="11.6213376"><ele>178.0</ele><time>2026-04-22T07:22:42.355Z</time></trkpt><trkpt lat="43.4854263" lon="11.6211739"><ele>178.0</ele><time>2026-04-22T07:22:43.344Z</time></trkpt><trkpt lat="43.485299" lon="11.6210061"><ele>177.33333333333334</ele><time>2026-04-22T07:22:44.351Z</time></trkpt><trkpt lat="43.4851659" lon="11.6208402"><ele>176.66666666666666</ele><time>2026-04-22T07:22:45.358Z</time></trkpt><trkpt lat="43.4850314" lon="11.6206724"><ele>176.0</ele><time>2026-04-22T07:22:46.345Z</time></trkpt><trkpt lat="43.4849" lon="11.6205024"><ele>176.0</ele><time>2026-04-22T07:22:47.36Z</time></trkpt><trkpt lat="43.4847725" lon="11.6203323"><ele>176.0</ele><time>2026-04-22T07:22:48.354Z</time></trkpt><trkpt lat="43.4846431" lon="11.6201693"><ele>176.0</ele><time>2026-04-22T07:22:49.358Z</time></trkpt><trkpt lat="43.4845113" lon="11.6200095"><ele>176.0</ele><time>2026-04-22T07:22:50.353Z</time></trkpt><trkpt lat="43.4843825" lon="11.6198532"><ele>176.0</ele><time>2026-04-22T07:22:51.345Z</time></trkpt><trkpt lat="43.4842555" lon="11.6196945"><ele>176.0</ele><time>2026-04-22T07:22:52.357Z</time></trkpt><trkpt lat="43.4841297" lon="11.6195387"><ele>175.0</ele><time>2026-04-22T07:22:53.357Z</time></trkpt><trkpt lat="43.4840056" lon="11.6193859"><ele>174.0</ele><time>2026-04-22T07:22:54.353Z</time></trkpt><trkpt lat="43.4838824" lon="11.6192336"><ele>173.0</ele><time>2026-04-22T07:22:55.366Z</time></trkpt><trkpt lat="43.4837604" lon="11.6190844"><ele>173.0</ele><time>2026-04-22T07:22:56.354Z</time></trkpt><trkpt lat="43.4836403" lon="11.6189351"><ele>173.0</ele><time>2026-04-22T07:22:57.347Z</time></trkpt><trkpt lat="43.4835226" lon="11.6187857"><ele>173.0</ele><time>2026-04-22T07:22:58.381Z</time></trkpt><trkpt lat="43.48341" lon="11.618644"><ele>174.75</ele><time>2026-04-22T07:22:59.365Z</time></trkpt><trkpt lat="43.4833027" lon="11.6185218"><ele>176.5</ele><time>2026-04-22T07:23:00.353Z</time></trkpt><trkpt lat="43.4831931" lon="11.6184273"><ele>178.25</ele><time>2026-04-22T07:23:01.357Z</time></trkpt><trkpt lat="43.4830705" lon="11.6183612"><ele>180.0</ele><time>2026-04-22T07:23:02.361Z</time></trkpt><trkpt lat="43.4829416" lon="11.6183295"><ele>181.0</ele><time>2026-04-22T07:23:03.355Z</time></trkpt><trkpt lat="43.4828078" lon="11.6183337"><ele>182.0</ele><time>2026-04-22T07:23:04.361Z</time></trkpt><trkpt lat="43.4826747" lon="11.6183761"><ele>183.0</ele><time>2026-04-22T07:23:05.357Z</time></trkpt><trkpt lat="43.482542" lon="11.6184464"><ele>184.0</ele><time>2026-04-22T07:23:06.365Z</time></trkpt><trkpt lat="43.4824073" lon="11.6185317"><ele>184.0</ele><time>2026-04-22T07:23:07.339Z</time></trkpt><trkpt lat="43.4822683" lon="11.6186224"><ele>184.0</ele><time>2026-04-22T07:23:08.382Z</time></trkpt><trkpt lat="43.4821322" lon="11.6187171"><ele>184.0</ele><time>2026-04-22T07:23:09.362Z</time></trkpt><trkpt lat="43.4820018" lon="11.6188119"><ele>184.75</ele><time>2026-04-22T07:23:10.367Z</time></trkpt><trkpt lat="43.4818732" lon="11.6189062"><ele>185.5</ele><time>2026-04-22T07:23:11.37Z</time></trkpt><trkpt lat="43.481749" lon="11.6189948"><ele>186.25</ele><time>2026-04-22T07:23:12.356Z</time></trkpt><trkpt lat="43.4816311" lon="11.6191026"><ele>187.0</ele><time>2026-04-22T07:23:13.346Z</time></trkpt><trkpt lat="43.4815269" lon="11.6192322"><ele>187.0</ele><time>2026-04-22T07:23:14.363Z</time></trkpt><trkpt lat="43.4814444" lon="11.6193885"><ele>187.0</ele><time>2026-04-22T07:23:15.36Z</time></trkpt><trkpt lat="43.4813772" lon="11.6195734"><ele>187.0</ele><time>2026-04-22T07:23:16.349Z</time></trkpt><trkpt lat="43.4813263" lon="11.6197726"><ele>187.0</ele><time>2026-04-22T07:23:17.363Z</time></trkpt><trkpt lat="43.4812841" lon="11.6199723"><ele>188.25</ele><time>2026-04-22T07:23:18.345Z</time></trkpt><trkpt lat="43.4812382" lon="11.6201609"><ele>189.5</ele><time>2026-04-22T07:23:19.357Z</time></trkpt><trkpt lat="43.4811791" lon="11.6203298"><ele>190.75</ele><time>2026-04-22T07:23:20.352Z</time></trkpt><trkpt lat="43.4810979" lon="11.6204772"><ele>192.0</ele><time>2026-04-22T07:23:21.347Z</time></trkpt><trkpt lat="43.4809957" lon="11.6206028"><ele>192.0</ele><time>2026-04-22T07:23:22.368Z</time></trkpt><trkpt lat="43.4808752" lon="11.6207097"><ele>192.0</ele><time>2026-04-22T07:23:23.346Z</time></trkpt><trkpt lat="43.4807441" lon="11.6208111"><ele>192.0</ele><time>2026-04-22T07:23:24.34Z</time></trkpt><trkpt lat="43.4806121" lon="11.6209375"><ele>192.0</ele><time>2026-04-22T07:23:25.355Z</time></trkpt><trkpt lat="43.4804704" lon="11.6210711"><ele>192.0</ele><time>2026-04-22T07:23:26.357Z</time></trkpt><trkpt lat="43.4803241" lon="11.6212062"><ele>192.0</ele><time>2026-04-22T07:23:27.374Z</time></trkpt><trkpt lat="43.4801798" lon="11.621338"><ele>194.33333333333331</ele><time>2026-04-22T07:23:28.358Z</time></trkpt><trkpt lat="43.4800356" lon="11.6214747"><ele>196.66666666666666</ele><time>2026-04-22T07:23:29.349Z</time></trkpt><trkpt lat="43.4798912" lon="11.6216092"><ele>199.0</ele><time>2026-04-22T07:23:30.343Z</time></trkpt><trkpt lat="43.479744" lon="11.6217371"><ele>198.33333333333331</ele><time>2026-04-22T07:23:31.36Z</time></trkpt><trkpt lat="43.4796001" lon="11.6218544"><ele>197.66666666666669</ele><time>2026-04-22T07:23:32.359Z</time></trkpt><trkpt lat="43.4794628" lon="11.6219638"><ele>197.0</ele><time>2026-04-22T07:23:33.369Z</time></trkpt><trkpt lat="43.4793314" lon="11.6220622"><ele>197.0</ele><time>2026-04-22T07:23:34.387Z</time></trkpt><trkpt lat="43.4792007" lon="11.6221428"><ele>197.0</ele><time>2026-04-22T07:23:35.35Z</time></trkpt><trkpt lat="43.479063" lon="11.6222055"><ele>197.0</ele><time>2026-04-22T07:23:36.327Z</time></trkpt><trkpt lat="43.4789211" lon="11.6222342"><ele>197.0</ele><time>2026-04-22T07:23:37.341Z</time></trkpt><trkpt lat="43.4787788" lon="11.6222531"><ele>199.5</ele><time>2026-04-22T07:23:38.353Z</time></trkpt><trkpt lat="43.4786336" lon="11.6222663"><ele>202.0</ele><time>2026-04-22T07:23:39.356Z</time></trkpt><trkpt lat="43.4784944" lon="11.622267"><ele>204.5</ele><time>2026-04-22T07:23:40.357Z</time></trkpt><trkpt lat="43.478363" lon="11.6222496"><ele>207.0</ele><time>2026-04-22T07:23:41.355Z</time></trkpt><trkpt lat="43.4782417" lon="11.6221947"><ele>207.0</ele><time>2026-04-22T07:23:42.369Z</time></trkpt><trkpt lat="43.4781364" lon="11.6221022"><ele>207.0</ele><time>2026-04-22T07:23:43.35Z</time></trkpt><trkpt lat="43.4780442" lon="11.6219782"><ele>207.0</ele><time>2026-04-22T07:23:44.344Z</time></trkpt><trkpt lat="43.4779629" lon="11.6218311"><ele>207.0</ele><time>2026-04-22T07:23:45.355Z</time></trkpt><trkpt lat="43.4778901" lon="11.6216611"><ele>211.33333333333331</ele><time>2026-04-22T07:23:46.346Z</time></trkpt><trkpt lat="43.4778307" lon="11.6214737"><ele>215.66666666666666</ele><time>2026-04-22T07:23:47.369Z</time></trkpt><trkpt lat="43.4777735" lon="11.6212774"><ele>220.0</ele><time>2026-04-22T07:23:48.354Z</time></trkpt><trkpt lat="43.4777164" lon="11.6210833"><ele>221.0</ele><time>2026-04-22T07:23:49.38Z</time></trkpt><trkpt lat="43.477666" lon="11.620888"><ele>222.0</ele><time>2026-04-22T07:23:50.347Z</time></trkpt><trkpt lat="43.4776183" lon="11.6206884"><ele>223.0</ele><time>2026-04-22T07:23:51.369Z</time></trkpt><trkpt lat="43.4775677" lon="11.6204856"><ele>224.33333333333331</ele><time>2026-04-22T07:23:52.363Z</time></trkpt><trkpt lat="43.477518" lon="11.6202794"><ele>225.66666666666669</ele><time>2026-04-22T07:23:53.364Z</time></trkpt><trkpt lat="43.4774642" lon="11.6200693"><ele>227.0</ele><time>2026-04-22T07:23:54.357Z</time></trkpt><trkpt lat="43.4774102" lon="11.619859"><ele>227.0</ele><time>2026-04-22T07:23:55.348Z</time></trkpt><trkpt lat="43.4773552" lon="11.6196489"><ele>227.0</ele><time>2026-04-22T07:23:56.369Z</time></trkpt><trkpt lat="43.4773024" lon="11.6194433"><ele>227.0</ele><time>2026-04-22T07:23:57.353Z</time></trkpt><trkpt lat="43.4772452" lon="11.6192347"><ele>229.0</ele><time>2026-04-22T07:23:58.352Z</time></trkpt><trkpt lat="43.4771828" lon="11.6190355"><ele>231.0</ele><time>2026-04-22T07:23:59.345Z</time></trkpt><trkpt lat="43.4771109" lon="11.6188441"><ele>233.0</ele><time>2026-04-22T07:24:00.347Z</time></trkpt><trkpt lat="43.4770223" lon="11.6186683"><ele>232.33333333333334</ele><time>2026-04-22T07:24:01.356Z</time></trkpt><trkpt lat="43.4769222" lon="11.6185109"><ele>231.66666666666669</ele><time>2026-04-22T07:24:02.356Z</time></trkpt><trkpt lat="43.4768054" lon="11.6183704"><ele>231.0</ele><time>2026-04-22T07:24:03.367Z</time></trkpt><trkpt lat="43.4766742" lon="11.618247"><ele>231.0</ele><time>2026-04-22T07:24:04.355Z</time></trkpt><trkpt lat="43.4765304" lon="11.6181426"><ele>231.0</ele><time>2026-04-22T07:24:05.356Z</time></trkpt><trkpt lat="43.476378" lon="11.6180422"><ele>231.0</ele><time>2026-04-22T07:24:06.37Z</time></trkpt><trkpt lat="43.4762205" lon="11.6179481"><ele>231.33333333333331</ele><time>2026-04-22T07:24:07.357Z</time></trkpt><trkpt lat="43.4760681" lon="11.6178584"><ele>231.66666666666666</ele><time>2026-04-22T07:24:08.367Z</time></trkpt><trkpt lat="43.4759115" lon="11.6177696"><ele>232.0</ele><time>2026-04-22T07:24:09.37Z</time></trkpt><trkpt lat="43.4757565" lon="11.6176749"><ele>234.33333333333331</ele><time>2026-04-22T07:24:10.348Z</time></trkpt><trkpt lat="43.4755981" lon="11.6175821"><ele>236.66666666666669</ele><time>2026-04-22T07:24:11.369Z</time></trkpt><trkpt lat="43.4754424" lon="11.6174855"><ele>239.0</ele><time>2026-04-22T07:24:12.36Z</time></trkpt><trkpt lat="43.4752836" lon="11.6173924"><ele>239.0</ele><time>2026-04-22T07:24:13.368Z</time></trkpt><trkpt lat="43.4751279" lon="11.617302"><ele>239.0</ele><time>2026-04-22T07:24:14.361Z</time></trkpt><trkpt lat="43.4749699" lon="11.6172096"><ele>239.0</ele><time>2026-04-22T07:24:15.376Z</time></trkpt><trkpt lat="43.4748123" lon="11.617114"><ele>239.0</ele><time>2026-04-22T07:24:16.358Z</time></trkpt><trkpt lat="43.4746559" lon="11.6170231"><ele>239.0</ele><time>2026-04-22T07:24:17.357Z</time></trkpt><trkpt lat="43.4745007" lon="11.6169314"><ele>239.0</ele><time>2026-04-22T07:24:18.384Z</time></trkpt><trkpt lat="43.4743476" lon="11.6168439"><ele>240.33333333333334</ele><time>2026-04-22T07:24:19.375Z</time></trkpt><trkpt lat="43.4741995" lon="11.6167544"><ele>241.66666666666669</ele><time>2026-04-22T07:24:20.36Z</time></trkpt><trkpt lat="43.4740488" lon="11.6166656"><ele>243.0</ele><time>2026-04-22T07:24:21.344Z</time></trkpt><trkpt lat="43.4739026" lon="11.616575"><ele>244.66666666666669</ele><time>2026-04-22T07:24:22.364Z</time></trkpt><trkpt lat="43.4737543" lon="11.6164847"><ele>246.33333333333334</ele><time>2026-04-22T07:24:23.355Z</time></trkpt><trkpt lat="43.4736071" lon="11.6163956"><ele>248.0</ele><time>2026-04-22T07:24:24.365Z</time></trkpt><trkpt lat="43.4734621" lon="11.6163058"><ele>248.0</ele><time>2026-04-22T07:24:25.379Z</time></trkpt><trkpt lat="43.4733154" lon="11.6162194"><ele>248.0</ele><time>2026-04-22T07:24:26.349Z</time></trkpt><trkpt lat="43.4731702" lon="11.61613"><ele>248.0</ele><time>2026-04-22T07:24:27.367Z</time></trkpt><trkpt lat="43.4730252" lon="11.6160417"><ele>249.0</ele><time>2026-04-22T07:24:28.373Z</time></trkpt><trkpt lat="43.4728861" lon="11.6159551"><ele>250.0</ele><time>2026-04-22T07:24:29.382Z</time></trkpt><trkpt lat="43.472745" lon="11.6158712"><ele>251.0</ele><time>2026-04-22T07:24:30.354Z</time></trkpt><trkpt lat="43.4726073" lon="11.6157868"><ele>251.0</ele><time>2026-04-22T07:24:31.365Z</time></trkpt><trkpt lat="43.4724716" lon="11.6156982"><ele>251.0</ele><time>2026-04-22T07:24:32.351Z</time></trkpt><trkpt lat="43.4723453" lon="11.6156049"><ele>251.0</ele><time>2026-04-22T07:24:33.364Z</time></trkpt><trkpt lat="43.4722267" lon="11.6155122"><ele>251.0</ele><time>2026-04-22T07:24:34.378Z</time></trkpt><trkpt lat="43.472112" lon="11.6154133"><ele>251.25</ele><time>2026-04-22T07:24:35.357Z</time></trkpt><trkpt lat="43.471992" lon="11.6153102"><ele>251.5</ele><time>2026-04-22T07:24:36.363Z</time></trkpt><trkpt lat="43.4718705" lon="11.6152053"><ele>251.75</ele><time>2026-04-22T07:24:37.335Z</time></trkpt><trkpt lat="43.4717479" lon="11.6151004"><ele>252.0</ele><time>2026-04-22T07:24:38.363Z</time></trkpt><trkpt lat="43.4716205" lon="11.6150089"><ele>252.0</ele><time>2026-04-22T07:24:39.377Z</time></trkpt><trkpt lat="43.4714859" lon="11.614945"><ele>252.0</ele><time>2026-04-22T07:24:40.367Z</time></trkpt><trkpt lat="43.4713406" lon="11.61491"><ele>252.0</ele><time>2026-04-22T07:24:41.358Z</time></trkpt><trkpt lat="43.4711919" lon="11.6149015"><ele>252.0</ele><time>2026-04-22T07:24:42.364Z</time></trkpt><trkpt lat="43.4710363" lon="11.6149123"><ele>250.66666666666669</ele><time>2026-04-22T07:24:43.364Z</time></trkpt><trkpt lat="43.4708815" lon="11.6149354"><ele>249.33333333333334</ele><time>2026-04-22T07:24:44.351Z</time></trkpt><trkpt lat="43.470729" lon="11.6149577"><ele>248.0</ele><time>2026-04-22T07:24:45.366Z</time></trkpt><trkpt lat="43.4705765" lon="11.6149661"><ele>246.33333333333334</ele><time>2026-04-22T07:24:46.348Z</time></trkpt><trkpt lat="43.470422" lon="11.6149529"><ele>244.66666666666669</ele><time>2026-04-22T07:24:47.36Z</time></trkpt><trkpt lat="43.4702713" lon="11.6149163"><ele>243.0</ele><time>2026-04-22T07:24:48.345Z</time></trkpt><trkpt lat="43.470128" lon="11.6148556"><ele>243.0</ele><time>2026-04-22T07:24:49.353Z</time></trkpt><trkpt lat="43.4699855" lon="11.6147721"><ele>243.0</ele><time>2026-04-22T07:24:50.353Z</time></trkpt><trkpt lat="43.4698439" lon="11.6146668"><ele>243.0</ele><time>2026-04-22T07:24:51.349Z</time></trkpt><trkpt lat="43.469708" lon="11.6145454"><ele>242.0</ele><time>2026-04-22T07:24:52.365Z</time></trkpt><trkpt lat="43.4695712" lon="11.6144082"><ele>241.0</ele><time>2026-04-22T07:24:53.378Z</time></trkpt><trkpt lat="43.4694328" lon="11.6142645"><ele>240.0</ele><time>2026-04-22T07:24:54.371Z</time></trkpt><trkpt lat="43.4692976" lon="11.6141216"><ele>240.0</ele><time>2026-04-22T07:24:55.376Z</time></trkpt><trkpt lat="43.469159" lon="11.6139749"><ele>240.0</ele><time>2026-04-22T07:24:56.353Z</time></trkpt><trkpt lat="43.4690202" lon="11.613829"><ele>240.0</ele><time>2026-04-22T07:24:57.379Z</time></trkpt><trkpt lat="43.4688846" lon="11.6136842"><ele>238.0</ele><time>2026-04-22T07:24:58.354Z</time></trkpt><trkpt lat="43.4687449" lon="11.6135372"><ele>236.0</ele><time>2026-04-22T07:24:59.379Z</time></trkpt><trkpt lat="43.468605" lon="11.6133924"><ele>234.0</ele><time>2026-04-22T07:25:00.359Z</time></trkpt><trkpt lat="43.4684631" lon="11.6132451"><ele>234.0</ele><time>2026-04-22T07:25:01.357Z</time></trkpt><trkpt lat="43.4683217" lon="11.6130968"><ele>234.0</ele><time>2026-04-22T07:25:02.346Z</time></trkpt><trkpt lat="43.4681816" lon="11.6129502"><ele>234.0</ele><time>2026-04-22T07:25:03.344Z</time></trkpt><trkpt lat="43.4680406" lon="11.612809"><ele>234.0</ele><time>2026-04-22T07:25:04.388Z</time></trkpt><trkpt lat="43.4678924" lon="11.6126834"><ele>234.0</ele><time>2026-04-22T07:25:05.353Z</time></trkpt><trkpt lat="43.4677412" lon="11.6125858"><ele>234.0</ele><time>2026-04-22T07:25:06.352Z</time></trkpt><trkpt lat="43.4675803" lon="11.6125006"><ele>234.0</ele><time>2026-04-22T07:25:07.359Z</time></trkpt><trkpt lat="43.4674143" lon="11.612437"><ele>234.0</ele><time>2026-04-22T07:25:08.33Z</time></trkpt><trkpt lat="43.4672428" lon="11.6123931"><ele>234.0</ele><time>2026-04-22T07:25:09.365Z</time></trkpt><trkpt lat="43.4670694" lon="11.6123708"><ele>233.66666666666669</ele><time>2026-04-22T07:25:10.358Z</time></trkpt><trkpt lat="43.4669077" lon="11.6123741"><ele>233.33333333333334</ele><time>2026-04-22T07:25:11.346Z</time></trkpt><trkpt lat="43.4667451" lon="11.6123939"><ele>233.0</ele><time>2026-04-22T07:25:12.39Z</time></trkpt><trkpt lat="43.4665798" lon="11.6124238"><ele>233.0</ele><time>2026-04-22T07:25:13.36Z</time></trkpt><trkpt lat="43.4664183" lon="11.6124619"><ele>233.0</ele><time>2026-04-22T07:25:14.358Z</time></trkpt><trkpt lat="43.4662592" lon="11.6125068"><ele>233.0</ele><time>2026-04-22T07:25:15.368Z</time></trkpt><trkpt lat="43.466102" lon="11.6125537"><ele>233.66666666666669</ele><time>2026-04-22T07:25:16.353Z</time></trkpt><trkpt lat="43.465948" lon="11.6125969"><ele>234.33333333333331</ele><time>2026-04-22T07:25:17.352Z</time></trkpt><trkpt lat="43.4657939" lon="11.6126383"><ele>235.0</ele><time>2026-04-22T07:25:18.344Z</time></trkpt><trkpt lat="43.465643" lon="11.6126783"><ele>235.0</ele><time>2026-04-22T07:25:19.333Z</time></trkpt><trkpt lat="43.4654983" lon="11.6127115"><ele>235.0</ele><time>2026-04-22T07:25:20.346Z</time></trkpt><trkpt lat="43.4653583" lon="11.6127422"><ele>235.0</ele><time>2026-04-22T07:25:21.356Z</time></trkpt><trkpt lat="43.4652175" lon="11.6127832"><ele>235.0</ele><time>2026-04-22T07:25:22.342Z</time></trkpt><trkpt lat="43.4650724" lon="11.6128227"><ele>235.0</ele><time>2026-04-22T07:25:23.351Z</time></trkpt><trkpt lat="43.4649238" lon="11.6128589"><ele>235.0</ele><time>2026-04-22T07:25:24.332Z</time></trkpt><trkpt lat="43.464768" lon="11.612895"><ele>235.0</ele><time>2026-04-22T07:25:25.367Z</time></trkpt><trkpt lat="43.4645982" lon="11.6129513"><ele>233.33333333333331</ele><time>2026-04-22T07:25:26.363Z</time></trkpt><trkpt lat="43.4644143" lon="11.6130105"><ele>231.66666666666669</ele><time>2026-04-22T07:25:27.365Z</time></trkpt><trkpt lat="43.4642208" lon="11.6130574"><ele>230.0</ele><time>2026-04-22T07:25:28.371Z</time></trkpt><trkpt lat="43.4640214" lon="11.6131011"><ele>230.0</ele><time>2026-04-22T07:25:29.373Z</time></trkpt><trkpt lat="43.4638222" lon="11.61314"><ele>230.0</ele><time>2026-04-22T07:25:30.344Z</time></trkpt><trkpt lat="43.4636394" lon="11.6131776"><ele>230.0</ele><time>2026-04-22T07:25:31.361Z</time></trkpt><trkpt lat="43.463469" lon="11.6132216"><ele>228.33333333333334</ele><time>2026-04-22T07:25:32.342Z</time></trkpt><trkpt lat="43.4633046" lon="11.6132582"><ele>226.66666666666669</ele><time>2026-04-22T07:25:33.355Z</time></trkpt><trkpt lat="43.4631527" lon="11.6132955"><ele>225.0</ele><time>2026-04-22T07:25:34.37Z</time></trkpt><trkpt lat="43.4630101" lon="11.6133355"><ele>224.0</ele><time>2026-04-22T07:25:35.364Z</time></trkpt><trkpt lat="43.4628678" lon="11.6133719"><ele>223.0</ele><time>2026-04-22T07:25:36.361Z</time></trkpt><trkpt lat="43.4627297" lon="11.6134076"><ele>222.0</ele><time>2026-04-22T07:25:37.343Z</time></trkpt><trkpt lat="43.4625998" lon="11.6134411"><ele>221.0</ele><time>2026-04-22T07:25:38.364Z</time></trkpt><trkpt lat="43.4624775" lon="11.6134787"><ele>221.0</ele><time>2026-04-22T07:25:39.372Z</time></trkpt><trkpt lat="43.4623534" lon="11.6135279"><ele>221.0</ele><time>2026-04-22T07:25:40.363Z</time></trkpt><trkpt lat="43.4622347" lon="11.6135976"><ele>221.0</ele><time>2026-04-22T07:25:41.373Z</time></trkpt><trkpt lat="43.4621242" lon="11.6136851"><ele>221.0</ele><time>2026-04-22T07:25:42.336Z</time></trkpt><trkpt lat="43.4620189" lon="11.6137785"><ele>221.4</ele><time>2026-04-22T07:25:43.362Z</time></trkpt><trkpt lat="43.4619196" lon="11.6138667"><ele>221.8</ele><time>2026-04-22T07:25:44.36Z</time></trkpt><trkpt lat="43.461826" lon="11.6139493"><ele>222.20000000000002</ele><time>2026-04-22T07:25:45.345Z</time></trkpt><trkpt lat="43.4617408" lon="11.6140254"><ele>222.60000000000002</ele><time>2026-04-22T07:25:46.36Z</time></trkpt><trkpt lat="43.4616645" lon="11.614089"><ele>223.0</ele><time>2026-04-22T07:25:47.361Z</time></trkpt><trkpt lat="43.4616064" lon="11.6141354"><ele>223.0</ele><time>2026-04-22T07:25:48.345Z</time></trkpt><trkpt lat="43.4614963" lon="11.6141922"><ele>223.0</ele><time>2026-04-22T07:25:50.353Z</time></trkpt><trkpt lat="43.461421" lon="11.6142066"><ele>223.0</ele><time>2026-04-22T07:25:51.362Z</time></trkpt><trkpt lat="43.4613361" lon="11.6141957"><ele>223.0</ele><time>2026-04-22T07:25:52.336Z</time></trkpt><trkpt lat="43.4612409" lon="11.6141543"><ele>223.0</ele><time>2026-04-22T07:25:53.365Z</time></trkpt><trkpt lat="43.4611393" lon="11.6140842"><ele>224.75</ele><time>2026-04-22T07:25:54.356Z</time></trkpt><trkpt lat="43.4610173" lon="11.6139914"><ele>226.5</ele><time>2026-04-22T07:25:55.369Z</time></trkpt><trkpt lat="43.4608865" lon="11.6139021"><ele>228.25</ele><time>2026-04-22T07:25:56.355Z</time></trkpt><trkpt lat="43.4607512" lon="11.6138091"><ele>230.0</ele><time>2026-04-22T07:25:57.346Z</time></trkpt><trkpt lat="43.4606141" lon="11.6137193"><ele>230.25</ele><time>2026-04-22T07:25:58.378Z</time></trkpt><trkpt lat="43.4604805" lon="11.6136216"><ele>230.5</ele><time>2026-04-22T07:25:59.362Z</time></trkpt><trkpt lat="43.4603588" lon="11.6135048"><ele>230.75</ele><time>2026-04-22T07:26:00.349Z</time></trkpt><trkpt lat="43.4602605" lon="11.6133582"><ele>231.0</ele><time>2026-04-22T07:26:01.363Z</time></trkpt><trkpt lat="43.4601782" lon="11.6131973"><ele>231.0</ele><time>2026-04-22T07:26:02.341Z</time></trkpt><trkpt lat="43.4601082" lon="11.6130316"><ele>231.0</ele><time>2026-04-22T07:26:03.362Z</time></trkpt><trkpt lat="43.4600422" lon="11.6128719"><ele>231.0</ele><time>2026-04-22T07:26:04.368Z</time></trkpt><trkpt lat="43.459965" lon="11.6127261"><ele>231.0</ele><time>2026-04-22T07:26:05.366Z</time></trkpt><trkpt lat="43.459869" lon="11.6125957"><ele>230.25</ele><time>2026-04-22T07:26:06.361Z</time></trkpt><trkpt lat="43.4597549" lon="11.6124894"><ele>229.5</ele><time>2026-04-22T07:26:07.343Z</time></trkpt><trkpt lat="43.4596283" lon="11.6124192"><ele>228.75</ele><time>2026-04-22T07:26:08.336Z</time></trkpt><trkpt lat="43.4594901" lon="11.612378"><ele>228.0</ele><time>2026-04-22T07:26:09.34Z</time></trkpt><trkpt lat="43.4593451" lon="11.6123649"><ele>228.0</ele><time>2026-04-22T07:26:10.348Z</time></trkpt><trkpt lat="43.4591972" lon="11.6123807"><ele>228.0</ele><time>2026-04-22T07:26:11.355Z</time></trkpt><trkpt lat="43.4590521" lon="11.6124306"><ele>228.0</ele><time>2026-04-22T07:26:12.358Z</time></trkpt><trkpt lat="43.4589063" lon="11.6125024"><ele>227.0</ele><time>2026-04-22T07:26:13.348Z</time></trkpt><trkpt lat="43.4587587" lon="11.6125925"><ele>226.0</ele><time>2026-04-22T07:26:14.36Z</time></trkpt><trkpt lat="43.4586117" lon="11.612696"><ele>225.0</ele><time>2026-04-22T07:26:15.379Z</time></trkpt><trkpt lat="43.4584608" lon="11.6128161"><ele>227.0</ele><time>2026-04-22T07:26:16.344Z</time></trkpt><trkpt lat="43.4583098" lon="11.6129476"><ele>229.0</ele><time>2026-04-22T07:26:17.351Z</time></trkpt><trkpt lat="43.4581595" lon="11.6130892"><ele>231.0</ele><time>2026-04-22T07:26:18.347Z</time></trkpt><trkpt lat="43.4580117" lon="11.6132391"><ele>231.0</ele><time>2026-04-22T07:26:19.364Z</time></trkpt><trkpt lat="43.4578673" lon="11.6133988"><ele>231.0</ele><time>2026-04-22T07:26:20.361Z</time></trkpt><trkpt lat="43.4577361" lon="11.613576"><ele>231.0</ele><time>2026-04-22T07:26:21.359Z</time></trkpt><trkpt lat="43.457621" lon="11.6137645"><ele>231.0</ele><time>2026-04-22T07:26:22.348Z</time></trkpt><trkpt lat="43.4575234" lon="11.6139541"><ele>231.0</ele><time>2026-04-22T07:26:23.342Z</time></trkpt><trkpt lat="43.4574362" lon="11.6141406"><ele>231.0</ele><time>2026-04-22T07:26:24.344Z</time></trkpt><trkpt lat="43.4573481" lon="11.6143165"><ele>231.0</ele><time>2026-04-22T07:26:25.375Z</time></trkpt><trkpt lat="43.4572424" lon="11.6144861"><ele>231.0</ele><time>2026-04-22T07:26:26.377Z</time></trkpt><trkpt lat="43.4571282" lon="11.6146566"><ele>231.0</ele><time>2026-04-22T07:26:27.35Z</time></trkpt><trkpt lat="43.4570144" lon="11.6148157"><ele>230.75</ele><time>2026-04-22T07:26:28.365Z</time></trkpt><trkpt lat="43.4569007" lon="11.6149541"><ele>230.5</ele><time>2026-04-22T07:26:29.367Z</time></trkpt><trkpt lat="43.4567888" lon="11.615084"><ele>230.25</ele><time>2026-04-22T07:26:30.365Z</time></trkpt><trkpt lat="43.4566766" lon="11.6151923"><ele>230.0</ele><time>2026-04-22T07:26:31.351Z</time></trkpt><trkpt lat="43.4565516" lon="11.615275"><ele>230.5</ele><time>2026-04-22T07:26:32.349Z</time></trkpt><trkpt lat="43.4564185" lon="11.6153444"><ele>231.0</ele><time>2026-04-22T07:26:33.345Z</time></trkpt><trkpt lat="43.4562762" lon="11.6154024"><ele>231.5</ele><time>2026-04-22T07:26:34.366Z</time></trkpt><trkpt lat="43.4561277" lon="11.6154494"><ele>232.0</ele><time>2026-04-22T07:26:35.348Z</time></trkpt><trkpt lat="43.4559827" lon="11.6154968"><ele>232.33333333333331</ele><time>2026-04-22T07:26:36.358Z</time></trkpt><trkpt lat="43.4558367" lon="11.6155436"><ele>232.66666666666669</ele><time>2026-04-22T07:26:37.358Z</time></trkpt><trkpt lat="43.4556911" lon="11.6155911"><ele>233.0</ele><time>2026-04-22T07:26:38.325Z</time></trkpt><trkpt lat="43.4555336" lon="11.615644"><ele>232.25</ele><time>2026-04-22T07:26:39.367Z</time></trkpt><trkpt lat="43.4553852" lon="11.615694"><ele>231.5</ele><time>2026-04-22T07:26:40.355Z</time></trkpt><trkpt lat="43.4552395" lon="11.6157126"><ele>230.75</ele><time>2026-04-22T07:26:41.345Z</time></trkpt><trkpt lat="43.4550994" lon="11.6156946"><ele>230.0</ele><time>2026-04-22T07:26:42.344Z</time></trkpt><trkpt lat="43.454962" lon="11.6156531"><ele>230.0</ele><time>2026-04-22T07:26:43.348Z</time></trkpt><trkpt lat="43.4548359" lon="11.6155968"><ele>230.0</ele><time>2026-04-22T07:26:44.355Z</time></trkpt><trkpt lat="43.4547194" lon="11.6155076"><ele>230.0</ele><time>2026-04-22T07:26:45.35Z</time></trkpt><trkpt lat="43.4546098" lon="11.6153945"><ele>230.0</ele><time>2026-04-22T07:26:46.351Z</time></trkpt><trkpt lat="43.4545197" lon="11.6152636"><ele>230.0</ele><time>2026-04-22T07:26:47.343Z</time></trkpt><trkpt lat="43.4544395" lon="11.6151167"><ele>230.0</ele><time>2026-04-22T07:26:48.368Z</time></trkpt><trkpt lat="43.4543705" lon="11.6149588"><ele>230.0</ele><time>2026-04-22T07:26:49.368Z</time></trkpt><trkpt lat="43.4543069" lon="11.6148037"><ele>230.0</ele><time>2026-04-22T07:26:50.364Z</time></trkpt><trkpt lat="43.4542311" lon="11.6146614"><ele>230.0</ele><time>2026-04-22T07:26:51.356Z</time></trkpt><trkpt lat="43.4541373" lon="11.6145488"><ele>230.0</ele><time>2026-04-22T07:26:52.354Z</time></trkpt><trkpt lat="43.4540175" lon="11.6144708"><ele>230.0</ele><time>2026-04-22T07:26:53.347Z</time></trkpt><trkpt lat="43.4538863" lon="11.6144154"><ele>230.0</ele><time>2026-04-22T07:26:54.349Z</time></trkpt><trkpt lat="43.4537532" lon="11.6143672"><ele>230.0</ele><time>2026-04-22T07:26:55.354Z</time></trkpt><trkpt lat="43.4536186" lon="11.614323"><ele>230.0</ele><time>2026-04-22T07:26:56.362Z</time></trkpt><trkpt lat="43.4534833" lon="11.6142903"><ele>230.0</ele><time>2026-04-22T07:26:57.364Z</time></trkpt><trkpt lat="43.4533403" lon="11.6142807"><ele>230.0</ele><time>2026-04-22T07:26:58.357Z</time></trkpt><trkpt lat="43.4531986" lon="11.6143007"><ele>230.0</ele><time>2026-04-22T07:26:59.359Z</time></trkpt><trkpt lat="43.4530606" lon="11.6143535"><ele>230.0</ele><time>2026-04-22T07:27:00.348Z</time></trkpt><trkpt lat="43.452927" lon="11.6144369"><ele>230.0</ele><time>2026-04-22T07:27:01.361Z</time></trkpt><trkpt lat="43.4527874" lon="11.6145123"><ele>230.0</ele><time>2026-04-22T07:27:02.366Z</time></trkpt><trkpt lat="43.4526421" lon="11.6145871"><ele>231.33333333333334</ele><time>2026-04-22T07:27:03.368Z</time></trkpt><trkpt lat="43.4524954" lon="11.6146619"><ele>232.66666666666669</ele><time>2026-04-22T07:27:04.359Z</time></trkpt><trkpt lat="43.4523504" lon="11.6147357"><ele>234.0</ele><time>2026-04-22T07:27:05.354Z</time></trkpt><trkpt lat="43.4522035" lon="11.6148067"><ele>233.0</ele><time>2026-04-22T07:27:06.363Z</time></trkpt><trkpt lat="43.4520554" lon="11.6148784"><ele>232.0</ele><time>2026-04-22T07:27:07.357Z</time></trkpt><trkpt lat="43.4519042" lon="11.6149551"><ele>231.0</ele><time>2026-04-22T07:27:08.363Z</time></trkpt><trkpt lat="43.4517514" lon="11.6150306"><ele>231.0</ele><time>2026-04-22T07:27:09.37Z</time></trkpt><trkpt lat="43.4515976" lon="11.61511"><ele>231.0</ele><time>2026-04-22T07:27:10.364Z</time></trkpt><trkpt lat="43.4514428" lon="11.6151854"><ele>231.0</ele><time>2026-04-22T07:27:11.364Z</time></trkpt><trkpt lat="43.4512897" lon="11.615263"><ele>232.33333333333331</ele><time>2026-04-22T07:27:12.36Z</time></trkpt><trkpt lat="43.4511364" lon="11.6153399"><ele>233.66666666666666</ele><time>2026-04-22T07:27:13.373Z</time></trkpt><trkpt lat="43.4509825" lon="11.6154163"><ele>235.0</ele><time>2026-04-22T07:27:14.362Z</time></trkpt><trkpt lat="43.4508303" lon="11.615491"><ele>235.0</ele><time>2026-04-22T07:27:15.351Z</time></trkpt><trkpt lat="43.4506789" lon="11.6155653"><ele>235.0</ele><time>2026-04-22T07:27:16.353Z</time></trkpt><trkpt lat="43.4505304" lon="11.6156418"><ele>235.0</ele><time>2026-04-22T07:27:17.356Z</time></trkpt><trkpt lat="43.4503779" lon="11.6157196"><ele>234.0</ele><time>2026-04-22T07:27:18.37Z</time></trkpt><trkpt lat="43.4502272" lon="11.615801"><ele>233.0</ele><time>2026-04-22T07:27:19.359Z</time></trkpt><trkpt lat="43.4500746" lon="11.6158809"><ele>232.0</ele><time>2026-04-22T07:27:20.36Z</time></trkpt><trkpt lat="43.4499213" lon="11.6159608"><ele>232.0</ele><time>2026-04-22T07:27:21.357Z</time></trkpt><trkpt lat="43.4497661" lon="11.6160386"><ele>232.0</ele><time>2026-04-22T07:27:22.371Z</time></trkpt><trkpt lat="43.4496127" lon="11.616115"><ele>232.0</ele><time>2026-04-22T07:27:23.378Z</time></trkpt><trkpt lat="43.4494574" lon="11.6161875"><ele>233.0</ele><time>2026-04-22T07:27:24.361Z</time></trkpt><trkpt lat="43.4493032" lon="11.6162635"><ele>234.0</ele><time>2026-04-22T07:27:25.366Z</time></trkpt><trkpt lat="43.449154" lon="11.6163451"><ele>235.0</ele><time>2026-04-22T07:27:26.351Z</time></trkpt><trkpt lat="43.4490092" lon="11.6164282"><ele>235.0</ele><time>2026-04-22T07:27:27.36Z</time></trkpt><trkpt lat="43.4488697" lon="11.6165212"><ele>235.0</ele><time>2026-04-22T07:27:28.355Z</time></trkpt><trkpt lat="43.4487362" lon="11.6166265"><ele>235.0</ele><time>2026-04-22T07:27:29.376Z</time></trkpt><trkpt lat="43.448609" lon="11.6167451"><ele>235.33333333333331</ele><time>2026-04-22T07:27:30.36Z</time></trkpt><trkpt lat="43.4484852" lon="11.6168709"><ele>235.66666666666669</ele><time>2026-04-22T07:27:31.364Z</time></trkpt><trkpt lat="43.4483568" lon="11.6169968"><ele>236.0</ele><time>2026-04-22T07:27:32.347Z</time></trkpt><trkpt lat="43.4482266" lon="11.6171257"><ele>236.0</ele><time>2026-04-22T07:27:33.369Z</time></trkpt><trkpt lat="43.4480983" lon="11.6172502"><ele>236.0</ele><time>2026-04-22T07:27:34.354Z</time></trkpt><trkpt lat="43.4479697" lon="11.6173807"><ele>236.0</ele><time>2026-04-22T07:27:35.344Z</time></trkpt><trkpt lat="43.4478416" lon="11.6175053"><ele>235.75</ele><time>2026-04-22T07:27:36.358Z</time></trkpt><trkpt lat="43.4477185" lon="11.6176278"><ele>235.5</ele><time>2026-04-22T07:27:37.362Z</time></trkpt><trkpt lat="43.4475969" lon="11.6177493"><ele>235.25</ele><time>2026-04-22T07:27:38.367Z</time></trkpt><trkpt lat="43.447479" lon="11.6178696"><ele>235.0</ele><time>2026-04-22T07:27:39.369Z</time></trkpt><trkpt lat="43.4473624" lon="11.6179904"><ele>235.5</ele><time>2026-04-22T07:27:40.343Z</time></trkpt><trkpt lat="43.4472486" lon="11.6181022"><ele>236.0</ele><time>2026-04-22T07:27:41.368Z</time></trkpt><trkpt lat="43.4471335" lon="11.61821"><ele>236.5</ele><time>2026-04-22T07:27:42.367Z</time></trkpt><trkpt lat="43.447026" lon="11.6183219"><ele>237.0</ele><time>2026-04-22T07:27:43.369Z</time></trkpt><trkpt lat="43.4469201" lon="11.6184287"><ele>237.25</ele><time>2026-04-22T07:27:44.349Z</time></trkpt><trkpt lat="43.4468141" lon="11.6185287"><ele>237.5</ele><time>2026-04-22T07:27:45.36Z</time></trkpt><trkpt lat="43.4467095" lon="11.6186272"><ele>237.75</ele><time>2026-04-22T07:27:46.348Z</time></trkpt><trkpt lat="43.4466029" lon="11.6187334"><ele>238.0</ele><time>2026-04-22T07:27:47.366Z</time></trkpt><trkpt lat="43.4464992" lon="11.6188405"><ele>238.5</ele><time>2026-04-22T07:27:48.367Z</time></trkpt><trkpt lat="43.4463945" lon="11.6189438"><ele>239.0</ele><time>2026-04-22T07:27:49.36Z</time></trkpt><trkpt lat="43.4462923" lon="11.6190439"><ele>239.5</ele><time>2026-04-22T07:27:50.364Z</time></trkpt><trkpt lat="43.4461926" lon="11.6191488"><ele>240.0</ele><time>2026-04-22T07:27:51.362Z</time></trkpt><trkpt lat="43.4460911" lon="11.6192497"><ele>240.0</ele><time>2026-04-22T07:27:52.338Z</time></trkpt><trkpt lat="43.4459895" lon="11.6193471"><ele>240.0</ele><time>2026-04-22T07:27:53.355Z</time></trkpt><trkpt lat="43.4458892" lon="11.6194472"><ele>240.0</ele><time>2026-04-22T07:27:54.342Z</time></trkpt><trkpt lat="43.4457898" lon="11.6195494"><ele>240.0</ele><time>2026-04-22T07:27:55.361Z</time></trkpt><trkpt lat="43.4456865" lon="11.6196568"><ele>240.75</ele><time>2026-04-22T07:27:56.375Z</time></trkpt><trkpt lat="43.4455828" lon="11.6197592"><ele>241.5</ele><time>2026-04-22T07:27:57.371Z</time></trkpt><trkpt lat="43.4454784" lon="11.6198599"><ele>242.25</ele><time>2026-04-22T07:27:58.348Z</time></trkpt><trkpt lat="43.4453757" lon="11.6199634"><ele>243.0</ele><time>2026-04-22T07:27:59.366Z</time></trkpt><trkpt lat="43.4452706" lon="11.6200665"><ele>243.0</ele><time>2026-04-22T07:28:00.368Z</time></trkpt><trkpt lat="43.4451685" lon="11.6201679"><ele>243.0</ele><time>2026-04-22T07:28:01.356Z</time></trkpt><trkpt lat="43.4450646" lon="11.6202726"><ele>243.0</ele><time>2026-04-22T07:28:02.336Z</time></trkpt><trkpt lat="43.4449603" lon="11.6203773"><ele>243.0</ele><time>2026-04-22T07:28:03.358Z</time></trkpt><trkpt lat="43.4448532" lon="11.6204829"><ele>244.0</ele><time>2026-04-22T07:28:04.386Z</time></trkpt><trkpt lat="43.444743" lon="11.6205908"><ele>245.0</ele><time>2026-04-22T07:28:05.373Z</time></trkpt><trkpt lat="43.444632" lon="11.6207036"><ele>246.0</ele><time>2026-04-22T07:28:06.361Z</time></trkpt><trkpt lat="43.4445165" lon="11.6208168"><ele>247.0</ele><time>2026-04-22T07:28:07.348Z</time></trkpt><trkpt lat="43.444405" lon="11.6209378"><ele>245.0</ele><time>2026-04-22T07:28:08.373Z</time></trkpt><trkpt lat="43.4442919" lon="11.6210547"><ele>243.0</ele><time>2026-04-22T07:28:09.366Z</time></trkpt><trkpt lat="43.444179" lon="11.621172"><ele>241.0</ele><time>2026-04-22T07:28:10.363Z</time></trkpt><trkpt lat="43.4440653" lon="11.6212891"><ele>239.0</ele><time>2026-04-22T07:28:11.366Z</time></trkpt><trkpt lat="43.443953" lon="11.6214046"><ele>238.75</ele><time>2026-04-22T07:28:12.374Z</time></trkpt><trkpt lat="43.443841" lon="11.6215221"><ele>238.5</ele><time>2026-04-22T07:28:13.359Z</time></trkpt><trkpt lat="43.4437289" lon="11.6216386"><ele>238.25</ele><time>2026-04-22T07:28:14.356Z</time></trkpt><trkpt lat="43.4436178" lon="11.621751"><ele>238.0</ele><time>2026-04-22T07:28:15.357Z</time></trkpt><trkpt lat="43.4435067" lon="11.6218623"><ele>237.25</ele><time>2026-04-22T07:28:16.367Z</time></trkpt><trkpt lat="43.4433883" lon="11.6219529"><ele>236.5</ele><time>2026-04-22T07:28:17.349Z</time></trkpt><trkpt lat="43.443266" lon="11.6220222"><ele>235.75</ele><time>2026-04-22T07:28:18.362Z</time></trkpt><trkpt lat="43.443136" lon="11.6220664"><ele>235.0</ele><time>2026-04-22T07:28:19.361Z</time></trkpt><trkpt lat="43.4430007" lon="11.6220966"><ele>234.25</ele><time>2026-04-22T07:28:20.341Z</time></trkpt><trkpt lat="43.4428669" lon="11.6221198"><ele>233.5</ele><time>2026-04-22T07:28:21.352Z</time></trkpt><trkpt lat="43.4427405" lon="11.6221417"><ele>232.75</ele><time>2026-04-22T07:28:22.366Z</time></trkpt><trkpt lat="43.4426276" lon="11.6221619"><ele>232.0</ele><time>2026-04-22T07:28:23.357Z</time></trkpt><trkpt lat="43.4425356" lon="11.6221753"><ele>232.0</ele><time>2026-04-22T07:28:24.364Z</time></trkpt><trkpt lat="43.4424642" lon="11.6221855"><ele>232.0</ele><time>2026-04-22T07:28:25.364Z</time></trkpt><trkpt lat="43.4423869" lon="11.6221996"><ele>232.0</ele><time>2026-04-22T07:28:27.373Z</time></trkpt><trkpt lat="43.4422755" lon="11.6222159"><ele>232.0</ele><time>2026-04-22T07:28:29.357Z</time></trkpt><trkpt lat="43.4421848" lon="11.6222274"><ele>232.0</ele><time>2026-04-22T07:28:30.365Z</time></trkpt><trkpt lat="43.4420802" lon="11.6222324"><ele>232.25</ele><time>2026-04-22T07:28:31.355Z</time></trkpt><trkpt lat="43.4419615" lon="11.6222305"><ele>232.5</ele><time>2026-04-22T07:28:32.36Z</time></trkpt><trkpt lat="43.4418388" lon="11.6222179"><ele>232.75</ele><time>2026-04-22T07:28:33.364Z</time></trkpt><trkpt lat="43.4417148" lon="11.6222025"><ele>233.0</ele><time>2026-04-22T07:28:34.337Z</time></trkpt><trkpt lat="43.4415954" lon="11.622178"><ele>233.0</ele><time>2026-04-22T07:28:35.341Z</time></trkpt><trkpt lat="43.4414798" lon="11.6221289"><ele>233.0</ele><time>2026-04-22T07:28:36.334Z</time></trkpt><trkpt lat="43.4413714" lon="11.6220516"><ele>233.0</ele><time>2026-04-22T07:28:37.362Z</time></trkpt><trkpt lat="43.4412719" lon="11.6219444"><ele>233.0</ele><time>2026-04-22T07:28:38.354Z</time></trkpt><trkpt lat="43.4411778" lon="11.6218159"><ele>234.25</ele><time>2026-04-22T07:28:39.335Z</time></trkpt><trkpt lat="43.441086" lon="11.6216704"><ele>235.5</ele><time>2026-04-22T07:28:40.375Z</time></trkpt><trkpt lat="43.4409947" lon="11.6215204"><ele>236.75</ele><time>2026-04-22T07:28:41.355Z</time></trkpt><trkpt lat="43.4409012" lon="11.6213756"><ele>238.0</ele><time>2026-04-22T07:28:42.354Z</time></trkpt><trkpt lat="43.4408087" lon="11.6212326"><ele>237.75</ele><time>2026-04-22T07:28:43.352Z</time></trkpt><trkpt lat="43.4407172" lon="11.6210941"><ele>237.5</ele><time>2026-04-22T07:28:44.332Z</time></trkpt><trkpt lat="43.4406325" lon="11.6209446"><ele>237.25</ele><time>2026-04-22T07:28:45.345Z</time></trkpt><trkpt lat="43.4405655" lon="11.6207822"><ele>237.0</ele><time>2026-04-22T07:28:46.36Z</time></trkpt><trkpt lat="43.4405098" lon="11.6206059"><ele>237.5</ele><time>2026-04-22T07:28:47.363Z</time></trkpt><trkpt lat="43.4404609" lon="11.6204256"><ele>238.0</ele><time>2026-04-22T07:28:48.368Z</time></trkpt><trkpt lat="43.4404065" lon="11.6202395"><ele>238.5</ele><time>2026-04-22T07:28:49.372Z</time></trkpt><trkpt lat="43.4403522" lon="11.6200544"><ele>239.0</ele><time>2026-04-22T07:28:50.384Z</time></trkpt><trkpt lat="43.4403022" lon="11.6198733"><ele>239.0</ele><time>2026-04-22T07:28:51.361Z</time></trkpt><trkpt lat="43.4402566" lon="11.6196963"><ele>239.0</ele><time>2026-04-22T07:28:52.345Z</time></trkpt><trkpt lat="43.440213" lon="11.6195377"><ele>239.0</ele><time>2026-04-22T07:28:53.329Z</time></trkpt><trkpt lat="43.4401586" lon="11.6193879"><ele>239.0</ele><time>2026-04-22T07:28:54.34Z</time></trkpt><trkpt lat="43.440089" lon="11.6192544"><ele>238.6</ele><time>2026-04-22T07:28:55.337Z</time></trkpt><trkpt lat="43.4400038" lon="11.6191514"><ele>238.2</ele><time>2026-04-22T07:28:56.329Z</time></trkpt><trkpt lat="43.4399069" lon="11.6190892"><ele>237.79999999999998</ele><time>2026-04-22T07:28:57.379Z</time></trkpt><trkpt lat="43.4397979" lon="11.6190682"><ele>237.39999999999998</ele><time>2026-04-22T07:28:58.357Z</time></trkpt><trkpt lat="43.4396811" lon="11.619082"><ele>237.0</ele><time>2026-04-22T07:28:59.363Z</time></trkpt><trkpt lat="43.4395515" lon="11.619092"><ele>237.0</ele><time>2026-04-22T07:29:00.346Z</time></trkpt><trkpt lat="43.4394187" lon="11.6190985"><ele>237.0</ele><time>2026-04-22T07:29:01.363Z</time></trkpt><trkpt lat="43.4392736" lon="11.6191221"><ele>237.0</ele><time>2026-04-22T07:29:02.344Z</time></trkpt><trkpt lat="43.4391273" lon="11.6191435"><ele>237.0</ele><time>2026-04-22T07:29:03.328Z</time></trkpt><trkpt lat="43.4389813" lon="11.619161"><ele>237.0</ele><time>2026-04-22T07:29:04.329Z</time></trkpt><trkpt lat="43.4388318" lon="11.6191782"><ele>237.0</ele><time>2026-04-22T07:29:05.349Z</time></trkpt><trkpt lat="43.4386858" lon="11.6191934"><ele>237.0</ele><time>2026-04-22T07:29:06.368Z</time></trkpt><trkpt lat="43.4385369" lon="11.6192102"><ele>237.0</ele><time>2026-04-22T07:29:07.358Z</time></trkpt><trkpt lat="43.4383828" lon="11.6192303"><ele>236.0</ele><time>2026-04-22T07:29:08.348Z</time></trkpt><trkpt lat="43.43823" lon="11.6192427"><ele>235.0</ele><time>2026-04-22T07:29:09.369Z</time></trkpt><trkpt lat="43.4380761" lon="11.6192354"><ele>234.0</ele><time>2026-04-22T07:29:10.39Z</time></trkpt><trkpt lat="43.4379209" lon="11.6192081"><ele>234.0</ele><time>2026-04-22T07:29:11.363Z</time></trkpt><trkpt lat="43.4377655" lon="11.6191551"><ele>234.0</ele><time>2026-04-22T07:29:12.366Z</time></trkpt><trkpt lat="43.4376119" lon="11.6190745"><ele>234.0</ele><time>2026-04-22T07:29:13.361Z</time></trkpt><trkpt lat="43.4374603" lon="11.6189774"><ele>234.0</ele><time>2026-04-22T07:29:14.36Z</time></trkpt><trkpt lat="43.4373079" lon="11.6188785"><ele>234.0</ele><time>2026-04-22T07:29:15.371Z</time></trkpt><trkpt lat="43.4371549" lon="11.6187735"><ele>234.0</ele><time>2026-04-22T07:29:16.356Z</time></trkpt><trkpt lat="43.437007" lon="11.6186676"><ele>232.66666666666669</ele><time>2026-04-22T07:29:17.372Z</time></trkpt><trkpt lat="43.4368554" lon="11.6185611"><ele>231.33333333333334</ele><time>2026-04-22T07:29:18.358Z</time></trkpt><trkpt lat="43.4367014" lon="11.618455"><ele>230.0</ele><time>2026-04-22T07:29:19.379Z</time></trkpt><trkpt lat="43.4365413" lon="11.6183472"><ele>230.0</ele><time>2026-04-22T07:29:20.357Z</time></trkpt><trkpt lat="43.4363818" lon="11.6182386"><ele>230.0</ele><time>2026-04-22T07:29:21.36Z</time></trkpt><trkpt lat="43.4362229" lon="11.6181303"><ele>230.0</ele><time>2026-04-22T07:29:22.369Z</time></trkpt><trkpt lat="43.4360614" lon="11.6180191"><ele>230.66666666666669</ele><time>2026-04-22T07:29:23.367Z</time></trkpt><trkpt lat="43.435901" lon="11.6179104"><ele>231.33333333333331</ele><time>2026-04-22T07:29:24.384Z</time></trkpt><trkpt lat="43.4357394" lon="11.6178"><ele>232.0</ele><time>2026-04-22T07:29:25.371Z</time></trkpt><trkpt lat="43.4355776" lon="11.6176857"><ele>231.0</ele><time>2026-04-22T07:29:26.359Z</time></trkpt><trkpt lat="43.435417" lon="11.6175728"><ele>230.0</ele><time>2026-04-22T07:29:27.381Z</time></trkpt><trkpt lat="43.4352569" lon="11.6174587"><ele>229.0</ele><time>2026-04-22T07:29:28.384Z</time></trkpt><trkpt lat="43.4350961" lon="11.6173445"><ele>229.0</ele><time>2026-04-22T07:29:29.365Z</time></trkpt><trkpt lat="43.4349356" lon="11.6172347"><ele>229.0</ele><time>2026-04-22T07:29:30.344Z</time></trkpt><trkpt lat="43.4347749" lon="11.6171273"><ele>229.0</ele><time>2026-04-22T07:29:31.364Z</time></trkpt><trkpt lat="43.4346172" lon="11.6170213"><ele>229.33333333333331</ele><time>2026-04-22T07:29:32.351Z</time></trkpt><trkpt lat="43.4344575" lon="11.6169134"><ele>229.66666666666669</ele><time>2026-04-22T07:29:33.359Z</time></trkpt><trkpt lat="43.4342993" lon="11.6168061"><ele>230.0</ele><time>2026-04-22T07:29:34.358Z</time></trkpt><trkpt lat="43.4341402" lon="11.6166941"><ele>230.0</ele><time>2026-04-22T07:29:35.361Z</time></trkpt><trkpt lat="43.4339814" lon="11.6165822"><ele>230.0</ele><time>2026-04-22T07:29:36.348Z</time></trkpt><trkpt lat="43.4338237" lon="11.6164686"><ele>230.0</ele><time>2026-04-22T07:29:37.366Z</time></trkpt><trkpt lat="43.4336696" lon="11.6163579"><ele>230.0</ele><time>2026-04-22T07:29:38.379Z</time></trkpt><trkpt lat="43.4335248" lon="11.6162544"><ele>230.0</ele><time>2026-04-22T07:29:39.355Z</time></trkpt><trkpt lat="43.4333759" lon="11.6161664"><ele>230.0</ele><time>2026-04-22T07:29:40.343Z</time></trkpt><trkpt lat="43.4332205" lon="11.6161028"><ele>230.0</ele><time>2026-04-22T07:29:41.364Z</time></trkpt><trkpt lat="43.4330607" lon="11.6160674"><ele>230.0</ele><time>2026-04-22T07:29:42.357Z</time></trkpt><trkpt lat="43.4329011" lon="11.6160467"><ele>230.0</ele><time>2026-04-22T07:29:43.354Z</time></trkpt><trkpt lat="43.4327398" lon="11.6160197"><ele>230.66666666666669</ele><time>2026-04-22T07:29:44.36Z</time></trkpt><trkpt lat="43.4325829" lon="11.6159739"><ele>231.33333333333331</ele><time>2026-04-22T07:29:45.373Z</time></trkpt><trkpt lat="43.4324288" lon="11.6158976"><ele>232.0</ele><time>2026-04-22T07:29:46.361Z</time></trkpt><trkpt lat="43.4322778" lon="11.6157998"><ele>232.0</ele><time>2026-04-22T07:29:47.344Z</time></trkpt><trkpt lat="43.4321301" lon="11.6156951"><ele>232.0</ele><time>2026-04-22T07:29:48.369Z</time></trkpt><trkpt lat="43.4319827" lon="11.6155795"><ele>232.0</ele><time>2026-04-22T07:29:49.359Z</time></trkpt><trkpt lat="43.4318371" lon="11.6154439"><ele>232.0</ele><time>2026-04-22T07:29:50.354Z</time></trkpt><trkpt lat="43.4316974" lon="11.6152918"><ele>232.0</ele><time>2026-04-22T07:29:51.389Z</time></trkpt><trkpt lat="43.4315589" lon="11.6151284"><ele>232.0</ele><time>2026-04-22T07:29:52.347Z</time></trkpt><trkpt lat="43.4314215" lon="11.6149681"><ele>232.0</ele><time>2026-04-22T07:29:53.349Z</time></trkpt><trkpt lat="43.4312847" lon="11.6148083"><ele>232.0</ele><time>2026-04-22T07:29:54.365Z</time></trkpt><trkpt lat="43.4311463" lon="11.6146456"><ele>232.0</ele><time>2026-04-22T07:29:55.375Z</time></trkpt><trkpt lat="43.4310069" lon="11.6144845"><ele>232.0</ele><time>2026-04-22T07:29:56.367Z</time></trkpt><trkpt lat="43.4308649" lon="11.6143265"><ele>232.0</ele><time>2026-04-22T07:29:57.384Z</time></trkpt><trkpt lat="43.4307273" lon="11.6141678"><ele>232.0</ele><time>2026-04-22T07:29:58.358Z</time></trkpt><trkpt lat="43.4305924" lon="11.6140072"><ele>233.33333333333331</ele><time>2026-04-22T07:29:59.371Z</time></trkpt><trkpt lat="43.4304618" lon="11.6138515"><ele>234.66666666666669</ele><time>2026-04-22T07:30:00.326Z</time></trkpt><trkpt lat="43.4303375" lon="11.6136928"><ele>236.0</ele><time>2026-04-22T07:30:01.371Z</time></trkpt><trkpt lat="43.4302191" lon="11.6135316"><ele>236.0</ele><time>2026-04-22T07:30:02.364Z</time></trkpt><trkpt lat="43.4301036" lon="11.6133753"><ele>236.0</ele><time>2026-04-22T07:30:03.356Z</time></trkpt><trkpt lat="43.4299931" lon="11.6132289"><ele>236.0</ele><time>2026-04-22T07:30:04.375Z</time></trkpt><trkpt lat="43.4298863" lon="11.6130837"><ele>236.0</ele><time>2026-04-22T07:30:05.362Z</time></trkpt><trkpt lat="43.4297877" lon="11.6129558"><ele>236.0</ele><time>2026-04-22T07:30:06.338Z</time></trkpt><trkpt lat="43.4296836" lon="11.6128393"><ele>236.0</ele><time>2026-04-22T07:30:07.36Z</time></trkpt><trkpt lat="43.4295639" lon="11.6127411"><ele>236.0</ele><time>2026-04-22T07:30:08.331Z</time></trkpt><trkpt lat="43.4294292" lon="11.6126529"><ele>237.33333333333334</ele><time>2026-04-22T07:30:09.341Z</time></trkpt><trkpt lat="43.4292859" lon="11.6125814"><ele>238.66666666666669</ele><time>2026-04-22T07:30:10.358Z</time></trkpt><trkpt lat="43.429135" lon="11.6125176"><ele>240.0</ele><time>2026-04-22T07:30:11.367Z</time></trkpt><trkpt lat="43.4289865" lon="11.6124596"><ele>240.0</ele><time>2026-04-22T07:30:12.352Z</time></trkpt><trkpt lat="43.4288397" lon="11.6124005"><ele>240.0</ele><time>2026-04-22T07:30:13.364Z</time></trkpt><trkpt lat="43.4286951" lon="11.612342"><ele>240.0</ele><time>2026-04-22T07:30:14.352Z</time></trkpt><trkpt lat="43.4285522" lon="11.6122824"><ele>240.75</ele><time>2026-04-22T07:30:15.351Z</time></trkpt><trkpt lat="43.4284111" lon="11.6122234"><ele>241.5</ele><time>2026-04-22T07:30:16.361Z</time></trkpt><trkpt lat="43.4282736" lon="11.6121698"><ele>242.25</ele><time>2026-04-22T07:30:17.343Z</time></trkpt><trkpt lat="43.4281459" lon="11.6121203"><ele>243.0</ele><time>2026-04-22T07:30:18.361Z</time></trkpt><trkpt lat="43.4280324" lon="11.6120743"><ele>243.4</ele><time>2026-04-22T07:30:19.36Z</time></trkpt><trkpt lat="43.4279249" lon="11.6120293"><ele>243.8</ele><time>2026-04-22T07:30:20.363Z</time></trkpt><trkpt lat="43.4278226" lon="11.6119846"><ele>244.2</ele><time>2026-04-22T07:30:21.365Z</time></trkpt><trkpt lat="43.4277236" lon="11.6119452"><ele>244.6</ele><time>2026-04-22T07:30:22.371Z</time></trkpt><trkpt lat="43.4276309" lon="11.6119147"><ele>245.0</ele><time>2026-04-22T07:30:23.373Z</time></trkpt><trkpt lat="43.4275448" lon="11.6118962"><ele>245.0</ele><time>2026-04-22T07:30:24.367Z</time></trkpt><trkpt lat="43.4274567" lon="11.6118898"><ele>245.0</ele><time>2026-04-22T07:30:25.358Z</time></trkpt><trkpt lat="43.4273591" lon="11.6118941"><ele>245.0</ele><time>2026-04-22T07:30:26.36Z</time></trkpt><trkpt lat="43.4272633" lon="11.6119164"><ele>245.0</ele><time>2026-04-22T07:30:27.365Z</time></trkpt><trkpt lat="43.4271683" lon="11.6119488"><ele>245.0</ele><time>2026-04-22T07:30:28.35Z</time></trkpt><trkpt lat="43.4270647" lon="11.6119836"><ele>245.75</ele><time>2026-04-22T07:30:29.374Z</time></trkpt><trkpt lat="43.4269542" lon="11.6120225"><ele>246.5</ele><time>2026-04-22T07:30:30.365Z</time></trkpt><trkpt lat="43.4268409" lon="11.6120648"><ele>247.25</ele><time>2026-04-22T07:30:31.351Z</time></trkpt><trkpt lat="43.4267246" lon="11.6121131"><ele>248.0</ele><time>2026-04-22T07:30:32.337Z</time></trkpt><trkpt lat="43.4266052" lon="11.6121764"><ele>248.0</ele><time>2026-04-22T07:30:33.376Z</time></trkpt><trkpt lat="43.4264818" lon="11.6122663"><ele>248.0</ele><time>2026-04-22T07:30:34.348Z</time></trkpt><trkpt lat="43.4263515" lon="11.6123879"><ele>248.0</ele><time>2026-04-22T07:30:35.357Z</time></trkpt><trkpt lat="43.4262159" lon="11.6125223"><ele>247.0</ele><time>2026-04-22T07:30:36.36Z</time></trkpt><trkpt lat="43.4260829" lon="11.6126574"><ele>246.0</ele><time>2026-04-22T07:30:37.355Z</time></trkpt><trkpt lat="43.4259495" lon="11.6127844"><ele>245.0</ele><time>2026-04-22T07:30:38.363Z</time></trkpt><trkpt lat="43.4258167" lon="11.6129148"><ele>245.0</ele><time>2026-04-22T07:30:39.359Z</time></trkpt><trkpt lat="43.4256748" lon="11.6130436"><ele>245.0</ele><time>2026-04-22T07:30:40.338Z</time></trkpt><trkpt lat="43.4255346" lon="11.6131677"><ele>245.0</ele><time>2026-04-22T07:30:41.35Z</time></trkpt><trkpt lat="43.4253928" lon="11.613285"><ele>243.66666666666669</ele><time>2026-04-22T07:30:42.345Z</time></trkpt><trkpt lat="43.425241" lon="11.613397"><ele>242.33333333333331</ele><time>2026-04-22T07:30:43.351Z</time></trkpt><trkpt lat="43.4250911" lon="11.6135055"><ele>241.0</ele><time>2026-04-22T07:30:44.35Z</time></trkpt><trkpt lat="43.4249394" lon="11.613621"><ele>241.33333333333331</ele><time>2026-04-22T07:30:45.361Z</time></trkpt><trkpt lat="43.4247904" lon="11.6137316"><ele>241.66666666666669</ele><time>2026-04-22T07:30:46.367Z</time></trkpt><trkpt lat="43.4246428" lon="11.6138344"><ele>242.0</ele><time>2026-04-22T07:30:47.363Z</time></trkpt><trkpt lat="43.4244972" lon="11.6139321"><ele>242.0</ele><time>2026-04-22T07:30:48.366Z</time></trkpt><trkpt lat="43.4243523" lon="11.6140307"><ele>242.0</ele><time>2026-04-22T07:30:49.35Z</time></trkpt><trkpt lat="43.4242167" lon="11.6141214"><ele>242.0</ele><time>2026-04-22T07:30:50.338Z</time></trkpt><trkpt lat="43.424088" lon="11.6142089"><ele>242.0</ele><time>2026-04-22T07:30:51.375Z</time></trkpt><trkpt lat="43.4239693" lon="11.6142802"><ele>242.0</ele><time>2026-04-22T07:30:52.354Z</time></trkpt><trkpt lat="43.4238501" lon="11.614323"><ele>242.0</ele><time>2026-04-22T07:30:53.361Z</time></trkpt><trkpt lat="43.4237299" lon="11.6143256"><ele>242.0</ele><time>2026-04-22T07:30:54.344Z</time></trkpt><trkpt lat="43.4236094" lon="11.6142864"><ele>242.75</ele><time>2026-04-22T07:30:55.34Z</time></trkpt><trkpt lat="43.4234897" lon="11.6142078"><ele>243.5</ele><time>2026-04-22T07:30:56.342Z</time></trkpt><trkpt lat="43.4233734" lon="11.6141033"><ele>244.25</ele><time>2026-04-22T07:30:57.36Z</time></trkpt><trkpt lat="43.4232517" lon="11.6139924"><ele>245.0</ele><time>2026-04-22T07:30:58.363Z</time></trkpt><trkpt lat="43.4231399" lon="11.6138753"><ele>245.0</ele><time>2026-04-22T07:30:59.361Z</time></trkpt><trkpt lat="43.4230315" lon="11.613764"><ele>245.0</ele><time>2026-04-22T07:31:00.356Z</time></trkpt><trkpt lat="43.4229214" lon="11.6136485"><ele>245.0</ele><time>2026-04-22T07:31:01.352Z</time></trkpt><trkpt lat="43.4228117" lon="11.6135364"><ele>245.0</ele><time>2026-04-22T07:31:02.363Z</time></trkpt><trkpt lat="43.4227045" lon="11.6134245"><ele>244.5</ele><time>2026-04-22T07:31:03.36Z</time></trkpt><trkpt lat="43.4225989" lon="11.6133129"><ele>244.0</ele><time>2026-04-22T07:31:04.355Z</time></trkpt><trkpt lat="43.4224933" lon="11.6132061"><ele>243.5</ele><time>2026-04-22T07:31:05.366Z</time></trkpt><trkpt lat="43.4223858" lon="11.6130987"><ele>243.0</ele><time>2026-04-22T07:31:06.34Z</time></trkpt><trkpt lat="43.4222806" lon="11.6129894"><ele>243.0</ele><time>2026-04-22T07:31:07.371Z</time></trkpt><trkpt lat="43.4221767" lon="11.6128774"><ele>243.0</ele><time>2026-04-22T07:31:08.379Z</time></trkpt><trkpt lat="43.4220677" lon="11.6127652"><ele>243.0</ele><time>2026-04-22T07:31:09.351Z</time></trkpt><trkpt lat="43.4219511" lon="11.6126522"><ele>243.0</ele><time>2026-04-22T07:31:10.353Z</time></trkpt><trkpt lat="43.4218314" lon="11.6125386"><ele>242.66666666666669</ele><time>2026-04-22T07:31:11.356Z</time></trkpt><trkpt lat="43.4217111" lon="11.6124209"><ele>242.33333333333334</ele><time>2026-04-22T07:31:12.364Z</time></trkpt><trkpt lat="43.4215824" lon="11.6122939"><ele>242.0</ele><time>2026-04-22T07:31:13.373Z</time></trkpt><trkpt lat="43.4214479" lon="11.6121593"><ele>242.33333333333334</ele><time>2026-04-22T07:31:14.369Z</time></trkpt><trkpt lat="43.4213119" lon="11.6120201"><ele>242.66666666666669</ele><time>2026-04-22T07:31:15.356Z</time></trkpt><trkpt lat="43.4211748" lon="11.6118819"><ele>243.0</ele><time>2026-04-22T07:31:16.346Z</time></trkpt><trkpt lat="43.4210399" lon="11.6117393"><ele>243.33333333333331</ele><time>2026-04-22T07:31:17.371Z</time></trkpt><trkpt lat="43.4209046" lon="11.6115991"><ele>243.66666666666666</ele><time>2026-04-22T07:31:18.36Z</time></trkpt><trkpt lat="43.4207692" lon="11.6114565"><ele>244.0</ele><time>2026-04-22T07:31:19.355Z</time></trkpt><trkpt lat="43.4206394" lon="11.6113129"><ele>244.0</ele><time>2026-04-22T07:31:20.352Z</time></trkpt><trkpt lat="43.4205075" lon="11.6111749"><ele>244.0</ele><time>2026-04-22T07:31:21.359Z</time></trkpt><trkpt lat="43.4203819" lon="11.6110522"><ele>244.0</ele><time>2026-04-22T07:31:22.353Z</time></trkpt><trkpt lat="43.4202669" lon="11.6109341"><ele>244.25</ele><time>2026-04-22T07:31:23.367Z</time></trkpt><trkpt lat="43.420156" lon="11.6108137"><ele>244.5</ele><time>2026-04-22T07:31:24.368Z</time></trkpt><trkpt lat="43.4200509" lon="11.6107004"><ele>244.75</ele><time>2026-04-22T07:31:25.358Z</time></trkpt><trkpt lat="43.4199396" lon="11.6105723"><ele>245.0</ele><time>2026-04-22T07:31:26.359Z</time></trkpt><trkpt lat="43.419846" lon="11.6104686"><ele>245.0</ele><time>2026-04-22T07:31:27.37Z</time></trkpt><trkpt lat="43.4197483" lon="11.6103642"><ele>245.0</ele><time>2026-04-22T07:31:28.363Z</time></trkpt><trkpt lat="43.4196509" lon="11.6102598"><ele>245.0</ele><time>2026-04-22T07:31:29.354Z</time></trkpt><trkpt lat="43.4195554" lon="11.6101581"><ele>245.0</ele><time>2026-04-22T07:31:30.346Z</time></trkpt><trkpt lat="43.419465" lon="11.61006"><ele>245.75</ele><time>2026-04-22T07:31:31.362Z</time></trkpt><trkpt lat="43.4193743" lon="11.6099636"><ele>246.5</ele><time>2026-04-22T07:31:32.36Z</time></trkpt><trkpt lat="43.4192813" lon="11.6098673"><ele>247.25</ele><time>2026-04-22T07:31:33.357Z</time></trkpt><trkpt lat="43.4191894" lon="11.6097706"><ele>248.0</ele><time>2026-04-22T07:31:34.363Z</time></trkpt><trkpt lat="43.419099" lon="11.6096738"><ele>248.0</ele><time>2026-04-22T07:31:35.356Z</time></trkpt><trkpt lat="43.4190084" lon="11.6095767"><ele>248.0</ele><time>2026-04-22T07:31:36.368Z</time></trkpt><trkpt lat="43.4189165" lon="11.6094779"><ele>248.0</ele><time>2026-04-22T07:31:37.36Z</time></trkpt><trkpt lat="43.4188241" lon="11.6093811"><ele>248.0</ele><time>2026-04-22T07:31:38.357Z</time></trkpt><trkpt lat="43.4187327" lon="11.6092863"><ele>248.75</ele><time>2026-04-22T07:31:39.335Z</time></trkpt><trkpt lat="43.4186359" lon="11.609191"><ele>249.5</ele><time>2026-04-22T07:31:40.349Z</time></trkpt><trkpt lat="43.4185396" lon="11.6090918"><ele>250.25</ele><time>2026-04-22T07:31:41.325Z</time></trkpt><trkpt lat="43.4184472" lon="11.6089938"><ele>251.0</ele><time>2026-04-22T07:31:42.355Z</time></trkpt><trkpt lat="43.4183526" lon="11.608899"><ele>251.0</ele><time>2026-04-22T07:31:43.361Z</time></trkpt><trkpt lat="43.4182572" lon="11.6088145"><ele>251.0</ele><time>2026-04-22T07:31:44.354Z</time></trkpt><trkpt lat="43.4181584" lon="11.6087403"><ele>251.0</ele><time>2026-04-22T07:31:45.361Z</time></trkpt><trkpt lat="43.4180483" lon="11.6086792"><ele>251.0</ele><time>2026-04-22T07:31:46.354Z</time></trkpt><trkpt lat="43.4179353" lon="11.6086155"><ele>250.25</ele><time>2026-04-22T07:31:47.347Z</time></trkpt><trkpt lat="43.4178177" lon="11.6085517"><ele>249.5</ele><time>2026-04-22T07:31:48.351Z</time></trkpt><trkpt lat="43.4176966" lon="11.608485"><ele>248.75</ele><time>2026-04-22T07:31:49.327Z</time></trkpt><trkpt lat="43.4175738" lon="11.6084149"><ele>248.0</ele><time>2026-04-22T07:31:50.349Z</time></trkpt><trkpt lat="43.4174509" lon="11.6083486"><ele>248.0</ele><time>2026-04-22T07:31:51.363Z</time></trkpt><trkpt lat="43.4173295" lon="11.608277"><ele>248.0</ele><time>2026-04-22T07:31:52.336Z</time></trkpt><trkpt lat="43.4172086" lon="11.6081961"><ele>248.0</ele><time>2026-04-22T07:31:53.352Z</time></trkpt><trkpt lat="43.4170905" lon="11.6080946"><ele>248.0</ele><time>2026-04-22T07:31:54.354Z</time></trkpt><trkpt lat="43.4169757" lon="11.6079711"><ele>248.33333333333334</ele><time>2026-04-22T07:31:55.353Z</time></trkpt><trkpt lat="43.4168601" lon="11.607831"><ele>248.66666666666669</ele><time>2026-04-22T07:31:56.342Z</time></trkpt><trkpt lat="43.4167405" lon="11.6076766"><ele>249.0</ele><time>2026-04-22T07:31:57.359Z</time></trkpt><trkpt lat="43.4166142" lon="11.6075165"><ele>248.66666666666669</ele><time>2026-04-22T07:31:58.36Z</time></trkpt><trkpt lat="43.416492" lon="11.6073634"><ele>248.33333333333334</ele><time>2026-04-22T07:31:59.371Z</time></trkpt><trkpt lat="43.4163689" lon="11.6072123"><ele>248.0</ele><time>2026-04-22T07:32:00.345Z</time></trkpt><trkpt lat="43.4162451" lon="11.6070568"><ele>247.0</ele><time>2026-04-22T07:32:01.366Z</time></trkpt><trkpt lat="43.4161214" lon="11.6069087"><ele>246.0</ele><time>2026-04-22T07:32:02.369Z</time></trkpt><trkpt lat="43.4159974" lon="11.6067591"><ele>245.0</ele><time>2026-04-22T07:32:03.367Z</time></trkpt><trkpt lat="43.4158828" lon="11.6066109"><ele>245.0</ele><time>2026-04-22T07:32:04.352Z</time></trkpt><trkpt lat="43.4157723" lon="11.606468"><ele>245.0</ele><time>2026-04-22T07:32:05.359Z</time></trkpt><trkpt lat="43.4156649" lon="11.6063281"><ele>245.0</ele><time>2026-04-22T07:32:06.369Z</time></trkpt><trkpt lat="43.4155599" lon="11.6061977"><ele>245.0</ele><time>2026-04-22T07:32:07.364Z</time></trkpt><trkpt lat="43.4154582" lon="11.6060715"><ele>244.5</ele><time>2026-04-22T07:32:08.37Z</time></trkpt><trkpt lat="43.4153644" lon="11.6059451"><ele>244.0</ele><time>2026-04-22T07:32:09.353Z</time></trkpt><trkpt lat="43.4152815" lon="11.6058019"><ele>243.5</ele><time>2026-04-22T07:32:10.346Z</time></trkpt><trkpt lat="43.4152147" lon="11.6056408"><ele>243.0</ele><time>2026-04-22T07:32:11.35Z</time></trkpt><trkpt lat="43.4151644" lon="11.6054609"><ele>243.25</ele><time>2026-04-22T07:32:12.352Z</time></trkpt><trkpt lat="43.4151347" lon="11.6052691"><ele>243.5</ele><time>2026-04-22T07:32:13.34Z</time></trkpt><trkpt lat="43.4151204" lon="11.6050725"><ele>243.75</ele><time>2026-04-22T07:32:14.363Z</time></trkpt><trkpt lat="43.4151083" lon="11.6048635"><ele>244.0</ele><time>2026-04-22T07:32:15.355Z</time></trkpt><trkpt lat="43.4150983" lon="11.6046615"><ele>244.5</ele><time>2026-04-22T07:32:16.372Z</time></trkpt><trkpt lat="43.4150899" lon="11.6044615"><ele>245.0</ele><time>2026-04-22T07:32:17.341Z</time></trkpt><trkpt lat="43.4150803" lon="11.6042641"><ele>245.5</ele><time>2026-04-22T07:32:18.358Z</time></trkpt><trkpt lat="43.4150685" lon="11.6040662"><ele>246.0</ele><time>2026-04-22T07:32:19.361Z</time></trkpt><trkpt lat="43.4150573" lon="11.6038741"><ele>246.0</ele><time>2026-04-22T07:32:20.349Z</time></trkpt><trkpt lat="43.4150426" lon="11.603685"><ele>246.0</ele><time>2026-04-22T07:32:21.359Z</time></trkpt><trkpt lat="43.4150243" lon="11.6035007"><ele>246.0</ele><time>2026-04-22T07:32:22.368Z</time></trkpt><trkpt lat="43.4149955" lon="11.6033195"><ele>246.0</ele><time>2026-04-22T07:32:23.355Z</time></trkpt><trkpt lat="43.4149558" lon="11.6031491"><ele>247.25</ele><time>2026-04-22T07:32:24.347Z</time></trkpt><trkpt lat="43.4149011" lon="11.6029869"><ele>248.5</ele><time>2026-04-22T07:32:25.349Z</time></trkpt><trkpt lat="43.4148314" lon="11.6028405"><ele>249.75</ele><time>2026-04-22T07:32:26.343Z</time></trkpt><trkpt lat="43.4147519" lon="11.60271"><ele>251.0</ele><time>2026-04-22T07:32:27.331Z</time></trkpt><trkpt lat="43.4146647" lon="11.6025851"><ele>250.5</ele><time>2026-04-22T07:32:28.356Z</time></trkpt><trkpt lat="43.4145712" lon="11.6024607"><ele>250.0</ele><time>2026-04-22T07:32:29.373Z</time></trkpt><trkpt lat="43.4144759" lon="11.6023332"><ele>249.5</ele><time>2026-04-22T07:32:30.355Z</time></trkpt><trkpt lat="43.4143749" lon="11.6022041"><ele>249.0</ele><time>2026-04-22T07:32:31.359Z</time></trkpt><trkpt lat="43.4142681" lon="11.6020823"><ele>249.0</ele><time>2026-04-22T07:32:32.349Z</time></trkpt><trkpt lat="43.4141552" lon="11.6019652"><ele>249.0</ele><time>2026-04-22T07:32:33.363Z</time></trkpt><trkpt lat="43.4140363" lon="11.6018521"><ele>249.0</ele><time>2026-04-22T07:32:34.352Z</time></trkpt><trkpt lat="43.4139115" lon="11.6017404"><ele>249.0</ele><time>2026-04-22T07:32:35.352Z</time></trkpt><trkpt lat="43.4137845" lon="11.6016292"><ele>249.0</ele><time>2026-04-22T07:32:36.358Z</time></trkpt><trkpt lat="43.4136584" lon="11.6015215"><ele>249.0</ele><time>2026-04-22T07:32:37.366Z</time></trkpt><trkpt lat="43.4135374" lon="11.6014147"><ele>249.0</ele><time>2026-04-22T07:32:38.348Z</time></trkpt><trkpt lat="43.4134153" lon="11.6013096"><ele>249.0</ele><time>2026-04-22T07:32:39.354Z</time></trkpt><trkpt lat="43.4132927" lon="11.6012039"><ele>249.5</ele><time>2026-04-22T07:32:40.358Z</time></trkpt><trkpt lat="43.4131731" lon="11.6011011"><ele>250.0</ele><time>2026-04-22T07:32:41.349Z</time></trkpt><trkpt lat="43.4130554" lon="11.6009984"><ele>250.5</ele><time>2026-04-22T07:32:42.343Z</time></trkpt><trkpt lat="43.412942" lon="11.6009002"><ele>251.0</ele><time>2026-04-22T07:32:43.364Z</time></trkpt><trkpt lat="43.4128326" lon="11.6008113"><ele>250.0</ele><time>2026-04-22T07:32:44.357Z</time></trkpt><trkpt lat="43.4127234" lon="11.6007189"><ele>249.0</ele><time>2026-04-22T07:32:45.351Z</time></trkpt><trkpt lat="43.4126105" lon="11.6006171"><ele>248.0</ele><time>2026-04-22T07:32:46.354Z</time></trkpt><trkpt lat="43.4124897" lon="11.6005148"><ele>247.0</ele><time>2026-04-22T07:32:47.348Z</time></trkpt><trkpt lat="43.4123686" lon="11.6004115"><ele>247.0</ele><time>2026-04-22T07:32:48.356Z</time></trkpt><trkpt lat="43.4122437" lon="11.6003023"><ele>247.0</ele><time>2026-04-22T07:32:49.344Z</time></trkpt><trkpt lat="43.4121145" lon="11.6001914"><ele>247.0</ele><time>2026-04-22T07:32:50.334Z</time></trkpt><trkpt lat="43.4119842" lon="11.6000781"><ele>247.0</ele><time>2026-04-22T07:32:51.356Z</time></trkpt><trkpt lat="43.4118551" lon="11.599963"><ele>247.0</ele><time>2026-04-22T07:32:52.34Z</time></trkpt><trkpt lat="43.4117244" lon="11.5998482"><ele>247.0</ele><time>2026-04-22T07:32:53.356Z</time></trkpt><trkpt lat="43.4115952" lon="11.599738"><ele>247.0</ele><time>2026-04-22T07:32:54.356Z</time></trkpt><trkpt lat="43.411466" lon="11.5996315"><ele>247.0</ele><time>2026-04-22T07:32:55.363Z</time></trkpt><trkpt lat="43.4113395" lon="11.5995232"><ele>247.0</ele><time>2026-04-22T07:32:56.377Z</time></trkpt><trkpt lat="43.4112146" lon="11.5994134"><ele>247.0</ele><time>2026-04-22T07:32:57.36Z</time></trkpt><trkpt lat="43.4110875" lon="11.5993045"><ele>248.0</ele><time>2026-04-22T07:32:58.36Z</time></trkpt><trkpt lat="43.4109575" lon="11.5991955"><ele>249.0</ele><time>2026-04-22T07:32:59.407Z</time></trkpt><trkpt lat="43.4108285" lon="11.5990836"><ele>250.0</ele><time>2026-04-22T07:33:00.324Z</time></trkpt><trkpt lat="43.4107001" lon="11.5989708"><ele>250.0</ele><time>2026-04-22T07:33:01.385Z</time></trkpt><trkpt lat="43.410571" lon="11.5988578"><ele>250.0</ele><time>2026-04-22T07:33:02.357Z</time></trkpt><trkpt lat="43.4104425" lon="11.5987441"><ele>250.0</ele><time>2026-04-22T07:33:03.36Z</time></trkpt><trkpt lat="43.410314" lon="11.5986272"><ele>249.66666666666666</ele><time>2026-04-22T07:33:04.387Z</time></trkpt><trkpt lat="43.4101845" lon="11.5985148"><ele>249.33333333333331</ele><time>2026-04-22T07:33:05.345Z</time></trkpt><trkpt lat="43.4100559" lon="11.5984034"><ele>249.0</ele><time>2026-04-22T07:33:06.371Z</time></trkpt><trkpt lat="43.4099243" lon="11.5982907"><ele>249.0</ele><time>2026-04-22T07:33:07.36Z</time></trkpt><trkpt lat="43.4097955" lon="11.5981789"><ele>249.0</ele><time>2026-04-22T07:33:08.341Z</time></trkpt><trkpt lat="43.4096645" lon="11.5980688"><ele>249.0</ele><time>2026-04-22T07:33:09.36Z</time></trkpt><trkpt lat="43.4095367" lon="11.5979573"><ele>249.33333333333331</ele><time>2026-04-22T07:33:10.342Z</time></trkpt><trkpt lat="43.40941" lon="11.597844"><ele>249.66666666666666</ele><time>2026-04-22T07:33:11.365Z</time></trkpt><trkpt lat="43.4092826" lon="11.5977279"><ele>250.0</ele><time>2026-04-22T07:33:12.367Z</time></trkpt><trkpt lat="43.4091558" lon="11.5976016"><ele>250.33333333333331</ele><time>2026-04-22T07:33:13.36Z</time></trkpt><trkpt lat="43.4090323" lon="11.5974627"><ele>250.66666666666669</ele><time>2026-04-22T07:33:14.349Z</time></trkpt><trkpt lat="43.4089136" lon="11.5973125"><ele>251.0</ele><time>2026-04-22T07:33:15.344Z</time></trkpt><trkpt lat="43.4087995" lon="11.5971583"><ele>251.33333333333334</ele><time>2026-04-22T07:33:16.348Z</time></trkpt><trkpt lat="43.4086888" lon="11.5969986"><ele>251.66666666666669</ele><time>2026-04-22T07:33:17.356Z</time></trkpt><trkpt lat="43.4085754" lon="11.5968381"><ele>252.0</ele><time>2026-04-22T07:33:18.369Z</time></trkpt><trkpt lat="43.4084618" lon="11.5966784"><ele>252.0</ele><time>2026-04-22T07:33:19.37Z</time></trkpt><trkpt lat="43.4083509" lon="11.596521"><ele>252.0</ele><time>2026-04-22T07:33:20.349Z</time></trkpt><trkpt lat="43.4082363" lon="11.5963632"><ele>252.0</ele><time>2026-04-22T07:33:21.363Z</time></trkpt><trkpt lat="43.4081241" lon="11.5962041"><ele>252.0</ele><time>2026-04-22T07:33:22.361Z</time></trkpt><trkpt lat="43.4080099" lon="11.5960419"><ele>252.0</ele><time>2026-04-22T07:33:23.354Z</time></trkpt><trkpt lat="43.4078894" lon="11.5958891"><ele>252.0</ele><time>2026-04-22T07:33:24.35Z</time></trkpt><trkpt lat="43.4077653" lon="11.5957505"><ele>252.0</ele><time>2026-04-22T07:33:25.36Z</time></trkpt><trkpt lat="43.407645" lon="11.5956341"><ele>252.0</ele><time>2026-04-22T07:33:26.36Z</time></trkpt><trkpt lat="43.4075221" lon="11.5955318"><ele>252.0</ele><time>2026-04-22T07:33:27.35Z</time></trkpt><trkpt lat="43.4073914" lon="11.5954413"><ele>252.0</ele><time>2026-04-22T07:33:28.352Z</time></trkpt><trkpt lat="43.40725" lon="11.5953683"><ele>252.0</ele><time>2026-04-22T07:33:29.363Z</time></trkpt><trkpt lat="43.4071037" lon="11.595309"><ele>252.0</ele><time>2026-04-22T07:33:30.358Z</time></trkpt><trkpt lat="43.4069548" lon="11.5952522"><ele>252.0</ele><time>2026-04-22T07:33:31.368Z</time></trkpt><trkpt lat="43.4068005" lon="11.5951978"><ele>252.0</ele><time>2026-04-22T07:33:32.359Z</time></trkpt><trkpt lat="43.4066489" lon="11.5951446"><ele>252.0</ele><time>2026-04-22T07:33:33.359Z</time></trkpt><trkpt lat="43.4064945" lon="11.595091"><ele>252.0</ele><time>2026-04-22T07:33:34.36Z</time></trkpt><trkpt lat="43.4063411" lon="11.5950358"><ele>251.66666666666669</ele><time>2026-04-22T07:33:35.34Z</time></trkpt><trkpt lat="43.4061886" lon="11.5949855"><ele>251.33333333333334</ele><time>2026-04-22T07:33:36.369Z</time></trkpt><trkpt lat="43.406033" lon="11.5949343"><ele>251.0</ele><time>2026-04-22T07:33:37.355Z</time></trkpt><trkpt lat="43.4058755" lon="11.5948793"><ele>251.0</ele><time>2026-04-22T07:33:38.337Z</time></trkpt><trkpt lat="43.4057162" lon="11.5948237"><ele>251.0</ele><time>2026-04-22T07:33:39.374Z</time></trkpt><trkpt lat="43.4055545" lon="11.5947695"><ele>251.0</ele><time>2026-04-22T07:33:40.33Z</time></trkpt><trkpt lat="43.4053934" lon="11.5947144"><ele>250.0</ele><time>2026-04-22T07:33:41.331Z</time></trkpt><trkpt lat="43.4052298" lon="11.594659"><ele>249.0</ele><time>2026-04-22T07:33:42.334Z</time></trkpt><trkpt lat="43.4050651" lon="11.5946007"><ele>248.0</ele><time>2026-04-22T07:33:43.361Z</time></trkpt><trkpt lat="43.4048982" lon="11.5945408"><ele>248.33333333333334</ele><time>2026-04-22T07:33:44.362Z</time></trkpt><trkpt lat="43.4047333" lon="11.5944849"><ele>248.66666666666669</ele><time>2026-04-22T07:33:45.344Z</time></trkpt><trkpt lat="43.4045658" lon="11.5944258"><ele>249.0</ele><time>2026-04-22T07:33:46.365Z</time></trkpt><trkpt lat="43.4043997" lon="11.5943677"><ele>249.0</ele><time>2026-04-22T07:33:47.345Z</time></trkpt><trkpt lat="43.4042348" lon="11.5943097"><ele>249.0</ele><time>2026-04-22T07:33:48.367Z</time></trkpt><trkpt lat="43.4040698" lon="11.5942525"><ele>249.0</ele><time>2026-04-22T07:33:49.38Z</time></trkpt><trkpt lat="43.4039013" lon="11.5941943"><ele>249.0</ele><time>2026-04-22T07:33:50.333Z</time></trkpt><trkpt lat="43.4037359" lon="11.594137"><ele>249.0</ele><time>2026-04-22T07:33:51.371Z</time></trkpt><trkpt lat="43.4035708" lon="11.5940813"><ele>249.0</ele><time>2026-04-22T07:33:52.388Z</time></trkpt><trkpt lat="43.4034075" lon="11.5940268"><ele>249.0</ele><time>2026-04-22T07:33:53.362Z</time></trkpt><trkpt lat="43.4032421" lon="11.5939721"><ele>249.0</ele><time>2026-04-22T07:33:54.357Z</time></trkpt><trkpt lat="43.4030784" lon="11.5939158"><ele>249.0</ele><time>2026-04-22T07:33:55.367Z</time></trkpt><trkpt lat="43.4029147" lon="11.5938569"><ele>249.33333333333331</ele><time>2026-04-22T07:33:56.368Z</time></trkpt><trkpt lat="43.4027507" lon="11.5938008"><ele>249.66666666666666</ele><time>2026-04-22T07:33:57.372Z</time></trkpt><trkpt lat="43.4025884" lon="11.5937433"><ele>250.0</ele><time>2026-04-22T07:33:58.384Z</time></trkpt><trkpt lat="43.4024288" lon="11.5936902"><ele>250.66666666666666</ele><time>2026-04-22T07:33:59.371Z</time></trkpt><trkpt lat="43.4022686" lon="11.5936365"><ele>251.33333333333331</ele><time>2026-04-22T07:34:00.343Z</time></trkpt><trkpt lat="43.4021143" lon="11.5935831"><ele>252.0</ele><time>2026-04-22T07:34:01.367Z</time></trkpt><trkpt lat="43.4019707" lon="11.5935313"><ele>253.0</ele><time>2026-04-22T07:34:02.355Z</time></trkpt><trkpt lat="43.4018314" lon="11.5934823"><ele>254.0</ele><time>2026-04-22T07:34:03.347Z</time></trkpt><trkpt lat="43.4017016" lon="11.5934364"><ele>255.0</ele><time>2026-04-22T07:34:04.354Z</time></trkpt><trkpt lat="43.4015832" lon="11.5933964"><ele>256.0</ele><time>2026-04-22T07:34:05.348Z</time></trkpt><trkpt lat="43.4014703" lon="11.59336"><ele>256.0</ele><time>2026-04-22T07:34:06.348Z</time></trkpt><trkpt lat="43.4013659" lon="11.5933198"><ele>256.0</ele><time>2026-04-22T07:34:07.362Z</time></trkpt><trkpt lat="43.4012691" lon="11.5932728"><ele>256.0</ele><time>2026-04-22T07:34:08.363Z</time></trkpt><trkpt lat="43.4011857" lon="11.5932182"><ele>256.0</ele><time>2026-04-22T07:34:09.338Z</time></trkpt><trkpt lat="43.4010985" lon="11.5931571"><ele>256.0</ele><time>2026-04-22T07:34:10.338Z</time></trkpt><trkpt lat="43.4010054" lon="11.5931148"><ele>255.5</ele><time>2026-04-22T07:34:11.339Z</time></trkpt><trkpt lat="43.4009071" lon="11.5930987"><ele>255.0</ele><time>2026-04-22T07:34:12.36Z</time></trkpt><trkpt lat="43.4007917" lon="11.5930875"><ele>254.5</ele><time>2026-04-22T07:34:13.35Z</time></trkpt><trkpt lat="43.4006746" lon="11.5930634"><ele>254.0</ele><time>2026-04-22T07:34:14.358Z</time></trkpt><trkpt lat="43.4005531" lon="11.5930287"><ele>254.0</ele><time>2026-04-22T07:34:15.374Z</time></trkpt><trkpt lat="43.4004262" lon="11.5929846"><ele>254.0</ele><time>2026-04-22T07:34:16.369Z</time></trkpt><trkpt lat="43.4002896" lon="11.5929389"><ele>254.0</ele><time>2026-04-22T07:34:17.36Z</time></trkpt><trkpt lat="43.4001476" lon="11.5928908"><ele>254.0</ele><time>2026-04-22T07:34:18.366Z</time></trkpt><trkpt lat="43.4000035" lon="11.5928418"><ele>253.66666666666669</ele><time>2026-04-22T07:34:19.369Z</time></trkpt><trkpt lat="43.3998508" lon="11.5927884"><ele>253.33333333333331</ele><time>2026-04-22T07:34:20.349Z</time></trkpt><trkpt lat="43.3997036" lon="11.592739"><ele>253.0</ele><time>2026-04-22T07:34:21.363Z</time></trkpt><trkpt lat="43.3995512" lon="11.5926926"><ele>254.0</ele><time>2026-04-22T07:34:22.361Z</time></trkpt><trkpt lat="43.3993986" lon="11.5926425"><ele>255.0</ele><time>2026-04-22T07:34:23.347Z</time></trkpt><trkpt lat="43.3992431" lon="11.5925871"><ele>256.0</ele><time>2026-04-22T07:34:24.367Z</time></trkpt><trkpt lat="43.3990895" lon="11.5925327"><ele>256.0</ele><time>2026-04-22T07:34:25.368Z</time></trkpt><trkpt lat="43.3989383" lon="11.5924781"><ele>256.0</ele><time>2026-04-22T07:34:26.371Z</time></trkpt><trkpt lat="43.3987875" lon="11.5924238"><ele>256.0</ele><time>2026-04-22T07:34:27.364Z</time></trkpt><trkpt lat="43.3986325" lon="11.5923691"><ele>257.0</ele><time>2026-04-22T07:34:28.325Z</time></trkpt><trkpt lat="43.3984771" lon="11.5923132"><ele>258.0</ele><time>2026-04-22T07:34:29.337Z</time></trkpt><trkpt lat="43.3983218" lon="11.5922595"><ele>259.0</ele><time>2026-04-22T07:34:30.334Z</time></trkpt><trkpt lat="43.3981573" lon="11.5922046"><ele>259.3333333333333</ele><time>2026-04-22T07:34:31.354Z</time></trkpt><trkpt lat="43.3979982" lon="11.5921516"><ele>259.6666666666667</ele><time>2026-04-22T07:34:32.367Z</time></trkpt><trkpt lat="43.3978387" lon="11.5921002"><ele>260.0</ele><time>2026-04-22T07:34:33.364Z</time></trkpt><trkpt lat="43.3976771" lon="11.5920453"><ele>261.33333333333337</ele><time>2026-04-22T07:34:34.389Z</time></trkpt><trkpt lat="43.3975161" lon="11.5919905"><ele>262.6666666666667</ele><time>2026-04-22T07:34:35.364Z</time></trkpt><trkpt lat="43.3973563" lon="11.5919346"><ele>264.0</ele><time>2026-04-22T07:34:36.381Z</time></trkpt><trkpt lat="43.3971968" lon="11.5918786"><ele>263.3333333333333</ele><time>2026-04-22T07:34:37.375Z</time></trkpt><trkpt lat="43.3970359" lon="11.5918221"><ele>262.66666666666663</ele><time>2026-04-22T07:34:38.376Z</time></trkpt><trkpt lat="43.3968741" lon="11.591763"><ele>262.0</ele><time>2026-04-22T07:34:39.371Z</time></trkpt><trkpt lat="43.3967151" lon="11.5917028"><ele>262.0</ele><time>2026-04-22T07:34:40.344Z</time></trkpt><trkpt lat="43.3965564" lon="11.5916459"><ele>262.0</ele><time>2026-04-22T07:34:41.37Z</time></trkpt><trkpt lat="43.3963968" lon="11.5915861"><ele>262.0</ele><time>2026-04-22T07:34:42.348Z</time></trkpt><trkpt lat="43.3962384" lon="11.5915256"><ele>260.66666666666663</ele><time>2026-04-22T07:34:43.326Z</time></trkpt><trkpt lat="43.396082" lon="11.5914539"><ele>259.3333333333333</ele><time>2026-04-22T07:34:44.353Z</time></trkpt><trkpt lat="43.395934" lon="11.5913657"><ele>258.0</ele><time>2026-04-22T07:34:45.356Z</time></trkpt><trkpt lat="43.3957899" lon="11.5912576"><ele>257.6666666666667</ele><time>2026-04-22T07:34:46.348Z</time></trkpt><trkpt lat="43.3956529" lon="11.5911269"><ele>257.33333333333337</ele><time>2026-04-22T07:34:47.361Z</time></trkpt><trkpt lat="43.3955278" lon="11.5909768"><ele>257.0</ele><time>2026-04-22T07:34:48.353Z</time></trkpt><trkpt lat="43.3954162" lon="11.5908085"><ele>257.0</ele><time>2026-04-22T07:34:49.361Z</time></trkpt><trkpt lat="43.3953208" lon="11.590619"><ele>257.0</ele><time>2026-04-22T07:34:50.343Z</time></trkpt><trkpt lat="43.3952347" lon="11.5904191"><ele>257.0</ele><time>2026-04-22T07:34:51.347Z</time></trkpt><trkpt lat="43.3951535" lon="11.5902131"><ele>256.33333333333337</ele><time>2026-04-22T07:34:52.363Z</time></trkpt><trkpt lat="43.3950778" lon="11.5900003"><ele>255.66666666666669</ele><time>2026-04-22T07:34:53.366Z</time></trkpt><trkpt lat="43.3950015" lon="11.5897879"><ele>255.0</ele><time>2026-04-22T07:34:54.368Z</time></trkpt><trkpt lat="43.394922" lon="11.5895782"><ele>255.33333333333331</ele><time>2026-04-22T07:34:55.357Z</time></trkpt><trkpt lat="43.3948404" lon="11.5893713"><ele>255.66666666666666</ele><time>2026-04-22T07:34:56.373Z</time></trkpt><trkpt lat="43.3947604" lon="11.5891617"><ele>256.0</ele><time>2026-04-22T07:34:57.359Z</time></trkpt><trkpt lat="43.3946819" lon="11.5889517"><ele>256.0</ele><time>2026-04-22T07:34:58.389Z</time></trkpt><trkpt lat="43.3946066" lon="11.5887425"><ele>256.0</ele><time>2026-04-22T07:34:59.357Z</time></trkpt><trkpt lat="43.3945283" lon="11.5885353"><ele>256.0</ele><time>2026-04-22T07:35:00.357Z</time></trkpt><trkpt lat="43.394448" lon="11.588337"><ele>256.66666666666663</ele><time>2026-04-22T07:35:01.365Z</time></trkpt><trkpt lat="43.3943619" lon="11.5881507"><ele>257.3333333333333</ele><time>2026-04-22T07:35:02.356Z</time></trkpt><trkpt lat="43.3942597" lon="11.5879861"><ele>258.0</ele><time>2026-04-22T07:35:03.359Z</time></trkpt><trkpt lat="43.3941415" lon="11.5878346"><ele>258.6666666666667</ele><time>2026-04-22T07:35:04.355Z</time></trkpt><trkpt lat="43.3940162" lon="11.587691"><ele>259.33333333333337</ele><time>2026-04-22T07:35:05.372Z</time></trkpt><trkpt lat="43.3938871" lon="11.5875547"><ele>260.0</ele><time>2026-04-22T07:35:06.368Z</time></trkpt><trkpt lat="43.3937585" lon="11.5874158"><ele>260.0</ele><time>2026-04-22T07:35:07.348Z</time></trkpt><trkpt lat="43.3936337" lon="11.5872743"><ele>260.0</ele><time>2026-04-22T07:35:08.357Z</time></trkpt><trkpt lat="43.393507" lon="11.5871315"><ele>260.0</ele><time>2026-04-22T07:35:09.373Z</time></trkpt><trkpt lat="43.3933791" lon="11.5869918"><ele>262.0</ele><time>2026-04-22T07:35:10.35Z</time></trkpt><trkpt lat="43.3932544" lon="11.5868541"><ele>264.0</ele><time>2026-04-22T07:35:11.359Z</time></trkpt><trkpt lat="43.3931301" lon="11.586718"><ele>266.0</ele><time>2026-04-22T07:35:12.342Z</time></trkpt><trkpt lat="43.3930131" lon="11.58659"><ele>265.25</ele><time>2026-04-22T07:35:13.357Z</time></trkpt><trkpt lat="43.3929012" lon="11.5864608"><ele>264.5</ele><time>2026-04-22T07:35:14.363Z</time></trkpt><trkpt lat="43.3928002" lon="11.5863368"><ele>263.75</ele><time>2026-04-22T07:35:15.365Z</time></trkpt><trkpt lat="43.3927049" lon="11.5862039"><ele>263.0</ele><time>2026-04-22T07:35:16.355Z</time></trkpt><trkpt lat="43.3926138" lon="11.5860643"><ele>263.0</ele><time>2026-04-22T07:35:17.357Z</time></trkpt><trkpt lat="43.3925333" lon="11.5859101"><ele>263.0</ele><time>2026-04-22T07:35:18.323Z</time></trkpt><trkpt lat="43.3924667" lon="11.585749"><ele>263.0</ele><time>2026-04-22T07:35:19.349Z</time></trkpt><trkpt lat="43.3924116" lon="11.5855816"><ele>263.0</ele><time>2026-04-22T07:35:20.329Z</time></trkpt><trkpt lat="43.3923726" lon="11.5854098"><ele>264.25</ele><time>2026-04-22T07:35:21.354Z</time></trkpt><trkpt lat="43.3923485" lon="11.5852403"><ele>265.5</ele><time>2026-04-22T07:35:22.352Z</time></trkpt><trkpt lat="43.39233" lon="11.5850741"><ele>266.75</ele><time>2026-04-22T07:35:23.352Z</time></trkpt><trkpt lat="43.3923317" lon="11.584909"><ele>268.0</ele><time>2026-04-22T07:35:24.342Z</time></trkpt><trkpt lat="43.3923424" lon="11.5847416"><ele>268.0</ele><time>2026-04-22T07:35:25.355Z</time></trkpt><trkpt lat="43.3923653" lon="11.584577"><ele>268.0</ele><time>2026-04-22T07:35:26.371Z</time></trkpt><trkpt lat="43.3923959" lon="11.5844207"><ele>268.0</ele><time>2026-04-22T07:35:27.368Z</time></trkpt><trkpt lat="43.3924389" lon="11.5842633"><ele>268.0</ele><time>2026-04-22T07:35:28.363Z</time></trkpt><trkpt lat="43.3924824" lon="11.5841208"><ele>267.25</ele><time>2026-04-22T07:35:29.362Z</time></trkpt><trkpt lat="43.3925281" lon="11.5839749"><ele>266.5</ele><time>2026-04-22T07:35:30.355Z</time></trkpt><trkpt lat="43.3925712" lon="11.5838316"><ele>265.75</ele><time>2026-04-22T07:35:31.346Z</time></trkpt><trkpt lat="43.3926116" lon="11.5836867"><ele>265.0</ele><time>2026-04-22T07:35:32.351Z</time></trkpt><trkpt lat="43.3926432" lon="11.5835387"><ele>264.75</ele><time>2026-04-22T07:35:33.359Z</time></trkpt><trkpt lat="43.3926611" lon="11.5833878"><ele>264.5</ele><time>2026-04-22T07:35:34.361Z</time></trkpt><trkpt lat="43.3926665" lon="11.5832319"><ele>264.25</ele><time>2026-04-22T07:35:35.347Z</time></trkpt><trkpt lat="43.3926549" lon="11.5830703"><ele>264.0</ele><time>2026-04-22T07:35:36.343Z</time></trkpt><trkpt lat="43.3926197" lon="11.5828973"><ele>263.3333333333333</ele><time>2026-04-22T07:35:37.345Z</time></trkpt><trkpt lat="43.3925674" lon="11.5827139"><ele>262.66666666666663</ele><time>2026-04-22T07:35:38.338Z</time></trkpt><trkpt lat="43.3925056" lon="11.5825204"><ele>262.0</ele><time>2026-04-22T07:35:39.361Z</time></trkpt><trkpt lat="43.3924406" lon="11.5823144"><ele>262.0</ele><time>2026-04-22T07:35:40.346Z</time></trkpt><trkpt lat="43.3923815" lon="11.5820983"><ele>262.0</ele><time>2026-04-22T07:35:41.357Z</time></trkpt><trkpt lat="43.392318" lon="11.5818838"><ele>262.0</ele><time>2026-04-22T07:35:42.355Z</time></trkpt><trkpt lat="43.3922647" lon="11.5816655"><ele>262.0</ele><time>2026-04-22T07:35:43.362Z</time></trkpt><trkpt lat="43.3922115" lon="11.5814533"><ele>262.0</ele><time>2026-04-22T07:35:44.355Z</time></trkpt><trkpt lat="43.3921593" lon="11.5812554"><ele>262.0</ele><time>2026-04-22T07:35:45.367Z</time></trkpt><trkpt lat="43.3921109" lon="11.5810728"><ele>261.0</ele><time>2026-04-22T07:35:46.366Z</time></trkpt><trkpt lat="43.3920654" lon="11.5809048"><ele>260.0</ele><time>2026-04-22T07:35:47.354Z</time></trkpt><trkpt lat="43.3920214" lon="11.580746"><ele>259.0</ele><time>2026-04-22T07:35:48.372Z</time></trkpt><trkpt lat="43.3919775" lon="11.5805847"><ele>258.0</ele><time>2026-04-22T07:35:49.361Z</time></trkpt><trkpt lat="43.3919362" lon="11.580424"><ele>258.0</ele><time>2026-04-22T07:35:50.348Z</time></trkpt><trkpt lat="43.3918952" lon="11.580276"><ele>258.0</ele><time>2026-04-22T07:35:51.356Z</time></trkpt><trkpt lat="43.3918585" lon="11.5801358"><ele>258.0</ele><time>2026-04-22T07:35:52.335Z</time></trkpt><trkpt lat="43.3918234" lon="11.5799982"><ele>258.0</ele><time>2026-04-22T07:35:53.338Z</time></trkpt><trkpt lat="43.3917893" lon="11.5798607"><ele>258.0</ele><time>2026-04-22T07:35:54.364Z</time></trkpt><trkpt lat="43.3917562" lon="11.5797208"><ele>258.0</ele><time>2026-04-22T07:35:55.364Z</time></trkpt><trkpt lat="43.3917201" lon="11.5795794"><ele>258.0</ele><time>2026-04-22T07:35:56.366Z</time></trkpt><trkpt lat="43.3916831" lon="11.5794339"><ele>258.0</ele><time>2026-04-22T07:35:57.352Z</time></trkpt><trkpt lat="43.3916424" lon="11.5792923"><ele>258.0</ele><time>2026-04-22T07:35:58.34Z</time></trkpt><trkpt lat="43.3916024" lon="11.5791552"><ele>258.0</ele><time>2026-04-22T07:35:59.36Z</time></trkpt><trkpt lat="43.3915622" lon="11.5790144"><ele>259.0</ele><time>2026-04-22T07:36:00.336Z</time></trkpt><trkpt lat="43.3915161" lon="11.5788765"><ele>260.0</ele><time>2026-04-22T07:36:01.358Z</time></trkpt><trkpt lat="43.3914619" lon="11.5787338"><ele>261.0</ele><time>2026-04-22T07:36:02.363Z</time></trkpt><trkpt lat="43.3914054" lon="11.578585"><ele>262.0</ele><time>2026-04-22T07:36:03.337Z</time></trkpt><trkpt lat="43.3913447" lon="11.5784326"><ele>261.75</ele><time>2026-04-22T07:36:04.332Z</time></trkpt><trkpt lat="43.391284" lon="11.5782727"><ele>261.5</ele><time>2026-04-22T07:36:05.351Z</time></trkpt><trkpt lat="43.3912225" lon="11.5781088"><ele>261.25</ele><time>2026-04-22T07:36:06.358Z</time></trkpt><trkpt lat="43.3911594" lon="11.5779395"><ele>261.0</ele><time>2026-04-22T07:36:07.355Z</time></trkpt><trkpt lat="43.3910914" lon="11.5777695"><ele>261.0</ele><time>2026-04-22T07:36:08.348Z</time></trkpt><trkpt lat="43.391023" lon="11.577597"><ele>261.0</ele><time>2026-04-22T07:36:09.352Z</time></trkpt><trkpt lat="43.3909588" lon="11.5774161"><ele>261.0</ele><time>2026-04-22T07:36:10.352Z</time></trkpt><trkpt lat="43.3908924" lon="11.5772329"><ele>261.0</ele><time>2026-04-22T07:36:11.359Z</time></trkpt><trkpt lat="43.3908212" lon="11.5770515"><ele>260.6666666666667</ele><time>2026-04-22T07:36:12.332Z</time></trkpt><trkpt lat="43.3907481" lon="11.5768672"><ele>260.33333333333337</ele><time>2026-04-22T07:36:13.364Z</time></trkpt><trkpt lat="43.390672" lon="11.5766736"><ele>260.0</ele><time>2026-04-22T07:36:14.37Z</time></trkpt><trkpt lat="43.3905963" lon="11.5764723"><ele>260.0</ele><time>2026-04-22T07:36:15.349Z</time></trkpt><trkpt lat="43.3905217" lon="11.5762757"><ele>260.0</ele><time>2026-04-22T07:36:16.34Z</time></trkpt><trkpt lat="43.390436" lon="11.5760756"><ele>260.0</ele><time>2026-04-22T07:36:17.375Z</time></trkpt><trkpt lat="43.3903384" lon="11.5758885"><ele>260.33333333333337</ele><time>2026-04-22T07:36:18.341Z</time></trkpt><trkpt lat="43.3902288" lon="11.5757087"><ele>260.6666666666667</ele><time>2026-04-22T07:36:19.35Z</time></trkpt><trkpt lat="43.3901129" lon="11.575539"><ele>261.0</ele><time>2026-04-22T07:36:20.35Z</time></trkpt><trkpt lat="43.3899923" lon="11.575374"><ele>260.6666666666667</ele><time>2026-04-22T07:36:21.367Z</time></trkpt><trkpt lat="43.3898709" lon="11.5752048"><ele>260.33333333333337</ele><time>2026-04-22T07:36:22.356Z</time></trkpt><trkpt lat="43.3897485" lon="11.57504"><ele>260.0</ele><time>2026-04-22T07:36:23.354Z</time></trkpt><trkpt lat="43.3896258" lon="11.5748743"><ele>260.0</ele><time>2026-04-22T07:36:24.351Z</time></trkpt><trkpt lat="43.3895041" lon="11.5747078"><ele>260.0</ele><time>2026-04-22T07:36:25.364Z</time></trkpt><trkpt lat="43.3893816" lon="11.5745397"><ele>260.0</ele><time>2026-04-22T07:36:26.356Z</time></trkpt><trkpt lat="43.389259" lon="11.5743694"><ele>259.6666666666667</ele><time>2026-04-22T07:36:27.358Z</time></trkpt><trkpt lat="43.3891384" lon="11.5742017"><ele>259.3333333333333</ele><time>2026-04-22T07:36:28.341Z</time></trkpt><trkpt lat="43.3890176" lon="11.574031"><ele>259.0</ele><time>2026-04-22T07:36:29.348Z</time></trkpt><trkpt lat="43.388894" lon="11.5738641"><ele>259.0</ele><time>2026-04-22T07:36:30.336Z</time></trkpt><trkpt lat="43.3887707" lon="11.5737006"><ele>259.0</ele><time>2026-04-22T07:36:31.359Z</time></trkpt><trkpt lat="43.3886521" lon="11.5735372"><ele>259.0</ele><time>2026-04-22T07:36:32.345Z</time></trkpt><trkpt lat="43.3885309" lon="11.5733747"><ele>259.0</ele><time>2026-04-22T07:36:33.364Z</time></trkpt><trkpt lat="43.3884082" lon="11.5732091"><ele>259.0</ele><time>2026-04-22T07:36:34.36Z</time></trkpt><trkpt lat="43.3882871" lon="11.5730464"><ele>259.0</ele><time>2026-04-22T07:36:35.365Z</time></trkpt><trkpt lat="43.3881668" lon="11.5728834"><ele>259.3333333333333</ele><time>2026-04-22T07:36:36.373Z</time></trkpt><trkpt lat="43.388048" lon="11.5727206"><ele>259.6666666666667</ele><time>2026-04-22T07:36:37.347Z</time></trkpt><trkpt lat="43.3879295" lon="11.57256"><ele>260.0</ele><time>2026-04-22T07:36:38.342Z</time></trkpt><trkpt lat="43.3878106" lon="11.5723978"><ele>260.0</ele><time>2026-04-22T07:36:39.369Z</time></trkpt><trkpt lat="43.3876929" lon="11.5722359"><ele>260.0</ele><time>2026-04-22T07:36:40.341Z</time></trkpt><trkpt lat="43.3875728" lon="11.5720735"><ele>260.0</ele><time>2026-04-22T07:36:41.35Z</time></trkpt><trkpt lat="43.3874544" lon="11.5719151"><ele>260.0</ele><time>2026-04-22T07:36:42.34Z</time></trkpt><trkpt lat="43.3873365" lon="11.5717564"><ele>260.0</ele><time>2026-04-22T07:36:43.357Z</time></trkpt><trkpt lat="43.3872192" lon="11.5715962"><ele>260.0</ele><time>2026-04-22T07:36:44.334Z</time></trkpt><trkpt lat="43.3871011" lon="11.5714355"><ele>260.33333333333337</ele><time>2026-04-22T07:36:45.358Z</time></trkpt><trkpt lat="43.3869855" lon="11.5712763"><ele>260.6666666666667</ele><time>2026-04-22T07:36:46.364Z</time></trkpt><trkpt lat="43.38687" lon="11.5711174"><ele>261.0</ele><time>2026-04-22T07:36:47.353Z</time></trkpt><trkpt lat="43.3867551" lon="11.5709592"><ele>261.3333333333333</ele><time>2026-04-22T07:36:48.344Z</time></trkpt><trkpt lat="43.3866398" lon="11.5708083"><ele>261.66666666666663</ele><time>2026-04-22T07:36:49.348Z</time></trkpt><trkpt lat="43.3865262" lon="11.5706521"><ele>262.0</ele><time>2026-04-22T07:36:50.347Z</time></trkpt><trkpt lat="43.3864134" lon="11.5705009"><ele>263.3333333333333</ele><time>2026-04-22T07:36:51.357Z</time></trkpt><trkpt lat="43.3863019" lon="11.5703524"><ele>264.6666666666667</ele><time>2026-04-22T07:36:52.346Z</time></trkpt><trkpt lat="43.3861934" lon="11.5702026"><ele>266.0</ele><time>2026-04-22T07:36:53.338Z</time></trkpt><trkpt lat="43.3860871" lon="11.5700532"><ele>266.0</ele><time>2026-04-22T07:36:54.362Z</time></trkpt><trkpt lat="43.3859785" lon="11.5699087"><ele>266.0</ele><time>2026-04-22T07:36:55.355Z</time></trkpt><trkpt lat="43.3858716" lon="11.5697653"><ele>266.0</ele><time>2026-04-22T07:36:56.339Z</time></trkpt><trkpt lat="43.3857659" lon="11.5696212"><ele>266.0</ele><time>2026-04-22T07:36:57.364Z</time></trkpt><trkpt lat="43.3856573" lon="11.5694751"><ele>267.0</ele><time>2026-04-22T07:36:58.354Z</time></trkpt><trkpt lat="43.3855525" lon="11.5693284"><ele>268.0</ele><time>2026-04-22T07:36:59.365Z</time></trkpt><trkpt lat="43.3854427" lon="11.5691799"><ele>269.0</ele><time>2026-04-22T07:37:00.351Z</time></trkpt><trkpt lat="43.3853297" lon="11.5690295"><ele>269.0</ele><time>2026-04-22T07:37:01.357Z</time></trkpt><trkpt lat="43.3852189" lon="11.5688792"><ele>269.0</ele><time>2026-04-22T07:37:02.348Z</time></trkpt><trkpt lat="43.3851086" lon="11.5687266"><ele>269.0</ele><time>2026-04-22T07:37:03.345Z</time></trkpt><trkpt lat="43.384996" lon="11.5685733"><ele>269.0</ele><time>2026-04-22T07:37:04.345Z</time></trkpt><trkpt lat="43.3848824" lon="11.5684216"><ele>269.0</ele><time>2026-04-22T07:37:05.362Z</time></trkpt><trkpt lat="43.3847687" lon="11.5682692"><ele>269.0</ele><time>2026-04-22T07:37:06.34Z</time></trkpt><trkpt lat="43.3846534" lon="11.5681149"><ele>267.6666666666667</ele><time>2026-04-22T07:37:07.359Z</time></trkpt><trkpt lat="43.3845367" lon="11.5679578"><ele>266.3333333333333</ele><time>2026-04-22T07:37:08.342Z</time></trkpt><trkpt lat="43.3844188" lon="11.5677982"><ele>265.0</ele><time>2026-04-22T07:37:09.339Z</time></trkpt><trkpt lat="43.3842996" lon="11.5676342"><ele>265.0</ele><time>2026-04-22T07:37:10.342Z</time></trkpt><trkpt lat="43.3841792" lon="11.5674728"><ele>265.0</ele><time>2026-04-22T07:37:11.371Z</time></trkpt><trkpt lat="43.3840602" lon="11.5673116"><ele>265.0</ele><time>2026-04-22T07:37:12.341Z</time></trkpt><trkpt lat="43.3839431" lon="11.5671508"><ele>264.66666666666663</ele><time>2026-04-22T07:37:13.349Z</time></trkpt><trkpt lat="43.3838245" lon="11.5669925"><ele>264.3333333333333</ele><time>2026-04-22T07:37:14.325Z</time></trkpt><trkpt lat="43.3837083" lon="11.5668309"><ele>264.0</ele><time>2026-04-22T07:37:15.356Z</time></trkpt><trkpt lat="43.3835914" lon="11.5666706"><ele>264.0</ele><time>2026-04-22T07:37:16.335Z</time></trkpt><trkpt lat="43.3834761" lon="11.5665142"><ele>264.0</ele><time>2026-04-22T07:37:17.368Z</time></trkpt><trkpt lat="43.3833605" lon="11.5663555"><ele>264.0</ele><time>2026-04-22T07:37:18.364Z</time></trkpt><trkpt lat="43.3832461" lon="11.5662029"><ele>264.0</ele><time>2026-04-22T07:37:19.355Z</time></trkpt><trkpt lat="43.383133" lon="11.566047"><ele>264.0</ele><time>2026-04-22T07:37:20.361Z</time></trkpt><trkpt lat="43.3830215" lon="11.5658907"><ele>264.0</ele><time>2026-04-22T07:37:21.353Z</time></trkpt><trkpt lat="43.3829078" lon="11.5657377"><ele>263.6666666666667</ele><time>2026-04-22T07:37:22.357Z</time></trkpt><trkpt lat="43.3827912" lon="11.5655823"><ele>263.33333333333337</ele><time>2026-04-22T07:37:23.357Z</time></trkpt><trkpt lat="43.3826788" lon="11.5654264"><ele>263.0</ele><time>2026-04-22T07:37:24.346Z</time></trkpt><trkpt lat="43.3825676" lon="11.5652749"><ele>263.6666666666667</ele><time>2026-04-22T07:37:25.333Z</time></trkpt><trkpt lat="43.3824516" lon="11.5651371"><ele>264.3333333333333</ele><time>2026-04-22T07:37:26.333Z</time></trkpt><trkpt lat="43.3823292" lon="11.5650116"><ele>265.0</ele><time>2026-04-22T07:37:27.371Z</time></trkpt><trkpt lat="43.3822023" lon="11.5649063"><ele>265.0</ele><time>2026-04-22T07:37:28.355Z</time></trkpt><trkpt lat="43.3820726" lon="11.564825"><ele>265.0</ele><time>2026-04-22T07:37:29.354Z</time></trkpt><trkpt lat="43.3819364" lon="11.5647667"><ele>265.0</ele><time>2026-04-22T07:37:30.368Z</time></trkpt><trkpt lat="43.381799" lon="11.5647436"><ele>265.0</ele><time>2026-04-22T07:37:31.366Z</time></trkpt><trkpt lat="43.381655" lon="11.5647504"><ele>265.0</ele><time>2026-04-22T07:37:32.366Z</time></trkpt><trkpt lat="43.3815053" lon="11.5647865"><ele>265.0</ele><time>2026-04-22T07:37:33.359Z</time></trkpt><trkpt lat="43.3813405" lon="11.5648414"><ele>265.0</ele><time>2026-04-22T07:37:34.37Z</time></trkpt><trkpt lat="43.3811442" lon="11.5649042"><ele>265.3333333333333</ele><time>2026-04-22T07:37:35.364Z</time></trkpt><trkpt lat="43.3809249" lon="11.5649745"><ele>265.6666666666667</ele><time>2026-04-22T07:37:36.376Z</time></trkpt><trkpt lat="43.3807088" lon="11.5650488"><ele>266.0</ele><time>2026-04-22T07:37:37.37Z</time></trkpt><trkpt lat="43.3805114" lon="11.5651128"><ele>266.6666666666667</ele><time>2026-04-22T07:37:38.355Z</time></trkpt><trkpt lat="43.3803224" lon="11.5651742"><ele>267.3333333333333</ele><time>2026-04-22T07:37:39.351Z</time></trkpt><trkpt lat="43.3801434" lon="11.5652348"><ele>268.0</ele><time>2026-04-22T07:37:40.379Z</time></trkpt><trkpt lat="43.3799721" lon="11.5652936"><ele>268.0</ele><time>2026-04-22T07:37:41.368Z</time></trkpt><trkpt lat="43.3798078" lon="11.5653481"><ele>268.0</ele><time>2026-04-22T07:37:42.364Z</time></trkpt><trkpt lat="43.3796513" lon="11.5654005"><ele>268.0</ele><time>2026-04-22T07:37:43.364Z</time></trkpt><trkpt lat="43.3794975" lon="11.565448"><ele>268.0</ele><time>2026-04-22T07:37:44.341Z</time></trkpt><trkpt lat="43.3793487" lon="11.565496"><ele>268.0</ele><time>2026-04-22T07:37:45.351Z</time></trkpt><trkpt lat="43.3792056" lon="11.5655446"><ele>268.0</ele><time>2026-04-22T07:37:46.364Z</time></trkpt><trkpt lat="43.379065" lon="11.5655932"><ele>268.0</ele><time>2026-04-22T07:37:47.334Z</time></trkpt><trkpt lat="43.3789245" lon="11.5656407"><ele>268.75</ele><time>2026-04-22T07:37:48.36Z</time></trkpt><trkpt lat="43.3787863" lon="11.5656864"><ele>269.5</ele><time>2026-04-22T07:37:49.353Z</time></trkpt><trkpt lat="43.3786541" lon="11.5657299"><ele>270.25</ele><time>2026-04-22T07:37:50.354Z</time></trkpt><trkpt lat="43.3785283" lon="11.5657701"><ele>271.0</ele><time>2026-04-22T07:37:51.364Z</time></trkpt><trkpt lat="43.378409" lon="11.5658113"><ele>271.0</ele><time>2026-04-22T07:37:52.36Z</time></trkpt><trkpt lat="43.3782906" lon="11.5658482"><ele>271.0</ele><time>2026-04-22T07:37:53.367Z</time></trkpt><trkpt lat="43.3781824" lon="11.5658813"><ele>271.0</ele><time>2026-04-22T07:37:54.369Z</time></trkpt><trkpt lat="43.3780818" lon="11.5659119"><ele>271.0</ele><time>2026-04-22T07:37:55.362Z</time></trkpt><trkpt lat="43.377987" lon="11.5659438"><ele>271.0</ele><time>2026-04-22T07:37:56.351Z</time></trkpt><trkpt lat="43.3778861" lon="11.5659745"><ele>271.0</ele><time>2026-04-22T07:37:57.367Z</time></trkpt><trkpt lat="43.3777767" lon="11.566011"><ele>271.0</ele><time>2026-04-22T07:37:58.363Z</time></trkpt><trkpt lat="43.3776611" lon="11.5660438"><ele>271.0</ele><time>2026-04-22T07:37:59.352Z</time></trkpt><trkpt lat="43.37754" lon="11.5660692"><ele>271.0</ele><time>2026-04-22T07:38:00.347Z</time></trkpt><trkpt lat="43.3774149" lon="11.5660833"><ele>271.0</ele><time>2026-04-22T07:38:01.361Z</time></trkpt><trkpt lat="43.3772868" lon="11.566084"><ele>271.0</ele><time>2026-04-22T07:38:02.356Z</time></trkpt><trkpt lat="43.3771571" lon="11.5660664"><ele>271.0</ele><time>2026-04-22T07:38:03.372Z</time></trkpt><trkpt lat="43.3770291" lon="11.56603"><ele>271.0</ele><time>2026-04-22T07:38:04.341Z</time></trkpt><trkpt lat="43.3768979" lon="11.5659706"><ele>271.75</ele><time>2026-04-22T07:38:05.362Z</time></trkpt><trkpt lat="43.3767691" lon="11.5658966"><ele>272.5</ele><time>2026-04-22T07:38:06.359Z</time></trkpt><trkpt lat="43.3766494" lon="11.5658146"><ele>273.25</ele><time>2026-04-22T07:38:07.35Z</time></trkpt><trkpt lat="43.3765399" lon="11.5657336"><ele>274.0</ele><time>2026-04-22T07:38:08.365Z</time></trkpt><trkpt lat="43.3764382" lon="11.5656557"><ele>274.0</ele><time>2026-04-22T07:38:09.337Z</time></trkpt><trkpt lat="43.3763419" lon="11.5655805"><ele>274.0</ele><time>2026-04-22T07:38:10.37Z</time></trkpt><trkpt lat="43.3762498" lon="11.5655117"><ele>274.0</ele><time>2026-04-22T07:38:11.355Z</time></trkpt><trkpt lat="43.3761635" lon="11.5654416"><ele>274.0</ele><time>2026-04-22T07:38:12.343Z</time></trkpt><trkpt lat="43.3760801" lon="11.5653818"><ele>274.0</ele><time>2026-04-22T07:38:13.361Z</time></trkpt><trkpt lat="43.3759967" lon="11.56533"><ele>274.0</ele><time>2026-04-22T07:38:14.368Z</time></trkpt><trkpt lat="43.375918" lon="11.5652787"><ele>274.0</ele><time>2026-04-22T07:38:15.349Z</time></trkpt><trkpt lat="43.3758408" lon="11.5652227"><ele>274.0</ele><time>2026-04-22T07:38:16.336Z</time></trkpt><trkpt lat="43.3757707" lon="11.5651648"><ele>274.0</ele><time>2026-04-22T07:38:17.346Z</time></trkpt><trkpt lat="43.3756979" lon="11.5651051"><ele>274.0</ele><time>2026-04-22T07:38:18.332Z</time></trkpt><trkpt lat="43.3756363" lon="11.5650511"><ele>274.0</ele><time>2026-04-22T07:38:19.342Z</time></trkpt><trkpt lat="43.3755732" lon="11.5650053"><ele>273.16666666666663</ele><time>2026-04-22T07:38:20.343Z</time></trkpt><trkpt lat="43.3755135" lon="11.5649585"><ele>272.3333333333333</ele><time>2026-04-22T07:38:21.356Z</time></trkpt><trkpt lat="43.3754572" lon="11.5649126"><ele>271.5</ele><time>2026-04-22T07:38:22.349Z</time></trkpt><trkpt lat="43.3753474" lon="11.5648397"><ele>270.6666666666667</ele><time>2026-04-22T07:38:24.353Z</time></trkpt><trkpt lat="43.3752669" lon="11.5647786"><ele>269.83333333333337</ele><time>2026-04-22T07:38:26.348Z</time></trkpt><trkpt lat="43.3752086" lon="11.5647086"><ele>269.0</ele><time>2026-04-22T07:38:29.356Z</time></trkpt><trkpt lat="43.3751226" lon="11.5646838"><ele>269.0</ele><time>2026-04-22T07:38:51.291Z</time></trkpt><trkpt lat="43.3749932" lon="11.5646419"><ele>269.0</ele><time>2026-04-22T07:38:53.315Z</time></trkpt><trkpt lat="43.3749223" lon="11.5646435"><ele>269.0</ele><time>2026-04-22T07:38:54.282Z</time></trkpt><trkpt lat="43.3748382" lon="11.5646402"><ele>269.0</ele><time>2026-04-22T07:38:55.313Z</time></trkpt><trkpt lat="43.3747455" lon="11.5646406"><ele>269.0</ele><time>2026-04-22T07:38:56.309Z</time></trkpt><trkpt lat="43.3746381" lon="11.5646468"><ele>270.2</ele><time>2026-04-22T07:38:57.332Z</time></trkpt><trkpt lat="43.3745335" lon="11.5646587"><ele>271.4</ele><time>2026-04-22T07:38:58.318Z</time></trkpt><trkpt lat="43.374419" lon="11.564673"><ele>272.6</ele><time>2026-04-22T07:38:59.313Z</time></trkpt><trkpt lat="43.3743081" lon="11.5646843"><ele>273.8</ele><time>2026-04-22T07:39:00.308Z</time></trkpt><trkpt lat="43.3741972" lon="11.5647001"><ele>275.0</ele><time>2026-04-22T07:39:01.309Z</time></trkpt><trkpt lat="43.3740873" lon="11.564716"><ele>275.0</ele><time>2026-04-22T07:39:02.304Z</time></trkpt><trkpt lat="43.3739724" lon="11.5647286"><ele>275.0</ele><time>2026-04-22T07:39:03.317Z</time></trkpt><trkpt lat="43.3738499" lon="11.5647331"><ele>275.0</ele><time>2026-04-22T07:39:04.315Z</time></trkpt><trkpt lat="43.3737182" lon="11.5647381"><ele>275.0</ele><time>2026-04-22T07:39:05.312Z</time></trkpt><trkpt lat="43.3735825" lon="11.5647523"><ele>276.6666666666667</ele><time>2026-04-22T07:39:06.313Z</time></trkpt><trkpt lat="43.3734318" lon="11.5647695"><ele>278.3333333333333</ele><time>2026-04-22T07:39:07.314Z</time></trkpt><trkpt lat="43.3732716" lon="11.5647966"><ele>280.0</ele><time>2026-04-22T07:39:08.29Z</time></trkpt><trkpt lat="43.3731055" lon="11.5648239"><ele>280.0</ele><time>2026-04-22T07:39:09.332Z</time></trkpt><trkpt lat="43.3729392" lon="11.5648504"><ele>280.0</ele><time>2026-04-22T07:39:10.311Z</time></trkpt><trkpt lat="43.372769" lon="11.5648802"><ele>280.0</ele><time>2026-04-22T07:39:11.308Z</time></trkpt><trkpt lat="43.372598" lon="11.5649047"><ele>280.0</ele><time>2026-04-22T07:39:12.309Z</time></trkpt><trkpt lat="43.3724344" lon="11.5649296"><ele>280.0</ele><time>2026-04-22T07:39:13.309Z</time></trkpt><trkpt lat="43.3722625" lon="11.564948"><ele>280.0</ele><time>2026-04-22T07:39:14.316Z</time></trkpt><trkpt lat="43.3720877" lon="11.5649716"><ele>280.66666666666663</ele><time>2026-04-22T07:39:15.312Z</time></trkpt><trkpt lat="43.3719151" lon="11.5649948"><ele>281.3333333333333</ele><time>2026-04-22T07:39:16.283Z</time></trkpt><trkpt lat="43.3717379" lon="11.565017"><ele>282.0</ele><time>2026-04-22T07:39:17.282Z</time></trkpt><trkpt lat="43.3715543" lon="11.5650502"><ele>282.0</ele><time>2026-04-22T07:39:18.307Z</time></trkpt><trkpt lat="43.3713844" lon="11.5650745"><ele>282.0</ele><time>2026-04-22T07:39:19.319Z</time></trkpt><trkpt lat="43.3712108" lon="11.5650971"><ele>282.0</ele><time>2026-04-22T07:39:20.277Z</time></trkpt><trkpt lat="43.371035" lon="11.5651218"><ele>283.6666666666667</ele><time>2026-04-22T07:39:21.324Z</time></trkpt><trkpt lat="43.3708592" lon="11.5651415"><ele>285.33333333333337</ele><time>2026-04-22T07:39:22.303Z</time></trkpt><trkpt lat="43.3706889" lon="11.5651644"><ele>287.0</ele><time>2026-04-22T07:39:23.316Z</time></trkpt><trkpt lat="43.3705222" lon="11.5651953"><ele>287.6666666666667</ele><time>2026-04-22T07:39:24.308Z</time></trkpt><trkpt lat="43.3703564" lon="11.5652202"><ele>288.3333333333333</ele><time>2026-04-22T07:39:25.324Z</time></trkpt><trkpt lat="43.370194" lon="11.5652507"><ele>289.0</ele><time>2026-04-22T07:39:26.314Z</time></trkpt><trkpt lat="43.3700236" lon="11.5652722"><ele>289.0</ele><time>2026-04-22T07:39:27.324Z</time></trkpt><trkpt lat="43.3698594" lon="11.5652914"><ele>289.0</ele><time>2026-04-22T07:39:28.31Z</time></trkpt><trkpt lat="43.3696931" lon="11.5653141"><ele>289.0</ele><time>2026-04-22T07:39:29.316Z</time></trkpt><trkpt lat="43.3695186" lon="11.5653363"><ele>288.0</ele><time>2026-04-22T07:39:30.313Z</time></trkpt><trkpt lat="43.369348" lon="11.565363"><ele>287.0</ele><time>2026-04-22T07:39:31.32Z</time></trkpt><trkpt lat="43.3691744" lon="11.5653924"><ele>286.0</ele><time>2026-04-22T07:39:32.326Z</time></trkpt><trkpt lat="43.369002" lon="11.5654218"><ele>285.3333333333333</ele><time>2026-04-22T07:39:33.317Z</time></trkpt><trkpt lat="43.3688247" lon="11.5654466"><ele>284.6666666666667</ele><time>2026-04-22T07:39:34.333Z</time></trkpt><trkpt lat="43.3686483" lon="11.5654739"><ele>284.0</ele><time>2026-04-22T07:39:35.327Z</time></trkpt><trkpt lat="43.3684709" lon="11.565501"><ele>284.0</ele><time>2026-04-22T07:39:36.312Z</time></trkpt><trkpt lat="43.3682927" lon="11.5655261"><ele>284.0</ele><time>2026-04-22T07:39:37.319Z</time></trkpt><trkpt lat="43.3681116" lon="11.5655503"><ele>284.0</ele><time>2026-04-22T07:39:38.329Z</time></trkpt><trkpt lat="43.3679303" lon="11.5655814"><ele>284.6666666666667</ele><time>2026-04-22T07:39:39.324Z</time></trkpt><trkpt lat="43.3677526" lon="11.5656106"><ele>285.3333333333333</ele><time>2026-04-22T07:39:40.312Z</time></trkpt><trkpt lat="43.3675794" lon="11.5656369"><ele>286.0</ele><time>2026-04-22T07:39:41.312Z</time></trkpt><trkpt lat="43.3673957" lon="11.5656638"><ele>286.0</ele><time>2026-04-22T07:39:42.33Z</time></trkpt><trkpt lat="43.3672166" lon="11.5656828"><ele>286.0</ele><time>2026-04-22T07:39:43.316Z</time></trkpt><trkpt lat="43.3670375" lon="11.5657053"><ele>286.0</ele><time>2026-04-22T07:39:44.32Z</time></trkpt><trkpt lat="43.3668606" lon="11.5657302"><ele>286.66666666666663</ele><time>2026-04-22T07:39:45.295Z</time></trkpt><trkpt lat="43.3666893" lon="11.5657587"><ele>287.3333333333333</ele><time>2026-04-22T07:39:46.278Z</time></trkpt><trkpt lat="43.3665083" lon="11.5657861"><ele>288.0</ele><time>2026-04-22T07:39:47.307Z</time></trkpt><trkpt lat="43.3663348" lon="11.565812"><ele>288.6666666666667</ele><time>2026-04-22T07:39:48.304Z</time></trkpt><trkpt lat="43.36615" lon="11.565838"><ele>289.33333333333337</ele><time>2026-04-22T07:39:49.273Z</time></trkpt><trkpt lat="43.3659769" lon="11.5658677"><ele>290.0</ele><time>2026-04-22T07:39:50.277Z</time></trkpt><trkpt lat="43.3657975" lon="11.5658926"><ele>290.0</ele><time>2026-04-22T07:39:51.304Z</time></trkpt><trkpt lat="43.3656162" lon="11.5659198"><ele>290.0</ele><time>2026-04-22T07:39:52.304Z</time></trkpt><trkpt lat="43.3654333" lon="11.5659458"><ele>290.0</ele><time>2026-04-22T07:39:53.299Z</time></trkpt><trkpt lat="43.3652562" lon="11.5659713"><ele>290.0</ele><time>2026-04-22T07:39:54.314Z</time></trkpt><trkpt lat="43.3650833" lon="11.565996"><ele>290.0</ele><time>2026-04-22T07:39:55.299Z</time></trkpt><trkpt lat="43.3649103" lon="11.5660205"><ele>290.0</ele><time>2026-04-22T07:39:56.295Z</time></trkpt><trkpt lat="43.3647355" lon="11.5660465"><ele>290.0</ele><time>2026-04-22T07:39:57.322Z</time></trkpt><trkpt lat="43.3645664" lon="11.5660737"><ele>290.0</ele><time>2026-04-22T07:39:58.305Z</time></trkpt><trkpt lat="43.3643946" lon="11.5660988"><ele>290.0</ele><time>2026-04-22T07:39:59.309Z</time></trkpt><trkpt lat="43.3642277" lon="11.5661293"><ele>290.0</ele><time>2026-04-22T07:40:00.289Z</time></trkpt><trkpt lat="43.3640626" lon="11.5661458"><ele>290.0</ele><time>2026-04-22T07:40:01.283Z</time></trkpt><trkpt lat="43.3638957" lon="11.566143"><ele>290.0</ele><time>2026-04-22T07:40:02.305Z</time></trkpt><trkpt lat="43.3637338" lon="11.5661314"><ele>290.0</ele><time>2026-04-22T07:40:03.318Z</time></trkpt><trkpt lat="43.3635619" lon="11.5660974"><ele>290.0</ele><time>2026-04-22T07:40:04.288Z</time></trkpt><trkpt lat="43.363385" lon="11.5660756"><ele>290.0</ele><time>2026-04-22T07:40:05.295Z</time></trkpt><trkpt lat="43.363213" lon="11.5660468"><ele>290.0</ele><time>2026-04-22T07:40:06.302Z</time></trkpt><trkpt lat="43.363042" lon="11.566019"><ele>290.0</ele><time>2026-04-22T07:40:07.306Z</time></trkpt><trkpt lat="43.362868" lon="11.5659873"><ele>290.0</ele><time>2026-04-22T07:40:08.29Z</time></trkpt><trkpt lat="43.362701" lon="11.5659713"><ele>289.6666666666667</ele><time>2026-04-22T07:40:09.284Z</time></trkpt><trkpt lat="43.362538" lon="11.5659587"><ele>289.3333333333333</ele><time>2026-04-22T07:40:10.305Z</time></trkpt><trkpt lat="43.3623706" lon="11.5659756"><ele>289.0</ele><time>2026-04-22T07:40:11.297Z</time></trkpt><trkpt lat="43.3622021" lon="11.5660161"><ele>288.3333333333333</ele><time>2026-04-22T07:40:12.309Z</time></trkpt><trkpt lat="43.3620351" lon="11.5660727"><ele>287.6666666666667</ele><time>2026-04-22T07:40:13.279Z</time></trkpt><trkpt lat="43.361869" lon="11.5661327"><ele>287.0</ele><time>2026-04-22T07:40:14.283Z</time></trkpt><trkpt lat="43.3617043" lon="11.5661847"><ele>284.0</ele><time>2026-04-22T07:40:15.303Z</time></trkpt><trkpt lat="43.3615308" lon="11.5662303"><ele>281.0</ele><time>2026-04-22T07:40:16.308Z</time></trkpt><trkpt lat="43.3613588" lon="11.5662744"><ele>278.0</ele><time>2026-04-22T07:40:17.303Z</time></trkpt><trkpt lat="43.3611982" lon="11.5663351"><ele>276.33333333333337</ele><time>2026-04-22T07:40:18.285Z</time></trkpt><trkpt lat="43.361028" lon="11.5663892"><ele>274.6666666666667</ele><time>2026-04-22T07:40:19.305Z</time></trkpt><trkpt lat="43.3608598" lon="11.566444"><ele>273.0</ele><time>2026-04-22T07:40:20.301Z</time></trkpt><trkpt lat="43.3606819" lon="11.5664948"><ele>275.0</ele><time>2026-04-22T07:40:21.287Z</time></trkpt><trkpt lat="43.3605159" lon="11.5665554"><ele>277.0</ele><time>2026-04-22T07:40:22.298Z</time></trkpt><trkpt lat="43.3603443" lon="11.566613"><ele>279.0</ele><time>2026-04-22T07:40:23.302Z</time></trkpt><trkpt lat="43.3601753" lon="11.566673"><ele>279.0</ele><time>2026-04-22T07:40:24.309Z</time></trkpt><trkpt lat="43.3600124" lon="11.5667272"><ele>279.0</ele><time>2026-04-22T07:40:25.305Z</time></trkpt><trkpt lat="43.3598454" lon="11.5667883"><ele>279.0</ele><time>2026-04-22T07:40:26.309Z</time></trkpt><trkpt lat="43.3596773" lon="11.5668426"><ele>281.3333333333333</ele><time>2026-04-22T07:40:27.287Z</time></trkpt><trkpt lat="43.3595139" lon="11.5668948"><ele>283.66666666666663</ele><time>2026-04-22T07:40:28.307Z</time></trkpt><trkpt lat="43.359342" lon="11.5669478"><ele>286.0</ele><time>2026-04-22T07:40:29.307Z</time></trkpt><trkpt lat="43.3591804" lon="11.5669954"><ele>283.66666666666663</ele><time>2026-04-22T07:40:30.298Z</time></trkpt><trkpt lat="43.3590117" lon="11.5670431"><ele>281.3333333333333</ele><time>2026-04-22T07:40:31.31Z</time></trkpt><trkpt lat="43.3588514" lon="11.5670905"><ele>279.0</ele><time>2026-04-22T07:40:32.287Z</time></trkpt><trkpt lat="43.3586892" lon="11.5671462"><ele>279.0</ele><time>2026-04-22T07:40:33.271Z</time></trkpt><trkpt lat="43.3585241" lon="11.5672045"><ele>279.0</ele><time>2026-04-22T07:40:34.306Z</time></trkpt><trkpt lat="43.3583589" lon="11.5672889"><ele>279.0</ele><time>2026-04-22T07:40:35.312Z</time></trkpt><trkpt lat="43.358199" lon="11.5673675"><ele>279.0</ele><time>2026-04-22T07:40:36.29Z</time></trkpt><trkpt lat="43.3580406" lon="11.5674541"><ele>279.0</ele><time>2026-04-22T07:40:37.278Z</time></trkpt><trkpt lat="43.3578798" lon="11.5675535"><ele>279.0</ele><time>2026-04-22T07:40:38.3Z</time></trkpt><trkpt lat="43.3577162" lon="11.5676406"><ele>279.6666666666667</ele><time>2026-04-22T07:40:39.308Z</time></trkpt><trkpt lat="43.3575586" lon="11.5677281"><ele>280.33333333333337</ele><time>2026-04-22T07:40:40.305Z</time></trkpt><trkpt lat="43.3573962" lon="11.5678195"><ele>281.0</ele><time>2026-04-22T07:40:41.295Z</time></trkpt><trkpt lat="43.3572321" lon="11.5679128"><ele>278.0</ele><time>2026-04-22T07:40:42.292Z</time></trkpt><trkpt lat="43.357079" lon="11.5680212"><ele>275.0</ele><time>2026-04-22T07:40:43.301Z</time></trkpt><trkpt lat="43.3569281" lon="11.5681124"><ele>272.0</ele><time>2026-04-22T07:40:44.285Z</time></trkpt><trkpt lat="43.3567869" lon="11.5682105"><ele>272.0</ele><time>2026-04-22T07:40:45.301Z</time></trkpt><trkpt lat="43.3566282" lon="11.568282"><ele>272.0</ele><time>2026-04-22T07:40:46.294Z</time></trkpt><trkpt lat="43.3564589" lon="11.568333"><ele>272.0</ele><time>2026-04-22T07:40:47.287Z</time></trkpt><trkpt lat="43.3563057" lon="11.5683651"><ele>271.6666666666667</ele><time>2026-04-22T07:40:48.296Z</time></trkpt><trkpt lat="43.356142" lon="11.5683849"><ele>271.3333333333333</ele><time>2026-04-22T07:40:49.299Z</time></trkpt><trkpt lat="43.3559714" lon="11.5684048"><ele>271.0</ele><time>2026-04-22T07:40:50.295Z</time></trkpt><trkpt lat="43.3558031" lon="11.5684285"><ele>271.0</ele><time>2026-04-22T07:40:51.297Z</time></trkpt><trkpt lat="43.3556358" lon="11.5684312"><ele>271.0</ele><time>2026-04-22T07:40:52.301Z</time></trkpt><trkpt lat="43.3554708" lon="11.5683843"><ele>271.0</ele><time>2026-04-22T07:40:53.314Z</time></trkpt><trkpt lat="43.3553055" lon="11.5683145"><ele>270.3333333333333</ele><time>2026-04-22T07:40:54.301Z</time></trkpt><trkpt lat="43.3551393" lon="11.5682398"><ele>269.6666666666667</ele><time>2026-04-22T07:40:55.283Z</time></trkpt><trkpt lat="43.3549785" lon="11.5681734"><ele>269.0</ele><time>2026-04-22T07:40:56.295Z</time></trkpt><trkpt lat="43.3548105" lon="11.5681086"><ele>267.6666666666667</ele><time>2026-04-22T07:40:57.296Z</time></trkpt><trkpt lat="43.3546456" lon="11.5680508"><ele>266.3333333333333</ele><time>2026-04-22T07:40:58.294Z</time></trkpt><trkpt lat="43.354487" lon="11.5679985"><ele>265.0</ele><time>2026-04-22T07:40:59.299Z</time></trkpt><trkpt lat="43.3543222" lon="11.5679395"><ele>265.0</ele><time>2026-04-22T07:41:00.295Z</time></trkpt><trkpt lat="43.3541606" lon="11.5678622"><ele>265.0</ele><time>2026-04-22T07:41:01.299Z</time></trkpt><trkpt lat="43.3540221" lon="11.5677786"><ele>265.0</ele><time>2026-04-22T07:41:02.302Z</time></trkpt><trkpt lat="43.35389" lon="11.567659"><ele>265.3333333333333</ele><time>2026-04-22T07:41:03.31Z</time></trkpt><trkpt lat="43.3537739" lon="11.5675176"><ele>265.6666666666667</ele><time>2026-04-22T07:41:04.305Z</time></trkpt><trkpt lat="43.3536576" lon="11.567358"><ele>266.0</ele><time>2026-04-22T07:41:05.304Z</time></trkpt><trkpt lat="43.3535343" lon="11.5671718"><ele>267.6666666666667</ele><time>2026-04-22T07:41:06.316Z</time></trkpt><trkpt lat="43.3534107" lon="11.5669835"><ele>269.3333333333333</ele><time>2026-04-22T07:41:07.3Z</time></trkpt><trkpt lat="43.3532945" lon="11.5668088"><ele>271.0</ele><time>2026-04-22T07:41:08.277Z</time></trkpt><trkpt lat="43.3531794" lon="11.5666258"><ele>271.0</ele><time>2026-04-22T07:41:09.285Z</time></trkpt><trkpt lat="43.3530528" lon="11.5664349"><ele>271.0</ele><time>2026-04-22T07:41:10.303Z</time></trkpt><trkpt lat="43.3529278" lon="11.5662418"><ele>271.0</ele><time>2026-04-22T07:41:11.299Z</time></trkpt><trkpt lat="43.3528006" lon="11.5660574"><ele>268.66666666666663</ele><time>2026-04-22T07:41:12.283Z</time></trkpt><trkpt lat="43.3526812" lon="11.5658658"><ele>266.3333333333333</ele><time>2026-04-22T07:41:13.298Z</time></trkpt><trkpt lat="43.3525623" lon="11.5656895"><ele>264.0</ele><time>2026-04-22T07:41:14.3Z</time></trkpt><trkpt lat="43.3524576" lon="11.5655092"><ele>263.6666666666667</ele><time>2026-04-22T07:41:15.29Z</time></trkpt><trkpt lat="43.3523551" lon="11.5653397"><ele>263.33333333333337</ele><time>2026-04-22T07:41:16.308Z</time></trkpt><trkpt lat="43.3522326" lon="11.5651993"><ele>263.0</ele><time>2026-04-22T07:41:17.312Z</time></trkpt><trkpt lat="43.3521022" lon="11.5650738"><ele>263.0</ele><time>2026-04-22T07:41:18.299Z</time></trkpt><trkpt lat="43.351959" lon="11.5649638"><ele>263.0</ele><time>2026-04-22T07:41:19.289Z</time></trkpt><trkpt lat="43.3518137" lon="11.5648831"><ele>263.0</ele><time>2026-04-22T07:41:20.293Z</time></trkpt><trkpt lat="43.351655" lon="11.5648287"><ele>263.0</ele><time>2026-04-22T07:41:21.298Z</time></trkpt><trkpt lat="43.3514949" lon="11.5648115"><ele>263.0</ele><time>2026-04-22T07:41:22.295Z</time></trkpt><trkpt lat="43.3513286" lon="11.5648131"><ele>263.0</ele><time>2026-04-22T07:41:23.31Z</time></trkpt><trkpt lat="43.3511577" lon="11.5648229"><ele>262.6666666666667</ele><time>2026-04-22T07:41:24.3Z</time></trkpt><trkpt lat="43.3509777" lon="11.5648356"><ele>262.3333333333333</ele><time>2026-04-22T07:41:25.321Z</time></trkpt><trkpt lat="43.3508005" lon="11.5648436"><ele>262.0</ele><time>2026-04-22T07:41:26.307Z</time></trkpt><trkpt lat="43.3506285" lon="11.5648316"><ele>261.66666666666663</ele><time>2026-04-22T07:41:27.296Z</time></trkpt><trkpt lat="43.3504473" lon="11.5648115"><ele>261.3333333333333</ele><time>2026-04-22T07:41:28.303Z</time></trkpt><trkpt lat="43.350268" lon="11.5647849"><ele>261.0</ele><time>2026-04-22T07:41:29.284Z</time></trkpt><trkpt lat="43.3500904" lon="11.5647462"><ele>261.0</ele><time>2026-04-22T07:41:30.293Z</time></trkpt><trkpt lat="43.3499135" lon="11.5646957"><ele>261.0</ele><time>2026-04-22T07:41:31.304Z</time></trkpt><trkpt lat="43.3497439" lon="11.5646427"><ele>261.0</ele><time>2026-04-22T07:41:32.296Z</time></trkpt><trkpt lat="43.3495901" lon="11.5645924"><ele>259.5</ele><time>2026-04-22T07:41:33.28Z</time></trkpt><trkpt lat="43.3494394" lon="11.5645284"><ele>258.0</ele><time>2026-04-22T07:41:34.303Z</time></trkpt><trkpt lat="43.3493186" lon="11.5644264"><ele>256.5</ele><time>2026-04-22T07:41:35.283Z</time></trkpt><trkpt lat="43.349221" lon="11.5642888"><ele>255.0</ele><time>2026-04-22T07:41:36.287Z</time></trkpt><trkpt lat="43.3491195" lon="11.5641314"><ele>255.0</ele><time>2026-04-22T07:41:37.294Z</time></trkpt><trkpt lat="43.3490159" lon="11.5639542"><ele>255.0</ele><time>2026-04-22T07:41:38.305Z</time></trkpt><trkpt lat="43.3489006" lon="11.5637572"><ele>255.0</ele><time>2026-04-22T07:41:39.318Z</time></trkpt><trkpt lat="43.3487803" lon="11.563593"><ele>253.0</ele><time>2026-04-22T07:41:40.313Z</time></trkpt><trkpt lat="43.3486484" lon="11.5634217"><ele>251.0</ele><time>2026-04-22T07:41:41.292Z</time></trkpt><trkpt lat="43.3484944" lon="11.5632962"><ele>249.0</ele><time>2026-04-22T07:41:42.296Z</time></trkpt><trkpt lat="43.3483268" lon="11.5631681"><ele>249.0</ele><time>2026-04-22T07:41:43.302Z</time></trkpt><trkpt lat="43.3481675" lon="11.5630582"><ele>249.0</ele><time>2026-04-22T07:41:44.285Z</time></trkpt><trkpt lat="43.3480123" lon="11.5629541"><ele>249.0</ele><time>2026-04-22T07:41:45.294Z</time></trkpt><trkpt lat="43.3478508" lon="11.5628408"><ele>247.66666666666669</ele><time>2026-04-22T07:41:46.294Z</time></trkpt><trkpt lat="43.3476858" lon="11.5627377"><ele>246.33333333333334</ele><time>2026-04-22T07:41:47.262Z</time></trkpt><trkpt lat="43.3475142" lon="11.5626427"><ele>245.0</ele><time>2026-04-22T07:41:48.294Z</time></trkpt><trkpt lat="43.3473462" lon="11.5625426"><ele>243.33333333333334</ele><time>2026-04-22T07:41:49.303Z</time></trkpt><trkpt lat="43.3471879" lon="11.5624325"><ele>241.66666666666669</ele><time>2026-04-22T07:41:50.281Z</time></trkpt><trkpt lat="43.3470291" lon="11.5623276"><ele>240.0</ele><time>2026-04-22T07:41:51.314Z</time></trkpt><trkpt lat="43.3468702" lon="11.5622181"><ele>240.0</ele><time>2026-04-22T07:41:52.322Z</time></trkpt><trkpt lat="43.3467097" lon="11.5621055"><ele>240.0</ele><time>2026-04-22T07:41:53.293Z</time></trkpt><trkpt lat="43.34654" lon="11.561994"><ele>240.0</ele><time>2026-04-22T07:41:54.3Z</time></trkpt><trkpt lat="43.3463759" lon="11.5618885"><ele>239.66666666666669</ele><time>2026-04-22T07:41:55.284Z</time></trkpt><trkpt lat="43.3462163" lon="11.5617813"><ele>239.33333333333334</ele><time>2026-04-22T07:41:56.301Z</time></trkpt><trkpt lat="43.3460542" lon="11.5616655"><ele>239.0</ele><time>2026-04-22T07:41:57.312Z</time></trkpt><trkpt lat="43.3458973" lon="11.5615604"><ele>239.0</ele><time>2026-04-22T07:41:58.298Z</time></trkpt><trkpt lat="43.3457343" lon="11.561449"><ele>239.0</ele><time>2026-04-22T07:41:59.299Z</time></trkpt><trkpt lat="43.3455646" lon="11.5613399"><ele>239.0</ele><time>2026-04-22T07:42:00.281Z</time></trkpt><trkpt lat="43.3453997" lon="11.5612346"><ele>238.0</ele><time>2026-04-22T07:42:01.296Z</time></trkpt><trkpt lat="43.3452359" lon="11.5611233"><ele>237.0</ele><time>2026-04-22T07:42:02.318Z</time></trkpt><trkpt lat="43.3450767" lon="11.5610157"><ele>236.0</ele><time>2026-04-22T07:42:03.311Z</time></trkpt><trkpt lat="43.3449141" lon="11.5609087"><ele>236.0</ele><time>2026-04-22T07:42:04.305Z</time></trkpt><trkpt lat="43.3447542" lon="11.5608057"><ele>236.0</ele><time>2026-04-22T07:42:05.302Z</time></trkpt><trkpt lat="43.3445948" lon="11.5606975"><ele>236.0</ele><time>2026-04-22T07:42:06.283Z</time></trkpt><trkpt lat="43.3444302" lon="11.56059"><ele>235.66666666666669</ele><time>2026-04-22T07:42:07.308Z</time></trkpt><trkpt lat="43.344273" lon="11.5604773"><ele>235.33333333333331</ele><time>2026-04-22T07:42:08.316Z</time></trkpt><trkpt lat="43.3441176" lon="11.5603701"><ele>235.0</ele><time>2026-04-22T07:42:09.328Z</time></trkpt><trkpt lat="43.3439565" lon="11.5602573"><ele>235.66666666666666</ele><time>2026-04-22T07:42:10.303Z</time></trkpt><trkpt lat="43.3437978" lon="11.5601543"><ele>236.33333333333331</ele><time>2026-04-22T07:42:11.276Z</time></trkpt><trkpt lat="43.3436467" lon="11.560061"><ele>237.0</ele><time>2026-04-22T07:42:12.31Z</time></trkpt><trkpt lat="43.3434895" lon="11.5599634"><ele>237.0</ele><time>2026-04-22T07:42:13.3Z</time></trkpt><trkpt lat="43.3433282" lon="11.5598578"><ele>237.0</ele><time>2026-04-22T07:42:14.301Z</time></trkpt><trkpt lat="43.3431738" lon="11.5597523"><ele>237.0</ele><time>2026-04-22T07:42:15.305Z</time></trkpt><trkpt lat="43.3430171" lon="11.5596489"><ele>235.66666666666669</ele><time>2026-04-22T07:42:16.278Z</time></trkpt><trkpt lat="43.3428612" lon="11.5595587"><ele>234.33333333333334</ele><time>2026-04-22T07:42:17.31Z</time></trkpt><trkpt lat="43.3427038" lon="11.5594598"><ele>233.0</ele><time>2026-04-22T07:42:18.305Z</time></trkpt><trkpt lat="43.3425436" lon="11.5593578"><ele>232.0</ele><time>2026-04-22T07:42:19.304Z</time></trkpt><trkpt lat="43.3423901" lon="11.5592574"><ele>231.0</ele><time>2026-04-22T07:42:20.299Z</time></trkpt><trkpt lat="43.3422406" lon="11.5591413"><ele>230.0</ele><time>2026-04-22T07:42:21.313Z</time></trkpt><trkpt lat="43.342087" lon="11.5590159"><ele>230.0</ele><time>2026-04-22T07:42:22.313Z</time></trkpt><trkpt lat="43.3419319" lon="11.5589"><ele>230.0</ele><time>2026-04-22T07:42:23.312Z</time></trkpt><trkpt lat="43.3417698" lon="11.5588006"><ele>230.0</ele><time>2026-04-22T07:42:24.289Z</time></trkpt><trkpt lat="43.3416084" lon="11.558688"><ele>230.0</ele><time>2026-04-22T07:42:25.293Z</time></trkpt><trkpt lat="43.3414493" lon="11.5585747"><ele>230.0</ele><time>2026-04-22T07:42:26.306Z</time></trkpt><trkpt lat="43.3412829" lon="11.5584705"><ele>230.0</ele><time>2026-04-22T07:42:27.319Z</time></trkpt><trkpt lat="43.3411205" lon="11.5583556"><ele>230.0</ele><time>2026-04-22T07:42:28.3Z</time></trkpt><trkpt lat="43.3409597" lon="11.5582566"><ele>230.0</ele><time>2026-04-22T07:42:29.308Z</time></trkpt><trkpt lat="43.3407915" lon="11.5581756"><ele>230.0</ele><time>2026-04-22T07:42:30.315Z</time></trkpt><trkpt lat="43.340622" lon="11.5580934"><ele>230.0</ele><time>2026-04-22T07:42:31.3Z</time></trkpt><trkpt lat="43.3404499" lon="11.5580288"><ele>230.0</ele><time>2026-04-22T07:42:32.298Z</time></trkpt><trkpt lat="43.3402709" lon="11.5579658"><ele>230.0</ele><time>2026-04-22T07:42:33.29Z</time></trkpt><trkpt lat="43.3400958" lon="11.5579044"><ele>229.66666666666669</ele><time>2026-04-22T07:42:34.306Z</time></trkpt><trkpt lat="43.3399261" lon="11.5578445"><ele>229.33333333333331</ele><time>2026-04-22T07:42:35.292Z</time></trkpt><trkpt lat="43.3397516" lon="11.557774"><ele>229.0</ele><time>2026-04-22T07:42:36.285Z</time></trkpt><trkpt lat="43.3395788" lon="11.5577124"><ele>229.0</ele><time>2026-04-22T07:42:37.303Z</time></trkpt><trkpt lat="43.3394035" lon="11.5576472"><ele>229.0</ele><time>2026-04-22T07:42:38.272Z</time></trkpt><trkpt lat="43.3392245" lon="11.5575848"><ele>229.0</ele><time>2026-04-22T07:42:39.276Z</time></trkpt><trkpt lat="43.3390515" lon="11.5575185"><ele>228.33333333333331</ele><time>2026-04-22T07:42:40.288Z</time></trkpt><trkpt lat="43.338875" lon="11.557461"><ele>227.66666666666669</ele><time>2026-04-22T07:42:41.298Z</time></trkpt><trkpt lat="43.3386989" lon="11.5573988"><ele>227.0</ele><time>2026-04-22T07:42:42.296Z</time></trkpt><trkpt lat="43.3385226" lon="11.5573372"><ele>227.0</ele><time>2026-04-22T07:42:43.292Z</time></trkpt><trkpt lat="43.3383498" lon="11.5572703"><ele>227.0</ele><time>2026-04-22T07:42:44.291Z</time></trkpt><trkpt lat="43.338174" lon="11.5571969"><ele>227.0</ele><time>2026-04-22T07:42:45.301Z</time></trkpt><trkpt lat="43.3379872" lon="11.5571272"><ele>226.66666666666669</ele><time>2026-04-22T07:42:46.289Z</time></trkpt><trkpt lat="43.3377951" lon="11.5570642"><ele>226.33333333333331</ele><time>2026-04-22T07:42:47.291Z</time></trkpt><trkpt lat="43.337614" lon="11.5570039"><ele>226.0</ele><time>2026-04-22T07:42:48.281Z</time></trkpt><trkpt lat="43.3374299" lon="11.5569347"><ele>226.0</ele><time>2026-04-22T07:42:49.292Z</time></trkpt><trkpt lat="43.3372529" lon="11.5568645"><ele>226.0</ele><time>2026-04-22T07:42:50.289Z</time></trkpt><trkpt lat="43.3370766" lon="11.5567811"><ele>226.0</ele><time>2026-04-22T07:42:51.299Z</time></trkpt><trkpt lat="43.3369056" lon="11.5566901"><ele>226.0</ele><time>2026-04-22T07:42:52.303Z</time></trkpt><trkpt lat="43.336737" lon="11.5565956"><ele>226.0</ele><time>2026-04-22T07:42:53.285Z</time></trkpt><trkpt lat="43.3365751" lon="11.5565119"><ele>226.0</ele><time>2026-04-22T07:42:54.284Z</time></trkpt><trkpt lat="43.3363958" lon="11.5564187"><ele>225.33333333333331</ele><time>2026-04-22T07:42:55.31Z</time></trkpt><trkpt lat="43.3362122" lon="11.556323"><ele>224.66666666666669</ele><time>2026-04-22T07:42:56.305Z</time></trkpt><trkpt lat="43.3360358" lon="11.5562269"><ele>224.0</ele><time>2026-04-22T07:42:57.31Z</time></trkpt><trkpt lat="43.3358523" lon="11.5561293"><ele>224.66666666666669</ele><time>2026-04-22T07:42:58.291Z</time></trkpt><trkpt lat="43.3356809" lon="11.5560321"><ele>225.33333333333331</ele><time>2026-04-22T07:42:59.284Z</time></trkpt><trkpt lat="43.335508" lon="11.5559496"><ele>226.0</ele><time>2026-04-22T07:43:00.299Z</time></trkpt><trkpt lat="43.3353267" lon="11.5558607"><ele>226.0</ele><time>2026-04-22T07:43:01.291Z</time></trkpt><trkpt lat="43.3351516" lon="11.5557697"><ele>226.0</ele><time>2026-04-22T07:43:02.301Z</time></trkpt><trkpt lat="43.3349771" lon="11.5556821"><ele>226.0</ele><time>2026-04-22T07:43:03.304Z</time></trkpt><trkpt lat="43.3348139" lon="11.555598"><ele>226.0</ele><time>2026-04-22T07:43:04.307Z</time></trkpt><trkpt lat="43.334641" lon="11.5555052"><ele>226.0</ele><time>2026-04-22T07:43:05.277Z</time></trkpt><trkpt lat="43.3344747" lon="11.5554139"><ele>226.0</ele><time>2026-04-22T07:43:06.306Z</time></trkpt><trkpt lat="43.3343042" lon="11.5553258"><ele>227.33333333333331</ele><time>2026-04-22T07:43:07.294Z</time></trkpt><trkpt lat="43.3341299" lon="11.5552346"><ele>228.66666666666669</ele><time>2026-04-22T07:43:08.3Z</time></trkpt><trkpt lat="43.3339651" lon="11.5551448"><ele>230.0</ele><time>2026-04-22T07:43:09.309Z</time></trkpt><trkpt lat="43.3337938" lon="11.5550638"><ele>230.0</ele><time>2026-04-22T07:43:10.302Z</time></trkpt><trkpt lat="43.3336315" lon="11.5549771"><ele>230.0</ele><time>2026-04-22T07:43:11.307Z</time></trkpt><trkpt lat="43.3334694" lon="11.5548736"><ele>230.0</ele><time>2026-04-22T07:43:12.301Z</time></trkpt><trkpt lat="43.3333032" lon="11.5547757"><ele>230.0</ele><time>2026-04-22T07:43:13.306Z</time></trkpt><trkpt lat="43.3331429" lon="11.5546713"><ele>230.0</ele><time>2026-04-22T07:43:14.301Z</time></trkpt><trkpt lat="43.3329804" lon="11.5545536"><ele>230.0</ele><time>2026-04-22T07:43:15.289Z</time></trkpt><trkpt lat="43.3328196" lon="11.5544299"><ele>229.0</ele><time>2026-04-22T07:43:16.307Z</time></trkpt><trkpt lat="43.3326588" lon="11.5543143"><ele>228.0</ele><time>2026-04-22T07:43:17.311Z</time></trkpt><trkpt lat="43.3324959" lon="11.5541925"><ele>227.0</ele><time>2026-04-22T07:43:18.298Z</time></trkpt><trkpt lat="43.3323346" lon="11.5540794"><ele>226.33333333333334</ele><time>2026-04-22T07:43:19.309Z</time></trkpt><trkpt lat="43.3321726" lon="11.553966"><ele>225.66666666666669</ele><time>2026-04-22T07:43:20.298Z</time></trkpt><trkpt lat="43.3320179" lon="11.553858"><ele>225.0</ele><time>2026-04-22T07:43:21.326Z</time></trkpt><trkpt lat="43.3318636" lon="11.5537505"><ele>225.0</ele><time>2026-04-22T07:43:22.3Z</time></trkpt><trkpt lat="43.3317158" lon="11.5536445"><ele>225.0</ele><time>2026-04-22T07:43:23.305Z</time></trkpt><trkpt lat="43.3315768" lon="11.5535347"><ele>225.0</ele><time>2026-04-22T07:43:24.3Z</time></trkpt><trkpt lat="43.3314386" lon="11.5534349"><ele>225.25</ele><time>2026-04-22T07:43:25.304Z</time></trkpt><trkpt lat="43.3313054" lon="11.5533389"><ele>225.5</ele><time>2026-04-22T07:43:26.303Z</time></trkpt><trkpt lat="43.331185" lon="11.5532506"><ele>225.75</ele><time>2026-04-22T07:43:27.277Z</time></trkpt><trkpt lat="43.3310716" lon="11.553168"><ele>226.0</ele><time>2026-04-22T07:43:28.305Z</time></trkpt><trkpt lat="43.3309582" lon="11.5530911"><ele>226.0</ele><time>2026-04-22T07:43:29.314Z</time></trkpt><trkpt lat="43.3308487" lon="11.5530176"><ele>226.0</ele><time>2026-04-22T07:43:30.308Z</time></trkpt><trkpt lat="43.3307392" lon="11.5529435"><ele>226.0</ele><time>2026-04-22T07:43:31.305Z</time></trkpt><trkpt lat="43.3306431" lon="11.552873"><ele>226.0</ele><time>2026-04-22T07:43:32.283Z</time></trkpt><trkpt lat="43.3305517" lon="11.5528112"><ele>225.83333333333331</ele><time>2026-04-22T07:43:33.314Z</time></trkpt><trkpt lat="43.3304855" lon="11.5527456"><ele>225.66666666666666</ele><time>2026-04-22T07:43:34.288Z</time></trkpt><trkpt lat="43.3304369" lon="11.5526746"><ele>225.5</ele><time>2026-04-22T07:43:35.292Z</time></trkpt><trkpt lat="43.3303942" lon="11.5526041"><ele>225.33333333333331</ele><time>2026-04-22T07:43:36.303Z</time></trkpt><trkpt lat="43.3303591" lon="11.5525043"><ele>225.16666666666666</ele><time>2026-04-22T07:43:37.273Z</time></trkpt><trkpt lat="43.3303199" lon="11.5523685"><ele>225.0</ele><time>2026-04-22T07:43:38.284Z</time></trkpt><trkpt lat="43.3302717" lon="11.5522364"><ele>225.0</ele><time>2026-04-22T07:43:39.304Z</time></trkpt><trkpt lat="43.3302162" lon="11.5520967"><ele>225.0</ele><time>2026-04-22T07:43:40.282Z</time></trkpt><trkpt lat="43.3301497" lon="11.5519631"><ele>225.0</ele><time>2026-04-22T07:43:41.313Z</time></trkpt><trkpt lat="43.3300751" lon="11.5518309"><ele>225.0</ele><time>2026-04-22T07:43:42.307Z</time></trkpt><trkpt lat="43.3299932" lon="11.5516958"><ele>225.0</ele><time>2026-04-22T07:43:43.305Z</time></trkpt><trkpt lat="43.3299025" lon="11.5515563"><ele>225.0</ele><time>2026-04-22T07:43:44.308Z</time></trkpt><trkpt lat="43.32981" lon="11.551424"><ele>225.0</ele><time>2026-04-22T07:43:45.306Z</time></trkpt><trkpt lat="43.3297167" lon="11.5512966"><ele>225.0</ele><time>2026-04-22T07:43:46.309Z</time></trkpt><trkpt lat="43.3296209" lon="11.5511692"><ele>225.0</ele><time>2026-04-22T07:43:47.296Z</time></trkpt><trkpt lat="43.329509" lon="11.5510495"><ele>225.0</ele><time>2026-04-22T07:43:48.307Z</time></trkpt><trkpt lat="43.3293916" lon="11.5509316"><ele>225.0</ele><time>2026-04-22T07:43:49.275Z</time></trkpt><trkpt lat="43.3292668" lon="11.5508232"><ele>225.0</ele><time>2026-04-22T07:43:50.292Z</time></trkpt><trkpt lat="43.3291453" lon="11.5507182"><ele>225.0</ele><time>2026-04-22T07:43:51.308Z</time></trkpt><trkpt lat="43.3290338" lon="11.5506009"><ele>225.0</ele><time>2026-04-22T07:43:52.304Z</time></trkpt><trkpt lat="43.3289213" lon="11.5504979"><ele>225.0</ele><time>2026-04-22T07:43:53.307Z</time></trkpt><trkpt lat="43.328814" lon="11.5503796"><ele>225.0</ele><time>2026-04-22T07:43:54.303Z</time></trkpt><trkpt lat="43.3287211" lon="11.5502505"><ele>225.0</ele><time>2026-04-22T07:43:55.311Z</time></trkpt><trkpt lat="43.3286273" lon="11.5501211"><ele>225.0</ele><time>2026-04-22T07:43:56.305Z</time></trkpt><trkpt lat="43.3285397" lon="11.5499637"><ele>225.0</ele><time>2026-04-22T07:43:57.313Z</time></trkpt><trkpt lat="43.3284638" lon="11.5497994"><ele>225.0</ele><time>2026-04-22T07:43:58.304Z</time></trkpt><trkpt lat="43.3283988" lon="11.5496352"><ele>225.25</ele><time>2026-04-22T07:43:59.3Z</time></trkpt><trkpt lat="43.3283247" lon="11.5494858"><ele>225.5</ele><time>2026-04-22T07:44:00.308Z</time></trkpt><trkpt lat="43.3282335" lon="11.5493484"><ele>225.75</ele><time>2026-04-22T07:44:01.302Z</time></trkpt><trkpt lat="43.3281334" lon="11.5492098"><ele>226.0</ele><time>2026-04-22T07:44:02.304Z</time></trkpt><trkpt lat="43.3280303" lon="11.5490958"><ele>226.0</ele><time>2026-04-22T07:44:03.296Z</time></trkpt><trkpt lat="43.3279209" lon="11.5490163"><ele>226.0</ele><time>2026-04-22T07:44:04.31Z</time></trkpt><trkpt lat="43.3278166" lon="11.548992"><ele>226.0</ele><time>2026-04-22T07:44:05.294Z</time></trkpt><trkpt lat="43.327708" lon="11.5489901"><ele>226.0</ele><time>2026-04-22T07:44:06.305Z</time></trkpt><trkpt lat="43.3275889" lon="11.5490014"><ele>225.99999999999997</ele><time>2026-04-22T07:44:07.298Z</time></trkpt><trkpt lat="43.3274939" lon="11.5489868"><ele>226.0</ele><time>2026-04-22T07:44:08.301Z</time></trkpt><trkpt lat="43.3274154" lon="11.5489609"><ele>226.0</ele><time>2026-04-22T07:44:09.303Z</time></trkpt><trkpt lat="43.3273367" lon="11.5489009"><ele>226.0</ele><time>2026-04-22T07:44:10.292Z</time></trkpt><trkpt lat="43.3272684" lon="11.5488125"><ele>225.99999999999997</ele><time>2026-04-22T07:44:11.316Z</time></trkpt><trkpt lat="43.3272238" lon="11.5487076"><ele>226.0</ele><time>2026-04-22T07:44:12.29Z</time></trkpt><trkpt lat="43.3271792" lon="11.5485768"><ele>226.25</ele><time>2026-04-22T07:44:13.289Z</time></trkpt><trkpt lat="43.3271488" lon="11.5484369"><ele>226.5</ele><time>2026-04-22T07:44:14.289Z</time></trkpt><trkpt lat="43.3271166" lon="11.5482774"><ele>226.75</ele><time>2026-04-22T07:44:15.305Z</time></trkpt><trkpt lat="43.3270889" lon="11.5481129"><ele>227.0</ele><time>2026-04-22T07:44:16.318Z</time></trkpt><trkpt lat="43.3270638" lon="11.5479702"><ele>227.16666666666669</ele><time>2026-04-22T07:44:17.289Z</time></trkpt><trkpt lat="43.3270441" lon="11.5478346"><ele>227.33333333333334</ele><time>2026-04-22T07:44:18.298Z</time></trkpt><trkpt lat="43.3270303" lon="11.5477254"><ele>227.5</ele><time>2026-04-22T07:44:19.299Z</time></trkpt><trkpt lat="43.327002" lon="11.547645"><ele>227.66666666666669</ele><time>2026-04-22T07:44:20.287Z</time></trkpt><trkpt lat="43.326948" lon="11.547587"><ele>227.83333333333334</ele><time>2026-04-22T07:44:21.28Z</time></trkpt><trkpt lat="43.3268232" lon="11.5475616"><ele>228.0</ele><time>2026-04-22T07:44:23.299Z</time></trkpt><trkpt lat="43.3267381" lon="11.5475906"><ele>228.0</ele><time>2026-04-22T07:44:24.287Z</time></trkpt><trkpt lat="43.326642" lon="11.5476081"><ele>228.0</ele><time>2026-04-22T07:44:25.303Z</time></trkpt><trkpt lat="43.3265464" lon="11.5475793"><ele>228.0</ele><time>2026-04-22T07:44:26.292Z</time></trkpt><trkpt lat="43.3264546" lon="11.5475388"><ele>228.0</ele><time>2026-04-22T07:44:27.29Z</time></trkpt><trkpt lat="43.3263548" lon="11.5474727"><ele>228.0</ele><time>2026-04-22T07:44:28.311Z</time></trkpt><trkpt lat="43.3262603" lon="11.5473875"><ele>228.25</ele><time>2026-04-22T07:44:29.296Z</time></trkpt><trkpt lat="43.3261699" lon="11.5472769"><ele>228.5</ele><time>2026-04-22T07:44:30.288Z</time></trkpt><trkpt lat="43.3260942" lon="11.5471533"><ele>228.75</ele><time>2026-04-22T07:44:31.301Z</time></trkpt><trkpt lat="43.3260235" lon="11.5470094"><ele>229.0</ele><time>2026-04-22T07:44:32.294Z</time></trkpt><trkpt lat="43.3259553" lon="11.5468305"><ele>229.66666666666666</ele><time>2026-04-22T07:44:33.308Z</time></trkpt><trkpt lat="43.3258955" lon="11.546623"><ele>230.33333333333331</ele><time>2026-04-22T07:44:34.287Z</time></trkpt><trkpt lat="43.3258258" lon="11.5463578"><ele>231.0</ele><time>2026-04-22T07:44:35.307Z</time></trkpt><trkpt lat="43.3257433" lon="11.5460675"><ele>233.0</ele><time>2026-04-22T07:44:36.298Z</time></trkpt><trkpt lat="43.3256633" lon="11.5457737"><ele>235.0</ele><time>2026-04-22T07:44:37.289Z</time></trkpt><trkpt lat="43.3255744" lon="11.5454669"><ele>234.0</ele><time>2026-04-22T07:44:38.28Z</time></trkpt><trkpt lat="43.32549" lon="11.5451453"><ele>233.0</ele><time>2026-04-22T07:44:39.315Z</time></trkpt><trkpt lat="43.3254006" lon="11.5448159"><ele>234.0</ele><time>2026-04-22T07:44:40.294Z</time></trkpt><trkpt lat="43.3253167" lon="11.5444896"><ele>235.0</ele><time>2026-04-22T07:44:41.305Z</time></trkpt><trkpt lat="43.3252243" lon="11.5441577"><ele>235.0</ele><time>2026-04-22T07:44:42.309Z</time></trkpt><trkpt lat="43.325139" lon="11.543831"><ele>235.0</ele><time>2026-04-22T07:44:43.317Z</time></trkpt><trkpt lat="43.3250548" lon="11.5435036"><ele>235.0</ele><time>2026-04-22T07:44:44.302Z</time></trkpt><trkpt lat="43.3249759" lon="11.5431804"><ele>235.0</ele><time>2026-04-22T07:44:45.32Z</time></trkpt><trkpt lat="43.3248943" lon="11.5428505"><ele>235.0</ele><time>2026-04-22T07:44:46.305Z</time></trkpt><trkpt lat="43.3248103" lon="11.5425199"><ele>235.0</ele><time>2026-04-22T07:44:47.32Z</time></trkpt><trkpt lat="43.324722" lon="11.5421922"><ele>233.0</ele><time>2026-04-22T07:44:48.274Z</time></trkpt><trkpt lat="43.3246366" lon="11.5418649"><ele>231.0</ele><time>2026-04-22T07:44:49.271Z</time></trkpt><trkpt lat="43.324553" lon="11.5415372"><ele>231.5</ele><time>2026-04-22T07:44:50.266Z</time></trkpt><trkpt lat="43.3244719" lon="11.5412123"><ele>232.0</ele><time>2026-04-22T07:44:51.285Z</time></trkpt><trkpt lat="43.3243841" lon="11.5408863"><ele>232.0</ele><time>2026-04-22T07:44:52.283Z</time></trkpt><trkpt lat="43.3242978" lon="11.5405564"><ele>232.0</ele><time>2026-04-22T07:44:53.286Z</time></trkpt><trkpt lat="43.324211" lon="11.5402283"><ele>232.5</ele><time>2026-04-22T07:44:54.292Z</time></trkpt><trkpt lat="43.3241286" lon="11.5398938"><ele>233.0</ele><time>2026-04-22T07:44:55.308Z</time></trkpt><trkpt lat="43.324044" lon="11.53956"><ele>233.0</ele><time>2026-04-22T07:44:56.312Z</time></trkpt><trkpt lat="43.3239542" lon="11.5392322"><ele>233.0</ele><time>2026-04-22T07:44:57.312Z</time></trkpt><trkpt lat="43.3238655" lon="11.538914"><ele>232.5</ele><time>2026-04-22T07:44:58.286Z</time></trkpt><trkpt lat="43.3237744" lon="11.5385893"><ele>232.0</ele><time>2026-04-22T07:44:59.301Z</time></trkpt><trkpt lat="43.3236819" lon="11.5382678"><ele>232.0</ele><time>2026-04-22T07:45:00.328Z</time></trkpt><trkpt lat="43.3235814" lon="11.5379517"><ele>232.0</ele><time>2026-04-22T07:45:01.269Z</time></trkpt><trkpt lat="43.3234744" lon="11.5376359"><ele>232.0</ele><time>2026-04-22T07:45:02.312Z</time></trkpt><trkpt lat="43.3233688" lon="11.5373228"><ele>232.0</ele><time>2026-04-22T07:45:03.299Z</time></trkpt><trkpt lat="43.3232464" lon="11.5370091"><ele>232.5</ele><time>2026-04-22T07:45:04.298Z</time></trkpt><trkpt lat="43.3231176" lon="11.53671"><ele>233.0</ele><time>2026-04-22T07:45:05.301Z</time></trkpt><trkpt lat="43.3229851" lon="11.5364147"><ele>234.5</ele><time>2026-04-22T07:45:06.3Z</time></trkpt><trkpt lat="43.3228439" lon="11.5361262"><ele>236.0</ele><time>2026-04-22T07:45:07.269Z</time></trkpt><trkpt lat="43.3226988" lon="11.5358378"><ele>236.0</ele><time>2026-04-22T07:45:08.302Z</time></trkpt><trkpt lat="43.3225536" lon="11.5355565"><ele>236.0</ele><time>2026-04-22T07:45:09.346Z</time></trkpt><trkpt lat="43.322411" lon="11.5352766"><ele>237.0</ele><time>2026-04-22T07:45:10.309Z</time></trkpt><trkpt lat="43.3222641" lon="11.5349952"><ele>238.0</ele><time>2026-04-22T07:45:11.287Z</time></trkpt><trkpt lat="43.3221197" lon="11.5347035"><ele>238.0</ele><time>2026-04-22T07:45:12.333Z</time></trkpt><trkpt lat="43.3219757" lon="11.5344313"><ele>238.0</ele><time>2026-04-22T07:45:13.332Z</time></trkpt><trkpt lat="43.3218352" lon="11.5341489"><ele>238.0</ele><time>2026-04-22T07:45:14.284Z</time></trkpt><trkpt lat="43.3216925" lon="11.5338615"><ele>238.0</ele><time>2026-04-22T07:45:15.315Z</time></trkpt><trkpt lat="43.3215477" lon="11.5335791"><ele>239.5</ele><time>2026-04-22T07:45:16.332Z</time></trkpt><trkpt lat="43.3214065" lon="11.5332861"><ele>241.0</ele><time>2026-04-22T07:45:17.28Z</time></trkpt><trkpt lat="43.3212652" lon="11.5329951"><ele>243.0</ele><time>2026-04-22T07:45:18.298Z</time></trkpt><trkpt lat="43.3211226" lon="11.532706"><ele>245.0</ele><time>2026-04-22T07:45:19.319Z</time></trkpt><trkpt lat="43.3209916" lon="11.5324024"><ele>245.0</ele><time>2026-04-22T07:45:20.29Z</time></trkpt><trkpt lat="43.3208775" lon="11.5320888"><ele>245.0</ele><time>2026-04-22T07:45:21.324Z</time></trkpt><trkpt lat="43.3207815" lon="11.531768"><ele>247.5</ele><time>2026-04-22T07:45:22.3Z</time></trkpt><trkpt lat="43.320693" lon="11.5314438"><ele>250.0</ele><time>2026-04-22T07:45:23.335Z</time></trkpt><trkpt lat="43.3206199" lon="11.5311129"><ele>248.0</ele><time>2026-04-22T07:45:24.276Z</time></trkpt><trkpt lat="43.3205539" lon="11.5307731"><ele>246.0</ele><time>2026-04-22T07:45:25.324Z</time></trkpt><trkpt lat="43.3205014" lon="11.5304357"><ele>247.5</ele><time>2026-04-22T07:45:26.329Z</time></trkpt><trkpt lat="43.3204645" lon="11.5300858"><ele>249.0</ele><time>2026-04-22T07:45:27.336Z</time></trkpt><trkpt lat="43.3204541" lon="11.5297438"><ele>249.0</ele><time>2026-04-22T07:45:28.283Z</time></trkpt><trkpt lat="43.3204536" lon="11.5294042"><ele>249.0</ele><time>2026-04-22T07:45:29.335Z</time></trkpt><trkpt lat="43.3204635" lon="11.5290499"><ele>249.5</ele><time>2026-04-22T07:45:30.289Z</time></trkpt><trkpt lat="43.320493" lon="11.5287007"><ele>250.0</ele><time>2026-04-22T07:45:31.339Z</time></trkpt><trkpt lat="43.3205385" lon="11.5283674"><ele>251.5</ele><time>2026-04-22T07:45:32.306Z</time></trkpt><trkpt lat="43.3205957" lon="11.5280338"><ele>253.0</ele><time>2026-04-22T07:45:33.33Z</time></trkpt><trkpt lat="43.3206489" lon="11.5276812"><ele>253.5</ele><time>2026-04-22T07:45:34.28Z</time></trkpt><trkpt lat="43.3207032" lon="11.5273443"><ele>254.0</ele><time>2026-04-22T07:45:35.325Z</time></trkpt><trkpt lat="43.320755" lon="11.5270091"><ele>254.0</ele><time>2026-04-22T07:45:36.333Z</time></trkpt><trkpt lat="43.320809" lon="11.5266701"><ele>254.0</ele><time>2026-04-22T07:45:37.332Z</time></trkpt><trkpt lat="43.3208679" lon="11.5263287"><ele>254.0</ele><time>2026-04-22T07:45:38.332Z</time></trkpt><trkpt lat="43.3209265" lon="11.5259883"><ele>254.0</ele><time>2026-04-22T07:45:39.314Z</time></trkpt><trkpt lat="43.3209816" lon="11.5256476"><ele>255.0</ele><time>2026-04-22T07:45:40.329Z</time></trkpt><trkpt lat="43.321045" lon="11.5253095"><ele>256.0</ele><time>2026-04-22T07:45:41.326Z</time></trkpt><trkpt lat="43.3211008" lon="11.5249757"><ele>256.0</ele><time>2026-04-22T07:45:42.322Z</time></trkpt><trkpt lat="43.3211616" lon="11.5246363"><ele>256.0</ele><time>2026-04-22T07:45:43.302Z</time></trkpt><trkpt lat="43.3212209" lon="11.5242954"><ele>259.0</ele><time>2026-04-22T07:45:44.294Z</time></trkpt><trkpt lat="43.3212749" lon="11.5239613"><ele>262.0</ele><time>2026-04-22T07:45:45.337Z</time></trkpt><trkpt lat="43.3213278" lon="11.5236232"><ele>261.5</ele><time>2026-04-22T07:45:46.33Z</time></trkpt><trkpt lat="43.3213843" lon="11.5232809"><ele>261.0</ele><time>2026-04-22T07:45:47.323Z</time></trkpt><trkpt lat="43.3214345" lon="11.5229365"><ele>262.0</ele><time>2026-04-22T07:45:48.335Z</time></trkpt><trkpt lat="43.3214834" lon="11.5225943"><ele>263.0</ele><time>2026-04-22T07:45:49.322Z</time></trkpt><trkpt lat="43.3215247" lon="11.5222552"><ele>264.0</ele><time>2026-04-22T07:45:50.343Z</time></trkpt><trkpt lat="43.3215573" lon="11.5219113"><ele>265.0</ele><time>2026-04-22T07:45:51.263Z</time></trkpt><trkpt lat="43.3215827" lon="11.5215675"><ele>266.5</ele><time>2026-04-22T07:45:52.341Z</time></trkpt><trkpt lat="43.3216003" lon="11.5212173"><ele>268.0</ele><time>2026-04-22T07:45:53.29Z</time></trkpt><trkpt lat="43.3216073" lon="11.5208691"><ele>268.0</ele><time>2026-04-22T07:45:54.321Z</time></trkpt><trkpt lat="43.3216073" lon="11.520515"><ele>268.0</ele><time>2026-04-22T07:45:55.273Z</time></trkpt><trkpt lat="43.3216045" lon="11.5201642"><ele>269.5</ele><time>2026-04-22T07:45:56.272Z</time></trkpt><trkpt lat="43.3215962" lon="11.5198177"><ele>271.0</ele><time>2026-04-22T07:45:57.288Z</time></trkpt><trkpt lat="43.3215766" lon="11.5194742"><ele>272.0</ele><time>2026-04-22T07:45:58.313Z</time></trkpt><trkpt lat="43.3215533" lon="11.5191273"><ele>273.0</ele><time>2026-04-22T07:45:59.312Z</time></trkpt><trkpt lat="43.3215297" lon="11.51878"><ele>276.0</ele><time>2026-04-22T07:46:00.289Z</time></trkpt><trkpt lat="43.3214979" lon="11.5184367"><ele>279.0</ele><time>2026-04-22T07:46:01.306Z</time></trkpt><trkpt lat="43.3214654" lon="11.5180931"><ele>279.5</ele><time>2026-04-22T07:46:02.286Z</time></trkpt><trkpt lat="43.3214318" lon="11.5177542"><ele>280.0</ele><time>2026-04-22T07:46:03.292Z</time></trkpt><trkpt lat="43.3213978" lon="11.517409"><ele>281.5</ele><time>2026-04-22T07:46:04.302Z</time></trkpt><trkpt lat="43.321367" lon="11.5170588"><ele>283.0</ele><time>2026-04-22T07:46:05.27Z</time></trkpt><trkpt lat="43.321338" lon="11.5167132"><ele>283.0</ele><time>2026-04-22T07:46:06.318Z</time></trkpt><trkpt lat="43.3213031" lon="11.5163658"><ele>283.0</ele><time>2026-04-22T07:46:07.304Z</time></trkpt><trkpt lat="43.3212662" lon="11.5160161"><ele>279.5</ele><time>2026-04-22T07:46:08.289Z</time></trkpt><trkpt lat="43.3212338" lon="11.5156656"><ele>276.0</ele><time>2026-04-22T07:46:09.304Z</time></trkpt><trkpt lat="43.3212005" lon="11.5153208"><ele>272.0</ele><time>2026-04-22T07:46:10.31Z</time></trkpt><trkpt lat="43.3211695" lon="11.5149823"><ele>268.0</ele><time>2026-04-22T07:46:11.287Z</time></trkpt><trkpt lat="43.3211353" lon="11.5146361"><ele>265.5</ele><time>2026-04-22T07:46:12.315Z</time></trkpt><trkpt lat="43.3211055" lon="11.5142878"><ele>263.0</ele><time>2026-04-22T07:46:13.301Z</time></trkpt><trkpt lat="43.3210785" lon="11.5139429"><ele>262.0</ele><time>2026-04-22T07:46:14.288Z</time></trkpt><trkpt lat="43.321046" lon="11.5135974"><ele>261.0</ele><time>2026-04-22T07:46:15.315Z</time></trkpt><trkpt lat="43.3210147" lon="11.5132475"><ele>258.5</ele><time>2026-04-22T07:46:16.309Z</time></trkpt><trkpt lat="43.3209784" lon="11.5129033"><ele>256.0</ele><time>2026-04-22T07:46:17.318Z</time></trkpt><trkpt lat="43.3209433" lon="11.5125558"><ele>256.0</ele><time>2026-04-22T07:46:18.318Z</time></trkpt><trkpt lat="43.3209113" lon="11.512204"><ele>256.0</ele><time>2026-04-22T07:46:19.301Z</time></trkpt><trkpt lat="43.3208828" lon="11.511861"><ele>254.0</ele><time>2026-04-22T07:46:20.3Z</time></trkpt><trkpt lat="43.3208531" lon="11.5115208"><ele>252.0</ele><time>2026-04-22T07:46:21.312Z</time></trkpt><trkpt lat="43.3208184" lon="11.5111739"><ele>252.0</ele><time>2026-04-22T07:46:22.304Z</time></trkpt><trkpt lat="43.3207869" lon="11.5108275"><ele>252.0</ele><time>2026-04-22T07:46:23.288Z</time></trkpt><trkpt lat="43.3207554" lon="11.510486"><ele>253.0</ele><time>2026-04-22T07:46:24.305Z</time></trkpt><trkpt lat="43.3207228" lon="11.5101317"><ele>254.0</ele><time>2026-04-22T07:46:25.313Z</time></trkpt><trkpt lat="43.3206922" lon="11.5097823"><ele>255.0</ele><time>2026-04-22T07:46:26.306Z</time></trkpt><trkpt lat="43.3206552" lon="11.5094335"><ele>256.0</ele><time>2026-04-22T07:46:27.315Z</time></trkpt><trkpt lat="43.3206248" lon="11.5090871"><ele>257.0</ele><time>2026-04-22T07:46:28.285Z</time></trkpt><trkpt lat="43.320593" lon="11.5087389"><ele>258.0</ele><time>2026-04-22T07:46:29.304Z</time></trkpt><trkpt lat="43.3205672" lon="11.5083952"><ele>252.5</ele><time>2026-04-22T07:46:30.289Z</time></trkpt><trkpt lat="43.3205373" lon="11.5080469"><ele>247.0</ele><time>2026-04-22T07:46:31.301Z</time></trkpt><trkpt lat="43.3205116" lon="11.5076976"><ele>246.5</ele><time>2026-04-22T07:46:32.3Z</time></trkpt><trkpt lat="43.3204901" lon="11.507356"><ele>246.0</ele><time>2026-04-22T07:46:33.306Z</time></trkpt><trkpt lat="43.3204603" lon="11.5070112"><ele>246.0</ele><time>2026-04-22T07:46:34.303Z</time></trkpt><trkpt lat="43.3204234" lon="11.5066627"><ele>246.0</ele><time>2026-04-22T07:46:35.314Z</time></trkpt><trkpt lat="43.3203829" lon="11.506321"><ele>245.0</ele><time>2026-04-22T07:46:36.311Z</time></trkpt><trkpt lat="43.3203346" lon="11.5059851"><ele>244.0</ele><time>2026-04-22T07:46:37.295Z</time></trkpt><trkpt lat="43.3202782" lon="11.5056344"><ele>243.0</ele><time>2026-04-22T07:46:38.302Z</time></trkpt><trkpt lat="43.3202209" lon="11.5053011"><ele>242.0</ele><time>2026-04-22T07:46:39.307Z</time></trkpt><trkpt lat="43.3201494" lon="11.5049694"><ele>242.0</ele><time>2026-04-22T07:46:40.289Z</time></trkpt><trkpt lat="43.320056" lon="11.5046484"><ele>242.0</ele><time>2026-04-22T07:46:41.296Z</time></trkpt><trkpt lat="43.3199628" lon="11.5043256"><ele>242.0</ele><time>2026-04-22T07:46:42.271Z</time></trkpt><trkpt lat="43.3198643" lon="11.5040075"><ele>242.0</ele><time>2026-04-22T07:46:43.27Z</time></trkpt><trkpt lat="43.3197529" lon="11.5036822"><ele>242.5</ele><time>2026-04-22T07:46:44.285Z</time></trkpt><trkpt lat="43.3196521" lon="11.5033633"><ele>243.0</ele><time>2026-04-22T07:46:45.312Z</time></trkpt><trkpt lat="43.3195473" lon="11.5030419"><ele>241.5</ele><time>2026-04-22T07:46:46.295Z</time></trkpt><trkpt lat="43.3194463" lon="11.5027271"><ele>240.0</ele><time>2026-04-22T07:46:47.311Z</time></trkpt><trkpt lat="43.3193428" lon="11.5024049"><ele>240.5</ele><time>2026-04-22T07:46:48.315Z</time></trkpt><trkpt lat="43.3192486" lon="11.5020805"><ele>241.0</ele><time>2026-04-22T07:46:49.269Z</time></trkpt><trkpt lat="43.3191656" lon="11.5017557"><ele>241.0</ele><time>2026-04-22T07:46:50.29Z</time></trkpt><trkpt lat="43.3190719" lon="11.5014315"><ele>241.0</ele><time>2026-04-22T07:46:51.299Z</time></trkpt><trkpt lat="43.3189816" lon="11.5011006"><ele>240.0</ele><time>2026-04-22T07:46:52.285Z</time></trkpt><trkpt lat="43.3188945" lon="11.5007731"><ele>239.0</ele><time>2026-04-22T07:46:53.272Z</time></trkpt><trkpt lat="43.3188105" lon="11.5004423"><ele>238.5</ele><time>2026-04-22T07:46:54.286Z</time></trkpt><trkpt lat="43.318731" lon="11.5001084"><ele>238.0</ele><time>2026-04-22T07:46:55.3Z</time></trkpt><trkpt lat="43.318668" lon="11.4997727"><ele>238.5</ele><time>2026-04-22T07:46:56.284Z</time></trkpt><trkpt lat="43.3186232" lon="11.4994331"><ele>239.0</ele><time>2026-04-22T07:46:57.29Z</time></trkpt><trkpt lat="43.3185899" lon="11.4990898"><ele>240.0</ele><time>2026-04-22T07:46:58.29Z</time></trkpt><trkpt lat="43.3185676" lon="11.4987458"><ele>241.0</ele><time>2026-04-22T07:46:59.298Z</time></trkpt><trkpt lat="43.318552" lon="11.4983961"><ele>241.0</ele><time>2026-04-22T07:47:00.286Z</time></trkpt><trkpt lat="43.3185598" lon="11.4980436"><ele>241.0</ele><time>2026-04-22T07:47:01.289Z</time></trkpt><trkpt lat="43.3185696" lon="11.4976971"><ele>240.0</ele><time>2026-04-22T07:47:02.304Z</time></trkpt><trkpt lat="43.3185927" lon="11.4973525"><ele>239.0</ele><time>2026-04-22T07:47:03.314Z</time></trkpt><trkpt lat="43.3186298" lon="11.4970082"><ele>238.5</ele><time>2026-04-22T07:47:04.299Z</time></trkpt><trkpt lat="43.3186811" lon="11.4966596"><ele>238.0</ele><time>2026-04-22T07:47:05.304Z</time></trkpt><trkpt lat="43.3187434" lon="11.4963248"><ele>238.0</ele><time>2026-04-22T07:47:06.308Z</time></trkpt><trkpt lat="43.3188182" lon="11.4960006"><ele>238.0</ele><time>2026-04-22T07:47:07.309Z</time></trkpt><trkpt lat="43.3189039" lon="11.4956732"><ele>239.0</ele><time>2026-04-22T07:47:08.304Z</time></trkpt><trkpt lat="43.3189882" lon="11.4953434"><ele>240.0</ele><time>2026-04-22T07:47:09.305Z</time></trkpt><trkpt lat="43.3190824" lon="11.4950097"><ele>240.0</ele><time>2026-04-22T07:47:10.307Z</time></trkpt><trkpt lat="43.3191748" lon="11.4946844"><ele>240.0</ele><time>2026-04-22T07:47:11.296Z</time></trkpt><trkpt lat="43.3192668" lon="11.4943596"><ele>238.0</ele><time>2026-04-22T07:47:12.313Z</time></trkpt><trkpt lat="43.3193508" lon="11.4940394"><ele>236.0</ele><time>2026-04-22T07:47:13.314Z</time></trkpt><trkpt lat="43.3194403" lon="11.4937198"><ele>236.0</ele><time>2026-04-22T07:47:14.301Z</time></trkpt><trkpt lat="43.3195307" lon="11.4933929"><ele>236.0</ele><time>2026-04-22T07:47:15.29Z</time></trkpt><trkpt lat="43.3196059" lon="11.493061"><ele>235.0</ele><time>2026-04-22T07:47:16.312Z</time></trkpt><trkpt lat="43.3196818" lon="11.4927257"><ele>234.0</ele><time>2026-04-22T07:47:17.306Z</time></trkpt><trkpt lat="43.3197372" lon="11.4923791"><ele>233.5</ele><time>2026-04-22T07:47:18.285Z</time></trkpt><trkpt lat="43.3197865" lon="11.4920424"><ele>233.0</ele><time>2026-04-22T07:47:19.301Z</time></trkpt><trkpt lat="43.3198255" lon="11.4916949"><ele>233.0</ele><time>2026-04-22T07:47:20.293Z</time></trkpt><trkpt lat="43.3198532" lon="11.4913437"><ele>233.0</ele><time>2026-04-22T07:47:21.305Z</time></trkpt><trkpt lat="43.319868" lon="11.4909951"><ele>232.5</ele><time>2026-04-22T07:47:22.304Z</time></trkpt><trkpt lat="43.3198819" lon="11.4906484"><ele>232.0</ele><time>2026-04-22T07:47:23.309Z</time></trkpt><trkpt lat="43.3198918" lon="11.4903021"><ele>233.0</ele><time>2026-04-22T07:47:24.31Z</time></trkpt><trkpt lat="43.3198898" lon="11.4899534"><ele>234.0</ele><time>2026-04-22T07:47:25.321Z</time></trkpt><trkpt lat="43.3198914" lon="11.4896031"><ele>233.5</ele><time>2026-04-22T07:47:26.307Z</time></trkpt><trkpt lat="43.3198899" lon="11.4892538"><ele>233.0</ele><time>2026-04-22T07:47:27.307Z</time></trkpt><trkpt lat="43.3198996" lon="11.4889084"><ele>232.0</ele><time>2026-04-22T07:47:28.302Z</time></trkpt><trkpt lat="43.3199038" lon="11.4885609"><ele>231.0</ele><time>2026-04-22T07:47:29.286Z</time></trkpt><trkpt lat="43.3199069" lon="11.4882123"><ele>231.0</ele><time>2026-04-22T07:47:30.305Z</time></trkpt><trkpt lat="43.319912" lon="11.4878622"><ele>231.0</ele><time>2026-04-22T07:47:31.32Z</time></trkpt><trkpt lat="43.3199144" lon="11.4875043"><ele>231.0</ele><time>2026-04-22T07:47:32.275Z</time></trkpt><trkpt lat="43.3199171" lon="11.487159"><ele>231.0</ele><time>2026-04-22T07:47:33.312Z</time></trkpt><trkpt lat="43.3199198" lon="11.4868083"><ele>230.5</ele><time>2026-04-22T07:47:34.302Z</time></trkpt><trkpt lat="43.3199249" lon="11.4864517"><ele>230.0</ele><time>2026-04-22T07:47:35.307Z</time></trkpt><trkpt lat="43.3199298" lon="11.4861046"><ele>230.0</ele><time>2026-04-22T07:47:36.312Z</time></trkpt><trkpt lat="43.3199393" lon="11.4857606"><ele>230.0</ele><time>2026-04-22T07:47:37.302Z</time></trkpt><trkpt lat="43.3199429" lon="11.4854194"><ele>229.5</ele><time>2026-04-22T07:47:38.302Z</time></trkpt><trkpt lat="43.3199483" lon="11.4850685"><ele>229.0</ele><time>2026-04-22T07:47:39.265Z</time></trkpt><trkpt lat="43.3199497" lon="11.4847216"><ele>229.0</ele><time>2026-04-22T07:47:40.307Z</time></trkpt><trkpt lat="43.3199492" lon="11.4843777"><ele>229.0</ele><time>2026-04-22T07:47:41.273Z</time></trkpt><trkpt lat="43.3199527" lon="11.484031"><ele>228.0</ele><time>2026-04-22T07:47:42.288Z</time></trkpt><trkpt lat="43.3199572" lon="11.4836834"><ele>227.0</ele><time>2026-04-22T07:47:43.316Z</time></trkpt><trkpt lat="43.3199577" lon="11.4833308"><ele>227.0</ele><time>2026-04-22T07:47:44.294Z</time></trkpt><trkpt lat="43.3199481" lon="11.4829758"><ele>227.0</ele><time>2026-04-22T07:47:45.299Z</time></trkpt><trkpt lat="43.3199329" lon="11.4826307"><ele>226.0</ele><time>2026-04-22T07:47:46.299Z</time></trkpt><trkpt lat="43.3199079" lon="11.4822794"><ele>225.0</ele><time>2026-04-22T07:47:47.296Z</time></trkpt><trkpt lat="43.3198727" lon="11.4819279"><ele>225.0</ele><time>2026-04-22T07:47:48.286Z</time></trkpt><trkpt lat="43.3198281" lon="11.4815911"><ele>225.0</ele><time>2026-04-22T07:47:49.297Z</time></trkpt><trkpt lat="43.3197713" lon="11.4812592"><ele>231.5</ele><time>2026-04-22T07:47:50.287Z</time></trkpt><trkpt lat="43.3196955" lon="11.4809204"><ele>238.0</ele><time>2026-04-22T07:47:51.295Z</time></trkpt><trkpt lat="43.3196134" lon="11.4806023"><ele>235.5</ele><time>2026-04-22T07:47:52.276Z</time></trkpt><trkpt lat="43.319512" lon="11.4802837"><ele>233.0</ele><time>2026-04-22T07:47:53.297Z</time></trkpt><trkpt lat="43.3194056" lon="11.4799698"><ele>233.0</ele><time>2026-04-22T07:47:54.3Z</time></trkpt><trkpt lat="43.3192844" lon="11.4796637"><ele>233.0</ele><time>2026-04-22T07:47:55.309Z</time></trkpt><trkpt lat="43.3191532" lon="11.4793602"><ele>232.5</ele><time>2026-04-22T07:47:56.297Z</time></trkpt><trkpt lat="43.319008" lon="11.4790813"><ele>232.0</ele><time>2026-04-22T07:47:57.302Z</time></trkpt><trkpt lat="43.3188376" lon="11.4788191"><ele>228.0</ele><time>2026-04-22T07:47:58.297Z</time></trkpt><trkpt lat="43.3186776" lon="11.4785649"><ele>224.0</ele><time>2026-04-22T07:47:59.274Z</time></trkpt><trkpt lat="43.3184969" lon="11.4783204"><ele>224.0</ele><time>2026-04-22T07:48:00.284Z</time></trkpt><trkpt lat="43.3183071" lon="11.4780772"><ele>224.0</ele><time>2026-04-22T07:48:01.301Z</time></trkpt><trkpt lat="43.3181036" lon="11.4778647"><ele>223.5</ele><time>2026-04-22T07:48:02.288Z</time></trkpt><trkpt lat="43.3179047" lon="11.4776616"><ele>223.0</ele><time>2026-04-22T07:48:03.299Z</time></trkpt><trkpt lat="43.3176905" lon="11.477469"><ele>223.0</ele><time>2026-04-22T07:48:04.278Z</time></trkpt><trkpt lat="43.3174675" lon="11.4772957"><ele>223.0</ele><time>2026-04-22T07:48:05.305Z</time></trkpt><trkpt lat="43.3172316" lon="11.4771353"><ele>226.5</ele><time>2026-04-22T07:48:06.302Z</time></trkpt><trkpt lat="43.3170058" lon="11.47699"><ele>230.0</ele><time>2026-04-22T07:48:07.304Z</time></trkpt><trkpt lat="43.3167739" lon="11.4768595"><ele>230.0</ele><time>2026-04-22T07:48:08.304Z</time></trkpt><trkpt lat="43.3165375" lon="11.4767293"><ele>230.0</ele><time>2026-04-22T07:48:09.307Z</time></trkpt><trkpt lat="43.3162981" lon="11.476609"><ele>227.0</ele><time>2026-04-22T07:48:10.299Z</time></trkpt><trkpt lat="43.3160568" lon="11.4765001"><ele>224.0</ele><time>2026-04-22T07:48:11.292Z</time></trkpt><trkpt lat="43.3158108" lon="11.4763918"><ele>224.0</ele><time>2026-04-22T07:48:12.3Z</time></trkpt><trkpt lat="43.3155728" lon="11.4762724"><ele>224.0</ele><time>2026-04-22T07:48:13.304Z</time></trkpt><trkpt lat="43.3153294" lon="11.4761524"><ele>226.0</ele><time>2026-04-22T07:48:14.31Z</time></trkpt><trkpt lat="43.3150906" lon="11.4760262"><ele>228.0</ele><time>2026-04-22T07:48:15.29Z</time></trkpt><trkpt lat="43.3148584" lon="11.4759029"><ele>225.5</ele><time>2026-04-22T07:48:16.31Z</time></trkpt><trkpt lat="43.3146235" lon="11.4757691"><ele>223.0</ele><time>2026-04-22T07:48:17.289Z</time></trkpt><trkpt lat="43.3143976" lon="11.4756276"><ele>223.0</ele><time>2026-04-22T07:48:18.294Z</time></trkpt><trkpt lat="43.3141734" lon="11.4754708"><ele>223.0</ele><time>2026-04-22T07:48:19.276Z</time></trkpt><trkpt lat="43.3139462" lon="11.4753083"><ele>218.0</ele><time>2026-04-22T07:48:20.29Z</time></trkpt><trkpt lat="43.3137216" lon="11.4751428"><ele>213.0</ele><time>2026-04-22T07:48:21.286Z</time></trkpt><trkpt lat="43.3135097" lon="11.4749627"><ele>213.0</ele><time>2026-04-22T07:48:22.289Z</time></trkpt><trkpt lat="43.3132948" lon="11.4747792"><ele>213.0</ele><time>2026-04-22T07:48:23.297Z</time></trkpt><trkpt lat="43.3130911" lon="11.474574"><ele>212.5</ele><time>2026-04-22T07:48:24.297Z</time></trkpt><trkpt lat="43.3128824" lon="11.4743588"><ele>212.0</ele><time>2026-04-22T07:48:25.314Z</time></trkpt><trkpt lat="43.3126856" lon="11.474133"><ele>212.0</ele><time>2026-04-22T07:48:26.318Z</time></trkpt><trkpt lat="43.3124988" lon="11.4739008"><ele>212.0</ele><time>2026-04-22T07:48:27.301Z</time></trkpt><trkpt lat="43.312319" lon="11.4736568"><ele>212.0</ele><time>2026-04-22T07:48:28.28Z</time></trkpt><trkpt lat="43.3121418" lon="11.4734004"><ele>212.0</ele><time>2026-04-22T07:48:29.285Z</time></trkpt><trkpt lat="43.3119748" lon="11.4731339"><ele>208.5</ele><time>2026-04-22T07:48:30.3Z</time></trkpt><trkpt lat="43.3118126" lon="11.4728662"><ele>205.0</ele><time>2026-04-22T07:48:31.292Z</time></trkpt><trkpt lat="43.3116589" lon="11.4725971"><ele>205.0</ele><time>2026-04-22T07:48:32.291Z</time></trkpt><trkpt lat="43.3115014" lon="11.4723154"><ele>205.0</ele><time>2026-04-22T07:48:33.301Z</time></trkpt><trkpt lat="43.3113459" lon="11.4720344"><ele>204.0</ele><time>2026-04-22T07:48:34.306Z</time></trkpt><trkpt lat="43.3111997" lon="11.471756"><ele>203.0</ele><time>2026-04-22T07:48:35.323Z</time></trkpt><trkpt lat="43.3110461" lon="11.4714787"><ele>202.5</ele><time>2026-04-22T07:48:36.284Z</time></trkpt><trkpt lat="43.3108946" lon="11.4711956"><ele>202.0</ele><time>2026-04-22T07:48:37.309Z</time></trkpt><trkpt lat="43.3107404" lon="11.4709084"><ele>202.0</ele><time>2026-04-22T07:48:38.314Z</time></trkpt><trkpt lat="43.310585" lon="11.4706294"><ele>202.0</ele><time>2026-04-22T07:48:39.303Z</time></trkpt><trkpt lat="43.3104396" lon="11.470351"><ele>202.0</ele><time>2026-04-22T07:48:40.302Z</time></trkpt><trkpt lat="43.3103057" lon="11.4700662"><ele>202.0</ele><time>2026-04-22T07:48:41.307Z</time></trkpt><trkpt lat="43.3101741" lon="11.4697697"><ele>202.0</ele><time>2026-04-22T07:48:42.301Z</time></trkpt><trkpt lat="43.3100507" lon="11.4694624"><ele>202.0</ele><time>2026-04-22T07:48:43.296Z</time></trkpt><trkpt lat="43.3099421" lon="11.4691421"><ele>202.0</ele><time>2026-04-22T07:48:44.291Z</time></trkpt><trkpt lat="43.3098419" lon="11.4688238"><ele>202.0</ele><time>2026-04-22T07:48:45.287Z</time></trkpt><trkpt lat="43.3097449" lon="11.4684976"><ele>200.5</ele><time>2026-04-22T07:48:46.293Z</time></trkpt><trkpt lat="43.3096572" lon="11.4681666"><ele>199.0</ele><time>2026-04-22T07:48:47.307Z</time></trkpt><trkpt lat="43.3095777" lon="11.4678276"><ele>199.0</ele><time>2026-04-22T07:48:48.285Z</time></trkpt><trkpt lat="43.3095062" lon="11.4674934"><ele>199.0</ele><time>2026-04-22T07:48:49.285Z</time></trkpt><trkpt lat="43.3094367" lon="11.4671547"><ele>199.0</ele><time>2026-04-22T07:48:50.294Z</time></trkpt><trkpt lat="43.3093737" lon="11.4668202"><ele>199.0</ele><time>2026-04-22T07:48:51.287Z</time></trkpt><trkpt lat="43.3093197" lon="11.4664813"><ele>199.0</ele><time>2026-04-22T07:48:52.291Z</time></trkpt><trkpt lat="43.3092672" lon="11.466139"><ele>199.0</ele><time>2026-04-22T07:48:53.275Z</time></trkpt><trkpt lat="43.3092177" lon="11.4657979"><ele>199.0</ele><time>2026-04-22T07:48:54.278Z</time></trkpt><trkpt lat="43.3091607" lon="11.4654541"><ele>199.0</ele><time>2026-04-22T07:48:55.303Z</time></trkpt><trkpt lat="43.3091144" lon="11.4651091"><ele>199.0</ele><time>2026-04-22T07:48:56.308Z</time></trkpt><trkpt lat="43.3090621" lon="11.4647646"><ele>199.0</ele><time>2026-04-22T07:48:57.318Z</time></trkpt><trkpt lat="43.3090126" lon="11.4644296"><ele>199.0</ele><time>2026-04-22T07:48:58.297Z</time></trkpt><trkpt lat="43.3089606" lon="11.4640876"><ele>199.0</ele><time>2026-04-22T07:48:59.313Z</time></trkpt><trkpt lat="43.3089072" lon="11.4637452"><ele>198.5</ele><time>2026-04-22T07:49:00.286Z</time></trkpt><trkpt lat="43.3088505" lon="11.4634051"><ele>198.0</ele><time>2026-04-22T07:49:01.297Z</time></trkpt><trkpt lat="43.3087976" lon="11.4630614"><ele>197.5</ele><time>2026-04-22T07:49:02.303Z</time></trkpt><trkpt lat="43.3087409" lon="11.4627237"><ele>197.0</ele><time>2026-04-22T07:49:03.294Z</time></trkpt><trkpt lat="43.308693" lon="11.4623871"><ele>196.5</ele><time>2026-04-22T07:49:04.288Z</time></trkpt><trkpt lat="43.3086406" lon="11.4620491"><ele>196.0</ele><time>2026-04-22T07:49:05.3Z</time></trkpt><trkpt lat="43.3085857" lon="11.4617049"><ele>196.0</ele><time>2026-04-22T07:49:06.304Z</time></trkpt><trkpt lat="43.308529" lon="11.4613675"><ele>196.0</ele><time>2026-04-22T07:49:07.297Z</time></trkpt><trkpt lat="43.308476" lon="11.4610384"><ele>196.0</ele><time>2026-04-22T07:49:08.304Z</time></trkpt><trkpt lat="43.3084229" lon="11.4606906"><ele>196.0</ele><time>2026-04-22T07:49:09.306Z</time></trkpt><trkpt lat="43.3083698" lon="11.460347"><ele>195.5</ele><time>2026-04-22T07:49:10.313Z</time></trkpt><trkpt lat="43.3083198" lon="11.4600015"><ele>195.0</ele><time>2026-04-22T07:49:11.304Z</time></trkpt><trkpt lat="43.3082685" lon="11.4596635"><ele>195.0</ele><time>2026-04-22T07:49:12.293Z</time></trkpt><trkpt lat="43.3082162" lon="11.4593215"><ele>195.0</ele><time>2026-04-22T07:49:13.291Z</time></trkpt><trkpt lat="43.3081637" lon="11.4589815"><ele>195.0</ele><time>2026-04-22T07:49:14.292Z</time></trkpt><trkpt lat="43.3081087" lon="11.4586508"><ele>195.0</ele><time>2026-04-22T07:49:15.28Z</time></trkpt><trkpt lat="43.3080592" lon="11.4583088"><ele>195.0</ele><time>2026-04-22T07:49:16.294Z</time></trkpt><trkpt lat="43.308009" lon="11.4579745"><ele>195.0</ele><time>2026-04-22T07:49:17.305Z</time></trkpt><trkpt lat="43.3079572" lon="11.457631"><ele>195.0</ele><time>2026-04-22T07:49:18.316Z</time></trkpt><trkpt lat="43.3079082" lon="11.4572942"><ele>195.0</ele><time>2026-04-22T07:49:19.311Z</time></trkpt><trkpt lat="43.3078582" lon="11.4569452"><ele>195.0</ele><time>2026-04-22T07:49:20.297Z</time></trkpt><trkpt lat="43.3078151" lon="11.4566024"><ele>195.0</ele><time>2026-04-22T07:49:21.288Z</time></trkpt><trkpt lat="43.3077768" lon="11.4562553"><ele>195.0</ele><time>2026-04-22T07:49:22.302Z</time></trkpt><trkpt lat="43.3077421" lon="11.4559094"><ele>195.0</ele><time>2026-04-22T07:49:23.318Z</time></trkpt><trkpt lat="43.3077091" lon="11.4555604"><ele>195.5</ele><time>2026-04-22T07:49:24.271Z</time></trkpt><trkpt lat="43.3076774" lon="11.4552193"><ele>196.0</ele><time>2026-04-22T07:49:25.296Z</time></trkpt><trkpt lat="43.3076528" lon="11.4548736"><ele>196.0</ele><time>2026-04-22T07:49:26.317Z</time></trkpt><trkpt lat="43.3076226" lon="11.4545266"><ele>196.0</ele><time>2026-04-22T07:49:27.314Z</time></trkpt><trkpt lat="43.3075956" lon="11.4541837"><ele>196.0</ele><time>2026-04-22T07:49:28.319Z</time></trkpt><trkpt lat="43.3075693" lon="11.4538379"><ele>196.0</ele><time>2026-04-22T07:49:29.304Z</time></trkpt><trkpt lat="43.307539" lon="11.4534915"><ele>196.5</ele><time>2026-04-22T07:49:30.274Z</time></trkpt><trkpt lat="43.3075106" lon="11.4531414"><ele>197.0</ele><time>2026-04-22T07:49:31.286Z</time></trkpt><trkpt lat="43.3074857" lon="11.452802"><ele>197.0</ele><time>2026-04-22T07:49:32.313Z</time></trkpt><trkpt lat="43.3074586" lon="11.4524482"><ele>197.0</ele><time>2026-04-22T07:49:33.301Z</time></trkpt><trkpt lat="43.3074312" lon="11.4520993"><ele>197.5</ele><time>2026-04-22T07:49:34.298Z</time></trkpt><trkpt lat="43.3074082" lon="11.4517487"><ele>198.0</ele><time>2026-04-22T07:49:35.296Z</time></trkpt><trkpt lat="43.3073853" lon="11.4514097"><ele>199.0</ele><time>2026-04-22T07:49:36.287Z</time></trkpt><trkpt lat="43.3073585" lon="11.4510603"><ele>200.0</ele><time>2026-04-22T07:49:37.299Z</time></trkpt><trkpt lat="43.3073288" lon="11.4507172"><ele>200.0</ele><time>2026-04-22T07:49:38.305Z</time></trkpt><trkpt lat="43.3073003" lon="11.4503643"><ele>200.0</ele><time>2026-04-22T07:49:39.285Z</time></trkpt><trkpt lat="43.3072714" lon="11.4500107"><ele>200.0</ele><time>2026-04-22T07:49:40.341Z</time></trkpt><trkpt lat="43.3072479" lon="11.4496681"><ele>200.0</ele><time>2026-04-22T07:49:41.277Z</time></trkpt><trkpt lat="43.307219" lon="11.4493289"><ele>197.5</ele><time>2026-04-22T07:49:42.299Z</time></trkpt><trkpt lat="43.3071985" lon="11.448985"><ele>195.0</ele><time>2026-04-22T07:49:43.323Z</time></trkpt><trkpt lat="43.3071716" lon="11.4486359"><ele>194.5</ele><time>2026-04-22T07:49:44.293Z</time></trkpt><trkpt lat="43.3071475" lon="11.4482844"><ele>194.0</ele><time>2026-04-22T07:49:45.296Z</time></trkpt><trkpt lat="43.3071246" lon="11.4479434"><ele>194.0</ele><time>2026-04-22T07:49:46.305Z</time></trkpt><trkpt lat="43.3070935" lon="11.4475948"><ele>194.0</ele><time>2026-04-22T07:49:47.306Z</time></trkpt><trkpt lat="43.307064" lon="11.4472458"><ele>194.5</ele><time>2026-04-22T07:49:48.32Z</time></trkpt><trkpt lat="43.3070322" lon="11.4469036"><ele>195.0</ele><time>2026-04-22T07:49:49.308Z</time></trkpt><trkpt lat="43.3070058" lon="11.4465571"><ele>195.0</ele><time>2026-04-22T07:49:50.291Z</time></trkpt><trkpt lat="43.3069771" lon="11.4462069"><ele>195.0</ele><time>2026-04-22T07:49:51.292Z</time></trkpt><trkpt lat="43.3069522" lon="11.4458621"><ele>195.0</ele><time>2026-04-22T07:49:52.303Z</time></trkpt><trkpt lat="43.3069269" lon="11.4455185"><ele>195.0</ele><time>2026-04-22T07:49:53.299Z</time></trkpt><trkpt lat="43.3069035" lon="11.4451679"><ele>195.0</ele><time>2026-04-22T07:49:54.312Z</time></trkpt><trkpt lat="43.3068804" lon="11.4448221"><ele>195.0</ele><time>2026-04-22T07:49:55.317Z</time></trkpt><trkpt lat="43.3068552" lon="11.4444809"><ele>195.0</ele><time>2026-04-22T07:49:56.305Z</time></trkpt><trkpt lat="43.3068258" lon="11.4441309"><ele>195.0</ele><time>2026-04-22T07:49:57.3Z</time></trkpt><trkpt lat="43.3068001" lon="11.4437824"><ele>195.0</ele><time>2026-04-22T07:49:58.301Z</time></trkpt><trkpt lat="43.3067713" lon="11.4434335"><ele>195.0</ele><time>2026-04-22T07:49:59.31Z</time></trkpt><trkpt lat="43.3067417" lon="11.4430885"><ele>196.5</ele><time>2026-04-22T07:50:00.292Z</time></trkpt><trkpt lat="43.306712" lon="11.4427378"><ele>198.0</ele><time>2026-04-22T07:50:01.292Z</time></trkpt><trkpt lat="43.3066839" lon="11.4423865"><ele>197.5</ele><time>2026-04-22T07:50:02.304Z</time></trkpt><trkpt lat="43.3066543" lon="11.4420367"><ele>197.0</ele><time>2026-04-22T07:50:03.291Z</time></trkpt><trkpt lat="43.3066289" lon="11.441687"><ele>197.0</ele><time>2026-04-22T07:50:04.301Z</time></trkpt><trkpt lat="43.3066045" lon="11.4413465"><ele>197.0</ele><time>2026-04-22T07:50:05.305Z</time></trkpt><trkpt lat="43.3065803" lon="11.4409996"><ele>195.0</ele><time>2026-04-22T07:50:06.31Z</time></trkpt><trkpt lat="43.3065509" lon="11.4406549"><ele>193.0</ele><time>2026-04-22T07:50:07.295Z</time></trkpt><trkpt lat="43.3065209" lon="11.4403021"><ele>192.5</ele><time>2026-04-22T07:50:08.303Z</time></trkpt><trkpt lat="43.3064954" lon="11.4399562"><ele>192.0</ele><time>2026-04-22T07:50:09.295Z</time></trkpt><trkpt lat="43.3064698" lon="11.4396104"><ele>192.0</ele><time>2026-04-22T07:50:10.303Z</time></trkpt><trkpt lat="43.3064407" lon="11.4392709"><ele>192.0</ele><time>2026-04-22T07:50:11.294Z</time></trkpt><trkpt lat="43.3064012" lon="11.43892"><ele>191.0</ele><time>2026-04-22T07:50:12.299Z</time></trkpt><trkpt lat="43.3063624" lon="11.4385797"><ele>190.0</ele><time>2026-04-22T07:50:13.294Z</time></trkpt><trkpt lat="43.3063352" lon="11.4382287"><ele>190.5</ele><time>2026-04-22T07:50:14.32Z</time></trkpt><trkpt lat="43.3063078" lon="11.4378817"><ele>191.0</ele><time>2026-04-22T07:50:15.289Z</time></trkpt><trkpt lat="43.3062884" lon="11.4375468"><ele>191.0</ele><time>2026-04-22T07:50:16.31Z</time></trkpt><trkpt lat="43.3062658" lon="11.4372045"><ele>191.0</ele><time>2026-04-22T07:50:17.311Z</time></trkpt><trkpt lat="43.3062397" lon="11.4368613"><ele>191.5</ele><time>2026-04-22T07:50:18.286Z</time></trkpt><trkpt lat="43.3062108" lon="11.4365147"><ele>192.0</ele><time>2026-04-22T07:50:19.309Z</time></trkpt><trkpt lat="43.3061827" lon="11.4361741"><ele>192.0</ele><time>2026-04-22T07:50:20.279Z</time></trkpt><trkpt lat="43.3061556" lon="11.4358289"><ele>192.0</ele><time>2026-04-22T07:50:21.292Z</time></trkpt><trkpt lat="43.3061262" lon="11.4354798"><ele>193.0</ele><time>2026-04-22T07:50:22.296Z</time></trkpt><trkpt lat="43.3060957" lon="11.4351326"><ele>194.0</ele><time>2026-04-22T07:50:23.302Z</time></trkpt><trkpt lat="43.306069" lon="11.4347827"><ele>195.0</ele><time>2026-04-22T07:50:24.305Z</time></trkpt><trkpt lat="43.3060406" lon="11.4344299"><ele>196.0</ele><time>2026-04-22T07:50:25.299Z</time></trkpt><trkpt lat="43.3060164" lon="11.4340808"><ele>197.0</ele><time>2026-04-22T07:50:26.275Z</time></trkpt><trkpt lat="43.3059855" lon="11.4337376"><ele>198.0</ele><time>2026-04-22T07:50:27.28Z</time></trkpt><trkpt lat="43.3059582" lon="11.4333919"><ele>198.0</ele><time>2026-04-22T07:50:28.304Z</time></trkpt><trkpt lat="43.3059339" lon="11.4330513"><ele>198.0</ele><time>2026-04-22T07:50:29.314Z</time></trkpt><trkpt lat="43.3059048" lon="11.4327029"><ele>199.5</ele><time>2026-04-22T07:50:30.288Z</time></trkpt><trkpt lat="43.3058738" lon="11.4323555"><ele>201.0</ele><time>2026-04-22T07:50:31.299Z</time></trkpt><trkpt lat="43.305846" lon="11.4320047"><ele>203.5</ele><time>2026-04-22T07:50:32.304Z</time></trkpt><trkpt lat="43.3058238" lon="11.4316594"><ele>206.0</ele><time>2026-04-22T07:50:33.312Z</time></trkpt><trkpt lat="43.3057948" lon="11.4313094"><ele>205.5</ele><time>2026-04-22T07:50:34.314Z</time></trkpt><trkpt lat="43.3057704" lon="11.4309616"><ele>205.0</ele><time>2026-04-22T07:50:35.3Z</time></trkpt><trkpt lat="43.305744" lon="11.4306192"><ele>204.0</ele><time>2026-04-22T07:50:36.302Z</time></trkpt><trkpt lat="43.3057215" lon="11.4302739"><ele>203.0</ele><time>2026-04-22T07:50:37.297Z</time></trkpt><trkpt lat="43.3057002" lon="11.4299264"><ele>202.0</ele><time>2026-04-22T07:50:38.302Z</time></trkpt><trkpt lat="43.3056766" lon="11.4295799"><ele>201.0</ele><time>2026-04-22T07:50:39.292Z</time></trkpt><trkpt lat="43.3056569" lon="11.4292364"><ele>201.0</ele><time>2026-04-22T07:50:40.289Z</time></trkpt><trkpt lat="43.3056285" lon="11.4288846"><ele>201.0</ele><time>2026-04-22T07:50:41.296Z</time></trkpt><trkpt lat="43.3056049" lon="11.4285372"><ele>201.0</ele><time>2026-04-22T07:50:42.277Z</time></trkpt><trkpt lat="43.3055738" lon="11.4281818"><ele>201.0</ele><time>2026-04-22T07:50:43.31Z</time></trkpt><trkpt lat="43.3055577" lon="11.427837"><ele>201.0</ele><time>2026-04-22T07:50:44.303Z</time></trkpt><trkpt lat="43.3055303" lon="11.4274947"><ele>201.0</ele><time>2026-04-22T07:50:45.308Z</time></trkpt><trkpt lat="43.305499" lon="11.4271535"><ele>200.5</ele><time>2026-04-22T07:50:46.317Z</time></trkpt><trkpt lat="43.3054681" lon="11.4268038"><ele>200.0</ele><time>2026-04-22T07:50:47.309Z</time></trkpt><trkpt lat="43.3054397" lon="11.4264521"><ele>197.5</ele><time>2026-04-22T07:50:48.307Z</time></trkpt><trkpt lat="43.305417" lon="11.4261064"><ele>195.0</ele><time>2026-04-22T07:50:49.3Z</time></trkpt><trkpt lat="43.3053888" lon="11.4257592"><ele>193.0</ele><time>2026-04-22T07:50:50.313Z</time></trkpt><trkpt lat="43.3053574" lon="11.4254105"><ele>191.0</ele><time>2026-04-22T07:50:51.277Z</time></trkpt><trkpt lat="43.3053305" lon="11.4250716"><ele>191.0</ele><time>2026-04-22T07:50:52.324Z</time></trkpt><trkpt lat="43.3053039" lon="11.4247235"><ele>191.0</ele><time>2026-04-22T07:50:53.309Z</time></trkpt><trkpt lat="43.3052784" lon="11.4243784"><ele>191.0</ele><time>2026-04-22T07:50:54.269Z</time></trkpt><trkpt lat="43.3052538" lon="11.4240375"><ele>191.0</ele><time>2026-04-22T07:50:55.31Z</time></trkpt><trkpt lat="43.3052283" lon="11.4236911"><ele>190.5</ele><time>2026-04-22T07:50:56.299Z</time></trkpt><trkpt lat="43.3052052" lon="11.4233415"><ele>190.0</ele><time>2026-04-22T07:50:57.299Z</time></trkpt><trkpt lat="43.3051737" lon="11.422993"><ele>189.5</ele><time>2026-04-22T07:50:58.29Z</time></trkpt><trkpt lat="43.305154" lon="11.4226464"><ele>189.0</ele><time>2026-04-22T07:50:59.309Z</time></trkpt><trkpt lat="43.3051343" lon="11.4223001"><ele>188.0</ele><time>2026-04-22T07:51:00.29Z</time></trkpt><trkpt lat="43.3051205" lon="11.421951"><ele>187.0</ele><time>2026-04-22T07:51:01.291Z</time></trkpt><trkpt lat="43.3050988" lon="11.4216092"><ele>187.0</ele><time>2026-04-22T07:51:02.31Z</time></trkpt><trkpt lat="43.3050707" lon="11.4212621"><ele>187.0</ele><time>2026-04-22T07:51:03.311Z</time></trkpt><trkpt lat="43.3050465" lon="11.4209163"><ele>187.0</ele><time>2026-04-22T07:51:04.303Z</time></trkpt><trkpt lat="43.3050221" lon="11.4205693"><ele>187.0</ele><time>2026-04-22T07:51:05.318Z</time></trkpt><trkpt lat="43.3049941" lon="11.4202253"><ele>187.5</ele><time>2026-04-22T07:51:06.304Z</time></trkpt><trkpt lat="43.3049629" lon="11.4198862"><ele>188.0</ele><time>2026-04-22T07:51:07.305Z</time></trkpt><trkpt lat="43.3049337" lon="11.419542"><ele>187.0</ele><time>2026-04-22T07:51:08.29Z</time></trkpt><trkpt lat="43.3048988" lon="11.4191942"><ele>186.0</ele><time>2026-04-22T07:51:09.306Z</time></trkpt><trkpt lat="43.304854" lon="11.4188596"><ele>186.0</ele><time>2026-04-22T07:51:10.296Z</time></trkpt><trkpt lat="43.3047919" lon="11.4185123"><ele>186.0</ele><time>2026-04-22T07:51:11.283Z</time></trkpt><trkpt lat="43.3047218" lon="11.4181757"><ele>185.5</ele><time>2026-04-22T07:51:12.296Z</time></trkpt><trkpt lat="43.3046488" lon="11.4178441"><ele>185.0</ele><time>2026-04-22T07:51:13.302Z</time></trkpt><trkpt lat="43.3045749" lon="11.4175156"><ele>185.0</ele><time>2026-04-22T07:51:14.295Z</time></trkpt><trkpt lat="43.3044875" lon="11.4171852"><ele>185.0</ele><time>2026-04-22T07:51:15.302Z</time></trkpt><trkpt lat="43.304395" lon="11.4168512"><ele>185.0</ele><time>2026-04-22T07:51:16.31Z</time></trkpt><trkpt lat="43.3043099" lon="11.4165274"><ele>185.0</ele><time>2026-04-22T07:51:17.311Z</time></trkpt><trkpt lat="43.3042265" lon="11.4162052"><ele>185.0</ele><time>2026-04-22T07:51:18.306Z</time></trkpt><trkpt lat="43.3041432" lon="11.4158873"><ele>185.0</ele><time>2026-04-22T07:51:19.292Z</time></trkpt><trkpt lat="43.3040549" lon="11.4155553"><ele>185.0</ele><time>2026-04-22T07:51:20.312Z</time></trkpt><trkpt lat="43.3039605" lon="11.4152338"><ele>185.0</ele><time>2026-04-22T07:51:21.309Z</time></trkpt><trkpt lat="43.3038689" lon="11.414907"><ele>185.0</ele><time>2026-04-22T07:51:22.292Z</time></trkpt><trkpt lat="43.3037737" lon="11.4145803"><ele>185.0</ele><time>2026-04-22T07:51:23.31Z</time></trkpt><trkpt lat="43.3036792" lon="11.4142604"><ele>185.0</ele><time>2026-04-22T07:51:24.316Z</time></trkpt><trkpt lat="43.3035877" lon="11.4139371"><ele>185.0</ele><time>2026-04-22T07:51:25.31Z</time></trkpt><trkpt lat="43.3034958" lon="11.4136043"><ele>185.5</ele><time>2026-04-22T07:51:26.287Z</time></trkpt><trkpt lat="43.3034064" lon="11.4132718"><ele>186.0</ele><time>2026-04-22T07:51:27.307Z</time></trkpt><trkpt lat="43.303318" lon="11.4129466"><ele>185.0</ele><time>2026-04-22T07:51:28.31Z</time></trkpt><trkpt lat="43.3032207" lon="11.4126206"><ele>184.0</ele><time>2026-04-22T07:51:29.294Z</time></trkpt><trkpt lat="43.3031298" lon="11.4122947"><ele>183.0</ele><time>2026-04-22T07:51:30.303Z</time></trkpt><trkpt lat="43.3030451" lon="11.4119719"><ele>182.0</ele><time>2026-04-22T07:51:31.294Z</time></trkpt><trkpt lat="43.3029577" lon="11.4116458"><ele>182.5</ele><time>2026-04-22T07:51:32.305Z</time></trkpt><trkpt lat="43.3028663" lon="11.4113226"><ele>183.0</ele><time>2026-04-22T07:51:33.321Z</time></trkpt><trkpt lat="43.3027701" lon="11.4110055"><ele>183.0</ele><time>2026-04-22T07:51:34.307Z</time></trkpt><trkpt lat="43.3026815" lon="11.4106775"><ele>183.0</ele><time>2026-04-22T07:51:35.298Z</time></trkpt><trkpt lat="43.3025897" lon="11.410357"><ele>183.0</ele><time>2026-04-22T07:51:36.302Z</time></trkpt><trkpt lat="43.3024964" lon="11.4100303"><ele>183.0</ele><time>2026-04-22T07:51:37.313Z</time></trkpt><trkpt lat="43.3024047" lon="11.4097064"><ele>183.0</ele><time>2026-04-22T07:51:38.307Z</time></trkpt><trkpt lat="43.3023165" lon="11.4093795"><ele>183.0</ele><time>2026-04-22T07:51:39.312Z</time></trkpt><trkpt lat="43.3022236" lon="11.4090524"><ele>182.5</ele><time>2026-04-22T07:51:40.304Z</time></trkpt><trkpt lat="43.3021358" lon="11.4087281"><ele>182.0</ele><time>2026-04-22T07:51:41.278Z</time></trkpt><trkpt lat="43.3020435" lon="11.4083996"><ele>182.0</ele><time>2026-04-22T07:51:42.303Z</time></trkpt><trkpt lat="43.3019471" lon="11.4080847"><ele>182.0</ele><time>2026-04-22T07:51:43.318Z</time></trkpt><trkpt lat="43.3018427" lon="11.4077692"><ele>182.5</ele><time>2026-04-22T07:51:44.302Z</time></trkpt><trkpt lat="43.3017348" lon="11.4074603"><ele>183.0</ele><time>2026-04-22T07:51:45.289Z</time></trkpt><trkpt lat="43.3016093" lon="11.4071569"><ele>183.5</ele><time>2026-04-22T07:51:46.301Z</time></trkpt><trkpt lat="43.3014779" lon="11.4068589"><ele>184.0</ele><time>2026-04-22T07:51:47.305Z</time></trkpt><trkpt lat="43.3013397" lon="11.4065626"><ele>184.5</ele><time>2026-04-22T07:51:48.307Z</time></trkpt><trkpt lat="43.3011836" lon="11.4062788"><ele>185.0</ele><time>2026-04-22T07:51:49.312Z</time></trkpt><trkpt lat="43.3010275" lon="11.4059965"><ele>185.0</ele><time>2026-04-22T07:51:50.302Z</time></trkpt><trkpt lat="43.3008659" lon="11.4057249"><ele>185.0</ele><time>2026-04-22T07:51:51.297Z</time></trkpt><trkpt lat="43.3006953" lon="11.4054611"><ele>183.0</ele><time>2026-04-22T07:51:52.328Z</time></trkpt><trkpt lat="43.3005313" lon="11.4051929"><ele>181.0</ele><time>2026-04-22T07:51:53.309Z</time></trkpt><trkpt lat="43.3003603" lon="11.4049345"><ele>181.0</ele><time>2026-04-22T07:51:54.28Z</time></trkpt><trkpt lat="43.3001892" lon="11.4046762"><ele>181.0</ele><time>2026-04-22T07:51:55.314Z</time></trkpt><trkpt lat="43.3000233" lon="11.4044114"><ele>181.0</ele><time>2026-04-22T07:51:56.301Z</time></trkpt><trkpt lat="43.2998639" lon="11.4041461"><ele>181.0</ele><time>2026-04-22T07:51:57.302Z</time></trkpt><trkpt lat="43.2997006" lon="11.4038802"><ele>182.0</ele><time>2026-04-22T07:51:58.31Z</time></trkpt><trkpt lat="43.2995341" lon="11.403621"><ele>183.0</ele><time>2026-04-22T07:51:59.323Z</time></trkpt><trkpt lat="43.2993686" lon="11.4033506"><ele>183.0</ele><time>2026-04-22T07:52:00.297Z</time></trkpt><trkpt lat="43.2991975" lon="11.403084"><ele>183.0</ele><time>2026-04-22T07:52:01.284Z</time></trkpt><trkpt lat="43.2990331" lon="11.4028237"><ele>183.5</ele><time>2026-04-22T07:52:02.304Z</time></trkpt><trkpt lat="43.2988619" lon="11.4025693"><ele>184.0</ele><time>2026-04-22T07:52:03.304Z</time></trkpt><trkpt lat="43.2986993" lon="11.4023113"><ele>187.5</ele><time>2026-04-22T07:52:04.311Z</time></trkpt><trkpt lat="43.298536" lon="11.4020575"><ele>191.0</ele><time>2026-04-22T07:52:05.291Z</time></trkpt><trkpt lat="43.2983773" lon="11.4017863"><ele>191.0</ele><time>2026-04-22T07:52:06.295Z</time></trkpt><trkpt lat="43.2982105" lon="11.4015211"><ele>191.0</ele><time>2026-04-22T07:52:07.273Z</time></trkpt><trkpt lat="43.2980432" lon="11.4012606"><ele>190.5</ele><time>2026-04-22T07:52:08.27Z</time></trkpt><trkpt lat="43.2978724" lon="11.4009993"><ele>190.0</ele><time>2026-04-22T07:52:09.295Z</time></trkpt><trkpt lat="43.2977049" lon="11.4007335"><ele>192.5</ele><time>2026-04-22T07:52:10.299Z</time></trkpt><trkpt lat="43.297535" lon="11.400474"><ele>195.0</ele><time>2026-04-22T07:52:11.276Z</time></trkpt><trkpt lat="43.2973665" lon="11.4002093"><ele>196.0</ele><time>2026-04-22T07:52:12.292Z</time></trkpt><trkpt lat="43.2972014" lon="11.3999467"><ele>197.0</ele><time>2026-04-22T07:52:13.295Z</time></trkpt><trkpt lat="43.2970276" lon="11.3996882"><ele>197.5</ele><time>2026-04-22T07:52:14.269Z</time></trkpt><trkpt lat="43.2968611" lon="11.3994295"><ele>198.0</ele><time>2026-04-22T07:52:15.297Z</time></trkpt><trkpt lat="43.2966929" lon="11.3991623"><ele>198.0</ele><time>2026-04-22T07:52:16.271Z</time></trkpt><trkpt lat="43.2965274" lon="11.3988951"><ele>198.0</ele><time>2026-04-22T07:52:17.272Z</time></trkpt><trkpt lat="43.2963731" lon="11.3986182"><ele>195.5</ele><time>2026-04-22T07:52:18.335Z</time></trkpt><trkpt lat="43.2962348" lon="11.3983296"><ele>193.0</ele><time>2026-04-22T07:52:19.265Z</time></trkpt><trkpt lat="43.2961046" lon="11.3980289"><ele>195.0</ele><time>2026-04-22T07:52:20.27Z</time></trkpt><trkpt lat="43.2959976" lon="11.3977115"><ele>197.0</ele><time>2026-04-22T07:52:21.266Z</time></trkpt><trkpt lat="43.2959032" lon="11.3973873"><ele>199.0</ele><time>2026-04-22T07:52:22.271Z</time></trkpt><trkpt lat="43.2958247" lon="11.3970644"><ele>201.0</ele><time>2026-04-22T07:52:23.281Z</time></trkpt><trkpt lat="43.2957708" lon="11.3967312"><ele>201.0</ele><time>2026-04-22T07:52:24.275Z</time></trkpt><trkpt lat="43.2957334" lon="11.3963881"><ele>201.0</ele><time>2026-04-22T07:52:25.292Z</time></trkpt><trkpt lat="43.2957176" lon="11.3960336"><ele>199.5</ele><time>2026-04-22T07:52:26.27Z</time></trkpt><trkpt lat="43.2957116" lon="11.3956892"><ele>198.0</ele><time>2026-04-22T07:52:27.306Z</time></trkpt><trkpt lat="43.2957148" lon="11.3953473"><ele>196.5</ele><time>2026-04-22T07:52:28.278Z</time></trkpt><trkpt lat="43.2957246" lon="11.3950026"><ele>195.0</ele><time>2026-04-22T07:52:29.27Z</time></trkpt><trkpt lat="43.295725" lon="11.3946422"><ele>195.0</ele><time>2026-04-22T07:52:30.272Z</time></trkpt><trkpt lat="43.2957322" lon="11.3942901"><ele>195.0</ele><time>2026-04-22T07:52:31.273Z</time></trkpt><trkpt lat="43.2957508" lon="11.3939439"><ele>195.5</ele><time>2026-04-22T07:52:32.292Z</time></trkpt><trkpt lat="43.2957642" lon="11.3935973"><ele>196.0</ele><time>2026-04-22T07:52:33.311Z</time></trkpt><trkpt lat="43.2957701" lon="11.3932461"><ele>195.5</ele><time>2026-04-22T07:52:34.292Z</time></trkpt><trkpt lat="43.2957816" lon="11.3928982"><ele>195.0</ele><time>2026-04-22T07:52:35.272Z</time></trkpt><trkpt lat="43.2958204" lon="11.3925579"><ele>195.0</ele><time>2026-04-22T07:52:36.284Z</time></trkpt><trkpt lat="43.2958742" lon="11.3922159"><ele>195.0</ele><time>2026-04-22T07:52:37.313Z</time></trkpt><trkpt lat="43.2959494" lon="11.3918839"><ele>195.0</ele><time>2026-04-22T07:52:38.31Z</time></trkpt><trkpt lat="43.2960477" lon="11.3915736"><ele>195.0</ele><time>2026-04-22T07:52:39.308Z</time></trkpt><trkpt lat="43.2961667" lon="11.39127"><ele>197.5</ele><time>2026-04-22T07:52:40.279Z</time></trkpt><trkpt lat="43.2962991" lon="11.3909794"><ele>200.0</ele><time>2026-04-22T07:52:41.286Z</time></trkpt><trkpt lat="43.2964552" lon="11.3906988"><ele>202.5</ele><time>2026-04-22T07:52:42.306Z</time></trkpt><trkpt lat="43.2966185" lon="11.3904343"><ele>205.0</ele><time>2026-04-22T07:52:43.3Z</time></trkpt><trkpt lat="43.2967867" lon="11.3901721"><ele>205.0</ele><time>2026-04-22T07:52:44.3Z</time></trkpt><trkpt lat="43.2969559" lon="11.3899096"><ele>205.0</ele><time>2026-04-22T07:52:45.298Z</time></trkpt><trkpt lat="43.2971222" lon="11.3896532"><ele>203.0</ele><time>2026-04-22T07:52:46.291Z</time></trkpt><trkpt lat="43.2972981" lon="11.3894019"><ele>201.0</ele><time>2026-04-22T07:52:47.295Z</time></trkpt><trkpt lat="43.297464" lon="11.3891483"><ele>201.0</ele><time>2026-04-22T07:52:48.267Z</time></trkpt><trkpt lat="43.297633" lon="11.3888875"><ele>201.0</ele><time>2026-04-22T07:52:49.291Z</time></trkpt><trkpt lat="43.2978081" lon="11.3886229"><ele>200.5</ele><time>2026-04-22T07:52:50.273Z</time></trkpt><trkpt lat="43.2979755" lon="11.3883644"><ele>200.0</ele><time>2026-04-22T07:52:51.275Z</time></trkpt><trkpt lat="43.2981493" lon="11.3880981"><ele>194.0</ele><time>2026-04-22T07:52:52.285Z</time></trkpt><trkpt lat="43.2983279" lon="11.3878454"><ele>188.0</ele><time>2026-04-22T07:52:53.27Z</time></trkpt><trkpt lat="43.2985013" lon="11.3875871"><ele>188.0</ele><time>2026-04-22T07:52:54.265Z</time></trkpt><trkpt lat="43.2986674" lon="11.3873262"><ele>188.0</ele><time>2026-04-22T07:52:55.28Z</time></trkpt><trkpt lat="43.2988402" lon="11.3870679"><ele>186.0</ele><time>2026-04-22T07:52:56.271Z</time></trkpt><trkpt lat="43.2990184" lon="11.3868167"><ele>184.0</ele><time>2026-04-22T07:52:57.296Z</time></trkpt><trkpt lat="43.2991917" lon="11.3865637"><ele>183.5</ele><time>2026-04-22T07:52:58.304Z</time></trkpt><trkpt lat="43.2993543" lon="11.386309"><ele>183.0</ele><time>2026-04-22T07:52:59.3Z</time></trkpt><trkpt lat="43.2995193" lon="11.3860532"><ele>183.0</ele><time>2026-04-22T07:53:00.277Z</time></trkpt><trkpt lat="43.2996863" lon="11.3857947"><ele>183.0</ele><time>2026-04-22T07:53:01.302Z</time></trkpt><trkpt lat="43.2998619" lon="11.3855467"><ele>185.0</ele><time>2026-04-22T07:53:02.291Z</time></trkpt><trkpt lat="43.300031" lon="11.3852874"><ele>187.0</ele><time>2026-04-22T07:53:03.318Z</time></trkpt><trkpt lat="43.3002057" lon="11.3850296"><ele>187.0</ele><time>2026-04-22T07:53:04.28Z</time></trkpt><trkpt lat="43.3003731" lon="11.3847743"><ele>187.0</ele><time>2026-04-22T07:53:05.304Z</time></trkpt><trkpt lat="43.3005441" lon="11.3845243"><ele>187.5</ele><time>2026-04-22T07:53:06.292Z</time></trkpt><trkpt lat="43.3007213" lon="11.3842752"><ele>188.0</ele><time>2026-04-22T07:53:07.294Z</time></trkpt><trkpt lat="43.3008759" lon="11.3840471"><ele>188.66666666666666</ele><time>2026-04-22T07:53:08.284Z</time></trkpt><trkpt lat="43.3010231" lon="11.3838287"><ele>189.33333333333334</ele><time>2026-04-22T07:53:09.304Z</time></trkpt><trkpt lat="43.3011522" lon="11.3836139"><ele>190.0</ele><time>2026-04-22T07:53:10.289Z</time></trkpt><trkpt lat="43.3012512" lon="11.3833985"><ele>190.0</ele><time>2026-04-22T07:53:11.301Z</time></trkpt><trkpt lat="43.3013398" lon="11.3831818"><ele>190.0</ele><time>2026-04-22T07:53:12.304Z</time></trkpt><trkpt lat="43.3014219" lon="11.3829458"><ele>190.0</ele><time>2026-04-22T07:53:13.28Z</time></trkpt><trkpt lat="43.301481" lon="11.3827029"><ele>192.0</ele><time>2026-04-22T07:53:14.302Z</time></trkpt><trkpt lat="43.3015239" lon="11.3824655"><ele>194.0</ele><time>2026-04-22T07:53:15.281Z</time></trkpt><trkpt lat="43.3015574" lon="11.382228"><ele>196.0</ele><time>2026-04-22T07:53:16.318Z</time></trkpt><trkpt lat="43.3015704" lon="11.3819795"><ele>197.0</ele><time>2026-04-22T07:53:17.287Z</time></trkpt><trkpt lat="43.3015772" lon="11.381743"><ele>198.0</ele><time>2026-04-22T07:53:18.293Z</time></trkpt><trkpt lat="43.3015751" lon="11.3815021"><ele>199.0</ele><time>2026-04-22T07:53:19.306Z</time></trkpt><trkpt lat="43.3015701" lon="11.3812753"><ele>199.33333333333331</ele><time>2026-04-22T07:53:20.298Z</time></trkpt><trkpt lat="43.3015629" lon="11.3810552"><ele>199.66666666666669</ele><time>2026-04-22T07:53:21.307Z</time></trkpt><trkpt lat="43.3015563" lon="11.3808375"><ele>200.0</ele><time>2026-04-22T07:53:22.301Z</time></trkpt><trkpt lat="43.3015511" lon="11.3806274"><ele>199.33333333333334</ele><time>2026-04-22T07:53:23.287Z</time></trkpt><trkpt lat="43.3015477" lon="11.3804195"><ele>198.66666666666669</ele><time>2026-04-22T07:53:24.307Z</time></trkpt><trkpt lat="43.3015417" lon="11.3802062"><ele>198.0</ele><time>2026-04-22T07:53:25.298Z</time></trkpt><trkpt lat="43.301545" lon="11.3800042"><ele>198.0</ele><time>2026-04-22T07:53:26.274Z</time></trkpt><trkpt lat="43.3015534" lon="11.379809"><ele>198.0</ele><time>2026-04-22T07:53:27.288Z</time></trkpt><trkpt lat="43.3015758" lon="11.3796297"><ele>198.0</ele><time>2026-04-22T07:53:28.291Z</time></trkpt><trkpt lat="43.3016367" lon="11.3794568"><ele>198.0</ele><time>2026-04-22T07:53:29.307Z</time></trkpt><trkpt lat="43.3017118" lon="11.3792918"><ele>197.5</ele><time>2026-04-22T07:53:30.295Z</time></trkpt><trkpt lat="43.3018024" lon="11.3791521"><ele>197.0</ele><time>2026-04-22T07:53:31.29Z</time></trkpt><trkpt lat="43.3019034" lon="11.3790175"><ele>196.5</ele><time>2026-04-22T07:53:32.3Z</time></trkpt><trkpt lat="43.302009" lon="11.3788916"><ele>196.0</ele><time>2026-04-22T07:53:33.285Z</time></trkpt><trkpt lat="43.3020982" lon="11.3787643"><ele>196.0</ele><time>2026-04-22T07:53:34.297Z</time></trkpt><trkpt lat="43.3021815" lon="11.3786246"><ele>196.0</ele><time>2026-04-22T07:53:35.292Z</time></trkpt><trkpt lat="43.3022346" lon="11.3784881"><ele>196.0</ele><time>2026-04-22T07:53:36.283Z</time></trkpt><trkpt lat="43.3022828" lon="11.3783378"><ele>196.0</ele><time>2026-04-22T07:53:37.315Z</time></trkpt><trkpt lat="43.3023172" lon="11.3781733"><ele>196.0</ele><time>2026-04-22T07:53:38.292Z</time></trkpt><trkpt lat="43.3023223" lon="11.3780103"><ele>196.0</ele><time>2026-04-22T07:53:39.279Z</time></trkpt><trkpt lat="43.3023134" lon="11.3778529"><ele>196.0</ele><time>2026-04-22T07:53:40.292Z</time></trkpt><trkpt lat="43.3022702" lon="11.3777049"><ele>196.0</ele><time>2026-04-22T07:53:41.301Z</time></trkpt><trkpt lat="43.3022121" lon="11.3775633"><ele>196.25</ele><time>2026-04-22T07:53:42.303Z</time></trkpt><trkpt lat="43.3021268" lon="11.3774385"><ele>196.5</ele><time>2026-04-22T07:53:43.297Z</time></trkpt><trkpt lat="43.3020181" lon="11.3773168"><ele>196.75</ele><time>2026-04-22T07:53:44.287Z</time></trkpt><trkpt lat="43.3018932" lon="11.3772206"><ele>197.0</ele><time>2026-04-22T07:53:45.305Z</time></trkpt><trkpt lat="43.3017605" lon="11.3771251"><ele>197.0</ele><time>2026-04-22T07:53:46.301Z</time></trkpt><trkpt lat="43.3016236" lon="11.3770136"><ele>197.0</ele><time>2026-04-22T07:53:47.303Z</time></trkpt><trkpt lat="43.3014797" lon="11.3768977"><ele>197.0</ele><time>2026-04-22T07:53:48.299Z</time></trkpt><trkpt lat="43.3013381" lon="11.37678"><ele>197.33333333333334</ele><time>2026-04-22T07:53:49.304Z</time></trkpt><trkpt lat="43.3011941" lon="11.3766589"><ele>197.66666666666669</ele><time>2026-04-22T07:53:50.323Z</time></trkpt><trkpt lat="43.3010477" lon="11.3765366"><ele>198.0</ele><time>2026-04-22T07:53:51.29Z</time></trkpt><trkpt lat="43.3009109" lon="11.3764203"><ele>198.0</ele><time>2026-04-22T07:53:52.294Z</time></trkpt><trkpt lat="43.3007686" lon="11.3762919"><ele>198.0</ele><time>2026-04-22T07:53:53.298Z</time></trkpt><trkpt lat="43.3006429" lon="11.3761685"><ele>198.0</ele><time>2026-04-22T07:53:54.285Z</time></trkpt><trkpt lat="43.3005153" lon="11.3760351"><ele>198.0</ele><time>2026-04-22T07:53:55.293Z</time></trkpt><trkpt lat="43.3003859" lon="11.375901"><ele>198.0</ele><time>2026-04-22T07:53:56.301Z</time></trkpt><trkpt lat="43.3002698" lon="11.3757561"><ele>198.0</ele><time>2026-04-22T07:53:57.297Z</time></trkpt><trkpt lat="43.300152" lon="11.3755995"><ele>197.33333333333331</ele><time>2026-04-22T07:53:58.308Z</time></trkpt><trkpt lat="43.3000374" lon="11.3754397"><ele>196.66666666666666</ele><time>2026-04-22T07:53:59.309Z</time></trkpt><trkpt lat="43.2999267" lon="11.375284"><ele>196.0</ele><time>2026-04-22T07:54:00.294Z</time></trkpt><trkpt lat="43.2998205" lon="11.3751016"><ele>195.33333333333331</ele><time>2026-04-22T07:54:01.282Z</time></trkpt><trkpt lat="43.2997183" lon="11.3749256"><ele>194.66666666666669</ele><time>2026-04-22T07:54:02.286Z</time></trkpt><trkpt lat="43.2996233" lon="11.3747401"><ele>194.0</ele><time>2026-04-22T07:54:03.311Z</time></trkpt><trkpt lat="43.2995289" lon="11.374553"><ele>195.33333333333334</ele><time>2026-04-22T07:54:04.283Z</time></trkpt><trkpt lat="43.2994381" lon="11.3743568"><ele>196.66666666666669</ele><time>2026-04-22T07:54:05.3Z</time></trkpt><trkpt lat="43.2993445" lon="11.3741538"><ele>198.0</ele><time>2026-04-22T07:54:06.297Z</time></trkpt><trkpt lat="43.2992678" lon="11.3739512"><ele>200.0</ele><time>2026-04-22T07:54:07.291Z</time></trkpt><trkpt lat="43.2991963" lon="11.3737493"><ele>202.0</ele><time>2026-04-22T07:54:08.291Z</time></trkpt><trkpt lat="43.2991295" lon="11.3735445"><ele>204.0</ele><time>2026-04-22T07:54:09.295Z</time></trkpt><trkpt lat="43.2990698" lon="11.3733365"><ele>204.0</ele><time>2026-04-22T07:54:10.292Z</time></trkpt><trkpt lat="43.2990174" lon="11.3731229"><ele>204.0</ele><time>2026-04-22T07:54:11.293Z</time></trkpt><trkpt lat="43.2989679" lon="11.3729084"><ele>204.0</ele><time>2026-04-22T07:54:12.287Z</time></trkpt><trkpt lat="43.2989284" lon="11.3726921"><ele>205.66666666666669</ele><time>2026-04-22T07:54:13.305Z</time></trkpt><trkpt lat="43.2988879" lon="11.3724646"><ele>207.33333333333334</ele><time>2026-04-22T07:54:14.309Z</time></trkpt><trkpt lat="43.2988566" lon="11.3722382"><ele>209.0</ele><time>2026-04-22T07:54:15.302Z</time></trkpt><trkpt lat="43.2988348" lon="11.3720174"><ele>209.66666666666669</ele><time>2026-04-22T07:54:16.283Z</time></trkpt><trkpt lat="43.2988169" lon="11.3717942"><ele>210.33333333333331</ele><time>2026-04-22T07:54:17.266Z</time></trkpt><trkpt lat="43.2988042" lon="11.3715616"><ele>211.0</ele><time>2026-04-22T07:54:18.301Z</time></trkpt><trkpt lat="43.2987992" lon="11.3713322"><ele>211.66666666666666</ele><time>2026-04-22T07:54:19.276Z</time></trkpt><trkpt lat="43.2987965" lon="11.3711037"><ele>212.33333333333331</ele><time>2026-04-22T07:54:20.3Z</time></trkpt><trkpt lat="43.2987994" lon="11.3708722"><ele>213.0</ele><time>2026-04-22T07:54:21.285Z</time></trkpt><trkpt lat="43.2988005" lon="11.3706445"><ele>216.0</ele><time>2026-04-22T07:54:22.3Z</time></trkpt><trkpt lat="43.2988049" lon="11.3704227"><ele>219.0</ele><time>2026-04-22T07:54:23.305Z</time></trkpt><trkpt lat="43.2988103" lon="11.3702092"><ele>222.0</ele><time>2026-04-22T07:54:24.303Z</time></trkpt><trkpt lat="43.2988121" lon="11.3699925"><ele>222.0</ele><time>2026-04-22T07:54:25.322Z</time></trkpt><trkpt lat="43.2988207" lon="11.369779"><ele>222.0</ele><time>2026-04-22T07:54:26.289Z</time></trkpt><trkpt lat="43.2988232" lon="11.3695595"><ele>222.0</ele><time>2026-04-22T07:54:27.291Z</time></trkpt><trkpt lat="43.2988261" lon="11.369332"><ele>224.66666666666669</ele><time>2026-04-22T07:54:28.299Z</time></trkpt><trkpt lat="43.2988262" lon="11.369099"><ele>227.33333333333334</ele><time>2026-04-22T07:54:29.305Z</time></trkpt><trkpt lat="43.298827" lon="11.3688777"><ele>230.0</ele><time>2026-04-22T07:54:30.3Z</time></trkpt><trkpt lat="43.2988251" lon="11.368655"><ele>232.5</ele><time>2026-04-22T07:54:31.291Z</time></trkpt><trkpt lat="43.2988219" lon="11.3684339"><ele>235.0</ele><time>2026-04-22T07:54:32.302Z</time></trkpt><trkpt lat="43.2987877" lon="11.3659688"><ele>228.66666666666666</ele><time>2026-04-22T07:54:43.27Z</time></trkpt><trkpt lat="43.298804" lon="11.3657645"><ele>222.33333333333331</ele><time>2026-04-22T07:54:44.282Z</time></trkpt><trkpt lat="43.2988267" lon="11.3655498"><ele>216.0</ele><time>2026-04-22T07:54:45.305Z</time></trkpt><trkpt lat="43.2988493" lon="11.3653284"><ele>214.0</ele><time>2026-04-22T07:54:46.296Z</time></trkpt><trkpt lat="43.2988764" lon="11.365103"><ele>212.0</ele><time>2026-04-22T07:54:47.3Z</time></trkpt><trkpt lat="43.2988926" lon="11.3648829"><ele>210.0</ele><time>2026-04-22T07:54:48.296Z</time></trkpt><trkpt lat="43.2989073" lon="11.3646641"><ele>211.0</ele><time>2026-04-22T07:54:49.288Z</time></trkpt><trkpt lat="43.2989257" lon="11.3644381"><ele>212.0</ele><time>2026-04-22T07:54:50.304Z</time></trkpt><trkpt lat="43.2989495" lon="11.3642187"><ele>213.0</ele><time>2026-04-22T07:54:51.286Z</time></trkpt><trkpt lat="43.2989754" lon="11.3639964"><ele>211.0</ele><time>2026-04-22T07:54:52.296Z</time></trkpt><trkpt lat="43.2990063" lon="11.3637741"><ele>209.0</ele><time>2026-04-22T07:54:53.305Z</time></trkpt><trkpt lat="43.2990438" lon="11.3635535"><ele>207.0</ele><time>2026-04-22T07:54:54.279Z</time></trkpt><trkpt lat="43.2990849" lon="11.3633368"><ele>207.0</ele><time>2026-04-22T07:54:55.312Z</time></trkpt><trkpt lat="43.2991245" lon="11.363122"><ele>207.0</ele><time>2026-04-22T07:54:56.295Z</time></trkpt><trkpt lat="43.2991677" lon="11.3629144"><ele>207.0</ele><time>2026-04-22T07:54:57.272Z</time></trkpt><trkpt lat="43.2992134" lon="11.3627033"><ele>205.0</ele><time>2026-04-22T07:54:58.305Z</time></trkpt><trkpt lat="43.2992599" lon="11.362496"><ele>203.0</ele><time>2026-04-22T07:54:59.303Z</time></trkpt><trkpt lat="43.2993157" lon="11.3622968"><ele>201.0</ele><time>2026-04-22T07:55:00.295Z</time></trkpt><trkpt lat="43.2993705" lon="11.362101"><ele>200.75</ele><time>2026-04-22T07:55:01.305Z</time></trkpt><trkpt lat="43.2994196" lon="11.3619184"><ele>200.5</ele><time>2026-04-22T07:55:02.304Z</time></trkpt><trkpt lat="43.299472" lon="11.3617346"><ele>200.25</ele><time>2026-04-22T07:55:03.303Z</time></trkpt><trkpt lat="43.2995208" lon="11.3615596"><ele>200.0</ele><time>2026-04-22T07:55:04.292Z</time></trkpt><trkpt lat="43.2995741" lon="11.3613869"><ele>199.75</ele><time>2026-04-22T07:55:05.311Z</time></trkpt><trkpt lat="43.299625" lon="11.3612269"><ele>199.5</ele><time>2026-04-22T07:55:06.299Z</time></trkpt><trkpt lat="43.2996737" lon="11.3610728"><ele>199.25</ele><time>2026-04-22T07:55:07.298Z</time></trkpt><trkpt lat="43.2997192" lon="11.3609166"><ele>199.0</ele><time>2026-04-22T07:55:08.274Z</time></trkpt><trkpt lat="43.2997664" lon="11.3607583"><ele>199.75</ele><time>2026-04-22T07:55:09.298Z</time></trkpt><trkpt lat="43.2998146" lon="11.3606032"><ele>200.5</ele><time>2026-04-22T07:55:10.268Z</time></trkpt><trkpt lat="43.2998616" lon="11.3604431"><ele>201.25</ele><time>2026-04-22T07:55:11.293Z</time></trkpt><trkpt lat="43.2999138" lon="11.3602825"><ele>202.0</ele><time>2026-04-22T07:55:12.301Z</time></trkpt><trkpt lat="43.2999585" lon="11.3601205"><ele>202.0</ele><time>2026-04-22T07:55:13.307Z</time></trkpt><trkpt lat="43.3000098" lon="11.3599545"><ele>202.0</ele><time>2026-04-22T07:55:14.292Z</time></trkpt><trkpt lat="43.3000661" lon="11.3597757"><ele>202.0</ele><time>2026-04-22T07:55:15.29Z</time></trkpt><trkpt lat="43.3001184" lon="11.3596033"><ele>202.0</ele><time>2026-04-22T07:55:16.305Z</time></trkpt><trkpt lat="43.3001699" lon="11.3594146"><ele>201.25</ele><time>2026-04-22T07:55:17.309Z</time></trkpt><trkpt lat="43.3002323" lon="11.3592313"><ele>200.5</ele><time>2026-04-22T07:55:18.314Z</time></trkpt><trkpt lat="43.3002855" lon="11.3590492"><ele>199.75</ele><time>2026-04-22T07:55:19.282Z</time></trkpt><trkpt lat="43.3003414" lon="11.3588691"><ele>199.0</ele><time>2026-04-22T07:55:20.29Z</time></trkpt><trkpt lat="43.3003965" lon="11.3586857"><ele>198.25</ele><time>2026-04-22T07:55:21.286Z</time></trkpt><trkpt lat="43.3004462" lon="11.3584945"><ele>197.5</ele><time>2026-04-22T07:55:22.279Z</time></trkpt><trkpt lat="43.3004948" lon="11.358309"><ele>196.75</ele><time>2026-04-22T07:55:23.295Z</time></trkpt><trkpt lat="43.3005403" lon="11.3581241"><ele>196.0</ele><time>2026-04-22T07:55:24.278Z</time></trkpt><trkpt lat="43.3005813" lon="11.3579411"><ele>197.0</ele><time>2026-04-22T07:55:25.316Z</time></trkpt><trkpt lat="43.3006162" lon="11.3577507"><ele>198.0</ele><time>2026-04-22T07:55:26.302Z</time></trkpt><trkpt lat="43.3006515" lon="11.3575599"><ele>199.0</ele><time>2026-04-22T07:55:27.301Z</time></trkpt><trkpt lat="43.3006854" lon="11.3573703"><ele>200.0</ele><time>2026-04-22T07:55:28.299Z</time></trkpt><trkpt lat="43.3007108" lon="11.3571816"><ele>201.0</ele><time>2026-04-22T07:55:29.292Z</time></trkpt><trkpt lat="43.3007278" lon="11.3569918"><ele>202.0</ele><time>2026-04-22T07:55:30.3Z</time></trkpt><trkpt lat="43.3007483" lon="11.3567951"><ele>203.0</ele><time>2026-04-22T07:55:31.302Z</time></trkpt><trkpt lat="43.3007615" lon="11.3565943"><ele>204.0</ele><time>2026-04-22T07:55:32.285Z</time></trkpt><trkpt lat="43.3007774" lon="11.3563886"><ele>204.75</ele><time>2026-04-22T07:55:33.303Z</time></trkpt><trkpt lat="43.3007844" lon="11.3561868"><ele>205.5</ele><time>2026-04-22T07:55:34.328Z</time></trkpt><trkpt lat="43.3007864" lon="11.3559837"><ele>206.25</ele><time>2026-04-22T07:55:35.289Z</time></trkpt><trkpt lat="43.3007811" lon="11.3557801"><ele>207.0</ele><time>2026-04-22T07:55:36.3Z</time></trkpt><trkpt lat="43.3007749" lon="11.3555786"><ele>207.33333333333331</ele><time>2026-04-22T07:55:37.308Z</time></trkpt><trkpt lat="43.3007666" lon="11.3553804"><ele>207.66666666666666</ele><time>2026-04-22T07:55:38.3Z</time></trkpt><trkpt lat="43.3007514" lon="11.3551718"><ele>208.0</ele><time>2026-04-22T07:55:39.295Z</time></trkpt><trkpt lat="43.3007294" lon="11.3549563"><ele>208.0</ele><time>2026-04-22T07:55:40.286Z</time></trkpt><trkpt lat="43.3007031" lon="11.3547512"><ele>208.0</ele><time>2026-04-22T07:55:41.284Z</time></trkpt><trkpt lat="43.300675" lon="11.3545501"><ele>208.0</ele><time>2026-04-22T07:55:42.305Z</time></trkpt><trkpt lat="43.3006423" lon="11.3543534"><ele>208.0</ele><time>2026-04-22T07:55:43.309Z</time></trkpt><trkpt lat="43.3006124" lon="11.3541567"><ele>206.0</ele><time>2026-04-22T07:55:44.305Z</time></trkpt><trkpt lat="43.3005814" lon="11.3539608"><ele>204.0</ele><time>2026-04-22T07:55:45.285Z</time></trkpt><trkpt lat="43.3005455" lon="11.3537617"><ele>202.0</ele><time>2026-04-22T07:55:46.299Z</time></trkpt><trkpt lat="43.300518" lon="11.3535642"><ele>200.0</ele><time>2026-04-22T07:55:47.3Z</time></trkpt><trkpt lat="43.3004855" lon="11.3533631"><ele>199.33333333333334</ele><time>2026-04-22T07:55:48.302Z</time></trkpt><trkpt lat="43.3004527" lon="11.3531578"><ele>198.66666666666669</ele><time>2026-04-22T07:55:49.303Z</time></trkpt><trkpt lat="43.3004198" lon="11.3529499"><ele>198.0</ele><time>2026-04-22T07:55:50.298Z</time></trkpt><trkpt lat="43.3003913" lon="11.3527556"><ele>198.0</ele><time>2026-04-22T07:55:51.312Z</time></trkpt><trkpt lat="43.3003597" lon="11.3525526"><ele>198.0</ele><time>2026-04-22T07:55:52.299Z</time></trkpt><trkpt lat="43.3003284" lon="11.3523562"><ele>198.0</ele><time>2026-04-22T07:55:53.31Z</time></trkpt><trkpt lat="43.3002965" lon="11.3521624"><ele>198.0</ele><time>2026-04-22T07:55:54.286Z</time></trkpt><trkpt lat="43.3002698" lon="11.3519729"><ele>198.5</ele><time>2026-04-22T07:55:55.288Z</time></trkpt><trkpt lat="43.3002427" lon="11.3517717"><ele>199.0</ele><time>2026-04-22T07:55:56.299Z</time></trkpt><trkpt lat="43.3002124" lon="11.3515815"><ele>199.5</ele><time>2026-04-22T07:55:57.304Z</time></trkpt><trkpt lat="43.3001799" lon="11.3513866"><ele>200.0</ele><time>2026-04-22T07:55:58.311Z</time></trkpt><trkpt lat="43.3001513" lon="11.3511982"><ele>200.5</ele><time>2026-04-22T07:55:59.303Z</time></trkpt><trkpt lat="43.3001234" lon="11.351015"><ele>201.0</ele><time>2026-04-22T07:56:00.298Z</time></trkpt><trkpt lat="43.300097" lon="11.3508258"><ele>201.5</ele><time>2026-04-22T07:56:01.285Z</time></trkpt><trkpt lat="43.3000659" lon="11.3506258"><ele>202.0</ele><time>2026-04-22T07:56:02.274Z</time></trkpt><trkpt lat="43.3000377" lon="11.3504281"><ele>204.0</ele><time>2026-04-22T07:56:03.304Z</time></trkpt><trkpt lat="43.3000083" lon="11.3502254"><ele>206.0</ele><time>2026-04-22T07:56:04.307Z</time></trkpt><trkpt lat="43.2999788" lon="11.3500224"><ele>208.0</ele><time>2026-04-22T07:56:05.301Z</time></trkpt><trkpt lat="43.299944" lon="11.3498225"><ele>209.0</ele><time>2026-04-22T07:56:06.287Z</time></trkpt><trkpt lat="43.299906" lon="11.3496211"><ele>210.0</ele><time>2026-04-22T07:56:07.307Z</time></trkpt><trkpt lat="43.2998696" lon="11.3494228"><ele>211.0</ele><time>2026-04-22T07:56:08.277Z</time></trkpt><trkpt lat="43.2998398" lon="11.3492171"><ele>211.0</ele><time>2026-04-22T07:56:09.3Z</time></trkpt><trkpt lat="43.2998088" lon="11.3490116"><ele>211.0</ele><time>2026-04-22T07:56:10.283Z</time></trkpt><trkpt lat="43.2997783" lon="11.348813"><ele>211.0</ele><time>2026-04-22T07:56:11.295Z</time></trkpt><trkpt lat="43.299748" lon="11.3486144"><ele>211.0</ele><time>2026-04-22T07:56:12.288Z</time></trkpt><trkpt lat="43.2997125" lon="11.3484173"><ele>209.0</ele><time>2026-04-22T07:56:13.303Z</time></trkpt><trkpt lat="43.2996848" lon="11.3482144"><ele>207.0</ele><time>2026-04-22T07:56:14.293Z</time></trkpt><trkpt lat="43.2996507" lon="11.3480098"><ele>205.0</ele><time>2026-04-22T07:56:15.305Z</time></trkpt><trkpt lat="43.2996228" lon="11.3478043"><ele>205.0</ele><time>2026-04-22T07:56:16.323Z</time></trkpt><trkpt lat="43.2995912" lon="11.3476015"><ele>205.0</ele><time>2026-04-22T07:56:17.308Z</time></trkpt><trkpt lat="43.2995572" lon="11.3473919"><ele>205.0</ele><time>2026-04-22T07:56:18.309Z</time></trkpt><trkpt lat="43.2995201" lon="11.3471885"><ele>205.0</ele><time>2026-04-22T07:56:19.309Z</time></trkpt><trkpt lat="43.2994872" lon="11.3469865"><ele>205.0</ele><time>2026-04-22T07:56:20.301Z</time></trkpt><trkpt lat="43.2994582" lon="11.3467844"><ele>205.0</ele><time>2026-04-22T07:56:21.308Z</time></trkpt><trkpt lat="43.2994336" lon="11.3465819"><ele>205.0</ele><time>2026-04-22T07:56:22.314Z</time></trkpt><trkpt lat="43.299405" lon="11.3463851"><ele>205.0</ele><time>2026-04-22T07:56:23.303Z</time></trkpt><trkpt lat="43.2993729" lon="11.3461903"><ele>205.0</ele><time>2026-04-22T07:56:24.311Z</time></trkpt><trkpt lat="43.2993471" lon="11.3459982"><ele>205.0</ele><time>2026-04-22T07:56:25.316Z</time></trkpt><trkpt lat="43.2993209" lon="11.3457981"><ele>206.25</ele><time>2026-04-22T07:56:26.313Z</time></trkpt><trkpt lat="43.2992901" lon="11.3455977"><ele>207.5</ele><time>2026-04-22T07:56:27.306Z</time></trkpt><trkpt lat="43.2992533" lon="11.3454032"><ele>208.75</ele><time>2026-04-22T07:56:28.28Z</time></trkpt><trkpt lat="43.2992186" lon="11.3452136"><ele>210.0</ele><time>2026-04-22T07:56:29.3Z</time></trkpt><trkpt lat="43.2991887" lon="11.3450116"><ele>210.25</ele><time>2026-04-22T07:56:30.304Z</time></trkpt><trkpt lat="43.2991593" lon="11.344811"><ele>210.5</ele><time>2026-04-22T07:56:31.301Z</time></trkpt><trkpt lat="43.2991257" lon="11.3446056"><ele>210.75</ele><time>2026-04-22T07:56:32.273Z</time></trkpt><trkpt lat="43.2990909" lon="11.3444109"><ele>211.0</ele><time>2026-04-22T07:56:33.301Z</time></trkpt><trkpt lat="43.2990541" lon="11.3442114"><ele>211.0</ele><time>2026-04-22T07:56:34.312Z</time></trkpt><trkpt lat="43.299017" lon="11.3440169"><ele>211.0</ele><time>2026-04-22T07:56:35.288Z</time></trkpt><trkpt lat="43.2989793" lon="11.3438119"><ele>211.0</ele><time>2026-04-22T07:56:36.3Z</time></trkpt><trkpt lat="43.298946" lon="11.3436105"><ele>211.75</ele><time>2026-04-22T07:56:37.275Z</time></trkpt><trkpt lat="43.2989118" lon="11.3434081"><ele>212.5</ele><time>2026-04-22T07:56:38.285Z</time></trkpt><trkpt lat="43.2988762" lon="11.3432101"><ele>213.25</ele><time>2026-04-22T07:56:39.302Z</time></trkpt><trkpt lat="43.298841" lon="11.3430219"><ele>214.0</ele><time>2026-04-22T07:56:40.304Z</time></trkpt><trkpt lat="43.2987976" lon="11.3428267"><ele>215.0</ele><time>2026-04-22T07:56:41.293Z</time></trkpt><trkpt lat="43.2987467" lon="11.3426372"><ele>216.0</ele><time>2026-04-22T07:56:42.3Z</time></trkpt><trkpt lat="43.298688" lon="11.3424404"><ele>217.0</ele><time>2026-04-22T07:56:43.286Z</time></trkpt><trkpt lat="43.2986354" lon="11.3422435"><ele>218.75</ele><time>2026-04-22T07:56:44.303Z</time></trkpt><trkpt lat="43.2985811" lon="11.3420506"><ele>220.5</ele><time>2026-04-22T07:56:45.298Z</time></trkpt><trkpt lat="43.2985194" lon="11.3418653"><ele>222.25</ele><time>2026-04-22T07:56:46.296Z</time></trkpt><trkpt lat="43.2984601" lon="11.3416768"><ele>224.0</ele><time>2026-04-22T07:56:47.306Z</time></trkpt><trkpt lat="43.2983915" lon="11.3414886"><ele>224.66666666666669</ele><time>2026-04-22T07:56:48.313Z</time></trkpt><trkpt lat="43.2983281" lon="11.3412981"><ele>225.33333333333331</ele><time>2026-04-22T07:56:49.327Z</time></trkpt><trkpt lat="43.298263" lon="11.3411074"><ele>226.0</ele><time>2026-04-22T07:56:50.298Z</time></trkpt><trkpt lat="43.2981971" lon="11.3409173"><ele>226.0</ele><time>2026-04-22T07:56:51.304Z</time></trkpt><trkpt lat="43.29813" lon="11.3407312"><ele>226.0</ele><time>2026-04-22T07:56:52.301Z</time></trkpt><trkpt lat="43.2980685" lon="11.3405502"><ele>226.0</ele><time>2026-04-22T07:56:53.299Z</time></trkpt><trkpt lat="43.2979992" lon="11.3403606"><ele>227.66666666666666</ele><time>2026-04-22T07:56:54.267Z</time></trkpt><trkpt lat="43.2979287" lon="11.3401679"><ele>229.33333333333331</ele><time>2026-04-22T07:56:55.268Z</time></trkpt><trkpt lat="43.2978609" lon="11.3399796"><ele>231.0</ele><time>2026-04-22T07:56:56.303Z</time></trkpt><trkpt lat="43.2977876" lon="11.3397865"><ele>233.0</ele><time>2026-04-22T07:56:57.302Z</time></trkpt><trkpt lat="43.2977199" lon="11.3396046"><ele>235.0</ele><time>2026-04-22T07:56:58.275Z</time></trkpt><trkpt lat="43.2976543" lon="11.3394181"><ele>237.0</ele><time>2026-04-22T07:56:59.281Z</time></trkpt><trkpt lat="43.2975865" lon="11.3392316"><ele>226.0</ele><time>2026-04-22T07:57:00.272Z</time></trkpt><trkpt lat="43.2968486" lon="11.3377178"><ele>226.0</ele><time>2026-04-22T07:57:09.29Z</time></trkpt><trkpt lat="43.2967299" lon="11.3375198"><ele>226.0</ele><time>2026-04-22T07:57:10.269Z</time></trkpt><trkpt lat="43.2966566" lon="11.337358"><ele>226.0</ele><time>2026-04-22T07:57:11.279Z</time></trkpt><trkpt lat="43.2965977" lon="11.3372128"><ele>226.0</ele><time>2026-04-22T07:57:12.297Z</time></trkpt><trkpt lat="43.2965194" lon="11.3370705"><ele>225.75</ele><time>2026-04-22T07:57:13.295Z</time></trkpt><trkpt lat="43.2964418" lon="11.3369054"><ele>225.5</ele><time>2026-04-22T07:57:14.291Z</time></trkpt><trkpt lat="43.2963765" lon="11.3367352"><ele>225.25</ele><time>2026-04-22T07:57:15.288Z</time></trkpt><trkpt lat="43.2963172" lon="11.3365659"><ele>225.0</ele><time>2026-04-22T07:57:16.298Z</time></trkpt><trkpt lat="43.2962711" lon="11.3363933"><ele>222.25</ele><time>2026-04-22T07:57:17.288Z</time></trkpt><trkpt lat="43.2962333" lon="11.3362097"><ele>219.5</ele><time>2026-04-22T07:57:18.289Z</time></trkpt><trkpt lat="43.2961973" lon="11.3360218"><ele>216.75</ele><time>2026-04-22T07:57:19.297Z</time></trkpt><trkpt lat="43.2961656" lon="11.3358293"><ele>214.0</ele><time>2026-04-22T07:57:20.299Z</time></trkpt><trkpt lat="43.2961332" lon="11.3356304"><ele>213.75</ele><time>2026-04-22T07:57:21.27Z</time></trkpt><trkpt lat="43.29611" lon="11.3354254"><ele>213.5</ele><time>2026-04-22T07:57:22.293Z</time></trkpt><trkpt lat="43.2960895" lon="11.3352259"><ele>213.25</ele><time>2026-04-22T07:57:23.29Z</time></trkpt><trkpt lat="43.2960767" lon="11.3350269"><ele>213.0</ele><time>2026-04-22T07:57:24.29Z</time></trkpt><trkpt lat="43.2960727" lon="11.334822"><ele>213.0</ele><time>2026-04-22T07:57:25.276Z</time></trkpt><trkpt lat="43.2960711" lon="11.3346153"><ele>213.0</ele><time>2026-04-22T07:57:26.294Z</time></trkpt><trkpt lat="43.2960773" lon="11.334412"><ele>213.0</ele><time>2026-04-22T07:57:27.306Z</time></trkpt><trkpt lat="43.2960949" lon="11.3342128"><ele>213.0</ele><time>2026-04-22T07:57:28.283Z</time></trkpt><trkpt lat="43.2961208" lon="11.3340055"><ele>212.75</ele><time>2026-04-22T07:57:29.289Z</time></trkpt><trkpt lat="43.2961512" lon="11.3338103"><ele>212.5</ele><time>2026-04-22T07:57:30.283Z</time></trkpt><trkpt lat="43.2961864" lon="11.3336244"><ele>212.25</ele><time>2026-04-22T07:57:31.291Z</time></trkpt><trkpt lat="43.2962311" lon="11.3334433"><ele>212.0</ele><time>2026-04-22T07:57:32.304Z</time></trkpt><trkpt lat="43.2962785" lon="11.3332529"><ele>212.0</ele><time>2026-04-22T07:57:33.299Z</time></trkpt><trkpt lat="43.2963232" lon="11.3330632"><ele>212.0</ele><time>2026-04-22T07:57:34.296Z</time></trkpt><trkpt lat="43.2963785" lon="11.3328747"><ele>212.0</ele><time>2026-04-22T07:57:35.294Z</time></trkpt><trkpt lat="43.2964464" lon="11.3326974"><ele>212.0</ele><time>2026-04-22T07:57:36.297Z</time></trkpt><trkpt lat="43.2965148" lon="11.3325269"><ele>213.0</ele><time>2026-04-22T07:57:37.285Z</time></trkpt><trkpt lat="43.2965818" lon="11.3323423"><ele>214.0</ele><time>2026-04-22T07:57:38.304Z</time></trkpt><trkpt lat="43.2966545" lon="11.3321747"><ele>215.0</ele><time>2026-04-22T07:57:39.299Z</time></trkpt><trkpt lat="43.2967295" lon="11.3320039"><ele>216.0</ele><time>2026-04-22T07:57:40.301Z</time></trkpt><trkpt lat="43.2968052" lon="11.3318399"><ele>216.0</ele><time>2026-04-22T07:57:41.303Z</time></trkpt><trkpt lat="43.2968859" lon="11.3316717"><ele>216.0</ele><time>2026-04-22T07:57:42.302Z</time></trkpt><trkpt lat="43.2969669" lon="11.3315084"><ele>216.0</ele><time>2026-04-22T07:57:43.318Z</time></trkpt><trkpt lat="43.2970541" lon="11.3313393"><ele>216.0</ele><time>2026-04-22T07:57:44.293Z</time></trkpt><trkpt lat="43.2971468" lon="11.3311734"><ele>216.33333333333331</ele><time>2026-04-22T07:57:45.293Z</time></trkpt><trkpt lat="43.297249" lon="11.3310021"><ele>216.66666666666666</ele><time>2026-04-22T07:57:46.304Z</time></trkpt><trkpt lat="43.2973464" lon="11.3308335"><ele>217.0</ele><time>2026-04-22T07:57:47.301Z</time></trkpt><trkpt lat="43.2974485" lon="11.3306539"><ele>216.33333333333331</ele><time>2026-04-22T07:57:48.296Z</time></trkpt><trkpt lat="43.2975458" lon="11.3304781"><ele>215.66666666666669</ele><time>2026-04-22T07:57:49.294Z</time></trkpt><trkpt lat="43.2976466" lon="11.3303068"><ele>215.0</ele><time>2026-04-22T07:57:50.312Z</time></trkpt><trkpt lat="43.2977508" lon="11.3301361"><ele>215.0</ele><time>2026-04-22T07:57:51.308Z</time></trkpt><trkpt lat="43.2978505" lon="11.3299603"><ele>215.0</ele><time>2026-04-22T07:57:52.297Z</time></trkpt><trkpt lat="43.2979389" lon="11.3297836"><ele>215.0</ele><time>2026-04-22T07:57:53.294Z</time></trkpt><trkpt lat="43.2980337" lon="11.3296091"><ele>217.0</ele><time>2026-04-22T07:57:54.303Z</time></trkpt><trkpt lat="43.2981292" lon="11.3294312"><ele>219.0</ele><time>2026-04-22T07:57:55.301Z</time></trkpt><trkpt lat="43.2982179" lon="11.329261"><ele>221.0</ele><time>2026-04-22T07:57:56.316Z</time></trkpt><trkpt lat="43.2983093" lon="11.3290916"><ele>221.0</ele><time>2026-04-22T07:57:57.307Z</time></trkpt><trkpt lat="43.2984119" lon="11.328918"><ele>221.0</ele><time>2026-04-22T07:57:58.305Z</time></trkpt><trkpt lat="43.2985061" lon="11.3287492"><ele>221.0</ele><time>2026-04-22T07:57:59.265Z</time></trkpt><trkpt lat="43.2986005" lon="11.3285774"><ele>220.0</ele><time>2026-04-22T07:58:00.299Z</time></trkpt><trkpt lat="43.2986999" lon="11.3284045"><ele>219.0</ele><time>2026-04-22T07:58:01.302Z</time></trkpt><trkpt lat="43.2987947" lon="11.3282303"><ele>218.0</ele><time>2026-04-22T07:58:02.291Z</time></trkpt><trkpt lat="43.2988899" lon="11.3280588"><ele>217.33333333333334</ele><time>2026-04-22T07:58:03.322Z</time></trkpt><trkpt lat="43.2989834" lon="11.3278819"><ele>216.66666666666669</ele><time>2026-04-22T07:58:04.31Z</time></trkpt><trkpt lat="43.2990805" lon="11.3277086"><ele>216.0</ele><time>2026-04-22T07:58:05.295Z</time></trkpt><trkpt lat="43.2991777" lon="11.3275402"><ele>216.0</ele><time>2026-04-22T07:58:06.297Z</time></trkpt><trkpt lat="43.2992704" lon="11.3273647"><ele>216.0</ele><time>2026-04-22T07:58:07.288Z</time></trkpt><trkpt lat="43.2993652" lon="11.3271974"><ele>216.0</ele><time>2026-04-22T07:58:08.291Z</time></trkpt><trkpt lat="43.2994629" lon="11.327032"><ele>217.0</ele><time>2026-04-22T07:58:09.277Z</time></trkpt><trkpt lat="43.2995575" lon="11.3268654"><ele>218.0</ele><time>2026-04-22T07:58:10.293Z</time></trkpt><trkpt lat="43.2996491" lon="11.3266951"><ele>219.0</ele><time>2026-04-22T07:58:11.296Z</time></trkpt><trkpt lat="43.299744" lon="11.3265375"><ele>219.5</ele><time>2026-04-22T07:58:12.302Z</time></trkpt><trkpt lat="43.2998296" lon="11.3263828"><ele>220.0</ele><time>2026-04-22T07:58:13.317Z</time></trkpt><trkpt lat="43.2999114" lon="11.3262479"><ele>220.5</ele><time>2026-04-22T07:58:14.29Z</time></trkpt><trkpt lat="43.2999931" lon="11.3261315"><ele>221.0</ele><time>2026-04-22T07:58:15.306Z</time></trkpt><trkpt lat="43.3000651" lon="11.3260467"><ele>221.00000000000003</ele><time>2026-04-22T07:58:16.295Z</time></trkpt><trkpt lat="43.300138" lon="11.325977"><ele>221.0</ele><time>2026-04-22T07:58:17.291Z</time></trkpt><trkpt lat="43.3002149" lon="11.3259633"><ele>221.0</ele><time>2026-04-22T07:58:18.278Z</time></trkpt><trkpt lat="43.3002831" lon="11.3259936"><ele>221.0</ele><time>2026-04-22T07:58:19.298Z</time></trkpt><trkpt lat="43.3003446" lon="11.3260452"><ele>221.0</ele><time>2026-04-22T07:58:20.282Z</time></trkpt><trkpt lat="43.3003982" lon="11.3260926"><ele>221.00000000000003</ele><time>2026-04-22T07:58:21.304Z</time></trkpt><trkpt lat="43.3004473" lon="11.3261486"><ele>221.0</ele><time>2026-04-22T07:58:22.291Z</time></trkpt><trkpt lat="43.3005127" lon="11.3262549"><ele>221.0</ele><time>2026-04-22T07:58:24.293Z</time></trkpt><trkpt lat="43.3005118" lon="11.3263819"><ele>221.00000000000003</ele><time>2026-04-22T07:58:29.286Z</time></trkpt><trkpt lat="43.3004798" lon="11.326495"><ele>221.00000000000003</ele><time>2026-04-22T07:58:30.269Z</time></trkpt><trkpt lat="43.3004343" lon="11.3265943"><ele>221.0</ele><time>2026-04-22T07:58:31.304Z</time></trkpt><trkpt lat="43.300388" lon="11.3267172"><ele>221.0</ele><time>2026-04-22T07:58:32.279Z</time></trkpt><trkpt lat="43.3003468" lon="11.3268377"><ele>221.16666666666669</ele><time>2026-04-22T07:58:33.301Z</time></trkpt><trkpt lat="43.3002952" lon="11.3269377"><ele>221.33333333333334</ele><time>2026-04-22T07:58:34.311Z</time></trkpt><trkpt lat="43.3002246" lon="11.327012"><ele>221.5</ele><time>2026-04-22T07:58:35.284Z</time></trkpt><trkpt lat="43.3001462" lon="11.3270641"><ele>221.66666666666669</ele><time>2026-04-22T07:58:36.289Z</time></trkpt><trkpt lat="43.3000757" lon="11.3271071"><ele>221.83333333333334</ele><time>2026-04-22T07:58:37.298Z</time></trkpt><trkpt lat="43.3000218" lon="11.3271719"><ele>222.0</ele><time>2026-04-22T07:58:38.292Z</time></trkpt><trkpt lat="43.2999816" lon="11.3272629"><ele>222.16666666666666</ele><time>2026-04-22T07:58:39.298Z</time></trkpt><trkpt lat="43.2999723" lon="11.3273626"><ele>222.33333333333331</ele><time>2026-04-22T07:58:40.294Z</time></trkpt><trkpt lat="43.299985" lon="11.3274509"><ele>222.5</ele><time>2026-04-22T07:58:41.29Z</time></trkpt><trkpt lat="43.300092" lon="11.327542"><ele>222.66666666666666</ele><time>2026-04-22T07:58:43.277Z</time></trkpt><trkpt lat="43.3001613" lon="11.3275473"><ele>222.83333333333331</ele><time>2026-04-22T07:58:44.28Z</time></trkpt><trkpt lat="43.3002226" lon="11.3275065"><ele>223.0</ele><time>2026-04-22T07:58:45.307Z</time></trkpt><trkpt lat="43.3002707" lon="11.3274273"><ele>223.0</ele><time>2026-04-22T07:58:46.293Z</time></trkpt><trkpt lat="43.3003053" lon="11.3273186"><ele>223.0</ele><time>2026-04-22T07:58:47.289Z</time></trkpt><trkpt lat="43.3003351" lon="11.3271956"><ele>223.0</ele><time>2026-04-22T07:58:48.285Z</time></trkpt><trkpt lat="43.300374" lon="11.3270778"><ele>223.0</ele><time>2026-04-22T07:58:49.295Z</time></trkpt><trkpt lat="43.300432" lon="11.3269727"><ele>223.0</ele><time>2026-04-22T07:58:50.302Z</time></trkpt><trkpt lat="43.3004827" lon="11.3268507"><ele>222.8</ele><time>2026-04-22T07:58:51.303Z</time></trkpt><trkpt lat="43.3005358" lon="11.3267265"><ele>222.60000000000002</ele><time>2026-04-22T07:58:52.296Z</time></trkpt><trkpt lat="43.3005872" lon="11.3266025"><ele>222.39999999999998</ele><time>2026-04-22T07:58:53.296Z</time></trkpt><trkpt lat="43.3006395" lon="11.3264867"><ele>222.2</ele><time>2026-04-22T07:58:54.289Z</time></trkpt><trkpt lat="43.3006848" lon="11.3263736"><ele>222.0</ele><time>2026-04-22T07:58:55.294Z</time></trkpt><trkpt lat="43.3007392" lon="11.3262622"><ele>222.66666666666666</ele><time>2026-04-22T07:58:56.28Z</time></trkpt><trkpt lat="43.3008203" lon="11.326184"><ele>223.33333333333331</ele><time>2026-04-22T07:58:57.311Z</time></trkpt><trkpt lat="43.3008987" lon="11.3261416"><ele>224.0</ele><time>2026-04-22T07:58:58.295Z</time></trkpt><trkpt lat="43.3009757" lon="11.3260862"><ele>224.66666666666666</ele><time>2026-04-22T07:58:59.298Z</time></trkpt><trkpt lat="43.3010276" lon="11.3260156"><ele>225.33333333333331</ele><time>2026-04-22T07:59:00.291Z</time></trkpt><trkpt lat="43.301052" lon="11.325928"><ele>226.0</ele><time>2026-04-22T07:59:01.308Z</time></trkpt><trkpt lat="43.3010562" lon="11.325837"><ele>225.99999999999997</ele><time>2026-04-22T07:59:02.288Z</time></trkpt><trkpt lat="43.3010547" lon="11.325724"><ele>226.0</ele><time>2026-04-22T07:59:03.294Z</time></trkpt><trkpt lat="43.3010431" lon="11.3256364"><ele>226.0</ele><time>2026-04-22T07:59:04.291Z</time></trkpt><trkpt lat="43.3010266" lon="11.3255452"><ele>226.0</ele><time>2026-04-22T07:59:05.297Z</time></trkpt><trkpt lat="43.3010257" lon="11.3254562"><ele>225.99999999999997</ele><time>2026-04-22T07:59:06.288Z</time></trkpt><trkpt lat="43.3010813" lon="11.3252956"><ele>226.0</ele><time>2026-04-22T07:59:08.294Z</time></trkpt><trkpt lat="43.301139" lon="11.3251978"><ele>225.8</ele><time>2026-04-22T07:59:09.29Z</time></trkpt><trkpt lat="43.3012012" lon="11.3251164"><ele>225.60000000000002</ele><time>2026-04-22T07:59:10.276Z</time></trkpt><trkpt lat="43.3012964" lon="11.3250384"><ele>225.4</ele><time>2026-04-22T07:59:11.287Z</time></trkpt><trkpt lat="43.3013676" lon="11.3249697"><ele>225.2</ele><time>2026-04-22T07:59:12.275Z</time></trkpt><trkpt lat="43.3014503" lon="11.3249092"><ele>225.0</ele><time>2026-04-22T07:59:13.303Z</time></trkpt><trkpt lat="43.3015363" lon="11.3248423"><ele>225.0</ele><time>2026-04-22T07:59:14.294Z</time></trkpt><trkpt lat="43.3016223" lon="11.3247848"><ele>225.0</ele><time>2026-04-22T07:59:15.296Z</time></trkpt><trkpt lat="43.3017086" lon="11.3247216"><ele>225.0</ele><time>2026-04-22T07:59:16.299Z</time></trkpt><trkpt lat="43.3017998" lon="11.3246625"><ele>225.0</ele><time>2026-04-22T07:59:17.309Z</time></trkpt><trkpt lat="43.301892" lon="11.3246054"><ele>225.0</ele><time>2026-04-22T07:59:18.293Z</time></trkpt><trkpt lat="43.301976" lon="11.3245553"><ele>224.83333333333334</ele><time>2026-04-22T07:59:19.284Z</time></trkpt><trkpt lat="43.302057" lon="11.3245023"><ele>224.66666666666669</ele><time>2026-04-22T07:59:20.296Z</time></trkpt><trkpt lat="43.302128" lon="11.3244461"><ele>224.5</ele><time>2026-04-22T07:59:21.297Z</time></trkpt><trkpt lat="43.3021913" lon="11.324389"><ele>224.33333333333334</ele><time>2026-04-22T07:59:22.304Z</time></trkpt><trkpt lat="43.3022482" lon="11.3243352"><ele>224.16666666666669</ele><time>2026-04-22T07:59:23.298Z</time></trkpt><trkpt lat="43.3023258" lon="11.3242859"><ele>224.0</ele><time>2026-04-22T07:59:25.291Z</time></trkpt><trkpt lat="43.302395" lon="11.3243414"><ele>224.0</ele><time>2026-04-22T07:59:28.284Z</time></trkpt><trkpt lat="43.3024455" lon="11.3243994"><ele>224.0</ele><time>2026-04-22T07:59:31.301Z</time></trkpt><trkpt lat="43.3025114" lon="11.3244342"><ele>224.0</ele><time>2026-04-22T07:59:34.293Z</time></trkpt><trkpt lat="43.3025779" lon="11.3243971"><ele>224.0</ele><time>2026-04-22T07:59:37.282Z</time></trkpt><trkpt lat="43.3026509" lon="11.3243486"><ele>224.0</ele><time>2026-04-22T07:59:40.294Z</time></trkpt><trkpt lat="43.3027028" lon="11.3242994"><ele>224.0</ele><time>2026-04-22T07:59:43.284Z</time></trkpt></trkseg><trkseg><trkpt lat="43.3027356" lon="11.3242485"><ele>224.00000000000003</ele><time>2026-04-22T08:40:31.043Z</time></trkpt><trkpt lat="43.3027377" lon="11.3241494"><ele>224.0</ele><time>2026-04-22T08:40:39.072Z</time></trkpt><trkpt lat="43.3027354" lon="11.3240451"><ele>224.0</ele><time>2026-04-22T08:40:43.077Z</time></trkpt><trkpt lat="43.3027963" lon="11.3239726"><ele>224.0</ele><time>2026-04-22T08:40:46.035Z</time></trkpt><trkpt lat="43.3028721" lon="11.3239502"><ele>224.00000000000003</ele><time>2026-04-22T08:40:48.05Z</time></trkpt><trkpt lat="43.302984" lon="11.3238904"><ele>224.0</ele><time>2026-04-22T08:40:50.059Z</time></trkpt><trkpt lat="43.3030569" lon="11.3238478"><ele>224.2</ele><time>2026-04-22T08:40:51.078Z</time></trkpt><trkpt lat="43.3031354" lon="11.3237884"><ele>224.39999999999998</ele><time>2026-04-22T08:40:52.057Z</time></trkpt><trkpt lat="43.3032107" lon="11.3237239"><ele>224.6</ele><time>2026-04-22T08:40:53.049Z</time></trkpt><trkpt lat="43.3032875" lon="11.3236587"><ele>224.8</ele><time>2026-04-22T08:40:54.063Z</time></trkpt><trkpt lat="43.3033649" lon="11.3235912"><ele>225.0</ele><time>2026-04-22T08:40:55.062Z</time></trkpt><trkpt lat="43.3034428" lon="11.3235242"><ele>225.0</ele><time>2026-04-22T08:40:56.058Z</time></trkpt><trkpt lat="43.3035269" lon="11.3234584"><ele>225.0</ele><time>2026-04-22T08:40:57.078Z</time></trkpt><trkpt lat="43.3036075" lon="11.323395"><ele>225.0</ele><time>2026-04-22T08:40:58.074Z</time></trkpt><trkpt lat="43.3036758" lon="11.3233417"><ele>225.0</ele><time>2026-04-22T08:40:59.06Z</time></trkpt><trkpt lat="43.3037415" lon="11.3232946"><ele>225.0</ele><time>2026-04-22T08:41:00.063Z</time></trkpt><trkpt lat="43.3038023" lon="11.3232572"><ele>225.0</ele><time>2026-04-22T08:41:01.066Z</time></trkpt><trkpt lat="43.3038771" lon="11.3232387"><ele>225.6</ele><time>2026-04-22T08:41:02.056Z</time></trkpt><trkpt lat="43.3039448" lon="11.3232137"><ele>226.2</ele><time>2026-04-22T08:41:03.044Z</time></trkpt><trkpt lat="43.3040037" lon="11.3231725"><ele>226.8</ele><time>2026-04-22T08:41:04.035Z</time></trkpt><trkpt lat="43.3040851" lon="11.3230704"><ele>227.4</ele><time>2026-04-22T08:41:06.043Z</time></trkpt><trkpt lat="43.3041006" lon="11.3229243"><ele>228.0</ele><time>2026-04-22T08:41:08.048Z</time></trkpt><trkpt lat="43.3040306" lon="11.3228072"><ele>228.0</ele><time>2026-04-22T08:41:10.041Z</time></trkpt><trkpt lat="43.3039649" lon="11.3228004"><ele>228.0</ele><time>2026-04-22T08:41:11.045Z</time></trkpt><trkpt lat="43.3038687" lon="11.3228552"><ele>228.0</ele><time>2026-04-22T08:41:13.053Z</time></trkpt><trkpt lat="43.303817" lon="11.323"><ele>228.0</ele><time>2026-04-22T08:41:15.057Z</time></trkpt><trkpt lat="43.3037665" lon="11.3231557"><ele>228.0</ele><time>2026-04-22T08:41:17.059Z</time></trkpt><trkpt lat="43.3036736" lon="11.3232581"><ele>227.5</ele><time>2026-04-22T08:41:19.059Z</time></trkpt><trkpt lat="43.3036185" lon="11.3233057"><ele>227.0</ele><time>2026-04-22T08:41:20.054Z</time></trkpt><trkpt lat="43.3035576" lon="11.3233526"><ele>226.5</ele><time>2026-04-22T08:41:21.055Z</time></trkpt><trkpt lat="43.3034944" lon="11.3234131"><ele>226.0</ele><time>2026-04-22T08:41:22.064Z</time></trkpt><trkpt lat="43.3034267" lon="11.3234708"><ele>225.5</ele><time>2026-04-22T08:41:23.08Z</time></trkpt><trkpt lat="43.3033599" lon="11.3235375"><ele>225.0</ele><time>2026-04-22T08:41:24.066Z</time></trkpt><trkpt lat="43.3032963" lon="11.323597"><ele>225.0</ele><time>2026-04-22T08:41:25.068Z</time></trkpt><trkpt lat="43.3032268" lon="11.323653"><ele>225.0</ele><time>2026-04-22T08:41:26.062Z</time></trkpt><trkpt lat="43.3031534" lon="11.323711"><ele>225.0</ele><time>2026-04-22T08:41:27.06Z</time></trkpt><trkpt lat="43.3030749" lon="11.3237681"><ele>225.0</ele><time>2026-04-22T08:41:28.051Z</time></trkpt><trkpt lat="43.3029902" lon="11.3238286"><ele>225.0</ele><time>2026-04-22T08:41:29.07Z</time></trkpt><trkpt lat="43.3028905" lon="11.3238864"><ele>224.75</ele><time>2026-04-22T08:41:30.075Z</time></trkpt><trkpt lat="43.302777" lon="11.323943"><ele>224.5</ele><time>2026-04-22T08:41:31.052Z</time></trkpt><trkpt lat="43.3026613" lon="11.3240092"><ele>224.25</ele><time>2026-04-22T08:41:32.057Z</time></trkpt><trkpt lat="43.3025406" lon="11.3240804"><ele>224.0</ele><time>2026-04-22T08:41:33.078Z</time></trkpt><trkpt lat="43.3024161" lon="11.3241645"><ele>224.0</ele><time>2026-04-22T08:41:34.058Z</time></trkpt><trkpt lat="43.3022927" lon="11.3242572"><ele>224.0</ele><time>2026-04-22T08:41:35.066Z</time></trkpt><trkpt lat="43.3021765" lon="11.3243425"><ele>224.0</ele><time>2026-04-22T08:41:36.062Z</time></trkpt><trkpt lat="43.3020639" lon="11.3244269"><ele>224.0</ele><time>2026-04-22T08:41:37.042Z</time></trkpt><trkpt lat="43.3019565" lon="11.3245002"><ele>224.25</ele><time>2026-04-22T08:41:38.069Z</time></trkpt><trkpt lat="43.3018477" lon="11.3245728"><ele>224.5</ele><time>2026-04-22T08:41:39.073Z</time></trkpt><trkpt lat="43.3017367" lon="11.3246449"><ele>224.75</ele><time>2026-04-22T08:41:40.065Z</time></trkpt><trkpt lat="43.3016279" lon="11.3247219"><ele>225.0</ele><time>2026-04-22T08:41:41.056Z</time></trkpt><trkpt lat="43.3015201" lon="11.3248145"><ele>225.0</ele><time>2026-04-22T08:41:42.075Z</time></trkpt><trkpt lat="43.3014258" lon="11.3249073"><ele>225.0</ele><time>2026-04-22T08:41:43.063Z</time></trkpt><trkpt lat="43.3013289" lon="11.3249894"><ele>225.0</ele><time>2026-04-22T08:41:44.074Z</time></trkpt><trkpt lat="43.3012329" lon="11.3250693"><ele>225.0</ele><time>2026-04-22T08:41:45.059Z</time></trkpt><trkpt lat="43.3011432" lon="11.3251484"><ele>225.0</ele><time>2026-04-22T08:41:46.054Z</time></trkpt><trkpt lat="43.3010638" lon="11.3252272"><ele>224.8</ele><time>2026-04-22T08:41:47.051Z</time></trkpt><trkpt lat="43.3009928" lon="11.3253141"><ele>224.6</ele><time>2026-04-22T08:41:48.066Z</time></trkpt><trkpt lat="43.3009345" lon="11.325404"><ele>224.39999999999998</ele><time>2026-04-22T08:41:49.057Z</time></trkpt><trkpt lat="43.3008833" lon="11.3255028"><ele>224.2</ele><time>2026-04-22T08:41:50.066Z</time></trkpt><trkpt lat="43.3008315" lon="11.3256157"><ele>224.0</ele><time>2026-04-22T08:41:51.067Z</time></trkpt><trkpt lat="43.3007744" lon="11.3257397"><ele>224.39999999999998</ele><time>2026-04-22T08:41:52.08Z</time></trkpt><trkpt lat="43.3007214" lon="11.3258773"><ele>224.79999999999998</ele><time>2026-04-22T08:41:53.047Z</time></trkpt><trkpt lat="43.3006599" lon="11.3260202"><ele>225.20000000000002</ele><time>2026-04-22T08:41:54.057Z</time></trkpt><trkpt lat="43.3006141" lon="11.3261534"><ele>225.60000000000002</ele><time>2026-04-22T08:41:55.055Z</time></trkpt><trkpt lat="43.300567" lon="11.3262785"><ele>226.0</ele><time>2026-04-22T08:41:56.052Z</time></trkpt><trkpt lat="43.300519" lon="11.3263943"><ele>225.42857142857144</ele><time>2026-04-22T08:41:57.058Z</time></trkpt><trkpt lat="43.3004789" lon="11.3264961"><ele>224.85714285714283</ele><time>2026-04-22T08:41:58.052Z</time></trkpt><trkpt lat="43.3004392" lon="11.3265783"><ele>224.28571428571428</ele><time>2026-04-22T08:41:59.056Z</time></trkpt><trkpt lat="43.3003845" lon="11.3266312"><ele>223.71428571428572</ele><time>2026-04-22T08:42:00.074Z</time></trkpt><trkpt lat="43.3003212" lon="11.3266674"><ele>223.14285714285717</ele><time>2026-04-22T08:42:01.066Z</time></trkpt><trkpt lat="43.3002478" lon="11.3266628"><ele>222.57142857142856</ele><time>2026-04-22T08:42:02.059Z</time></trkpt><trkpt lat="43.3001704" lon="11.326634"><ele>222.0</ele><time>2026-04-22T08:42:03.046Z</time></trkpt><trkpt lat="43.3001026" lon="11.3266233"><ele>222.0</ele><time>2026-04-22T08:42:04.053Z</time></trkpt><trkpt lat="43.3000265" lon="11.3266379"><ele>222.0</ele><time>2026-04-22T08:42:05.064Z</time></trkpt><trkpt lat="43.2999601" lon="11.326687"><ele>222.0</ele><time>2026-04-22T08:42:06.069Z</time></trkpt><trkpt lat="43.2999094" lon="11.326775"><ele>222.0</ele><time>2026-04-22T08:42:07.06Z</time></trkpt><trkpt lat="43.2998896" lon="11.326891"><ele>222.0</ele><time>2026-04-22T08:42:08.089Z</time></trkpt><trkpt lat="43.2998682" lon="11.3270109"><ele>222.0</ele><time>2026-04-22T08:42:09.062Z</time></trkpt><trkpt lat="43.2998429" lon="11.3271422"><ele>222.16666666666666</ele><time>2026-04-22T08:42:10.047Z</time></trkpt><trkpt lat="43.2998186" lon="11.3272684"><ele>222.33333333333331</ele><time>2026-04-22T08:42:11.04Z</time></trkpt><trkpt lat="43.2997918" lon="11.3273925"><ele>222.5</ele><time>2026-04-22T08:42:12.036Z</time></trkpt><trkpt lat="43.2997679" lon="11.3275115"><ele>222.66666666666666</ele><time>2026-04-22T08:42:13.037Z</time></trkpt><trkpt lat="43.2997481" lon="11.3276293"><ele>222.83333333333331</ele><time>2026-04-22T08:42:14.039Z</time></trkpt><trkpt lat="43.2997276" lon="11.3277329"><ele>223.0</ele><time>2026-04-22T08:42:15.079Z</time></trkpt><trkpt lat="43.2997004" lon="11.3278257"><ele>222.60000000000002</ele><time>2026-04-22T08:42:16.067Z</time></trkpt><trkpt lat="43.2996556" lon="11.3279017"><ele>222.20000000000002</ele><time>2026-04-22T08:42:17.06Z</time></trkpt><trkpt lat="43.2995811" lon="11.327977"><ele>221.8</ele><time>2026-04-22T08:42:18.065Z</time></trkpt><trkpt lat="43.2994962" lon="11.328031"><ele>221.4</ele><time>2026-04-22T08:42:19.038Z</time></trkpt><trkpt lat="43.2994009" lon="11.3280568"><ele>221.0</ele><time>2026-04-22T08:42:20.041Z</time></trkpt><trkpt lat="43.2993027" lon="11.3280711"><ele>220.20000000000002</ele><time>2026-04-22T08:42:21.063Z</time></trkpt><trkpt lat="43.299205" lon="11.3280267"><ele>219.40000000000003</ele><time>2026-04-22T08:42:22.055Z</time></trkpt><trkpt lat="43.2991213" lon="11.327918"><ele>218.6</ele><time>2026-04-22T08:42:23.053Z</time></trkpt><trkpt lat="43.2990608" lon="11.3278136"><ele>217.8</ele><time>2026-04-22T08:42:24.061Z</time></trkpt><trkpt lat="43.2989882" lon="11.3276986"><ele>217.0</ele><time>2026-04-22T08:42:25.054Z</time></trkpt><trkpt lat="43.2989085" lon="11.3275882"><ele>216.99999999999997</ele><time>2026-04-22T08:42:26.054Z</time></trkpt><trkpt lat="43.2988316" lon="11.3274706"><ele>217.0</ele><time>2026-04-22T08:42:27.054Z</time></trkpt><trkpt lat="43.298768" lon="11.3273651"><ele>217.0</ele><time>2026-04-22T08:42:28.061Z</time></trkpt><trkpt lat="43.2987271" lon="11.3272708"><ele>217.0</ele><time>2026-04-22T08:42:29.066Z</time></trkpt><trkpt lat="43.2987317" lon="11.3271726"><ele>216.99999999999997</ele><time>2026-04-22T08:42:30.069Z</time></trkpt><trkpt lat="43.2987507" lon="11.3270629"><ele>217.0</ele><time>2026-04-22T08:42:31.064Z</time></trkpt><trkpt lat="43.2987842" lon="11.3269398"><ele>217.2</ele><time>2026-04-22T08:42:32.064Z</time></trkpt><trkpt lat="43.2988156" lon="11.3268056"><ele>217.39999999999998</ele><time>2026-04-22T08:42:33.06Z</time></trkpt><trkpt lat="43.2988443" lon="11.3266672"><ele>217.60000000000002</ele><time>2026-04-22T08:42:34.046Z</time></trkpt><trkpt lat="43.2988692" lon="11.3265181"><ele>217.8</ele><time>2026-04-22T08:42:35.054Z</time></trkpt><trkpt lat="43.2988953" lon="11.3263663"><ele>218.0</ele><time>2026-04-22T08:42:36.073Z</time></trkpt><trkpt lat="43.2989185" lon="11.3262072"><ele>218.0</ele><time>2026-04-22T08:42:37.05Z</time></trkpt><trkpt lat="43.2989438" lon="11.3260323"><ele>218.0</ele><time>2026-04-22T08:42:38.064Z</time></trkpt><trkpt lat="43.2989649" lon="11.3258606"><ele>218.0</ele><time>2026-04-22T08:42:39.061Z</time></trkpt><trkpt lat="43.2989882" lon="11.325696"><ele>218.0</ele><time>2026-04-22T08:42:40.04Z</time></trkpt><trkpt lat="43.299005" lon="11.325538"><ele>218.8</ele><time>2026-04-22T08:42:41.049Z</time></trkpt><trkpt lat="43.2990319" lon="11.3253851"><ele>219.60000000000002</ele><time>2026-04-22T08:42:42.057Z</time></trkpt><trkpt lat="43.2990713" lon="11.3252575"><ele>220.39999999999998</ele><time>2026-04-22T08:42:43.059Z</time></trkpt><trkpt lat="43.2991379" lon="11.3251371"><ele>221.2</ele><time>2026-04-22T08:42:44.074Z</time></trkpt><trkpt lat="43.2992189" lon="11.3250707"><ele>222.0</ele><time>2026-04-22T08:42:45.053Z</time></trkpt><trkpt lat="43.2993215" lon="11.3250371"><ele>222.0</ele><time>2026-04-22T08:42:46.082Z</time></trkpt><trkpt lat="43.2994381" lon="11.3250576"><ele>222.0</ele><time>2026-04-22T08:42:47.058Z</time></trkpt><trkpt lat="43.299545" lon="11.3250921"><ele>222.0</ele><time>2026-04-22T08:42:48.069Z</time></trkpt><trkpt lat="43.2996314" lon="11.3251704"><ele>222.0</ele><time>2026-04-22T08:42:49.053Z</time></trkpt><trkpt lat="43.2997167" lon="11.3252578"><ele>222.0</ele><time>2026-04-22T08:42:50.051Z</time></trkpt><trkpt lat="43.2997889" lon="11.3253536"><ele>222.0</ele><time>2026-04-22T08:42:51.058Z</time></trkpt><trkpt lat="43.2998684" lon="11.3254351"><ele>222.0</ele><time>2026-04-22T08:42:52.058Z</time></trkpt><trkpt lat="43.2999168" lon="11.3255365"><ele>222.0</ele><time>2026-04-22T08:42:53.054Z</time></trkpt><trkpt lat="43.2999422" lon="11.3256655"><ele>222.0</ele><time>2026-04-22T08:42:54.048Z</time></trkpt><trkpt lat="43.2999294" lon="11.3258027"><ele>222.0</ele><time>2026-04-22T08:42:55.076Z</time></trkpt><trkpt lat="43.2998899" lon="11.3259498"><ele>221.75</ele><time>2026-04-22T08:42:56.066Z</time></trkpt><trkpt lat="43.299819" lon="11.3260882"><ele>221.5</ele><time>2026-04-22T08:42:57.061Z</time></trkpt><trkpt lat="43.2997317" lon="11.3262525"><ele>221.25</ele><time>2026-04-22T08:42:58.066Z</time></trkpt><trkpt lat="43.2996453" lon="11.3264189"><ele>221.0</ele><time>2026-04-22T08:42:59.074Z</time></trkpt><trkpt lat="43.2995552" lon="11.3265962"><ele>220.33333333333334</ele><time>2026-04-22T08:43:00.068Z</time></trkpt><trkpt lat="43.2994595" lon="11.3267926"><ele>219.66666666666669</ele><time>2026-04-22T08:43:01.07Z</time></trkpt><trkpt lat="43.2993605" lon="11.3269931"><ele>219.0</ele><time>2026-04-22T08:43:02.079Z</time></trkpt><trkpt lat="43.2992487" lon="11.3271973"><ele>218.33333333333331</ele><time>2026-04-22T08:43:03.062Z</time></trkpt><trkpt lat="43.2991334" lon="11.327396"><ele>217.66666666666666</ele><time>2026-04-22T08:43:04.051Z</time></trkpt><trkpt lat="43.2990184" lon="11.3275997"><ele>217.0</ele><time>2026-04-22T08:43:05.069Z</time></trkpt><trkpt lat="43.2989057" lon="11.3278064"><ele>217.0</ele><time>2026-04-22T08:43:06.076Z</time></trkpt><trkpt lat="43.2987835" lon="11.3280255"><ele>217.0</ele><time>2026-04-22T08:43:07.08Z</time></trkpt><trkpt lat="43.2986558" lon="11.3282545"><ele>217.0</ele><time>2026-04-22T08:43:08.06Z</time></trkpt><trkpt lat="43.2985245" lon="11.3284825"><ele>217.33333333333331</ele><time>2026-04-22T08:43:09.048Z</time></trkpt><trkpt lat="43.2983974" lon="11.3287056"><ele>217.66666666666669</ele><time>2026-04-22T08:43:10.057Z</time></trkpt><trkpt lat="43.2982689" lon="11.3289279"><ele>218.0</ele><time>2026-04-22T08:43:11.058Z</time></trkpt><trkpt lat="43.2981432" lon="11.3291504"><ele>217.0</ele><time>2026-04-22T08:43:12.059Z</time></trkpt><trkpt lat="43.2980201" lon="11.3293677"><ele>216.0</ele><time>2026-04-22T08:43:13.07Z</time></trkpt><trkpt lat="43.2978934" lon="11.3295921"><ele>215.0</ele><time>2026-04-22T08:43:14.056Z</time></trkpt><trkpt lat="43.2977632" lon="11.3298156"><ele>215.0</ele><time>2026-04-22T08:43:15.083Z</time></trkpt><trkpt lat="43.2976335" lon="11.3300415"><ele>215.0</ele><time>2026-04-22T08:43:16.069Z</time></trkpt><trkpt lat="43.2975063" lon="11.3302603"><ele>215.0</ele><time>2026-04-22T08:43:17.047Z</time></trkpt><trkpt lat="43.2973804" lon="11.3304819"><ele>214.66666666666669</ele><time>2026-04-22T08:43:18.075Z</time></trkpt><trkpt lat="43.2972566" lon="11.330705"><ele>214.33333333333331</ele><time>2026-04-22T08:43:19.063Z</time></trkpt><trkpt lat="43.297127" lon="11.3309261"><ele>214.0</ele><time>2026-04-22T08:43:20.078Z</time></trkpt><trkpt lat="43.2970015" lon="11.3311496"><ele>214.0</ele><time>2026-04-22T08:43:21.057Z</time></trkpt><trkpt lat="43.2968785" lon="11.3313613"><ele>214.0</ele><time>2026-04-22T08:43:22.064Z</time></trkpt><trkpt lat="43.2967559" lon="11.3315783"><ele>214.0</ele><time>2026-04-22T08:43:23.047Z</time></trkpt><trkpt lat="43.2966293" lon="11.331794"><ele>214.66666666666666</ele><time>2026-04-22T08:43:24.078Z</time></trkpt><trkpt lat="43.2965081" lon="11.3320078"><ele>215.33333333333331</ele><time>2026-04-22T08:43:25.092Z</time></trkpt><trkpt lat="43.2963873" lon="11.3322266"><ele>216.0</ele><time>2026-04-22T08:43:26.064Z</time></trkpt><trkpt lat="43.2962711" lon="11.3324441"><ele>214.66666666666669</ele><time>2026-04-22T08:43:27.059Z</time></trkpt><trkpt lat="43.2961532" lon="11.3326592"><ele>213.33333333333334</ele><time>2026-04-22T08:43:28.042Z</time></trkpt><trkpt lat="43.2960315" lon="11.3328718"><ele>212.0</ele><time>2026-04-22T08:43:29.054Z</time></trkpt><trkpt lat="43.2959169" lon="11.3330808"><ele>212.0</ele><time>2026-04-22T08:43:30.062Z</time></trkpt><trkpt lat="43.2958026" lon="11.3332836"><ele>212.0</ele><time>2026-04-22T08:43:31.071Z</time></trkpt><trkpt lat="43.2956876" lon="11.3334815"><ele>212.0</ele><time>2026-04-22T08:43:32.069Z</time></trkpt><trkpt lat="43.2955735" lon="11.3336779"><ele>211.66666666666669</ele><time>2026-04-22T08:43:33.061Z</time></trkpt><trkpt lat="43.2954612" lon="11.3338652"><ele>211.33333333333331</ele><time>2026-04-22T08:43:34.066Z</time></trkpt><trkpt lat="43.295348" lon="11.334056"><ele>211.0</ele><time>2026-04-22T08:43:35.073Z</time></trkpt><trkpt lat="43.2952356" lon="11.3342458"><ele>211.0</ele><time>2026-04-22T08:43:36.039Z</time></trkpt><trkpt lat="43.2951235" lon="11.3344198"><ele>211.0</ele><time>2026-04-22T08:43:37.075Z</time></trkpt><trkpt lat="43.2949984" lon="11.3345949"><ele>211.0</ele><time>2026-04-22T08:43:38.067Z</time></trkpt><trkpt lat="43.2948668" lon="11.3347578"><ele>211.33333333333331</ele><time>2026-04-22T08:43:39.063Z</time></trkpt><trkpt lat="43.2947299" lon="11.3349057"><ele>211.66666666666669</ele><time>2026-04-22T08:43:40.065Z</time></trkpt><trkpt lat="43.2945846" lon="11.3350439"><ele>212.0</ele><time>2026-04-22T08:43:41.055Z</time></trkpt><trkpt lat="43.2944308" lon="11.3351588"><ele>212.0</ele><time>2026-04-22T08:43:42.041Z</time></trkpt><trkpt lat="43.294267" lon="11.3352621"><ele>212.0</ele><time>2026-04-22T08:43:43.071Z</time></trkpt><trkpt lat="43.2940984" lon="11.3353573"><ele>212.0</ele><time>2026-04-22T08:43:44.056Z</time></trkpt><trkpt lat="43.293926" lon="11.335446"><ele>212.66666666666669</ele><time>2026-04-22T08:43:45.063Z</time></trkpt><trkpt lat="43.2937522" lon="11.3355314"><ele>213.33333333333331</ele><time>2026-04-22T08:43:46.064Z</time></trkpt><trkpt lat="43.2935794" lon="11.3356196"><ele>214.0</ele><time>2026-04-22T08:43:47.06Z</time></trkpt><trkpt lat="43.2933975" lon="11.3356999"><ele>214.0</ele><time>2026-04-22T08:43:48.058Z</time></trkpt><trkpt lat="43.2932105" lon="11.3357641"><ele>214.0</ele><time>2026-04-22T08:43:49.092Z</time></trkpt><trkpt lat="43.2930197" lon="11.3358168"><ele>214.0</ele><time>2026-04-22T08:43:50.077Z</time></trkpt><trkpt lat="43.2928297" lon="11.3358624"><ele>213.0</ele><time>2026-04-22T08:43:51.054Z</time></trkpt><trkpt lat="43.2926309" lon="11.3358896"><ele>212.0</ele><time>2026-04-22T08:43:52.062Z</time></trkpt><trkpt lat="43.2924345" lon="11.3359027"><ele>211.0</ele><time>2026-04-22T08:43:53.075Z</time></trkpt><trkpt lat="43.2922433" lon="11.3359096"><ele>210.66666666666666</ele><time>2026-04-22T08:43:54.065Z</time></trkpt><trkpt lat="43.292049" lon="11.3359108"><ele>210.33333333333331</ele><time>2026-04-22T08:43:55.078Z</time></trkpt><trkpt lat="43.2918459" lon="11.3359039"><ele>210.0</ele><time>2026-04-22T08:43:56.076Z</time></trkpt><trkpt lat="43.291639" lon="11.3358913"><ele>210.0</ele><time>2026-04-22T08:43:57.073Z</time></trkpt><trkpt lat="43.2914338" lon="11.335874"><ele>210.0</ele><time>2026-04-22T08:43:58.063Z</time></trkpt><trkpt lat="43.2912225" lon="11.3358362"><ele>210.0</ele><time>2026-04-22T08:43:59.062Z</time></trkpt><trkpt lat="43.2910106" lon="11.335786"><ele>209.0</ele><time>2026-04-22T08:44:00.054Z</time></trkpt><trkpt lat="43.2908077" lon="11.3357279"><ele>208.0</ele><time>2026-04-22T08:44:01.055Z</time></trkpt><trkpt lat="43.2906003" lon="11.33566"><ele>207.0</ele><time>2026-04-22T08:44:02.081Z</time></trkpt><trkpt lat="43.290394" lon="11.3355807"><ele>208.0</ele><time>2026-04-22T08:44:03.062Z</time></trkpt><trkpt lat="43.2901947" lon="11.335489"><ele>209.0</ele><time>2026-04-22T08:44:04.057Z</time></trkpt><trkpt lat="43.2899967" lon="11.3353864"><ele>210.0</ele><time>2026-04-22T08:44:05.063Z</time></trkpt><trkpt lat="43.2898005" lon="11.3352709"><ele>208.33333333333331</ele><time>2026-04-22T08:44:06.067Z</time></trkpt><trkpt lat="43.2896113" lon="11.3351443"><ele>206.66666666666666</ele><time>2026-04-22T08:44:07.074Z</time></trkpt><trkpt lat="43.2894214" lon="11.3350082"><ele>205.0</ele><time>2026-04-22T08:44:08.067Z</time></trkpt><trkpt lat="43.2892306" lon="11.3348709"><ele>205.0</ele><time>2026-04-22T08:44:09.07Z</time></trkpt><trkpt lat="43.289041" lon="11.3347291"><ele>205.0</ele><time>2026-04-22T08:44:10.073Z</time></trkpt><trkpt lat="43.2888384" lon="11.3345923"><ele>205.0</ele><time>2026-04-22T08:44:11.053Z</time></trkpt><trkpt lat="43.2886429" lon="11.3344405"><ele>204.0</ele><time>2026-04-22T08:44:12.059Z</time></trkpt><trkpt lat="43.2884391" lon="11.3342876"><ele>203.0</ele><time>2026-04-22T08:44:13.065Z</time></trkpt><trkpt lat="43.2882364" lon="11.3341349"><ele>203.0</ele><time>2026-04-22T08:44:14.066Z</time></trkpt><trkpt lat="43.2880332" lon="11.3339871"><ele>203.0</ele><time>2026-04-22T08:44:15.072Z</time></trkpt><trkpt lat="43.2878337" lon="11.3338381"><ele>204.0</ele><time>2026-04-22T08:44:16.066Z</time></trkpt><trkpt lat="43.2876372" lon="11.3336924"><ele>205.0</ele><time>2026-04-22T08:44:17.089Z</time></trkpt><trkpt lat="43.2874406" lon="11.3335368"><ele>205.5</ele><time>2026-04-22T08:44:18.075Z</time></trkpt><trkpt lat="43.2872349" lon="11.3333878"><ele>206.0</ele><time>2026-04-22T08:44:19.071Z</time></trkpt><trkpt lat="43.2870221" lon="11.3332393"><ele>206.0</ele><time>2026-04-22T08:44:20.065Z</time></trkpt><trkpt lat="43.2868049" lon="11.3330979"><ele>206.0</ele><time>2026-04-22T08:44:21.076Z</time></trkpt><trkpt lat="43.2865759" lon="11.3329584"><ele>206.0</ele><time>2026-04-22T08:44:22.071Z</time></trkpt><trkpt lat="43.2863398" lon="11.3328384"><ele>206.0</ele><time>2026-04-22T08:44:23.055Z</time></trkpt><trkpt lat="43.2861071" lon="11.3327194"><ele>206.0</ele><time>2026-04-22T08:44:24.079Z</time></trkpt><trkpt lat="43.2858722" lon="11.3326133"><ele>206.0</ele><time>2026-04-22T08:44:25.079Z</time></trkpt><trkpt lat="43.2856337" lon="11.3325237"><ele>204.0</ele><time>2026-04-22T08:44:26.054Z</time></trkpt><trkpt lat="43.2853892" lon="11.3324355"><ele>202.0</ele><time>2026-04-22T08:44:27.071Z</time></trkpt><trkpt lat="43.2851475" lon="11.3323639"><ele>202.0</ele><time>2026-04-22T08:44:28.058Z</time></trkpt><trkpt lat="43.2849054" lon="11.332312"><ele>202.0</ele><time>2026-04-22T08:44:29.043Z</time></trkpt><trkpt lat="43.2846624" lon="11.3322683"><ele>201.5</ele><time>2026-04-22T08:44:30.05Z</time></trkpt><trkpt lat="43.2844188" lon="11.3322346"><ele>201.0</ele><time>2026-04-22T08:44:31.066Z</time></trkpt><trkpt lat="43.2841716" lon="11.3322194"><ele>204.5</ele><time>2026-04-22T08:44:32.058Z</time></trkpt><trkpt lat="43.2839297" lon="11.332218"><ele>208.0</ele><time>2026-04-22T08:44:33.072Z</time></trkpt><trkpt lat="43.2836801" lon="11.3322201"><ele>205.5</ele><time>2026-04-22T08:44:34.077Z</time></trkpt><trkpt lat="43.2834396" lon="11.3322385"><ele>203.0</ele><time>2026-04-22T08:44:35.066Z</time></trkpt><trkpt lat="43.2832054" lon="11.3322473"><ele>205.5</ele><time>2026-04-22T08:44:36.072Z</time></trkpt><trkpt lat="43.2829594" lon="11.3322654"><ele>208.0</ele><time>2026-04-22T08:44:37.086Z</time></trkpt><trkpt lat="43.2827264" lon="11.3322993"><ele>208.0</ele><time>2026-04-22T08:44:38.082Z</time></trkpt><trkpt lat="43.2824913" lon="11.3323339"><ele>208.0</ele><time>2026-04-22T08:44:39.074Z</time></trkpt><trkpt lat="43.2822558" lon="11.3323722"><ele>209.0</ele><time>2026-04-22T08:44:40.076Z</time></trkpt><trkpt lat="43.2820181" lon="11.3324"><ele>210.0</ele><time>2026-04-22T08:44:41.082Z</time></trkpt><trkpt lat="43.2817873" lon="11.3324355"><ele>210.0</ele><time>2026-04-22T08:44:42.059Z</time></trkpt><trkpt lat="43.2815503" lon="11.3324711"><ele>210.0</ele><time>2026-04-22T08:44:43.067Z</time></trkpt><trkpt lat="43.2813234" lon="11.3325038"><ele>210.0</ele><time>2026-04-22T08:44:44.072Z</time></trkpt><trkpt lat="43.2810926" lon="11.3325419"><ele>210.0</ele><time>2026-04-22T08:44:45.074Z</time></trkpt><trkpt lat="43.2808585" lon="11.3325771"><ele>210.0</ele><time>2026-04-22T08:44:46.074Z</time></trkpt><trkpt lat="43.2806292" lon="11.3326179"><ele>210.0</ele><time>2026-04-22T08:44:47.077Z</time></trkpt><trkpt lat="43.2803991" lon="11.3326543"><ele>211.0</ele><time>2026-04-22T08:44:48.084Z</time></trkpt><trkpt lat="43.2801653" lon="11.3326969"><ele>212.0</ele><time>2026-04-22T08:44:49.071Z</time></trkpt><trkpt lat="43.2799288" lon="11.332739"><ele>209.5</ele><time>2026-04-22T08:44:50.083Z</time></trkpt><trkpt lat="43.2796929" lon="11.3327751"><ele>207.0</ele><time>2026-04-22T08:44:51.07Z</time></trkpt><trkpt lat="43.2794557" lon="11.33281"><ele>207.0</ele><time>2026-04-22T08:44:52.062Z</time></trkpt><trkpt lat="43.2792255" lon="11.3328408"><ele>207.0</ele><time>2026-04-22T08:44:53.049Z</time></trkpt><trkpt lat="43.2789936" lon="11.3328708"><ele>205.5</ele><time>2026-04-22T08:44:54.048Z</time></trkpt><trkpt lat="43.278761" lon="11.3329012"><ele>204.0</ele><time>2026-04-22T08:44:55.052Z</time></trkpt><trkpt lat="43.2785254" lon="11.332936"><ele>204.0</ele><time>2026-04-22T08:44:56.065Z</time></trkpt><trkpt lat="43.2782934" lon="11.3329726"><ele>204.0</ele><time>2026-04-22T08:44:57.064Z</time></trkpt><trkpt lat="43.2780658" lon="11.3330113"><ele>206.5</ele><time>2026-04-22T08:44:58.066Z</time></trkpt><trkpt lat="43.277829" lon="11.3330487"><ele>209.0</ele><time>2026-04-22T08:44:59.057Z</time></trkpt><trkpt lat="43.2775959" lon="11.3330864"><ele>209.0</ele><time>2026-04-22T08:45:00.082Z</time></trkpt><trkpt lat="43.2773629" lon="11.3331243"><ele>209.0</ele><time>2026-04-22T08:45:01.061Z</time></trkpt><trkpt lat="43.277126" lon="11.3331665"><ele>215.0</ele><time>2026-04-22T08:45:02.081Z</time></trkpt><trkpt lat="43.2768879" lon="11.3331991"><ele>221.0</ele><time>2026-04-22T08:45:03.049Z</time></trkpt><trkpt lat="43.2766523" lon="11.3332229"><ele>222.5</ele><time>2026-04-22T08:45:04.065Z</time></trkpt><trkpt lat="43.2764186" lon="11.3332325"><ele>224.0</ele><time>2026-04-22T08:45:05.074Z</time></trkpt><trkpt lat="43.2761812" lon="11.3332366"><ele>224.0</ele><time>2026-04-22T08:45:06.073Z</time></trkpt><trkpt lat="43.2759452" lon="11.3332455"><ele>224.0</ele><time>2026-04-22T08:45:07.066Z</time></trkpt><trkpt lat="43.2757105" lon="11.3332357"><ele>225.5</ele><time>2026-04-22T08:45:08.073Z</time></trkpt><trkpt lat="43.2754753" lon="11.3332218"><ele>227.0</ele><time>2026-04-22T08:45:09.067Z</time></trkpt><trkpt lat="43.275241" lon="11.3331945"><ele>227.0</ele><time>2026-04-22T08:45:10.077Z</time></trkpt><trkpt lat="43.2750062" lon="11.3331633"><ele>227.0</ele><time>2026-04-22T08:45:11.063Z</time></trkpt><trkpt lat="43.2747681" lon="11.3331291"><ele>230.0</ele><time>2026-04-22T08:45:12.054Z</time></trkpt><trkpt lat="43.2745342" lon="11.3330824"><ele>233.0</ele><time>2026-04-22T08:45:13.07Z</time></trkpt><trkpt lat="43.2743044" lon="11.3330253"><ele>233.0</ele><time>2026-04-22T08:45:14.062Z</time></trkpt><trkpt lat="43.2740713" lon="11.3329689"><ele>233.0</ele><time>2026-04-22T08:45:15.065Z</time></trkpt><trkpt lat="43.2738339" lon="11.332908"><ele>232.0</ele><time>2026-04-22T08:45:16.039Z</time></trkpt><trkpt lat="43.2736111" lon="11.3328315"><ele>231.0</ele><time>2026-04-22T08:45:17.034Z</time></trkpt><trkpt lat="43.2733855" lon="11.3327503"><ele>231.0</ele><time>2026-04-22T08:45:18.041Z</time></trkpt><trkpt lat="43.2731417" lon="11.3326544"><ele>231.0</ele><time>2026-04-22T08:45:19.066Z</time></trkpt><trkpt lat="43.2729368" lon="11.3325378"><ele>228.5</ele><time>2026-04-22T08:45:20.064Z</time></trkpt><trkpt lat="43.2727123" lon="11.3324333"><ele>226.0</ele><time>2026-04-22T08:45:21.069Z</time></trkpt><trkpt lat="43.2724963" lon="11.3323172"><ele>229.5</ele><time>2026-04-22T08:45:22.065Z</time></trkpt><trkpt lat="43.2722731" lon="11.3321977"><ele>233.0</ele><time>2026-04-22T08:45:23.082Z</time></trkpt><trkpt lat="43.2720582" lon="11.3320844"><ele>233.0</ele><time>2026-04-22T08:45:24.077Z</time></trkpt><trkpt lat="43.2718356" lon="11.3319595"><ele>233.0</ele><time>2026-04-22T08:45:25.073Z</time></trkpt><trkpt lat="43.2716211" lon="11.3318335"><ele>234.5</ele><time>2026-04-22T08:45:26.073Z</time></trkpt><trkpt lat="43.2714017" lon="11.3317029"><ele>236.0</ele><time>2026-04-22T08:45:27.087Z</time></trkpt><trkpt lat="43.2711792" lon="11.3315801"><ele>236.0</ele><time>2026-04-22T08:45:28.062Z</time></trkpt><trkpt lat="43.270963" lon="11.3314518"><ele>236.0</ele><time>2026-04-22T08:45:29.049Z</time></trkpt><trkpt lat="43.2707492" lon="11.331314"><ele>220.0</ele><time>2026-04-22T08:45:30.076Z</time></trkpt><trkpt lat="43.2694483" lon="11.3305187"><ele>220.0</ele><time>2026-04-22T08:45:36.079Z</time></trkpt><trkpt lat="43.2692574" lon="11.330471"><ele>220.0</ele><time>2026-04-22T08:45:37.041Z</time></trkpt><trkpt lat="43.2690505" lon="11.3303551"><ele>220.0</ele><time>2026-04-22T08:45:38.037Z</time></trkpt><trkpt lat="43.2688277" lon="11.3302438"><ele>215.0</ele><time>2026-04-22T08:45:39.057Z</time></trkpt><trkpt lat="43.2686039" lon="11.3301218"><ele>210.0</ele><time>2026-04-22T08:45:40.067Z</time></trkpt><trkpt lat="43.2683725" lon="11.3300043"><ele>210.0</ele><time>2026-04-22T08:45:41.045Z</time></trkpt><trkpt lat="43.2681522" lon="11.3298867"><ele>210.0</ele><time>2026-04-22T08:45:42.083Z</time></trkpt><trkpt lat="43.2679313" lon="11.3297728"><ele>207.0</ele><time>2026-04-22T08:45:43.054Z</time></trkpt><trkpt lat="43.2677119" lon="11.3296582"><ele>204.0</ele><time>2026-04-22T08:45:44.075Z</time></trkpt><trkpt lat="43.2674832" lon="11.3295476"><ele>204.0</ele><time>2026-04-22T08:45:45.07Z</time></trkpt><trkpt lat="43.2672516" lon="11.3294538"><ele>204.0</ele><time>2026-04-22T08:45:46.065Z</time></trkpt><trkpt lat="43.267019" lon="11.3293629"><ele>204.0</ele><time>2026-04-22T08:45:47.068Z</time></trkpt><trkpt lat="43.2667837" lon="11.32929"><ele>204.0</ele><time>2026-04-22T08:45:48.057Z</time></trkpt><trkpt lat="43.26655" lon="11.3292211"><ele>203.0</ele><time>2026-04-22T08:45:49.066Z</time></trkpt><trkpt lat="43.2663139" lon="11.3291592"><ele>202.0</ele><time>2026-04-22T08:45:50.068Z</time></trkpt><trkpt lat="43.2660774" lon="11.3291067"><ele>202.0</ele><time>2026-04-22T08:45:51.084Z</time></trkpt><trkpt lat="43.2658422" lon="11.3290534"><ele>202.0</ele><time>2026-04-22T08:45:52.055Z</time></trkpt><trkpt lat="43.2655983" lon="11.3290092"><ele>201.5</ele><time>2026-04-22T08:45:53.062Z</time></trkpt><trkpt lat="43.2653529" lon="11.3289704"><ele>201.0</ele><time>2026-04-22T08:45:54.067Z</time></trkpt><trkpt lat="43.2651019" lon="11.3289414"><ele>201.0</ele><time>2026-04-22T08:45:55.093Z</time></trkpt><trkpt lat="43.2648595" lon="11.3289103"><ele>201.0</ele><time>2026-04-22T08:45:56.063Z</time></trkpt><trkpt lat="43.2646168" lon="11.3288868"><ele>202.5</ele><time>2026-04-22T08:45:57.078Z</time></trkpt><trkpt lat="43.2643669" lon="11.3288662"><ele>204.0</ele><time>2026-04-22T08:45:58.073Z</time></trkpt><trkpt lat="43.2641224" lon="11.3288393"><ele>203.5</ele><time>2026-04-22T08:45:59.076Z</time></trkpt><trkpt lat="43.2638829" lon="11.3288152"><ele>203.0</ele><time>2026-04-22T08:46:00.049Z</time></trkpt><trkpt lat="43.2636424" lon="11.3287869"><ele>203.0</ele><time>2026-04-22T08:46:01.074Z</time></trkpt><trkpt lat="43.2633959" lon="11.3287596"><ele>203.0</ele><time>2026-04-22T08:46:02.078Z</time></trkpt><trkpt lat="43.2631528" lon="11.3287271"><ele>203.5</ele><time>2026-04-22T08:46:03.071Z</time></trkpt><trkpt lat="43.2629132" lon="11.3286922"><ele>204.0</ele><time>2026-04-22T08:46:04.079Z</time></trkpt><trkpt lat="43.2626779" lon="11.3286554"><ele>204.0</ele><time>2026-04-22T08:46:05.088Z</time></trkpt><trkpt lat="43.2624389" lon="11.3286255"><ele>204.0</ele><time>2026-04-22T08:46:06.062Z</time></trkpt><trkpt lat="43.2622031" lon="11.3285878"><ele>204.0</ele><time>2026-04-22T08:46:07.073Z</time></trkpt><trkpt lat="43.2619732" lon="11.3285531"><ele>204.0</ele><time>2026-04-22T08:46:08.071Z</time></trkpt><trkpt lat="43.2617404" lon="11.3285135"><ele>204.0</ele><time>2026-04-22T08:46:09.087Z</time></trkpt><trkpt lat="43.2615103" lon="11.3284757"><ele>204.0</ele><time>2026-04-22T08:46:10.067Z</time></trkpt><trkpt lat="43.2612808" lon="11.3284186"><ele>201.5</ele><time>2026-04-22T08:46:11.081Z</time></trkpt><trkpt lat="43.2610531" lon="11.3283459"><ele>199.0</ele><time>2026-04-22T08:46:12.07Z</time></trkpt><trkpt lat="43.260826" lon="11.3282634"><ele>198.5</ele><time>2026-04-22T08:46:13.08Z</time></trkpt><trkpt lat="43.2605991" lon="11.3281689"><ele>198.0</ele><time>2026-04-22T08:46:14.069Z</time></trkpt><trkpt lat="43.2603739" lon="11.3280637"><ele>199.0</ele><time>2026-04-22T08:46:15.075Z</time></trkpt><trkpt lat="43.2601558" lon="11.3279349"><ele>200.0</ele><time>2026-04-22T08:46:16.08Z</time></trkpt><trkpt lat="43.2599399" lon="11.3278048"><ele>198.5</ele><time>2026-04-22T08:46:17.06Z</time></trkpt><trkpt lat="43.2597249" lon="11.3276627"><ele>197.0</ele><time>2026-04-22T08:46:18.071Z</time></trkpt><trkpt lat="43.2595196" lon="11.3274915"><ele>197.0</ele><time>2026-04-22T08:46:19.083Z</time></trkpt><trkpt lat="43.2593238" lon="11.3273216"><ele>197.0</ele><time>2026-04-22T08:46:20.08Z</time></trkpt><trkpt lat="43.2591284" lon="11.3271496"><ele>197.5</ele><time>2026-04-22T08:46:21.065Z</time></trkpt><trkpt lat="43.2589407" lon="11.3269649"><ele>198.0</ele><time>2026-04-22T08:46:22.072Z</time></trkpt><trkpt lat="43.2587537" lon="11.3267788"><ele>198.0</ele><time>2026-04-22T08:46:23.066Z</time></trkpt><trkpt lat="43.2585706" lon="11.3265723"><ele>198.0</ele><time>2026-04-22T08:46:24.057Z</time></trkpt><trkpt lat="43.2583915" lon="11.3263613"><ele>197.5</ele><time>2026-04-22T08:46:25.046Z</time></trkpt><trkpt lat="43.2582187" lon="11.3261357"><ele>197.0</ele><time>2026-04-22T08:46:26.082Z</time></trkpt><trkpt lat="43.2580533" lon="11.3259106"><ele>197.0</ele><time>2026-04-22T08:46:27.048Z</time></trkpt><trkpt lat="43.2578936" lon="11.3256766"><ele>197.0</ele><time>2026-04-22T08:46:28.051Z</time></trkpt><trkpt lat="43.2577345" lon="11.3254365"><ele>200.0</ele><time>2026-04-22T08:46:29.07Z</time></trkpt><trkpt lat="43.2575859" lon="11.3251889"><ele>203.0</ele><time>2026-04-22T08:46:30.081Z</time></trkpt><trkpt lat="43.2574406" lon="11.3249366"><ele>204.5</ele><time>2026-04-22T08:46:31.045Z</time></trkpt><trkpt lat="43.2573013" lon="11.3246771"><ele>206.0</ele><time>2026-04-22T08:46:32.049Z</time></trkpt><trkpt lat="43.2571663" lon="11.3244139"><ele>202.0</ele><time>2026-04-22T08:46:33.074Z</time></trkpt><trkpt lat="43.2570402" lon="11.3241421"><ele>198.0</ele><time>2026-04-22T08:46:34.055Z</time></trkpt><trkpt lat="43.2569195" lon="11.3238607"><ele>197.0</ele><time>2026-04-22T08:46:35.077Z</time></trkpt><trkpt lat="43.2568015" lon="11.3235759"><ele>196.0</ele><time>2026-04-22T08:46:36.064Z</time></trkpt><trkpt lat="43.2566959" lon="11.3232836"><ele>195.0</ele><time>2026-04-22T08:46:37.078Z</time></trkpt><trkpt lat="43.2565997" lon="11.3229879"><ele>194.0</ele><time>2026-04-22T08:46:38.079Z</time></trkpt><trkpt lat="43.2565055" lon="11.3226914"><ele>195.5</ele><time>2026-04-22T08:46:39.048Z</time></trkpt><trkpt lat="43.2564153" lon="11.3223932"><ele>197.0</ele><time>2026-04-22T08:46:40.058Z</time></trkpt><trkpt lat="43.2563239" lon="11.3220971"><ele>197.0</ele><time>2026-04-22T08:46:41.073Z</time></trkpt><trkpt lat="43.2562281" lon="11.3217978"><ele>197.0</ele><time>2026-04-22T08:46:42.062Z</time></trkpt><trkpt lat="43.2561361" lon="11.3215027"><ele>198.0</ele><time>2026-04-22T08:46:43.081Z</time></trkpt><trkpt lat="43.2560426" lon="11.3212088"><ele>199.0</ele><time>2026-04-22T08:46:44.067Z</time></trkpt><trkpt lat="43.2559476" lon="11.3209134"><ele>199.0</ele><time>2026-04-22T08:46:45.077Z</time></trkpt><trkpt lat="43.2558531" lon="11.3206176"><ele>199.0</ele><time>2026-04-22T08:46:46.068Z</time></trkpt><trkpt lat="43.2557651" lon="11.3203216"><ele>199.5</ele><time>2026-04-22T08:46:47.057Z</time></trkpt><trkpt lat="43.2556698" lon="11.3200315"><ele>200.0</ele><time>2026-04-22T08:46:48.074Z</time></trkpt><trkpt lat="43.2555831" lon="11.3197285"><ele>203.5</ele><time>2026-04-22T08:46:49.067Z</time></trkpt><trkpt lat="43.2554879" lon="11.3194312"><ele>207.0</ele><time>2026-04-22T08:46:50.072Z</time></trkpt><trkpt lat="43.2553944" lon="11.3191346"><ele>206.0</ele><time>2026-04-22T08:46:51.069Z</time></trkpt><trkpt lat="43.2553002" lon="11.3188472"><ele>205.0</ele><time>2026-04-22T08:46:52.071Z</time></trkpt><trkpt lat="43.2552057" lon="11.3185506"><ele>205.0</ele><time>2026-04-22T08:46:53.092Z</time></trkpt><trkpt lat="43.2551161" lon="11.318255"><ele>205.0</ele><time>2026-04-22T08:46:54.068Z</time></trkpt><trkpt lat="43.2550224" lon="11.3179606"><ele>204.0</ele><time>2026-04-22T08:46:55.077Z</time></trkpt><trkpt lat="43.2549301" lon="11.3176646"><ele>203.0</ele><time>2026-04-22T08:46:56.051Z</time></trkpt><trkpt lat="43.2548389" lon="11.3173702"><ele>205.0</ele><time>2026-04-22T08:46:57.062Z</time></trkpt><trkpt lat="43.2547475" lon="11.3170758"><ele>207.0</ele><time>2026-04-22T08:46:58.053Z</time></trkpt><trkpt lat="43.2546542" lon="11.3167823"><ele>207.0</ele><time>2026-04-22T08:46:59.079Z</time></trkpt><trkpt lat="43.2545634" lon="11.3164851"><ele>207.0</ele><time>2026-04-22T08:47:00.093Z</time></trkpt><trkpt lat="43.2544731" lon="11.3161891"><ele>205.5</ele><time>2026-04-22T08:47:01.075Z</time></trkpt><trkpt lat="43.2543801" lon="11.3158928"><ele>204.0</ele><time>2026-04-22T08:47:02.074Z</time></trkpt><trkpt lat="43.2542839" lon="11.3155972"><ele>202.5</ele><time>2026-04-22T08:47:03.079Z</time></trkpt><trkpt lat="43.2541895" lon="11.3153047"><ele>201.0</ele><time>2026-04-22T08:47:04.056Z</time></trkpt><trkpt lat="43.2540935" lon="11.3150046"><ele>201.5</ele><time>2026-04-22T08:47:05.063Z</time></trkpt><trkpt lat="43.2539966" lon="11.3147057"><ele>202.0</ele><time>2026-04-22T08:47:06.068Z</time></trkpt><trkpt lat="43.2539075" lon="11.3144122"><ele>202.0</ele><time>2026-04-22T08:47:07.055Z</time></trkpt><trkpt lat="43.2538162" lon="11.3141098"><ele>202.0</ele><time>2026-04-22T08:47:08.071Z</time></trkpt><trkpt lat="43.2537263" lon="11.3138024"><ele>201.0</ele><time>2026-04-22T08:47:09.072Z</time></trkpt><trkpt lat="43.253632" lon="11.3134974"><ele>200.0</ele><time>2026-04-22T08:47:10.077Z</time></trkpt><trkpt lat="43.2535356" lon="11.313199"><ele>199.5</ele><time>2026-04-22T08:47:11.073Z</time></trkpt><trkpt lat="43.2534454" lon="11.3129038"><ele>199.0</ele><time>2026-04-22T08:47:12.059Z</time></trkpt><trkpt lat="43.2533529" lon="11.3126069"><ele>199.0</ele><time>2026-04-22T08:47:13.066Z</time></trkpt><trkpt lat="43.2532598" lon="11.3123059"><ele>199.0</ele><time>2026-04-22T08:47:14.076Z</time></trkpt><trkpt lat="43.2531673" lon="11.312008"><ele>200.0</ele><time>2026-04-22T08:47:15.08Z</time></trkpt><trkpt lat="43.2530748" lon="11.3117056"><ele>201.0</ele><time>2026-04-22T08:47:16.075Z</time></trkpt><trkpt lat="43.2529799" lon="11.3114145"><ele>201.5</ele><time>2026-04-22T08:47:17.057Z</time></trkpt><trkpt lat="43.2528867" lon="11.3111122"><ele>202.0</ele><time>2026-04-22T08:47:18.079Z</time></trkpt><trkpt lat="43.2527939" lon="11.3108157"><ele>201.5</ele><time>2026-04-22T08:47:19.073Z</time></trkpt><trkpt lat="43.2526968" lon="11.3105141"><ele>201.0</ele><time>2026-04-22T08:47:20.055Z</time></trkpt><trkpt lat="43.252599" lon="11.3102167"><ele>201.0</ele><time>2026-04-22T08:47:21.066Z</time></trkpt><trkpt lat="43.2525052" lon="11.3099173"><ele>201.0</ele><time>2026-04-22T08:47:22.06Z</time></trkpt><trkpt lat="43.2524116" lon="11.3096183"><ele>201.5</ele><time>2026-04-22T08:47:23.079Z</time></trkpt><trkpt lat="43.2523164" lon="11.3093176"><ele>202.0</ele><time>2026-04-22T08:47:24.081Z</time></trkpt><trkpt lat="43.2522232" lon="11.3090143"><ele>201.5</ele><time>2026-04-22T08:47:25.077Z</time></trkpt><trkpt lat="43.2521287" lon="11.3087191"><ele>201.0</ele><time>2026-04-22T08:47:26.068Z</time></trkpt><trkpt lat="43.2520329" lon="11.30842"><ele>201.0</ele><time>2026-04-22T08:47:27.066Z</time></trkpt><trkpt lat="43.2519395" lon="11.3081176"><ele>201.0</ele><time>2026-04-22T08:47:28.057Z</time></trkpt><trkpt lat="43.2518474" lon="11.307815"><ele>201.5</ele><time>2026-04-22T08:47:29.067Z</time></trkpt><trkpt lat="43.2517575" lon="11.3075177"><ele>202.0</ele><time>2026-04-22T08:47:30.059Z</time></trkpt><trkpt lat="43.2516645" lon="11.3072189"><ele>204.0</ele><time>2026-04-22T08:47:31.06Z</time></trkpt><trkpt lat="43.2515718" lon="11.3069205"><ele>206.0</ele><time>2026-04-22T08:47:32.05Z</time></trkpt><trkpt lat="43.2514851" lon="11.3066197"><ele>205.0</ele><time>2026-04-22T08:47:33.061Z</time></trkpt><trkpt lat="43.2513968" lon="11.3063186"><ele>204.0</ele><time>2026-04-22T08:47:34.074Z</time></trkpt><trkpt lat="43.2513149" lon="11.3060153"><ele>204.0</ele><time>2026-04-22T08:47:35.054Z</time></trkpt><trkpt lat="43.2512405" lon="11.3057081"><ele>204.0</ele><time>2026-04-22T08:47:36.084Z</time></trkpt><trkpt lat="43.2511638" lon="11.3053965"><ele>205.5</ele><time>2026-04-22T08:47:37.073Z</time></trkpt><trkpt lat="43.25109" lon="11.3050845"><ele>207.0</ele><time>2026-04-22T08:47:38.037Z</time></trkpt><trkpt lat="43.2510185" lon="11.3047743"><ele>207.5</ele><time>2026-04-22T08:47:39.079Z</time></trkpt><trkpt lat="43.2509502" lon="11.3044666"><ele>208.0</ele><time>2026-04-22T08:47:40.066Z</time></trkpt><trkpt lat="43.2508834" lon="11.3041609"><ele>207.0</ele><time>2026-04-22T08:47:41.074Z</time></trkpt><trkpt lat="43.2508176" lon="11.3038465"><ele>206.0</ele><time>2026-04-22T08:47:42.057Z</time></trkpt><trkpt lat="43.250751" lon="11.3035331"><ele>206.0</ele><time>2026-04-22T08:47:43.07Z</time></trkpt><trkpt lat="43.2506883" lon="11.3032201"><ele>206.0</ele><time>2026-04-22T08:47:44.076Z</time></trkpt><trkpt lat="43.250621" lon="11.3029074"><ele>208.5</ele><time>2026-04-22T08:47:45.079Z</time></trkpt><trkpt lat="43.2505559" lon="11.3025951"><ele>211.0</ele><time>2026-04-22T08:47:46.084Z</time></trkpt><trkpt lat="43.2504899" lon="11.3022882"><ele>212.5</ele><time>2026-04-22T08:47:47.066Z</time></trkpt><trkpt lat="43.250424" lon="11.3019778"><ele>214.0</ele><time>2026-04-22T08:47:48.073Z</time></trkpt><trkpt lat="43.2503572" lon="11.3016655"><ele>212.5</ele><time>2026-04-22T08:47:49.072Z</time></trkpt><trkpt lat="43.2502936" lon="11.3013493"><ele>211.0</ele><time>2026-04-22T08:47:50.066Z</time></trkpt><trkpt lat="43.2502205" lon="11.3010419"><ele>211.0</ele><time>2026-04-22T08:47:51.079Z</time></trkpt><trkpt lat="43.25015" lon="11.3007282"><ele>211.0</ele><time>2026-04-22T08:47:52.061Z</time></trkpt><trkpt lat="43.2500831" lon="11.3004203"><ele>210.0</ele><time>2026-04-22T08:47:53.076Z</time></trkpt><trkpt lat="43.2500069" lon="11.300111"><ele>209.0</ele><time>2026-04-22T08:47:54.078Z</time></trkpt><trkpt lat="43.2499285" lon="11.2998054"><ele>210.0</ele><time>2026-04-22T08:47:55.077Z</time></trkpt><trkpt lat="43.2498482" lon="11.2995039"><ele>211.0</ele><time>2026-04-22T08:47:56.063Z</time></trkpt><trkpt lat="43.2497642" lon="11.2992032"><ele>212.0</ele><time>2026-04-22T08:47:57.08Z</time></trkpt><trkpt lat="43.2496754" lon="11.2989035"><ele>213.0</ele><time>2026-04-22T08:47:58.067Z</time></trkpt><trkpt lat="43.2495812" lon="11.2986009"><ele>213.0</ele><time>2026-04-22T08:47:59.069Z</time></trkpt><trkpt lat="43.2494872" lon="11.2982967"><ele>213.0</ele><time>2026-04-22T08:48:00.057Z</time></trkpt><trkpt lat="43.2493911" lon="11.2979941"><ele>212.0</ele><time>2026-04-22T08:48:01.073Z</time></trkpt><trkpt lat="43.2492977" lon="11.2977004"><ele>211.0</ele><time>2026-04-22T08:48:02.058Z</time></trkpt><trkpt lat="43.2492052" lon="11.2974022"><ele>211.5</ele><time>2026-04-22T08:48:03.056Z</time></trkpt><trkpt lat="43.2491181" lon="11.2971081"><ele>212.0</ele><time>2026-04-22T08:48:04.065Z</time></trkpt><trkpt lat="43.2490235" lon="11.2968151"><ele>214.0</ele><time>2026-04-22T08:48:05.078Z</time></trkpt><trkpt lat="43.2489273" lon="11.2965214"><ele>216.0</ele><time>2026-04-22T08:48:06.038Z</time></trkpt><trkpt lat="43.2488343" lon="11.2962192"><ele>216.0</ele><time>2026-04-22T08:48:07.059Z</time></trkpt><trkpt lat="43.2487382" lon="11.2959155"><ele>216.0</ele><time>2026-04-22T08:48:08.036Z</time></trkpt><trkpt lat="43.2486471" lon="11.2956131"><ele>217.5</ele><time>2026-04-22T08:48:09.062Z</time></trkpt><trkpt lat="43.2485522" lon="11.2953111"><ele>219.0</ele><time>2026-04-22T08:48:10.07Z</time></trkpt><trkpt lat="43.248458" lon="11.2950122"><ele>224.0</ele><time>2026-04-22T08:48:11.064Z</time></trkpt><trkpt lat="43.2483628" lon="11.2947181"><ele>229.0</ele><time>2026-04-22T08:48:12.054Z</time></trkpt><trkpt lat="43.2482702" lon="11.2944271"><ele>229.0</ele><time>2026-04-22T08:48:13.069Z</time></trkpt><trkpt lat="43.2481665" lon="11.2941266"><ele>229.0</ele><time>2026-04-22T08:48:14.069Z</time></trkpt><trkpt lat="43.2461303" lon="11.2901193"><ele>226.0</ele><time>2026-04-22T08:48:29.069Z</time></trkpt><trkpt lat="43.245957" lon="11.2898315"><ele>223.0</ele><time>2026-04-22T08:48:30.066Z</time></trkpt><trkpt lat="43.2458011" lon="11.2895706"><ele>223.0</ele><time>2026-04-22T08:48:31.078Z</time></trkpt><trkpt lat="43.2456491" lon="11.2893177"><ele>223.0</ele><time>2026-04-22T08:48:32.032Z</time></trkpt><trkpt lat="43.2455018" lon="11.2890605"><ele>229.0</ele><time>2026-04-22T08:48:33.036Z</time></trkpt><trkpt lat="43.2453573" lon="11.2888124"><ele>235.0</ele><time>2026-04-22T08:48:34.047Z</time></trkpt><trkpt lat="43.2452054" lon="11.2885698"><ele>211.0</ele><time>2026-04-22T08:48:35.061Z</time></trkpt><trkpt lat="43.2437565" lon="11.285961"><ele>211.0</ele><time>2026-04-22T08:48:45.073Z</time></trkpt><trkpt lat="43.243608" lon="11.2856533"><ele>211.0</ele><time>2026-04-22T08:48:46.06Z</time></trkpt><trkpt lat="43.2434555" lon="11.2854"><ele>209.5</ele><time>2026-04-22T08:48:47.063Z</time></trkpt><trkpt lat="43.2432952" lon="11.2851422"><ele>208.0</ele><time>2026-04-22T08:48:48.071Z</time></trkpt><trkpt lat="43.2431538" lon="11.2848737"><ele>204.5</ele><time>2026-04-22T08:48:49.072Z</time></trkpt><trkpt lat="43.2430111" lon="11.2846093"><ele>201.0</ele><time>2026-04-22T08:48:50.072Z</time></trkpt><trkpt lat="43.2428668" lon="11.2843469"><ele>201.0</ele><time>2026-04-22T08:48:51.084Z</time></trkpt><trkpt lat="43.2427174" lon="11.28408"><ele>201.0</ele><time>2026-04-22T08:48:52.073Z</time></trkpt><trkpt lat="43.2425682" lon="11.2838219"><ele>200.5</ele><time>2026-04-22T08:48:53.063Z</time></trkpt><trkpt lat="43.2424206" lon="11.2835641"><ele>200.0</ele><time>2026-04-22T08:48:54.073Z</time></trkpt><trkpt lat="43.2422712" lon="11.2833016"><ele>197.5</ele><time>2026-04-22T08:48:55.076Z</time></trkpt><trkpt lat="43.242119" lon="11.2830426"><ele>195.0</ele><time>2026-04-22T08:48:56.064Z</time></trkpt><trkpt lat="43.2419599" lon="11.2827863"><ele>195.0</ele><time>2026-04-22T08:48:57.069Z</time></trkpt><trkpt lat="43.2417981" lon="11.2825476"><ele>195.0</ele><time>2026-04-22T08:48:58.072Z</time></trkpt><trkpt lat="43.2416316" lon="11.2823127"><ele>193.5</ele><time>2026-04-22T08:48:59.082Z</time></trkpt><trkpt lat="43.2414568" lon="11.2820834"><ele>192.0</ele><time>2026-04-22T08:49:00.063Z</time></trkpt><trkpt lat="43.2412799" lon="11.2818646"><ele>192.0</ele><time>2026-04-22T08:49:01.048Z</time></trkpt><trkpt lat="43.2410948" lon="11.2816547"><ele>192.0</ele><time>2026-04-22T08:49:02.06Z</time></trkpt><trkpt lat="43.2409022" lon="11.2814525"><ele>191.5</ele><time>2026-04-22T08:49:03.063Z</time></trkpt><trkpt lat="43.2407083" lon="11.2812593"><ele>191.0</ele><time>2026-04-22T08:49:04.077Z</time></trkpt><trkpt lat="43.2405107" lon="11.281079"><ele>190.5</ele><time>2026-04-22T08:49:05.042Z</time></trkpt><trkpt lat="43.2403078" lon="11.2808995"><ele>190.0</ele><time>2026-04-22T08:49:06.073Z</time></trkpt><trkpt lat="43.2401054" lon="11.2807194"><ele>189.5</ele><time>2026-04-22T08:49:07.061Z</time></trkpt><trkpt lat="43.2399013" lon="11.28055"><ele>189.0</ele><time>2026-04-22T08:49:08.071Z</time></trkpt><trkpt lat="43.2396865" lon="11.2803949"><ele>188.5</ele><time>2026-04-22T08:49:09.068Z</time></trkpt><trkpt lat="43.2394628" lon="11.2802586"><ele>188.0</ele><time>2026-04-22T08:49:10.061Z</time></trkpt><trkpt lat="43.2392425" lon="11.2801291"><ele>188.0</ele><time>2026-04-22T08:49:11.066Z</time></trkpt><trkpt lat="43.2390263" lon="11.2799993"><ele>188.0</ele><time>2026-04-22T08:49:12.068Z</time></trkpt><trkpt lat="43.2388093" lon="11.2798723"><ele>187.0</ele><time>2026-04-22T08:49:13.067Z</time></trkpt><trkpt lat="43.2385897" lon="11.2797466"><ele>186.0</ele><time>2026-04-22T08:49:14.071Z</time></trkpt><trkpt lat="43.2383693" lon="11.2796248"><ele>186.0</ele><time>2026-04-22T08:49:15.065Z</time></trkpt><trkpt lat="43.2381473" lon="11.2794957"><ele>186.0</ele><time>2026-04-22T08:49:16.064Z</time></trkpt><trkpt lat="43.2379258" lon="11.2793684"><ele>186.5</ele><time>2026-04-22T08:49:17.07Z</time></trkpt><trkpt lat="43.2377015" lon="11.2792378"><ele>187.0</ele><time>2026-04-22T08:49:18.085Z</time></trkpt><trkpt lat="43.2374796" lon="11.2791061"><ele>187.0</ele><time>2026-04-22T08:49:19.081Z</time></trkpt><trkpt lat="43.2372607" lon="11.2789809"><ele>187.0</ele><time>2026-04-22T08:49:20.09Z</time></trkpt><trkpt lat="43.237041" lon="11.2788534"><ele>187.0</ele><time>2026-04-22T08:49:21.074Z</time></trkpt><trkpt lat="43.2368167" lon="11.2787289"><ele>187.0</ele><time>2026-04-22T08:49:22.064Z</time></trkpt><trkpt lat="43.2365957" lon="11.278604"><ele>188.5</ele><time>2026-04-22T08:49:23.062Z</time></trkpt><trkpt lat="43.2363715" lon="11.2784796"><ele>190.0</ele><time>2026-04-22T08:49:24.077Z</time></trkpt><trkpt lat="43.2361521" lon="11.2783483"><ele>190.0</ele><time>2026-04-22T08:49:25.081Z</time></trkpt><trkpt lat="43.2359298" lon="11.27822"><ele>190.0</ele><time>2026-04-22T08:49:26.084Z</time></trkpt><trkpt lat="43.235709" lon="11.2780913"><ele>189.5</ele><time>2026-04-22T08:49:27.059Z</time></trkpt><trkpt lat="43.2354881" lon="11.2779582"><ele>189.0</ele><time>2026-04-22T08:49:28.064Z</time></trkpt><trkpt lat="43.2352666" lon="11.2778277"><ele>189.0</ele><time>2026-04-22T08:49:29.061Z</time></trkpt><trkpt lat="43.2350481" lon="11.2777019"><ele>189.0</ele><time>2026-04-22T08:49:30.052Z</time></trkpt><trkpt lat="43.2348289" lon="11.277574"><ele>189.0</ele><time>2026-04-22T08:49:31.069Z</time></trkpt><trkpt lat="43.2346049" lon="11.2774502"><ele>189.0</ele><time>2026-04-22T08:49:32.069Z</time></trkpt><trkpt lat="43.2343821" lon="11.2773332"><ele>187.5</ele><time>2026-04-22T08:49:33.066Z</time></trkpt><trkpt lat="43.2341495" lon="11.2772217"><ele>186.0</ele><time>2026-04-22T08:49:34.041Z</time></trkpt><trkpt lat="43.2339188" lon="11.2771209"><ele>186.0</ele><time>2026-04-22T08:49:35.068Z</time></trkpt><trkpt lat="43.2336907" lon="11.2770254"><ele>186.0</ele><time>2026-04-22T08:49:36.068Z</time></trkpt><trkpt lat="43.2334605" lon="11.276933"><ele>186.0</ele><time>2026-04-22T08:49:37.091Z</time></trkpt><trkpt lat="43.2332271" lon="11.2768513"><ele>186.0</ele><time>2026-04-22T08:49:38.045Z</time></trkpt><trkpt lat="43.232992" lon="11.2767747"><ele>187.0</ele><time>2026-04-22T08:49:39.057Z</time></trkpt><trkpt lat="43.2327581" lon="11.2766962"><ele>188.0</ele><time>2026-04-22T08:49:40.076Z</time></trkpt><trkpt lat="43.2325304" lon="11.2766172"><ele>188.5</ele><time>2026-04-22T08:49:41.076Z</time></trkpt><trkpt lat="43.2322985" lon="11.2765412"><ele>189.0</ele><time>2026-04-22T08:49:42.074Z</time></trkpt><trkpt lat="43.2320609" lon="11.2764674"><ele>189.0</ele><time>2026-04-22T08:49:43.07Z</time></trkpt><trkpt lat="43.2318272" lon="11.2763887"><ele>189.0</ele><time>2026-04-22T08:49:44.067Z</time></trkpt><trkpt lat="43.2315924" lon="11.2763211"><ele>190.0</ele><time>2026-04-22T08:49:45.059Z</time></trkpt><trkpt lat="43.2313607" lon="11.2762401"><ele>191.0</ele><time>2026-04-22T08:49:46.07Z</time></trkpt><trkpt lat="43.2311239" lon="11.2761598"><ele>191.0</ele><time>2026-04-22T08:49:47.074Z</time></trkpt><trkpt lat="43.2308938" lon="11.2760844"><ele>191.0</ele><time>2026-04-22T08:49:48.08Z</time></trkpt><trkpt lat="43.23066" lon="11.276004"><ele>191.0</ele><time>2026-04-22T08:49:49.078Z</time></trkpt><trkpt lat="43.230426" lon="11.2759242"><ele>191.0</ele><time>2026-04-22T08:49:50.058Z</time></trkpt><trkpt lat="43.2301948" lon="11.2758571"><ele>191.0</ele><time>2026-04-22T08:49:51.075Z</time></trkpt><trkpt lat="43.2299629" lon="11.2757856"><ele>191.0</ele><time>2026-04-22T08:49:52.074Z</time></trkpt><trkpt lat="43.2297281" lon="11.2757072"><ele>191.0</ele><time>2026-04-22T08:49:53.058Z</time></trkpt><trkpt lat="43.2294942" lon="11.2756362"><ele>191.0</ele><time>2026-04-22T08:49:54.082Z</time></trkpt><trkpt lat="43.2292616" lon="11.2755603"><ele>191.0</ele><time>2026-04-22T08:49:55.079Z</time></trkpt><trkpt lat="43.2290466" lon="11.2754886"><ele>191.0</ele><time>2026-04-22T08:49:56.077Z</time></trkpt><trkpt lat="43.2288426" lon="11.275413"><ele>191.0</ele><time>2026-04-22T08:49:57.079Z</time></trkpt><trkpt lat="43.2286366" lon="11.2753421"><ele>191.0</ele><time>2026-04-22T08:49:58.057Z</time></trkpt><trkpt lat="43.2284289" lon="11.2752625"><ele>191.0</ele><time>2026-04-22T08:49:59.074Z</time></trkpt><trkpt lat="43.2282237" lon="11.2751817"><ele>191.0</ele><time>2026-04-22T08:50:00.089Z</time></trkpt><trkpt lat="43.2280078" lon="11.2750968"><ele>191.0</ele><time>2026-04-22T08:50:01.069Z</time></trkpt><trkpt lat="43.2277912" lon="11.2750142"><ele>191.0</ele><time>2026-04-22T08:50:02.081Z</time></trkpt><trkpt lat="43.227575" lon="11.2749377"><ele>191.0</ele><time>2026-04-22T08:50:03.095Z</time></trkpt><trkpt lat="43.2273582" lon="11.2748625"><ele>191.0</ele><time>2026-04-22T08:50:04.076Z</time></trkpt><trkpt lat="43.2271406" lon="11.2747913"><ele>191.0</ele><time>2026-04-22T08:50:05.055Z</time></trkpt><trkpt lat="43.2269195" lon="11.2747176"><ele>191.0</ele><time>2026-04-22T08:50:06.067Z</time></trkpt><trkpt lat="43.2267079" lon="11.2746447"><ele>191.0</ele><time>2026-04-22T08:50:07.066Z</time></trkpt><trkpt lat="43.2264855" lon="11.2745726"><ele>191.0</ele><time>2026-04-22T08:50:08.069Z</time></trkpt><trkpt lat="43.2262662" lon="11.2745004"><ele>191.0</ele><time>2026-04-22T08:50:09.069Z</time></trkpt><trkpt lat="43.2260492" lon="11.2744245"><ele>191.0</ele><time>2026-04-22T08:50:10.079Z</time></trkpt><trkpt lat="43.225835" lon="11.2743456"><ele>191.0</ele><time>2026-04-22T08:50:11.079Z</time></trkpt><trkpt lat="43.2256166" lon="11.2742749"><ele>192.0</ele><time>2026-04-22T08:50:12.071Z</time></trkpt><trkpt lat="43.2253926" lon="11.2741991"><ele>193.0</ele><time>2026-04-22T08:50:13.09Z</time></trkpt><trkpt lat="43.2251773" lon="11.2741204"><ele>193.0</ele><time>2026-04-22T08:50:14.079Z</time></trkpt><trkpt lat="43.224953" lon="11.2740502"><ele>193.0</ele><time>2026-04-22T08:50:15.079Z</time></trkpt><trkpt lat="43.2247288" lon="11.2739757"><ele>191.5</ele><time>2026-04-22T08:50:16.074Z</time></trkpt><trkpt lat="43.2244996" lon="11.273901"><ele>190.0</ele><time>2026-04-22T08:50:17.072Z</time></trkpt><trkpt lat="43.2242629" lon="11.2738214"><ele>190.0</ele><time>2026-04-22T08:50:18.082Z</time></trkpt><trkpt lat="43.2240289" lon="11.2737453"><ele>190.0</ele><time>2026-04-22T08:50:19.068Z</time></trkpt><trkpt lat="43.223801" lon="11.2736702"><ele>190.0</ele><time>2026-04-22T08:50:20.083Z</time></trkpt><trkpt lat="43.2235687" lon="11.2736063"><ele>190.0</ele><time>2026-04-22T08:50:21.07Z</time></trkpt><trkpt lat="43.2233383" lon="11.2735654"><ele>189.0</ele><time>2026-04-22T08:50:22.073Z</time></trkpt><trkpt lat="43.2231101" lon="11.2735517"><ele>188.0</ele><time>2026-04-22T08:50:23.055Z</time></trkpt><trkpt lat="43.2228833" lon="11.2735423"><ele>188.0</ele><time>2026-04-22T08:50:24.062Z</time></trkpt><trkpt lat="43.2226495" lon="11.2735624"><ele>188.0</ele><time>2026-04-22T08:50:25.071Z</time></trkpt><trkpt lat="43.2224319" lon="11.2736019"><ele>187.66666666666666</ele><time>2026-04-22T08:50:26.07Z</time></trkpt><trkpt lat="43.2222278" lon="11.2736724"><ele>187.33333333333334</ele><time>2026-04-22T08:50:27.072Z</time></trkpt><trkpt lat="43.2220196" lon="11.2737583"><ele>187.0</ele><time>2026-04-22T08:50:28.055Z</time></trkpt><trkpt lat="43.2218135" lon="11.2738458"><ele>187.33333333333334</ele><time>2026-04-22T08:50:29.061Z</time></trkpt><trkpt lat="43.2216102" lon="11.2739421"><ele>187.66666666666666</ele><time>2026-04-22T08:50:30.078Z</time></trkpt><trkpt lat="43.221414" lon="11.2740293"><ele>188.0</ele><time>2026-04-22T08:50:31.08Z</time></trkpt><trkpt lat="43.2212262" lon="11.2741122"><ele>188.0</ele><time>2026-04-22T08:50:32.077Z</time></trkpt><trkpt lat="43.2210447" lon="11.2741903"><ele>188.0</ele><time>2026-04-22T08:50:33.082Z</time></trkpt><trkpt lat="43.2208772" lon="11.2742597"><ele>188.0</ele><time>2026-04-22T08:50:34.084Z</time></trkpt><trkpt lat="43.2207186" lon="11.2743198"><ele>187.25</ele><time>2026-04-22T08:50:35.08Z</time></trkpt><trkpt lat="43.2205831" lon="11.2743793"><ele>186.5</ele><time>2026-04-22T08:50:36.07Z</time></trkpt><trkpt lat="43.2204634" lon="11.2744317"><ele>185.75</ele><time>2026-04-22T08:50:37.054Z</time></trkpt><trkpt lat="43.2203601" lon="11.274475"><ele>185.0</ele><time>2026-04-22T08:50:38.06Z</time></trkpt><trkpt lat="43.2202595" lon="11.2745063"><ele>185.0</ele><time>2026-04-22T08:50:39.068Z</time></trkpt><trkpt lat="43.2201633" lon="11.2745062"><ele>185.0</ele><time>2026-04-22T08:50:40.059Z</time></trkpt><trkpt lat="43.220073" lon="11.2744861"><ele>185.0</ele><time>2026-04-22T08:50:41.057Z</time></trkpt><trkpt lat="43.2199921" lon="11.2744924"><ele>185.0</ele><time>2026-04-22T08:50:42.073Z</time></trkpt><trkpt lat="43.2199073" lon="11.2745543"><ele>185.0</ele><time>2026-04-22T08:50:43.061Z</time></trkpt><trkpt lat="43.2198248" lon="11.2746236"><ele>184.75</ele><time>2026-04-22T08:50:44.06Z</time></trkpt><trkpt lat="43.2197276" lon="11.2747064"><ele>184.5</ele><time>2026-04-22T08:50:45.06Z</time></trkpt><trkpt lat="43.2196172" lon="11.2747905"><ele>184.25</ele><time>2026-04-22T08:50:46.051Z</time></trkpt><trkpt lat="43.2194966" lon="11.2748384"><ele>184.0</ele><time>2026-04-22T08:50:47.069Z</time></trkpt><trkpt lat="43.2193718" lon="11.2749"><ele>184.0</ele><time>2026-04-22T08:50:48.083Z</time></trkpt><trkpt lat="43.2192384" lon="11.2749597"><ele>184.0</ele><time>2026-04-22T08:50:49.077Z</time></trkpt><trkpt lat="43.2191055" lon="11.2750241"><ele>184.0</ele><time>2026-04-22T08:50:50.075Z</time></trkpt><trkpt lat="43.2189713" lon="11.2750755"><ele>184.0</ele><time>2026-04-22T08:50:51.068Z</time></trkpt><trkpt lat="43.2188373" lon="11.2751273"><ele>183.75</ele><time>2026-04-22T08:50:52.08Z</time></trkpt><trkpt lat="43.2186992" lon="11.2751881"><ele>183.5</ele><time>2026-04-22T08:50:53.073Z</time></trkpt><trkpt lat="43.2185577" lon="11.275243"><ele>183.25</ele><time>2026-04-22T08:50:54.084Z</time></trkpt><trkpt lat="43.2184175" lon="11.2753059"><ele>183.0</ele><time>2026-04-22T08:50:55.071Z</time></trkpt><trkpt lat="43.2182692" lon="11.2753632"><ele>182.0</ele><time>2026-04-22T08:50:56.082Z</time></trkpt><trkpt lat="43.2181209" lon="11.275429"><ele>181.0</ele><time>2026-04-22T08:50:57.075Z</time></trkpt><trkpt lat="43.2179736" lon="11.275495"><ele>180.0</ele><time>2026-04-22T08:50:58.069Z</time></trkpt><trkpt lat="43.2178219" lon="11.2755608"><ele>180.66666666666666</ele><time>2026-04-22T08:50:59.099Z</time></trkpt><trkpt lat="43.2176691" lon="11.275629"><ele>181.33333333333331</ele><time>2026-04-22T08:51:00.071Z</time></trkpt><trkpt lat="43.2175113" lon="11.2756919"><ele>182.0</ele><time>2026-04-22T08:51:01.065Z</time></trkpt><trkpt lat="43.2173489" lon="11.275758"><ele>182.0</ele><time>2026-04-22T08:51:02.093Z</time></trkpt><trkpt lat="43.2171805" lon="11.2758318"><ele>182.0</ele><time>2026-04-22T08:51:03.083Z</time></trkpt><trkpt lat="43.2170139" lon="11.2759156"><ele>182.0</ele><time>2026-04-22T08:51:04.072Z</time></trkpt><trkpt lat="43.2168452" lon="11.2759823"><ele>182.0</ele><time>2026-04-22T08:51:05.067Z</time></trkpt><trkpt lat="43.2166812" lon="11.2760536"><ele>182.0</ele><time>2026-04-22T08:51:06.067Z</time></trkpt><trkpt lat="43.2165135" lon="11.2761263"><ele>182.0</ele><time>2026-04-22T08:51:07.087Z</time></trkpt><trkpt lat="43.2163436" lon="11.2762025"><ele>181.66666666666666</ele><time>2026-04-22T08:51:08.073Z</time></trkpt><trkpt lat="43.216173" lon="11.276279"><ele>181.33333333333334</ele><time>2026-04-22T08:51:09.089Z</time></trkpt><trkpt lat="43.2159925" lon="11.276361"><ele>181.0</ele><time>2026-04-22T08:51:10.084Z</time></trkpt><trkpt lat="43.2158115" lon="11.2764367"><ele>182.0</ele><time>2026-04-22T08:51:11.046Z</time></trkpt><trkpt lat="43.2156243" lon="11.2765116"><ele>183.0</ele><time>2026-04-22T08:51:12.065Z</time></trkpt><trkpt lat="43.2154328" lon="11.2765918"><ele>184.0</ele><time>2026-04-22T08:51:13.038Z</time></trkpt><trkpt lat="43.215245" lon="11.2766703"><ele>184.0</ele><time>2026-04-22T08:51:14.083Z</time></trkpt><trkpt lat="43.2150585" lon="11.2767563"><ele>184.0</ele><time>2026-04-22T08:51:15.076Z</time></trkpt><trkpt lat="43.2148735" lon="11.2768387"><ele>184.0</ele><time>2026-04-22T08:51:16.065Z</time></trkpt><trkpt lat="43.2146821" lon="11.2769197"><ele>183.0</ele><time>2026-04-22T08:51:17.071Z</time></trkpt><trkpt lat="43.2144952" lon="11.2769909"><ele>182.0</ele><time>2026-04-22T08:51:18.069Z</time></trkpt><trkpt lat="43.2143092" lon="11.2770703"><ele>181.0</ele><time>2026-04-22T08:51:19.075Z</time></trkpt><trkpt lat="43.2141233" lon="11.277154"><ele>181.0</ele><time>2026-04-22T08:51:20.067Z</time></trkpt><trkpt lat="43.2139397" lon="11.2772349"><ele>181.0</ele><time>2026-04-22T08:51:21.058Z</time></trkpt><trkpt lat="43.2137488" lon="11.2773244"><ele>181.0</ele><time>2026-04-22T08:51:22.085Z</time></trkpt><trkpt lat="43.2135604" lon="11.2774031"><ele>181.0</ele><time>2026-04-22T08:51:23.064Z</time></trkpt><trkpt lat="43.2133771" lon="11.2774874"><ele>181.0</ele><time>2026-04-22T08:51:24.079Z</time></trkpt><trkpt lat="43.2131963" lon="11.2775686"><ele>181.0</ele><time>2026-04-22T08:51:25.082Z</time></trkpt><trkpt lat="43.2130076" lon="11.277644"><ele>180.33333333333334</ele><time>2026-04-22T08:51:26.074Z</time></trkpt><trkpt lat="43.2128293" lon="11.2777184"><ele>179.66666666666666</ele><time>2026-04-22T08:51:27.064Z</time></trkpt><trkpt lat="43.2126519" lon="11.2777946"><ele>179.0</ele><time>2026-04-22T08:51:28.076Z</time></trkpt><trkpt lat="43.2124711" lon="11.277873"><ele>179.33333333333331</ele><time>2026-04-22T08:51:29.074Z</time></trkpt><trkpt lat="43.2122911" lon="11.2779454"><ele>179.66666666666666</ele><time>2026-04-22T08:51:30.055Z</time></trkpt><trkpt lat="43.2121153" lon="11.2780214"><ele>180.0</ele><time>2026-04-22T08:51:31.078Z</time></trkpt><trkpt lat="43.2119458" lon="11.2780954"><ele>181.0</ele><time>2026-04-22T08:51:32.083Z</time></trkpt><trkpt lat="43.211776" lon="11.278169"><ele>182.0</ele><time>2026-04-22T08:51:33.075Z</time></trkpt><trkpt lat="43.2116073" lon="11.2782416"><ele>183.0</ele><time>2026-04-22T08:51:34.085Z</time></trkpt><trkpt lat="43.2114332" lon="11.2783163"><ele>183.0</ele><time>2026-04-22T08:51:35.051Z</time></trkpt><trkpt lat="43.2112645" lon="11.2783839"><ele>183.0</ele><time>2026-04-22T08:51:36.048Z</time></trkpt><trkpt lat="43.2110989" lon="11.2784583"><ele>183.0</ele><time>2026-04-22T08:51:37.074Z</time></trkpt><trkpt lat="43.2109296" lon="11.2785345"><ele>183.0</ele><time>2026-04-22T08:51:38.087Z</time></trkpt><trkpt lat="43.210764" lon="11.2786026"><ele>183.0</ele><time>2026-04-22T08:51:39.095Z</time></trkpt><trkpt lat="43.2105993" lon="11.2786706"><ele>183.0</ele><time>2026-04-22T08:51:40.063Z</time></trkpt><trkpt lat="43.2104385" lon="11.2787387"><ele>183.0</ele><time>2026-04-22T08:51:41.084Z</time></trkpt><trkpt lat="43.2102752" lon="11.2788095"><ele>183.0</ele><time>2026-04-22T08:51:42.088Z</time></trkpt><trkpt lat="43.2101127" lon="11.2788813"><ele>183.0</ele><time>2026-04-22T08:51:43.072Z</time></trkpt><trkpt lat="43.2099455" lon="11.2789522"><ele>184.0</ele><time>2026-04-22T08:51:44.065Z</time></trkpt><trkpt lat="43.2097743" lon="11.2790179"><ele>185.0</ele><time>2026-04-22T08:51:45.086Z</time></trkpt><trkpt lat="43.2096049" lon="11.2790739"><ele>186.0</ele><time>2026-04-22T08:51:46.069Z</time></trkpt><trkpt lat="43.2094325" lon="11.2791178"><ele>186.0</ele><time>2026-04-22T08:51:47.078Z</time></trkpt><trkpt lat="43.2092553" lon="11.2791364"><ele>186.0</ele><time>2026-04-22T08:51:48.066Z</time></trkpt><trkpt lat="43.2090772" lon="11.2791432"><ele>186.0</ele><time>2026-04-22T08:51:49.072Z</time></trkpt><trkpt lat="43.2088924" lon="11.27914"><ele>187.0</ele><time>2026-04-22T08:51:50.073Z</time></trkpt><trkpt lat="43.2087094" lon="11.2791351"><ele>188.0</ele><time>2026-04-22T08:51:51.089Z</time></trkpt><trkpt lat="43.208528" lon="11.2791135"><ele>189.0</ele><time>2026-04-22T08:51:52.103Z</time></trkpt><trkpt lat="43.2083516" lon="11.2790846"><ele>189.0</ele><time>2026-04-22T08:51:53.079Z</time></trkpt><trkpt lat="43.2081729" lon="11.279039"><ele>189.0</ele><time>2026-04-22T08:51:54.074Z</time></trkpt><trkpt lat="43.2079975" lon="11.2789852"><ele>189.0</ele><time>2026-04-22T08:51:55.07Z</time></trkpt><trkpt lat="43.2078296" lon="11.278921"><ele>188.66666666666666</ele><time>2026-04-22T08:51:56.072Z</time></trkpt><trkpt lat="43.2076621" lon="11.2788569"><ele>188.33333333333331</ele><time>2026-04-22T08:51:57.059Z</time></trkpt><trkpt lat="43.2075036" lon="11.2787931"><ele>188.0</ele><time>2026-04-22T08:51:58.084Z</time></trkpt><trkpt lat="43.207345" lon="11.2787266"><ele>186.33333333333331</ele><time>2026-04-22T08:51:59.067Z</time></trkpt><trkpt lat="43.2071846" lon="11.278666"><ele>184.66666666666666</ele><time>2026-04-22T08:52:00.061Z</time></trkpt><trkpt lat="43.2070245" lon="11.2786063"><ele>183.0</ele><time>2026-04-22T08:52:01.082Z</time></trkpt><trkpt lat="43.2068626" lon="11.2785479"><ele>183.0</ele><time>2026-04-22T08:52:02.081Z</time></trkpt><trkpt lat="43.2067056" lon="11.2784795"><ele>183.0</ele><time>2026-04-22T08:52:03.063Z</time></trkpt><trkpt lat="43.2065482" lon="11.2784166"><ele>183.0</ele><time>2026-04-22T08:52:04.078Z</time></trkpt><trkpt lat="43.2063826" lon="11.2783567"><ele>182.66666666666666</ele><time>2026-04-22T08:52:05.075Z</time></trkpt><trkpt lat="43.2062211" lon="11.2782862"><ele>182.33333333333331</ele><time>2026-04-22T08:52:06.085Z</time></trkpt><trkpt lat="43.2060524" lon="11.2782199"><ele>182.0</ele><time>2026-04-22T08:52:07.056Z</time></trkpt><trkpt lat="43.2058833" lon="11.2781535"><ele>182.33333333333331</ele><time>2026-04-22T08:52:08.068Z</time></trkpt><trkpt lat="43.2057228" lon="11.2780908"><ele>182.66666666666666</ele><time>2026-04-22T08:52:09.055Z</time></trkpt><trkpt lat="43.2055624" lon="11.2780202"><ele>183.0</ele><time>2026-04-22T08:52:10.072Z</time></trkpt><trkpt lat="43.2053989" lon="11.2779502"><ele>182.0</ele><time>2026-04-22T08:52:11.043Z</time></trkpt><trkpt lat="43.2052324" lon="11.277885"><ele>181.0</ele><time>2026-04-22T08:52:12.051Z</time></trkpt><trkpt lat="43.205069" lon="11.2778193"><ele>180.0</ele><time>2026-04-22T08:52:13.055Z</time></trkpt><trkpt lat="43.2049006" lon="11.2777461"><ele>180.66666666666666</ele><time>2026-04-22T08:52:14.061Z</time></trkpt><trkpt lat="43.2047343" lon="11.2776795"><ele>181.33333333333331</ele><time>2026-04-22T08:52:15.07Z</time></trkpt><trkpt lat="43.2045648" lon="11.2776114"><ele>182.0</ele><time>2026-04-22T08:52:16.066Z</time></trkpt><trkpt lat="43.2043916" lon="11.2775447"><ele>182.0</ele><time>2026-04-22T08:52:17.049Z</time></trkpt><trkpt lat="43.2042135" lon="11.2774735"><ele>182.0</ele><time>2026-04-22T08:52:18.065Z</time></trkpt><trkpt lat="43.2040399" lon="11.277401"><ele>182.0</ele><time>2026-04-22T08:52:19.075Z</time></trkpt><trkpt lat="43.2038682" lon="11.2773266"><ele>181.33333333333331</ele><time>2026-04-22T08:52:20.088Z</time></trkpt><trkpt lat="43.2036928" lon="11.2772554"><ele>180.66666666666666</ele><time>2026-04-22T08:52:21.085Z</time></trkpt><trkpt lat="43.2035175" lon="11.2771846"><ele>180.0</ele><time>2026-04-22T08:52:22.073Z</time></trkpt><trkpt lat="43.2033494" lon="11.2771116"><ele>180.0</ele><time>2026-04-22T08:52:23.064Z</time></trkpt><trkpt lat="43.2031794" lon="11.2770466"><ele>180.0</ele><time>2026-04-22T08:52:24.075Z</time></trkpt><trkpt lat="43.203013" lon="11.2769794"><ele>180.0</ele><time>2026-04-22T08:52:25.048Z</time></trkpt><trkpt lat="43.2028506" lon="11.2769172"><ele>180.33333333333334</ele><time>2026-04-22T08:52:26.051Z</time></trkpt><trkpt lat="43.2026881" lon="11.2768554"><ele>180.66666666666669</ele><time>2026-04-22T08:52:27.069Z</time></trkpt><trkpt lat="43.2025203" lon="11.2767902"><ele>181.0</ele><time>2026-04-22T08:52:28.075Z</time></trkpt><trkpt lat="43.2023494" lon="11.2767321"><ele>181.66666666666669</ele><time>2026-04-22T08:52:29.076Z</time></trkpt><trkpt lat="43.2021797" lon="11.276668"><ele>182.33333333333334</ele><time>2026-04-22T08:52:30.077Z</time></trkpt><trkpt lat="43.2020151" lon="11.2766025"><ele>183.0</ele><time>2026-04-22T08:52:31.089Z</time></trkpt><trkpt lat="43.2018678" lon="11.2765341"><ele>183.0</ele><time>2026-04-22T08:52:32.073Z</time></trkpt><trkpt lat="43.201716" lon="11.276473"><ele>183.0</ele><time>2026-04-22T08:52:33.064Z</time></trkpt><trkpt lat="43.2015637" lon="11.2764107"><ele>183.0</ele><time>2026-04-22T08:52:34.077Z</time></trkpt><trkpt lat="43.20141" lon="11.2763499"><ele>183.66666666666666</ele><time>2026-04-22T08:52:35.071Z</time></trkpt><trkpt lat="43.2012565" lon="11.2762898"><ele>184.33333333333331</ele><time>2026-04-22T08:52:36.041Z</time></trkpt><trkpt lat="43.201101" lon="11.2762301"><ele>185.0</ele><time>2026-04-22T08:52:37.082Z</time></trkpt><trkpt lat="43.2009409" lon="11.2761764"><ele>185.0</ele><time>2026-04-22T08:52:38.073Z</time></trkpt><trkpt lat="43.2007894" lon="11.2761297"><ele>185.0</ele><time>2026-04-22T08:52:39.074Z</time></trkpt><trkpt lat="43.2006328" lon="11.2760945"><ele>185.0</ele><time>2026-04-22T08:52:40.083Z</time></trkpt><trkpt lat="43.2004805" lon="11.2760703"><ele>183.66666666666666</ele><time>2026-04-22T08:52:41.063Z</time></trkpt><trkpt lat="43.200323" lon="11.2760532"><ele>182.33333333333334</ele><time>2026-04-22T08:52:42.079Z</time></trkpt><trkpt lat="43.2001616" lon="11.2760441"><ele>181.0</ele><time>2026-04-22T08:52:43.071Z</time></trkpt><trkpt lat="43.1999922" lon="11.2760442"><ele>179.66666666666669</ele><time>2026-04-22T08:52:44.065Z</time></trkpt><trkpt lat="43.1998049" lon="11.2760596"><ele>178.33333333333334</ele><time>2026-04-22T08:52:45.075Z</time></trkpt><trkpt lat="43.1996061" lon="11.2760859"><ele>177.0</ele><time>2026-04-22T08:52:46.076Z</time></trkpt><trkpt lat="43.1994133" lon="11.2761097"><ele>177.0</ele><time>2026-04-22T08:52:47.068Z</time></trkpt><trkpt lat="43.1992352" lon="11.2761354"><ele>177.0</ele><time>2026-04-22T08:52:48.068Z</time></trkpt><trkpt lat="43.1990682" lon="11.2761536"><ele>177.0</ele><time>2026-04-22T08:52:49.061Z</time></trkpt><trkpt lat="43.1989145" lon="11.2761646"><ele>176.75</ele><time>2026-04-22T08:52:50.084Z</time></trkpt><trkpt lat="43.198771" lon="11.2761914"><ele>176.5</ele><time>2026-04-22T08:52:51.07Z</time></trkpt><trkpt lat="43.1986311" lon="11.2762038"><ele>176.25</ele><time>2026-04-22T08:52:52.083Z</time></trkpt><trkpt lat="43.1984941" lon="11.2762183"><ele>176.0</ele><time>2026-04-22T08:52:53.08Z</time></trkpt><trkpt lat="43.1983492" lon="11.2762408"><ele>176.0</ele><time>2026-04-22T08:52:54.075Z</time></trkpt><trkpt lat="43.1982035" lon="11.2762639"><ele>176.0</ele><time>2026-04-22T08:52:55.048Z</time></trkpt><trkpt lat="43.1980525" lon="11.2762848"><ele>176.0</ele><time>2026-04-22T08:52:56.072Z</time></trkpt><trkpt lat="43.1979057" lon="11.2763032"><ele>176.0</ele><time>2026-04-22T08:52:57.08Z</time></trkpt><trkpt lat="43.1977498" lon="11.2763291"><ele>175.75</ele><time>2026-04-22T08:52:58.079Z</time></trkpt><trkpt lat="43.1976023" lon="11.2763461"><ele>175.5</ele><time>2026-04-22T08:52:59.079Z</time></trkpt><trkpt lat="43.1974528" lon="11.2763628"><ele>175.25</ele><time>2026-04-22T08:53:00.066Z</time></trkpt><trkpt lat="43.1973029" lon="11.2763816"><ele>175.0</ele><time>2026-04-22T08:53:01.063Z</time></trkpt><trkpt lat="43.1971559" lon="11.2763993"><ele>175.0</ele><time>2026-04-22T08:53:02.083Z</time></trkpt><trkpt lat="43.1970061" lon="11.2764166"><ele>175.0</ele><time>2026-04-22T08:53:03.041Z</time></trkpt><trkpt lat="43.1968569" lon="11.2764432"><ele>175.0</ele><time>2026-04-22T08:53:04.048Z</time></trkpt><trkpt lat="43.1967123" lon="11.276459"><ele>175.0</ele><time>2026-04-22T08:53:05.066Z</time></trkpt><trkpt lat="43.196562" lon="11.2764851"><ele>177.33333333333334</ele><time>2026-04-22T08:53:06.087Z</time></trkpt><trkpt lat="43.1964094" lon="11.2765088"><ele>179.66666666666666</ele><time>2026-04-22T08:53:07.069Z</time></trkpt><trkpt lat="43.1962512" lon="11.2765332"><ele>182.0</ele><time>2026-04-22T08:53:08.075Z</time></trkpt><trkpt lat="43.1960851" lon="11.2765599"><ele>182.0</ele><time>2026-04-22T08:53:09.066Z</time></trkpt><trkpt lat="43.1959173" lon="11.2765816"><ele>182.0</ele><time>2026-04-22T08:53:10.085Z</time></trkpt><trkpt lat="43.1957424" lon="11.2766055"><ele>182.0</ele><time>2026-04-22T08:53:11.066Z</time></trkpt><trkpt lat="43.1955721" lon="11.2766232"><ele>181.0</ele><time>2026-04-22T08:53:12.083Z</time></trkpt><trkpt lat="43.1954119" lon="11.2766471"><ele>180.0</ele><time>2026-04-22T08:53:13.063Z</time></trkpt><trkpt lat="43.1952485" lon="11.2766778"><ele>179.0</ele><time>2026-04-22T08:53:14.076Z</time></trkpt><trkpt lat="43.1950842" lon="11.2767055"><ele>179.0</ele><time>2026-04-22T08:53:15.073Z</time></trkpt><trkpt lat="43.1949121" lon="11.276736"><ele>179.0</ele><time>2026-04-22T08:53:16.057Z</time></trkpt><trkpt lat="43.1947447" lon="11.2767747"><ele>179.0</ele><time>2026-04-22T08:53:17.06Z</time></trkpt><trkpt lat="43.1945781" lon="11.2768136"><ele>179.0</ele><time>2026-04-22T08:53:18.075Z</time></trkpt><trkpt lat="43.1944226" lon="11.2768496"><ele>179.0</ele><time>2026-04-22T08:53:19.057Z</time></trkpt><trkpt lat="43.1942738" lon="11.2768984"><ele>179.0</ele><time>2026-04-22T08:53:20.078Z</time></trkpt><trkpt lat="43.1941298" lon="11.2769491"><ele>178.33333333333331</ele><time>2026-04-22T08:53:21.064Z</time></trkpt><trkpt lat="43.193987" lon="11.277018"><ele>177.66666666666666</ele><time>2026-04-22T08:53:22.08Z</time></trkpt><trkpt lat="43.1938468" lon="11.2770831"><ele>177.0</ele><time>2026-04-22T08:53:23.074Z</time></trkpt><trkpt lat="43.1937027" lon="11.2771561"><ele>177.0</ele><time>2026-04-22T08:53:24.076Z</time></trkpt><trkpt lat="43.1935627" lon="11.2772182"><ele>177.0</ele><time>2026-04-22T08:53:25.075Z</time></trkpt><trkpt lat="43.1934131" lon="11.2772865"><ele>177.0</ele><time>2026-04-22T08:53:26.066Z</time></trkpt><trkpt lat="43.1932648" lon="11.2773533"><ele>177.66666666666666</ele><time>2026-04-22T08:53:27.075Z</time></trkpt><trkpt lat="43.1931199" lon="11.2774231"><ele>178.33333333333331</ele><time>2026-04-22T08:53:28.063Z</time></trkpt><trkpt lat="43.1929802" lon="11.2774872"><ele>179.0</ele><time>2026-04-22T08:53:29.083Z</time></trkpt><trkpt lat="43.1928395" lon="11.2775563"><ele>179.0</ele><time>2026-04-22T08:53:30.059Z</time></trkpt><trkpt lat="43.1926977" lon="11.277625"><ele>179.0</ele><time>2026-04-22T08:53:31.068Z</time></trkpt><trkpt lat="43.1925515" lon="11.2776968"><ele>179.0</ele><time>2026-04-22T08:53:32.079Z</time></trkpt><trkpt lat="43.1924052" lon="11.2777703"><ele>178.66666666666666</ele><time>2026-04-22T08:53:33.089Z</time></trkpt><trkpt lat="43.1922568" lon="11.2778423"><ele>178.33333333333334</ele><time>2026-04-22T08:53:34.083Z</time></trkpt><trkpt lat="43.1921127" lon="11.2779077"><ele>178.0</ele><time>2026-04-22T08:53:35.075Z</time></trkpt><trkpt lat="43.1919627" lon="11.2779661"><ele>178.0</ele><time>2026-04-22T08:53:36.075Z</time></trkpt><trkpt lat="43.1918144" lon="11.2780095"><ele>178.0</ele><time>2026-04-22T08:53:37.062Z</time></trkpt><trkpt lat="43.1916675" lon="11.2780361"><ele>178.0</ele><time>2026-04-22T08:53:38.063Z</time></trkpt><trkpt lat="43.1915221" lon="11.2780567"><ele>178.0</ele><time>2026-04-22T08:53:39.077Z</time></trkpt><trkpt lat="43.1913733" lon="11.2780634"><ele>177.0</ele><time>2026-04-22T08:53:40.076Z</time></trkpt><trkpt lat="43.1912227" lon="11.2780499"><ele>176.0</ele><time>2026-04-22T08:53:41.089Z</time></trkpt><trkpt lat="43.1910699" lon="11.2780341"><ele>175.0</ele><time>2026-04-22T08:53:42.054Z</time></trkpt><trkpt lat="43.1909121" lon="11.2780106"><ele>175.0</ele><time>2026-04-22T08:53:43.058Z</time></trkpt><trkpt lat="43.1907602" lon="11.277979"><ele>175.0</ele><time>2026-04-22T08:53:44.053Z</time></trkpt><trkpt lat="43.190602" lon="11.2779384"><ele>175.0</ele><time>2026-04-22T08:53:45.058Z</time></trkpt><trkpt lat="43.1904281" lon="11.2778868"><ele>177.33333333333334</ele><time>2026-04-22T08:53:46.064Z</time></trkpt><trkpt lat="43.1902404" lon="11.2777976"><ele>179.66666666666666</ele><time>2026-04-22T08:53:47.056Z</time></trkpt><trkpt lat="43.1900306" lon="11.2776553"><ele>182.0</ele><time>2026-04-22T08:53:48.077Z</time></trkpt><trkpt lat="43.1897928" lon="11.2775072"><ele>179.5</ele><time>2026-04-22T08:53:49.06Z</time></trkpt><trkpt lat="43.1895637" lon="11.2773512"><ele>177.0</ele><time>2026-04-22T08:53:50.059Z</time></trkpt><trkpt lat="43.1893513" lon="11.277195"><ele>177.0</ele><time>2026-04-22T08:53:51.069Z</time></trkpt><trkpt lat="43.1891297" lon="11.277055"><ele>177.0</ele><time>2026-04-22T08:53:52.067Z</time></trkpt><trkpt lat="43.188903" lon="11.2769198"><ele>182.0</ele><time>2026-04-22T08:53:53.065Z</time></trkpt><trkpt lat="43.1886942" lon="11.2767786"><ele>187.0</ele><time>2026-04-22T08:53:54.074Z</time></trkpt><trkpt lat="43.1884847" lon="11.2766491"><ele>187.0</ele><time>2026-04-22T08:53:55.06Z</time></trkpt><trkpt lat="43.1882687" lon="11.2765564"><ele>187.0</ele><time>2026-04-22T08:53:56.043Z</time></trkpt><trkpt lat="43.1880565" lon="11.2764898"><ele>187.0</ele><time>2026-04-22T08:53:57.053Z</time></trkpt><trkpt lat="43.1878332" lon="11.2764463"><ele>187.0</ele><time>2026-04-22T08:53:58.067Z</time></trkpt><trkpt lat="43.1876145" lon="11.276433"><ele>187.0</ele><time>2026-04-22T08:53:59.057Z</time></trkpt><trkpt lat="43.187392" lon="11.2764319"><ele>187.0</ele><time>2026-04-22T08:54:00.064Z</time></trkpt><trkpt lat="43.1871644" lon="11.2764528"><ele>190.33333333333334</ele><time>2026-04-22T08:54:01.054Z</time></trkpt><trkpt lat="43.1869355" lon="11.2764746"><ele>193.66666666666669</ele><time>2026-04-22T08:54:02.05Z</time></trkpt><trkpt lat="43.1867187" lon="11.2764866"><ele>197.0</ele><time>2026-04-22T08:54:03.053Z</time></trkpt><trkpt lat="43.1864979" lon="11.2764954"><ele>198.66666666666669</ele><time>2026-04-22T08:54:04.053Z</time></trkpt><trkpt lat="43.1862872" lon="11.2765062"><ele>200.33333333333331</ele><time>2026-04-22T08:54:05.048Z</time></trkpt><trkpt lat="43.1860725" lon="11.2765164"><ele>202.0</ele><time>2026-04-22T08:54:06.077Z</time></trkpt><trkpt lat="43.1858528" lon="11.2765364"><ele>203.66666666666666</ele><time>2026-04-22T08:54:07.067Z</time></trkpt><trkpt lat="43.185633" lon="11.2765513"><ele>205.33333333333331</ele><time>2026-04-22T08:54:08.065Z</time></trkpt><trkpt lat="43.1854144" lon="11.2765617"><ele>207.0</ele><time>2026-04-22T08:54:09.071Z</time></trkpt><trkpt lat="43.1851904" lon="11.276576"><ele>207.0</ele><time>2026-04-22T08:54:10.073Z</time></trkpt><trkpt lat="43.1849698" lon="11.2765881"><ele>207.0</ele><time>2026-04-22T08:54:11.078Z</time></trkpt><trkpt lat="43.1847437" lon="11.2766074"><ele>207.0</ele><time>2026-04-22T08:54:12.078Z</time></trkpt><trkpt lat="43.1845231" lon="11.276627"><ele>206.0</ele><time>2026-04-22T08:54:13.063Z</time></trkpt><trkpt lat="43.184297" lon="11.2766431"><ele>205.0</ele><time>2026-04-22T08:54:14.081Z</time></trkpt><trkpt lat="43.1840706" lon="11.2766616"><ele>204.0</ele><time>2026-04-22T08:54:15.076Z</time></trkpt><trkpt lat="43.1838433" lon="11.2766806"><ele>203.0</ele><time>2026-04-22T08:54:16.062Z</time></trkpt><trkpt lat="43.1836189" lon="11.2766945"><ele>203.0</ele><time>2026-04-22T08:54:17.08Z</time></trkpt><trkpt lat="43.1834024" lon="11.2767068"><ele>203.0</ele><time>2026-04-22T08:54:18.077Z</time></trkpt><trkpt lat="43.1831823" lon="11.276721"><ele>203.0</ele><time>2026-04-22T08:54:19.064Z</time></trkpt><trkpt lat="43.1829633" lon="11.2767355"><ele>203.33333333333334</ele><time>2026-04-22T08:54:20.058Z</time></trkpt><trkpt lat="43.1827487" lon="11.2767504"><ele>203.66666666666669</ele><time>2026-04-22T08:54:21.056Z</time></trkpt><trkpt lat="43.1825348" lon="11.2767686"><ele>204.0</ele><time>2026-04-22T08:54:22.07Z</time></trkpt><trkpt lat="43.1823195" lon="11.2767851"><ele>204.66666666666669</ele><time>2026-04-22T08:54:23.05Z</time></trkpt><trkpt lat="43.1821041" lon="11.2768039"><ele>205.33333333333334</ele><time>2026-04-22T08:54:24.047Z</time></trkpt><trkpt lat="43.1818945" lon="11.2768193"><ele>206.0</ele><time>2026-04-22T08:54:25.071Z</time></trkpt><trkpt lat="43.181674" lon="11.2768379"><ele>206.33333333333334</ele><time>2026-04-22T08:54:26.062Z</time></trkpt><trkpt lat="43.1814575" lon="11.2768516"><ele>206.66666666666669</ele><time>2026-04-22T08:54:27.08Z</time></trkpt><trkpt lat="43.1812401" lon="11.2768651"><ele>207.0</ele><time>2026-04-22T08:54:28.065Z</time></trkpt><trkpt lat="43.1810227" lon="11.2768848"><ele>207.0</ele><time>2026-04-22T08:54:29.071Z</time></trkpt><trkpt lat="43.1808065" lon="11.2769009"><ele>207.0</ele><time>2026-04-22T08:54:30.057Z</time></trkpt><trkpt lat="43.1805892" lon="11.2769151"><ele>207.0</ele><time>2026-04-22T08:54:31.059Z</time></trkpt><trkpt lat="43.1803688" lon="11.2769253"><ele>205.0</ele><time>2026-04-22T08:54:32.073Z</time></trkpt><trkpt lat="43.1801488" lon="11.2769418"><ele>203.0</ele><time>2026-04-22T08:54:33.066Z</time></trkpt><trkpt lat="43.1799224" lon="11.2769752"><ele>201.0</ele><time>2026-04-22T08:54:34.068Z</time></trkpt><trkpt lat="43.179695" lon="11.2770333"><ele>195.5</ele><time>2026-04-22T08:54:35.055Z</time></trkpt><trkpt lat="43.1794693" lon="11.2771067"><ele>190.0</ele><time>2026-04-22T08:54:36.06Z</time></trkpt><trkpt lat="43.1792506" lon="11.2771975"><ele>188.5</ele><time>2026-04-22T08:54:37.048Z</time></trkpt><trkpt lat="43.1790334" lon="11.2773017"><ele>187.0</ele><time>2026-04-22T08:54:38.054Z</time></trkpt><trkpt lat="43.17881" lon="11.2774111"><ele>187.0</ele><time>2026-04-22T08:54:39.068Z</time></trkpt><trkpt lat="43.1785853" lon="11.2775179"><ele>187.0</ele><time>2026-04-22T08:54:40.051Z</time></trkpt><trkpt lat="43.1783665" lon="11.2776253"><ele>185.5</ele><time>2026-04-22T08:54:41.072Z</time></trkpt><trkpt lat="43.1781475" lon="11.2777423"><ele>184.0</ele><time>2026-04-22T08:54:42.07Z</time></trkpt><trkpt lat="43.1779278" lon="11.2778529"><ele>184.0</ele><time>2026-04-22T08:54:43.059Z</time></trkpt><trkpt lat="43.1777071" lon="11.2779619"><ele>184.0</ele><time>2026-04-22T08:54:44.076Z</time></trkpt><trkpt lat="43.1774857" lon="11.2780691"><ele>181.0</ele><time>2026-04-22T08:54:45.065Z</time></trkpt><trkpt lat="43.1772655" lon="11.2781777"><ele>178.0</ele><time>2026-04-22T08:54:46.067Z</time></trkpt><trkpt lat="43.177047" lon="11.2782858"><ele>178.0</ele><time>2026-04-22T08:54:47.081Z</time></trkpt><trkpt lat="43.1768322" lon="11.2783891"><ele>178.0</ele><time>2026-04-22T08:54:48.068Z</time></trkpt><trkpt lat="43.1766202" lon="11.278494"><ele>175.0</ele><time>2026-04-22T08:54:49.067Z</time></trkpt><trkpt lat="43.1764082" lon="11.2785994"><ele>172.0</ele><time>2026-04-22T08:54:50.073Z</time></trkpt><trkpt lat="43.1761979" lon="11.2787078"><ele>172.0</ele><time>2026-04-22T08:54:51.082Z</time></trkpt><trkpt lat="43.1759884" lon="11.2788132"><ele>172.0</ele><time>2026-04-22T08:54:52.077Z</time></trkpt><trkpt lat="43.1757761" lon="11.2789168"><ele>172.0</ele><time>2026-04-22T08:54:53.071Z</time></trkpt><trkpt lat="43.175568" lon="11.2790181"><ele>171.66666666666669</ele><time>2026-04-22T08:54:54.069Z</time></trkpt><trkpt lat="43.1753658" lon="11.2791181"><ele>171.33333333333334</ele><time>2026-04-22T08:54:55.08Z</time></trkpt><trkpt lat="43.1751674" lon="11.279214"><ele>171.0</ele><time>2026-04-22T08:54:56.066Z</time></trkpt><trkpt lat="43.1749713" lon="11.2793124"><ele>170.0</ele><time>2026-04-22T08:54:57.064Z</time></trkpt><trkpt lat="43.1747798" lon="11.2794044"><ele>169.0</ele><time>2026-04-22T08:54:58.06Z</time></trkpt><trkpt lat="43.1745979" lon="11.2794903"><ele>168.0</ele><time>2026-04-22T08:54:59.075Z</time></trkpt><trkpt lat="43.1744086" lon="11.2795766"><ele>168.0</ele><time>2026-04-22T08:55:00.083Z</time></trkpt><trkpt lat="43.1742246" lon="11.2796626"><ele>168.0</ele><time>2026-04-22T08:55:01.086Z</time></trkpt><trkpt lat="43.1740366" lon="11.2797507"><ele>168.0</ele><time>2026-04-22T08:55:02.075Z</time></trkpt><trkpt lat="43.1738534" lon="11.2798376"><ele>168.66666666666666</ele><time>2026-04-22T08:55:03.071Z</time></trkpt><trkpt lat="43.1736744" lon="11.2799288"><ele>169.33333333333331</ele><time>2026-04-22T08:55:04.088Z</time></trkpt><trkpt lat="43.1734963" lon="11.2800163"><ele>170.0</ele><time>2026-04-22T08:55:05.082Z</time></trkpt><trkpt lat="43.1733184" lon="11.2801072"><ele>169.0</ele><time>2026-04-22T08:55:06.087Z</time></trkpt><trkpt lat="43.1731448" lon="11.2801923"><ele>168.0</ele><time>2026-04-22T08:55:07.071Z</time></trkpt><trkpt lat="43.1729695" lon="11.2802807"><ele>167.0</ele><time>2026-04-22T08:55:08.061Z</time></trkpt><trkpt lat="43.172796" lon="11.2803643"><ele>167.0</ele><time>2026-04-22T08:55:09.077Z</time></trkpt><trkpt lat="43.1726208" lon="11.2804522"><ele>167.0</ele><time>2026-04-22T08:55:10.073Z</time></trkpt><trkpt lat="43.1724469" lon="11.2805488"><ele>167.0</ele><time>2026-04-22T08:55:11.067Z</time></trkpt><trkpt lat="43.1722727" lon="11.2806607"><ele>167.33333333333331</ele><time>2026-04-22T08:55:12.078Z</time></trkpt><trkpt lat="43.1721016" lon="11.2807848"><ele>167.66666666666666</ele><time>2026-04-22T08:55:13.067Z</time></trkpt><trkpt lat="43.1719362" lon="11.2809177"><ele>168.0</ele><time>2026-04-22T08:55:14.08Z</time></trkpt><trkpt lat="43.1717753" lon="11.281063"><ele>168.0</ele><time>2026-04-22T08:55:15.077Z</time></trkpt><trkpt lat="43.1716157" lon="11.2812211"><ele>168.0</ele><time>2026-04-22T08:55:16.068Z</time></trkpt><trkpt lat="43.1714573" lon="11.2813787"><ele>168.0</ele><time>2026-04-22T08:55:17.08Z</time></trkpt><trkpt lat="43.1713113" lon="11.2815445"><ele>167.66666666666666</ele><time>2026-04-22T08:55:18.078Z</time></trkpt><trkpt lat="43.1711641" lon="11.2817183"><ele>167.33333333333331</ele><time>2026-04-22T08:55:19.072Z</time></trkpt><trkpt lat="43.171018" lon="11.2818858"><ele>167.0</ele><time>2026-04-22T08:55:20.074Z</time></trkpt><trkpt lat="43.1708696" lon="11.2820521"><ele>167.0</ele><time>2026-04-22T08:55:21.075Z</time></trkpt><trkpt lat="43.170723" lon="11.2822226"><ele>167.0</ele><time>2026-04-22T08:55:22.067Z</time></trkpt><trkpt lat="43.1705786" lon="11.2823931"><ele>167.0</ele><time>2026-04-22T08:55:23.051Z</time></trkpt><trkpt lat="43.1704282" lon="11.282566"><ele>167.0</ele><time>2026-04-22T08:55:24.07Z</time></trkpt><trkpt lat="43.1702784" lon="11.2827336"><ele>167.0</ele><time>2026-04-22T08:55:25.077Z</time></trkpt><trkpt lat="43.170132" lon="11.2829031"><ele>167.0</ele><time>2026-04-22T08:55:26.069Z</time></trkpt><trkpt lat="43.1699869" lon="11.2830719"><ele>167.0</ele><time>2026-04-22T08:55:27.075Z</time></trkpt><trkpt lat="43.1698345" lon="11.2832398"><ele>167.0</ele><time>2026-04-22T08:55:28.079Z</time></trkpt><trkpt lat="43.169688" lon="11.2834124"><ele>167.0</ele><time>2026-04-22T08:55:29.044Z</time></trkpt><trkpt lat="43.1695381" lon="11.2835838"><ele>167.0</ele><time>2026-04-22T08:55:30.066Z</time></trkpt><trkpt lat="43.169389" lon="11.283762"><ele>167.0</ele><time>2026-04-22T08:55:31.07Z</time></trkpt><trkpt lat="43.1692404" lon="11.2839325"><ele>167.0</ele><time>2026-04-22T08:55:32.1Z</time></trkpt><trkpt lat="43.1690897" lon="11.2841053"><ele>167.66666666666666</ele><time>2026-04-22T08:55:33.085Z</time></trkpt><trkpt lat="43.1689443" lon="11.2842801"><ele>168.33333333333334</ele><time>2026-04-22T08:55:34.081Z</time></trkpt><trkpt lat="43.1687947" lon="11.2844555"><ele>169.0</ele><time>2026-04-22T08:55:35.079Z</time></trkpt><trkpt lat="43.16864" lon="11.284631"><ele>169.66666666666669</ele><time>2026-04-22T08:55:36.073Z</time></trkpt><trkpt lat="43.1684927" lon="11.2848111"><ele>170.33333333333334</ele><time>2026-04-22T08:55:37.087Z</time></trkpt><trkpt lat="43.1683443" lon="11.284986"><ele>171.0</ele><time>2026-04-22T08:55:38.086Z</time></trkpt><trkpt lat="43.1681961" lon="11.2851568"><ele>170.66666666666666</ele><time>2026-04-22T08:55:39.067Z</time></trkpt><trkpt lat="43.1680535" lon="11.2853183"><ele>170.33333333333331</ele><time>2026-04-22T08:55:40.076Z</time></trkpt><trkpt lat="43.1679062" lon="11.2854845"><ele>170.0</ele><time>2026-04-22T08:55:41.056Z</time></trkpt><trkpt lat="43.1677652" lon="11.2856568"><ele>170.33333333333331</ele><time>2026-04-22T08:55:42.077Z</time></trkpt><trkpt lat="43.1676219" lon="11.2858222"><ele>170.66666666666666</ele><time>2026-04-22T08:55:43.063Z</time></trkpt><trkpt lat="43.1674753" lon="11.2859912"><ele>171.0</ele><time>2026-04-22T08:55:44.064Z</time></trkpt><trkpt lat="43.1673281" lon="11.2861592"><ele>171.0</ele><time>2026-04-22T08:55:45.08Z</time></trkpt><trkpt lat="43.1671804" lon="11.2863198"><ele>171.0</ele><time>2026-04-22T08:55:46.066Z</time></trkpt><trkpt lat="43.1670307" lon="11.2864663"><ele>171.0</ele><time>2026-04-22T08:55:47.066Z</time></trkpt><trkpt lat="43.1668776" lon="11.2865902"><ele>171.33333333333334</ele><time>2026-04-22T08:55:48.064Z</time></trkpt><trkpt lat="43.1667259" lon="11.2867026"><ele>171.66666666666669</ele><time>2026-04-22T08:55:49.078Z</time></trkpt><trkpt lat="43.1665695" lon="11.2867996"><ele>172.0</ele><time>2026-04-22T08:55:50.087Z</time></trkpt><trkpt lat="43.1664124" lon="11.2868888"><ele>172.0</ele><time>2026-04-22T08:55:51.069Z</time></trkpt><trkpt lat="43.1662489" lon="11.2869804"><ele>172.0</ele><time>2026-04-22T08:55:52.086Z</time></trkpt><trkpt lat="43.1660887" lon="11.2870562"><ele>172.0</ele><time>2026-04-22T08:55:53.075Z</time></trkpt><trkpt lat="43.1659195" lon="11.2871127"><ele>172.0</ele><time>2026-04-22T08:55:54.087Z</time></trkpt><trkpt lat="43.1657518" lon="11.2871644"><ele>172.0</ele><time>2026-04-22T08:55:55.089Z</time></trkpt><trkpt lat="43.1655842" lon="11.2872044"><ele>172.0</ele><time>2026-04-22T08:55:56.065Z</time></trkpt><trkpt lat="43.1654136" lon="11.2872472"><ele>172.33333333333334</ele><time>2026-04-22T08:55:57.061Z</time></trkpt><trkpt lat="43.1652408" lon="11.2872964"><ele>172.66666666666666</ele><time>2026-04-22T08:55:58.057Z</time></trkpt><trkpt lat="43.1650681" lon="11.2873446"><ele>173.0</ele><time>2026-04-22T08:55:59.07Z</time></trkpt><trkpt lat="43.1648986" lon="11.287388"><ele>173.33333333333331</ele><time>2026-04-22T08:56:00.071Z</time></trkpt><trkpt lat="43.1647217" lon="11.2874356"><ele>173.66666666666666</ele><time>2026-04-22T08:56:01.07Z</time></trkpt><trkpt lat="43.1645476" lon="11.2874788"><ele>174.0</ele><time>2026-04-22T08:56:02.08Z</time></trkpt><trkpt lat="43.1643694" lon="11.2875257"><ele>174.0</ele><time>2026-04-22T08:56:03.074Z</time></trkpt><trkpt lat="43.1641884" lon="11.2875773"><ele>174.0</ele><time>2026-04-22T08:56:04.073Z</time></trkpt><trkpt lat="43.1640035" lon="11.2876258"><ele>174.0</ele><time>2026-04-22T08:56:05.089Z</time></trkpt><trkpt lat="43.1638182" lon="11.2876851"><ele>174.0</ele><time>2026-04-22T08:56:06.059Z</time></trkpt><trkpt lat="43.1636296" lon="11.2877338"><ele>174.0</ele><time>2026-04-22T08:56:07.073Z</time></trkpt><trkpt lat="43.1634395" lon="11.2877828"><ele>174.0</ele><time>2026-04-22T08:56:08.073Z</time></trkpt><trkpt lat="43.1632509" lon="11.2878345"><ele>173.0</ele><time>2026-04-22T08:56:09.088Z</time></trkpt><trkpt lat="43.16306" lon="11.2878944"><ele>172.0</ele><time>2026-04-22T08:56:10.067Z</time></trkpt><trkpt lat="43.1628726" lon="11.2879597"><ele>171.0</ele><time>2026-04-22T08:56:11.055Z</time></trkpt><trkpt lat="43.1626837" lon="11.2880331"><ele>171.0</ele><time>2026-04-22T08:56:12.054Z</time></trkpt><trkpt lat="43.1625061" lon="11.2881257"><ele>171.0</ele><time>2026-04-22T08:56:13.076Z</time></trkpt><trkpt lat="43.1623269" lon="11.2882257"><ele>171.0</ele><time>2026-04-22T08:56:14.078Z</time></trkpt><trkpt lat="43.1621447" lon="11.2883335"><ele>171.0</ele><time>2026-04-22T08:56:15.082Z</time></trkpt><trkpt lat="43.1619705" lon="11.2884391"><ele>171.0</ele><time>2026-04-22T08:56:16.075Z</time></trkpt><trkpt lat="43.161796" lon="11.2885543"><ele>171.0</ele><time>2026-04-22T08:56:17.083Z</time></trkpt><trkpt lat="43.1616176" lon="11.2886693"><ele>170.33333333333334</ele><time>2026-04-22T08:56:18.079Z</time></trkpt><trkpt lat="43.161441" lon="11.2887871"><ele>169.66666666666669</ele><time>2026-04-22T08:56:19.071Z</time></trkpt><trkpt lat="43.1612676" lon="11.2888982"><ele>169.0</ele><time>2026-04-22T08:56:20.068Z</time></trkpt><trkpt lat="43.1610913" lon="11.2890167"><ele>169.0</ele><time>2026-04-22T08:56:21.086Z</time></trkpt><trkpt lat="43.160924" lon="11.2891275"><ele>169.0</ele><time>2026-04-22T08:56:22.07Z</time></trkpt><trkpt lat="43.1607529" lon="11.2892358"><ele>169.0</ele><time>2026-04-22T08:56:23.064Z</time></trkpt><trkpt lat="43.1605835" lon="11.2893481"><ele>168.66666666666669</ele><time>2026-04-22T08:56:24.083Z</time></trkpt><trkpt lat="43.160415" lon="11.2894645"><ele>168.33333333333334</ele><time>2026-04-22T08:56:25.046Z</time></trkpt><trkpt lat="43.1602485" lon="11.2895796"><ele>168.0</ele><time>2026-04-22T08:56:26.047Z</time></trkpt><trkpt lat="43.160076" lon="11.2896933"><ele>168.0</ele><time>2026-04-22T08:56:27.059Z</time></trkpt><trkpt lat="43.1599109" lon="11.2898025"><ele>168.0</ele><time>2026-04-22T08:56:28.078Z</time></trkpt><trkpt lat="43.1597436" lon="11.2899093"><ele>168.0</ele><time>2026-04-22T08:56:29.083Z</time></trkpt><trkpt lat="43.1595744" lon="11.2900172"><ele>168.0</ele><time>2026-04-22T08:56:30.073Z</time></trkpt><trkpt lat="43.1594053" lon="11.2901269"><ele>168.0</ele><time>2026-04-22T08:56:31.079Z</time></trkpt><trkpt lat="43.1592429" lon="11.290236"><ele>168.0</ele><time>2026-04-22T08:56:32.088Z</time></trkpt><trkpt lat="43.1590831" lon="11.2903504"><ele>167.66666666666666</ele><time>2026-04-22T08:56:33.054Z</time></trkpt><trkpt lat="43.1589243" lon="11.2904557"><ele>167.33333333333331</ele><time>2026-04-22T08:56:34.062Z</time></trkpt><trkpt lat="43.1587574" lon="11.2905644"><ele>167.0</ele><time>2026-04-22T08:56:35.049Z</time></trkpt><trkpt lat="43.15859" lon="11.2906558"><ele>167.33333333333331</ele><time>2026-04-22T08:56:36.066Z</time></trkpt><trkpt lat="43.1584155" lon="11.2907407"><ele>167.66666666666666</ele><time>2026-04-22T08:56:37.065Z</time></trkpt><trkpt lat="43.158235" lon="11.2907956"><ele>168.0</ele><time>2026-04-22T08:56:38.055Z</time></trkpt><trkpt lat="43.1580495" lon="11.290852"><ele>168.0</ele><time>2026-04-22T08:56:39.067Z</time></trkpt><trkpt lat="43.1578684" lon="11.2908775"><ele>168.0</ele><time>2026-04-22T08:56:40.05Z</time></trkpt><trkpt lat="43.1576852" lon="11.2908837"><ele>168.0</ele><time>2026-04-22T08:56:41.066Z</time></trkpt><trkpt lat="43.1574973" lon="11.2908788"><ele>168.33333333333334</ele><time>2026-04-22T08:56:42.063Z</time></trkpt><trkpt lat="43.157309" lon="11.2908647"><ele>168.66666666666669</ele><time>2026-04-22T08:56:43.078Z</time></trkpt><trkpt lat="43.1571265" lon="11.2908209"><ele>169.0</ele><time>2026-04-22T08:56:44.071Z</time></trkpt><trkpt lat="43.1569438" lon="11.2907667"><ele>169.0</ele><time>2026-04-22T08:56:45.073Z</time></trkpt><trkpt lat="43.1567669" lon="11.2906895"><ele>169.0</ele><time>2026-04-22T08:56:46.075Z</time></trkpt><trkpt lat="43.1565923" lon="11.2906078"><ele>169.0</ele><time>2026-04-22T08:56:47.052Z</time></trkpt><trkpt lat="43.1564148" lon="11.2905309"><ele>168.0</ele><time>2026-04-22T08:56:48.074Z</time></trkpt><trkpt lat="43.1562336" lon="11.2904599"><ele>167.0</ele><time>2026-04-22T08:56:49.071Z</time></trkpt><trkpt lat="43.1560569" lon="11.2903938"><ele>166.0</ele><time>2026-04-22T08:56:50.071Z</time></trkpt><trkpt lat="43.1558813" lon="11.2903208"><ele>166.0</ele><time>2026-04-22T08:56:51.066Z</time></trkpt><trkpt lat="43.1557076" lon="11.2902502"><ele>166.0</ele><time>2026-04-22T08:56:52.07Z</time></trkpt><trkpt lat="43.1555319" lon="11.2901721"><ele>166.0</ele><time>2026-04-22T08:56:53.037Z</time></trkpt><trkpt lat="43.1553567" lon="11.2900973"><ele>167.0</ele><time>2026-04-22T08:56:54.058Z</time></trkpt><trkpt lat="43.1551759" lon="11.2900258"><ele>168.0</ele><time>2026-04-22T08:56:55.078Z</time></trkpt><trkpt lat="43.1550025" lon="11.2899516"><ele>169.0</ele><time>2026-04-22T08:56:56.065Z</time></trkpt><trkpt lat="43.1548243" lon="11.2898794"><ele>169.33333333333334</ele><time>2026-04-22T08:56:57.047Z</time></trkpt><trkpt lat="43.1546465" lon="11.2898056"><ele>169.66666666666666</ele><time>2026-04-22T08:56:58.081Z</time></trkpt><trkpt lat="43.1544703" lon="11.2897174"><ele>170.0</ele><time>2026-04-22T08:56:59.075Z</time></trkpt><trkpt lat="43.1542917" lon="11.2896302"><ele>168.66666666666666</ele><time>2026-04-22T08:57:00.086Z</time></trkpt><trkpt lat="43.1541137" lon="11.289541"><ele>167.33333333333334</ele><time>2026-04-22T08:57:01.064Z</time></trkpt><trkpt lat="43.1539474" lon="11.2894443"><ele>166.0</ele><time>2026-04-22T08:57:02.079Z</time></trkpt><trkpt lat="43.1537771" lon="11.2893507"><ele>166.0</ele><time>2026-04-22T08:57:03.072Z</time></trkpt><trkpt lat="43.1536116" lon="11.2892466"><ele>166.0</ele><time>2026-04-22T08:57:04.081Z</time></trkpt><trkpt lat="43.1534442" lon="11.2891389"><ele>166.0</ele><time>2026-04-22T08:57:05.074Z</time></trkpt><trkpt lat="43.1532762" lon="11.2890374"><ele>167.0</ele><time>2026-04-22T08:57:06.087Z</time></trkpt><trkpt lat="43.1531083" lon="11.2889449"><ele>168.0</ele><time>2026-04-22T08:57:07.069Z</time></trkpt><trkpt lat="43.1529466" lon="11.2888449"><ele>169.0</ele><time>2026-04-22T08:57:08.042Z</time></trkpt><trkpt lat="43.1527838" lon="11.2887477"><ele>167.66666666666669</ele><time>2026-04-22T08:57:09.072Z</time></trkpt><trkpt lat="43.1526231" lon="11.2886491"><ele>166.33333333333334</ele><time>2026-04-22T08:57:10.074Z</time></trkpt><trkpt lat="43.1524608" lon="11.2885542"><ele>165.0</ele><time>2026-04-22T08:57:11.066Z</time></trkpt><trkpt lat="43.1522967" lon="11.2884549"><ele>165.0</ele><time>2026-04-22T08:57:12.071Z</time></trkpt><trkpt lat="43.1521339" lon="11.2883603"><ele>165.0</ele><time>2026-04-22T08:57:13.073Z</time></trkpt><trkpt lat="43.1519673" lon="11.2882639"><ele>165.0</ele><time>2026-04-22T08:57:14.07Z</time></trkpt><trkpt lat="43.1518031" lon="11.2881639"><ele>163.66666666666666</ele><time>2026-04-22T08:57:15.081Z</time></trkpt><trkpt lat="43.151643" lon="11.2880621"><ele>162.33333333333331</ele><time>2026-04-22T08:57:16.072Z</time></trkpt><trkpt lat="43.1514794" lon="11.2879642"><ele>161.0</ele><time>2026-04-22T08:57:17.068Z</time></trkpt><trkpt lat="43.1513249" lon="11.2878678"><ele>160.66666666666666</ele><time>2026-04-22T08:57:18.073Z</time></trkpt><trkpt lat="43.1511626" lon="11.2877737"><ele>160.33333333333334</ele><time>2026-04-22T08:57:19.069Z</time></trkpt><trkpt lat="43.1510056" lon="11.2876715"><ele>160.0</ele><time>2026-04-22T08:57:20.068Z</time></trkpt><trkpt lat="43.150845" lon="11.2875777"><ele>160.0</ele><time>2026-04-22T08:57:21.047Z</time></trkpt><trkpt lat="43.1506839" lon="11.2874822"><ele>160.0</ele><time>2026-04-22T08:57:22.091Z</time></trkpt><trkpt lat="43.150525" lon="11.2873916"><ele>160.0</ele><time>2026-04-22T08:57:23.074Z</time></trkpt><trkpt lat="43.1503675" lon="11.2873029"><ele>160.33333333333334</ele><time>2026-04-22T08:57:24.084Z</time></trkpt><trkpt lat="43.1502256" lon="11.2872087"><ele>160.66666666666666</ele><time>2026-04-22T08:57:25.071Z</time></trkpt><trkpt lat="43.1500849" lon="11.2871266"><ele>161.0</ele><time>2026-04-22T08:57:26.051Z</time></trkpt><trkpt lat="43.1499542" lon="11.2870502"><ele>162.0</ele><time>2026-04-22T08:57:27.043Z</time></trkpt><trkpt lat="43.1498294" lon="11.2869736"><ele>163.0</ele><time>2026-04-22T08:57:28.065Z</time></trkpt><trkpt lat="43.1497082" lon="11.2868945"><ele>164.0</ele><time>2026-04-22T08:57:29.085Z</time></trkpt><trkpt lat="43.1495877" lon="11.2868265"><ele>165.0</ele><time>2026-04-22T08:57:30.058Z</time></trkpt><trkpt lat="43.1494665" lon="11.2867572"><ele>165.0</ele><time>2026-04-22T08:57:31.061Z</time></trkpt><trkpt lat="43.1493417" lon="11.2866774"><ele>165.0</ele><time>2026-04-22T08:57:32.069Z</time></trkpt><trkpt lat="43.1492097" lon="11.2865988"><ele>165.0</ele><time>2026-04-22T08:57:33.072Z</time></trkpt><trkpt lat="43.1490809" lon="11.2865169"><ele>165.0</ele><time>2026-04-22T08:57:34.065Z</time></trkpt><trkpt lat="43.148946" lon="11.2864319"><ele>166.0</ele><time>2026-04-22T08:57:35.08Z</time></trkpt><trkpt lat="43.1488018" lon="11.2863521"><ele>167.0</ele><time>2026-04-22T08:57:36.075Z</time></trkpt><trkpt lat="43.1486547" lon="11.2862744"><ele>168.0</ele><time>2026-04-22T08:57:37.086Z</time></trkpt><trkpt lat="43.1484995" lon="11.2862126"><ele>168.0</ele><time>2026-04-22T08:57:38.086Z</time></trkpt><trkpt lat="43.1483397" lon="11.2861491"><ele>168.0</ele><time>2026-04-22T08:57:39.042Z</time></trkpt><trkpt lat="43.1481804" lon="11.2861014"><ele>168.0</ele><time>2026-04-22T08:57:40.071Z</time></trkpt><trkpt lat="43.1480184" lon="11.2860634"><ele>168.66666666666666</ele><time>2026-04-22T08:57:41.075Z</time></trkpt><trkpt lat="43.1478576" lon="11.2860253"><ele>169.33333333333331</ele><time>2026-04-22T08:57:42.081Z</time></trkpt><trkpt lat="43.1476855" lon="11.2860012"><ele>170.0</ele><time>2026-04-22T08:57:43.075Z</time></trkpt><trkpt lat="43.1475119" lon="11.285991"><ele>170.0</ele><time>2026-04-22T08:57:44.062Z</time></trkpt><trkpt lat="43.1473275" lon="11.2859947"><ele>170.0</ele><time>2026-04-22T08:57:45.055Z</time></trkpt><trkpt lat="43.1471542" lon="11.2860025"><ele>170.0</ele><time>2026-04-22T08:57:46.081Z</time></trkpt><trkpt lat="43.1469793" lon="11.2860232"><ele>170.0</ele><time>2026-04-22T08:57:47.046Z</time></trkpt><trkpt lat="43.1468039" lon="11.2860653"><ele>170.0</ele><time>2026-04-22T08:57:48.055Z</time></trkpt><trkpt lat="43.1466299" lon="11.2861081"><ele>170.0</ele><time>2026-04-22T08:57:49.071Z</time></trkpt><trkpt lat="43.1464576" lon="11.2861636"><ele>170.33333333333331</ele><time>2026-04-22T08:57:50.065Z</time></trkpt><trkpt lat="43.1462937" lon="11.28624"><ele>170.66666666666666</ele><time>2026-04-22T08:57:51.082Z</time></trkpt><trkpt lat="43.1461237" lon="11.2863148"><ele>171.0</ele><time>2026-04-22T08:57:52.064Z</time></trkpt><trkpt lat="43.1459464" lon="11.2863969"><ele>171.0</ele><time>2026-04-22T08:57:53.075Z</time></trkpt><trkpt lat="43.1457682" lon="11.2864761"><ele>171.0</ele><time>2026-04-22T08:57:54.085Z</time></trkpt><trkpt lat="43.1455921" lon="11.2865539"><ele>171.0</ele><time>2026-04-22T08:57:55.078Z</time></trkpt><trkpt lat="43.1454185" lon="11.2866308"><ele>170.66666666666666</ele><time>2026-04-22T08:57:56.069Z</time></trkpt><trkpt lat="43.1452439" lon="11.2867041"><ele>170.33333333333331</ele><time>2026-04-22T08:57:57.065Z</time></trkpt><trkpt lat="43.1450672" lon="11.2867759"><ele>170.0</ele><time>2026-04-22T08:57:58.065Z</time></trkpt><trkpt lat="43.1448897" lon="11.2868494"><ele>170.33333333333331</ele><time>2026-04-22T08:57:59.074Z</time></trkpt><trkpt lat="43.1447112" lon="11.2869227"><ele>170.66666666666666</ele><time>2026-04-22T08:58:00.071Z</time></trkpt><trkpt lat="43.1445346" lon="11.2870016"><ele>171.0</ele><time>2026-04-22T08:58:01.078Z</time></trkpt><trkpt lat="43.1443501" lon="11.287076"><ele>171.0</ele><time>2026-04-22T08:58:02.066Z</time></trkpt><trkpt lat="43.1441608" lon="11.2871498"><ele>171.0</ele><time>2026-04-22T08:58:03.073Z</time></trkpt><trkpt lat="43.1439787" lon="11.2872251"><ele>171.0</ele><time>2026-04-22T08:58:04.081Z</time></trkpt><trkpt lat="43.143797" lon="11.2873057"><ele>170.66666666666666</ele><time>2026-04-22T08:58:05.073Z</time></trkpt><trkpt lat="43.143613" lon="11.2873826"><ele>170.33333333333331</ele><time>2026-04-22T08:58:06.081Z</time></trkpt><trkpt lat="43.1434253" lon="11.2874615"><ele>170.0</ele><time>2026-04-22T08:58:07.077Z</time></trkpt><trkpt lat="43.1432379" lon="11.287542"><ele>174.66666666666666</ele><time>2026-04-22T08:58:08.075Z</time></trkpt><trkpt lat="43.1430515" lon="11.287624"><ele>179.33333333333334</ele><time>2026-04-22T08:58:09.072Z</time></trkpt><trkpt lat="43.142867" lon="11.2877026"><ele>184.0</ele><time>2026-04-22T08:58:10.068Z</time></trkpt><trkpt lat="43.1426859" lon="11.2877825"><ele>184.0</ele><time>2026-04-22T08:58:11.066Z</time></trkpt><trkpt lat="43.142503" lon="11.2878621"><ele>184.0</ele><time>2026-04-22T08:58:12.06Z</time></trkpt><trkpt lat="43.1423252" lon="11.2879414"><ele>184.0</ele><time>2026-04-22T08:58:13.065Z</time></trkpt><trkpt lat="43.1421457" lon="11.2880211"><ele>184.66666666666669</ele><time>2026-04-22T08:58:14.062Z</time></trkpt><trkpt lat="43.1419604" lon="11.288102"><ele>185.33333333333334</ele><time>2026-04-22T08:58:15.077Z</time></trkpt><trkpt lat="43.1417783" lon="11.2881806"><ele>186.0</ele><time>2026-04-22T08:58:16.079Z</time></trkpt><trkpt lat="43.1415956" lon="11.2882588"><ele>189.33333333333331</ele><time>2026-04-22T08:58:17.073Z</time></trkpt><trkpt lat="43.1414148" lon="11.2883314"><ele>192.66666666666666</ele><time>2026-04-22T08:58:18.054Z</time></trkpt><trkpt lat="43.141229" lon="11.2884159"><ele>196.0</ele><time>2026-04-22T08:58:19.076Z</time></trkpt><trkpt lat="43.1410517" lon="11.2884874"><ele>196.0</ele><time>2026-04-22T08:58:20.068Z</time></trkpt><trkpt lat="43.1408726" lon="11.2885639"><ele>196.0</ele><time>2026-04-22T08:58:21.066Z</time></trkpt><trkpt lat="43.1406964" lon="11.2886381"><ele>196.0</ele><time>2026-04-22T08:58:22.062Z</time></trkpt><trkpt lat="43.1405178" lon="11.2887083"><ele>196.0</ele><time>2026-04-22T08:58:23.069Z</time></trkpt><trkpt lat="43.1403421" lon="11.288784"><ele>196.0</ele><time>2026-04-22T08:58:24.072Z</time></trkpt><trkpt lat="43.1401636" lon="11.2888631"><ele>196.0</ele><time>2026-04-22T08:58:25.068Z</time></trkpt><trkpt lat="43.1399871" lon="11.2889389"><ele>196.33333333333331</ele><time>2026-04-22T08:58:26.071Z</time></trkpt><trkpt lat="43.1398153" lon="11.2890142"><ele>196.66666666666669</ele><time>2026-04-22T08:58:27.071Z</time></trkpt><trkpt lat="43.1396411" lon="11.2890884"><ele>197.0</ele><time>2026-04-22T08:58:28.079Z</time></trkpt><trkpt lat="43.1394635" lon="11.2891642"><ele>197.0</ele><time>2026-04-22T08:58:29.073Z</time></trkpt><trkpt lat="43.139293" lon="11.289239"><ele>197.0</ele><time>2026-04-22T08:58:30.052Z</time></trkpt><trkpt lat="43.1391182" lon="11.289312"><ele>197.0</ele><time>2026-04-22T08:58:31.067Z</time></trkpt><trkpt lat="43.1389443" lon="11.2893875"><ele>199.33333333333334</ele><time>2026-04-22T08:58:32.082Z</time></trkpt><trkpt lat="43.1387662" lon="11.2894707"><ele>201.66666666666669</ele><time>2026-04-22T08:58:33.071Z</time></trkpt><trkpt lat="43.1385837" lon="11.2895482"><ele>204.0</ele><time>2026-04-22T08:58:34.081Z</time></trkpt><trkpt lat="43.1383989" lon="11.2896195"><ele>205.0</ele><time>2026-04-22T08:58:35.069Z</time></trkpt><trkpt lat="43.1382114" lon="11.2896932"><ele>206.0</ele><time>2026-04-22T08:58:36.071Z</time></trkpt><trkpt lat="43.1380194" lon="11.2897677"><ele>207.0</ele><time>2026-04-22T08:58:37.048Z</time></trkpt><trkpt lat="43.1378274" lon="11.28985"><ele>201.33333333333334</ele><time>2026-04-22T08:58:38.076Z</time></trkpt><trkpt lat="43.1376366" lon="11.28993"><ele>195.66666666666669</ele><time>2026-04-22T08:58:39.069Z</time></trkpt><trkpt lat="43.1374353" lon="11.2900198"><ele>190.0</ele><time>2026-04-22T08:58:40.054Z</time></trkpt><trkpt lat="43.1372299" lon="11.2901066"><ele>189.33333333333334</ele><time>2026-04-22T08:58:41.063Z</time></trkpt><trkpt lat="43.1370218" lon="11.2901903"><ele>188.66666666666666</ele><time>2026-04-22T08:58:42.081Z</time></trkpt><trkpt lat="43.1368083" lon="11.2902723"><ele>188.0</ele><time>2026-04-22T08:58:43.059Z</time></trkpt><trkpt lat="43.1366005" lon="11.2903425"><ele>186.0</ele><time>2026-04-22T08:58:44.055Z</time></trkpt><trkpt lat="43.1363899" lon="11.2904056"><ele>184.0</ele><time>2026-04-22T08:58:45.061Z</time></trkpt><trkpt lat="43.1361775" lon="11.2904507"><ele>182.0</ele><time>2026-04-22T08:58:46.06Z</time></trkpt><trkpt lat="43.135968" lon="11.2904809"><ele>182.0</ele><time>2026-04-22T08:58:47.066Z</time></trkpt><trkpt lat="43.135758" lon="11.2904997"><ele>182.0</ele><time>2026-04-22T08:58:48.056Z</time></trkpt><trkpt lat="43.1355469" lon="11.2905078"><ele>182.0</ele><time>2026-04-22T08:58:49.069Z</time></trkpt><trkpt lat="43.1353349" lon="11.2904986"><ele>182.66666666666666</ele><time>2026-04-22T08:58:50.075Z</time></trkpt><trkpt lat="43.1351299" lon="11.2904934"><ele>183.33333333333334</ele><time>2026-04-22T08:58:51.064Z</time></trkpt><trkpt lat="43.1349284" lon="11.290488"><ele>184.0</ele><time>2026-04-22T08:58:52.066Z</time></trkpt><trkpt lat="43.1347273" lon="11.2904853"><ele>184.0</ele><time>2026-04-22T08:58:53.065Z</time></trkpt><trkpt lat="43.1345295" lon="11.2905044"><ele>184.0</ele><time>2026-04-22T08:58:54.06Z</time></trkpt><trkpt lat="43.1343273" lon="11.2905365"><ele>184.0</ele><time>2026-04-22T08:58:55.069Z</time></trkpt><trkpt lat="43.1341366" lon="11.2905895"><ele>182.0</ele><time>2026-04-22T08:58:56.05Z</time></trkpt><trkpt lat="43.1339389" lon="11.2906678"><ele>180.0</ele><time>2026-04-22T08:58:57.067Z</time></trkpt><trkpt lat="43.1337479" lon="11.2907603"><ele>178.0</ele><time>2026-04-22T08:58:58.063Z</time></trkpt><trkpt lat="43.1335656" lon="11.2908622"><ele>178.0</ele><time>2026-04-22T08:58:59.06Z</time></trkpt><trkpt lat="43.1333837" lon="11.2909841"><ele>178.0</ele><time>2026-04-22T08:59:00.062Z</time></trkpt><trkpt lat="43.1332073" lon="11.2911246"><ele>178.0</ele><time>2026-04-22T08:59:01.069Z</time></trkpt><trkpt lat="43.1330433" lon="11.2912737"><ele>178.0</ele><time>2026-04-22T08:59:02.074Z</time></trkpt><trkpt lat="43.1328833" lon="11.2914309"><ele>178.0</ele><time>2026-04-22T08:59:03.067Z</time></trkpt><trkpt lat="43.1327276" lon="11.2915898"><ele>178.0</ele><time>2026-04-22T08:59:04.063Z</time></trkpt><trkpt lat="43.1325709" lon="11.2917436"><ele>178.0</ele><time>2026-04-22T08:59:05.073Z</time></trkpt><trkpt lat="43.132409" lon="11.2919071"><ele>178.0</ele><time>2026-04-22T08:59:06.073Z</time></trkpt><trkpt lat="43.132246" lon="11.2920686"><ele>178.0</ele><time>2026-04-22T08:59:07.067Z</time></trkpt><trkpt lat="43.1320819" lon="11.2922331"><ele>177.66666666666669</ele><time>2026-04-22T08:59:08.069Z</time></trkpt><trkpt lat="43.1319196" lon="11.2923977"><ele>177.33333333333334</ele><time>2026-04-22T08:59:09.052Z</time></trkpt><trkpt lat="43.1317549" lon="11.2925657"><ele>177.0</ele><time>2026-04-22T08:59:10.07Z</time></trkpt><trkpt lat="43.1315932" lon="11.2927289"><ele>176.33333333333334</ele><time>2026-04-22T08:59:11.059Z</time></trkpt><trkpt lat="43.1314321" lon="11.2928958"><ele>175.66666666666669</ele><time>2026-04-22T08:59:12.072Z</time></trkpt><trkpt lat="43.1312712" lon="11.2930615"><ele>175.0</ele><time>2026-04-22T08:59:13.083Z</time></trkpt><trkpt lat="43.1311096" lon="11.2932251"><ele>175.0</ele><time>2026-04-22T08:59:14.07Z</time></trkpt><trkpt lat="43.1309451" lon="11.2933852"><ele>175.0</ele><time>2026-04-22T08:59:15.07Z</time></trkpt><trkpt lat="43.1307814" lon="11.2935472"><ele>175.0</ele><time>2026-04-22T08:59:16.061Z</time></trkpt><trkpt lat="43.1306124" lon="11.2937081"><ele>174.0</ele><time>2026-04-22T08:59:17.076Z</time></trkpt><trkpt lat="43.1304437" lon="11.293877"><ele>173.0</ele><time>2026-04-22T08:59:18.084Z</time></trkpt><trkpt lat="43.1302779" lon="11.2940401"><ele>172.0</ele><time>2026-04-22T08:59:19.073Z</time></trkpt><trkpt lat="43.1301159" lon="11.2942045"><ele>172.0</ele><time>2026-04-22T08:59:20.071Z</time></trkpt><trkpt lat="43.1299498" lon="11.2943663"><ele>172.0</ele><time>2026-04-22T08:59:21.066Z</time></trkpt><trkpt lat="43.1297834" lon="11.2945344"><ele>172.0</ele><time>2026-04-22T08:59:22.074Z</time></trkpt><trkpt lat="43.1296232" lon="11.2946993"><ele>169.66666666666669</ele><time>2026-04-22T08:59:23.06Z</time></trkpt><trkpt lat="43.1294574" lon="11.2948643"><ele>167.33333333333334</ele><time>2026-04-22T08:59:24.055Z</time></trkpt><trkpt lat="43.1292925" lon="11.2950213"><ele>165.0</ele><time>2026-04-22T08:59:25.056Z</time></trkpt><trkpt lat="43.1291246" lon="11.2951723"><ele>166.66666666666666</ele><time>2026-04-22T08:59:26.064Z</time></trkpt><trkpt lat="43.128952" lon="11.2953235"><ele>168.33333333333331</ele><time>2026-04-22T08:59:27.065Z</time></trkpt><trkpt lat="43.1287761" lon="11.295447"><ele>170.0</ele><time>2026-04-22T08:59:28.071Z</time></trkpt><trkpt lat="43.1285994" lon="11.2955434"><ele>169.66666666666666</ele><time>2026-04-22T08:59:29.07Z</time></trkpt><trkpt lat="43.1284133" lon="11.2956246"><ele>169.33333333333334</ele><time>2026-04-22T08:59:30.057Z</time></trkpt><trkpt lat="43.1282372" lon="11.2956965"><ele>169.0</ele><time>2026-04-22T08:59:31.071Z</time></trkpt><trkpt lat="43.1280571" lon="11.2957497"><ele>169.0</ele><time>2026-04-22T08:59:32.067Z</time></trkpt><trkpt lat="43.1278709" lon="11.2958007"><ele>169.0</ele><time>2026-04-22T08:59:33.05Z</time></trkpt><trkpt lat="43.1276833" lon="11.2958362"><ele>169.0</ele><time>2026-04-22T08:59:34.051Z</time></trkpt><trkpt lat="43.127491" lon="11.2958526"><ele>169.66666666666669</ele><time>2026-04-22T08:59:35.079Z</time></trkpt><trkpt lat="43.1272943" lon="11.2958675"><ele>170.33333333333334</ele><time>2026-04-22T08:59:36.078Z</time></trkpt><trkpt lat="43.1270984" lon="11.2958917"><ele>171.0</ele><time>2026-04-22T08:59:37.067Z</time></trkpt><trkpt lat="43.1269002" lon="11.2959164"><ele>171.0</ele><time>2026-04-22T08:59:38.053Z</time></trkpt><trkpt lat="43.1267011" lon="11.2959455"><ele>171.0</ele><time>2026-04-22T08:59:39.071Z</time></trkpt><trkpt lat="43.1265006" lon="11.2959731"><ele>171.0</ele><time>2026-04-22T08:59:40.039Z</time></trkpt><trkpt lat="43.1263039" lon="11.2959998"><ele>171.33333333333334</ele><time>2026-04-22T08:59:41.069Z</time></trkpt><trkpt lat="43.1261014" lon="11.2960305"><ele>171.66666666666669</ele><time>2026-04-22T08:59:42.073Z</time></trkpt><trkpt lat="43.1258999" lon="11.2960587"><ele>172.0</ele><time>2026-04-22T08:59:43.064Z</time></trkpt><trkpt lat="43.1257009" lon="11.2960892"><ele>170.66666666666669</ele><time>2026-04-22T08:59:44.091Z</time></trkpt><trkpt lat="43.1254993" lon="11.2961173"><ele>169.33333333333334</ele><time>2026-04-22T08:59:45.069Z</time></trkpt><trkpt lat="43.1252942" lon="11.2961512"><ele>168.0</ele><time>2026-04-22T08:59:46.077Z</time></trkpt><trkpt lat="43.1250932" lon="11.296176"><ele>168.66666666666666</ele><time>2026-04-22T08:59:47.055Z</time></trkpt><trkpt lat="43.1248918" lon="11.2961954"><ele>169.33333333333331</ele><time>2026-04-22T08:59:48.073Z</time></trkpt><trkpt lat="43.1246882" lon="11.2962111"><ele>170.0</ele><time>2026-04-22T08:59:49.077Z</time></trkpt><trkpt lat="43.1244884" lon="11.296235"><ele>170.0</ele><time>2026-04-22T08:59:50.079Z</time></trkpt><trkpt lat="43.1242881" lon="11.2962609"><ele>170.0</ele><time>2026-04-22T08:59:51.078Z</time></trkpt><trkpt lat="43.1240918" lon="11.2962953"><ele>170.0</ele><time>2026-04-22T08:59:52.078Z</time></trkpt><trkpt lat="43.1238924" lon="11.2963256"><ele>171.66666666666666</ele><time>2026-04-22T08:59:53.071Z</time></trkpt><trkpt lat="43.1236887" lon="11.2963533"><ele>173.33333333333334</ele><time>2026-04-22T08:59:54.086Z</time></trkpt><trkpt lat="43.1234821" lon="11.2963813"><ele>175.0</ele><time>2026-04-22T08:59:55.075Z</time></trkpt><trkpt lat="43.123273" lon="11.2964089"><ele>173.66666666666669</ele><time>2026-04-22T08:59:56.073Z</time></trkpt><trkpt lat="43.1230615" lon="11.2964357"><ele>172.33333333333334</ele><time>2026-04-22T08:59:57.054Z</time></trkpt><trkpt lat="43.122844" lon="11.2964626"><ele>171.0</ele><time>2026-04-22T08:59:58.066Z</time></trkpt><trkpt lat="43.1226322" lon="11.2964899"><ele>171.0</ele><time>2026-04-22T08:59:59.062Z</time></trkpt><trkpt lat="43.1224184" lon="11.2965128"><ele>171.0</ele><time>2026-04-22T09:00:00.057Z</time></trkpt><trkpt lat="43.1222064" lon="11.2965409"><ele>171.0</ele><time>2026-04-22T09:00:01.078Z</time></trkpt><trkpt lat="43.1219966" lon="11.2965642"><ele>167.33333333333334</ele><time>2026-04-22T09:00:02.077Z</time></trkpt><trkpt lat="43.1217836" lon="11.2965942"><ele>163.66666666666669</ele><time>2026-04-22T09:00:03.074Z</time></trkpt><trkpt lat="43.1215726" lon="11.2966273"><ele>160.0</ele><time>2026-04-22T09:00:04.084Z</time></trkpt><trkpt lat="43.121367" lon="11.2966504"><ele>159.0</ele><time>2026-04-22T09:00:05.069Z</time></trkpt><trkpt lat="43.1211645" lon="11.2966719"><ele>158.0</ele><time>2026-04-22T09:00:06.057Z</time></trkpt><trkpt lat="43.1209629" lon="11.2967027"><ele>157.0</ele><time>2026-04-22T09:00:07.069Z</time></trkpt><trkpt lat="43.1207593" lon="11.29673"><ele>159.33333333333334</ele><time>2026-04-22T09:00:08.081Z</time></trkpt><trkpt lat="43.1205543" lon="11.2967536"><ele>161.66666666666666</ele><time>2026-04-22T09:00:09.084Z</time></trkpt><trkpt lat="43.120354" lon="11.2967813"><ele>164.0</ele><time>2026-04-22T09:00:10.074Z</time></trkpt><trkpt lat="43.1201517" lon="11.2968092"><ele>164.0</ele><time>2026-04-22T09:00:11.051Z</time></trkpt><trkpt lat="43.1199471" lon="11.2968268"><ele>164.0</ele><time>2026-04-22T09:00:12.053Z</time></trkpt><trkpt lat="43.1197412" lon="11.2968383"><ele>164.0</ele><time>2026-04-22T09:00:13.072Z</time></trkpt><trkpt lat="43.1195301" lon="11.2968362"><ele>165.66666666666666</ele><time>2026-04-22T09:00:14.084Z</time></trkpt><trkpt lat="43.1193155" lon="11.2968221"><ele>167.33333333333334</ele><time>2026-04-22T09:00:15.072Z</time></trkpt><trkpt lat="43.1190923" lon="11.2968132"><ele>169.0</ele><time>2026-04-22T09:00:16.056Z</time></trkpt><trkpt lat="43.1188655" lon="11.2968172"><ele>169.5</ele><time>2026-04-22T09:00:17.07Z</time></trkpt><trkpt lat="43.1186332" lon="11.2968273"><ele>170.0</ele><time>2026-04-22T09:00:18.045Z</time></trkpt><trkpt lat="43.1183967" lon="11.2968341"><ele>171.0</ele><time>2026-04-22T09:00:19.085Z</time></trkpt><trkpt lat="43.1181606" lon="11.2968416"><ele>172.0</ele><time>2026-04-22T09:00:20.063Z</time></trkpt><trkpt lat="43.1179257" lon="11.2968296"><ele>172.0</ele><time>2026-04-22T09:00:21.069Z</time></trkpt><trkpt lat="43.1176891" lon="11.296813"><ele>172.0</ele><time>2026-04-22T09:00:22.074Z</time></trkpt><trkpt lat="43.1174549" lon="11.2967897"><ele>172.5</ele><time>2026-04-22T09:00:23.058Z</time></trkpt><trkpt lat="43.1172184" lon="11.2967657"><ele>173.0</ele><time>2026-04-22T09:00:24.069Z</time></trkpt><trkpt lat="43.1169877" lon="11.2967355"><ele>173.0</ele><time>2026-04-22T09:00:25.063Z</time></trkpt><trkpt lat="43.1167573" lon="11.296702"><ele>173.0</ele><time>2026-04-22T09:00:26.086Z</time></trkpt><trkpt lat="43.1165251" lon="11.2966652"><ele>174.5</ele><time>2026-04-22T09:00:27.076Z</time></trkpt><trkpt lat="43.1162928" lon="11.2966251"><ele>176.0</ele><time>2026-04-22T09:00:28.087Z</time></trkpt><trkpt lat="43.1160616" lon="11.2965786"><ele>176.0</ele><time>2026-04-22T09:00:29.076Z</time></trkpt><trkpt lat="43.1158298" lon="11.2965315"><ele>176.0</ele><time>2026-04-22T09:00:30.066Z</time></trkpt><trkpt lat="43.1155976" lon="11.296489"><ele>176.5</ele><time>2026-04-22T09:00:31.086Z</time></trkpt><trkpt lat="43.1153683" lon="11.2964472"><ele>177.0</ele><time>2026-04-22T09:00:32.073Z</time></trkpt><trkpt lat="43.1151367" lon="11.2964051"><ele>177.0</ele><time>2026-04-22T09:00:33.065Z</time></trkpt><trkpt lat="43.1149054" lon="11.2963628"><ele>177.0</ele><time>2026-04-22T09:00:34.076Z</time></trkpt><trkpt lat="43.1146741" lon="11.2963217"><ele>181.0</ele><time>2026-04-22T09:00:35.072Z</time></trkpt><trkpt lat="43.1144477" lon="11.2962745"><ele>185.0</ele><time>2026-04-22T09:00:36.086Z</time></trkpt><trkpt lat="43.114218" lon="11.2962302"><ele>186.33333333333331</ele><time>2026-04-22T09:00:37.067Z</time></trkpt><trkpt lat="43.1139951" lon="11.2961898"><ele>187.66666666666666</ele><time>2026-04-22T09:00:38.057Z</time></trkpt><trkpt lat="43.1137788" lon="11.2961412"><ele>189.0</ele><time>2026-04-22T09:00:39.078Z</time></trkpt><trkpt lat="43.1135566" lon="11.2960919"><ele>189.0</ele><time>2026-04-22T09:00:40.078Z</time></trkpt><trkpt lat="43.1133378" lon="11.2960495"><ele>189.0</ele><time>2026-04-22T09:00:41.056Z</time></trkpt><trkpt lat="43.1131162" lon="11.2960073"><ele>189.0</ele><time>2026-04-22T09:00:42.053Z</time></trkpt><trkpt lat="43.1128991" lon="11.2959601"><ele>190.66666666666669</ele><time>2026-04-22T09:00:43.068Z</time></trkpt><trkpt lat="43.1126845" lon="11.295913"><ele>192.33333333333334</ele><time>2026-04-22T09:00:44.068Z</time></trkpt><trkpt lat="43.1124699" lon="11.2958687"><ele>194.0</ele><time>2026-04-22T09:00:45.083Z</time></trkpt><trkpt lat="43.1122595" lon="11.2958243"><ele>196.0</ele><time>2026-04-22T09:00:46.084Z</time></trkpt><trkpt lat="43.1120499" lon="11.2957846"><ele>198.0</ele><time>2026-04-22T09:00:47.083Z</time></trkpt><trkpt lat="43.1118408" lon="11.2957399"><ele>200.0</ele><time>2026-04-22T09:00:48.085Z</time></trkpt><trkpt lat="43.1116322" lon="11.2957053"><ele>201.66666666666669</ele><time>2026-04-22T09:00:49.061Z</time></trkpt><trkpt lat="43.1114182" lon="11.2956624"><ele>203.33333333333331</ele><time>2026-04-22T09:00:50.079Z</time></trkpt><trkpt lat="43.1112038" lon="11.2956255"><ele>205.0</ele><time>2026-04-22T09:00:51.069Z</time></trkpt><trkpt lat="43.1109947" lon="11.2955781"><ele>211.33333333333331</ele><time>2026-04-22T09:00:52.075Z</time></trkpt><trkpt lat="43.1107813" lon="11.2955378"><ele>217.66666666666669</ele><time>2026-04-22T09:00:53.057Z</time></trkpt><trkpt lat="43.1105667" lon="11.295495"><ele>224.0</ele><time>2026-04-22T09:00:54.066Z</time></trkpt><trkpt lat="43.110354" lon="11.2954512"><ele>224.33333333333334</ele><time>2026-04-22T09:00:55.056Z</time></trkpt><trkpt lat="43.1101427" lon="11.2954095"><ele>224.66666666666669</ele><time>2026-04-22T09:00:56.065Z</time></trkpt><trkpt lat="43.1099369" lon="11.2953724"><ele>225.0</ele><time>2026-04-22T09:00:57.067Z</time></trkpt><trkpt lat="43.10973" lon="11.2953345"><ele>225.0</ele><time>2026-04-22T09:00:58.067Z</time></trkpt><trkpt lat="43.1095178" lon="11.2953033"><ele>225.0</ele><time>2026-04-22T09:00:59.077Z</time></trkpt><trkpt lat="43.1093078" lon="11.2952827"><ele>225.0</ele><time>2026-04-22T09:01:00.055Z</time></trkpt><trkpt lat="43.109097" lon="11.2952659"><ele>225.33333333333331</ele><time>2026-04-22T09:01:01.068Z</time></trkpt><trkpt lat="43.1088799" lon="11.2952574"><ele>225.66666666666666</ele><time>2026-04-22T09:01:02.057Z</time></trkpt><trkpt lat="43.1086694" lon="11.2952715"><ele>226.0</ele><time>2026-04-22T09:01:03.052Z</time></trkpt><trkpt lat="43.1084505" lon="11.2953033"><ele>225.66666666666666</ele><time>2026-04-22T09:01:04.07Z</time></trkpt><trkpt lat="43.1082344" lon="11.2953412"><ele>225.33333333333331</ele><time>2026-04-22T09:01:05.055Z</time></trkpt><trkpt lat="43.1080229" lon="11.2953832"><ele>225.0</ele><time>2026-04-22T09:01:06.061Z</time></trkpt><trkpt lat="43.1078142" lon="11.2954448"><ele>225.0</ele><time>2026-04-22T09:01:07.058Z</time></trkpt><trkpt lat="43.1076038" lon="11.2955152"><ele>225.0</ele><time>2026-04-22T09:01:08.048Z</time></trkpt><trkpt lat="43.1073999" lon="11.295593"><ele>225.0</ele><time>2026-04-22T09:01:09.069Z</time></trkpt><trkpt lat="43.1071993" lon="11.2956827"><ele>224.66666666666669</ele><time>2026-04-22T09:01:10.07Z</time></trkpt><trkpt lat="43.1069992" lon="11.2957839"><ele>224.33333333333334</ele><time>2026-04-22T09:01:11.06Z</time></trkpt><trkpt lat="43.1068006" lon="11.2958993"><ele>224.0</ele><time>2026-04-22T09:01:12.06Z</time></trkpt><trkpt lat="43.1066094" lon="11.2960177"><ele>229.0</ele><time>2026-04-22T09:01:13.062Z</time></trkpt><trkpt lat="43.1064129" lon="11.2961518"><ele>234.0</ele><time>2026-04-22T09:01:14.083Z</time></trkpt><trkpt lat="43.1062262" lon="11.2962958"><ele>239.0</ele><time>2026-04-22T09:01:15.048Z</time></trkpt><trkpt lat="43.1060413" lon="11.2964357"><ele>239.0</ele><time>2026-04-22T09:01:16.066Z</time></trkpt><trkpt lat="43.1058578" lon="11.2965771"><ele>239.0</ele><time>2026-04-22T09:01:17.07Z</time></trkpt><trkpt lat="43.1056742" lon="11.296717"><ele>239.0</ele><time>2026-04-22T09:01:18.074Z</time></trkpt><trkpt lat="43.1054908" lon="11.2968619"><ele>238.66666666666669</ele><time>2026-04-22T09:01:19.058Z</time></trkpt><trkpt lat="43.1053054" lon="11.2969998"><ele>238.33333333333331</ele><time>2026-04-22T09:01:20.08Z</time></trkpt><trkpt lat="43.1051231" lon="11.297137"><ele>238.0</ele><time>2026-04-22T09:01:21.074Z</time></trkpt><trkpt lat="43.104937" lon="11.297264"><ele>244.0</ele><time>2026-04-22T09:01:22.066Z</time></trkpt><trkpt lat="43.1047403" lon="11.2973944"><ele>250.0</ele><time>2026-04-22T09:01:23.066Z</time></trkpt><trkpt lat="43.1045491" lon="11.2975133"><ele>256.0</ele><time>2026-04-22T09:01:24.073Z</time></trkpt><trkpt lat="43.1043594" lon="11.2976225"><ele>256.0</ele><time>2026-04-22T09:01:25.08Z</time></trkpt><trkpt lat="43.1041566" lon="11.2977273"><ele>256.0</ele><time>2026-04-22T09:01:26.057Z</time></trkpt><trkpt lat="43.1039517" lon="11.2978203"><ele>256.0</ele><time>2026-04-22T09:01:27.064Z</time></trkpt><trkpt lat="43.1037454" lon="11.2979144"><ele>258.3333333333333</ele><time>2026-04-22T09:01:28.072Z</time></trkpt><trkpt lat="43.1035414" lon="11.2980015"><ele>260.6666666666667</ele><time>2026-04-22T09:01:29.068Z</time></trkpt><trkpt lat="43.1033349" lon="11.2980779"><ele>263.0</ele><time>2026-04-22T09:01:30.054Z</time></trkpt><trkpt lat="43.1031253" lon="11.2981405"><ele>263.0</ele><time>2026-04-22T09:01:31.066Z</time></trkpt><trkpt lat="43.1029153" lon="11.2982035"><ele>263.0</ele><time>2026-04-22T09:01:32.067Z</time></trkpt><trkpt lat="43.1027074" lon="11.2982596"><ele>263.0</ele><time>2026-04-22T09:01:33.075Z</time></trkpt><trkpt lat="43.1024951" lon="11.2983011"><ele>266.33333333333337</ele><time>2026-04-22T09:01:34.063Z</time></trkpt><trkpt lat="43.1022838" lon="11.2983408"><ele>269.6666666666667</ele><time>2026-04-22T09:01:35.071Z</time></trkpt><trkpt lat="43.1020742" lon="11.2983779"><ele>273.0</ele><time>2026-04-22T09:01:36.07Z</time></trkpt><trkpt lat="43.101857" lon="11.2984197"><ele>273.0</ele><time>2026-04-22T09:01:37.053Z</time></trkpt><trkpt lat="43.1016485" lon="11.2984548"><ele>273.0</ele><time>2026-04-22T09:01:38.07Z</time></trkpt><trkpt lat="43.1014388" lon="11.2984989"><ele>273.0</ele><time>2026-04-22T09:01:39.065Z</time></trkpt><trkpt lat="43.1012254" lon="11.2985393"><ele>274.6666666666667</ele><time>2026-04-22T09:01:40.078Z</time></trkpt><trkpt lat="43.1010121" lon="11.2985813"><ele>276.33333333333337</ele><time>2026-04-22T09:01:41.035Z</time></trkpt><trkpt lat="43.1008039" lon="11.2986228"><ele>278.0</ele><time>2026-04-22T09:01:42.065Z</time></trkpt><trkpt lat="43.1005954" lon="11.2986648"><ele>280.0</ele><time>2026-04-22T09:01:43.079Z</time></trkpt><trkpt lat="43.1003882" lon="11.2987068"><ele>282.0</ele><time>2026-04-22T09:01:44.053Z</time></trkpt><trkpt lat="43.100183" lon="11.2987519"><ele>284.0</ele><time>2026-04-22T09:01:45.067Z</time></trkpt><trkpt lat="43.099973" lon="11.2988014"><ele>283.33333333333337</ele><time>2026-04-22T09:01:46.059Z</time></trkpt><trkpt lat="43.0997613" lon="11.298852"><ele>282.6666666666667</ele><time>2026-04-22T09:01:47.066Z</time></trkpt><trkpt lat="43.0995521" lon="11.2989078"><ele>282.0</ele><time>2026-04-22T09:01:48.078Z</time></trkpt><trkpt lat="43.099339" lon="11.2989496"><ele>282.0</ele><time>2026-04-22T09:01:49.099Z</time></trkpt><trkpt lat="43.099123" lon="11.2989879"><ele>282.0</ele><time>2026-04-22T09:01:50.068Z</time></trkpt><trkpt lat="43.098914" lon="11.299024"><ele>282.0</ele><time>2026-04-22T09:01:51.062Z</time></trkpt><trkpt lat="43.0987003" lon="11.2990684"><ele>282.6666666666667</ele><time>2026-04-22T09:01:52.064Z</time></trkpt><trkpt lat="43.0984926" lon="11.2991153"><ele>283.33333333333337</ele><time>2026-04-22T09:01:53.043Z</time></trkpt><trkpt lat="43.0982802" lon="11.2991595"><ele>284.0</ele><time>2026-04-22T09:01:54.084Z</time></trkpt><trkpt lat="43.0980734" lon="11.2992034"><ele>284.33333333333337</ele><time>2026-04-22T09:01:55.07Z</time></trkpt><trkpt lat="43.0978605" lon="11.2992495"><ele>284.6666666666667</ele><time>2026-04-22T09:01:56.075Z</time></trkpt><trkpt lat="43.0976488" lon="11.2992915"><ele>285.0</ele><time>2026-04-22T09:01:57.042Z</time></trkpt><trkpt lat="43.0974371" lon="11.2993297"><ele>287.3333333333333</ele><time>2026-04-22T09:01:58.051Z</time></trkpt><trkpt lat="43.0972238" lon="11.2993589"><ele>289.66666666666663</ele><time>2026-04-22T09:01:59.075Z</time></trkpt><trkpt lat="43.0970089" lon="11.2993868"><ele>292.0</ele><time>2026-04-22T09:02:00.056Z</time></trkpt><trkpt lat="43.0967947" lon="11.299406"><ele>295.0</ele><time>2026-04-22T09:02:01.058Z</time></trkpt><trkpt lat="43.0965812" lon="11.2994173"><ele>298.0</ele><time>2026-04-22T09:02:02.051Z</time></trkpt><trkpt lat="43.096369" lon="11.2994208"><ele>301.0</ele><time>2026-04-22T09:02:03.066Z</time></trkpt><trkpt lat="43.0961579" lon="11.2994082"><ele>301.0</ele><time>2026-04-22T09:02:04.055Z</time></trkpt><trkpt lat="43.0959415" lon="11.2994007"><ele>301.0</ele><time>2026-04-22T09:02:05.052Z</time></trkpt><trkpt lat="43.095724" lon="11.299385"><ele>301.0</ele><time>2026-04-22T09:02:06.053Z</time></trkpt><trkpt lat="43.0955098" lon="11.2993617"><ele>300.3333333333333</ele><time>2026-04-22T09:02:07.061Z</time></trkpt><trkpt lat="43.0952964" lon="11.2993343"><ele>299.6666666666667</ele><time>2026-04-22T09:02:08.064Z</time></trkpt><trkpt lat="43.0950818" lon="11.2992939"><ele>299.0</ele><time>2026-04-22T09:02:09.077Z</time></trkpt><trkpt lat="43.0948644" lon="11.2992421"><ele>296.33333333333337</ele><time>2026-04-22T09:02:10.066Z</time></trkpt><trkpt lat="43.0946486" lon="11.2992057"><ele>293.6666666666667</ele><time>2026-04-22T09:02:11.057Z</time></trkpt><trkpt lat="43.0944365" lon="11.2991602"><ele>291.0</ele><time>2026-04-22T09:02:12.054Z</time></trkpt><trkpt lat="43.094221" lon="11.2990824"><ele>288.0</ele><time>2026-04-22T09:02:13.064Z</time></trkpt><trkpt lat="43.0940047" lon="11.2989882"><ele>285.0</ele><time>2026-04-22T09:02:14.063Z</time></trkpt><trkpt lat="43.0937815" lon="11.2988875"><ele>285.0</ele><time>2026-04-22T09:02:15.071Z</time></trkpt><trkpt lat="43.0935526" lon="11.2987981"><ele>285.0</ele><time>2026-04-22T09:02:16.079Z</time></trkpt><trkpt lat="43.0933277" lon="11.2986865"><ele>281.5</ele><time>2026-04-22T09:02:17.059Z</time></trkpt><trkpt lat="43.0931086" lon="11.2985796"><ele>278.0</ele><time>2026-04-22T09:02:18.052Z</time></trkpt><trkpt lat="43.0928865" lon="11.2984662"><ele>278.0</ele><time>2026-04-22T09:02:19.068Z</time></trkpt><trkpt lat="43.0926742" lon="11.2983269"><ele>278.0</ele><time>2026-04-22T09:02:20.07Z</time></trkpt><trkpt lat="43.0924621" lon="11.2981809"><ele>285.5</ele><time>2026-04-22T09:02:21.074Z</time></trkpt><trkpt lat="43.0922508" lon="11.2980412"><ele>293.0</ele><time>2026-04-22T09:02:22.063Z</time></trkpt><trkpt lat="43.0920529" lon="11.2978869"><ele>293.0</ele><time>2026-04-22T09:02:23.071Z</time></trkpt><trkpt lat="43.0918551" lon="11.2977235"><ele>293.0</ele><time>2026-04-22T09:02:24.085Z</time></trkpt><trkpt lat="43.0916608" lon="11.2975536"><ele>292.0</ele><time>2026-04-22T09:02:25.059Z</time></trkpt><trkpt lat="43.0914692" lon="11.2973906"><ele>291.0</ele><time>2026-04-22T09:02:26.062Z</time></trkpt><trkpt lat="43.0912818" lon="11.2972192"><ele>291.0</ele><time>2026-04-22T09:02:27.049Z</time></trkpt><trkpt lat="43.0910999" lon="11.2970475"><ele>291.0</ele><time>2026-04-22T09:02:28.068Z</time></trkpt><trkpt lat="43.0909145" lon="11.2968758"><ele>291.0</ele><time>2026-04-22T09:02:29.065Z</time></trkpt><trkpt lat="43.0907217" lon="11.2967017"><ele>286.5</ele><time>2026-04-22T09:02:30.053Z</time></trkpt><trkpt lat="43.0905245" lon="11.2965612"><ele>282.0</ele><time>2026-04-22T09:02:31.066Z</time></trkpt><trkpt lat="43.090317" lon="11.2964062"><ele>282.0</ele><time>2026-04-22T09:02:32.073Z</time></trkpt><trkpt lat="43.0901013" lon="11.2962504"><ele>282.0</ele><time>2026-04-22T09:02:33.066Z</time></trkpt><trkpt lat="43.0898927" lon="11.2960861"><ele>277.5</ele><time>2026-04-22T09:02:34.074Z</time></trkpt><trkpt lat="43.0896832" lon="11.2959274"><ele>273.0</ele><time>2026-04-22T09:02:35.061Z</time></trkpt><trkpt lat="43.0894826" lon="11.2957758"><ele>273.0</ele><time>2026-04-22T09:02:36.075Z</time></trkpt><trkpt lat="43.0892889" lon="11.2956182"><ele>273.0</ele><time>2026-04-22T09:02:37.083Z</time></trkpt><trkpt lat="43.0890939" lon="11.2954756"><ele>273.0</ele><time>2026-04-22T09:02:38.078Z</time></trkpt><trkpt lat="43.0889012" lon="11.2953371"><ele>274.6666666666667</ele><time>2026-04-22T09:02:39.061Z</time></trkpt><trkpt lat="43.0887064" lon="11.2951993"><ele>276.33333333333337</ele><time>2026-04-22T09:02:40.049Z</time></trkpt><trkpt lat="43.0885014" lon="11.2950831"><ele>278.0</ele><time>2026-04-22T09:02:41.059Z</time></trkpt><trkpt lat="43.0882967" lon="11.2949697"><ele>274.33333333333337</ele><time>2026-04-22T09:02:42.037Z</time></trkpt><trkpt lat="43.0880924" lon="11.2948617"><ele>270.6666666666667</ele><time>2026-04-22T09:02:43.064Z</time></trkpt><trkpt lat="43.0878852" lon="11.2947661"><ele>267.0</ele><time>2026-04-22T09:02:44.071Z</time></trkpt><trkpt lat="43.0876708" lon="11.2946751"><ele>276.5</ele><time>2026-04-22T09:02:45.072Z</time></trkpt><trkpt lat="43.0874544" lon="11.2945923"><ele>286.0</ele><time>2026-04-22T09:02:46.058Z</time></trkpt><trkpt lat="43.0872341" lon="11.2945135"><ele>286.0</ele><time>2026-04-22T09:02:47.078Z</time></trkpt><trkpt lat="43.0870145" lon="11.2944386"><ele>286.0</ele><time>2026-04-22T09:02:48.077Z</time></trkpt><trkpt lat="43.0867956" lon="11.2943802"><ele>286.0</ele><time>2026-04-22T09:02:49.077Z</time></trkpt><trkpt lat="43.0865707" lon="11.2943274"><ele>284.5</ele><time>2026-04-22T09:02:50.06Z</time></trkpt><trkpt lat="43.086346" lon="11.2942845"><ele>283.0</ele><time>2026-04-22T09:02:51.078Z</time></trkpt><trkpt lat="43.0861221" lon="11.2942511"><ele>283.0</ele><time>2026-04-22T09:02:52.064Z</time></trkpt><trkpt lat="43.0858946" lon="11.2942197"><ele>283.0</ele><time>2026-04-22T09:02:53.083Z</time></trkpt><trkpt lat="43.0856667" lon="11.2941958"><ele>283.0</ele><time>2026-04-22T09:02:54.059Z</time></trkpt><trkpt lat="43.0854479" lon="11.294187"><ele>283.0</ele><time>2026-04-22T09:02:55.065Z</time></trkpt><trkpt lat="43.0852325" lon="11.2941731"><ele>283.0</ele><time>2026-04-22T09:02:56.048Z</time></trkpt><trkpt lat="43.0850265" lon="11.294195"><ele>283.5</ele><time>2026-04-22T09:02:57.058Z</time></trkpt><trkpt lat="43.0847902" lon="11.294244"><ele>284.0</ele><time>2026-04-22T09:02:58.067Z</time></trkpt><trkpt lat="43.0845645" lon="11.2942398"><ele>284.0</ele><time>2026-04-22T09:02:59.06Z</time></trkpt><trkpt lat="43.0843449" lon="11.2942626"><ele>284.0</ele><time>2026-04-22T09:03:00.062Z</time></trkpt><trkpt lat="43.084118" lon="11.2943196"><ele>281.5</ele><time>2026-04-22T09:03:01.073Z</time></trkpt><trkpt lat="43.0838906" lon="11.2943882"><ele>279.0</ele><time>2026-04-22T09:03:02.06Z</time></trkpt><trkpt lat="43.0836612" lon="11.294449"><ele>279.0</ele><time>2026-04-22T09:03:03.07Z</time></trkpt><trkpt lat="43.0834407" lon="11.2945096"><ele>279.0</ele><time>2026-04-22T09:03:04.048Z</time></trkpt><trkpt lat="43.0832192" lon="11.2945638"><ele>276.5</ele><time>2026-04-22T09:03:05.073Z</time></trkpt><trkpt lat="43.0829982" lon="11.2946188"><ele>274.0</ele><time>2026-04-22T09:03:06.074Z</time></trkpt><trkpt lat="43.082774" lon="11.294676"><ele>274.0</ele><time>2026-04-22T09:03:07.081Z</time></trkpt><trkpt lat="43.0825461" lon="11.2947339"><ele>274.0</ele><time>2026-04-22T09:03:08.06Z</time></trkpt><trkpt lat="43.0823213" lon="11.2947854"><ele>263.0</ele><time>2026-04-22T09:03:09.077Z</time></trkpt><trkpt lat="43.0820971" lon="11.2948404"><ele>252.0</ele><time>2026-04-22T09:03:10.067Z</time></trkpt><trkpt lat="43.0818726" lon="11.2948909"><ele>252.0</ele><time>2026-04-22T09:03:11.068Z</time></trkpt><trkpt lat="43.081648" lon="11.2949542"><ele>252.0</ele><time>2026-04-22T09:03:12.075Z</time></trkpt><trkpt lat="43.0814275" lon="11.2950148"><ele>241.5</ele><time>2026-04-22T09:03:13.057Z</time></trkpt><trkpt lat="43.0812051" lon="11.2950712"><ele>231.0</ele><time>2026-04-22T09:03:14.07Z</time></trkpt><trkpt lat="43.0809853" lon="11.2951268"><ele>221.5</ele><time>2026-04-22T09:03:15.076Z</time></trkpt><trkpt lat="43.0807611" lon="11.295178"><ele>212.0</ele><time>2026-04-22T09:03:16.07Z</time></trkpt><trkpt lat="43.0805402" lon="11.2952303"><ele>212.0</ele><time>2026-04-22T09:03:17.079Z</time></trkpt><trkpt lat="43.0803208" lon="11.2952882"><ele>212.0</ele><time>2026-04-22T09:03:18.079Z</time></trkpt><trkpt lat="43.0800942" lon="11.2953456"><ele>207.5</ele><time>2026-04-22T09:03:19.074Z</time></trkpt><trkpt lat="43.0798704" lon="11.2954042"><ele>203.0</ele><time>2026-04-22T09:03:20.063Z</time></trkpt><trkpt lat="43.0796509" lon="11.2954568"><ele>203.0</ele><time>2026-04-22T09:03:21.077Z</time></trkpt><trkpt lat="43.0794289" lon="11.2955105"><ele>203.0</ele><time>2026-04-22T09:03:22.077Z</time></trkpt><trkpt lat="43.0792112" lon="11.2955654"><ele>203.0</ele><time>2026-04-22T09:03:23.065Z</time></trkpt><trkpt lat="43.0789871" lon="11.2956218"><ele>200.0</ele><time>2026-04-22T09:03:24.083Z</time></trkpt><trkpt lat="43.0787644" lon="11.2956771"><ele>197.0</ele><time>2026-04-22T09:03:25.079Z</time></trkpt><trkpt lat="43.0785392" lon="11.295729"><ele>197.0</ele><time>2026-04-22T09:03:26.053Z</time></trkpt><trkpt lat="43.0783163" lon="11.2957869"><ele>197.0</ele><time>2026-04-22T09:03:27.067Z</time></trkpt><trkpt lat="43.0780983" lon="11.2958355"><ele>197.0</ele><time>2026-04-22T09:03:28.047Z</time></trkpt><trkpt lat="43.0778768" lon="11.2958853"><ele>193.0</ele><time>2026-04-22T09:03:29.086Z</time></trkpt><trkpt lat="43.0776539" lon="11.2959369"><ele>189.0</ele><time>2026-04-22T09:03:30.085Z</time></trkpt><trkpt lat="43.0774335" lon="11.2959908"><ele>189.0</ele><time>2026-04-22T09:03:31.068Z</time></trkpt><trkpt lat="43.0772091" lon="11.2960488"><ele>189.0</ele><time>2026-04-22T09:03:32.084Z</time></trkpt><trkpt lat="43.076989" lon="11.2961014"><ele>189.0</ele><time>2026-04-22T09:03:33.073Z</time></trkpt><trkpt lat="43.0767682" lon="11.2961553"><ele>189.0</ele><time>2026-04-22T09:03:34.066Z</time></trkpt><trkpt lat="43.0765448" lon="11.2962137"><ele>212.0</ele><time>2026-04-22T09:03:35.09Z</time></trkpt><trkpt lat="43.0763212" lon="11.2962679"><ele>235.0</ele><time>2026-04-22T09:03:36.081Z</time></trkpt><trkpt lat="43.0761005" lon="11.2963217"><ele>235.0</ele><time>2026-04-22T09:03:37.063Z</time></trkpt><trkpt lat="43.0758808" lon="11.2963767"><ele>235.0</ele><time>2026-04-22T09:03:38.072Z</time></trkpt><trkpt lat="43.0756583" lon="11.2964322"><ele>235.0</ele><time>2026-04-22T09:03:39.075Z</time></trkpt><trkpt lat="43.0754365" lon="11.2964915"><ele>254.0</ele><time>2026-04-22T09:03:40.065Z</time></trkpt><trkpt lat="43.0752125" lon="11.2965453"><ele>273.0</ele><time>2026-04-22T09:03:41.068Z</time></trkpt><trkpt lat="43.074993" lon="11.2965943"><ele>273.5</ele><time>2026-04-22T09:03:42.068Z</time></trkpt><trkpt lat="43.0747721" lon="11.2966382"><ele>274.0</ele><time>2026-04-22T09:03:43.065Z</time></trkpt><trkpt lat="43.0745473" lon="11.2966759"><ele>274.0</ele><time>2026-04-22T09:03:44.058Z</time></trkpt><trkpt lat="43.0743191" lon="11.2967092"><ele>274.0</ele><time>2026-04-22T09:03:45.065Z</time></trkpt><trkpt lat="43.0740909" lon="11.2967361"><ele>275.0</ele><time>2026-04-22T09:03:46.078Z</time></trkpt><trkpt lat="43.0738654" lon="11.296757"><ele>276.0</ele><time>2026-04-22T09:03:47.072Z</time></trkpt><trkpt lat="43.0736382" lon="11.2967628"><ele>276.0</ele><time>2026-04-22T09:03:48.047Z</time></trkpt><trkpt lat="43.0734096" lon="11.2967648"><ele>276.0</ele><time>2026-04-22T09:03:49.045Z</time></trkpt><trkpt lat="43.0731834" lon="11.2967406"><ele>276.6666666666667</ele><time>2026-04-22T09:03:50.057Z</time></trkpt><trkpt lat="43.0729673" lon="11.2967169"><ele>277.33333333333337</ele><time>2026-04-22T09:03:51.056Z</time></trkpt><trkpt lat="43.0727412" lon="11.2966932"><ele>278.0</ele><time>2026-04-22T09:03:52.06Z</time></trkpt><trkpt lat="43.0725168" lon="11.2966574"><ele>279.0</ele><time>2026-04-22T09:03:53.063Z</time></trkpt><trkpt lat="43.0722947" lon="11.296614"><ele>280.0</ele><time>2026-04-22T09:03:54.082Z</time></trkpt><trkpt lat="43.0720732" lon="11.2965559"><ele>280.0</ele><time>2026-04-22T09:03:55.074Z</time></trkpt><trkpt lat="43.0718589" lon="11.2964959"><ele>280.0</ele><time>2026-04-22T09:03:56.076Z</time></trkpt><trkpt lat="43.0716412" lon="11.2964279"><ele>280.0</ele><time>2026-04-22T09:03:57.076Z</time></trkpt><trkpt lat="43.0714232" lon="11.2963604"><ele>284.0</ele><time>2026-04-22T09:03:58.075Z</time></trkpt><trkpt lat="43.0712055" lon="11.2962888"><ele>288.0</ele><time>2026-04-22T09:03:59.066Z</time></trkpt><trkpt lat="43.0709885" lon="11.2962173"><ele>292.0</ele><time>2026-04-22T09:04:00.071Z</time></trkpt><trkpt lat="43.0707724" lon="11.2961334"><ele>294.0</ele><time>2026-04-22T09:04:01.083Z</time></trkpt><trkpt lat="43.0705584" lon="11.2960365"><ele>296.0</ele><time>2026-04-22T09:04:02.088Z</time></trkpt><trkpt lat="43.0703462" lon="11.2959384"><ele>298.0</ele><time>2026-04-22T09:04:03.077Z</time></trkpt><trkpt lat="43.0701357" lon="11.2958314"><ele>297.5</ele><time>2026-04-22T09:04:04.08Z</time></trkpt><trkpt lat="43.0699246" lon="11.2957124"><ele>297.0</ele><time>2026-04-22T09:04:05.083Z</time></trkpt><trkpt lat="43.0697095" lon="11.2955916"><ele>305.5</ele><time>2026-04-22T09:04:06.078Z</time></trkpt><trkpt lat="43.0695113" lon="11.2954559"><ele>314.0</ele><time>2026-04-22T09:04:07.067Z</time></trkpt><trkpt lat="43.0680624" lon="11.2945136"><ele>314.0</ele><time>2026-04-22T09:04:14.068Z</time></trkpt><trkpt lat="43.0678775" lon="11.2943891"><ele>314.0</ele><time>2026-04-22T09:04:15.052Z</time></trkpt><trkpt lat="43.0676717" lon="11.2942635"><ele>314.0</ele><time>2026-04-22T09:04:16.045Z</time></trkpt><trkpt lat="43.0674752" lon="11.2941154"><ele>317.5</ele><time>2026-04-22T09:04:17.051Z</time></trkpt><trkpt lat="43.0672872" lon="11.2939694"><ele>321.0</ele><time>2026-04-22T09:04:18.055Z</time></trkpt><trkpt lat="43.0532891" lon="11.284443"><ele>326.6666666666667</ele><time>2026-04-22T09:05:30.052Z</time></trkpt><trkpt lat="43.0534615" lon="11.2842301"><ele>332.33333333333337</ele><time>2026-04-22T09:05:35.05Z</time></trkpt><trkpt lat="43.0532648" lon="11.2841112"><ele>338.0</ele><time>2026-04-22T09:05:36.062Z</time></trkpt><trkpt lat="43.0530634" lon="11.2840211"><ele>338.0</ele><time>2026-04-22T09:05:37.066Z</time></trkpt><trkpt lat="43.0528634" lon="11.2839498"><ele>338.0</ele><time>2026-04-22T09:05:38.048Z</time></trkpt><trkpt lat="43.0526663" lon="11.2838982"><ele>338.0</ele><time>2026-04-22T09:05:39.066Z</time></trkpt><trkpt lat="43.0524726" lon="11.2838596"><ele>341.0</ele><time>2026-04-22T09:05:40.035Z</time></trkpt><trkpt lat="43.0522739" lon="11.2838224"><ele>344.0</ele><time>2026-04-22T09:05:41.055Z</time></trkpt><trkpt lat="43.0520676" lon="11.2837905"><ele>347.0</ele><time>2026-04-22T09:05:42.049Z</time></trkpt><trkpt lat="43.0518612" lon="11.2837657"><ele>347.0</ele><time>2026-04-22T09:05:43.053Z</time></trkpt><trkpt lat="43.0516487" lon="11.2837631"><ele>347.0</ele><time>2026-04-22T09:05:44.06Z</time></trkpt><trkpt lat="43.0514355" lon="11.2837693"><ele>347.0</ele><time>2026-04-22T09:05:45.063Z</time></trkpt><trkpt lat="43.0512167" lon="11.2837835"><ele>350.6666666666667</ele><time>2026-04-22T09:05:46.051Z</time></trkpt><trkpt lat="43.0510071" lon="11.2838087"><ele>354.3333333333333</ele><time>2026-04-22T09:05:47.067Z</time></trkpt><trkpt lat="43.0507977" lon="11.283843"><ele>358.0</ele><time>2026-04-22T09:05:48.07Z</time></trkpt><trkpt lat="43.0505796" lon="11.2838885"><ele>354.0</ele><time>2026-04-22T09:05:49.055Z</time></trkpt><trkpt lat="43.0503639" lon="11.2839418"><ele>350.0</ele><time>2026-04-22T09:05:50.051Z</time></trkpt><trkpt lat="43.0501496" lon="11.2839994"><ele>346.0</ele><time>2026-04-22T09:05:51.056Z</time></trkpt><trkpt lat="43.0484936" lon="11.284841"><ele>343.0</ele><time>2026-04-22T09:05:59.053Z</time></trkpt><trkpt lat="43.0482812" lon="11.2849491"><ele>340.0</ele><time>2026-04-22T09:06:00.059Z</time></trkpt><trkpt lat="43.0480405" lon="11.2851272"><ele>340.0</ele><time>2026-04-22T09:06:01.059Z</time></trkpt><trkpt lat="43.0478464" lon="11.285218"><ele>340.0</ele><time>2026-04-22T09:06:02.061Z</time></trkpt><trkpt lat="43.0476124" lon="11.285242"><ele>340.0</ele><time>2026-04-22T09:06:03.039Z</time></trkpt><trkpt lat="43.0474037" lon="11.2853166"><ele>339.3333333333333</ele><time>2026-04-22T09:06:04.04Z</time></trkpt><trkpt lat="43.0472027" lon="11.2853617"><ele>338.6666666666667</ele><time>2026-04-22T09:06:05.052Z</time></trkpt><trkpt lat="43.0469935" lon="11.2853795"><ele>338.0</ele><time>2026-04-22T09:06:06.053Z</time></trkpt><trkpt lat="43.0467924" lon="11.2853724"><ele>337.6666666666667</ele><time>2026-04-22T09:06:07.058Z</time></trkpt><trkpt lat="43.0466057" lon="11.2853914"><ele>337.3333333333333</ele><time>2026-04-22T09:06:08.037Z</time></trkpt><trkpt lat="43.0464117" lon="11.285431"><ele>337.0</ele><time>2026-04-22T09:06:09.057Z</time></trkpt><trkpt lat="43.0461979" lon="11.2855233"><ele>337.0</ele><time>2026-04-22T09:06:10.06Z</time></trkpt><trkpt lat="43.045997" lon="11.2855502"><ele>337.0</ele><time>2026-04-22T09:06:11.059Z</time></trkpt><trkpt lat="43.0458078" lon="11.2855575"><ele>337.0</ele><time>2026-04-22T09:06:12.058Z</time></trkpt><trkpt lat="43.0456168" lon="11.2855657"><ele>336.66666666666663</ele><time>2026-04-22T09:06:13.056Z</time></trkpt><trkpt lat="43.0454226" lon="11.285573"><ele>336.3333333333333</ele><time>2026-04-22T09:06:14.062Z</time></trkpt><trkpt lat="43.0452303" lon="11.2855761"><ele>336.0</ele><time>2026-04-22T09:06:15.069Z</time></trkpt><trkpt lat="43.0450426" lon="11.2855634"><ele>334.0</ele><time>2026-04-22T09:06:16.069Z</time></trkpt><trkpt lat="43.0448598" lon="11.2855447"><ele>332.0</ele><time>2026-04-22T09:06:17.066Z</time></trkpt><trkpt lat="43.0446788" lon="11.2855204"><ele>330.0</ele><time>2026-04-22T09:06:18.051Z</time></trkpt><trkpt lat="43.0445055" lon="11.2855009"><ele>330.0</ele><time>2026-04-22T09:06:19.052Z</time></trkpt><trkpt lat="43.0443369" lon="11.2854805"><ele>330.0</ele><time>2026-04-22T09:06:20.073Z</time></trkpt><trkpt lat="43.0441727" lon="11.2854569"><ele>330.0</ele><time>2026-04-22T09:06:21.056Z</time></trkpt><trkpt lat="43.0440212" lon="11.2854285"><ele>320.5</ele><time>2026-04-22T09:06:22.06Z</time></trkpt><trkpt lat="43.0438736" lon="11.2854135"><ele>311.0</ele><time>2026-04-22T09:06:23.06Z</time></trkpt><trkpt lat="43.0435605" lon="11.2853848"><ele>311.0</ele><time>2026-04-22T09:06:25.052Z</time></trkpt><trkpt lat="43.0433983" lon="11.2853136"><ele>311.0</ele><time>2026-04-22T09:06:26.052Z</time></trkpt><trkpt lat="43.0432431" lon="11.2852519"><ele>311.0</ele><time>2026-04-22T09:06:27.068Z</time></trkpt><trkpt lat="43.0430962" lon="11.2851519"><ele>305.6666666666667</ele><time>2026-04-22T09:06:28.057Z</time></trkpt><trkpt lat="43.0429596" lon="11.28501"><ele>300.3333333333333</ele><time>2026-04-22T09:06:29.052Z</time></trkpt><trkpt lat="43.0427998" lon="11.2849439"><ele>295.0</ele><time>2026-04-22T09:06:30.059Z</time></trkpt><trkpt lat="43.0426379" lon="11.2848842"><ele>295.0</ele><time>2026-04-22T09:06:31.043Z</time></trkpt><trkpt lat="43.042482" lon="11.2848021"><ele>295.0</ele><time>2026-04-22T09:06:32.048Z</time></trkpt><trkpt lat="43.0423188" lon="11.2847139"><ele>295.0</ele><time>2026-04-22T09:06:33.036Z</time></trkpt><trkpt lat="43.0421631" lon="11.2846124"><ele>293.66666666666663</ele><time>2026-04-22T09:06:34.055Z</time></trkpt><trkpt lat="43.042005" lon="11.2844899"><ele>292.3333333333333</ele><time>2026-04-22T09:06:35.066Z</time></trkpt><trkpt lat="43.041853" lon="11.2843608"><ele>291.0</ele><time>2026-04-22T09:06:36.073Z</time></trkpt><trkpt lat="43.0417019" lon="11.2842159"><ele>288.6666666666667</ele><time>2026-04-22T09:06:37.053Z</time></trkpt><trkpt lat="43.0415477" lon="11.2840663"><ele>286.33333333333337</ele><time>2026-04-22T09:06:38.065Z</time></trkpt><trkpt lat="43.0414004" lon="11.2839058"><ele>284.0</ele><time>2026-04-22T09:06:39.068Z</time></trkpt><trkpt lat="43.0412451" lon="11.2837442"><ele>284.0</ele><time>2026-04-22T09:06:40.059Z</time></trkpt><trkpt lat="43.0410973" lon="11.2835673"><ele>284.0</ele><time>2026-04-22T09:06:41.048Z</time></trkpt><trkpt lat="43.0409497" lon="11.2833766"><ele>284.0</ele><time>2026-04-22T09:06:42.044Z</time></trkpt><trkpt lat="43.040805" lon="11.2831828"><ele>281.0</ele><time>2026-04-22T09:06:43.057Z</time></trkpt><trkpt lat="43.0406663" lon="11.2829767"><ele>278.0</ele><time>2026-04-22T09:06:44.031Z</time></trkpt><trkpt lat="43.0405355" lon="11.2827512"><ele>275.0</ele><time>2026-04-22T09:06:45.061Z</time></trkpt><trkpt lat="43.0404065" lon="11.2825122"><ele>275.0</ele><time>2026-04-22T09:06:46.065Z</time></trkpt><trkpt lat="43.0402791" lon="11.2822676"><ele>275.0</ele><time>2026-04-22T09:06:47.057Z</time></trkpt><trkpt lat="43.0401608" lon="11.2820182"><ele>275.0</ele><time>2026-04-22T09:06:48.058Z</time></trkpt><trkpt lat="43.0400506" lon="11.2817602"><ele>274.5</ele><time>2026-04-22T09:06:49.056Z</time></trkpt><trkpt lat="43.0399427" lon="11.2814897"><ele>274.0</ele><time>2026-04-22T09:06:50.081Z</time></trkpt><trkpt lat="43.0398417" lon="11.2812138"><ele>272.66666666666663</ele><time>2026-04-22T09:06:51.081Z</time></trkpt><trkpt lat="43.0397502" lon="11.280937"><ele>271.3333333333333</ele><time>2026-04-22T09:06:52.059Z</time></trkpt><trkpt lat="43.039665" lon="11.280651"><ele>270.0</ele><time>2026-04-22T09:06:53.06Z</time></trkpt><trkpt lat="43.0395836" lon="11.2803603"><ele>270.0</ele><time>2026-04-22T09:06:54.07Z</time></trkpt><trkpt lat="43.0395043" lon="11.2800776"><ele>270.0</ele><time>2026-04-22T09:06:55.069Z</time></trkpt><trkpt lat="43.0394227" lon="11.2797915"><ele>270.0</ele><time>2026-04-22T09:06:56.067Z</time></trkpt><trkpt lat="43.0393387" lon="11.2795123"><ele>270.3333333333333</ele><time>2026-04-22T09:06:57.07Z</time></trkpt><trkpt lat="43.039254" lon="11.2792362"><ele>270.66666666666663</ele><time>2026-04-22T09:06:58.049Z</time></trkpt><trkpt lat="43.039166" lon="11.2789653"><ele>271.0</ele><time>2026-04-22T09:06:59.06Z</time></trkpt><trkpt lat="43.0390704" lon="11.2786887"><ele>259.0</ele><time>2026-04-22T09:07:00.059Z</time></trkpt><trkpt lat="43.0389759" lon="11.2784138"><ele>247.0</ele><time>2026-04-22T09:07:01.05Z</time></trkpt><trkpt lat="43.0364768" lon="11.2756863"><ele>244.33333333333331</ele><time>2026-04-22T09:07:16.036Z</time></trkpt><trkpt lat="43.0362781" lon="11.2755698"><ele>241.66666666666669</ele><time>2026-04-22T09:07:17.054Z</time></trkpt><trkpt lat="43.0360711" lon="11.275477"><ele>239.0</ele><time>2026-04-22T09:07:18.042Z</time></trkpt><trkpt lat="43.0358298" lon="11.2754303"><ele>234.5</ele><time>2026-04-22T09:07:19.062Z</time></trkpt><trkpt lat="43.0355996" lon="11.2753891"><ele>230.0</ele><time>2026-04-22T09:07:20.066Z</time></trkpt><trkpt lat="43.0353593" lon="11.2753667"><ele>230.0</ele><time>2026-04-22T09:07:21.061Z</time></trkpt><trkpt lat="43.0351208" lon="11.2753532"><ele>230.0</ele><time>2026-04-22T09:07:22.056Z</time></trkpt><trkpt lat="43.0348801" lon="11.2753543"><ele>226.0</ele><time>2026-04-22T09:07:23.058Z</time></trkpt><trkpt lat="43.0346386" lon="11.2753742"><ele>222.0</ele><time>2026-04-22T09:07:24.065Z</time></trkpt><trkpt lat="43.0343934" lon="11.2754133"><ele>222.0</ele><time>2026-04-22T09:07:25.068Z</time></trkpt><trkpt lat="43.0341491" lon="11.2754527"><ele>222.0</ele><time>2026-04-22T09:07:26.055Z</time></trkpt><trkpt lat="43.0339063" lon="11.275516"><ele>223.0</ele><time>2026-04-22T09:07:27.077Z</time></trkpt><trkpt lat="43.033667" lon="11.2755801"><ele>224.0</ele><time>2026-04-22T09:07:28.055Z</time></trkpt><trkpt lat="43.0334273" lon="11.2756618"><ele>220.0</ele><time>2026-04-22T09:07:29.06Z</time></trkpt><trkpt lat="43.0331847" lon="11.2757538"><ele>216.0</ele><time>2026-04-22T09:07:30.043Z</time></trkpt><trkpt lat="43.0329408" lon="11.2758538"><ele>216.0</ele><time>2026-04-22T09:07:31.065Z</time></trkpt><trkpt lat="43.0326995" lon="11.2759673"><ele>216.0</ele><time>2026-04-22T09:07:32.063Z</time></trkpt><trkpt lat="43.0324566" lon="11.2760854"><ele>213.0</ele><time>2026-04-22T09:07:33.055Z</time></trkpt><trkpt lat="43.0322195" lon="11.2761965"><ele>210.0</ele><time>2026-04-22T09:07:34.082Z</time></trkpt><trkpt lat="43.0319844" lon="11.2763089"><ele>210.0</ele><time>2026-04-22T09:07:35.061Z</time></trkpt><trkpt lat="43.0317527" lon="11.2764193"><ele>210.0</ele><time>2026-04-22T09:07:36.06Z</time></trkpt><trkpt lat="43.031521" lon="11.2765301"><ele>211.5</ele><time>2026-04-22T09:07:37.077Z</time></trkpt><trkpt lat="43.03129" lon="11.2766511"><ele>213.0</ele><time>2026-04-22T09:07:38.066Z</time></trkpt><trkpt lat="43.0310595" lon="11.2767627"><ele>213.0</ele><time>2026-04-22T09:07:39.064Z</time></trkpt><trkpt lat="43.0308294" lon="11.2768711"><ele>213.0</ele><time>2026-04-22T09:07:40.076Z</time></trkpt><trkpt lat="43.030601" lon="11.2769758"><ele>210.0</ele><time>2026-04-22T09:07:41.061Z</time></trkpt><trkpt lat="43.0303787" lon="11.2770884"><ele>207.0</ele><time>2026-04-22T09:07:42.06Z</time></trkpt><trkpt lat="43.0301577" lon="11.2771958"><ele>207.5</ele><time>2026-04-22T09:07:43.07Z</time></trkpt><trkpt lat="43.0299368" lon="11.2773001"><ele>208.0</ele><time>2026-04-22T09:07:44.059Z</time></trkpt><trkpt lat="43.029724" lon="11.2774045"><ele>208.0</ele><time>2026-04-22T09:07:45.058Z</time></trkpt><trkpt lat="43.0295162" lon="11.2775081"><ele>208.0</ele><time>2026-04-22T09:07:46.073Z</time></trkpt><trkpt lat="43.0293069" lon="11.277616"><ele>208.0</ele><time>2026-04-22T09:07:47.053Z</time></trkpt><trkpt lat="43.0290976" lon="11.2777256"><ele>206.66666666666666</ele><time>2026-04-22T09:07:48.079Z</time></trkpt><trkpt lat="43.0288904" lon="11.2778342"><ele>205.33333333333331</ele><time>2026-04-22T09:07:49.067Z</time></trkpt><trkpt lat="43.0286895" lon="11.2779366"><ele>204.0</ele><time>2026-04-22T09:07:50.065Z</time></trkpt><trkpt lat="43.0284844" lon="11.2780458"><ele>202.0</ele><time>2026-04-22T09:07:51.066Z</time></trkpt><trkpt lat="43.0282825" lon="11.2781531"><ele>200.0</ele><time>2026-04-22T09:07:52.06Z</time></trkpt><trkpt lat="43.0280754" lon="11.278266"><ele>198.0</ele><time>2026-04-22T09:07:53.07Z</time></trkpt><trkpt lat="43.0278689" lon="11.2783753"><ele>198.0</ele><time>2026-04-22T09:07:54.076Z</time></trkpt><trkpt lat="43.0276581" lon="11.2784895"><ele>198.0</ele><time>2026-04-22T09:07:55.061Z</time></trkpt><trkpt lat="43.0274437" lon="11.2786145"><ele>195.0</ele><time>2026-04-22T09:07:56.076Z</time></trkpt><trkpt lat="43.0272299" lon="11.2787313"><ele>192.0</ele><time>2026-04-22T09:07:57.061Z</time></trkpt><trkpt lat="43.0270098" lon="11.2788525"><ele>192.0</ele><time>2026-04-22T09:07:58.067Z</time></trkpt><trkpt lat="43.0267917" lon="11.2789822"><ele>192.0</ele><time>2026-04-22T09:07:59.054Z</time></trkpt><trkpt lat="43.0265721" lon="11.2791097"><ele>192.0</ele><time>2026-04-22T09:08:00.061Z</time></trkpt><trkpt lat="43.0263475" lon="11.2792419"><ele>192.0</ele><time>2026-04-22T09:08:01.066Z</time></trkpt><trkpt lat="43.0261124" lon="11.2793751"><ele>192.0</ele><time>2026-04-22T09:08:02.055Z</time></trkpt><trkpt lat="43.0258686" lon="11.2795106"><ele>192.0</ele><time>2026-04-22T09:08:03.074Z</time></trkpt><trkpt lat="43.0256332" lon="11.2796327"><ele>191.5</ele><time>2026-04-22T09:08:04.076Z</time></trkpt><trkpt lat="43.0254125" lon="11.2797328"><ele>191.0</ele><time>2026-04-22T09:08:05.066Z</time></trkpt><trkpt lat="43.0251957" lon="11.2798354"><ele>191.0</ele><time>2026-04-22T09:08:06.067Z</time></trkpt><trkpt lat="43.0249895" lon="11.2799232"><ele>191.0</ele><time>2026-04-22T09:08:07.067Z</time></trkpt><trkpt lat="43.0247896" lon="11.2800219"><ele>191.0</ele><time>2026-04-22T09:08:08.072Z</time></trkpt><trkpt lat="43.0245902" lon="11.2801262"><ele>191.0</ele><time>2026-04-22T09:08:09.072Z</time></trkpt><trkpt lat="43.0243899" lon="11.2802307"><ele>191.0</ele><time>2026-04-22T09:08:10.074Z</time></trkpt><trkpt lat="43.0241933" lon="11.2803308"><ele>191.0</ele><time>2026-04-22T09:08:11.052Z</time></trkpt><trkpt lat="43.023993" lon="11.2804375"><ele>190.66666666666666</ele><time>2026-04-22T09:08:12.042Z</time></trkpt><trkpt lat="43.0237916" lon="11.2805384"><ele>190.33333333333334</ele><time>2026-04-22T09:08:13.062Z</time></trkpt><trkpt lat="43.0235889" lon="11.2806422"><ele>190.0</ele><time>2026-04-22T09:08:14.079Z</time></trkpt><trkpt lat="43.0233873" lon="11.2807443"><ele>189.0</ele><time>2026-04-22T09:08:15.059Z</time></trkpt><trkpt lat="43.0231812" lon="11.2808539"><ele>188.0</ele><time>2026-04-22T09:08:16.065Z</time></trkpt><trkpt lat="43.022978" lon="11.2809586"><ele>187.0</ele><time>2026-04-22T09:08:17.065Z</time></trkpt><trkpt lat="43.0227709" lon="11.2810704"><ele>187.0</ele><time>2026-04-22T09:08:18.069Z</time></trkpt><trkpt lat="43.0225624" lon="11.2811872"><ele>187.0</ele><time>2026-04-22T09:08:19.053Z</time></trkpt><trkpt lat="43.0223582" lon="11.2813225"><ele>187.0</ele><time>2026-04-22T09:08:20.056Z</time></trkpt><trkpt lat="43.022163" lon="11.2814629"><ele>187.0</ele><time>2026-04-22T09:08:21.078Z</time></trkpt><trkpt lat="43.0219614" lon="11.281616"><ele>187.0</ele><time>2026-04-22T09:08:22.061Z</time></trkpt><trkpt lat="43.0217625" lon="11.2817727"><ele>187.0</ele><time>2026-04-22T09:08:23.066Z</time></trkpt><trkpt lat="43.0215652" lon="11.2819314"><ele>186.66666666666669</ele><time>2026-04-22T09:08:24.069Z</time></trkpt><trkpt lat="43.021375" lon="11.2820963"><ele>186.33333333333334</ele><time>2026-04-22T09:08:25.075Z</time></trkpt><trkpt lat="43.0211892" lon="11.2822628"><ele>186.0</ele><time>2026-04-22T09:08:26.082Z</time></trkpt><trkpt lat="43.0209988" lon="11.2824303"><ele>185.0</ele><time>2026-04-22T09:08:27.067Z</time></trkpt><trkpt lat="43.0208141" lon="11.2825961"><ele>184.0</ele><time>2026-04-22T09:08:28.076Z</time></trkpt><trkpt lat="43.0206278" lon="11.282759"><ele>183.0</ele><time>2026-04-22T09:08:29.07Z</time></trkpt><trkpt lat="43.0204432" lon="11.2829172"><ele>183.0</ele><time>2026-04-22T09:08:30.075Z</time></trkpt><trkpt lat="43.0202583" lon="11.2830786"><ele>183.0</ele><time>2026-04-22T09:08:31.071Z</time></trkpt><trkpt lat="43.020075" lon="11.2832425"><ele>183.0</ele><time>2026-04-22T09:08:32.071Z</time></trkpt><trkpt lat="43.0198875" lon="11.2834104"><ele>182.66666666666666</ele><time>2026-04-22T09:08:33.048Z</time></trkpt><trkpt lat="43.0196983" lon="11.2835765"><ele>182.33333333333331</ele><time>2026-04-22T09:08:34.046Z</time></trkpt><trkpt lat="43.0195093" lon="11.2837401"><ele>182.0</ele><time>2026-04-22T09:08:35.06Z</time></trkpt><trkpt lat="43.0193226" lon="11.2839003"><ele>183.33333333333331</ele><time>2026-04-22T09:08:36.075Z</time></trkpt><trkpt lat="43.0191405" lon="11.2840625"><ele>184.66666666666666</ele><time>2026-04-22T09:08:37.068Z</time></trkpt><trkpt lat="43.018959" lon="11.2842247"><ele>186.0</ele><time>2026-04-22T09:08:38.079Z</time></trkpt><trkpt lat="43.0187756" lon="11.284387"><ele>186.0</ele><time>2026-04-22T09:08:39.075Z</time></trkpt><trkpt lat="43.0185854" lon="11.2845533"><ele>186.0</ele><time>2026-04-22T09:08:40.08Z</time></trkpt><trkpt lat="43.0184013" lon="11.2847178"><ele>186.0</ele><time>2026-04-22T09:08:41.074Z</time></trkpt><trkpt lat="43.0182134" lon="11.2848862"><ele>186.5</ele><time>2026-04-22T09:08:42.056Z</time></trkpt><trkpt lat="43.0180254" lon="11.2850467"><ele>187.0</ele><time>2026-04-22T09:08:43.055Z</time></trkpt><trkpt lat="43.0178317" lon="11.2852156"><ele>187.0</ele><time>2026-04-22T09:08:44.073Z</time></trkpt><trkpt lat="43.0176442" lon="11.2853814"><ele>187.0</ele><time>2026-04-22T09:08:45.041Z</time></trkpt><trkpt lat="43.0174561" lon="11.2855516"><ele>187.0</ele><time>2026-04-22T09:08:46.064Z</time></trkpt><trkpt lat="43.0172757" lon="11.2857152"><ele>193.0</ele><time>2026-04-22T09:08:47.074Z</time></trkpt><trkpt lat="43.0170951" lon="11.2858784"><ele>199.0</ele><time>2026-04-22T09:08:48.068Z</time></trkpt><trkpt lat="43.0169076" lon="11.2860468"><ele>205.0</ele><time>2026-04-22T09:08:49.052Z</time></trkpt><trkpt lat="43.0167249" lon="11.2862152"><ele>205.0</ele><time>2026-04-22T09:08:50.045Z</time></trkpt><trkpt lat="43.0165413" lon="11.2863858"><ele>205.0</ele><time>2026-04-22T09:08:51.055Z</time></trkpt><trkpt lat="43.0163523" lon="11.2865485"><ele>205.0</ele><time>2026-04-22T09:08:52.057Z</time></trkpt><trkpt lat="43.0161829" lon="11.2867198"><ele>199.33333333333331</ele><time>2026-04-22T09:08:53.07Z</time></trkpt><trkpt lat="43.0159852" lon="11.2868469"><ele>193.66666666666666</ele><time>2026-04-22T09:08:54.074Z</time></trkpt><trkpt lat="43.0158041" lon="11.2870121"><ele>188.0</ele><time>2026-04-22T09:08:55.05Z</time></trkpt><trkpt lat="43.0156266" lon="11.2871602"><ele>181.33333333333331</ele><time>2026-04-22T09:08:56.059Z</time></trkpt><trkpt lat="43.0154581" lon="11.2873021"><ele>174.66666666666666</ele><time>2026-04-22T09:08:57.056Z</time></trkpt><trkpt lat="43.0152724" lon="11.2874357"><ele>168.0</ele><time>2026-04-22T09:08:58.056Z</time></trkpt><trkpt lat="43.0150929" lon="11.2875619"><ele>170.0</ele><time>2026-04-22T09:08:59.064Z</time></trkpt><trkpt lat="43.0149076" lon="11.2876782"><ele>172.0</ele><time>2026-04-22T09:09:00.053Z</time></trkpt><trkpt lat="43.0147224" lon="11.2877819"><ele>174.0</ele><time>2026-04-22T09:09:01.076Z</time></trkpt><trkpt lat="43.0145321" lon="11.2878736"><ele>174.0</ele><time>2026-04-22T09:09:02.069Z</time></trkpt><trkpt lat="43.014337" lon="11.2879517"><ele>174.0</ele><time>2026-04-22T09:09:03.057Z</time></trkpt><trkpt lat="43.0141392" lon="11.288012"><ele>174.0</ele><time>2026-04-22T09:09:04.071Z</time></trkpt><trkpt lat="43.0139495" lon="11.2880581"><ele>177.66666666666666</ele><time>2026-04-22T09:09:05.067Z</time></trkpt><trkpt lat="43.0137641" lon="11.2880968"><ele>181.33333333333331</ele><time>2026-04-22T09:09:06.06Z</time></trkpt><trkpt lat="43.0135876" lon="11.2881405"><ele>185.0</ele><time>2026-04-22T09:09:07.061Z</time></trkpt><trkpt lat="43.0134294" lon="11.2881636"><ele>185.4</ele><time>2026-04-22T09:09:08.068Z</time></trkpt><trkpt lat="43.013297" lon="11.2881625"><ele>185.8</ele><time>2026-04-22T09:09:09.074Z</time></trkpt><trkpt lat="43.0131794" lon="11.2881636"><ele>186.2</ele><time>2026-04-22T09:09:10.059Z</time></trkpt><trkpt lat="43.0130774" lon="11.2881642"><ele>186.6</ele><time>2026-04-22T09:09:11.058Z</time></trkpt><trkpt lat="43.0129847" lon="11.2881669"><ele>187.0</ele><time>2026-04-22T09:09:12.063Z</time></trkpt><trkpt lat="43.012893" lon="11.2881996"><ele>187.0</ele><time>2026-04-22T09:09:13.07Z</time></trkpt><trkpt lat="43.0128253" lon="11.2882591"><ele>187.0</ele><time>2026-04-22T09:09:14.072Z</time></trkpt><trkpt lat="43.0127581" lon="11.2883304"><ele>187.0</ele><time>2026-04-22T09:09:15.064Z</time></trkpt><trkpt lat="43.0126894" lon="11.2884076"><ele>187.0</ele><time>2026-04-22T09:09:16.054Z</time></trkpt><trkpt lat="43.0125979" lon="11.2884565"><ele>187.0</ele><time>2026-04-22T09:09:17.051Z</time></trkpt><trkpt lat="43.012494" lon="11.2884854"><ele>185.75</ele><time>2026-04-22T09:09:18.052Z</time></trkpt><trkpt lat="43.012391" lon="11.2884753"><ele>184.5</ele><time>2026-04-22T09:09:19.057Z</time></trkpt><trkpt lat="43.0122663" lon="11.288471"><ele>183.25</ele><time>2026-04-22T09:09:20.063Z</time></trkpt><trkpt lat="43.0121318" lon="11.288476"><ele>182.0</ele><time>2026-04-22T09:09:21.068Z</time></trkpt><trkpt lat="43.0119983" lon="11.288469"><ele>182.0</ele><time>2026-04-22T09:09:22.079Z</time></trkpt><trkpt lat="43.0118586" lon="11.2884572"><ele>182.0</ele><time>2026-04-22T09:09:23.076Z</time></trkpt><trkpt lat="43.0117234" lon="11.2884437"><ele>182.0</ele><time>2026-04-22T09:09:24.078Z</time></trkpt><trkpt lat="43.0115899" lon="11.2884359"><ele>182.0</ele><time>2026-04-22T09:09:25.066Z</time></trkpt><trkpt lat="43.0114515" lon="11.2884245"><ele>182.25</ele><time>2026-04-22T09:09:26.063Z</time></trkpt><trkpt lat="43.011311" lon="11.2884166"><ele>182.5</ele><time>2026-04-22T09:09:27.073Z</time></trkpt><trkpt lat="43.0111726" lon="11.2884009"><ele>182.75</ele><time>2026-04-22T09:09:28.072Z</time></trkpt><trkpt lat="43.0110295" lon="11.2883825"><ele>183.0</ele><time>2026-04-22T09:09:29.045Z</time></trkpt><trkpt lat="43.0108913" lon="11.288362"><ele>184.0</ele><time>2026-04-22T09:09:30.074Z</time></trkpt><trkpt lat="43.0107541" lon="11.2883396"><ele>185.0</ele><time>2026-04-22T09:09:31.079Z</time></trkpt><trkpt lat="43.0106195" lon="11.2883209"><ele>186.0</ele><time>2026-04-22T09:09:32.065Z</time></trkpt><trkpt lat="43.010487" lon="11.2883035"><ele>187.0</ele><time>2026-04-22T09:09:33.061Z</time></trkpt><trkpt lat="43.0103526" lon="11.2882845"><ele>187.0</ele><time>2026-04-22T09:09:34.086Z</time></trkpt><trkpt lat="43.0102189" lon="11.2882714"><ele>187.0</ele><time>2026-04-22T09:09:35.078Z</time></trkpt><trkpt lat="43.0100835" lon="11.288253"><ele>187.0</ele><time>2026-04-22T09:09:36.042Z</time></trkpt><trkpt lat="43.0099481" lon="11.2882359"><ele>187.0</ele><time>2026-04-22T09:09:37.06Z</time></trkpt><trkpt lat="43.0098125" lon="11.2882164"><ele>185.25</ele><time>2026-04-22T09:09:38.055Z</time></trkpt><trkpt lat="43.0096812" lon="11.2881862"><ele>183.5</ele><time>2026-04-22T09:09:39.079Z</time></trkpt><trkpt lat="43.009547" lon="11.2881708"><ele>181.75</ele><time>2026-04-22T09:09:40.069Z</time></trkpt><trkpt lat="43.0094098" lon="11.2881529"><ele>180.0</ele><time>2026-04-22T09:09:41.068Z</time></trkpt><trkpt lat="43.0092729" lon="11.2881384"><ele>185.75</ele><time>2026-04-22T09:09:42.08Z</time></trkpt><trkpt lat="43.0091394" lon="11.2881213"><ele>191.5</ele><time>2026-04-22T09:09:43.074Z</time></trkpt><trkpt lat="43.0090035" lon="11.2881105"><ele>197.25</ele><time>2026-04-22T09:09:44.06Z</time></trkpt><trkpt lat="43.0088724" lon="11.2881023"><ele>203.0</ele><time>2026-04-22T09:09:45.079Z</time></trkpt><trkpt lat="43.0087399" lon="11.2880913"><ele>204.0</ele><time>2026-04-22T09:09:46.035Z</time></trkpt><trkpt lat="43.008611" lon="11.2880829"><ele>205.0</ele><time>2026-04-22T09:09:47.085Z</time></trkpt><trkpt lat="43.0084841" lon="11.2880768"><ele>206.0</ele><time>2026-04-22T09:09:48.053Z</time></trkpt><trkpt lat="43.0083576" lon="11.2880715"><ele>207.0</ele><time>2026-04-22T09:09:49.076Z</time></trkpt><trkpt lat="43.0082296" lon="11.2880658"><ele>211.75</ele><time>2026-04-22T09:09:50.062Z</time></trkpt><trkpt lat="43.0081083" lon="11.2880528"><ele>216.5</ele><time>2026-04-22T09:09:51.078Z</time></trkpt><trkpt lat="43.0079875" lon="11.2880204"><ele>221.25</ele><time>2026-04-22T09:09:52.061Z</time></trkpt><trkpt lat="43.0078902" lon="11.2879566"><ele>226.0</ele><time>2026-04-22T09:09:53.059Z</time></trkpt><trkpt lat="43.0078065" lon="11.287887"><ele>226.0</ele><time>2026-04-22T09:09:54.068Z</time></trkpt><trkpt lat="43.0077208" lon="11.2878201"><ele>226.00000000000003</ele><time>2026-04-22T09:09:55.059Z</time></trkpt><trkpt lat="43.0076207" lon="11.2877685"><ele>226.00000000000003</ele><time>2026-04-22T09:09:56.068Z</time></trkpt><trkpt lat="43.0075171" lon="11.2877535"><ele>226.0</ele><time>2026-04-22T09:09:57.055Z</time></trkpt><trkpt lat="43.0074039" lon="11.2877601"><ele>226.0</ele><time>2026-04-22T09:09:58.063Z</time></trkpt><trkpt lat="43.0072918" lon="11.2877715"><ele>222.75</ele><time>2026-04-22T09:09:59.072Z</time></trkpt><trkpt lat="43.0071711" lon="11.2877787"><ele>219.5</ele><time>2026-04-22T09:10:00.072Z</time></trkpt><trkpt lat="43.0070449" lon="11.2877859"><ele>216.25</ele><time>2026-04-22T09:10:01.045Z</time></trkpt><trkpt lat="43.0069162" lon="11.2877908"><ele>213.0</ele><time>2026-04-22T09:10:02.042Z</time></trkpt><trkpt lat="43.0067848" lon="11.2878001"><ele>215.25</ele><time>2026-04-22T09:10:03.077Z</time></trkpt><trkpt lat="43.0066475" lon="11.2878067"><ele>217.5</ele><time>2026-04-22T09:10:04.075Z</time></trkpt><trkpt lat="43.0065076" lon="11.2878217"><ele>219.75</ele><time>2026-04-22T09:10:05.095Z</time></trkpt><trkpt lat="43.006373" lon="11.2878334"><ele>222.0</ele><time>2026-04-22T09:10:06.087Z</time></trkpt><trkpt lat="43.0062472" lon="11.2878388"><ele>222.0</ele><time>2026-04-22T09:10:07.078Z</time></trkpt><trkpt lat="43.0061197" lon="11.2878495"><ele>222.0</ele><time>2026-04-22T09:10:08.076Z</time></trkpt><trkpt lat="43.0059938" lon="11.2878603"><ele>222.0</ele><time>2026-04-22T09:10:09.073Z</time></trkpt><trkpt lat="43.0058702" lon="11.2878668"><ele>222.0</ele><time>2026-04-22T09:10:10.061Z</time></trkpt><trkpt lat="43.0057391" lon="11.2878764"><ele>224.5</ele><time>2026-04-22T09:10:11.069Z</time></trkpt><trkpt lat="43.0056019" lon="11.2878943"><ele>227.0</ele><time>2026-04-22T09:10:12.072Z</time></trkpt><trkpt lat="43.0054646" lon="11.2879077"><ele>229.5</ele><time>2026-04-22T09:10:13.074Z</time></trkpt><trkpt lat="43.0053251" lon="11.2879195"><ele>232.0</ele><time>2026-04-22T09:10:14.07Z</time></trkpt><trkpt lat="43.005185" lon="11.2879319"><ele>232.0</ele><time>2026-04-22T09:10:15.071Z</time></trkpt><trkpt lat="43.0050504" lon="11.2879409"><ele>232.0</ele><time>2026-04-22T09:10:16.056Z</time></trkpt><trkpt lat="43.004911" lon="11.2879564"><ele>232.0</ele><time>2026-04-22T09:10:17.054Z</time></trkpt><trkpt lat="43.0047685" lon="11.2879745"><ele>232.0</ele><time>2026-04-22T09:10:18.072Z</time></trkpt><trkpt lat="43.0046242" lon="11.2879851"><ele>231.5</ele><time>2026-04-22T09:10:19.069Z</time></trkpt><trkpt lat="43.0044809" lon="11.2879959"><ele>231.0</ele><time>2026-04-22T09:10:20.065Z</time></trkpt><trkpt lat="43.0043313" lon="11.2880145"><ele>230.5</ele><time>2026-04-22T09:10:21.054Z</time></trkpt><trkpt lat="43.0041774" lon="11.2880329"><ele>230.0</ele><time>2026-04-22T09:10:22.073Z</time></trkpt><trkpt lat="43.0040112" lon="11.2880446"><ele>235.66666666666669</ele><time>2026-04-22T09:10:23.059Z</time></trkpt><trkpt lat="43.0038422" lon="11.2880578"><ele>241.33333333333331</ele><time>2026-04-22T09:10:24.081Z</time></trkpt><trkpt lat="43.0036753" lon="11.2880567"><ele>247.0</ele><time>2026-04-22T09:10:25.076Z</time></trkpt><trkpt lat="43.0035069" lon="11.2880495"><ele>247.0</ele><time>2026-04-22T09:10:26.072Z</time></trkpt><trkpt lat="43.0033319" lon="11.2880439"><ele>247.0</ele><time>2026-04-22T09:10:27.05Z</time></trkpt><trkpt lat="43.0031569" lon="11.2880273"><ele>247.0</ele><time>2026-04-22T09:10:28.059Z</time></trkpt><trkpt lat="43.0029879" lon="11.2880061"><ele>249.66666666666666</ele><time>2026-04-22T09:10:29.065Z</time></trkpt><trkpt lat="43.0028142" lon="11.2879755"><ele>252.33333333333331</ele><time>2026-04-22T09:10:30.084Z</time></trkpt><trkpt lat="43.002642" lon="11.2879363"><ele>255.0</ele><time>2026-04-22T09:10:31.076Z</time></trkpt><trkpt lat="43.0024737" lon="11.2878948"><ele>257.0</ele><time>2026-04-22T09:10:32.067Z</time></trkpt><trkpt lat="43.0023017" lon="11.2878497"><ele>259.0</ele><time>2026-04-22T09:10:33.065Z</time></trkpt><trkpt lat="43.0021355" lon="11.2878047"><ele>261.0</ele><time>2026-04-22T09:10:34.047Z</time></trkpt><trkpt lat="43.0019695" lon="11.2877602"><ele>261.0</ele><time>2026-04-22T09:10:35.069Z</time></trkpt><trkpt lat="43.0018068" lon="11.2877223"><ele>261.0</ele><time>2026-04-22T09:10:36.085Z</time></trkpt><trkpt lat="43.0016437" lon="11.2876813"><ele>261.0</ele><time>2026-04-22T09:10:37.099Z</time></trkpt><trkpt lat="43.0014789" lon="11.2876361"><ele>260.0</ele><time>2026-04-22T09:10:38.067Z</time></trkpt><trkpt lat="43.0013133" lon="11.2875872"><ele>259.0</ele><time>2026-04-22T09:10:39.097Z</time></trkpt><trkpt lat="43.0011418" lon="11.2875391"><ele>258.0</ele><time>2026-04-22T09:10:40.092Z</time></trkpt><trkpt lat="43.0009761" lon="11.2874933"><ele>258.0</ele><time>2026-04-22T09:10:41.095Z</time></trkpt><trkpt lat="43.0008109" lon="11.2874484"><ele>258.0</ele><time>2026-04-22T09:10:42.086Z</time></trkpt><trkpt lat="43.0006494" lon="11.2874006"><ele>258.0</ele><time>2026-04-22T09:10:43.086Z</time></trkpt><trkpt lat="43.0004832" lon="11.2873611"><ele>258.0</ele><time>2026-04-22T09:10:44.076Z</time></trkpt><trkpt lat="43.0003219" lon="11.287323"><ele>258.0</ele><time>2026-04-22T09:10:45.089Z</time></trkpt><trkpt lat="43.0001581" lon="11.2872866"><ele>258.0</ele><time>2026-04-22T09:10:46.089Z</time></trkpt><trkpt lat="42.9999912" lon="11.2872501"><ele>265.0</ele><time>2026-04-22T09:10:47.06Z</time></trkpt><trkpt lat="42.9998221" lon="11.2872181"><ele>272.0</ele><time>2026-04-22T09:10:48.041Z</time></trkpt><trkpt lat="42.999652" lon="11.2871986"><ele>279.0</ele><time>2026-04-22T09:10:49.077Z</time></trkpt><trkpt lat="42.9994783" lon="11.2871903"><ele>279.0</ele><time>2026-04-22T09:10:50.034Z</time></trkpt><trkpt lat="42.9992974" lon="11.2871936"><ele>279.0</ele><time>2026-04-22T09:10:51.05Z</time></trkpt><trkpt lat="42.9991199" lon="11.2872028"><ele>279.0</ele><time>2026-04-22T09:10:52.071Z</time></trkpt><trkpt lat="42.9989404" lon="11.2872227"><ele>277.6666666666667</ele><time>2026-04-22T09:10:53.088Z</time></trkpt><trkpt lat="42.9987588" lon="11.2872542"><ele>276.33333333333337</ele><time>2026-04-22T09:10:54.094Z</time></trkpt><trkpt lat="42.9985783" lon="11.287294"><ele>275.0</ele><time>2026-04-22T09:10:55.074Z</time></trkpt><trkpt lat="42.9983967" lon="11.2873362"><ele>273.6666666666667</ele><time>2026-04-22T09:10:56.093Z</time></trkpt><trkpt lat="42.9982074" lon="11.2873954"><ele>272.3333333333333</ele><time>2026-04-22T09:10:57.074Z</time></trkpt><trkpt lat="42.9980206" lon="11.2874673"><ele>271.0</ele><time>2026-04-22T09:10:58.086Z</time></trkpt><trkpt lat="42.9978358" lon="11.2875454"><ele>271.0</ele><time>2026-04-22T09:10:59.083Z</time></trkpt><trkpt lat="42.9976502" lon="11.2876391"><ele>271.0</ele><time>2026-04-22T09:11:00.108Z</time></trkpt><trkpt lat="42.9974622" lon="11.2877436"><ele>271.0</ele><time>2026-04-22T09:11:01.074Z</time></trkpt><trkpt lat="42.9972688" lon="11.2878456"><ele>271.66666666666663</ele><time>2026-04-22T09:11:02.099Z</time></trkpt><trkpt lat="42.9970704" lon="11.2879533"><ele>272.3333333333333</ele><time>2026-04-22T09:11:03.104Z</time></trkpt><trkpt lat="42.9968707" lon="11.2880602"><ele>273.0</ele><time>2026-04-22T09:11:04.087Z</time></trkpt><trkpt lat="42.9966743" lon="11.2881574"><ele>273.6666666666667</ele><time>2026-04-22T09:11:05.092Z</time></trkpt><trkpt lat="42.9964743" lon="11.2882633"><ele>274.33333333333337</ele><time>2026-04-22T09:11:06.088Z</time></trkpt><trkpt lat="42.9962718" lon="11.2883758"><ele>275.0</ele><time>2026-04-22T09:11:07.095Z</time></trkpt><trkpt lat="42.9960666" lon="11.2884918"><ele>275.0</ele><time>2026-04-22T09:11:08.093Z</time></trkpt><trkpt lat="42.995861" lon="11.2886052"><ele>275.0</ele><time>2026-04-22T09:11:09.106Z</time></trkpt><trkpt lat="42.9956448" lon="11.2887159"><ele>275.0</ele><time>2026-04-22T09:11:10.089Z</time></trkpt><trkpt lat="42.9954307" lon="11.2888236"><ele>275.0</ele><time>2026-04-22T09:11:11.098Z</time></trkpt><trkpt lat="42.9952187" lon="11.2889196"><ele>274.0</ele><time>2026-04-22T09:11:12.1Z</time></trkpt><trkpt lat="42.9949942" lon="11.289009"><ele>273.0</ele><time>2026-04-22T09:11:13.097Z</time></trkpt><trkpt lat="42.99477" lon="11.2890959"><ele>273.0</ele><time>2026-04-22T09:11:14.089Z</time></trkpt><trkpt lat="42.9945407" lon="11.289165"><ele>273.0</ele><time>2026-04-22T09:11:15.088Z</time></trkpt><trkpt lat="42.9943107" lon="11.2892123"><ele>274.5</ele><time>2026-04-22T09:11:16.095Z</time></trkpt><trkpt lat="42.9940754" lon="11.2892481"><ele>276.0</ele><time>2026-04-22T09:11:17.094Z</time></trkpt><trkpt lat="42.9938406" lon="11.2892693"><ele>276.0</ele><time>2026-04-22T09:11:18.08Z</time></trkpt><trkpt lat="42.9936057" lon="11.2892733"><ele>276.0</ele><time>2026-04-22T09:11:19.095Z</time></trkpt><trkpt lat="42.9933739" lon="11.2892652"><ele>274.0</ele><time>2026-04-22T09:11:20.091Z</time></trkpt><trkpt lat="42.9931397" lon="11.289245"><ele>272.0</ele><time>2026-04-22T09:11:21.088Z</time></trkpt><trkpt lat="42.9929051" lon="11.2892016"><ele>272.0</ele><time>2026-04-22T09:11:22.089Z</time></trkpt><trkpt lat="42.9926741" lon="11.2891538"><ele>272.0</ele><time>2026-04-22T09:11:23.097Z</time></trkpt><trkpt lat="42.9924471" lon="11.2890909"><ele>267.0</ele><time>2026-04-22T09:11:24.096Z</time></trkpt><trkpt lat="42.9922225" lon="11.2890076"><ele>262.0</ele><time>2026-04-22T09:11:25.077Z</time></trkpt><trkpt lat="42.9919969" lon="11.2889037"><ele>262.0</ele><time>2026-04-22T09:11:26.089Z</time></trkpt><trkpt lat="42.9917656" lon="11.2887852"><ele>262.0</ele><time>2026-04-22T09:11:27.096Z</time></trkpt><trkpt lat="42.9915412" lon="11.2886464"><ele>259.5</ele><time>2026-04-22T09:11:28.072Z</time></trkpt><trkpt lat="42.9913161" lon="11.2885019"><ele>257.0</ele><time>2026-04-22T09:11:29.09Z</time></trkpt><trkpt lat="42.991099" lon="11.2883313"><ele>257.0</ele><time>2026-04-22T09:11:30.099Z</time></trkpt><trkpt lat="42.990887" lon="11.2881461"><ele>257.0</ele><time>2026-04-22T09:11:31.067Z</time></trkpt><trkpt lat="42.9906771" lon="11.2879601"><ele>250.5</ele><time>2026-04-22T09:11:32.118Z</time></trkpt><trkpt lat="42.9904765" lon="11.2877626"><ele>244.0</ele><time>2026-04-22T09:11:33.085Z</time></trkpt><trkpt lat="42.990275" lon="11.2875575"><ele>244.0</ele><time>2026-04-22T09:11:34.061Z</time></trkpt><trkpt lat="42.9900632" lon="11.2873647"><ele>244.0</ele><time>2026-04-22T09:11:35.086Z</time></trkpt><trkpt lat="42.9898457" lon="11.2871846"><ele>239.5</ele><time>2026-04-22T09:11:36.101Z</time></trkpt><trkpt lat="42.9896285" lon="11.2870095"><ele>235.0</ele><time>2026-04-22T09:11:37.103Z</time></trkpt><trkpt lat="42.9894054" lon="11.2868542"><ele>235.0</ele><time>2026-04-22T09:11:38.084Z</time></trkpt><trkpt lat="42.9891774" lon="11.2867111"><ele>235.0</ele><time>2026-04-22T09:11:39.089Z</time></trkpt><trkpt lat="42.9889517" lon="11.2865807"><ele>233.5</ele><time>2026-04-22T09:11:40.09Z</time></trkpt><trkpt lat="42.9887206" lon="11.2864723"><ele>232.0</ele><time>2026-04-22T09:11:41.106Z</time></trkpt><trkpt lat="42.9884855" lon="11.2863782"><ele>230.5</ele><time>2026-04-22T09:11:42.09Z</time></trkpt><trkpt lat="42.988251" lon="11.2862972"><ele>229.0</ele><time>2026-04-22T09:11:43.092Z</time></trkpt><trkpt lat="42.9880106" lon="11.2862328"><ele>229.0</ele><time>2026-04-22T09:11:44.091Z</time></trkpt><trkpt lat="42.987765" lon="11.2861862"><ele>229.0</ele><time>2026-04-22T09:11:45.083Z</time></trkpt><trkpt lat="42.9875204" lon="11.2861509"><ele>229.0</ele><time>2026-04-22T09:11:46.105Z</time></trkpt><trkpt lat="42.9872677" lon="11.286137"><ele>229.0</ele><time>2026-04-22T09:11:47.029Z</time></trkpt><trkpt lat="42.98702" lon="11.2861217"><ele>229.0</ele><time>2026-04-22T09:11:48.087Z</time></trkpt><trkpt lat="42.9867718" lon="11.2861178"><ele>229.0</ele><time>2026-04-22T09:11:49.083Z</time></trkpt><trkpt lat="42.9865227" lon="11.2861158"><ele>227.0</ele><time>2026-04-22T09:11:50.057Z</time></trkpt><trkpt lat="42.9862735" lon="11.2861173"><ele>225.0</ele><time>2026-04-22T09:11:51.094Z</time></trkpt><trkpt lat="42.9860214" lon="11.2861128"><ele>226.5</ele><time>2026-04-22T09:11:52.084Z</time></trkpt><trkpt lat="42.9857706" lon="11.2861073"><ele>228.0</ele><time>2026-04-22T09:11:53.08Z</time></trkpt><trkpt lat="42.9855203" lon="11.2861003"><ele>228.0</ele><time>2026-04-22T09:11:54.092Z</time></trkpt><trkpt lat="42.9852714" lon="11.2861037"><ele>228.0</ele><time>2026-04-22T09:11:55.109Z</time></trkpt><trkpt lat="42.9850225" lon="11.2860939"><ele>223.5</ele><time>2026-04-22T09:11:56.085Z</time></trkpt><trkpt lat="42.9847699" lon="11.2860893"><ele>219.0</ele><time>2026-04-22T09:11:57.057Z</time></trkpt><trkpt lat="42.9845244" lon="11.2860807"><ele>219.0</ele><time>2026-04-22T09:11:58.083Z</time></trkpt><trkpt lat="42.9842738" lon="11.2860714"><ele>219.0</ele><time>2026-04-22T09:11:59.084Z</time></trkpt><trkpt lat="42.9840256" lon="11.2860515"><ele>215.5</ele><time>2026-04-22T09:12:00.083Z</time></trkpt><trkpt lat="42.9837766" lon="11.2860277"><ele>212.0</ele><time>2026-04-22T09:12:01.089Z</time></trkpt><trkpt lat="42.9835226" lon="11.285997"><ele>212.0</ele><time>2026-04-22T09:12:02.093Z</time></trkpt><trkpt lat="42.9832667" lon="11.2859496"><ele>212.0</ele><time>2026-04-22T09:12:03.089Z</time></trkpt><trkpt lat="42.9830127" lon="11.2858895"><ele>212.0</ele><time>2026-04-22T09:12:04.095Z</time></trkpt><trkpt lat="42.9827618" lon="11.2858206"><ele>212.0</ele><time>2026-04-22T09:12:05.092Z</time></trkpt><trkpt lat="42.9825139" lon="11.2857496"><ele>211.5</ele><time>2026-04-22T09:12:06.058Z</time></trkpt><trkpt lat="42.9822645" lon="11.2856771"><ele>211.0</ele><time>2026-04-22T09:12:07.087Z</time></trkpt><trkpt lat="42.9820193" lon="11.2855972"><ele>207.5</ele><time>2026-04-22T09:12:08.092Z</time></trkpt><trkpt lat="42.9817711" lon="11.2855177"><ele>204.0</ele><time>2026-04-22T09:12:09.091Z</time></trkpt><trkpt lat="42.9815231" lon="11.2854421"><ele>203.5</ele><time>2026-04-22T09:12:10.086Z</time></trkpt><trkpt lat="42.9812742" lon="11.2853636"><ele>203.0</ele><time>2026-04-22T09:12:11.093Z</time></trkpt><trkpt lat="42.9810277" lon="11.2852877"><ele>203.0</ele><time>2026-04-22T09:12:12.08Z</time></trkpt><trkpt lat="42.9807833" lon="11.2852102"><ele>203.0</ele><time>2026-04-22T09:12:13.036Z</time></trkpt><trkpt lat="42.980542" lon="11.2851345"><ele>203.0</ele><time>2026-04-22T09:12:14.084Z</time></trkpt><trkpt lat="42.9802993" lon="11.2850532"><ele>203.0</ele><time>2026-04-22T09:12:15.091Z</time></trkpt><trkpt lat="42.9800606" lon="11.2849626"><ele>200.5</ele><time>2026-04-22T09:12:16.08Z</time></trkpt><trkpt lat="42.9798275" lon="11.2848606"><ele>198.0</ele><time>2026-04-22T09:12:17.05Z</time></trkpt><trkpt lat="42.9795989" lon="11.2847431"><ele>195.5</ele><time>2026-04-22T09:12:18.065Z</time></trkpt><trkpt lat="42.9793742" lon="11.2846064"><ele>193.0</ele><time>2026-04-22T09:12:19.069Z</time></trkpt><trkpt lat="42.9791558" lon="11.2844668"><ele>193.0</ele><time>2026-04-22T09:12:20.074Z</time></trkpt><trkpt lat="42.978939" lon="11.2843134"><ele>193.0</ele><time>2026-04-22T09:12:21.059Z</time></trkpt><trkpt lat="42.9787263" lon="11.2841493"><ele>193.0</ele><time>2026-04-22T09:12:22.087Z</time></trkpt><trkpt lat="42.9785146" lon="11.2839667"><ele>193.0</ele><time>2026-04-22T09:12:23.073Z</time></trkpt><trkpt lat="42.9783045" lon="11.2837858"><ele>192.5</ele><time>2026-04-22T09:12:24.09Z</time></trkpt><trkpt lat="42.9781013" lon="11.2836039"><ele>192.0</ele><time>2026-04-22T09:12:25.077Z</time></trkpt><trkpt lat="42.9778947" lon="11.2834197"><ele>192.0</ele><time>2026-04-22T09:12:26.094Z</time></trkpt><trkpt lat="42.9776844" lon="11.2832351"><ele>192.0</ele><time>2026-04-22T09:12:27.084Z</time></trkpt><trkpt lat="42.9774764" lon="11.283049"><ele>188.0</ele><time>2026-04-22T09:12:28.09Z</time></trkpt><trkpt lat="42.9772647" lon="11.2828649"><ele>184.0</ele><time>2026-04-22T09:12:29.083Z</time></trkpt><trkpt lat="42.977055" lon="11.2826841"><ele>184.0</ele><time>2026-04-22T09:12:30.081Z</time></trkpt><trkpt lat="42.9768483" lon="11.2825"><ele>184.0</ele><time>2026-04-22T09:12:31.103Z</time></trkpt><trkpt lat="42.9766432" lon="11.2823175"><ele>181.0</ele><time>2026-04-22T09:12:32.084Z</time></trkpt><trkpt lat="42.976435" lon="11.282136"><ele>178.0</ele><time>2026-04-22T09:12:33.102Z</time></trkpt><trkpt lat="42.9762263" lon="11.2819529"><ele>178.0</ele><time>2026-04-22T09:12:34.088Z</time></trkpt><trkpt lat="42.9760199" lon="11.2817651"><ele>178.0</ele><time>2026-04-22T09:12:35.09Z</time></trkpt><trkpt lat="42.9758081" lon="11.2815818"><ele>175.0</ele><time>2026-04-22T09:12:36.092Z</time></trkpt><trkpt lat="42.9755999" lon="11.2813986"><ele>172.0</ele><time>2026-04-22T09:12:37.1Z</time></trkpt><trkpt lat="42.9753959" lon="11.2812141"><ele>172.0</ele><time>2026-04-22T09:12:38.093Z</time></trkpt><trkpt lat="42.9751846" lon="11.2810291"><ele>172.0</ele><time>2026-04-22T09:12:39.093Z</time></trkpt><trkpt lat="42.9749759" lon="11.2808482"><ele>174.0</ele><time>2026-04-22T09:12:40.099Z</time></trkpt><trkpt lat="42.9747703" lon="11.2806728"><ele>176.0</ele><time>2026-04-22T09:12:41.102Z</time></trkpt><trkpt lat="42.9745614" lon="11.2804892"><ele>176.0</ele><time>2026-04-22T09:12:42.096Z</time></trkpt><trkpt lat="42.9743559" lon="11.2803129"><ele>176.0</ele><time>2026-04-22T09:12:43.086Z</time></trkpt><trkpt lat="42.9741458" lon="11.2801337"><ele>176.0</ele><time>2026-04-22T09:12:44.091Z</time></trkpt><trkpt lat="42.9739388" lon="11.2799475"><ele>176.0</ele><time>2026-04-22T09:12:45.115Z</time></trkpt><trkpt lat="42.9737384" lon="11.2797619"><ele>175.0</ele><time>2026-04-22T09:12:46.114Z</time></trkpt><trkpt lat="42.9735337" lon="11.2795775"><ele>174.0</ele><time>2026-04-22T09:12:47.075Z</time></trkpt><trkpt lat="42.9733211" lon="11.2794063"><ele>174.0</ele><time>2026-04-22T09:12:48.066Z</time></trkpt><trkpt lat="42.9731001" lon="11.2792543"><ele>174.0</ele><time>2026-04-22T09:12:49.079Z</time></trkpt><trkpt lat="42.9728662" lon="11.2791288"><ele>174.0</ele><time>2026-04-22T09:12:50.093Z</time></trkpt><trkpt lat="42.9726373" lon="11.2790135"><ele>174.0</ele><time>2026-04-22T09:12:51.087Z</time></trkpt><trkpt lat="42.9723978" lon="11.2789255"><ele>172.5</ele><time>2026-04-22T09:12:52.067Z</time></trkpt><trkpt lat="42.9721593" lon="11.2788555"><ele>171.0</ele><time>2026-04-22T09:12:53.099Z</time></trkpt><trkpt lat="42.9719186" lon="11.278793"><ele>171.5</ele><time>2026-04-22T09:12:54.088Z</time></trkpt><trkpt lat="42.9716789" lon="11.2787585"><ele>172.0</ele><time>2026-04-22T09:12:55.078Z</time></trkpt><trkpt lat="42.971436" lon="11.2787349"><ele>172.0</ele><time>2026-04-22T09:12:56.102Z</time></trkpt><trkpt lat="42.9711942" lon="11.2787312"><ele>172.0</ele><time>2026-04-22T09:12:57.091Z</time></trkpt><trkpt lat="42.9709528" lon="11.2787552"><ele>175.5</ele><time>2026-04-22T09:12:58.094Z</time></trkpt><trkpt lat="42.9707079" lon="11.2787888"><ele>179.0</ele><time>2026-04-22T09:12:59.096Z</time></trkpt><trkpt lat="42.9704636" lon="11.2788406"><ele>179.0</ele><time>2026-04-22T09:13:00.09Z</time></trkpt><trkpt lat="42.9702231" lon="11.2789142"><ele>179.0</ele><time>2026-04-22T09:13:01.072Z</time></trkpt><trkpt lat="42.9699863" lon="11.2790006"><ele>177.5</ele><time>2026-04-22T09:13:02.094Z</time></trkpt><trkpt lat="42.9697558" lon="11.2791045"><ele>176.0</ele><time>2026-04-22T09:13:03.091Z</time></trkpt><trkpt lat="42.9695291" lon="11.279216"><ele>176.0</ele><time>2026-04-22T09:13:04.082Z</time></trkpt><trkpt lat="42.9693123" lon="11.2793446"><ele>176.0</ele><time>2026-04-22T09:13:05.082Z</time></trkpt><trkpt lat="42.969093" lon="11.2795058"><ele>178.5</ele><time>2026-04-22T09:13:06.075Z</time></trkpt><trkpt lat="42.9688778" lon="11.2796784"><ele>181.0</ele><time>2026-04-22T09:13:07.089Z</time></trkpt><trkpt lat="42.9686635" lon="11.279843"><ele>179.0</ele><time>2026-04-22T09:13:08.083Z</time></trkpt><trkpt lat="42.9684535" lon="11.2800108"><ele>177.0</ele><time>2026-04-22T09:13:09.087Z</time></trkpt><trkpt lat="42.9682427" lon="11.2801845"><ele>177.0</ele><time>2026-04-22T09:13:10.098Z</time></trkpt><trkpt lat="42.9680337" lon="11.2803608"><ele>177.0</ele><time>2026-04-22T09:13:11.036Z</time></trkpt><trkpt lat="42.967827" lon="11.2805418"><ele>173.0</ele><time>2026-04-22T09:13:12.061Z</time></trkpt><trkpt lat="42.9676134" lon="11.2807144"><ele>169.0</ele><time>2026-04-22T09:13:13.07Z</time></trkpt><trkpt lat="42.9674054" lon="11.2808865"><ele>169.0</ele><time>2026-04-22T09:13:14.093Z</time></trkpt><trkpt lat="42.9671942" lon="11.2810596"><ele>169.0</ele><time>2026-04-22T09:13:15.093Z</time></trkpt><trkpt lat="42.9669845" lon="11.281233"><ele>169.0</ele><time>2026-04-22T09:13:16.043Z</time></trkpt><trkpt lat="42.9667731" lon="11.2814051"><ele>169.0</ele><time>2026-04-22T09:13:17.035Z</time></trkpt><trkpt lat="42.9665655" lon="11.281573"><ele>166.0</ele><time>2026-04-22T09:13:18.081Z</time></trkpt><trkpt lat="42.9663593" lon="11.2817479"><ele>163.0</ele><time>2026-04-22T09:13:19.108Z</time></trkpt><trkpt lat="42.9661464" lon="11.2819275"><ele>163.0</ele><time>2026-04-22T09:13:20.113Z</time></trkpt><trkpt lat="42.9659373" lon="11.2821008"><ele>163.0</ele><time>2026-04-22T09:13:21.089Z</time></trkpt><trkpt lat="42.9657268" lon="11.2822816"><ele>161.5</ele><time>2026-04-22T09:13:22.095Z</time></trkpt><trkpt lat="42.9655133" lon="11.2824562"><ele>160.0</ele><time>2026-04-22T09:13:23.09Z</time></trkpt><trkpt lat="42.9653055" lon="11.2826162"><ele>160.0</ele><time>2026-04-22T09:13:24.095Z</time></trkpt><trkpt lat="42.9650932" lon="11.2827727"><ele>160.0</ele><time>2026-04-22T09:13:25.099Z</time></trkpt><trkpt lat="42.964872" lon="11.2829208"><ele>158.0</ele><time>2026-04-22T09:13:26.09Z</time></trkpt><trkpt lat="42.9646517" lon="11.2830607"><ele>156.0</ele><time>2026-04-22T09:13:27.102Z</time></trkpt><trkpt lat="42.9644251" lon="11.2831944"><ele>156.0</ele><time>2026-04-22T09:13:28.09Z</time></trkpt><trkpt lat="42.964196" lon="11.2833119"><ele>156.0</ele><time>2026-04-22T09:13:29.096Z</time></trkpt><trkpt lat="42.9639607" lon="11.2834195"><ele>156.0</ele><time>2026-04-22T09:13:30.107Z</time></trkpt><trkpt lat="42.9637169" lon="11.2835244"><ele>156.0</ele><time>2026-04-22T09:13:31.065Z</time></trkpt><trkpt lat="42.9634718" lon="11.2835984"><ele>154.0</ele><time>2026-04-22T09:13:32.097Z</time></trkpt><trkpt lat="42.9632277" lon="11.283653"><ele>152.0</ele><time>2026-04-22T09:13:33.041Z</time></trkpt><trkpt lat="42.9629891" lon="11.2836846"><ele>152.0</ele><time>2026-04-22T09:13:34.092Z</time></trkpt><trkpt lat="42.9627491" lon="11.2837034"><ele>152.0</ele><time>2026-04-22T09:13:35.071Z</time></trkpt><trkpt lat="42.9625012" lon="11.2837183"><ele>150.5</ele><time>2026-04-22T09:13:36.09Z</time></trkpt><trkpt lat="42.9622559" lon="11.283728"><ele>149.0</ele><time>2026-04-22T09:13:37.087Z</time></trkpt><trkpt lat="42.9620143" lon="11.2837074"><ele>149.0</ele><time>2026-04-22T09:13:38.082Z</time></trkpt><trkpt lat="42.9617714" lon="11.2836847"><ele>149.0</ele><time>2026-04-22T09:13:39.099Z</time></trkpt><trkpt lat="42.9615279" lon="11.2836517"><ele>150.5</ele><time>2026-04-22T09:13:40.114Z</time></trkpt><trkpt lat="42.9612846" lon="11.2836176"><ele>152.0</ele><time>2026-04-22T09:13:41.091Z</time></trkpt><trkpt lat="42.9610421" lon="11.2835752"><ele>151.5</ele><time>2026-04-22T09:13:42.109Z</time></trkpt><trkpt lat="42.9608027" lon="11.2835131"><ele>151.0</ele><time>2026-04-22T09:13:43.1Z</time></trkpt><trkpt lat="42.9605615" lon="11.2834443"><ele>151.0</ele><time>2026-04-22T09:13:44.069Z</time></trkpt><trkpt lat="42.9603235" lon="11.2833691"><ele>151.0</ele><time>2026-04-22T09:13:45.048Z</time></trkpt><trkpt lat="42.9600853" lon="11.2832931"><ele>151.5</ele><time>2026-04-22T09:13:46.075Z</time></trkpt><trkpt lat="42.9598533" lon="11.2832145"><ele>152.0</ele><time>2026-04-22T09:13:47.083Z</time></trkpt><trkpt lat="42.9596161" lon="11.2831294"><ele>151.5</ele><time>2026-04-22T09:13:48.057Z</time></trkpt><trkpt lat="42.9593778" lon="11.283038"><ele>151.0</ele><time>2026-04-22T09:13:49.097Z</time></trkpt><trkpt lat="42.9591366" lon="11.2829522"><ele>154.5</ele><time>2026-04-22T09:13:50.084Z</time></trkpt><trkpt lat="42.9589002" lon="11.2828681"><ele>158.0</ele><time>2026-04-22T09:13:51.105Z</time></trkpt><trkpt lat="42.9586649" lon="11.2827839"><ele>158.0</ele><time>2026-04-22T09:13:52.078Z</time></trkpt><trkpt lat="42.9584227" lon="11.2826991"><ele>158.0</ele><time>2026-04-22T09:13:53.081Z</time></trkpt><trkpt lat="42.958186" lon="11.2826129"><ele>159.0</ele><time>2026-04-22T09:13:54.073Z</time></trkpt><trkpt lat="42.9579445" lon="11.2825282"><ele>160.0</ele><time>2026-04-22T09:13:55.062Z</time></trkpt><trkpt lat="42.9577083" lon="11.2824432"><ele>158.0</ele><time>2026-04-22T09:13:56.1Z</time></trkpt><trkpt lat="42.9574729" lon="11.2823578"><ele>156.0</ele><time>2026-04-22T09:13:57.109Z</time></trkpt><trkpt lat="42.9572335" lon="11.2822759"><ele>157.5</ele><time>2026-04-22T09:13:58.098Z</time></trkpt><trkpt lat="42.9569942" lon="11.2821844"><ele>159.0</ele><time>2026-04-22T09:13:59.076Z</time></trkpt><trkpt lat="42.9567567" lon="11.2820868"><ele>156.5</ele><time>2026-04-22T09:14:00.08Z</time></trkpt><trkpt lat="42.9565144" lon="11.2819999"><ele>154.0</ele><time>2026-04-22T09:14:01.098Z</time></trkpt><trkpt lat="42.9562781" lon="11.2819183"><ele>154.0</ele><time>2026-04-22T09:14:02.094Z</time></trkpt><trkpt lat="42.9560409" lon="11.2818283"><ele>154.0</ele><time>2026-04-22T09:14:03.089Z</time></trkpt><trkpt lat="42.9558013" lon="11.2817533"><ele>154.0</ele><time>2026-04-22T09:14:04.09Z</time></trkpt><trkpt lat="42.9555604" lon="11.2816704"><ele>154.0</ele><time>2026-04-22T09:14:05.071Z</time></trkpt><trkpt lat="42.9553196" lon="11.2815833"><ele>154.0</ele><time>2026-04-22T09:14:06.09Z</time></trkpt><trkpt lat="42.9550798" lon="11.2815021"><ele>154.0</ele><time>2026-04-22T09:14:07.075Z</time></trkpt><trkpt lat="42.9548427" lon="11.2814254"><ele>153.5</ele><time>2026-04-22T09:14:08.085Z</time></trkpt><trkpt lat="42.9546048" lon="11.2813443"><ele>153.0</ele><time>2026-04-22T09:14:09.082Z</time></trkpt><trkpt lat="42.9529263" lon="11.2808804"><ele>153.0</ele><time>2026-04-22T09:14:16.104Z</time></trkpt><trkpt lat="42.9526897" lon="11.2808343"><ele>153.0</ele><time>2026-04-22T09:14:17.074Z</time></trkpt><trkpt lat="42.9524425" lon="11.2807664"><ele>145.5</ele><time>2026-04-22T09:14:18.051Z</time></trkpt><trkpt lat="42.9521969" lon="11.2807169"><ele>138.0</ele><time>2026-04-22T09:14:19.111Z</time></trkpt><trkpt lat="42.9519596" lon="11.2806598"><ele>138.0</ele><time>2026-04-22T09:14:20.072Z</time></trkpt><trkpt lat="42.9517159" lon="11.2806064"><ele>138.0</ele><time>2026-04-22T09:14:21.078Z</time></trkpt><trkpt lat="42.9514686" lon="11.2805564"><ele>128.0</ele><time>2026-04-22T09:14:22.076Z</time></trkpt><trkpt lat="42.9512234" lon="11.2804937"><ele>118.0</ele><time>2026-04-22T09:14:23.068Z</time></trkpt><trkpt lat="42.9509802" lon="11.2804316"><ele>115.5</ele><time>2026-04-22T09:14:24.096Z</time></trkpt><trkpt lat="42.9507398" lon="11.2803681"><ele>113.0</ele><time>2026-04-22T09:14:25.082Z</time></trkpt><trkpt lat="42.9505" lon="11.2803038"><ele>113.0</ele><time>2026-04-22T09:14:26.08Z</time></trkpt><trkpt lat="42.9502635" lon="11.2802333"><ele>113.0</ele><time>2026-04-22T09:14:27.115Z</time></trkpt><trkpt lat="42.9500219" lon="11.2801572"><ele>114.0</ele><time>2026-04-22T09:14:28.087Z</time></trkpt><trkpt lat="42.9497856" lon="11.2800806"><ele>115.0</ele><time>2026-04-22T09:14:29.078Z</time></trkpt><trkpt lat="42.9495501" lon="11.2799988"><ele>115.0</ele><time>2026-04-22T09:14:30.064Z</time></trkpt><trkpt lat="42.9493176" lon="11.2799172"><ele>115.0</ele><time>2026-04-22T09:14:31.08Z</time></trkpt><trkpt lat="42.9490824" lon="11.2798275"><ele>124.5</ele><time>2026-04-22T09:14:32.07Z</time></trkpt><trkpt lat="42.9488424" lon="11.2797371"><ele>134.0</ele><time>2026-04-22T09:14:33.07Z</time></trkpt><trkpt lat="42.9486105" lon="11.2796312"><ele>134.0</ele><time>2026-04-22T09:14:34.074Z</time></trkpt><trkpt lat="42.9483798" lon="11.2795175"><ele>134.0</ele><time>2026-04-22T09:14:35.07Z</time></trkpt><trkpt lat="42.9481492" lon="11.2793912"><ele>134.5</ele><time>2026-04-22T09:14:36.071Z</time></trkpt><trkpt lat="42.9479168" lon="11.2792646"><ele>135.0</ele><time>2026-04-22T09:14:37.086Z</time></trkpt><trkpt lat="42.9476933" lon="11.2791297"><ele>136.5</ele><time>2026-04-22T09:14:38.04Z</time></trkpt><trkpt lat="42.9474685" lon="11.2789848"><ele>138.0</ele><time>2026-04-22T09:14:39.081Z</time></trkpt><trkpt lat="42.9472492" lon="11.2788222"><ele>138.0</ele><time>2026-04-22T09:14:40.08Z</time></trkpt><trkpt lat="42.9470288" lon="11.2786659"><ele>138.0</ele><time>2026-04-22T09:14:41.051Z</time></trkpt><trkpt lat="42.9468116" lon="11.2785136"><ele>129.0</ele><time>2026-04-22T09:14:42.057Z</time></trkpt><trkpt lat="42.9465924" lon="11.2783566"><ele>120.0</ele><time>2026-04-22T09:14:43.076Z</time></trkpt><trkpt lat="42.9463776" lon="11.2781875"><ele>122.0</ele><time>2026-04-22T09:14:44.068Z</time></trkpt><trkpt lat="42.9461615" lon="11.2780211"><ele>124.0</ele><time>2026-04-22T09:14:45.097Z</time></trkpt><trkpt lat="42.9459495" lon="11.2778582"><ele>115.5</ele><time>2026-04-22T09:14:46.062Z</time></trkpt><trkpt lat="42.9457439" lon="11.2776896"><ele>107.0</ele><time>2026-04-22T09:14:47.058Z</time></trkpt><trkpt lat="42.9455343" lon="11.27752"><ele>107.0</ele><time>2026-04-22T09:14:48.087Z</time></trkpt><trkpt lat="42.9453256" lon="11.2773357"><ele>107.0</ele><time>2026-04-22T09:14:49.064Z</time></trkpt><trkpt lat="42.9451194" lon="11.2771584"><ele>101.0</ele><time>2026-04-22T09:14:50.091Z</time></trkpt><trkpt lat="42.9449101" lon="11.2769886"><ele>95.0</ele><time>2026-04-22T09:14:51.086Z</time></trkpt><trkpt lat="42.9446995" lon="11.2768054"><ele>95.0</ele><time>2026-04-22T09:14:52.073Z</time></trkpt><trkpt lat="42.9444971" lon="11.2766199"><ele>95.0</ele><time>2026-04-22T09:14:53.079Z</time></trkpt><trkpt lat="42.9442932" lon="11.2764357"><ele>96.0</ele><time>2026-04-22T09:14:54.099Z</time></trkpt><trkpt lat="42.9440883" lon="11.2762508"><ele>97.0</ele><time>2026-04-22T09:14:55.088Z</time></trkpt><trkpt lat="42.9438826" lon="11.2760684"><ele>97.0</ele><time>2026-04-22T09:14:56.118Z</time></trkpt><trkpt lat="42.9436743" lon="11.2758873"><ele>97.0</ele><time>2026-04-22T09:14:57.1Z</time></trkpt><trkpt lat="42.9434678" lon="11.2757147"><ele>94.5</ele><time>2026-04-22T09:14:58.054Z</time></trkpt><trkpt lat="42.9432565" lon="11.2755453"><ele>92.0</ele><time>2026-04-22T09:14:59.094Z</time></trkpt><trkpt lat="42.9430463" lon="11.2753706"><ele>92.0</ele><time>2026-04-22T09:15:00.096Z</time></trkpt><trkpt lat="42.9428388" lon="11.2751932"><ele>92.0</ele><time>2026-04-22T09:15:01.087Z</time></trkpt><trkpt lat="42.9426324" lon="11.2750157"><ele>88.0</ele><time>2026-04-22T09:15:02.083Z</time></trkpt><trkpt lat="42.9424216" lon="11.2748424"><ele>84.0</ele><time>2026-04-22T09:15:03.091Z</time></trkpt><trkpt lat="42.9422142" lon="11.2746613"><ele>84.0</ele><time>2026-04-22T09:15:04.096Z</time></trkpt><trkpt lat="42.9420006" lon="11.2744862"><ele>84.0</ele><time>2026-04-22T09:15:05.09Z</time></trkpt><trkpt lat="42.9417943" lon="11.2743013"><ele>79.0</ele><time>2026-04-22T09:15:06.078Z</time></trkpt><trkpt lat="42.9415878" lon="11.2741301"><ele>74.0</ele><time>2026-04-22T09:15:07.1Z</time></trkpt><trkpt lat="42.9413802" lon="11.2739497"><ele>71.0</ele><time>2026-04-22T09:15:08.106Z</time></trkpt><trkpt lat="42.9411712" lon="11.2737736"><ele>68.0</ele><time>2026-04-22T09:15:09.099Z</time></trkpt><trkpt lat="42.9409574" lon="11.2736003"><ele>66.0</ele><time>2026-04-22T09:15:10.09Z</time></trkpt><trkpt lat="42.9407468" lon="11.2734224"><ele>64.0</ele><time>2026-04-22T09:15:11.107Z</time></trkpt><trkpt lat="42.940536" lon="11.2732407"><ele>61.5</ele><time>2026-04-22T09:15:12.075Z</time></trkpt><trkpt lat="42.9403286" lon="11.273066"><ele>59.0</ele><time>2026-04-22T09:15:13.039Z</time></trkpt><trkpt lat="42.940118" lon="11.272889"><ele>60.5</ele><time>2026-04-22T09:15:14.037Z</time></trkpt><trkpt lat="42.9399121" lon="11.2727149"><ele>62.0</ele><time>2026-04-22T09:15:15.092Z</time></trkpt><trkpt lat="42.939705" lon="11.2725443"><ele>62.0</ele><time>2026-04-22T09:15:16.098Z</time></trkpt><trkpt lat="42.9395011" lon="11.2723753"><ele>62.0</ele><time>2026-04-22T09:15:17.078Z</time></trkpt><trkpt lat="42.9392904" lon="11.2721989"><ele>62.0</ele><time>2026-04-22T09:15:18.093Z</time></trkpt><trkpt lat="42.9390847" lon="11.2720271"><ele>62.0</ele><time>2026-04-22T09:15:19.077Z</time></trkpt><trkpt lat="42.938877" lon="11.2718524"><ele>62.0</ele><time>2026-04-22T09:15:20.092Z</time></trkpt><trkpt lat="42.9386665" lon="11.2716781"><ele>62.0</ele><time>2026-04-22T09:15:21.105Z</time></trkpt><trkpt lat="42.9384616" lon="11.2715029"><ele>62.0</ele><time>2026-04-22T09:15:22.076Z</time></trkpt><trkpt lat="42.9382524" lon="11.2713316"><ele>62.0</ele><time>2026-04-22T09:15:23.044Z</time></trkpt><trkpt lat="42.9380396" lon="11.2711589"><ele>62.0</ele><time>2026-04-22T09:15:24.107Z</time></trkpt><trkpt lat="42.937838" lon="11.2709859"><ele>62.0</ele><time>2026-04-22T09:15:25.074Z</time></trkpt><trkpt lat="42.9376296" lon="11.2708072"><ele>62.5</ele><time>2026-04-22T09:15:26.086Z</time></trkpt><trkpt lat="42.9374185" lon="11.2706305"><ele>63.0</ele><time>2026-04-22T09:15:27.086Z</time></trkpt><trkpt lat="42.9372074" lon="11.2704514"><ele>64.0</ele><time>2026-04-22T09:15:28.073Z</time></trkpt><trkpt lat="42.9369941" lon="11.2702798"><ele>65.0</ele><time>2026-04-22T09:15:29.09Z</time></trkpt><trkpt lat="42.9367852" lon="11.2701013"><ele>64.5</ele><time>2026-04-22T09:15:30.093Z</time></trkpt><trkpt lat="42.9365754" lon="11.2699233"><ele>64.0</ele><time>2026-04-22T09:15:31.091Z</time></trkpt><trkpt lat="42.9363702" lon="11.2697467"><ele>65.0</ele><time>2026-04-22T09:15:32.089Z</time></trkpt><trkpt lat="42.9361654" lon="11.2695686"><ele>66.0</ele><time>2026-04-22T09:15:33.079Z</time></trkpt><trkpt lat="42.9359573" lon="11.2693917"><ele>65.5</ele><time>2026-04-22T09:15:34.097Z</time></trkpt><trkpt lat="42.9357496" lon="11.2692177"><ele>65.0</ele><time>2026-04-22T09:15:35.089Z</time></trkpt><trkpt lat="42.9355406" lon="11.2690452"><ele>66.0</ele><time>2026-04-22T09:15:36.091Z</time></trkpt><trkpt lat="42.9353318" lon="11.2688729"><ele>67.0</ele><time>2026-04-22T09:15:37.101Z</time></trkpt><trkpt lat="42.9351259" lon="11.2687045"><ele>66.0</ele><time>2026-04-22T09:15:38.074Z</time></trkpt><trkpt lat="42.9349207" lon="11.2685325"><ele>65.0</ele><time>2026-04-22T09:15:39.091Z</time></trkpt><trkpt lat="42.9347121" lon="11.2683563"><ele>65.0</ele><time>2026-04-22T09:15:40.096Z</time></trkpt><trkpt lat="42.9345036" lon="11.2681836"><ele>65.0</ele><time>2026-04-22T09:15:41.063Z</time></trkpt><trkpt lat="42.9342913" lon="11.2680109"><ele>64.0</ele><time>2026-04-22T09:15:42.093Z</time></trkpt><trkpt lat="42.9340791" lon="11.2678312"><ele>63.0</ele><time>2026-04-22T09:15:43.091Z</time></trkpt><trkpt lat="42.9338726" lon="11.2676588"><ele>63.0</ele><time>2026-04-22T09:15:44.09Z</time></trkpt><trkpt lat="42.9336644" lon="11.2674806"><ele>63.0</ele><time>2026-04-22T09:15:45.061Z</time></trkpt><trkpt lat="42.9334598" lon="11.2673062"><ele>61.5</ele><time>2026-04-22T09:15:46.086Z</time></trkpt><trkpt lat="42.9332528" lon="11.2671242"><ele>60.0</ele><time>2026-04-22T09:15:47.081Z</time></trkpt><trkpt lat="42.9330431" lon="11.2669507"><ele>60.0</ele><time>2026-04-22T09:15:48.057Z</time></trkpt><trkpt lat="42.9328354" lon="11.2667763"><ele>60.0</ele><time>2026-04-22T09:15:49.066Z</time></trkpt><trkpt lat="42.932622" lon="11.2666071"><ele>60.0</ele><time>2026-04-22T09:15:50.111Z</time></trkpt><trkpt lat="42.9324013" lon="11.2664616"><ele>60.0</ele><time>2026-04-22T09:15:51.079Z</time></trkpt><trkpt lat="42.932177" lon="11.2663359"><ele>60.5</ele><time>2026-04-22T09:15:52.101Z</time></trkpt><trkpt lat="42.9319487" lon="11.2662241"><ele>61.0</ele><time>2026-04-22T09:15:53.105Z</time></trkpt><trkpt lat="42.9317099" lon="11.2661362"><ele>61.0</ele><time>2026-04-22T09:15:54.09Z</time></trkpt><trkpt lat="42.9314714" lon="11.2660658"><ele>61.0</ele><time>2026-04-22T09:15:55.114Z</time></trkpt><trkpt lat="42.9312301" lon="11.2659964"><ele>61.0</ele><time>2026-04-22T09:15:56.094Z</time></trkpt><trkpt lat="42.9309838" lon="11.2659431"><ele>61.0</ele><time>2026-04-22T09:15:57.09Z</time></trkpt><trkpt lat="42.9307392" lon="11.2658836"><ele>60.5</ele><time>2026-04-22T09:15:58.075Z</time></trkpt><trkpt lat="42.9304955" lon="11.2658281"><ele>60.0</ele><time>2026-04-22T09:15:59.065Z</time></trkpt><trkpt lat="42.9302524" lon="11.2657687"><ele>59.0</ele><time>2026-04-22T09:16:00.058Z</time></trkpt><trkpt lat="42.9300035" lon="11.2657089"><ele>58.0</ele><time>2026-04-22T09:16:01.097Z</time></trkpt><trkpt lat="42.9297622" lon="11.265657"><ele>60.5</ele><time>2026-04-22T09:16:02.082Z</time></trkpt><trkpt lat="42.9295209" lon="11.2656005"><ele>63.0</ele><time>2026-04-22T09:16:03.079Z</time></trkpt><trkpt lat="42.9292816" lon="11.2655422"><ele>63.5</ele><time>2026-04-22T09:16:04.083Z</time></trkpt><trkpt lat="42.929043" lon="11.2654862"><ele>64.0</ele><time>2026-04-22T09:16:05.066Z</time></trkpt><trkpt lat="42.9288008" lon="11.2654307"><ele>64.0</ele><time>2026-04-22T09:16:06.084Z</time></trkpt><trkpt lat="42.9285607" lon="11.2653733"><ele>64.0</ele><time>2026-04-22T09:16:07.088Z</time></trkpt><trkpt lat="42.9283239" lon="11.2653204"><ele>63.0</ele><time>2026-04-22T09:16:08.084Z</time></trkpt><trkpt lat="42.9280823" lon="11.2652652"><ele>62.0</ele><time>2026-04-22T09:16:09.095Z</time></trkpt><trkpt lat="42.9278398" lon="11.2652116"><ele>62.0</ele><time>2026-04-22T09:16:10.098Z</time></trkpt><trkpt lat="42.9275982" lon="11.2651536"><ele>62.0</ele><time>2026-04-22T09:16:11.037Z</time></trkpt><trkpt lat="42.9273539" lon="11.2650902"><ele>60.0</ele><time>2026-04-22T09:16:12.047Z</time></trkpt><trkpt lat="42.9271099" lon="11.2650319"><ele>58.0</ele><time>2026-04-22T09:16:13.093Z</time></trkpt><trkpt lat="42.9268704" lon="11.2649726"><ele>57.5</ele><time>2026-04-22T09:16:14.095Z</time></trkpt><trkpt lat="42.9266264" lon="11.2649188"><ele>57.0</ele><time>2026-04-22T09:16:15.08Z</time></trkpt><trkpt lat="42.9263812" lon="11.2648604"><ele>57.0</ele><time>2026-04-22T09:16:16.052Z</time></trkpt><trkpt lat="42.9261377" lon="11.2648091"><ele>57.0</ele><time>2026-04-22T09:16:17.075Z</time></trkpt><trkpt lat="42.9258955" lon="11.2647536"><ele>60.0</ele><time>2026-04-22T09:16:18.068Z</time></trkpt><trkpt lat="42.9256583" lon="11.264683"><ele>63.0</ele><time>2026-04-22T09:16:19.098Z</time></trkpt><trkpt lat="42.9254202" lon="11.2646083"><ele>63.0</ele><time>2026-04-22T09:16:20.089Z</time></trkpt><trkpt lat="42.9251866" lon="11.2645228"><ele>63.0</ele><time>2026-04-22T09:16:21.083Z</time></trkpt><trkpt lat="42.9249481" lon="11.2644297"><ele>62.5</ele><time>2026-04-22T09:16:22.085Z</time></trkpt><trkpt lat="42.9247178" lon="11.2643131"><ele>62.0</ele><time>2026-04-22T09:16:23.083Z</time></trkpt><trkpt lat="42.9244918" lon="11.2641844"><ele>62.0</ele><time>2026-04-22T09:16:24.094Z</time></trkpt><trkpt lat="42.9242721" lon="11.2640477"><ele>62.0</ele><time>2026-04-22T09:16:25.091Z</time></trkpt><trkpt lat="42.9240543" lon="11.263889"><ele>61.0</ele><time>2026-04-22T09:16:26.079Z</time></trkpt><trkpt lat="42.923847" lon="11.2637112"><ele>60.0</ele><time>2026-04-22T09:16:27.097Z</time></trkpt><trkpt lat="42.9236496" lon="11.2635168"><ele>60.0</ele><time>2026-04-22T09:16:28.092Z</time></trkpt><trkpt lat="42.9234539" lon="11.2633214"><ele>60.0</ele><time>2026-04-22T09:16:29.084Z</time></trkpt><trkpt lat="42.9232531" lon="11.2631167"><ele>58.0</ele><time>2026-04-22T09:16:30.088Z</time></trkpt><trkpt lat="42.9230605" lon="11.2629063"><ele>56.0</ele><time>2026-04-22T09:16:31.076Z</time></trkpt><trkpt lat="42.9228673" lon="11.2626991"><ele>56.0</ele><time>2026-04-22T09:16:32.099Z</time></trkpt><trkpt lat="42.9226752" lon="11.2624942"><ele>56.0</ele><time>2026-04-22T09:16:33.097Z</time></trkpt><trkpt lat="42.9224805" lon="11.2622957"><ele>56.0</ele><time>2026-04-22T09:16:34.089Z</time></trkpt><trkpt lat="42.9222867" lon="11.2620938"><ele>56.0</ele><time>2026-04-22T09:16:35.087Z</time></trkpt><trkpt lat="42.9220937" lon="11.2618957"><ele>56.0</ele><time>2026-04-22T09:16:36.077Z</time></trkpt><trkpt lat="42.9219" lon="11.2616975"><ele>56.0</ele><time>2026-04-22T09:16:37.093Z</time></trkpt><trkpt lat="42.9217042" lon="11.2614954"><ele>56.0</ele><time>2026-04-22T09:16:38.096Z</time></trkpt><trkpt lat="42.9215126" lon="11.2612943"><ele>56.0</ele><time>2026-04-22T09:16:39.09Z</time></trkpt><trkpt lat="42.9213171" lon="11.261086"><ele>56.0</ele><time>2026-04-22T09:16:40.1Z</time></trkpt><trkpt lat="42.9211222" lon="11.2608828"><ele>56.0</ele><time>2026-04-22T09:16:41.088Z</time></trkpt><trkpt lat="42.920926" lon="11.2606789"><ele>56.5</ele><time>2026-04-22T09:16:42.077Z</time></trkpt><trkpt lat="42.9207321" lon="11.2604761"><ele>57.0</ele><time>2026-04-22T09:16:43.086Z</time></trkpt><trkpt lat="42.9205416" lon="11.2602724"><ele>57.0</ele><time>2026-04-22T09:16:44.087Z</time></trkpt><trkpt lat="42.9203473" lon="11.2600667"><ele>57.0</ele><time>2026-04-22T09:16:45.094Z</time></trkpt><trkpt lat="42.9201508" lon="11.2598647"><ele>57.5</ele><time>2026-04-22T09:16:46.048Z</time></trkpt><trkpt lat="42.9199548" lon="11.2596676"><ele>58.0</ele><time>2026-04-22T09:16:47.082Z</time></trkpt><trkpt lat="42.9197654" lon="11.2594639"><ele>58.0</ele><time>2026-04-22T09:16:48.089Z</time></trkpt><trkpt lat="42.919572" lon="11.2592604"><ele>58.0</ele><time>2026-04-22T09:16:49.092Z</time></trkpt><trkpt lat="42.9193787" lon="11.2590571"><ele>58.5</ele><time>2026-04-22T09:16:50.05Z</time></trkpt><trkpt lat="42.9191912" lon="11.2588566"><ele>59.0</ele><time>2026-04-22T09:16:51.101Z</time></trkpt><trkpt lat="42.9189991" lon="11.2586566"><ele>59.0</ele><time>2026-04-22T09:16:52.09Z</time></trkpt><trkpt lat="42.9188015" lon="11.2584518"><ele>59.0</ele><time>2026-04-22T09:16:53.072Z</time></trkpt><trkpt lat="42.9186005" lon="11.2582554"><ele>59.0</ele><time>2026-04-22T09:16:54.097Z</time></trkpt><trkpt lat="42.9184027" lon="11.2580689"><ele>59.0</ele><time>2026-04-22T09:16:55.096Z</time></trkpt><trkpt lat="42.918211" lon="11.257873"><ele>59.5</ele><time>2026-04-22T09:16:56.089Z</time></trkpt><trkpt lat="42.9180166" lon="11.2576744"><ele>60.0</ele><time>2026-04-22T09:16:57.089Z</time></trkpt><trkpt lat="42.917823" lon="11.2574696"><ele>61.0</ele><time>2026-04-22T09:16:58.087Z</time></trkpt><trkpt lat="42.917628" lon="11.2572555"><ele>62.0</ele><time>2026-04-22T09:16:59.101Z</time></trkpt><trkpt lat="42.9174351" lon="11.2570467"><ele>64.0</ele><time>2026-04-22T09:17:00.085Z</time></trkpt><trkpt lat="42.9172384" lon="11.2568442"><ele>66.0</ele><time>2026-04-22T09:17:01.041Z</time></trkpt><trkpt lat="42.9170426" lon="11.2566383"><ele>68.0</ele><time>2026-04-22T09:17:02.079Z</time></trkpt><trkpt lat="42.9168456" lon="11.2564303"><ele>70.0</ele><time>2026-04-22T09:17:03.07Z</time></trkpt><trkpt lat="42.9166495" lon="11.2562336"><ele>70.0</ele><time>2026-04-22T09:17:04.106Z</time></trkpt><trkpt lat="42.9164532" lon="11.2560392"><ele>70.0</ele><time>2026-04-22T09:17:05.098Z</time></trkpt><trkpt lat="42.9162479" lon="11.2558377"><ele>70.0</ele><time>2026-04-22T09:17:06.069Z</time></trkpt><trkpt lat="42.9160417" lon="11.255653"><ele>70.0</ele><time>2026-04-22T09:17:07.086Z</time></trkpt><trkpt lat="42.915828" lon="11.2554825"><ele>70.0</ele><time>2026-04-22T09:17:08.09Z</time></trkpt><trkpt lat="42.9156079" lon="11.2553281"><ele>70.0</ele><time>2026-04-22T09:17:09.093Z</time></trkpt><trkpt lat="42.9153901" lon="11.2551806"><ele>70.0</ele><time>2026-04-22T09:17:10.105Z</time></trkpt><trkpt lat="42.9151646" lon="11.2550486"><ele>70.0</ele><time>2026-04-22T09:17:11.092Z</time></trkpt><trkpt lat="42.9149424" lon="11.2549217"><ele>69.0</ele><time>2026-04-22T09:17:12.088Z</time></trkpt><trkpt lat="42.9147154" lon="11.2547962"><ele>68.0</ele><time>2026-04-22T09:17:13.107Z</time></trkpt><trkpt lat="42.9144868" lon="11.2546744"><ele>68.0</ele><time>2026-04-22T09:17:14.097Z</time></trkpt><trkpt lat="42.9142652" lon="11.2545528"><ele>68.0</ele><time>2026-04-22T09:17:15.093Z</time></trkpt><trkpt lat="42.9140391" lon="11.2544245"><ele>69.0</ele><time>2026-04-22T09:17:16.075Z</time></trkpt><trkpt lat="42.9138128" lon="11.2542972"><ele>70.0</ele><time>2026-04-22T09:17:17.092Z</time></trkpt><trkpt lat="42.9135895" lon="11.2541585"><ele>68.5</ele><time>2026-04-22T09:17:18.111Z</time></trkpt><trkpt lat="42.9133696" lon="11.254017"><ele>67.0</ele><time>2026-04-22T09:17:19.106Z</time></trkpt><trkpt lat="42.9131479" lon="11.2538657"><ele>70.0</ele><time>2026-04-22T09:17:20.076Z</time></trkpt><trkpt lat="42.9129314" lon="11.2536947"><ele>73.0</ele><time>2026-04-22T09:17:21.089Z</time></trkpt><trkpt lat="42.9127277" lon="11.25351"><ele>70.5</ele><time>2026-04-22T09:17:22.092Z</time></trkpt><trkpt lat="42.9125287" lon="11.2533056"><ele>68.0</ele><time>2026-04-22T09:17:23.086Z</time></trkpt><trkpt lat="42.9123431" lon="11.2531006"><ele>68.0</ele><time>2026-04-22T09:17:24.101Z</time></trkpt><trkpt lat="42.9121545" lon="11.2528778"><ele>68.0</ele><time>2026-04-22T09:17:25.092Z</time></trkpt><trkpt lat="42.9119781" lon="11.2526492"><ele>68.0</ele><time>2026-04-22T09:17:26.077Z</time></trkpt><trkpt lat="42.9118001" lon="11.2524168"><ele>68.0</ele><time>2026-04-22T09:17:27.086Z</time></trkpt><trkpt lat="42.911625" lon="11.252195"><ele>65.5</ele><time>2026-04-22T09:17:28.102Z</time></trkpt><trkpt lat="42.9114469" lon="11.2519711"><ele>63.0</ele><time>2026-04-22T09:17:29.098Z</time></trkpt><trkpt lat="42.9112712" lon="11.2517422"><ele>63.0</ele><time>2026-04-22T09:17:30.097Z</time></trkpt><trkpt lat="42.9110947" lon="11.2515152"><ele>63.0</ele><time>2026-04-22T09:17:31.068Z</time></trkpt><trkpt lat="42.9109147" lon="11.2512869"><ele>64.0</ele><time>2026-04-22T09:17:32.09Z</time></trkpt><trkpt lat="42.9107368" lon="11.2510503"><ele>65.0</ele><time>2026-04-22T09:17:33.09Z</time></trkpt><trkpt lat="42.9105637" lon="11.2508148"><ele>70.0</ele><time>2026-04-22T09:17:34.096Z</time></trkpt><trkpt lat="42.91039" lon="11.2505802"><ele>75.0</ele><time>2026-04-22T09:17:35.087Z</time></trkpt><trkpt lat="42.9102161" lon="11.2503447"><ele>71.5</ele><time>2026-04-22T09:17:36.081Z</time></trkpt><trkpt lat="42.9100398" lon="11.2501199"><ele>68.0</ele><time>2026-04-22T09:17:37.099Z</time></trkpt><trkpt lat="42.9098656" lon="11.2498971"><ele>72.0</ele><time>2026-04-22T09:17:38.102Z</time></trkpt><trkpt lat="42.9096877" lon="11.2496682"><ele>76.0</ele><time>2026-04-22T09:17:39.103Z</time></trkpt><trkpt lat="42.90951" lon="11.2494422"><ele>76.0</ele><time>2026-04-22T09:17:40.085Z</time></trkpt><trkpt lat="42.9093277" lon="11.2492094"><ele>76.0</ele><time>2026-04-22T09:17:41.051Z</time></trkpt><trkpt lat="42.9091486" lon="11.2489797"><ele>73.0</ele><time>2026-04-22T09:17:42.085Z</time></trkpt><trkpt lat="42.9089656" lon="11.2487508"><ele>70.0</ele><time>2026-04-22T09:17:43.086Z</time></trkpt><trkpt lat="42.9087926" lon="11.2485216"><ele>70.0</ele><time>2026-04-22T09:17:44.093Z</time></trkpt><trkpt lat="42.9086165" lon="11.2482953"><ele>70.0</ele><time>2026-04-22T09:17:45.081Z</time></trkpt><trkpt lat="42.9084369" lon="11.2480681"><ele>70.0</ele><time>2026-04-22T09:17:46.089Z</time></trkpt><trkpt lat="42.9082553" lon="11.2478418"><ele>70.0</ele><time>2026-04-22T09:17:47.071Z</time></trkpt><trkpt lat="42.9080769" lon="11.2476145"><ele>70.0</ele><time>2026-04-22T09:17:48.086Z</time></trkpt><trkpt lat="42.9078986" lon="11.247387"><ele>70.0</ele><time>2026-04-22T09:17:49.093Z</time></trkpt><trkpt lat="42.9077175" lon="11.2471646"><ele>70.0</ele><time>2026-04-22T09:17:50.093Z</time></trkpt><trkpt lat="42.9075384" lon="11.2469365"><ele>70.0</ele><time>2026-04-22T09:17:51.066Z</time></trkpt><trkpt lat="42.9073601" lon="11.2467139"><ele>70.0</ele><time>2026-04-22T09:17:52.095Z</time></trkpt><trkpt lat="42.9071797" lon="11.2464815"><ele>70.0</ele><time>2026-04-22T09:17:53.099Z</time></trkpt><trkpt lat="42.907004" lon="11.246253"><ele>70.5</ele><time>2026-04-22T09:17:54.101Z</time></trkpt><trkpt lat="42.9068316" lon="11.2460243"><ele>71.0</ele><time>2026-04-22T09:17:55.091Z</time></trkpt><trkpt lat="42.9066521" lon="11.2458016"><ele>72.0</ele><time>2026-04-22T09:17:56.063Z</time></trkpt><trkpt lat="42.9064695" lon="11.2455796"><ele>73.0</ele><time>2026-04-22T09:17:57.052Z</time></trkpt><trkpt lat="42.9062864" lon="11.245352"><ele>73.0</ele><time>2026-04-22T09:17:58.07Z</time></trkpt><trkpt lat="42.9061096" lon="11.2451229"><ele>73.0</ele><time>2026-04-22T09:17:59.083Z</time></trkpt><trkpt lat="42.9059331" lon="11.2448949"><ele>73.0</ele><time>2026-04-22T09:18:00.09Z</time></trkpt><trkpt lat="42.9057492" lon="11.2446696"><ele>73.0</ele><time>2026-04-22T09:18:01.049Z</time></trkpt><trkpt lat="42.9055699" lon="11.2444427"><ele>73.0</ele><time>2026-04-22T09:18:02.081Z</time></trkpt><trkpt lat="42.9053938" lon="11.2442149"><ele>73.0</ele><time>2026-04-22T09:18:03.079Z</time></trkpt><trkpt lat="42.9052128" lon="11.243992"><ele>76.5</ele><time>2026-04-22T09:18:04.091Z</time></trkpt><trkpt lat="42.9050351" lon="11.243763"><ele>80.0</ele><time>2026-04-22T09:18:05.088Z</time></trkpt><trkpt lat="42.9048573" lon="11.2435271"><ele>80.0</ele><time>2026-04-22T09:18:06.089Z</time></trkpt><trkpt lat="42.9046776" lon="11.2432993"><ele>80.0</ele><time>2026-04-22T09:18:07.106Z</time></trkpt><trkpt lat="42.904496" lon="11.2430754"><ele>79.5</ele><time>2026-04-22T09:18:08.088Z</time></trkpt><trkpt lat="42.9043183" lon="11.2428533"><ele>79.0</ele><time>2026-04-22T09:18:09.081Z</time></trkpt><trkpt lat="42.9041354" lon="11.2426361"><ele>79.0</ele><time>2026-04-22T09:18:10.096Z</time></trkpt><trkpt lat="42.903945" lon="11.2424255"><ele>79.0</ele><time>2026-04-22T09:18:11.06Z</time></trkpt><trkpt lat="42.9037491" lon="11.2422292"><ele>80.0</ele><time>2026-04-22T09:18:12.093Z</time></trkpt><trkpt lat="42.9035496" lon="11.242046"><ele>81.0</ele><time>2026-04-22T09:18:13.095Z</time></trkpt><trkpt lat="42.903342" lon="11.2418654"><ele>81.0</ele><time>2026-04-22T09:18:14.094Z</time></trkpt><trkpt lat="42.9031305" lon="11.2417064"><ele>81.0</ele><time>2026-04-22T09:18:15.084Z</time></trkpt><trkpt lat="42.9029151" lon="11.2415538"><ele>80.5</ele><time>2026-04-22T09:18:16.098Z</time></trkpt><trkpt lat="42.9026895" lon="11.2414221"><ele>80.0</ele><time>2026-04-22T09:18:17.088Z</time></trkpt><trkpt lat="42.9024585" lon="11.2412914"><ele>80.0</ele><time>2026-04-22T09:18:18.097Z</time></trkpt><trkpt lat="42.9022305" lon="11.2411868"><ele>80.0</ele><time>2026-04-22T09:18:19.084Z</time></trkpt><trkpt lat="42.9020022" lon="11.2410898"><ele>80.0</ele><time>2026-04-22T09:18:20.102Z</time></trkpt><trkpt lat="42.9017665" lon="11.2409945"><ele>80.0</ele><time>2026-04-22T09:18:21.089Z</time></trkpt><trkpt lat="42.9015291" lon="11.2408991"><ele>80.0</ele><time>2026-04-22T09:18:22.095Z</time></trkpt><trkpt lat="42.9012934" lon="11.2408114"><ele>80.0</ele><time>2026-04-22T09:18:23.088Z</time></trkpt><trkpt lat="42.9010598" lon="11.2407241"><ele>83.0</ele><time>2026-04-22T09:18:24.085Z</time></trkpt><trkpt lat="42.9008254" lon="11.2406324"><ele>86.0</ele><time>2026-04-22T09:18:25.074Z</time></trkpt><trkpt lat="42.9005906" lon="11.2405435"><ele>86.0</ele><time>2026-04-22T09:18:26.088Z</time></trkpt><trkpt lat="42.9003551" lon="11.2404526"><ele>86.0</ele><time>2026-04-22T09:18:27.062Z</time></trkpt><trkpt lat="42.9001198" lon="11.2403566"><ele>86.0</ele><time>2026-04-22T09:18:28.082Z</time></trkpt><trkpt lat="42.8998812" lon="11.2402648"><ele>86.0</ele><time>2026-04-22T09:18:29.089Z</time></trkpt><trkpt lat="42.899645" lon="11.2401787"><ele>86.0</ele><time>2026-04-22T09:18:30.069Z</time></trkpt><trkpt lat="42.8994125" lon="11.2400854"><ele>86.0</ele><time>2026-04-22T09:18:31.081Z</time></trkpt><trkpt lat="42.8991743" lon="11.2399948"><ele>86.5</ele><time>2026-04-22T09:18:32.058Z</time></trkpt><trkpt lat="42.8989403" lon="11.2399101"><ele>87.0</ele><time>2026-04-22T09:18:33.079Z</time></trkpt><trkpt lat="42.8987003" lon="11.2398234"><ele>89.5</ele><time>2026-04-22T09:18:34.106Z</time></trkpt><trkpt lat="42.8984615" lon="11.2397372"><ele>92.0</ele><time>2026-04-22T09:18:35.069Z</time></trkpt><trkpt lat="42.898227" lon="11.2396451"><ele>92.5</ele><time>2026-04-22T09:18:36.084Z</time></trkpt><trkpt lat="42.8979921" lon="11.2395527"><ele>93.0</ele><time>2026-04-22T09:18:37.097Z</time></trkpt><trkpt lat="42.8977583" lon="11.2394626"><ele>90.0</ele><time>2026-04-22T09:18:38.09Z</time></trkpt><trkpt lat="42.8975237" lon="11.2393764"><ele>87.0</ele><time>2026-04-22T09:18:39.091Z</time></trkpt><trkpt lat="42.8972926" lon="11.239283"><ele>87.0</ele><time>2026-04-22T09:18:40.103Z</time></trkpt><trkpt lat="42.8970555" lon="11.2391929"><ele>87.0</ele><time>2026-04-22T09:18:41.069Z</time></trkpt><trkpt lat="42.896817" lon="11.2391018"><ele>87.5</ele><time>2026-04-22T09:18:42.063Z</time></trkpt><trkpt lat="42.8965811" lon="11.2390103"><ele>88.0</ele><time>2026-04-22T09:18:43.083Z</time></trkpt><trkpt lat="42.8963449" lon="11.2389206"><ele>88.5</ele><time>2026-04-22T09:18:44.094Z</time></trkpt><trkpt lat="42.8961106" lon="11.2388307"><ele>89.0</ele><time>2026-04-22T09:18:45.067Z</time></trkpt><trkpt lat="42.8958758" lon="11.2387399"><ele>89.5</ele><time>2026-04-22T09:18:46.048Z</time></trkpt><trkpt lat="42.895638" lon="11.2386496"><ele>90.0</ele><time>2026-04-22T09:18:47.064Z</time></trkpt><trkpt lat="42.8954065" lon="11.2385635"><ele>90.0</ele><time>2026-04-22T09:18:48.102Z</time></trkpt><trkpt lat="42.8951708" lon="11.2384758"><ele>90.0</ele><time>2026-04-22T09:18:49.09Z</time></trkpt><trkpt lat="42.8949331" lon="11.2383875"><ele>91.0</ele><time>2026-04-22T09:18:50.09Z</time></trkpt><trkpt lat="42.8947006" lon="11.2382983"><ele>92.0</ele><time>2026-04-22T09:18:51.054Z</time></trkpt><trkpt lat="42.8944625" lon="11.2382085"><ele>92.5</ele><time>2026-04-22T09:18:52.08Z</time></trkpt><trkpt lat="42.894227" lon="11.2381205"><ele>93.0</ele><time>2026-04-22T09:18:53.087Z</time></trkpt><trkpt lat="42.8939908" lon="11.2380279"><ele>93.0</ele><time>2026-04-22T09:18:54.093Z</time></trkpt><trkpt lat="42.8937545" lon="11.2379405"><ele>93.0</ele><time>2026-04-22T09:18:55.091Z</time></trkpt><trkpt lat="42.8935211" lon="11.2378497"><ele>92.5</ele><time>2026-04-22T09:18:56.097Z</time></trkpt><trkpt lat="42.8932873" lon="11.2377597"><ele>92.0</ele><time>2026-04-22T09:18:57.098Z</time></trkpt><trkpt lat="42.893047" lon="11.2376709"><ele>92.0</ele><time>2026-04-22T09:18:58.1Z</time></trkpt><trkpt lat="42.8928134" lon="11.2375746"><ele>92.0</ele><time>2026-04-22T09:18:59.094Z</time></trkpt><trkpt lat="42.8925766" lon="11.2374855"><ele>93.0</ele><time>2026-04-22T09:19:00.089Z</time></trkpt><trkpt lat="42.8923381" lon="11.2373884"><ele>94.0</ele><time>2026-04-22T09:19:01.096Z</time></trkpt><trkpt lat="42.892103" lon="11.2372992"><ele>94.0</ele><time>2026-04-22T09:19:02.08Z</time></trkpt><trkpt lat="42.8918649" lon="11.2371986"><ele>94.0</ele><time>2026-04-22T09:19:03.101Z</time></trkpt><trkpt lat="42.8916317" lon="11.2370869"><ele>94.0</ele><time>2026-04-22T09:19:04.101Z</time></trkpt><trkpt lat="42.8914077" lon="11.2369549"><ele>94.0</ele><time>2026-04-22T09:19:05.094Z</time></trkpt><trkpt lat="42.8911877" lon="11.2368055"><ele>94.0</ele><time>2026-04-22T09:19:06.096Z</time></trkpt><trkpt lat="42.8909744" lon="11.2366421"><ele>94.0</ele><time>2026-04-22T09:19:07.088Z</time></trkpt><trkpt lat="42.8907711" lon="11.2364786"><ele>94.0</ele><time>2026-04-22T09:19:08.096Z</time></trkpt><trkpt lat="42.8905679" lon="11.2363037"><ele>94.0</ele><time>2026-04-22T09:19:09.097Z</time></trkpt><trkpt lat="42.8903572" lon="11.2361321"><ele>94.0</ele><time>2026-04-22T09:19:10.084Z</time></trkpt><trkpt lat="42.8901502" lon="11.2359507"><ele>94.0</ele><time>2026-04-22T09:19:11.072Z</time></trkpt><trkpt lat="42.8899419" lon="11.235767"><ele>94.5</ele><time>2026-04-22T09:19:12.082Z</time></trkpt><trkpt lat="42.8897418" lon="11.2355781"><ele>95.0</ele><time>2026-04-22T09:19:13.1Z</time></trkpt><trkpt lat="42.8895413" lon="11.2353898"><ele>95.0</ele><time>2026-04-22T09:19:14.089Z</time></trkpt><trkpt lat="42.8893401" lon="11.2351997"><ele>95.0</ele><time>2026-04-22T09:19:15.091Z</time></trkpt><trkpt lat="42.8891375" lon="11.2350117"><ele>95.0</ele><time>2026-04-22T09:19:16.078Z</time></trkpt><trkpt lat="42.8889373" lon="11.2348182"><ele>95.0</ele><time>2026-04-22T09:19:17.067Z</time></trkpt><trkpt lat="42.8887398" lon="11.2346132"><ele>95.5</ele><time>2026-04-22T09:19:18.083Z</time></trkpt><trkpt lat="42.8885466" lon="11.2344069"><ele>96.0</ele><time>2026-04-22T09:19:19.066Z</time></trkpt><trkpt lat="42.8883646" lon="11.2341808"><ele>97.5</ele><time>2026-04-22T09:19:20.087Z</time></trkpt><trkpt lat="42.8881998" lon="11.2339468"><ele>99.0</ele><time>2026-04-22T09:19:21.095Z</time></trkpt><trkpt lat="42.8880485" lon="11.2337208"><ele>99.0</ele><time>2026-04-22T09:19:22.081Z</time></trkpt><trkpt lat="42.8879081" lon="11.2335"><ele>99.0</ele><time>2026-04-22T09:19:23.093Z</time></trkpt><trkpt lat="42.8877861" lon="11.2332722"><ele>99.0</ele><time>2026-04-22T09:19:24.094Z</time></trkpt><trkpt lat="42.8876699" lon="11.2330281"><ele>99.33333333333334</ele><time>2026-04-22T09:19:25.076Z</time></trkpt><trkpt lat="42.8875539" lon="11.2327831"><ele>99.66666666666667</ele><time>2026-04-22T09:19:26.094Z</time></trkpt><trkpt lat="42.8874529" lon="11.2325216"><ele>100.0</ele><time>2026-04-22T09:19:27.079Z</time></trkpt><trkpt lat="42.8873646" lon="11.232247"><ele>100.66666666666667</ele><time>2026-04-22T09:19:28.095Z</time></trkpt><trkpt lat="42.887276" lon="11.231971"><ele>101.33333333333334</ele><time>2026-04-22T09:19:29.093Z</time></trkpt><trkpt lat="42.8872025" lon="11.231685"><ele>102.0</ele><time>2026-04-22T09:19:30.096Z</time></trkpt><trkpt lat="42.8871376" lon="11.231396"><ele>102.0</ele><time>2026-04-22T09:19:31.101Z</time></trkpt><trkpt lat="42.8870809" lon="11.2311034"><ele>102.0</ele><time>2026-04-22T09:19:32.092Z</time></trkpt><trkpt lat="42.8870307" lon="11.2308044"><ele>102.0</ele><time>2026-04-22T09:19:33.075Z</time></trkpt><trkpt lat="42.8869934" lon="11.2305033"><ele>101.66666666666666</ele><time>2026-04-22T09:19:34.072Z</time></trkpt><trkpt lat="42.8869712" lon="11.2301998"><ele>101.33333333333333</ele><time>2026-04-22T09:19:35.077Z</time></trkpt><trkpt lat="42.8869487" lon="11.2298954"><ele>101.0</ele><time>2026-04-22T09:19:36.078Z</time></trkpt><trkpt lat="42.8869291" lon="11.229597"><ele>100.66666666666666</ele><time>2026-04-22T09:19:37.059Z</time></trkpt><trkpt lat="42.8869166" lon="11.2292892"><ele>100.33333333333334</ele><time>2026-04-22T09:19:38.107Z</time></trkpt><trkpt lat="42.8869057" lon="11.2289929"><ele>100.0</ele><time>2026-04-22T09:19:39.088Z</time></trkpt><trkpt lat="42.8868928" lon="11.2287066"><ele>100.0</ele><time>2026-04-22T09:19:40.091Z</time></trkpt><trkpt lat="42.8868822" lon="11.2284195"><ele>100.0</ele><time>2026-04-22T09:19:41.088Z</time></trkpt><trkpt lat="42.8868707" lon="11.2281314"><ele>100.0</ele><time>2026-04-22T09:19:42.081Z</time></trkpt><trkpt lat="42.8868593" lon="11.2278502"><ele>99.33333333333334</ele><time>2026-04-22T09:19:43.083Z</time></trkpt><trkpt lat="42.886849" lon="11.2275676"><ele>98.66666666666666</ele><time>2026-04-22T09:19:44.098Z</time></trkpt><trkpt lat="42.8868438" lon="11.2272845"><ele>98.0</ele><time>2026-04-22T09:19:45.089Z</time></trkpt><trkpt lat="42.8868484" lon="11.2270008"><ele>98.0</ele><time>2026-04-22T09:19:46.104Z</time></trkpt><trkpt lat="42.8868486" lon="11.2267106"><ele>98.0</ele><time>2026-04-22T09:19:47.085Z</time></trkpt><trkpt lat="42.8868359" lon="11.226414"><ele>98.0</ele><time>2026-04-22T09:19:48.076Z</time></trkpt><trkpt lat="42.8868252" lon="11.2261134"><ele>98.33333333333333</ele><time>2026-04-22T09:19:49.114Z</time></trkpt><trkpt lat="42.8868054" lon="11.2258144"><ele>98.66666666666666</ele><time>2026-04-22T09:19:50.092Z</time></trkpt><trkpt lat="42.8867801" lon="11.2255149"><ele>99.0</ele><time>2026-04-22T09:19:51.094Z</time></trkpt><trkpt lat="42.8867453" lon="11.2252133"><ele>101.33333333333334</ele><time>2026-04-22T09:19:52.078Z</time></trkpt><trkpt lat="42.8866973" lon="11.2249128"><ele>103.66666666666667</ele><time>2026-04-22T09:19:53.082Z</time></trkpt><trkpt lat="42.8866411" lon="11.2246173"><ele>106.0</ele><time>2026-04-22T09:19:54.094Z</time></trkpt><trkpt lat="42.8865736" lon="11.2243181"><ele>107.0</ele><time>2026-04-22T09:19:55.096Z</time></trkpt><trkpt lat="42.8864908" lon="11.2240256"><ele>108.0</ele><time>2026-04-22T09:19:56.083Z</time></trkpt><trkpt lat="42.8863957" lon="11.2237288"><ele>109.0</ele><time>2026-04-22T09:19:57.083Z</time></trkpt><trkpt lat="42.8862898" lon="11.2234448"><ele>110.0</ele><time>2026-04-22T09:19:58.046Z</time></trkpt><trkpt lat="42.8861707" lon="11.2231616"><ele>111.0</ele><time>2026-04-22T09:19:59.087Z</time></trkpt><trkpt lat="42.8860398" lon="11.2228826"><ele>112.0</ele><time>2026-04-22T09:20:00.077Z</time></trkpt><trkpt lat="42.8859009" lon="11.2226101"><ele>112.0</ele><time>2026-04-22T09:20:01.085Z</time></trkpt><trkpt lat="42.8857514" lon="11.2223574"><ele>112.0</ele><time>2026-04-22T09:20:02.09Z</time></trkpt><trkpt lat="42.8855906" lon="11.2221116"><ele>115.5</ele><time>2026-04-22T09:20:03.086Z</time></trkpt><trkpt lat="42.8854269" lon="11.2218765"><ele>119.0</ele><time>2026-04-22T09:20:04.098Z</time></trkpt><trkpt lat="42.8852563" lon="11.2216527"><ele>120.0</ele><time>2026-04-22T09:20:05.086Z</time></trkpt><trkpt lat="42.8850678" lon="11.2214403"><ele>121.0</ele><time>2026-04-22T09:20:06.083Z</time></trkpt><trkpt lat="42.8848759" lon="11.2212405"><ele>121.0</ele><time>2026-04-22T09:20:07.042Z</time></trkpt><trkpt lat="42.8846775" lon="11.221057"><ele>121.0</ele><time>2026-04-22T09:20:08.086Z</time></trkpt><trkpt lat="42.8844814" lon="11.2208732"><ele>121.0</ele><time>2026-04-22T09:20:09.095Z</time></trkpt><trkpt lat="42.8842806" lon="11.2206993"><ele>121.0</ele><time>2026-04-22T09:20:10.085Z</time></trkpt><trkpt lat="42.8840786" lon="11.2205277"><ele>125.0</ele><time>2026-04-22T09:20:11.079Z</time></trkpt><trkpt lat="42.8838795" lon="11.2203608"><ele>129.0</ele><time>2026-04-22T09:20:12.094Z</time></trkpt><trkpt lat="42.8836826" lon="11.2201945"><ele>129.0</ele><time>2026-04-22T09:20:13.09Z</time></trkpt><trkpt lat="42.8834851" lon="11.2200253"><ele>129.0</ele><time>2026-04-22T09:20:14.09Z</time></trkpt><trkpt lat="42.8832859" lon="11.2198587"><ele>127.5</ele><time>2026-04-22T09:20:15.085Z</time></trkpt><trkpt lat="42.8830872" lon="11.2196866"><ele>126.0</ele><time>2026-04-22T09:20:16.103Z</time></trkpt><trkpt lat="42.8828864" lon="11.219508"><ele>126.0</ele><time>2026-04-22T09:20:17.088Z</time></trkpt><trkpt lat="42.8826837" lon="11.2193265"><ele>126.0</ele><time>2026-04-22T09:20:18.089Z</time></trkpt><trkpt lat="42.8824811" lon="11.2191481"><ele>128.5</ele><time>2026-04-22T09:20:19.113Z</time></trkpt><trkpt lat="42.8822797" lon="11.2189628"><ele>131.0</ele><time>2026-04-22T09:20:20.076Z</time></trkpt><trkpt lat="42.8820776" lon="11.2187832"><ele>131.0</ele><time>2026-04-22T09:20:21.092Z</time></trkpt><trkpt lat="42.8818739" lon="11.2185966"><ele>131.0</ele><time>2026-04-22T09:20:22.094Z</time></trkpt><trkpt lat="42.8816685" lon="11.2184138"><ele>129.0</ele><time>2026-04-22T09:20:23.103Z</time></trkpt><trkpt lat="42.8814698" lon="11.2182254"><ele>127.0</ele><time>2026-04-22T09:20:24.091Z</time></trkpt><trkpt lat="42.8812717" lon="11.2180277"><ele>128.5</ele><time>2026-04-22T09:20:25.098Z</time></trkpt><trkpt lat="42.8810763" lon="11.217825"><ele>130.0</ele><time>2026-04-22T09:20:26.086Z</time></trkpt><trkpt lat="42.8808804" lon="11.2176137"><ele>130.0</ele><time>2026-04-22T09:20:27.099Z</time></trkpt><trkpt lat="42.8806919" lon="11.2173981"><ele>130.0</ele><time>2026-04-22T09:20:28.083Z</time></trkpt><trkpt lat="42.880504" lon="11.217176"><ele>130.5</ele><time>2026-04-22T09:20:29.093Z</time></trkpt><trkpt lat="42.8803113" lon="11.2169432"><ele>131.0</ele><time>2026-04-22T09:20:30.116Z</time></trkpt><trkpt lat="42.8801212" lon="11.2167052"><ele>130.5</ele><time>2026-04-22T09:20:31.091Z</time></trkpt><trkpt lat="42.8799315" lon="11.2164667"><ele>130.0</ele><time>2026-04-22T09:20:32.096Z</time></trkpt><trkpt lat="42.8797452" lon="11.2162268"><ele>130.0</ele><time>2026-04-22T09:20:33.086Z</time></trkpt><trkpt lat="42.8795576" lon="11.2159852"><ele>130.0</ele><time>2026-04-22T09:20:34.085Z</time></trkpt><trkpt lat="42.8793743" lon="11.2157402"><ele>130.5</ele><time>2026-04-22T09:20:35.094Z</time></trkpt><trkpt lat="42.8791973" lon="11.2154894"><ele>131.0</ele><time>2026-04-22T09:20:36.099Z</time></trkpt><trkpt lat="42.8790194" lon="11.2152385"><ele>131.0</ele><time>2026-04-22T09:20:37.092Z</time></trkpt><trkpt lat="42.8788412" lon="11.2149842"><ele>131.0</ele><time>2026-04-22T09:20:38.086Z</time></trkpt><trkpt lat="42.8786647" lon="11.2147293"><ele>131.0</ele><time>2026-04-22T09:20:39.097Z</time></trkpt><trkpt lat="42.8784864" lon="11.2144814"><ele>131.0</ele><time>2026-04-22T09:20:40.099Z</time></trkpt><trkpt lat="42.8783083" lon="11.2142302"><ele>132.0</ele><time>2026-04-22T09:20:41.101Z</time></trkpt><trkpt lat="42.8781291" lon="11.2139768"><ele>133.0</ele><time>2026-04-22T09:20:42.084Z</time></trkpt><trkpt lat="42.8779533" lon="11.2137307"><ele>133.0</ele><time>2026-04-22T09:20:43.093Z</time></trkpt><trkpt lat="42.8777733" lon="11.21348"><ele>133.0</ele><time>2026-04-22T09:20:44.091Z</time></trkpt><trkpt lat="42.8775958" lon="11.2132253"><ele>133.0</ele><time>2026-04-22T09:20:45.094Z</time></trkpt><trkpt lat="42.8774161" lon="11.2129788"><ele>133.0</ele><time>2026-04-22T09:20:46.092Z</time></trkpt><trkpt lat="42.8772337" lon="11.2127322"><ele>133.0</ele><time>2026-04-22T09:20:47.085Z</time></trkpt><trkpt lat="42.8770558" lon="11.2124815"><ele>133.0</ele><time>2026-04-22T09:20:48.093Z</time></trkpt><trkpt lat="42.8768752" lon="11.2122358"><ele>133.0</ele><time>2026-04-22T09:20:49.087Z</time></trkpt><trkpt lat="42.8766944" lon="11.2119791"><ele>133.0</ele><time>2026-04-22T09:20:50.083Z</time></trkpt><trkpt lat="42.8765143" lon="11.2117304"><ele>133.5</ele><time>2026-04-22T09:20:51.096Z</time></trkpt><trkpt lat="42.8763362" lon="11.211477"><ele>134.0</ele><time>2026-04-22T09:20:52.05Z</time></trkpt><trkpt lat="42.8761585" lon="11.2112242"><ele>134.0</ele><time>2026-04-22T09:20:53.093Z</time></trkpt><trkpt lat="42.8759786" lon="11.2109744"><ele>134.0</ele><time>2026-04-22T09:20:54.093Z</time></trkpt><trkpt lat="42.8757966" lon="11.210728"><ele>133.5</ele><time>2026-04-22T09:20:55.087Z</time></trkpt><trkpt lat="42.875618" lon="11.2104855"><ele>133.0</ele><time>2026-04-22T09:20:56.09Z</time></trkpt><trkpt lat="42.8754377" lon="11.2102371"><ele>133.0</ele><time>2026-04-22T09:20:57.095Z</time></trkpt><trkpt lat="42.8752604" lon="11.2099917"><ele>133.0</ele><time>2026-04-22T09:20:58.094Z</time></trkpt><trkpt lat="42.8750857" lon="11.2097394"><ele>135.5</ele><time>2026-04-22T09:20:59.088Z</time></trkpt><trkpt lat="42.8749044" lon="11.2094894"><ele>138.0</ele><time>2026-04-22T09:21:00.071Z</time></trkpt><trkpt lat="42.8747195" lon="11.2092403"><ele>138.0</ele><time>2026-04-22T09:21:01.085Z</time></trkpt><trkpt lat="42.8745379" lon="11.2089896"><ele>138.0</ele><time>2026-04-22T09:21:02.04Z</time></trkpt><trkpt lat="42.8743515" lon="11.2087428"><ele>140.5</ele><time>2026-04-22T09:21:03.077Z</time></trkpt><trkpt lat="42.8741664" lon="11.2084934"><ele>143.0</ele><time>2026-04-22T09:21:04.075Z</time></trkpt><trkpt lat="42.8739834" lon="11.2082458"><ele>141.0</ele><time>2026-04-22T09:21:05.074Z</time></trkpt><trkpt lat="42.8737954" lon="11.20801"><ele>139.0</ele><time>2026-04-22T09:21:06.087Z</time></trkpt><trkpt lat="42.8736065" lon="11.2077708"><ele>139.0</ele><time>2026-04-22T09:21:07.075Z</time></trkpt><trkpt lat="42.8734164" lon="11.2075356"><ele>139.0</ele><time>2026-04-22T09:21:08.105Z</time></trkpt><trkpt lat="42.8732226" lon="11.2073048"><ele>139.0</ele><time>2026-04-22T09:21:09.091Z</time></trkpt><trkpt lat="42.8730336" lon="11.2070756"><ele>139.0</ele><time>2026-04-22T09:21:10.086Z</time></trkpt><trkpt lat="42.8728376" lon="11.2068526"><ele>139.0</ele><time>2026-04-22T09:21:11.088Z</time></trkpt><trkpt lat="42.872637" lon="11.2066357"><ele>139.0</ele><time>2026-04-22T09:21:12.082Z</time></trkpt><trkpt lat="42.8724329" lon="11.2064187"><ele>136.5</ele><time>2026-04-22T09:21:13.093Z</time></trkpt><trkpt lat="42.8722265" lon="11.2062002"><ele>134.0</ele><time>2026-04-22T09:21:14.095Z</time></trkpt><trkpt lat="42.8720148" lon="11.2059958"><ele>134.0</ele><time>2026-04-22T09:21:15.085Z</time></trkpt><trkpt lat="42.8718047" lon="11.2057973"><ele>134.0</ele><time>2026-04-22T09:21:16.1Z</time></trkpt><trkpt lat="42.871596" lon="11.2055902"><ele>133.0</ele><time>2026-04-22T09:21:17.091Z</time></trkpt><trkpt lat="42.871391" lon="11.2053888"><ele>132.0</ele><time>2026-04-22T09:21:18.117Z</time></trkpt><trkpt lat="42.8711847" lon="11.205188"><ele>132.0</ele><time>2026-04-22T09:21:19.088Z</time></trkpt><trkpt lat="42.8709758" lon="11.2049821"><ele>132.0</ele><time>2026-04-22T09:21:20.088Z</time></trkpt><trkpt lat="42.8707745" lon="11.2047841"><ele>131.0</ele><time>2026-04-22T09:21:21.085Z</time></trkpt><trkpt lat="42.8705679" lon="11.2045827"><ele>130.0</ele><time>2026-04-22T09:21:22.104Z</time></trkpt><trkpt lat="42.8703585" lon="11.2043733"><ele>130.0</ele><time>2026-04-22T09:21:23.074Z</time></trkpt><trkpt lat="42.8701524" lon="11.2041688"><ele>130.0</ele><time>2026-04-22T09:21:24.096Z</time></trkpt><trkpt lat="42.8699429" lon="11.2039591"><ele>129.5</ele><time>2026-04-22T09:21:25.091Z</time></trkpt><trkpt lat="42.8697339" lon="11.2037534"><ele>129.0</ele><time>2026-04-22T09:21:26.093Z</time></trkpt><trkpt lat="42.8695261" lon="11.2035465"><ele>129.0</ele><time>2026-04-22T09:21:27.098Z</time></trkpt><trkpt lat="42.8693247" lon="11.2033394"><ele>129.0</ele><time>2026-04-22T09:21:28.083Z</time></trkpt><trkpt lat="42.8691193" lon="11.2031238"><ele>132.0</ele><time>2026-04-22T09:21:29.085Z</time></trkpt><trkpt lat="42.8689158" lon="11.2029132"><ele>135.0</ele><time>2026-04-22T09:21:30.095Z</time></trkpt><trkpt lat="42.8687132" lon="11.202704"><ele>135.0</ele><time>2026-04-22T09:21:31.089Z</time></trkpt><trkpt lat="42.8685039" lon="11.2024947"><ele>135.0</ele><time>2026-04-22T09:21:32.073Z</time></trkpt><trkpt lat="42.8682974" lon="11.2022921"><ele>136.5</ele><time>2026-04-22T09:21:33.101Z</time></trkpt><trkpt lat="42.8680901" lon="11.2020973"><ele>138.0</ele><time>2026-04-22T09:21:34.101Z</time></trkpt><trkpt lat="42.8678821" lon="11.2018916"><ele>138.0</ele><time>2026-04-22T09:21:35.117Z</time></trkpt><trkpt lat="42.8676717" lon="11.201684"><ele>138.0</ele><time>2026-04-22T09:21:36.095Z</time></trkpt><trkpt lat="42.8674639" lon="11.2014795"><ele>138.5</ele><time>2026-04-22T09:21:37.099Z</time></trkpt><trkpt lat="42.8672562" lon="11.2012751"><ele>139.0</ele><time>2026-04-22T09:21:38.088Z</time></trkpt><trkpt lat="42.8670479" lon="11.2010749"><ele>139.0</ele><time>2026-04-22T09:21:39.086Z</time></trkpt><trkpt lat="42.8668443" lon="11.2008723"><ele>139.0</ele><time>2026-04-22T09:21:40.096Z</time></trkpt><trkpt lat="42.8666352" lon="11.2006749"><ele>139.0</ele><time>2026-04-22T09:21:41.096Z</time></trkpt><trkpt lat="42.8664263" lon="11.2004702"><ele>139.0</ele><time>2026-04-22T09:21:42.1Z</time></trkpt><trkpt lat="42.8662205" lon="11.2002766"><ele>139.0</ele><time>2026-04-22T09:21:43.096Z</time></trkpt><trkpt lat="42.866018" lon="11.2000775"><ele>139.0</ele><time>2026-04-22T09:21:44.088Z</time></trkpt><trkpt lat="42.8658105" lon="11.1998713"><ele>141.0</ele><time>2026-04-22T09:21:45.088Z</time></trkpt><trkpt lat="42.8656076" lon="11.1996626"><ele>143.0</ele><time>2026-04-22T09:21:46.085Z</time></trkpt><trkpt lat="42.8654028" lon="11.1994426"><ele>143.0</ele><time>2026-04-22T09:21:47.085Z</time></trkpt><trkpt lat="42.8652016" lon="11.1992152"><ele>143.0</ele><time>2026-04-22T09:21:48.096Z</time></trkpt><trkpt lat="42.8650074" lon="11.1989843"><ele>145.5</ele><time>2026-04-22T09:21:49.091Z</time></trkpt><trkpt lat="42.8648188" lon="11.198745"><ele>148.0</ele><time>2026-04-22T09:21:50.082Z</time></trkpt><trkpt lat="42.8646382" lon="11.1984952"><ele>148.0</ele><time>2026-04-22T09:21:51.096Z</time></trkpt><trkpt lat="42.8644712" lon="11.198234"><ele>148.0</ele><time>2026-04-22T09:21:52.099Z</time></trkpt><trkpt lat="42.8643153" lon="11.1979589"><ele>153.0</ele><time>2026-04-22T09:21:53.089Z</time></trkpt><trkpt lat="42.86417" lon="11.1976768"><ele>158.0</ele><time>2026-04-22T09:21:54.098Z</time></trkpt><trkpt lat="42.8640261" lon="11.1973842"><ele>163.5</ele><time>2026-04-22T09:21:55.071Z</time></trkpt><trkpt lat="42.8638983" lon="11.1970779"><ele>169.0</ele><time>2026-04-22T09:21:56.081Z</time></trkpt><trkpt lat="42.8637862" lon="11.1967652"><ele>172.5</ele><time>2026-04-22T09:21:57.074Z</time></trkpt><trkpt lat="42.8636742" lon="11.196451"><ele>176.0</ele><time>2026-04-22T09:21:58.094Z</time></trkpt><trkpt lat="42.8635775" lon="11.1961273"><ele>176.0</ele><time>2026-04-22T09:21:59.085Z</time></trkpt><trkpt lat="42.8634918" lon="11.1957987"><ele>176.0</ele><time>2026-04-22T09:22:00.092Z</time></trkpt><trkpt lat="42.8634157" lon="11.1954708"><ele>171.5</ele><time>2026-04-22T09:22:01.099Z</time></trkpt><trkpt lat="42.8633472" lon="11.1951284"><ele>167.0</ele><time>2026-04-22T09:22:02.086Z</time></trkpt><trkpt lat="42.8632938" lon="11.1947827"><ele>167.0</ele><time>2026-04-22T09:22:03.092Z</time></trkpt><trkpt lat="42.8632383" lon="11.1944444"><ele>167.0</ele><time>2026-04-22T09:22:04.084Z</time></trkpt><trkpt lat="42.8631804" lon="11.1941027"><ele>169.0</ele><time>2026-04-22T09:22:05.088Z</time></trkpt><trkpt lat="42.8631235" lon="11.1937675"><ele>171.0</ele><time>2026-04-22T09:22:06.094Z</time></trkpt><trkpt lat="42.8630646" lon="11.1934263"><ele>172.5</ele><time>2026-04-22T09:22:07.092Z</time></trkpt><trkpt lat="42.8630037" lon="11.1930855"><ele>174.0</ele><time>2026-04-22T09:22:08.085Z</time></trkpt><trkpt lat="42.8629389" lon="11.1927417"><ele>174.0</ele><time>2026-04-22T09:22:09.068Z</time></trkpt><trkpt lat="42.8628673" lon="11.1924004"><ele>174.0</ele><time>2026-04-22T09:22:10.085Z</time></trkpt><trkpt lat="42.8627849" lon="11.1920609"><ele>176.5</ele><time>2026-04-22T09:22:11.082Z</time></trkpt><trkpt lat="42.8626986" lon="11.1917344"><ele>179.0</ele><time>2026-04-22T09:22:12.098Z</time></trkpt><trkpt lat="42.8626026" lon="11.1914048"><ele>170.0</ele><time>2026-04-22T09:22:13.08Z</time></trkpt><trkpt lat="42.8624989" lon="11.1910876"><ele>161.0</ele><time>2026-04-22T09:22:14.099Z</time></trkpt><trkpt lat="42.8623857" lon="11.1907731"><ele>165.0</ele><time>2026-04-22T09:22:15.085Z</time></trkpt><trkpt lat="42.862264" lon="11.1904669"><ele>169.0</ele><time>2026-04-22T09:22:16.093Z</time></trkpt><trkpt lat="42.8621321" lon="11.1901618"><ele>169.0</ele><time>2026-04-22T09:22:17.088Z</time></trkpt><trkpt lat="42.8619916" lon="11.189864"><ele>169.0</ele><time>2026-04-22T09:22:18.088Z</time></trkpt><trkpt lat="42.8618393" lon="11.1895781"><ele>162.0</ele><time>2026-04-22T09:22:19.085Z</time></trkpt><trkpt lat="42.8616867" lon="11.1893013"><ele>155.0</ele><time>2026-04-22T09:22:20.083Z</time></trkpt><trkpt lat="42.8615205" lon="11.1890323"><ele>154.5</ele><time>2026-04-22T09:22:21.074Z</time></trkpt><trkpt lat="42.8613498" lon="11.1887649"><ele>154.0</ele><time>2026-04-22T09:22:22.087Z</time></trkpt><trkpt lat="42.8611693" lon="11.1885155"><ele>154.0</ele><time>2026-04-22T09:22:23.083Z</time></trkpt><trkpt lat="42.8609933" lon="11.188269"><ele>154.0</ele><time>2026-04-22T09:22:24.066Z</time></trkpt><trkpt lat="42.8608047" lon="11.1880305"><ele>149.0</ele><time>2026-04-22T09:22:25.081Z</time></trkpt><trkpt lat="42.8606148" lon="11.1877962"><ele>144.0</ele><time>2026-04-22T09:22:26.044Z</time></trkpt><trkpt lat="42.8604236" lon="11.1875628"><ele>144.0</ele><time>2026-04-22T09:22:27.078Z</time></trkpt><trkpt lat="42.8602301" lon="11.1873236"><ele>144.0</ele><time>2026-04-22T09:22:28.078Z</time></trkpt><trkpt lat="42.8600431" lon="11.18709"><ele>144.0</ele><time>2026-04-22T09:22:29.085Z</time></trkpt><trkpt lat="42.8598534" lon="11.1868476"><ele>144.0</ele><time>2026-04-22T09:22:30.054Z</time></trkpt><trkpt lat="42.8596656" lon="11.1866112"><ele>153.0</ele><time>2026-04-22T09:22:31.089Z</time></trkpt><trkpt lat="42.8594818" lon="11.1863682"><ele>162.0</ele><time>2026-04-22T09:22:32.079Z</time></trkpt><trkpt lat="42.8592979" lon="11.1861199"><ele>160.0</ele><time>2026-04-22T09:22:33.089Z</time></trkpt><trkpt lat="42.8591195" lon="11.1858619"><ele>158.0</ele><time>2026-04-22T09:22:34.106Z</time></trkpt><trkpt lat="42.8589456" lon="11.1855981"><ele>158.0</ele><time>2026-04-22T09:22:35.034Z</time></trkpt><trkpt lat="42.858781" lon="11.1853322"><ele>158.0</ele><time>2026-04-22T09:22:36.036Z</time></trkpt><trkpt lat="42.8586248" lon="11.1850559"><ele>163.0</ele><time>2026-04-22T09:22:37.073Z</time></trkpt><trkpt lat="42.8584724" lon="11.184773"><ele>168.0</ele><time>2026-04-22T09:22:38.09Z</time></trkpt><trkpt lat="42.8583229" lon="11.1844894"><ele>150.0</ele><time>2026-04-22T09:22:39.078Z</time></trkpt><trkpt lat="42.85818" lon="11.184194"><ele>132.0</ele><time>2026-04-22T09:22:40.051Z</time></trkpt><trkpt lat="42.8580435" lon="11.1838925"><ele>130.5</ele><time>2026-04-22T09:22:41.051Z</time></trkpt><trkpt lat="42.8579134" lon="11.183594"><ele>129.0</ele><time>2026-04-22T09:22:42.07Z</time></trkpt><trkpt lat="42.8577891" lon="11.1832883"><ele>126.0</ele><time>2026-04-22T09:22:43.076Z</time></trkpt><trkpt lat="42.8576726" lon="11.1829792"><ele>123.0</ele><time>2026-04-22T09:22:44.089Z</time></trkpt><trkpt lat="42.8575627" lon="11.182662"><ele>120.0</ele><time>2026-04-22T09:22:45.089Z</time></trkpt><trkpt lat="42.8574491" lon="11.1823466"><ele>117.0</ele><time>2026-04-22T09:22:46.078Z</time></trkpt><trkpt lat="42.8573326" lon="11.1820325"><ele>117.0</ele><time>2026-04-22T09:22:47.073Z</time></trkpt><trkpt lat="42.8572242" lon="11.1817236"><ele>117.0</ele><time>2026-04-22T09:22:48.095Z</time></trkpt><trkpt lat="42.8571059" lon="11.1814105"><ele>112.5</ele><time>2026-04-22T09:22:49.079Z</time></trkpt><trkpt lat="42.8569873" lon="11.1810992"><ele>108.0</ele><time>2026-04-22T09:22:50.074Z</time></trkpt><trkpt lat="42.8568748" lon="11.180784"><ele>107.0</ele><time>2026-04-22T09:22:51.091Z</time></trkpt><trkpt lat="42.8567568" lon="11.1804699"><ele>106.0</ele><time>2026-04-22T09:22:52.087Z</time></trkpt><trkpt lat="42.8566401" lon="11.1801596"><ele>104.5</ele><time>2026-04-22T09:22:53.058Z</time></trkpt><trkpt lat="42.8565197" lon="11.1798364"><ele>103.0</ele><time>2026-04-22T09:22:54.093Z</time></trkpt><trkpt lat="42.8563968" lon="11.179511"><ele>103.0</ele><time>2026-04-22T09:22:55.082Z</time></trkpt><trkpt lat="42.8562704" lon="11.1791759"><ele>103.0</ele><time>2026-04-22T09:22:56.089Z</time></trkpt><trkpt lat="42.8561372" lon="11.1788369"><ele>100.5</ele><time>2026-04-22T09:22:57.082Z</time></trkpt><trkpt lat="42.8560019" lon="11.1784962"><ele>98.0</ele><time>2026-04-22T09:22:58.09Z</time></trkpt><trkpt lat="42.8558707" lon="11.1781565"><ele>97.0</ele><time>2026-04-22T09:22:59.087Z</time></trkpt><trkpt lat="42.8557455" lon="11.1778176"><ele>96.0</ele><time>2026-04-22T09:23:00.079Z</time></trkpt><trkpt lat="42.8556193" lon="11.1774758"><ele>94.0</ele><time>2026-04-22T09:23:01.086Z</time></trkpt><trkpt lat="42.8554909" lon="11.1771379"><ele>92.0</ele><time>2026-04-22T09:23:02.089Z</time></trkpt><trkpt lat="42.8553647" lon="11.1767996"><ele>90.5</ele><time>2026-04-22T09:23:03.081Z</time></trkpt><trkpt lat="42.8552421" lon="11.1764692"><ele>89.0</ele><time>2026-04-22T09:23:04.071Z</time></trkpt><trkpt lat="42.8551135" lon="11.176132"><ele>89.0</ele><time>2026-04-22T09:23:05.065Z</time></trkpt><trkpt lat="42.8549863" lon="11.1757958"><ele>89.0</ele><time>2026-04-22T09:23:06.084Z</time></trkpt><trkpt lat="42.8548609" lon="11.1754571"><ele>87.5</ele><time>2026-04-22T09:23:07.08Z</time></trkpt><trkpt lat="42.8547413" lon="11.1751214"><ele>86.0</ele><time>2026-04-22T09:23:08.08Z</time></trkpt><trkpt lat="42.854624" lon="11.1747766"><ele>82.0</ele><time>2026-04-22T09:23:09.079Z</time></trkpt><trkpt lat="42.8545121" lon="11.174435"><ele>78.0</ele><time>2026-04-22T09:23:10.082Z</time></trkpt><trkpt lat="42.8544006" lon="11.1740956"><ele>76.0</ele><time>2026-04-22T09:23:11.045Z</time></trkpt><trkpt lat="42.8542973" lon="11.173749"><ele>74.0</ele><time>2026-04-22T09:23:12.083Z</time></trkpt><trkpt lat="42.854202" lon="11.1733892"><ele>73.0</ele><time>2026-04-22T09:23:13.105Z</time></trkpt><trkpt lat="42.8541182" lon="11.1730364"><ele>72.0</ele><time>2026-04-22T09:23:14.095Z</time></trkpt><trkpt lat="42.8540426" lon="11.1726806"><ele>71.5</ele><time>2026-04-22T09:23:15.055Z</time></trkpt><trkpt lat="42.8539783" lon="11.1723169"><ele>71.0</ele><time>2026-04-22T09:23:16.091Z</time></trkpt><trkpt lat="42.8539244" lon="11.1719439"><ele>71.0</ele><time>2026-04-22T09:23:17.096Z</time></trkpt><trkpt lat="42.8538669" lon="11.1715759"><ele>71.0</ele><time>2026-04-22T09:23:18.075Z</time></trkpt><trkpt lat="42.8538232" lon="11.1712013"><ele>71.0</ele><time>2026-04-22T09:23:19.095Z</time></trkpt><trkpt lat="42.8537828" lon="11.1708302"><ele>71.0</ele><time>2026-04-22T09:23:20.094Z</time></trkpt><trkpt lat="42.8537525" lon="11.1704562"><ele>70.5</ele><time>2026-04-22T09:23:21.1Z</time></trkpt><trkpt lat="42.8537278" lon="11.1700801"><ele>70.0</ele><time>2026-04-22T09:23:22.104Z</time></trkpt><trkpt lat="42.853699" lon="11.1697032"><ele>69.5</ele><time>2026-04-22T09:23:23.091Z</time></trkpt><trkpt lat="42.8536697" lon="11.1693292"><ele>69.0</ele><time>2026-04-22T09:23:24.087Z</time></trkpt><trkpt lat="42.8536309" lon="11.1689659"><ele>68.5</ele><time>2026-04-22T09:23:25.058Z</time></trkpt><trkpt lat="42.8535969" lon="11.1685922"><ele>68.0</ele><time>2026-04-22T09:23:26.098Z</time></trkpt><trkpt lat="42.8535642" lon="11.1682259"><ele>69.0</ele><time>2026-04-22T09:23:27.091Z</time></trkpt><trkpt lat="42.8535318" lon="11.167864"><ele>70.0</ele><time>2026-04-22T09:23:28.061Z</time></trkpt><trkpt lat="42.8534951" lon="11.1675107"><ele>70.0</ele><time>2026-04-22T09:23:29.089Z</time></trkpt><trkpt lat="42.8534608" lon="11.1671638"><ele>70.0</ele><time>2026-04-22T09:23:30.053Z</time></trkpt><trkpt lat="42.853413" lon="11.1668221"><ele>71.5</ele><time>2026-04-22T09:23:31.089Z</time></trkpt><trkpt lat="42.8533647" lon="11.1664753"><ele>73.0</ele><time>2026-04-22T09:23:32.091Z</time></trkpt><trkpt lat="42.8533145" lon="11.1661343"><ele>73.0</ele><time>2026-04-22T09:23:33.071Z</time></trkpt><trkpt lat="42.8532607" lon="11.1657922"><ele>73.0</ele><time>2026-04-22T09:23:34.087Z</time></trkpt><trkpt lat="42.8531972" lon="11.16545"><ele>73.5</ele><time>2026-04-22T09:23:35.068Z</time></trkpt><trkpt lat="42.8531284" lon="11.1651108"><ele>74.0</ele><time>2026-04-22T09:23:36.091Z</time></trkpt><trkpt lat="42.8530542" lon="11.1647675"><ele>74.5</ele><time>2026-04-22T09:23:37.084Z</time></trkpt><trkpt lat="42.852975" lon="11.1644297"><ele>75.0</ele><time>2026-04-22T09:23:38.102Z</time></trkpt><trkpt lat="42.8528917" lon="11.1640984"><ele>75.0</ele><time>2026-04-22T09:23:39.086Z</time></trkpt><trkpt lat="42.8528025" lon="11.1637761"><ele>75.0</ele><time>2026-04-22T09:23:40.087Z</time></trkpt><trkpt lat="42.8527051" lon="11.163446"><ele>74.5</ele><time>2026-04-22T09:23:41.093Z</time></trkpt><trkpt lat="42.8525973" lon="11.1631265"><ele>74.0</ele><time>2026-04-22T09:23:42.048Z</time></trkpt><trkpt lat="42.8524818" lon="11.1628101"><ele>74.0</ele><time>2026-04-22T09:23:43.099Z</time></trkpt><trkpt lat="42.85236" lon="11.1625001"><ele>74.0</ele><time>2026-04-22T09:23:44.085Z</time></trkpt><trkpt lat="42.8522318" lon="11.1621966"><ele>73.5</ele><time>2026-04-22T09:23:45.092Z</time></trkpt><trkpt lat="42.8520918" lon="11.1619008"><ele>73.0</ele><time>2026-04-22T09:23:46.106Z</time></trkpt><trkpt lat="42.8519437" lon="11.1616095"><ele>73.5</ele><time>2026-04-22T09:23:47.096Z</time></trkpt><trkpt lat="42.8517935" lon="11.1613236"><ele>74.0</ele><time>2026-04-22T09:23:48.091Z</time></trkpt><trkpt lat="42.8516326" lon="11.1610393"><ele>72.5</ele><time>2026-04-22T09:23:49.103Z</time></trkpt><trkpt lat="42.8514707" lon="11.160768"><ele>71.0</ele><time>2026-04-22T09:23:50.096Z</time></trkpt><trkpt lat="42.8512996" lon="11.1604983"><ele>71.0</ele><time>2026-04-22T09:23:51.101Z</time></trkpt><trkpt lat="42.8511256" lon="11.1602373"><ele>71.0</ele><time>2026-04-22T09:23:52.088Z</time></trkpt><trkpt lat="42.8509484" lon="11.1599767"><ele>70.5</ele><time>2026-04-22T09:23:53.095Z</time></trkpt><trkpt lat="42.8507624" lon="11.1597328"><ele>70.0</ele><time>2026-04-22T09:23:54.063Z</time></trkpt><trkpt lat="42.8505669" lon="11.1594967"><ele>70.0</ele><time>2026-04-22T09:23:55.087Z</time></trkpt><trkpt lat="42.8503713" lon="11.1592704"><ele>70.0</ele><time>2026-04-22T09:23:56.091Z</time></trkpt><trkpt lat="42.8501708" lon="11.1590526"><ele>69.0</ele><time>2026-04-22T09:23:57.091Z</time></trkpt><trkpt lat="42.8499658" lon="11.1588418"><ele>68.0</ele><time>2026-04-22T09:23:58.058Z</time></trkpt><trkpt lat="42.849754" lon="11.1586381"><ele>68.0</ele><time>2026-04-22T09:23:59.045Z</time></trkpt><trkpt lat="42.8495415" lon="11.1584453"><ele>68.0</ele><time>2026-04-22T09:24:00.049Z</time></trkpt><trkpt lat="42.8493233" lon="11.1582617"><ele>66.0</ele><time>2026-04-22T09:24:01.055Z</time></trkpt><trkpt lat="42.8491005" lon="11.158081"><ele>64.0</ele><time>2026-04-22T09:24:02.034Z</time></trkpt><trkpt lat="42.8488788" lon="11.1579081"><ele>64.0</ele><time>2026-04-22T09:24:03.089Z</time></trkpt><trkpt lat="42.8486471" lon="11.1577345"><ele>64.0</ele><time>2026-04-22T09:24:04.096Z</time></trkpt><trkpt lat="42.8484165" lon="11.1575721"><ele>63.0</ele><time>2026-04-22T09:24:05.084Z</time></trkpt><trkpt lat="42.8481805" lon="11.1574169"><ele>62.0</ele><time>2026-04-22T09:24:06.085Z</time></trkpt><trkpt lat="42.847945" lon="11.1572615"><ele>62.0</ele><time>2026-04-22T09:24:07.065Z</time></trkpt><trkpt lat="42.8477084" lon="11.1571072"><ele>62.0</ele><time>2026-04-22T09:24:08.091Z</time></trkpt><trkpt lat="42.8474741" lon="11.1569516"><ele>60.5</ele><time>2026-04-22T09:24:09.089Z</time></trkpt><trkpt lat="42.8472375" lon="11.1568002"><ele>59.0</ele><time>2026-04-22T09:24:10.092Z</time></trkpt><trkpt lat="42.8470059" lon="11.1566523"><ele>58.0</ele><time>2026-04-22T09:24:11.07Z</time></trkpt><trkpt lat="42.8467713" lon="11.1565036"><ele>57.0</ele><time>2026-04-22T09:24:12.105Z</time></trkpt><trkpt lat="42.8465346" lon="11.1563558"><ele>57.0</ele><time>2026-04-22T09:24:13.1Z</time></trkpt><trkpt lat="42.8462984" lon="11.1562049"><ele>57.0</ele><time>2026-04-22T09:24:14.085Z</time></trkpt><trkpt lat="42.8460621" lon="11.1560571"><ele>56.5</ele><time>2026-04-22T09:24:15.09Z</time></trkpt><trkpt lat="42.8458307" lon="11.1559021"><ele>56.0</ele><time>2026-04-22T09:24:16.082Z</time></trkpt><trkpt lat="42.8455979" lon="11.1557509"><ele>56.0</ele><time>2026-04-22T09:24:17.092Z</time></trkpt><trkpt lat="42.845365" lon="11.155596"><ele>56.0</ele><time>2026-04-22T09:24:18.1Z</time></trkpt><trkpt lat="42.8451301" lon="11.155446"><ele>56.0</ele><time>2026-04-22T09:24:19.086Z</time></trkpt><trkpt lat="42.8448935" lon="11.1552957"><ele>56.0</ele><time>2026-04-22T09:24:20.1Z</time></trkpt><trkpt lat="42.8446555" lon="11.155151"><ele>56.0</ele><time>2026-04-22T09:24:21.093Z</time></trkpt><trkpt lat="42.8444184" lon="11.1550007"><ele>56.0</ele><time>2026-04-22T09:24:22.094Z</time></trkpt><trkpt lat="42.8441855" lon="11.1548553"><ele>56.0</ele><time>2026-04-22T09:24:23.091Z</time></trkpt><trkpt lat="42.8439476" lon="11.1547037"><ele>56.0</ele><time>2026-04-22T09:24:24.095Z</time></trkpt><trkpt lat="42.8437133" lon="11.1545514"><ele>56.0</ele><time>2026-04-22T09:24:25.095Z</time></trkpt><trkpt lat="42.8434788" lon="11.1544057"><ele>56.0</ele><time>2026-04-22T09:24:26.072Z</time></trkpt><trkpt lat="42.8432432" lon="11.1542559"><ele>55.5</ele><time>2026-04-22T09:24:27.092Z</time></trkpt><trkpt lat="42.8430103" lon="11.1541055"><ele>55.0</ele><time>2026-04-22T09:24:28.076Z</time></trkpt><trkpt lat="42.8427737" lon="11.1539548"><ele>54.0</ele><time>2026-04-22T09:24:29.09Z</time></trkpt><trkpt lat="42.842539" lon="11.1538069"><ele>53.0</ele><time>2026-04-22T09:24:30.074Z</time></trkpt><trkpt lat="42.8423027" lon="11.1536536"><ele>53.0</ele><time>2026-04-22T09:24:31.087Z</time></trkpt><trkpt lat="42.842069" lon="11.153502"><ele>53.0</ele><time>2026-04-22T09:24:32.075Z</time></trkpt><trkpt lat="42.8418373" lon="11.1533475"><ele>54.0</ele><time>2026-04-22T09:24:33.064Z</time></trkpt><trkpt lat="42.8416058" lon="11.1531881"><ele>55.0</ele><time>2026-04-22T09:24:34.082Z</time></trkpt><trkpt lat="42.8413733" lon="11.153033"><ele>55.0</ele><time>2026-04-22T09:24:35.067Z</time></trkpt><trkpt lat="42.8411386" lon="11.1528689"><ele>55.0</ele><time>2026-04-22T09:24:36.057Z</time></trkpt><trkpt lat="42.8409092" lon="11.1527054"><ele>55.0</ele><time>2026-04-22T09:24:37.067Z</time></trkpt><trkpt lat="42.8406838" lon="11.1525387"><ele>55.0</ele><time>2026-04-22T09:24:38.095Z</time></trkpt><trkpt lat="42.840456" lon="11.1523605"><ele>55.0</ele><time>2026-04-22T09:24:39.048Z</time></trkpt><trkpt lat="42.8402302" lon="11.1521863"><ele>55.0</ele><time>2026-04-22T09:24:40.083Z</time></trkpt><trkpt lat="42.8400079" lon="11.1520078"><ele>54.5</ele><time>2026-04-22T09:24:41.087Z</time></trkpt><trkpt lat="42.8397856" lon="11.1518228"><ele>54.0</ele><time>2026-04-22T09:24:42.085Z</time></trkpt><trkpt lat="42.839567" lon="11.1516294"><ele>55.5</ele><time>2026-04-22T09:24:43.105Z</time></trkpt><trkpt lat="42.839354" lon="11.1514333"><ele>57.0</ele><time>2026-04-22T09:24:44.097Z</time></trkpt><trkpt lat="42.8391364" lon="11.1512302"><ele>57.0</ele><time>2026-04-22T09:24:45.104Z</time></trkpt><trkpt lat="42.8389219" lon="11.1510212"><ele>57.0</ele><time>2026-04-22T09:24:46.079Z</time></trkpt><trkpt lat="42.83871" lon="11.1508137"><ele>59.5</ele><time>2026-04-22T09:24:47.045Z</time></trkpt><trkpt lat="42.8384991" lon="11.150607"><ele>62.0</ele><time>2026-04-22T09:24:48.103Z</time></trkpt><trkpt lat="42.8382926" lon="11.1503966"><ele>57.0</ele><time>2026-04-22T09:24:49.066Z</time></trkpt><trkpt lat="42.8380874" lon="11.1501818"><ele>52.0</ele><time>2026-04-22T09:24:50.089Z</time></trkpt><trkpt lat="42.8378827" lon="11.1499608"><ele>52.0</ele><time>2026-04-22T09:24:51.088Z</time></trkpt><trkpt lat="42.8376789" lon="11.1497368"><ele>52.0</ele><time>2026-04-22T09:24:52.065Z</time></trkpt><trkpt lat="42.8374826" lon="11.1495105"><ele>50.0</ele><time>2026-04-22T09:24:53.058Z</time></trkpt><trkpt lat="42.8372837" lon="11.1492774"><ele>48.0</ele><time>2026-04-22T09:24:54.094Z</time></trkpt><trkpt lat="42.8370893" lon="11.149041"><ele>47.0</ele><time>2026-04-22T09:24:55.078Z</time></trkpt><trkpt lat="42.8368895" lon="11.1488029"><ele>46.0</ele><time>2026-04-22T09:24:56.038Z</time></trkpt><trkpt lat="42.8366937" lon="11.1485622"><ele>45.5</ele><time>2026-04-22T09:24:57.05Z</time></trkpt><trkpt lat="42.8365022" lon="11.1483175"><ele>45.0</ele><time>2026-04-22T09:24:58.098Z</time></trkpt><trkpt lat="42.836307" lon="11.148085"><ele>46.0</ele><time>2026-04-22T09:24:59.089Z</time></trkpt><trkpt lat="42.836114" lon="11.1478527"><ele>47.0</ele><time>2026-04-22T09:25:00.056Z</time></trkpt><trkpt lat="42.8359198" lon="11.1476171"><ele>47.0</ele><time>2026-04-22T09:25:01.086Z</time></trkpt><trkpt lat="42.8357269" lon="11.1473856"><ele>47.0</ele><time>2026-04-22T09:25:02.102Z</time></trkpt><trkpt lat="42.8355322" lon="11.1471511"><ele>49.5</ele><time>2026-04-22T09:25:03.078Z</time></trkpt><trkpt lat="42.8353402" lon="11.1469191"><ele>52.0</ele><time>2026-04-22T09:25:04.094Z</time></trkpt><trkpt lat="42.8351386" lon="11.1466899"><ele>52.0</ele><time>2026-04-22T09:25:05.033Z</time></trkpt><trkpt lat="42.8349302" lon="11.1464602"><ele>52.0</ele><time>2026-04-22T09:25:06.076Z</time></trkpt><trkpt lat="42.8347261" lon="11.1462206"><ele>52.0</ele><time>2026-04-22T09:25:07.033Z</time></trkpt><trkpt lat="42.8345297" lon="11.1459908"><ele>52.0</ele><time>2026-04-22T09:25:08.046Z</time></trkpt><trkpt lat="42.8343392" lon="11.1457606"><ele>49.5</ele><time>2026-04-22T09:25:09.066Z</time></trkpt><trkpt lat="42.8341494" lon="11.1455238"><ele>47.0</ele><time>2026-04-22T09:25:10.047Z</time></trkpt><trkpt lat="42.833963" lon="11.1452913"><ele>47.0</ele><time>2026-04-22T09:25:11.074Z</time></trkpt><trkpt lat="42.833769" lon="11.1450644"><ele>47.0</ele><time>2026-04-22T09:25:12.065Z</time></trkpt><trkpt lat="42.8335778" lon="11.1448288"><ele>47.5</ele><time>2026-04-22T09:25:13.047Z</time></trkpt><trkpt lat="42.8333807" lon="11.1445943"><ele>48.0</ele><time>2026-04-22T09:25:14.06Z</time></trkpt><trkpt lat="42.8331873" lon="11.144354"><ele>48.0</ele><time>2026-04-22T09:25:15.073Z</time></trkpt><trkpt lat="42.8329978" lon="11.1441168"><ele>48.0</ele><time>2026-04-22T09:25:16.078Z</time></trkpt><trkpt lat="42.8328032" lon="11.1438775"><ele>46.0</ele><time>2026-04-22T09:25:17.079Z</time></trkpt><trkpt lat="42.8326089" lon="11.1436401"><ele>44.0</ele><time>2026-04-22T09:25:18.09Z</time></trkpt><trkpt lat="42.8324213" lon="11.1433966"><ele>46.5</ele><time>2026-04-22T09:25:19.084Z</time></trkpt><trkpt lat="42.832235" lon="11.1431581"><ele>49.0</ele><time>2026-04-22T09:25:20.085Z</time></trkpt><trkpt lat="42.8320423" lon="11.1429286"><ele>49.0</ele><time>2026-04-22T09:25:21.092Z</time></trkpt><trkpt lat="42.8318456" lon="11.1427017"><ele>49.0</ele><time>2026-04-22T09:25:22.095Z</time></trkpt><trkpt lat="42.8316461" lon="11.1424728"><ele>45.0</ele><time>2026-04-22T09:25:23.059Z</time></trkpt><trkpt lat="42.831446" lon="11.1422417"><ele>41.0</ele><time>2026-04-22T09:25:24.107Z</time></trkpt><trkpt lat="42.8312485" lon="11.1420141"><ele>41.0</ele><time>2026-04-22T09:25:25.104Z</time></trkpt><trkpt lat="42.8310494" lon="11.1417903"><ele>41.0</ele><time>2026-04-22T09:25:26.067Z</time></trkpt><trkpt lat="42.8308453" lon="11.1415735"><ele>40.0</ele><time>2026-04-22T09:25:27.091Z</time></trkpt><trkpt lat="42.8306428" lon="11.1413591"><ele>39.0</ele><time>2026-04-22T09:25:28.093Z</time></trkpt><trkpt lat="42.8304359" lon="11.1411488"><ele>39.0</ele><time>2026-04-22T09:25:29.067Z</time></trkpt><trkpt lat="42.8302245" lon="11.1409493"><ele>39.0</ele><time>2026-04-22T09:25:30.083Z</time></trkpt><trkpt lat="42.83001" lon="11.1407473"><ele>37.5</ele><time>2026-04-22T09:25:31.088Z</time></trkpt><trkpt lat="42.8297933" lon="11.1405442"><ele>36.0</ele><time>2026-04-22T09:25:32.083Z</time></trkpt><trkpt lat="42.8295776" lon="11.1403473"><ele>36.0</ele><time>2026-04-22T09:25:33.09Z</time></trkpt><trkpt lat="42.829367" lon="11.140153"><ele>36.0</ele><time>2026-04-22T09:25:34.08Z</time></trkpt><trkpt lat="42.8291519" lon="11.139956"><ele>36.0</ele><time>2026-04-22T09:25:35.091Z</time></trkpt><trkpt lat="42.8289344" lon="11.1397611"><ele>36.0</ele><time>2026-04-22T09:25:36.076Z</time></trkpt><trkpt lat="42.8287122" lon="11.1395654"><ele>36.0</ele><time>2026-04-22T09:25:37.095Z</time></trkpt><trkpt lat="42.8284941" lon="11.1393777"><ele>36.0</ele><time>2026-04-22T09:25:38.081Z</time></trkpt><trkpt lat="42.82828" lon="11.1391874"><ele>35.0</ele><time>2026-04-22T09:25:39.081Z</time></trkpt><trkpt lat="42.8280645" lon="11.138992"><ele>34.0</ele><time>2026-04-22T09:25:40.076Z</time></trkpt><trkpt lat="42.827852" lon="11.1387969"><ele>35.0</ele><time>2026-04-22T09:25:41.089Z</time></trkpt><trkpt lat="42.8276378" lon="11.1386021"><ele>36.0</ele><time>2026-04-22T09:25:42.087Z</time></trkpt><trkpt lat="42.8274193" lon="11.1384085"><ele>35.0</ele><time>2026-04-22T09:25:43.084Z</time></trkpt><trkpt lat="42.8272004" lon="11.1382153"><ele>34.0</ele><time>2026-04-22T09:25:44.069Z</time></trkpt><trkpt lat="42.8269789" lon="11.1380277"><ele>35.0</ele><time>2026-04-22T09:25:45.087Z</time></trkpt><trkpt lat="42.826757" lon="11.1378383"><ele>36.0</ele><time>2026-04-22T09:25:46.079Z</time></trkpt><trkpt lat="42.8265407" lon="11.1376437"><ele>36.0</ele><time>2026-04-22T09:25:47.079Z</time></trkpt><trkpt lat="42.8263276" lon="11.137446"><ele>36.0</ele><time>2026-04-22T09:25:48.081Z</time></trkpt><trkpt lat="42.8261109" lon="11.1372558"><ele>35.5</ele><time>2026-04-22T09:25:49.081Z</time></trkpt><trkpt lat="42.8258942" lon="11.1370616"><ele>35.0</ele><time>2026-04-22T09:25:50.084Z</time></trkpt><trkpt lat="42.825675" lon="11.1368673"><ele>35.0</ele><time>2026-04-22T09:25:51.093Z</time></trkpt><trkpt lat="42.8254543" lon="11.1366777"><ele>35.0</ele><time>2026-04-22T09:25:52.081Z</time></trkpt><trkpt lat="42.8252366" lon="11.1364867"><ele>36.0</ele><time>2026-04-22T09:25:53.066Z</time></trkpt><trkpt lat="42.8250189" lon="11.1362975"><ele>37.0</ele><time>2026-04-22T09:25:54.107Z</time></trkpt><trkpt lat="42.8248022" lon="11.1361024"><ele>37.0</ele><time>2026-04-22T09:25:55.05Z</time></trkpt><trkpt lat="42.824583" lon="11.1359118"><ele>37.0</ele><time>2026-04-22T09:25:56.085Z</time></trkpt><trkpt lat="42.8243624" lon="11.1357117"><ele>35.5</ele><time>2026-04-22T09:25:57.076Z</time></trkpt><trkpt lat="42.8241462" lon="11.1355137"><ele>34.0</ele><time>2026-04-22T09:25:58.086Z</time></trkpt><trkpt lat="42.8239279" lon="11.1353196"><ele>34.0</ele><time>2026-04-22T09:25:59.099Z</time></trkpt><trkpt lat="42.8237105" lon="11.1351264"><ele>34.0</ele><time>2026-04-22T09:26:00.087Z</time></trkpt><trkpt lat="42.8234941" lon="11.1349354"><ele>32.5</ele><time>2026-04-22T09:26:01.088Z</time></trkpt><trkpt lat="42.8232795" lon="11.1347428"><ele>31.0</ele><time>2026-04-22T09:26:02.095Z</time></trkpt><trkpt lat="42.8230617" lon="11.1345467"><ele>31.0</ele><time>2026-04-22T09:26:03.079Z</time></trkpt><trkpt lat="42.8228458" lon="11.1343565"><ele>31.0</ele><time>2026-04-22T09:26:04.068Z</time></trkpt><trkpt lat="42.8226274" lon="11.1341666"><ele>30.0</ele><time>2026-04-22T09:26:05.09Z</time></trkpt><trkpt lat="42.8224098" lon="11.1339683"><ele>29.0</ele><time>2026-04-22T09:26:06.077Z</time></trkpt><trkpt lat="42.8221897" lon="11.1337769"><ele>29.0</ele><time>2026-04-22T09:26:07.099Z</time></trkpt><trkpt lat="42.8219699" lon="11.1335866"><ele>29.0</ele><time>2026-04-22T09:26:08.083Z</time></trkpt><trkpt lat="42.8217522" lon="11.133394"><ele>28.0</ele><time>2026-04-22T09:26:09.095Z</time></trkpt><trkpt lat="42.8215406" lon="11.133205"><ele>27.0</ele><time>2026-04-22T09:26:10.098Z</time></trkpt><trkpt lat="42.8213267" lon="11.133015"><ele>27.0</ele><time>2026-04-22T09:26:11.089Z</time></trkpt><trkpt lat="42.8211086" lon="11.1328268"><ele>27.0</ele><time>2026-04-22T09:26:12.094Z</time></trkpt><trkpt lat="42.8208898" lon="11.1326373"><ele>27.5</ele><time>2026-04-22T09:26:13.095Z</time></trkpt><trkpt lat="42.8206669" lon="11.132443"><ele>28.0</ele><time>2026-04-22T09:26:14.086Z</time></trkpt><trkpt lat="42.8204461" lon="11.1322533"><ele>27.0</ele><time>2026-04-22T09:26:15.087Z</time></trkpt><trkpt lat="42.8202224" lon="11.1320794"><ele>26.0</ele><time>2026-04-22T09:26:16.086Z</time></trkpt><trkpt lat="42.8199911" lon="11.1319206"><ele>26.0</ele><time>2026-04-22T09:26:17.087Z</time></trkpt><trkpt lat="42.8197535" lon="11.1317713"><ele>26.0</ele><time>2026-04-22T09:26:18.1Z</time></trkpt><trkpt lat="42.8195173" lon="11.1316428"><ele>24.5</ele><time>2026-04-22T09:26:19.08Z</time></trkpt><trkpt lat="42.8192694" lon="11.1315298"><ele>23.0</ele><time>2026-04-22T09:26:20.095Z</time></trkpt><trkpt lat="42.8190184" lon="11.1314314"><ele>23.0</ele><time>2026-04-22T09:26:21.091Z</time></trkpt><trkpt lat="42.8187763" lon="11.1313567"><ele>23.0</ele><time>2026-04-22T09:26:22.078Z</time></trkpt><trkpt lat="42.8185461" lon="11.1313006"><ele>22.666666666666668</ele><time>2026-04-22T09:26:23.097Z</time></trkpt><trkpt lat="42.8183248" lon="11.1312593"><ele>22.333333333333332</ele><time>2026-04-22T09:26:24.075Z</time></trkpt><trkpt lat="42.8181001" lon="11.1312244"><ele>22.0</ele><time>2026-04-22T09:26:25.09Z</time></trkpt><trkpt lat="42.8178614" lon="11.1312107"><ele>22.0</ele><time>2026-04-22T09:26:26.096Z</time></trkpt><trkpt lat="42.8176242" lon="11.1312055"><ele>22.0</ele><time>2026-04-22T09:26:27.109Z</time></trkpt><trkpt lat="42.8173655" lon="11.1312138"><ele>22.0</ele><time>2026-04-22T09:26:28.094Z</time></trkpt><trkpt lat="42.8171097" lon="11.131242"><ele>22.0</ele><time>2026-04-22T09:26:29.089Z</time></trkpt><trkpt lat="42.8168533" lon="11.1312829"><ele>22.0</ele><time>2026-04-22T09:26:30.086Z</time></trkpt><trkpt lat="42.816596" lon="11.1313366"><ele>22.0</ele><time>2026-04-22T09:26:31.043Z</time></trkpt><trkpt lat="42.8163416" lon="11.1313972"><ele>22.0</ele><time>2026-04-22T09:26:32.08Z</time></trkpt><trkpt lat="42.8160904" lon="11.1314594"><ele>22.0</ele><time>2026-04-22T09:26:33.093Z</time></trkpt><trkpt lat="42.8158444" lon="11.1315216"><ele>22.5</ele><time>2026-04-22T09:26:34.082Z</time></trkpt><trkpt lat="42.8155981" lon="11.1315894"><ele>23.0</ele><time>2026-04-22T09:26:35.086Z</time></trkpt><trkpt lat="42.8153491" lon="11.131651"><ele>23.0</ele><time>2026-04-22T09:26:36.107Z</time></trkpt><trkpt lat="42.8150965" lon="11.1317152"><ele>23.0</ele><time>2026-04-22T09:26:37.098Z</time></trkpt><trkpt lat="42.8148376" lon="11.1317781"><ele>23.0</ele><time>2026-04-22T09:26:38.084Z</time></trkpt><trkpt lat="42.8145734" lon="11.1318423"><ele>23.0</ele><time>2026-04-22T09:26:39.085Z</time></trkpt><trkpt lat="42.8143097" lon="11.1318961"><ele>22.0</ele><time>2026-04-22T09:26:40.091Z</time></trkpt><trkpt lat="42.8140457" lon="11.1319463"><ele>21.0</ele><time>2026-04-22T09:26:41.079Z</time></trkpt><trkpt lat="42.8137854" lon="11.1319975"><ele>21.0</ele><time>2026-04-22T09:26:42.09Z</time></trkpt><trkpt lat="42.813528" lon="11.13205"><ele>21.0</ele><time>2026-04-22T09:26:43.071Z</time></trkpt><trkpt lat="42.813273" lon="11.1321052"><ele>21.0</ele><time>2026-04-22T09:26:44.103Z</time></trkpt><trkpt lat="42.8130153" lon="11.1321649"><ele>21.0</ele><time>2026-04-22T09:26:45.039Z</time></trkpt><trkpt lat="42.8127548" lon="11.1322323"><ele>21.5</ele><time>2026-04-22T09:26:46.086Z</time></trkpt><trkpt lat="42.812493" lon="11.1322978"><ele>22.0</ele><time>2026-04-22T09:26:47.073Z</time></trkpt><trkpt lat="42.8122366" lon="11.1323665"><ele>22.5</ele><time>2026-04-22T09:26:48.077Z</time></trkpt><trkpt lat="42.8119822" lon="11.1324304"><ele>23.0</ele><time>2026-04-22T09:26:49.055Z</time></trkpt><trkpt lat="42.8117247" lon="11.1325042"><ele>23.0</ele><time>2026-04-22T09:26:50.079Z</time></trkpt><trkpt lat="42.8114712" lon="11.1325679"><ele>23.0</ele><time>2026-04-22T09:26:51.082Z</time></trkpt><trkpt lat="42.8112136" lon="11.1326303"><ele>22.5</ele><time>2026-04-22T09:26:52.089Z</time></trkpt><trkpt lat="42.8109551" lon="11.1326963"><ele>22.0</ele><time>2026-04-22T09:26:53.079Z</time></trkpt><trkpt lat="42.8106985" lon="11.1327645"><ele>22.0</ele><time>2026-04-22T09:26:54.097Z</time></trkpt><trkpt lat="42.810442" lon="11.1328228"><ele>22.0</ele><time>2026-04-22T09:26:55.082Z</time></trkpt><trkpt lat="42.8101847" lon="11.1328824"><ele>22.0</ele><time>2026-04-22T09:26:56.095Z</time></trkpt><trkpt lat="42.8099245" lon="11.1329473"><ele>22.0</ele><time>2026-04-22T09:26:57.089Z</time></trkpt><trkpt lat="42.8096681" lon="11.1330088"><ele>22.0</ele><time>2026-04-22T09:26:58.099Z</time></trkpt><trkpt lat="42.80941" lon="11.1330726"><ele>22.0</ele><time>2026-04-22T09:26:59.097Z</time></trkpt><trkpt lat="42.8091541" lon="11.1331349"><ele>21.5</ele><time>2026-04-22T09:27:00.086Z</time></trkpt><trkpt lat="42.8088909" lon="11.1332036"><ele>21.0</ele><time>2026-04-22T09:27:01.091Z</time></trkpt><trkpt lat="42.8086359" lon="11.133265"><ele>20.5</ele><time>2026-04-22T09:27:02.071Z</time></trkpt><trkpt lat="42.8083823" lon="11.1333301"><ele>20.0</ele><time>2026-04-22T09:27:03.085Z</time></trkpt><trkpt lat="42.8081267" lon="11.1333903"><ele>20.0</ele><time>2026-04-22T09:27:04.093Z</time></trkpt><trkpt lat="42.8078696" lon="11.1334569"><ele>20.0</ele><time>2026-04-22T09:27:05.098Z</time></trkpt><trkpt lat="42.8076154" lon="11.1335168"><ele>19.5</ele><time>2026-04-22T09:27:06.092Z</time></trkpt><trkpt lat="42.8073604" lon="11.1335771"><ele>19.0</ele><time>2026-04-22T09:27:07.093Z</time></trkpt><trkpt lat="42.8071046" lon="11.1336432"><ele>19.0</ele><time>2026-04-22T09:27:08.094Z</time></trkpt><trkpt lat="42.8068461" lon="11.1337067"><ele>19.0</ele><time>2026-04-22T09:27:09.091Z</time></trkpt><trkpt lat="42.8065885" lon="11.1337711"><ele>17.5</ele><time>2026-04-22T09:27:10.097Z</time></trkpt><trkpt lat="42.806333" lon="11.1338298"><ele>16.0</ele><time>2026-04-22T09:27:11.103Z</time></trkpt><trkpt lat="42.806077" lon="11.1338849"><ele>17.0</ele><time>2026-04-22T09:27:12.09Z</time></trkpt><trkpt lat="42.8058166" lon="11.133955"><ele>18.0</ele><time>2026-04-22T09:27:13.104Z</time></trkpt><trkpt lat="42.8055596" lon="11.1340184"><ele>18.5</ele><time>2026-04-22T09:27:14.089Z</time></trkpt><trkpt lat="42.8053015" lon="11.1340806"><ele>19.0</ele><time>2026-04-22T09:27:15.068Z</time></trkpt><trkpt lat="42.8050455" lon="11.1341429"><ele>19.0</ele><time>2026-04-22T09:27:16.032Z</time></trkpt><trkpt lat="42.8047864" lon="11.1342"><ele>19.0</ele><time>2026-04-22T09:27:17.083Z</time></trkpt><trkpt lat="42.8045233" lon="11.1342502"><ele>18.5</ele><time>2026-04-22T09:27:18.1Z</time></trkpt><trkpt lat="42.8042632" lon="11.1342898"><ele>18.0</ele><time>2026-04-22T09:27:19.097Z</time></trkpt><trkpt lat="42.8040025" lon="11.1343128"><ele>18.0</ele><time>2026-04-22T09:27:20.09Z</time></trkpt><trkpt lat="42.8037427" lon="11.1343178"><ele>18.0</ele><time>2026-04-22T09:27:21.096Z</time></trkpt><trkpt lat="42.8034789" lon="11.1343051"><ele>17.5</ele><time>2026-04-22T09:27:22.103Z</time></trkpt><trkpt lat="42.8032142" lon="11.1342722"><ele>17.0</ele><time>2026-04-22T09:27:23.06Z</time></trkpt><trkpt lat="42.8029527" lon="11.1342257"><ele>17.0</ele><time>2026-04-22T09:27:24.104Z</time></trkpt><trkpt lat="42.8026966" lon="11.1341503"><ele>17.0</ele><time>2026-04-22T09:27:25.089Z</time></trkpt><trkpt lat="42.8024517" lon="11.134059"><ele>16.5</ele><time>2026-04-22T09:27:26.096Z</time></trkpt><trkpt lat="42.8022035" lon="11.1339567"><ele>16.0</ele><time>2026-04-22T09:27:27.084Z</time></trkpt><trkpt lat="42.8019607" lon="11.1338228"><ele>16.5</ele><time>2026-04-22T09:27:28.062Z</time></trkpt><trkpt lat="42.8017194" lon="11.1336847"><ele>17.0</ele><time>2026-04-22T09:27:29.084Z</time></trkpt><trkpt lat="42.8014813" lon="11.1335311"><ele>17.0</ele><time>2026-04-22T09:27:30.094Z</time></trkpt><trkpt lat="42.8012715" lon="11.1333667"><ele>17.0</ele><time>2026-04-22T09:27:31.06Z</time></trkpt><trkpt lat="42.8010703" lon="11.1331983"><ele>16.333333333333336</ele><time>2026-04-22T09:27:32.089Z</time></trkpt><trkpt lat="42.800894" lon="11.133021"><ele>15.666666666666668</ele><time>2026-04-22T09:27:33.085Z</time></trkpt><trkpt lat="42.8007195" lon="11.1328378"><ele>15.0</ele><time>2026-04-22T09:27:34.089Z</time></trkpt><trkpt lat="42.8005551" lon="11.1326484"><ele>15.0</ele><time>2026-04-22T09:27:35.072Z</time></trkpt><trkpt lat="42.8003822" lon="11.1324676"><ele>15.0</ele><time>2026-04-22T09:27:36.102Z</time></trkpt><trkpt lat="42.8002093" lon="11.1322773"><ele>15.0</ele><time>2026-04-22T09:27:37.069Z</time></trkpt><trkpt lat="42.8000366" lon="11.1320912"><ele>14.0</ele><time>2026-04-22T09:27:38.09Z</time></trkpt><trkpt lat="42.7998556" lon="11.1319038"><ele>13.0</ele><time>2026-04-22T09:27:39.082Z</time></trkpt><trkpt lat="42.7996816" lon="11.131715"><ele>13.0</ele><time>2026-04-22T09:27:40.089Z</time></trkpt><trkpt lat="42.7995054" lon="11.1315283"><ele>13.0</ele><time>2026-04-22T09:27:41.098Z</time></trkpt><trkpt lat="42.7993333" lon="11.1313423"><ele>13.0</ele><time>2026-04-22T09:27:42.071Z</time></trkpt><trkpt lat="42.7991639" lon="11.1311535"><ele>13.666666666666666</ele><time>2026-04-22T09:27:43.076Z</time></trkpt><trkpt lat="42.7989853" lon="11.1309626"><ele>14.333333333333332</ele><time>2026-04-22T09:27:44.095Z</time></trkpt><trkpt lat="42.7988169" lon="11.1307828"><ele>15.0</ele><time>2026-04-22T09:27:45.103Z</time></trkpt><trkpt lat="42.7986569" lon="11.1306161"><ele>14.666666666666668</ele><time>2026-04-22T09:27:46.094Z</time></trkpt><trkpt lat="42.7984977" lon="11.1304698"><ele>14.333333333333334</ele><time>2026-04-22T09:27:47.081Z</time></trkpt><trkpt lat="42.7983397" lon="11.1303386"><ele>14.0</ele><time>2026-04-22T09:27:48.095Z</time></trkpt><trkpt lat="42.7981827" lon="11.1302198"><ele>14.0</ele><time>2026-04-22T09:27:49.088Z</time></trkpt><trkpt lat="42.7980277" lon="11.130092"><ele>14.0</ele><time>2026-04-22T09:27:50.102Z</time></trkpt><trkpt lat="42.7978887" lon="11.1299453"><ele>14.0</ele><time>2026-04-22T09:27:51.068Z</time></trkpt><trkpt lat="42.797771" lon="11.1297906"><ele>13.333333333333334</ele><time>2026-04-22T09:27:52.087Z</time></trkpt><trkpt lat="42.7976621" lon="11.1296098"><ele>12.666666666666668</ele><time>2026-04-22T09:27:53.084Z</time></trkpt><trkpt lat="42.7975681" lon="11.1294128"><ele>12.0</ele><time>2026-04-22T09:27:54.076Z</time></trkpt><trkpt lat="42.7974792" lon="11.1292036"><ele>12.333333333333332</ele><time>2026-04-22T09:27:55.094Z</time></trkpt><trkpt lat="42.7974079" lon="11.1289905"><ele>12.666666666666666</ele><time>2026-04-22T09:27:56.033Z</time></trkpt><trkpt lat="42.7973454" lon="11.1287771"><ele>13.0</ele><time>2026-04-22T09:27:57.081Z</time></trkpt><trkpt lat="42.7972949" lon="11.1285756"><ele>13.0</ele><time>2026-04-22T09:27:58.075Z</time></trkpt><trkpt lat="42.7972534" lon="11.1283693"><ele>13.0</ele><time>2026-04-22T09:27:59.087Z</time></trkpt><trkpt lat="42.7972068" lon="11.1281676"><ele>13.0</ele><time>2026-04-22T09:28:00.098Z</time></trkpt><trkpt lat="42.7971405" lon="11.1279815"><ele>13.0</ele><time>2026-04-22T09:28:01.106Z</time></trkpt><trkpt lat="42.7970554" lon="11.1278283"><ele>13.0</ele><time>2026-04-22T09:28:02.083Z</time></trkpt><trkpt lat="42.7969461" lon="11.1276966"><ele>13.0</ele><time>2026-04-22T09:28:03.051Z</time></trkpt><trkpt lat="42.7968231" lon="11.1275872"><ele>13.0</ele><time>2026-04-22T09:28:04.055Z</time></trkpt><trkpt lat="42.7967039" lon="11.1275221"><ele>13.25</ele><time>2026-04-22T09:28:05.071Z</time></trkpt><trkpt lat="42.7965802" lon="11.1274673"><ele>13.5</ele><time>2026-04-22T09:28:06.062Z</time></trkpt><trkpt lat="42.7964453" lon="11.1274246"><ele>13.75</ele><time>2026-04-22T09:28:07.085Z</time></trkpt><trkpt lat="42.7962922" lon="11.1274194"><ele>14.0</ele><time>2026-04-22T09:28:08.085Z</time></trkpt><trkpt lat="42.7961606" lon="11.1274088"><ele>14.0</ele><time>2026-04-22T09:28:09.102Z</time></trkpt><trkpt lat="42.7960389" lon="11.1274337"><ele>14.0</ele><time>2026-04-22T09:28:10.077Z</time></trkpt><trkpt lat="42.7959094" lon="11.1275047"><ele>14.0</ele><time>2026-04-22T09:28:11.056Z</time></trkpt><trkpt lat="42.7957985" lon="11.1275764"><ele>14.0</ele><time>2026-04-22T09:28:12.092Z</time></trkpt><trkpt lat="42.7956912" lon="11.1276818"><ele>14.0</ele><time>2026-04-22T09:28:13.088Z</time></trkpt><trkpt lat="42.7955926" lon="11.1278111"><ele>14.0</ele><time>2026-04-22T09:28:14.102Z</time></trkpt><trkpt lat="42.7955073" lon="11.1279668"><ele>14.0</ele><time>2026-04-22T09:28:15.053Z</time></trkpt><trkpt lat="42.795434" lon="11.1281416"><ele>14.0</ele><time>2026-04-22T09:28:16.078Z</time></trkpt><trkpt lat="42.7953767" lon="11.1283473"><ele>14.0</ele><time>2026-04-22T09:28:17.101Z</time></trkpt><trkpt lat="42.795353" lon="11.1285602"><ele>14.0</ele><time>2026-04-22T09:28:18.079Z</time></trkpt><trkpt lat="42.7953498" lon="11.1287896"><ele>14.0</ele><time>2026-04-22T09:28:19.092Z</time></trkpt><trkpt lat="42.7953528" lon="11.129017"><ele>13.666666666666668</ele><time>2026-04-22T09:28:20.102Z</time></trkpt><trkpt lat="42.7953614" lon="11.1292324"><ele>13.333333333333332</ele><time>2026-04-22T09:28:21.073Z</time></trkpt><trkpt lat="42.7953566" lon="11.1294518"><ele>13.0</ele><time>2026-04-22T09:28:22.082Z</time></trkpt><trkpt lat="42.7953486" lon="11.1296743"><ele>13.333333333333332</ele><time>2026-04-22T09:28:23.069Z</time></trkpt><trkpt lat="42.7953285" lon="11.1299012"><ele>13.666666666666668</ele><time>2026-04-22T09:28:24.094Z</time></trkpt><trkpt lat="42.795305" lon="11.130127"><ele>14.0</ele><time>2026-04-22T09:28:25.08Z</time></trkpt><trkpt lat="42.7952738" lon="11.1303581"><ele>14.0</ele><time>2026-04-22T09:28:26.102Z</time></trkpt><trkpt lat="42.7952285" lon="11.1305824"><ele>14.0</ele><time>2026-04-22T09:28:27.096Z</time></trkpt><trkpt lat="42.7951739" lon="11.130806"><ele>14.0</ele><time>2026-04-22T09:28:28.104Z</time></trkpt><trkpt lat="42.7951031" lon="11.1310201"><ele>14.666666666666668</ele><time>2026-04-22T09:28:29.097Z</time></trkpt><trkpt lat="42.79502" lon="11.1312301"><ele>15.333333333333332</ele><time>2026-04-22T09:28:30.099Z</time></trkpt><trkpt lat="42.7949281" lon="11.1314281"><ele>16.0</ele><time>2026-04-22T09:28:31.088Z</time></trkpt><trkpt lat="42.7948294" lon="11.1316183"><ele>16.0</ele><time>2026-04-22T09:28:32.061Z</time></trkpt><trkpt lat="42.7947121" lon="11.1318159"><ele>16.0</ele><time>2026-04-22T09:28:33.086Z</time></trkpt><trkpt lat="42.7945906" lon="11.132025"><ele>16.0</ele><time>2026-04-22T09:28:34.095Z</time></trkpt><trkpt lat="42.7944691" lon="11.1322303"><ele>15.666666666666666</ele><time>2026-04-22T09:28:35.091Z</time></trkpt><trkpt lat="42.7943393" lon="11.1324357"><ele>15.333333333333332</ele><time>2026-04-22T09:28:36.104Z</time></trkpt><trkpt lat="42.7942027" lon="11.1326645"><ele>15.0</ele><time>2026-04-22T09:28:37.082Z</time></trkpt><trkpt lat="42.7940651" lon="11.1328902"><ele>15.0</ele><time>2026-04-22T09:28:38.096Z</time></trkpt><trkpt lat="42.7939269" lon="11.1331139"><ele>15.0</ele><time>2026-04-22T09:28:39.08Z</time></trkpt><trkpt lat="42.793777" lon="11.1333429"><ele>15.0</ele><time>2026-04-22T09:28:40.102Z</time></trkpt><trkpt lat="42.7936198" lon="11.1335739"><ele>14.0</ele><time>2026-04-22T09:28:41.094Z</time></trkpt><trkpt lat="42.7934629" lon="11.1338006"><ele>13.0</ele><time>2026-04-22T09:28:42.086Z</time></trkpt><trkpt lat="42.7933096" lon="11.1340288"><ele>13.5</ele><time>2026-04-22T09:28:43.069Z</time></trkpt><trkpt lat="42.7931599" lon="11.1342521"><ele>14.0</ele><time>2026-04-22T09:28:44.068Z</time></trkpt><trkpt lat="42.7929965" lon="11.1344781"><ele>14.0</ele><time>2026-04-22T09:28:45.07Z</time></trkpt><trkpt lat="42.7928299" lon="11.1347188"><ele>14.0</ele><time>2026-04-22T09:28:46.083Z</time></trkpt><trkpt lat="42.792664" lon="11.1349616"><ele>14.5</ele><time>2026-04-22T09:28:47.088Z</time></trkpt><trkpt lat="42.792496" lon="11.1352105"><ele>15.0</ele><time>2026-04-22T09:28:48.093Z</time></trkpt><trkpt lat="42.7923294" lon="11.1354489"><ele>15.0</ele><time>2026-04-22T09:28:49.096Z</time></trkpt><trkpt lat="42.792165" lon="11.1356855"><ele>15.0</ele><time>2026-04-22T09:28:50.095Z</time></trkpt><trkpt lat="42.7920008" lon="11.1359188"><ele>13.5</ele><time>2026-04-22T09:28:51.079Z</time></trkpt><trkpt lat="42.7918345" lon="11.1361577"><ele>12.0</ele><time>2026-04-22T09:28:52.109Z</time></trkpt><trkpt lat="42.791665" lon="11.1364017"><ele>12.5</ele><time>2026-04-22T09:28:53.054Z</time></trkpt><trkpt lat="42.7915" lon="11.13664"><ele>13.0</ele><time>2026-04-22T09:28:54.052Z</time></trkpt><trkpt lat="42.7913357" lon="11.1368802"><ele>13.0</ele><time>2026-04-22T09:28:55.095Z</time></trkpt><trkpt lat="42.7911695" lon="11.137124"><ele>13.0</ele><time>2026-04-22T09:28:56.1Z</time></trkpt><trkpt lat="42.7910064" lon="11.1373659"><ele>14.5</ele><time>2026-04-22T09:28:57.099Z</time></trkpt><trkpt lat="42.7908469" lon="11.1376081"><ele>16.0</ele><time>2026-04-22T09:28:58.08Z</time></trkpt><trkpt lat="42.7906827" lon="11.1378486"><ele>16.0</ele><time>2026-04-22T09:28:59.105Z</time></trkpt><trkpt lat="42.7905209" lon="11.1380902"><ele>16.0</ele><time>2026-04-22T09:29:00.093Z</time></trkpt><trkpt lat="42.7903577" lon="11.138338"><ele>15.0</ele><time>2026-04-22T09:29:01.096Z</time></trkpt><trkpt lat="42.7901885" lon="11.1385787"><ele>14.0</ele><time>2026-04-22T09:29:02.088Z</time></trkpt><trkpt lat="42.7900237" lon="11.1388197"><ele>14.0</ele><time>2026-04-22T09:29:03.085Z</time></trkpt><trkpt lat="42.7898597" lon="11.1390606"><ele>14.0</ele><time>2026-04-22T09:29:04.082Z</time></trkpt><trkpt lat="42.7896894" lon="11.1393005"><ele>14.0</ele><time>2026-04-22T09:29:05.09Z</time></trkpt><trkpt lat="42.7895193" lon="11.1395349"><ele>14.0</ele><time>2026-04-22T09:29:06.069Z</time></trkpt><trkpt lat="42.7893558" lon="11.1397693"><ele>14.5</ele><time>2026-04-22T09:29:07.078Z</time></trkpt><trkpt lat="42.7891928" lon="11.1400046"><ele>15.0</ele><time>2026-04-22T09:29:08.093Z</time></trkpt><trkpt lat="42.7890352" lon="11.1402397"><ele>15.0</ele><time>2026-04-22T09:29:09.093Z</time></trkpt><trkpt lat="42.7888739" lon="11.1404775"><ele>15.0</ele><time>2026-04-22T09:29:10.081Z</time></trkpt><trkpt lat="42.7887191" lon="11.1407088"><ele>15.5</ele><time>2026-04-22T09:29:11.087Z</time></trkpt><trkpt lat="42.7885611" lon="11.1409422"><ele>16.0</ele><time>2026-04-22T09:29:12.084Z</time></trkpt><trkpt lat="42.7884034" lon="11.1411752"><ele>16.0</ele><time>2026-04-22T09:29:13.076Z</time></trkpt><trkpt lat="42.7882427" lon="11.1414033"><ele>16.0</ele><time>2026-04-22T09:29:14.061Z</time></trkpt><trkpt lat="42.7880817" lon="11.1416286"><ele>15.5</ele><time>2026-04-22T09:29:15.092Z</time></trkpt><trkpt lat="42.7879164" lon="11.1418534"><ele>15.0</ele><time>2026-04-22T09:29:16.089Z</time></trkpt><trkpt lat="42.7877511" lon="11.1420732"><ele>14.5</ele><time>2026-04-22T09:29:17.089Z</time></trkpt><trkpt lat="42.7875765" lon="11.1422858"><ele>14.0</ele><time>2026-04-22T09:29:18.081Z</time></trkpt><trkpt lat="42.7874007" lon="11.1424805"><ele>13.5</ele><time>2026-04-22T09:29:19.082Z</time></trkpt><trkpt lat="42.7872219" lon="11.1426709"><ele>13.0</ele><time>2026-04-22T09:29:20.102Z</time></trkpt><trkpt lat="42.7870363" lon="11.1428463"><ele>13.0</ele><time>2026-04-22T09:29:21.05Z</time></trkpt><trkpt lat="42.7868445" lon="11.1430239"><ele>13.0</ele><time>2026-04-22T09:29:22.093Z</time></trkpt><trkpt lat="42.7866478" lon="11.1431893"><ele>13.0</ele><time>2026-04-22T09:29:23.078Z</time></trkpt><trkpt lat="42.7864502" lon="11.1433492"><ele>13.0</ele><time>2026-04-22T09:29:24.081Z</time></trkpt><trkpt lat="42.7862511" lon="11.1435061"><ele>13.0</ele><time>2026-04-22T09:29:25.07Z</time></trkpt><trkpt lat="42.7860498" lon="11.1436475"><ele>13.0</ele><time>2026-04-22T09:29:26.088Z</time></trkpt><trkpt lat="42.7858384" lon="11.1437773"><ele>13.5</ele><time>2026-04-22T09:29:27.089Z</time></trkpt><trkpt lat="42.7856264" lon="11.1438978"><ele>14.0</ele><time>2026-04-22T09:29:28.087Z</time></trkpt><trkpt lat="42.7854112" lon="11.1440083"><ele>13.5</ele><time>2026-04-22T09:29:29.096Z</time></trkpt><trkpt lat="42.7851924" lon="11.144115"><ele>13.0</ele><time>2026-04-22T09:29:30.083Z</time></trkpt><trkpt lat="42.784971" lon="11.1442121"><ele>13.0</ele><time>2026-04-22T09:29:31.077Z</time></trkpt><trkpt lat="42.7847465" lon="11.1442977"><ele>13.0</ele><time>2026-04-22T09:29:32.039Z</time></trkpt><trkpt lat="42.7845228" lon="11.1443728"><ele>14.0</ele><time>2026-04-22T09:29:33.089Z</time></trkpt><trkpt lat="42.7842988" lon="11.1444318"><ele>15.0</ele><time>2026-04-22T09:29:34.028Z</time></trkpt><trkpt lat="42.7840763" lon="11.1444929"><ele>15.0</ele><time>2026-04-22T09:29:35.031Z</time></trkpt><trkpt lat="42.7838447" lon="11.1445449"><ele>15.0</ele><time>2026-04-22T09:29:36.046Z</time></trkpt><trkpt lat="42.7836161" lon="11.1445821"><ele>17.0</ele><time>2026-04-22T09:29:37.071Z</time></trkpt><trkpt lat="42.7833879" lon="11.1446033"><ele>19.0</ele><time>2026-04-22T09:29:38.087Z</time></trkpt><trkpt lat="42.7831562" lon="11.1446213"><ele>19.0</ele><time>2026-04-22T09:29:39.088Z</time></trkpt><trkpt lat="42.7829194" lon="11.1446275"><ele>19.0</ele><time>2026-04-22T09:29:40.09Z</time></trkpt><trkpt lat="42.7826869" lon="11.1446275"><ele>18.0</ele><time>2026-04-22T09:29:41.06Z</time></trkpt><trkpt lat="42.7824549" lon="11.1446241"><ele>17.0</ele><time>2026-04-22T09:29:42.088Z</time></trkpt><trkpt lat="42.7822255" lon="11.1446198"><ele>17.0</ele><time>2026-04-22T09:29:43.08Z</time></trkpt><trkpt lat="42.7819982" lon="11.1446162"><ele>17.0</ele><time>2026-04-22T09:29:44.082Z</time></trkpt><trkpt lat="42.7817711" lon="11.1446101"><ele>15.5</ele><time>2026-04-22T09:29:45.102Z</time></trkpt><trkpt lat="42.7815383" lon="11.1445981"><ele>14.0</ele><time>2026-04-22T09:29:46.098Z</time></trkpt><trkpt lat="42.7813089" lon="11.1445822"><ele>14.0</ele><time>2026-04-22T09:29:47.076Z</time></trkpt><trkpt lat="42.7810803" lon="11.1445662"><ele>14.0</ele><time>2026-04-22T09:29:48.089Z</time></trkpt><trkpt lat="42.7808497" lon="11.1445443"><ele>13.5</ele><time>2026-04-22T09:29:49.094Z</time></trkpt><trkpt lat="42.7806196" lon="11.1445243"><ele>13.0</ele><time>2026-04-22T09:29:50.08Z</time></trkpt><trkpt lat="42.780389" lon="11.1445052"><ele>11.5</ele><time>2026-04-22T09:29:51.084Z</time></trkpt><trkpt lat="42.7801565" lon="11.1444878"><ele>10.0</ele><time>2026-04-22T09:29:52.097Z</time></trkpt><trkpt lat="42.7799236" lon="11.1444726"><ele>10.0</ele><time>2026-04-22T09:29:53.086Z</time></trkpt><trkpt lat="42.7796917" lon="11.1444495"><ele>10.0</ele><time>2026-04-22T09:29:54.052Z</time></trkpt><trkpt lat="42.7794629" lon="11.1444289"><ele>11.0</ele><time>2026-04-22T09:29:55.088Z</time></trkpt><trkpt lat="42.7792358" lon="11.1444139"><ele>12.0</ele><time>2026-04-22T09:29:56.102Z</time></trkpt><trkpt lat="42.7790047" lon="11.1443969"><ele>12.0</ele><time>2026-04-22T09:29:57.059Z</time></trkpt><trkpt lat="42.7787716" lon="11.1443836"><ele>12.0</ele><time>2026-04-22T09:29:58.077Z</time></trkpt><trkpt lat="42.7785435" lon="11.1443698"><ele>12.0</ele><time>2026-04-22T09:29:59.092Z</time></trkpt><trkpt lat="42.7783133" lon="11.1443537"><ele>12.0</ele><time>2026-04-22T09:30:00.086Z</time></trkpt><trkpt lat="42.7780818" lon="11.144337"><ele>12.0</ele><time>2026-04-22T09:30:01.094Z</time></trkpt><trkpt lat="42.7778568" lon="11.144317"><ele>12.0</ele><time>2026-04-22T09:30:02.102Z</time></trkpt><trkpt lat="42.7776282" lon="11.144298"><ele>13.0</ele><time>2026-04-22T09:30:03.093Z</time></trkpt><trkpt lat="42.7774006" lon="11.1442778"><ele>14.0</ele><time>2026-04-22T09:30:04.08Z</time></trkpt><trkpt lat="42.7771701" lon="11.1442657"><ele>14.0</ele><time>2026-04-22T09:30:05.088Z</time></trkpt><trkpt lat="42.7769441" lon="11.1442513"><ele>14.0</ele><time>2026-04-22T09:30:06.06Z</time></trkpt><trkpt lat="42.7767163" lon="11.1442278"><ele>15.0</ele><time>2026-04-22T09:30:07.104Z</time></trkpt><trkpt lat="42.7764865" lon="11.1442067"><ele>16.0</ele><time>2026-04-22T09:30:08.09Z</time></trkpt><trkpt lat="42.7762554" lon="11.1441852"><ele>16.0</ele><time>2026-04-22T09:30:09.057Z</time></trkpt><trkpt lat="42.7760259" lon="11.1441669"><ele>16.0</ele><time>2026-04-22T09:30:10.096Z</time></trkpt><trkpt lat="42.7757941" lon="11.1441478"><ele>16.5</ele><time>2026-04-22T09:30:11.072Z</time></trkpt><trkpt lat="42.7755601" lon="11.1441353"><ele>17.0</ele><time>2026-04-22T09:30:12.093Z</time></trkpt><trkpt lat="42.7753308" lon="11.1441284"><ele>17.5</ele><time>2026-04-22T09:30:13.089Z</time></trkpt><trkpt lat="42.7751026" lon="11.1441137"><ele>18.0</ele><time>2026-04-22T09:30:14.079Z</time></trkpt><trkpt lat="42.7748749" lon="11.1440986"><ele>18.0</ele><time>2026-04-22T09:30:15.104Z</time></trkpt><trkpt lat="42.7746437" lon="11.1440825"><ele>18.0</ele><time>2026-04-22T09:30:16.099Z</time></trkpt><trkpt lat="42.7744151" lon="11.1440684"><ele>18.0</ele><time>2026-04-22T09:30:17.081Z</time></trkpt><trkpt lat="42.7741835" lon="11.1440529"><ele>18.0</ele><time>2026-04-22T09:30:18.09Z</time></trkpt><trkpt lat="42.7739544" lon="11.1440304"><ele>18.0</ele><time>2026-04-22T09:30:19.107Z</time></trkpt><trkpt lat="42.7737229" lon="11.1440118"><ele>18.0</ele><time>2026-04-22T09:30:20.078Z</time></trkpt><trkpt lat="42.7734955" lon="11.1439953"><ele>17.5</ele><time>2026-04-22T09:30:21.095Z</time></trkpt><trkpt lat="42.773268" lon="11.1439804"><ele>17.0</ele><time>2026-04-22T09:30:22.095Z</time></trkpt><trkpt lat="42.7730334" lon="11.1439646"><ele>17.0</ele><time>2026-04-22T09:30:23.087Z</time></trkpt><trkpt lat="42.7727972" lon="11.1439415"><ele>17.0</ele><time>2026-04-22T09:30:24.091Z</time></trkpt><trkpt lat="42.7725661" lon="11.1439185"><ele>16.5</ele><time>2026-04-22T09:30:25.085Z</time></trkpt><trkpt lat="42.772334" lon="11.1439039"><ele>16.0</ele><time>2026-04-22T09:30:26.088Z</time></trkpt><trkpt lat="42.7721007" lon="11.1438841"><ele>16.0</ele><time>2026-04-22T09:30:27.095Z</time></trkpt><trkpt lat="42.7718692" lon="11.1438573"><ele>16.0</ele><time>2026-04-22T09:30:28.069Z</time></trkpt><trkpt lat="42.7716395" lon="11.1438288"><ele>16.5</ele><time>2026-04-22T09:30:29.099Z</time></trkpt><trkpt lat="42.7714064" lon="11.1437959"><ele>17.0</ele><time>2026-04-22T09:30:30.084Z</time></trkpt><trkpt lat="42.7711791" lon="11.1437723"><ele>18.0</ele><time>2026-04-22T09:30:31.093Z</time></trkpt><trkpt lat="42.7709442" lon="11.1437514"><ele>19.0</ele><time>2026-04-22T09:30:32.07Z</time></trkpt><trkpt lat="42.7707068" lon="11.1437367"><ele>19.0</ele><time>2026-04-22T09:30:33.064Z</time></trkpt><trkpt lat="42.7704744" lon="11.1437154"><ele>19.0</ele><time>2026-04-22T09:30:34.081Z</time></trkpt><trkpt lat="42.7702354" lon="11.1436922"><ele>18.0</ele><time>2026-04-22T09:30:35.078Z</time></trkpt><trkpt lat="42.7700021" lon="11.1436706"><ele>17.0</ele><time>2026-04-22T09:30:36.085Z</time></trkpt><trkpt lat="42.7697678" lon="11.1436535"><ele>17.0</ele><time>2026-04-22T09:30:37.094Z</time></trkpt><trkpt lat="42.7695334" lon="11.1436388"><ele>17.0</ele><time>2026-04-22T09:30:38.089Z</time></trkpt><trkpt lat="42.7692998" lon="11.1436212"><ele>16.5</ele><time>2026-04-22T09:30:39.087Z</time></trkpt><trkpt lat="42.7690652" lon="11.1436041"><ele>16.0</ele><time>2026-04-22T09:30:40.096Z</time></trkpt><trkpt lat="42.7688288" lon="11.1435923"><ele>16.0</ele><time>2026-04-22T09:30:41.091Z</time></trkpt><trkpt lat="42.7685924" lon="11.1435685"><ele>16.0</ele><time>2026-04-22T09:30:42.111Z</time></trkpt><trkpt lat="42.7683615" lon="11.1435477"><ele>15.0</ele><time>2026-04-22T09:30:43.083Z</time></trkpt><trkpt lat="42.7681255" lon="11.1435304"><ele>14.0</ele><time>2026-04-22T09:30:44.085Z</time></trkpt><trkpt lat="42.7678905" lon="11.1435078"><ele>15.0</ele><time>2026-04-22T09:30:45.082Z</time></trkpt><trkpt lat="42.7676569" lon="11.1434879"><ele>16.0</ele><time>2026-04-22T09:30:46.06Z</time></trkpt><trkpt lat="42.7674211" lon="11.1434664"><ele>16.0</ele><time>2026-04-22T09:30:47.087Z</time></trkpt><trkpt lat="42.7671878" lon="11.1434407"><ele>16.0</ele><time>2026-04-22T09:30:48.081Z</time></trkpt><trkpt lat="42.7669558" lon="11.1434075"><ele>16.5</ele><time>2026-04-22T09:30:49.095Z</time></trkpt><trkpt lat="42.7667211" lon="11.1433617"><ele>17.0</ele><time>2026-04-22T09:30:50.092Z</time></trkpt><trkpt lat="42.7664875" lon="11.1433016"><ele>17.0</ele><time>2026-04-22T09:30:51.076Z</time></trkpt><trkpt lat="42.7662576" lon="11.1432369"><ele>17.0</ele><time>2026-04-22T09:30:52.084Z</time></trkpt><trkpt lat="42.7660282" lon="11.1431723"><ele>14.0</ele><time>2026-04-22T09:30:53.073Z</time></trkpt><trkpt lat="42.7657957" lon="11.1430955"><ele>11.0</ele><time>2026-04-22T09:30:54.093Z</time></trkpt><trkpt lat="42.7655701" lon="11.1430077"><ele>11.0</ele><time>2026-04-22T09:30:55.076Z</time></trkpt><trkpt lat="42.7653469" lon="11.1429071"><ele>11.0</ele><time>2026-04-22T09:30:56.104Z</time></trkpt><trkpt lat="42.7651209" lon="11.1428028"><ele>13.0</ele><time>2026-04-22T09:30:57.072Z</time></trkpt><trkpt lat="42.764894" lon="11.1426885"><ele>15.0</ele><time>2026-04-22T09:30:58.091Z</time></trkpt><trkpt lat="42.7646652" lon="11.142572"><ele>15.0</ele><time>2026-04-22T09:30:59.095Z</time></trkpt><trkpt lat="42.7644391" lon="11.1424525"><ele>15.0</ele><time>2026-04-22T09:31:00.09Z</time></trkpt><trkpt lat="42.764218" lon="11.1423319"><ele>14.0</ele><time>2026-04-22T09:31:01.097Z</time></trkpt><trkpt lat="42.7639981" lon="11.1422113"><ele>13.0</ele><time>2026-04-22T09:31:02.1Z</time></trkpt><trkpt lat="42.7637783" lon="11.1420903"><ele>13.0</ele><time>2026-04-22T09:31:03.044Z</time></trkpt><trkpt lat="42.7635579" lon="11.1419787"><ele>13.0</ele><time>2026-04-22T09:31:04.048Z</time></trkpt><trkpt lat="42.763331" lon="11.1418714"><ele>13.5</ele><time>2026-04-22T09:31:05.035Z</time></trkpt><trkpt lat="42.7631003" lon="11.1417673"><ele>14.0</ele><time>2026-04-22T09:31:06.091Z</time></trkpt><trkpt lat="42.7628692" lon="11.1416679"><ele>13.0</ele><time>2026-04-22T09:31:07.08Z</time></trkpt><trkpt lat="42.7626369" lon="11.1415699"><ele>12.0</ele><time>2026-04-22T09:31:08.082Z</time></trkpt><trkpt lat="42.7624032" lon="11.1414734"><ele>11.0</ele><time>2026-04-22T09:31:09.099Z</time></trkpt><trkpt lat="42.762172" lon="11.1413989"><ele>10.0</ele><time>2026-04-22T09:31:10.076Z</time></trkpt><trkpt lat="42.7619347" lon="11.1413548"><ele>12.0</ele><time>2026-04-22T09:31:11.084Z</time></trkpt><trkpt lat="42.7617001" lon="11.1413092"><ele>14.0</ele><time>2026-04-22T09:31:12.044Z</time></trkpt><trkpt lat="42.761464" lon="11.1412637"><ele>14.0</ele><time>2026-04-22T09:31:13.074Z</time></trkpt><trkpt lat="42.7612221" lon="11.1412225"><ele>14.0</ele><time>2026-04-22T09:31:14.103Z</time></trkpt><trkpt lat="42.7609805" lon="11.1411852"><ele>14.5</ele><time>2026-04-22T09:31:15.087Z</time></trkpt><trkpt lat="42.7607403" lon="11.1411614"><ele>15.0</ele><time>2026-04-22T09:31:16.07Z</time></trkpt><trkpt lat="42.7604972" lon="11.1411508"><ele>15.0</ele><time>2026-04-22T09:31:17.09Z</time></trkpt><trkpt lat="42.7602569" lon="11.1411467"><ele>15.0</ele><time>2026-04-22T09:31:18.092Z</time></trkpt><trkpt lat="42.7600154" lon="11.1411474"><ele>15.0</ele><time>2026-04-22T09:31:19.089Z</time></trkpt><trkpt lat="42.7597756" lon="11.1411557"><ele>15.0</ele><time>2026-04-22T09:31:20.075Z</time></trkpt><trkpt lat="42.7595347" lon="11.1411724"><ele>14.0</ele><time>2026-04-22T09:31:21.093Z</time></trkpt><trkpt lat="42.7592947" lon="11.1412003"><ele>13.0</ele><time>2026-04-22T09:31:22.082Z</time></trkpt><trkpt lat="42.7590524" lon="11.141242"><ele>13.0</ele><time>2026-04-22T09:31:23.089Z</time></trkpt><trkpt lat="42.7588145" lon="11.1412834"><ele>13.0</ele><time>2026-04-22T09:31:24.078Z</time></trkpt><trkpt lat="42.7585799" lon="11.1413319"><ele>12.5</ele><time>2026-04-22T09:31:25.058Z</time></trkpt><trkpt lat="42.7583436" lon="11.1413933"><ele>12.0</ele><time>2026-04-22T09:31:26.057Z</time></trkpt><trkpt lat="42.7581106" lon="11.141467"><ele>12.5</ele><time>2026-04-22T09:31:27.082Z</time></trkpt><trkpt lat="42.7578739" lon="11.1415496"><ele>13.0</ele><time>2026-04-22T09:31:28.065Z</time></trkpt><trkpt lat="42.7576465" lon="11.1416357"><ele>13.5</ele><time>2026-04-22T09:31:29.079Z</time></trkpt><trkpt lat="42.7574134" lon="11.1417282"><ele>14.0</ele><time>2026-04-22T09:31:30.063Z</time></trkpt><trkpt lat="42.7571821" lon="11.1418132"><ele>14.0</ele><time>2026-04-22T09:31:31.062Z</time></trkpt><trkpt lat="42.7569552" lon="11.1419007"><ele>14.0</ele><time>2026-04-22T09:31:32.077Z</time></trkpt><trkpt lat="42.7567259" lon="11.1419961"><ele>14.0</ele><time>2026-04-22T09:31:33.073Z</time></trkpt><trkpt lat="42.7564947" lon="11.1420957"><ele>14.0</ele><time>2026-04-22T09:31:34.102Z</time></trkpt><trkpt lat="42.7562667" lon="11.1421967"><ele>14.0</ele><time>2026-04-22T09:31:35.083Z</time></trkpt><trkpt lat="42.7560391" lon="11.1423017"><ele>14.0</ele><time>2026-04-22T09:31:36.085Z</time></trkpt><trkpt lat="42.7558132" lon="11.1424124"><ele>15.0</ele><time>2026-04-22T09:31:37.091Z</time></trkpt><trkpt lat="42.75559" lon="11.1425096"><ele>16.0</ele><time>2026-04-22T09:31:38.095Z</time></trkpt><trkpt lat="42.7553668" lon="11.1426107"><ele>15.5</ele><time>2026-04-22T09:31:39.078Z</time></trkpt><trkpt lat="42.7551437" lon="11.1427098"><ele>15.0</ele><time>2026-04-22T09:31:40.1Z</time></trkpt><trkpt lat="42.7549113" lon="11.1428202"><ele>15.0</ele><time>2026-04-22T09:31:41.086Z</time></trkpt><trkpt lat="42.7546812" lon="11.1429256"><ele>15.0</ele><time>2026-04-22T09:31:42.081Z</time></trkpt><trkpt lat="42.7544521" lon="11.1430313"><ele>14.5</ele><time>2026-04-22T09:31:43.086Z</time></trkpt><trkpt lat="42.7542224" lon="11.1431328"><ele>14.0</ele><time>2026-04-22T09:31:44.039Z</time></trkpt><trkpt lat="42.7539912" lon="11.1432364"><ele>14.0</ele><time>2026-04-22T09:31:45.091Z</time></trkpt><trkpt lat="42.7537624" lon="11.1433445"><ele>14.0</ele><time>2026-04-22T09:31:46.085Z</time></trkpt><trkpt lat="42.7535387" lon="11.1434568"><ele>14.0</ele><time>2026-04-22T09:31:47.089Z</time></trkpt><trkpt lat="42.7533107" lon="11.1435615"><ele>14.0</ele><time>2026-04-22T09:31:48.078Z</time></trkpt><trkpt lat="42.7530791" lon="11.1436657"><ele>14.0</ele><time>2026-04-22T09:31:49.089Z</time></trkpt><trkpt lat="42.7528472" lon="11.1437658"><ele>14.0</ele><time>2026-04-22T09:31:50.091Z</time></trkpt><trkpt lat="42.7526143" lon="11.1438699"><ele>13.5</ele><time>2026-04-22T09:31:51.062Z</time></trkpt><trkpt lat="42.7523812" lon="11.1439793"><ele>13.0</ele><time>2026-04-22T09:31:52.089Z</time></trkpt><trkpt lat="42.7521448" lon="11.144087"><ele>13.0</ele><time>2026-04-22T09:31:53.094Z</time></trkpt><trkpt lat="42.751909" lon="11.1441992"><ele>13.0</ele><time>2026-04-22T09:31:54.088Z</time></trkpt><trkpt lat="42.7516739" lon="11.1443102"><ele>12.5</ele><time>2026-04-22T09:31:55.084Z</time></trkpt><trkpt lat="42.7514378" lon="11.1444198"><ele>12.0</ele><time>2026-04-22T09:31:56.062Z</time></trkpt><trkpt lat="42.7512084" lon="11.1445282"><ele>12.5</ele><time>2026-04-22T09:31:57.097Z</time></trkpt><trkpt lat="42.7509729" lon="11.1446419"><ele>13.0</ele><time>2026-04-22T09:31:58.046Z</time></trkpt><trkpt lat="42.7507371" lon="11.1447524"><ele>13.0</ele><time>2026-04-22T09:31:59.073Z</time></trkpt><trkpt lat="42.750505" lon="11.1448589"><ele>13.0</ele><time>2026-04-22T09:32:00.069Z</time></trkpt><trkpt lat="42.7502664" lon="11.1449663"><ele>13.0</ele><time>2026-04-22T09:32:01.073Z</time></trkpt><trkpt lat="42.7500307" lon="11.1450706"><ele>13.0</ele><time>2026-04-22T09:32:02.059Z</time></trkpt><trkpt lat="42.7497889" lon="11.1451764"><ele>13.0</ele><time>2026-04-22T09:32:03.088Z</time></trkpt><trkpt lat="42.7495486" lon="11.1452776"><ele>13.0</ele><time>2026-04-22T09:32:04.086Z</time></trkpt><trkpt lat="42.7493053" lon="11.1453757"><ele>12.5</ele><time>2026-04-22T09:32:05.072Z</time></trkpt><trkpt lat="42.7490615" lon="11.1454621"><ele>12.0</ele><time>2026-04-22T09:32:06.097Z</time></trkpt><trkpt lat="42.7488196" lon="11.1455415"><ele>12.0</ele><time>2026-04-22T09:32:07.055Z</time></trkpt><trkpt lat="42.7485749" lon="11.145601"><ele>12.0</ele><time>2026-04-22T09:32:08.047Z</time></trkpt><trkpt lat="42.7483251" lon="11.1456485"><ele>12.0</ele><time>2026-04-22T09:32:09.066Z</time></trkpt><trkpt lat="42.748076" lon="11.1456849"><ele>12.0</ele><time>2026-04-22T09:32:10.078Z</time></trkpt><trkpt lat="42.7478247" lon="11.145714"><ele>13.5</ele><time>2026-04-22T09:32:11.081Z</time></trkpt><trkpt lat="42.7475748" lon="11.1457222"><ele>15.0</ele><time>2026-04-22T09:32:12.095Z</time></trkpt><trkpt lat="42.7473222" lon="11.1457278"><ele>15.0</ele><time>2026-04-22T09:32:13.091Z</time></trkpt><trkpt lat="42.7470707" lon="11.1457228"><ele>15.0</ele><time>2026-04-22T09:32:14.096Z</time></trkpt><trkpt lat="42.7468169" lon="11.1457111"><ele>13.5</ele><time>2026-04-22T09:32:15.062Z</time></trkpt><trkpt lat="42.7465669" lon="11.1456881"><ele>12.0</ele><time>2026-04-22T09:32:16.076Z</time></trkpt><trkpt lat="42.7463186" lon="11.145642"><ele>12.0</ele><time>2026-04-22T09:32:17.084Z</time></trkpt><trkpt lat="42.7460659" lon="11.145587"><ele>12.0</ele><time>2026-04-22T09:32:18.087Z</time></trkpt><trkpt lat="42.7458212" lon="11.1455176"><ele>12.5</ele><time>2026-04-22T09:32:19.08Z</time></trkpt><trkpt lat="42.7455768" lon="11.1454363"><ele>13.0</ele><time>2026-04-22T09:32:20.091Z</time></trkpt><trkpt lat="42.7453374" lon="11.1453365"><ele>15.0</ele><time>2026-04-22T09:32:21.079Z</time></trkpt><trkpt lat="42.7450981" lon="11.1452324"><ele>17.0</ele><time>2026-04-22T09:32:22.081Z</time></trkpt><trkpt lat="42.7448616" lon="11.1451152"><ele>17.0</ele><time>2026-04-22T09:32:23.082Z</time></trkpt><trkpt lat="42.7446277" lon="11.1449919"><ele>17.0</ele><time>2026-04-22T09:32:24.099Z</time></trkpt><trkpt lat="42.7443883" lon="11.1448551"><ele>16.5</ele><time>2026-04-22T09:32:25.09Z</time></trkpt><trkpt lat="42.7441636" lon="11.1447065"><ele>16.0</ele><time>2026-04-22T09:32:26.087Z</time></trkpt><trkpt lat="42.7439414" lon="11.1445531"><ele>16.0</ele><time>2026-04-22T09:32:27.083Z</time></trkpt><trkpt lat="42.7437224" lon="11.1443801"><ele>16.0</ele><time>2026-04-22T09:32:28.062Z</time></trkpt><trkpt lat="42.7435104" lon="11.144201"><ele>15.5</ele><time>2026-04-22T09:32:29.081Z</time></trkpt><trkpt lat="42.7432974" lon="11.1440068"><ele>15.0</ele><time>2026-04-22T09:32:30.094Z</time></trkpt><trkpt lat="42.7430866" lon="11.1438128"><ele>15.0</ele><time>2026-04-22T09:32:31.094Z</time></trkpt><trkpt lat="42.7428842" lon="11.1436076"><ele>15.0</ele><time>2026-04-22T09:32:32.091Z</time></trkpt><trkpt lat="42.742686" lon="11.1433881"><ele>15.5</ele><time>2026-04-22T09:32:33.091Z</time></trkpt><trkpt lat="42.7424952" lon="11.1431514"><ele>16.0</ele><time>2026-04-22T09:32:34.078Z</time></trkpt><trkpt lat="42.7423136" lon="11.1429088"><ele>16.0</ele><time>2026-04-22T09:32:35.091Z</time></trkpt><trkpt lat="42.7421334" lon="11.142658"><ele>16.0</ele><time>2026-04-22T09:32:36.074Z</time></trkpt><trkpt lat="42.7419589" lon="11.1424018"><ele>16.0</ele><time>2026-04-22T09:32:37.082Z</time></trkpt><trkpt lat="42.7417858" lon="11.1421397"><ele>16.0</ele><time>2026-04-22T09:32:38.084Z</time></trkpt><trkpt lat="42.7416182" lon="11.1418742"><ele>16.0</ele><time>2026-04-22T09:32:39.086Z</time></trkpt><trkpt lat="42.74145" lon="11.1416162"><ele>16.0</ele><time>2026-04-22T09:32:40.1Z</time></trkpt><trkpt lat="42.7412833" lon="11.1413577"><ele>16.0</ele><time>2026-04-22T09:32:41.08Z</time></trkpt><trkpt lat="42.741119" lon="11.1410964"><ele>16.0</ele><time>2026-04-22T09:32:42.085Z</time></trkpt><trkpt lat="42.7409501" lon="11.1408315"><ele>15.0</ele><time>2026-04-22T09:32:43.089Z</time></trkpt><trkpt lat="42.7407866" lon="11.1405769"><ele>14.0</ele><time>2026-04-22T09:32:44.091Z</time></trkpt><trkpt lat="42.7406204" lon="11.1403076"><ele>14.0</ele><time>2026-04-22T09:32:45.087Z</time></trkpt><trkpt lat="42.7404524" lon="11.1400439"><ele>14.0</ele><time>2026-04-22T09:32:46.067Z</time></trkpt><trkpt lat="42.7402824" lon="11.1397844"><ele>18.0</ele><time>2026-04-22T09:32:47.057Z</time></trkpt><trkpt lat="42.7401081" lon="11.1395227"><ele>22.0</ele><time>2026-04-22T09:32:48.064Z</time></trkpt><trkpt lat="42.7399211" lon="11.1392789"><ele>18.0</ele><time>2026-04-22T09:32:49.091Z</time></trkpt><trkpt lat="42.739731" lon="11.139049"><ele>14.0</ele><time>2026-04-22T09:32:50.101Z</time></trkpt><trkpt lat="42.7395342" lon="11.1388247"><ele>19.5</ele><time>2026-04-22T09:32:51.089Z</time></trkpt><trkpt lat="42.7393322" lon="11.1386148"><ele>25.0</ele><time>2026-04-22T09:32:52.097Z</time></trkpt><trkpt lat="42.7391216" lon="11.1384138"><ele>25.0</ele><time>2026-04-22T09:32:53.088Z</time></trkpt><trkpt lat="42.7389012" lon="11.1382243"><ele>25.0</ele><time>2026-04-22T09:32:54.09Z</time></trkpt><trkpt lat="42.7386798" lon="11.1380588"><ele>26.5</ele><time>2026-04-22T09:32:55.087Z</time></trkpt><trkpt lat="42.7384547" lon="11.1378965"><ele>28.0</ele><time>2026-04-22T09:32:56.088Z</time></trkpt><trkpt lat="42.7382244" lon="11.1377547"><ele>28.0</ele><time>2026-04-22T09:32:57.08Z</time></trkpt><trkpt lat="42.7379864" lon="11.1376319"><ele>28.0</ele><time>2026-04-22T09:32:58.077Z</time></trkpt><trkpt lat="42.7377478" lon="11.1375203"><ele>28.5</ele><time>2026-04-22T09:32:59.057Z</time></trkpt><trkpt lat="42.7375015" lon="11.1374191"><ele>29.0</ele><time>2026-04-22T09:33:00.085Z</time></trkpt><trkpt lat="42.7372439" lon="11.1373254"><ele>29.0</ele><time>2026-04-22T09:33:01.088Z</time></trkpt><trkpt lat="42.7369892" lon="11.1372487"><ele>29.0</ele><time>2026-04-22T09:33:02.085Z</time></trkpt><trkpt lat="42.736741" lon="11.1371775"><ele>30.5</ele><time>2026-04-22T09:33:03.096Z</time></trkpt><trkpt lat="42.7364896" lon="11.1371088"><ele>32.0</ele><time>2026-04-22T09:33:04.087Z</time></trkpt><trkpt lat="42.7362357" lon="11.1370407"><ele>29.0</ele><time>2026-04-22T09:33:05.081Z</time></trkpt><trkpt lat="42.7359813" lon="11.1369664"><ele>26.0</ele><time>2026-04-22T09:33:06.074Z</time></trkpt><trkpt lat="42.7357288" lon="11.1368846"><ele>26.0</ele><time>2026-04-22T09:33:07.074Z</time></trkpt><trkpt lat="42.735479" lon="11.1368087"><ele>26.0</ele><time>2026-04-22T09:33:08.08Z</time></trkpt><trkpt lat="42.7352287" lon="11.136734"><ele>25.5</ele><time>2026-04-22T09:33:09.087Z</time></trkpt><trkpt lat="42.734981" lon="11.1366607"><ele>25.0</ele><time>2026-04-22T09:33:10.089Z</time></trkpt><trkpt lat="42.7347302" lon="11.1365882"><ele>22.5</ele><time>2026-04-22T09:33:11.1Z</time></trkpt><trkpt lat="42.7344818" lon="11.136522"><ele>20.0</ele><time>2026-04-22T09:33:12.081Z</time></trkpt><trkpt lat="42.7342357" lon="11.136453"><ele>18.0</ele><time>2026-04-22T09:33:13.086Z</time></trkpt><trkpt lat="42.7339819" lon="11.1363764"><ele>16.0</ele><time>2026-04-22T09:33:14.059Z</time></trkpt><trkpt lat="42.7337274" lon="11.1363032"><ele>16.5</ele><time>2026-04-22T09:33:15.081Z</time></trkpt><trkpt lat="42.7334745" lon="11.136237"><ele>17.0</ele><time>2026-04-22T09:33:16.088Z</time></trkpt><trkpt lat="42.7332214" lon="11.1361632"><ele>17.0</ele><time>2026-04-22T09:33:17.09Z</time></trkpt><trkpt lat="42.7329733" lon="11.1360917"><ele>17.0</ele><time>2026-04-22T09:33:18.093Z</time></trkpt><trkpt lat="42.732721" lon="11.1360288"><ele>18.0</ele><time>2026-04-22T09:33:19.126Z</time></trkpt><trkpt lat="42.7324662" lon="11.1359615"><ele>19.0</ele><time>2026-04-22T09:33:20.094Z</time></trkpt><trkpt lat="42.7322117" lon="11.135905"><ele>19.0</ele><time>2026-04-22T09:33:21.077Z</time></trkpt><trkpt lat="42.7319552" lon="11.1358445"><ele>19.0</ele><time>2026-04-22T09:33:22.083Z</time></trkpt><trkpt lat="42.7316988" lon="11.1357925"><ele>19.5</ele><time>2026-04-22T09:33:23.086Z</time></trkpt><trkpt lat="42.7314438" lon="11.135754"><ele>20.0</ele><time>2026-04-22T09:33:24.082Z</time></trkpt><trkpt lat="42.7311864" lon="11.1357309"><ele>17.0</ele><time>2026-04-22T09:33:25.083Z</time></trkpt><trkpt lat="42.7309292" lon="11.135714"><ele>14.0</ele><time>2026-04-22T09:33:26.075Z</time></trkpt><trkpt lat="42.7306768" lon="11.1357138"><ele>14.0</ele><time>2026-04-22T09:33:27.079Z</time></trkpt><trkpt lat="42.7304182" lon="11.1357187"><ele>14.0</ele><time>2026-04-22T09:33:28.07Z</time></trkpt><trkpt lat="42.7301599" lon="11.1357324"><ele>13.5</ele><time>2026-04-22T09:33:29.058Z</time></trkpt><trkpt lat="42.7299024" lon="11.1357585"><ele>13.0</ele><time>2026-04-22T09:33:30.059Z</time></trkpt><trkpt lat="42.7296451" lon="11.1357835"><ele>13.0</ele><time>2026-04-22T09:33:31.088Z</time></trkpt><trkpt lat="42.7293931" lon="11.1358165"><ele>13.0</ele><time>2026-04-22T09:33:32.091Z</time></trkpt><trkpt lat="42.7291367" lon="11.1358667"><ele>13.5</ele><time>2026-04-22T09:33:33.096Z</time></trkpt><trkpt lat="42.7288854" lon="11.1359282"><ele>14.0</ele><time>2026-04-22T09:33:34.071Z</time></trkpt><trkpt lat="42.7286301" lon="11.1359933"><ele>13.0</ele><time>2026-04-22T09:33:35.095Z</time></trkpt><trkpt lat="42.7283783" lon="11.1360632"><ele>12.0</ele><time>2026-04-22T09:33:36.091Z</time></trkpt><trkpt lat="42.7281328" lon="11.1361402"><ele>12.0</ele><time>2026-04-22T09:33:37.081Z</time></trkpt><trkpt lat="42.7279039" lon="11.136209"><ele>12.0</ele><time>2026-04-22T09:33:38.101Z</time></trkpt><trkpt lat="42.7276861" lon="11.1362779"><ele>12.0</ele><time>2026-04-22T09:33:39.076Z</time></trkpt><trkpt lat="42.7274641" lon="11.136352"><ele>12.0</ele><time>2026-04-22T09:33:40.098Z</time></trkpt><trkpt lat="42.7272468" lon="11.1364307"><ele>12.0</ele><time>2026-04-22T09:33:41.087Z</time></trkpt><trkpt lat="42.727025" lon="11.1365146"><ele>12.0</ele><time>2026-04-22T09:33:42.078Z</time></trkpt><trkpt lat="42.7268058" lon="11.1366029"><ele>13.5</ele><time>2026-04-22T09:33:43.091Z</time></trkpt><trkpt lat="42.7265876" lon="11.1366904"><ele>15.0</ele><time>2026-04-22T09:33:44.071Z</time></trkpt><trkpt lat="42.7263632" lon="11.1367767"><ele>15.0</ele><time>2026-04-22T09:33:45.095Z</time></trkpt><trkpt lat="42.7261331" lon="11.1368612"><ele>15.0</ele><time>2026-04-22T09:33:46.082Z</time></trkpt><trkpt lat="42.7258975" lon="11.1369494"><ele>15.5</ele><time>2026-04-22T09:33:47.076Z</time></trkpt><trkpt lat="42.725668" lon="11.1370313"><ele>16.0</ele><time>2026-04-22T09:33:48.08Z</time></trkpt><trkpt lat="42.7254334" lon="11.1371197"><ele>16.0</ele><time>2026-04-22T09:33:49.073Z</time></trkpt><trkpt lat="42.7251963" lon="11.1372058"><ele>16.0</ele><time>2026-04-22T09:33:50.092Z</time></trkpt><trkpt lat="42.7249553" lon="11.1372919"><ele>16.0</ele><time>2026-04-22T09:33:51.081Z</time></trkpt><trkpt lat="42.7247154" lon="11.1373703"><ele>16.0</ele><time>2026-04-22T09:33:52.067Z</time></trkpt><trkpt lat="42.7244802" lon="11.1374566"><ele>16.5</ele><time>2026-04-22T09:33:53.042Z</time></trkpt><trkpt lat="42.7242394" lon="11.1375426"><ele>17.0</ele><time>2026-04-22T09:33:54.086Z</time></trkpt><trkpt lat="42.7239965" lon="11.1376292"><ele>17.0</ele><time>2026-04-22T09:33:55.104Z</time></trkpt><trkpt lat="42.723759" lon="11.137714"><ele>17.0</ele><time>2026-04-22T09:33:56.099Z</time></trkpt><trkpt lat="42.7235222" lon="11.1378014"><ele>16.5</ele><time>2026-04-22T09:33:57.064Z</time></trkpt><trkpt lat="42.7232838" lon="11.1378858"><ele>16.0</ele><time>2026-04-22T09:33:58.038Z</time></trkpt><trkpt lat="42.7230462" lon="11.1379705"><ele>16.0</ele><time>2026-04-22T09:33:59.033Z</time></trkpt><trkpt lat="42.7228126" lon="11.1380592"><ele>16.0</ele><time>2026-04-22T09:34:00.048Z</time></trkpt><trkpt lat="42.7225741" lon="11.138163"><ele>14.5</ele><time>2026-04-22T09:34:01.078Z</time></trkpt><trkpt lat="42.7223499" lon="11.1382753"><ele>13.0</ele><time>2026-04-22T09:34:02.079Z</time></trkpt><trkpt lat="42.7221263" lon="11.1383975"><ele>13.0</ele><time>2026-04-22T09:34:03.043Z</time></trkpt><trkpt lat="42.7219097" lon="11.1385306"><ele>13.0</ele><time>2026-04-22T09:34:04.092Z</time></trkpt><trkpt lat="42.721703" lon="11.1386737"><ele>12.5</ele><time>2026-04-22T09:34:05.074Z</time></trkpt><trkpt lat="42.7214875" lon="11.1388214"><ele>12.0</ele><time>2026-04-22T09:34:06.077Z</time></trkpt><trkpt lat="42.7212785" lon="11.1389783"><ele>12.5</ele><time>2026-04-22T09:34:07.091Z</time></trkpt><trkpt lat="42.7210741" lon="11.1391304"><ele>13.0</ele><time>2026-04-22T09:34:08.091Z</time></trkpt><trkpt lat="42.7208701" lon="11.1392956"><ele>13.5</ele><time>2026-04-22T09:34:09.062Z</time></trkpt><trkpt lat="42.7206652" lon="11.1394631"><ele>14.0</ele><time>2026-04-22T09:34:10.059Z</time></trkpt><trkpt lat="42.7204606" lon="11.1396215"><ele>14.0</ele><time>2026-04-22T09:34:11.057Z</time></trkpt><trkpt lat="42.720254" lon="11.1397834"><ele>14.0</ele><time>2026-04-22T09:34:12.101Z</time></trkpt><trkpt lat="42.720048" lon="11.1399409"><ele>14.0</ele><time>2026-04-22T09:34:13.086Z</time></trkpt><trkpt lat="42.7198387" lon="11.140103"><ele>14.0</ele><time>2026-04-22T09:34:14.088Z</time></trkpt><trkpt lat="42.7196354" lon="11.1402616"><ele>14.0</ele><time>2026-04-22T09:34:15.078Z</time></trkpt><trkpt lat="42.7194329" lon="11.1404152"><ele>14.0</ele><time>2026-04-22T09:34:16.054Z</time></trkpt><trkpt lat="42.7192336" lon="11.1405721"><ele>13.5</ele><time>2026-04-22T09:34:17.087Z</time></trkpt><trkpt lat="42.7190293" lon="11.1407266"><ele>13.0</ele><time>2026-04-22T09:34:18.073Z</time></trkpt><trkpt lat="42.7188187" lon="11.1408809"><ele>13.0</ele><time>2026-04-22T09:34:19.082Z</time></trkpt><trkpt lat="42.7186203" lon="11.1410353"><ele>13.0</ele><time>2026-04-22T09:34:20.073Z</time></trkpt><trkpt lat="42.7184203" lon="11.1411935"><ele>12.0</ele><time>2026-04-22T09:34:21.087Z</time></trkpt><trkpt lat="42.7182216" lon="11.1413492"><ele>11.0</ele><time>2026-04-22T09:34:22.06Z</time></trkpt><trkpt lat="42.7180209" lon="11.1414998"><ele>12.5</ele><time>2026-04-22T09:34:23.077Z</time></trkpt><trkpt lat="42.7178203" lon="11.1416457"><ele>14.0</ele><time>2026-04-22T09:34:24.065Z</time></trkpt><trkpt lat="42.7176221" lon="11.1417914"><ele>14.0</ele><time>2026-04-22T09:34:25.057Z</time></trkpt><trkpt lat="42.7174239" lon="11.1419361"><ele>14.0</ele><time>2026-04-22T09:34:26.08Z</time></trkpt><trkpt lat="42.7172279" lon="11.1420806"><ele>14.0</ele><time>2026-04-22T09:34:27.063Z</time></trkpt><trkpt lat="42.717032" lon="11.1422358"><ele>14.0</ele><time>2026-04-22T09:34:28.056Z</time></trkpt><trkpt lat="42.716837" lon="11.1423826"><ele>14.0</ele><time>2026-04-22T09:34:29.094Z</time></trkpt><trkpt lat="42.7166412" lon="11.1425382"><ele>14.0</ele><time>2026-04-22T09:34:30.08Z</time></trkpt><trkpt lat="42.7164449" lon="11.1426845"><ele>14.0</ele><time>2026-04-22T09:34:31.082Z</time></trkpt><trkpt lat="42.7162508" lon="11.1428345"><ele>14.0</ele><time>2026-04-22T09:34:32.08Z</time></trkpt><trkpt lat="42.716057" lon="11.142983"><ele>14.333333333333334</ele><time>2026-04-22T09:34:33.074Z</time></trkpt><trkpt lat="42.7158605" lon="11.1431316"><ele>14.666666666666668</ele><time>2026-04-22T09:34:34.081Z</time></trkpt><trkpt lat="42.7156683" lon="11.1432798"><ele>15.0</ele><time>2026-04-22T09:34:35.058Z</time></trkpt><trkpt lat="42.7154786" lon="11.1434308"><ele>15.0</ele><time>2026-04-22T09:34:36.072Z</time></trkpt><trkpt lat="42.7152882" lon="11.1435762"><ele>15.0</ele><time>2026-04-22T09:34:37.05Z</time></trkpt><trkpt lat="42.7151021" lon="11.1437146"><ele>15.0</ele><time>2026-04-22T09:34:38.053Z</time></trkpt><trkpt lat="42.7149085" lon="11.1438496"><ele>14.333333333333332</ele><time>2026-04-22T09:34:39.045Z</time></trkpt><trkpt lat="42.7147154" lon="11.1439735"><ele>13.666666666666666</ele><time>2026-04-22T09:34:40.074Z</time></trkpt><trkpt lat="42.7145232" lon="11.1440813"><ele>13.0</ele><time>2026-04-22T09:34:41.087Z</time></trkpt><trkpt lat="42.7143273" lon="11.144175"><ele>12.666666666666666</ele><time>2026-04-22T09:34:42.099Z</time></trkpt><trkpt lat="42.714132" lon="11.144254"><ele>12.333333333333332</ele><time>2026-04-22T09:34:43.064Z</time></trkpt><trkpt lat="42.713932" lon="11.1443327"><ele>12.0</ele><time>2026-04-22T09:34:44.083Z</time></trkpt><trkpt lat="42.7137267" lon="11.1444094"><ele>11.666666666666666</ele><time>2026-04-22T09:34:45.056Z</time></trkpt><trkpt lat="42.713518" lon="11.1444636"><ele>11.333333333333332</ele><time>2026-04-22T09:34:46.075Z</time></trkpt><trkpt lat="42.7133057" lon="11.1445052"><ele>11.0</ele><time>2026-04-22T09:34:47.08Z</time></trkpt><trkpt lat="42.7130978" lon="11.1445277"><ele>11.0</ele><time>2026-04-22T09:34:48.065Z</time></trkpt><trkpt lat="42.7128817" lon="11.144541"><ele>11.0</ele><time>2026-04-22T09:34:49.059Z</time></trkpt><trkpt lat="42.7126557" lon="11.1445365"><ele>11.0</ele><time>2026-04-22T09:34:50.085Z</time></trkpt><trkpt lat="42.7124366" lon="11.1445241"><ele>11.333333333333332</ele><time>2026-04-22T09:34:51.062Z</time></trkpt><trkpt lat="42.7122155" lon="11.1444926"><ele>11.666666666666666</ele><time>2026-04-22T09:34:52.09Z</time></trkpt><trkpt lat="42.7119994" lon="11.1444452"><ele>12.0</ele><time>2026-04-22T09:34:53.077Z</time></trkpt><trkpt lat="42.7117835" lon="11.1443899"><ele>12.333333333333332</ele><time>2026-04-22T09:34:54.066Z</time></trkpt><trkpt lat="42.711564" lon="11.1443179"><ele>12.666666666666666</ele><time>2026-04-22T09:34:55.086Z</time></trkpt><trkpt lat="42.7113516" lon="11.1442299"><ele>13.0</ele><time>2026-04-22T09:34:56.079Z</time></trkpt><trkpt lat="42.7111407" lon="11.1441258"><ele>14.0</ele><time>2026-04-22T09:34:57.073Z</time></trkpt><trkpt lat="42.7109361" lon="11.1439916"><ele>15.0</ele><time>2026-04-22T09:34:58.074Z</time></trkpt><trkpt lat="42.710732" lon="11.1438397"><ele>15.0</ele><time>2026-04-22T09:34:59.106Z</time></trkpt><trkpt lat="42.7105389" lon="11.1436955"><ele>15.0</ele><time>2026-04-22T09:35:00.056Z</time></trkpt><trkpt lat="42.7103461" lon="11.1435417"><ele>15.0</ele><time>2026-04-22T09:35:01.078Z</time></trkpt><trkpt lat="42.7101596" lon="11.1433777"><ele>14.0</ele><time>2026-04-22T09:35:02.1Z</time></trkpt><trkpt lat="42.7099648" lon="11.1432046"><ele>13.0</ele><time>2026-04-22T09:35:03.081Z</time></trkpt><trkpt lat="42.7097829" lon="11.1430222"><ele>13.0</ele><time>2026-04-22T09:35:04.116Z</time></trkpt><trkpt lat="42.7096025" lon="11.1428355"><ele>13.0</ele><time>2026-04-22T09:35:05.077Z</time></trkpt><trkpt lat="42.7094198" lon="11.1426515"><ele>13.0</ele><time>2026-04-22T09:35:06.085Z</time></trkpt><trkpt lat="42.7092409" lon="11.142464"><ele>13.0</ele><time>2026-04-22T09:35:07.072Z</time></trkpt><trkpt lat="42.7090628" lon="11.1422696"><ele>13.0</ele><time>2026-04-22T09:35:08.058Z</time></trkpt><trkpt lat="42.7088774" lon="11.1420822"><ele>13.0</ele><time>2026-04-22T09:35:09.086Z</time></trkpt><trkpt lat="42.7086952" lon="11.1418929"><ele>13.5</ele><time>2026-04-22T09:35:10.062Z</time></trkpt><trkpt lat="42.7085101" lon="11.1417098"><ele>14.0</ele><time>2026-04-22T09:35:11.042Z</time></trkpt><trkpt lat="42.7083274" lon="11.1415207"><ele>14.0</ele><time>2026-04-22T09:35:12.081Z</time></trkpt><trkpt lat="42.708141" lon="11.1413328"><ele>14.0</ele><time>2026-04-22T09:35:13.103Z</time></trkpt><trkpt lat="42.7079695" lon="11.1411579"><ele>14.0</ele><time>2026-04-22T09:35:14.104Z</time></trkpt><trkpt lat="42.707817" lon="11.1409928"><ele>14.666666666666668</ele><time>2026-04-22T09:35:15.075Z</time></trkpt><trkpt lat="42.7076651" lon="11.1408347"><ele>15.333333333333332</ele><time>2026-04-22T09:35:16.089Z</time></trkpt><trkpt lat="42.7075107" lon="11.1406789"><ele>16.0</ele><time>2026-04-22T09:35:17.092Z</time></trkpt><trkpt lat="42.7073587" lon="11.1405209"><ele>16.333333333333332</ele><time>2026-04-22T09:35:18.086Z</time></trkpt><trkpt lat="42.7072011" lon="11.1403573"><ele>16.666666666666668</ele><time>2026-04-22T09:35:19.085Z</time></trkpt><trkpt lat="42.7070462" lon="11.1402003"><ele>17.0</ele><time>2026-04-22T09:35:20.099Z</time></trkpt><trkpt lat="42.7068977" lon="11.1400474"><ele>17.0</ele><time>2026-04-22T09:35:21.086Z</time></trkpt><trkpt lat="42.7067523" lon="11.1398967"><ele>17.0</ele><time>2026-04-22T09:35:22.09Z</time></trkpt><trkpt lat="42.7066036" lon="11.1397421"><ele>17.0</ele><time>2026-04-22T09:35:23.086Z</time></trkpt><trkpt lat="42.7064497" lon="11.1395867"><ele>17.0</ele><time>2026-04-22T09:35:24.091Z</time></trkpt><trkpt lat="42.7063016" lon="11.1394378"><ele>17.0</ele><time>2026-04-22T09:35:25.101Z</time></trkpt><trkpt lat="42.7061526" lon="11.1392843"><ele>17.0</ele><time>2026-04-22T09:35:26.101Z</time></trkpt><trkpt lat="42.7059981" lon="11.1391311"><ele>17.333333333333336</ele><time>2026-04-22T09:35:27.091Z</time></trkpt><trkpt lat="42.7058477" lon="11.1389762"><ele>17.666666666666668</ele><time>2026-04-22T09:35:28.064Z</time></trkpt><trkpt lat="42.7056901" lon="11.1388197"><ele>18.0</ele><time>2026-04-22T09:35:29.09Z</time></trkpt><trkpt lat="42.705531" lon="11.1386632"><ele>18.0</ele><time>2026-04-22T09:35:30.081Z</time></trkpt><trkpt lat="42.7053741" lon="11.1385026"><ele>18.0</ele><time>2026-04-22T09:35:31.1Z</time></trkpt><trkpt lat="42.7052116" lon="11.1383498"><ele>18.0</ele><time>2026-04-22T09:35:32.09Z</time></trkpt><trkpt lat="42.7050436" lon="11.1381981"><ele>17.333333333333332</ele><time>2026-04-22T09:35:33.097Z</time></trkpt><trkpt lat="42.704867" lon="11.138059"><ele>16.666666666666664</ele><time>2026-04-22T09:35:34.092Z</time></trkpt><trkpt lat="42.7046819" lon="11.1379267"><ele>16.0</ele><time>2026-04-22T09:35:35.087Z</time></trkpt><trkpt lat="42.7044859" lon="11.1378061"><ele>16.0</ele><time>2026-04-22T09:35:36.08Z</time></trkpt><trkpt lat="42.7042883" lon="11.1376898"><ele>16.0</ele><time>2026-04-22T09:35:37.091Z</time></trkpt><trkpt lat="42.7040862" lon="11.1375934"><ele>16.0</ele><time>2026-04-22T09:35:38.089Z</time></trkpt><trkpt lat="42.7038801" lon="11.1375002"><ele>16.0</ele><time>2026-04-22T09:35:39.086Z</time></trkpt><trkpt lat="42.7036679" lon="11.1374259"><ele>16.0</ele><time>2026-04-22T09:35:40.054Z</time></trkpt><trkpt lat="42.7034592" lon="11.1373672"><ele>16.0</ele><time>2026-04-22T09:35:41.042Z</time></trkpt><trkpt lat="42.7032438" lon="11.1373024"><ele>15.0</ele><time>2026-04-22T09:35:42.099Z</time></trkpt><trkpt lat="42.7030269" lon="11.1372694"><ele>14.0</ele><time>2026-04-22T09:35:43.088Z</time></trkpt><trkpt lat="42.7028103" lon="11.1372539"><ele>13.0</ele><time>2026-04-22T09:35:44.058Z</time></trkpt><trkpt lat="42.7025905" lon="11.1372527"><ele>13.0</ele><time>2026-04-22T09:35:45.053Z</time></trkpt><trkpt lat="42.7023712" lon="11.1372617"><ele>13.0</ele><time>2026-04-22T09:35:46.1Z</time></trkpt><trkpt lat="42.7021514" lon="11.1372764"><ele>13.0</ele><time>2026-04-22T09:35:47.087Z</time></trkpt><trkpt lat="42.7019249" lon="11.1372949"><ele>13.333333333333332</ele><time>2026-04-22T09:35:48.077Z</time></trkpt><trkpt lat="42.7017038" lon="11.1373148"><ele>13.666666666666668</ele><time>2026-04-22T09:35:49.038Z</time></trkpt><trkpt lat="42.7014781" lon="11.1373346"><ele>14.0</ele><time>2026-04-22T09:35:50.06Z</time></trkpt><trkpt lat="42.701248" lon="11.1373566"><ele>14.0</ele><time>2026-04-22T09:35:51.059Z</time></trkpt><trkpt lat="42.7010233" lon="11.1373719"><ele>14.0</ele><time>2026-04-22T09:35:52.087Z</time></trkpt><trkpt lat="42.7008058" lon="11.1373849"><ele>14.0</ele><time>2026-04-22T09:35:53.087Z</time></trkpt><trkpt lat="42.7005822" lon="11.1374002"><ele>14.0</ele><time>2026-04-22T09:35:54.096Z</time></trkpt><trkpt lat="42.7003589" lon="11.1374137"><ele>14.0</ele><time>2026-04-22T09:35:55.074Z</time></trkpt><trkpt lat="42.7001321" lon="11.1374249"><ele>13.333333333333334</ele><time>2026-04-22T09:35:56.085Z</time></trkpt><trkpt lat="42.6999088" lon="11.1374512"><ele>12.666666666666668</ele><time>2026-04-22T09:35:57.097Z</time></trkpt><trkpt lat="42.6996846" lon="11.137468"><ele>12.0</ele><time>2026-04-22T09:35:58.07Z</time></trkpt><trkpt lat="42.6994594" lon="11.1374869"><ele>12.0</ele><time>2026-04-22T09:35:59.093Z</time></trkpt><trkpt lat="42.6992373" lon="11.1375016"><ele>12.0</ele><time>2026-04-22T09:36:00.094Z</time></trkpt><trkpt lat="42.6990187" lon="11.1375202"><ele>12.0</ele><time>2026-04-22T09:36:01.079Z</time></trkpt><trkpt lat="42.6988025" lon="11.1375363"><ele>11.666666666666666</ele><time>2026-04-22T09:36:02.098Z</time></trkpt><trkpt lat="42.6985791" lon="11.1375573"><ele>11.333333333333332</ele><time>2026-04-22T09:36:03.085Z</time></trkpt><trkpt lat="42.6983554" lon="11.1375722"><ele>11.0</ele><time>2026-04-22T09:36:04.051Z</time></trkpt><trkpt lat="42.6981325" lon="11.1375825"><ele>11.0</ele><time>2026-04-22T09:36:05.086Z</time></trkpt><trkpt lat="42.6979053" lon="11.1375944"><ele>11.0</ele><time>2026-04-22T09:36:06.094Z</time></trkpt><trkpt lat="42.6976857" lon="11.1376109"><ele>11.0</ele><time>2026-04-22T09:36:07.09Z</time></trkpt><trkpt lat="42.6974615" lon="11.137628"><ele>11.333333333333332</ele><time>2026-04-22T09:36:08.082Z</time></trkpt><trkpt lat="42.6972346" lon="11.1376489"><ele>11.666666666666666</ele><time>2026-04-22T09:36:09.088Z</time></trkpt><trkpt lat="42.6970137" lon="11.1376631"><ele>12.0</ele><time>2026-04-22T09:36:10.101Z</time></trkpt><trkpt lat="42.6967903" lon="11.1376724"><ele>12.333333333333332</ele><time>2026-04-22T09:36:11.092Z</time></trkpt><trkpt lat="42.6965668" lon="11.1376849"><ele>12.666666666666666</ele><time>2026-04-22T09:36:12.102Z</time></trkpt><trkpt lat="42.6963471" lon="11.1377011"><ele>13.0</ele><time>2026-04-22T09:36:13.09Z</time></trkpt><trkpt lat="42.6961285" lon="11.13772"><ele>12.0</ele><time>2026-04-22T09:36:14.067Z</time></trkpt><trkpt lat="42.6959038" lon="11.1377375"><ele>11.0</ele><time>2026-04-22T09:36:15.088Z</time></trkpt><trkpt lat="42.6956798" lon="11.1377525"><ele>10.0</ele><time>2026-04-22T09:36:16.096Z</time></trkpt><trkpt lat="42.6954543" lon="11.1377685"><ele>9.666666666666668</ele><time>2026-04-22T09:36:17.071Z</time></trkpt><trkpt lat="42.6952324" lon="11.1377887"><ele>9.333333333333334</ele><time>2026-04-22T09:36:18.082Z</time></trkpt><trkpt lat="42.6950081" lon="11.1378117"><ele>9.0</ele><time>2026-04-22T09:36:19.103Z</time></trkpt><trkpt lat="42.6947875" lon="11.1378272"><ele>9.0</ele><time>2026-04-22T09:36:20.082Z</time></trkpt><trkpt lat="42.6945625" lon="11.1378471"><ele>9.0</ele><time>2026-04-22T09:36:21.093Z</time></trkpt><trkpt lat="42.6943383" lon="11.137865"><ele>9.5</ele><time>2026-04-22T09:36:22.086Z</time></trkpt><trkpt lat="42.6941135" lon="11.1378791"><ele>10.0</ele><time>2026-04-22T09:36:23.097Z</time></trkpt><trkpt lat="42.6938885" lon="11.1379026"><ele>10.0</ele><time>2026-04-22T09:36:24.081Z</time></trkpt><trkpt lat="42.6936683" lon="11.137919"><ele>10.0</ele><time>2026-04-22T09:36:25.084Z</time></trkpt><trkpt lat="42.6934441" lon="11.1379401"><ele>10.0</ele><time>2026-04-22T09:36:26.06Z</time></trkpt><trkpt lat="42.6932179" lon="11.137957"><ele>9.333333333333334</ele><time>2026-04-22T09:36:27.095Z</time></trkpt><trkpt lat="42.6929981" lon="11.1379741"><ele>8.666666666666666</ele><time>2026-04-22T09:36:28.08Z</time></trkpt><trkpt lat="42.6927738" lon="11.1379934"><ele>8.0</ele><time>2026-04-22T09:36:29.081Z</time></trkpt><trkpt lat="42.6925528" lon="11.1380142"><ele>7.666666666666666</ele><time>2026-04-22T09:36:30.063Z</time></trkpt><trkpt lat="42.6923284" lon="11.1380304"><ele>7.333333333333334</ele><time>2026-04-22T09:36:31.085Z</time></trkpt><trkpt lat="42.6921056" lon="11.1380518"><ele>7.0</ele><time>2026-04-22T09:36:32.093Z</time></trkpt><trkpt lat="42.6918842" lon="11.1380785"><ele>7.0</ele><time>2026-04-22T09:36:33.082Z</time></trkpt><trkpt lat="42.6916612" lon="11.1381098"><ele>7.0</ele><time>2026-04-22T09:36:34.094Z</time></trkpt><trkpt lat="42.6914425" lon="11.1381367"><ele>7.0</ele><time>2026-04-22T09:36:35.091Z</time></trkpt><trkpt lat="42.6912184" lon="11.1381631"><ele>7.333333333333334</ele><time>2026-04-22T09:36:36.092Z</time></trkpt><trkpt lat="42.6909948" lon="11.1381874"><ele>7.666666666666666</ele><time>2026-04-22T09:36:37.088Z</time></trkpt><trkpt lat="42.6907712" lon="11.1382137"><ele>8.0</ele><time>2026-04-22T09:36:38.114Z</time></trkpt><trkpt lat="42.6905434" lon="11.1382391"><ele>8.0</ele><time>2026-04-22T09:36:39.051Z</time></trkpt><trkpt lat="42.690317" lon="11.1382747"><ele>8.0</ele><time>2026-04-22T09:36:40.083Z</time></trkpt><trkpt lat="42.6900889" lon="11.1383137"><ele>9.0</ele><time>2026-04-22T09:36:41.062Z</time></trkpt><trkpt lat="42.6898562" lon="11.1383571"><ele>10.0</ele><time>2026-04-22T09:36:42.102Z</time></trkpt><trkpt lat="42.6896257" lon="11.1383923"><ele>10.5</ele><time>2026-04-22T09:36:43.092Z</time></trkpt><trkpt lat="42.6893954" lon="11.1384379"><ele>11.0</ele><time>2026-04-22T09:36:44.094Z</time></trkpt><trkpt lat="42.6891603" lon="11.1384836"><ele>11.0</ele><time>2026-04-22T09:36:45.097Z</time></trkpt><trkpt lat="42.6889302" lon="11.1385328"><ele>11.0</ele><time>2026-04-22T09:36:46.092Z</time></trkpt><trkpt lat="42.688701" lon="11.1385808"><ele>11.0</ele><time>2026-04-22T09:36:47.079Z</time></trkpt><trkpt lat="42.6884702" lon="11.1386246"><ele>11.0</ele><time>2026-04-22T09:36:48.059Z</time></trkpt><trkpt lat="42.6882343" lon="11.138668"><ele>11.0</ele><time>2026-04-22T09:36:49.082Z</time></trkpt><trkpt lat="42.6879963" lon="11.1387136"><ele>11.0</ele><time>2026-04-22T09:36:50.08Z</time></trkpt><trkpt lat="42.6877552" lon="11.1387645"><ele>12.0</ele><time>2026-04-22T09:36:51.09Z</time></trkpt><trkpt lat="42.687516" lon="11.138813"><ele>13.0</ele><time>2026-04-22T09:36:52.089Z</time></trkpt><trkpt lat="42.6872797" lon="11.1388563"><ele>13.0</ele><time>2026-04-22T09:36:53.094Z</time></trkpt><trkpt lat="42.6870454" lon="11.1389034"><ele>13.0</ele><time>2026-04-22T09:36:54.088Z</time></trkpt><trkpt lat="42.6868099" lon="11.1389567"><ele>12.0</ele><time>2026-04-22T09:36:55.03Z</time></trkpt><trkpt lat="42.6865826" lon="11.1390023"><ele>11.0</ele><time>2026-04-22T09:36:56.07Z</time></trkpt><trkpt lat="42.6863495" lon="11.1390476"><ele>10.5</ele><time>2026-04-22T09:36:57.088Z</time></trkpt><trkpt lat="42.6861077" lon="11.1390891"><ele>10.0</ele><time>2026-04-22T09:36:58.091Z</time></trkpt><trkpt lat="42.6858687" lon="11.1391391"><ele>10.0</ele><time>2026-04-22T09:36:59.083Z</time></trkpt><trkpt lat="42.6856334" lon="11.1391839"><ele>10.0</ele><time>2026-04-22T09:37:00.078Z</time></trkpt><trkpt lat="42.6853978" lon="11.1392272"><ele>10.0</ele><time>2026-04-22T09:37:01.046Z</time></trkpt><trkpt lat="42.6851661" lon="11.1392701"><ele>10.0</ele><time>2026-04-22T09:37:02.084Z</time></trkpt><trkpt lat="42.6849348" lon="11.1393155"><ele>10.0</ele><time>2026-04-22T09:37:03.087Z</time></trkpt><trkpt lat="42.6846969" lon="11.13936"><ele>10.0</ele><time>2026-04-22T09:37:04.084Z</time></trkpt><trkpt lat="42.6844581" lon="11.1393966"><ele>9.0</ele><time>2026-04-22T09:37:05.095Z</time></trkpt><trkpt lat="42.6842265" lon="11.1394394"><ele>8.0</ele><time>2026-04-22T09:37:06.069Z</time></trkpt><trkpt lat="42.6839916" lon="11.1394778"><ele>8.0</ele><time>2026-04-22T09:37:07.043Z</time></trkpt><trkpt lat="42.6837533" lon="11.139526"><ele>8.0</ele><time>2026-04-22T09:37:08.036Z</time></trkpt><trkpt lat="42.6835151" lon="11.1395768"><ele>6.0</ele><time>2026-04-22T09:37:09.045Z</time></trkpt><trkpt lat="42.6832818" lon="11.1396245"><ele>4.0</ele><time>2026-04-22T09:37:10.086Z</time></trkpt><trkpt lat="42.6830437" lon="11.1396681"><ele>4.0</ele><time>2026-04-22T09:37:11.08Z</time></trkpt><trkpt lat="42.682814" lon="11.1397109"><ele>4.0</ele><time>2026-04-22T09:37:12.089Z</time></trkpt><trkpt lat="42.6825812" lon="11.139759"><ele>3.5</ele><time>2026-04-22T09:37:13.092Z</time></trkpt><trkpt lat="42.6823573" lon="11.1398026"><ele>3.0</ele><time>2026-04-22T09:37:14.091Z</time></trkpt><trkpt lat="42.6821339" lon="11.1398449"><ele>4.0</ele><time>2026-04-22T09:37:15.082Z</time></trkpt><trkpt lat="42.6819187" lon="11.1398882"><ele>5.0</ele><time>2026-04-22T09:37:16.098Z</time></trkpt><trkpt lat="42.6817109" lon="11.1399238"><ele>6.0</ele><time>2026-04-22T09:37:17.071Z</time></trkpt><trkpt lat="42.6815061" lon="11.1399601"><ele>6.0</ele><time>2026-04-22T09:37:18.075Z</time></trkpt><trkpt lat="42.681305" lon="11.1399982"><ele>6.0</ele><time>2026-04-22T09:37:19.084Z</time></trkpt><trkpt lat="42.6811007" lon="11.1400441"><ele>6.0</ele><time>2026-04-22T09:37:20.075Z</time></trkpt><trkpt lat="42.6809008" lon="11.1400858"><ele>6.333333333333334</ele><time>2026-04-22T09:37:21.079Z</time></trkpt><trkpt lat="42.6807002" lon="11.1401217"><ele>6.666666666666667</ele><time>2026-04-22T09:37:22.09Z</time></trkpt><trkpt lat="42.6804959" lon="11.1401611"><ele>7.0</ele><time>2026-04-22T09:37:23.085Z</time></trkpt><trkpt lat="42.680286" lon="11.1402034"><ele>7.333333333333334</ele><time>2026-04-22T09:37:24.074Z</time></trkpt><trkpt lat="42.6800745" lon="11.1402412"><ele>7.666666666666666</ele><time>2026-04-22T09:37:25.071Z</time></trkpt><trkpt lat="42.679861" lon="11.1402821"><ele>8.0</ele><time>2026-04-22T09:37:26.05Z</time></trkpt><trkpt lat="42.6796471" lon="11.1403198"><ele>8.333333333333332</ele><time>2026-04-22T09:37:27.058Z</time></trkpt><trkpt lat="42.6794326" lon="11.1403541"><ele>8.666666666666666</ele><time>2026-04-22T09:37:28.046Z</time></trkpt><trkpt lat="42.6792181" lon="11.1403937"><ele>9.0</ele><time>2026-04-22T09:37:29.09Z</time></trkpt><trkpt lat="42.6790076" lon="11.1404403"><ele>9.0</ele><time>2026-04-22T09:37:30.082Z</time></trkpt><trkpt lat="42.6788084" lon="11.1404792"><ele>9.0</ele><time>2026-04-22T09:37:31.077Z</time></trkpt><trkpt lat="42.6786084" lon="11.1405143"><ele>9.0</ele><time>2026-04-22T09:37:32.08Z</time></trkpt><trkpt lat="42.6784093" lon="11.1405486"><ele>8.666666666666666</ele><time>2026-04-22T09:37:33.089Z</time></trkpt><trkpt lat="42.6782121" lon="11.1405861"><ele>8.333333333333332</ele><time>2026-04-22T09:37:34.029Z</time></trkpt><trkpt lat="42.6780168" lon="11.1406235"><ele>8.0</ele><time>2026-04-22T09:37:35.101Z</time></trkpt><trkpt lat="42.6778171" lon="11.1406658"><ele>8.333333333333332</ele><time>2026-04-22T09:37:36.084Z</time></trkpt><trkpt lat="42.6776143" lon="11.1407053"><ele>8.666666666666666</ele><time>2026-04-22T09:37:37.058Z</time></trkpt><trkpt lat="42.67741" lon="11.1407465"><ele>9.0</ele><time>2026-04-22T09:37:38.083Z</time></trkpt><trkpt lat="42.6772049" lon="11.1407865"><ele>9.0</ele><time>2026-04-22T09:37:39.091Z</time></trkpt><trkpt lat="42.6770025" lon="11.1408187"><ele>9.0</ele><time>2026-04-22T09:37:40.085Z</time></trkpt><trkpt lat="42.6767943" lon="11.140855"><ele>9.0</ele><time>2026-04-22T09:37:41.093Z</time></trkpt><trkpt lat="42.6765808" lon="11.1408974"><ele>9.0</ele><time>2026-04-22T09:37:42.094Z</time></trkpt><trkpt lat="42.6763655" lon="11.1409409"><ele>9.0</ele><time>2026-04-22T09:37:43.088Z</time></trkpt><trkpt lat="42.6761509" lon="11.1409831"><ele>9.0</ele><time>2026-04-22T09:37:44.085Z</time></trkpt><trkpt lat="42.675937" lon="11.1410283"><ele>9.0</ele><time>2026-04-22T09:37:45.09Z</time></trkpt><trkpt lat="42.6757264" lon="11.1410667"><ele>9.0</ele><time>2026-04-22T09:37:46.086Z</time></trkpt><trkpt lat="42.6755227" lon="11.1410983"><ele>9.0</ele><time>2026-04-22T09:37:47.069Z</time></trkpt><trkpt lat="42.6753146" lon="11.1411367"><ele>9.333333333333334</ele><time>2026-04-22T09:37:48.066Z</time></trkpt><trkpt lat="42.6751079" lon="11.1411796"><ele>9.666666666666668</ele><time>2026-04-22T09:37:49.077Z</time></trkpt><trkpt lat="42.6749104" lon="11.1412179"><ele>10.0</ele><time>2026-04-22T09:37:50.09Z</time></trkpt><trkpt lat="42.6747085" lon="11.141261"><ele>10.0</ele><time>2026-04-22T09:37:51.095Z</time></trkpt><trkpt lat="42.6745133" lon="11.1413014"><ele>10.0</ele><time>2026-04-22T09:37:52.075Z</time></trkpt><trkpt lat="42.6743147" lon="11.1413408"><ele>10.0</ele><time>2026-04-22T09:37:53.078Z</time></trkpt><trkpt lat="42.6741163" lon="11.1413809"><ele>10.666666666666668</ele><time>2026-04-22T09:37:54.079Z</time></trkpt><trkpt lat="42.6739129" lon="11.1414173"><ele>11.333333333333334</ele><time>2026-04-22T09:37:55.092Z</time></trkpt><trkpt lat="42.6737054" lon="11.1414616"><ele>12.0</ele><time>2026-04-22T09:37:56.085Z</time></trkpt><trkpt lat="42.6735042" lon="11.1414978"><ele>12.666666666666668</ele><time>2026-04-22T09:37:57.078Z</time></trkpt><trkpt lat="42.6733016" lon="11.1415326"><ele>13.333333333333334</ele><time>2026-04-22T09:37:58.087Z</time></trkpt><trkpt lat="42.6730979" lon="11.1415752"><ele>14.0</ele><time>2026-04-22T09:37:59.076Z</time></trkpt><trkpt lat="42.6728945" lon="11.1416144"><ele>14.333333333333334</ele><time>2026-04-22T09:38:00.084Z</time></trkpt><trkpt lat="42.6726875" lon="11.1416546"><ele>14.666666666666668</ele><time>2026-04-22T09:38:01.047Z</time></trkpt><trkpt lat="42.6724764" lon="11.1416987"><ele>15.0</ele><time>2026-04-22T09:38:02.048Z</time></trkpt><trkpt lat="42.6722628" lon="11.1417359"><ele>15.0</ele><time>2026-04-22T09:38:03.095Z</time></trkpt><trkpt lat="42.6720457" lon="11.1417719"><ele>15.0</ele><time>2026-04-22T09:38:04.096Z</time></trkpt><trkpt lat="42.6718313" lon="11.1418142"><ele>15.0</ele><time>2026-04-22T09:38:05.095Z</time></trkpt><trkpt lat="42.6716154" lon="11.1418539"><ele>15.0</ele><time>2026-04-22T09:38:06.088Z</time></trkpt><trkpt lat="42.671405" lon="11.1418959"><ele>15.0</ele><time>2026-04-22T09:38:07.082Z</time></trkpt><trkpt lat="42.6711909" lon="11.1419381"><ele>15.0</ele><time>2026-04-22T09:38:08.091Z</time></trkpt><trkpt lat="42.6709771" lon="11.1419836"><ele>14.666666666666668</ele><time>2026-04-22T09:38:09.099Z</time></trkpt><trkpt lat="42.6707601" lon="11.1420257"><ele>14.333333333333334</ele><time>2026-04-22T09:38:10.075Z</time></trkpt><trkpt lat="42.6705432" lon="11.1420692"><ele>14.0</ele><time>2026-04-22T09:38:11.076Z</time></trkpt><trkpt lat="42.6703223" lon="11.1421083"><ele>14.333333333333334</ele><time>2026-04-22T09:38:12.094Z</time></trkpt><trkpt lat="42.670099" lon="11.1421506"><ele>14.666666666666668</ele><time>2026-04-22T09:38:13.083Z</time></trkpt><trkpt lat="42.6698851" lon="11.1421817"><ele>15.0</ele><time>2026-04-22T09:38:14.101Z</time></trkpt><trkpt lat="42.6696658" lon="11.1422076"><ele>15.666666666666668</ele><time>2026-04-22T09:38:15.111Z</time></trkpt><trkpt lat="42.66944" lon="11.1422247"><ele>16.333333333333336</ele><time>2026-04-22T09:38:16.078Z</time></trkpt><trkpt lat="42.6692189" lon="11.1422428"><ele>17.0</ele><time>2026-04-22T09:38:17.07Z</time></trkpt><trkpt lat="42.6689923" lon="11.142255"><ele>17.0</ele><time>2026-04-22T09:38:18.093Z</time></trkpt><trkpt lat="42.6687635" lon="11.1422547"><ele>17.0</ele><time>2026-04-22T09:38:19.085Z</time></trkpt><trkpt lat="42.6685303" lon="11.1422326"><ele>18.0</ele><time>2026-04-22T09:38:20.093Z</time></trkpt><trkpt lat="42.6682901" lon="11.1422104"><ele>19.0</ele><time>2026-04-22T09:38:21.091Z</time></trkpt><trkpt lat="42.6680535" lon="11.1421752"><ele>19.0</ele><time>2026-04-22T09:38:22.091Z</time></trkpt><trkpt lat="42.6678204" lon="11.1421303"><ele>19.0</ele><time>2026-04-22T09:38:23.081Z</time></trkpt><trkpt lat="42.6675901" lon="11.1420732"><ele>19.0</ele><time>2026-04-22T09:38:24.098Z</time></trkpt><trkpt lat="42.6673648" lon="11.1420035"><ele>19.0</ele><time>2026-04-22T09:38:25.096Z</time></trkpt><trkpt lat="42.6671389" lon="11.1419364"><ele>19.0</ele><time>2026-04-22T09:38:26.087Z</time></trkpt><trkpt lat="42.6669131" lon="11.1418692"><ele>19.0</ele><time>2026-04-22T09:38:27.08Z</time></trkpt><trkpt lat="42.6666812" lon="11.1418116"><ele>19.0</ele><time>2026-04-22T09:38:28.073Z</time></trkpt><trkpt lat="42.6664493" lon="11.1417569"><ele>19.0</ele><time>2026-04-22T09:38:29.089Z</time></trkpt><trkpt lat="42.6662162" lon="11.1417031"><ele>19.5</ele><time>2026-04-22T09:38:30.08Z</time></trkpt><trkpt lat="42.66599" lon="11.141643"><ele>20.0</ele><time>2026-04-22T09:38:31.09Z</time></trkpt><trkpt lat="42.66576" lon="11.1415849"><ele>20.0</ele><time>2026-04-22T09:38:32.083Z</time></trkpt><trkpt lat="42.6655239" lon="11.1415238"><ele>20.0</ele><time>2026-04-22T09:38:33.068Z</time></trkpt><trkpt lat="42.6652976" lon="11.141459"><ele>20.5</ele><time>2026-04-22T09:38:34.042Z</time></trkpt><trkpt lat="42.6650695" lon="11.1413953"><ele>21.0</ele><time>2026-04-22T09:38:35.065Z</time></trkpt><trkpt lat="42.6648424" lon="11.1413346"><ele>21.0</ele><time>2026-04-22T09:38:36.078Z</time></trkpt><trkpt lat="42.6646183" lon="11.14127"><ele>21.0</ele><time>2026-04-22T09:38:37.07Z</time></trkpt><trkpt lat="42.6643892" lon="11.1411996"><ele>20.5</ele><time>2026-04-22T09:38:38.089Z</time></trkpt><trkpt lat="42.6641597" lon="11.1411328"><ele>20.0</ele><time>2026-04-22T09:38:39.09Z</time></trkpt><trkpt lat="42.6639342" lon="11.1410705"><ele>20.0</ele><time>2026-04-22T09:38:40.095Z</time></trkpt><trkpt lat="42.6637053" lon="11.1410073"><ele>20.0</ele><time>2026-04-22T09:38:41.066Z</time></trkpt><trkpt lat="42.6634724" lon="11.1409543"><ele>19.5</ele><time>2026-04-22T09:38:42.093Z</time></trkpt><trkpt lat="42.6632424" lon="11.1408958"><ele>19.0</ele><time>2026-04-22T09:38:43.088Z</time></trkpt><trkpt lat="42.6630137" lon="11.1408405"><ele>19.0</ele><time>2026-04-22T09:38:44.094Z</time></trkpt><trkpt lat="42.6627845" lon="11.140781"><ele>19.0</ele><time>2026-04-22T09:38:45.086Z</time></trkpt><trkpt lat="42.6625576" lon="11.1407167"><ele>17.5</ele><time>2026-04-22T09:38:46.106Z</time></trkpt><trkpt lat="42.6623313" lon="11.1406521"><ele>16.0</ele><time>2026-04-22T09:38:47.087Z</time></trkpt><trkpt lat="42.6621057" lon="11.1405962"><ele>17.5</ele><time>2026-04-22T09:38:48.091Z</time></trkpt><trkpt lat="42.6618819" lon="11.1405321"><ele>19.0</ele><time>2026-04-22T09:38:49.054Z</time></trkpt><trkpt lat="42.6616576" lon="11.140466"><ele>19.0</ele><time>2026-04-22T09:38:50.091Z</time></trkpt><trkpt lat="42.6614277" lon="11.1404004"><ele>19.0</ele><time>2026-04-22T09:38:51.085Z</time></trkpt><trkpt lat="42.6612068" lon="11.1403477"><ele>19.333333333333332</ele><time>2026-04-22T09:38:52.063Z</time></trkpt><trkpt lat="42.6609942" lon="11.1402904"><ele>19.666666666666668</ele><time>2026-04-22T09:38:53.088Z</time></trkpt><trkpt lat="42.6607796" lon="11.1402288"><ele>20.0</ele><time>2026-04-22T09:38:54.099Z</time></trkpt><trkpt lat="42.6605672" lon="11.1401698"><ele>20.0</ele><time>2026-04-22T09:38:55.069Z</time></trkpt><trkpt lat="42.6603566" lon="11.1401156"><ele>20.0</ele><time>2026-04-22T09:38:56.055Z</time></trkpt><trkpt lat="42.6601438" lon="11.1400651"><ele>20.0</ele><time>2026-04-22T09:38:57.081Z</time></trkpt><trkpt lat="42.6599341" lon="11.1400113"><ele>19.333333333333336</ele><time>2026-04-22T09:38:58.066Z</time></trkpt><trkpt lat="42.6597261" lon="11.1399551"><ele>18.666666666666668</ele><time>2026-04-22T09:38:59.08Z</time></trkpt><trkpt lat="42.6595218" lon="11.1399028"><ele>18.0</ele><time>2026-04-22T09:39:00.068Z</time></trkpt><trkpt lat="42.6593155" lon="11.1398401"><ele>18.0</ele><time>2026-04-22T09:39:01.099Z</time></trkpt><trkpt lat="42.6591031" lon="11.1397869"><ele>18.0</ele><time>2026-04-22T09:39:02.089Z</time></trkpt><trkpt lat="42.6588932" lon="11.1397355"><ele>18.0</ele><time>2026-04-22T09:39:03.042Z</time></trkpt><trkpt lat="42.6586823" lon="11.1396832"><ele>18.333333333333332</ele><time>2026-04-22T09:39:04.079Z</time></trkpt><trkpt lat="42.6584721" lon="11.1396277"><ele>18.666666666666664</ele><time>2026-04-22T09:39:05.084Z</time></trkpt><trkpt lat="42.6582613" lon="11.1395729"><ele>19.0</ele><time>2026-04-22T09:39:06.097Z</time></trkpt><trkpt lat="42.6580507" lon="11.1395117"><ele>19.0</ele><time>2026-04-22T09:39:07.058Z</time></trkpt><trkpt lat="42.6578396" lon="11.1394554"><ele>19.0</ele><time>2026-04-22T09:39:08.079Z</time></trkpt><trkpt lat="42.6576322" lon="11.1394008"><ele>19.0</ele><time>2026-04-22T09:39:09.07Z</time></trkpt><trkpt lat="42.6574244" lon="11.1393481"><ele>19.0</ele><time>2026-04-22T09:39:10.086Z</time></trkpt><trkpt lat="42.6572192" lon="11.1392948"><ele>19.0</ele><time>2026-04-22T09:39:11.073Z</time></trkpt><trkpt lat="42.6570176" lon="11.1392482"><ele>19.0</ele><time>2026-04-22T09:39:12.082Z</time></trkpt><trkpt lat="42.6568114" lon="11.1391939"><ele>19.0</ele><time>2026-04-22T09:39:13.071Z</time></trkpt><trkpt lat="42.6566129" lon="11.1391361"><ele>19.0</ele><time>2026-04-22T09:39:14.083Z</time></trkpt><trkpt lat="42.656409" lon="11.1390834"><ele>19.0</ele><time>2026-04-22T09:39:15.091Z</time></trkpt><trkpt lat="42.6562089" lon="11.1390299"><ele>18.0</ele><time>2026-04-22T09:39:16.092Z</time></trkpt><trkpt lat="42.6560069" lon="11.1389747"><ele>17.0</ele><time>2026-04-22T09:39:17.08Z</time></trkpt><trkpt lat="42.6558031" lon="11.1389251"><ele>16.0</ele><time>2026-04-22T09:39:18.077Z</time></trkpt><trkpt lat="42.6556004" lon="11.1388678"><ele>16.0</ele><time>2026-04-22T09:39:19.086Z</time></trkpt><trkpt lat="42.6553925" lon="11.1388076"><ele>16.0</ele><time>2026-04-22T09:39:20.086Z</time></trkpt><trkpt lat="42.6551856" lon="11.1387466"><ele>16.0</ele><time>2026-04-22T09:39:21.083Z</time></trkpt><trkpt lat="42.6549758" lon="11.1386909"><ele>16.333333333333332</ele><time>2026-04-22T09:39:22.092Z</time></trkpt><trkpt lat="42.6547647" lon="11.1386381"><ele>16.666666666666668</ele><time>2026-04-22T09:39:23.067Z</time></trkpt><trkpt lat="42.6545522" lon="11.1385825"><ele>17.0</ele><time>2026-04-22T09:39:24.083Z</time></trkpt><trkpt lat="42.6543408" lon="11.1385185"><ele>17.333333333333336</ele><time>2026-04-22T09:39:25.09Z</time></trkpt><trkpt lat="42.6541304" lon="11.1384626"><ele>17.666666666666668</ele><time>2026-04-22T09:39:26.077Z</time></trkpt><trkpt lat="42.6539202" lon="11.1384103"><ele>18.0</ele><time>2026-04-22T09:39:27.085Z</time></trkpt><trkpt lat="42.6537044" lon="11.1383508"><ele>18.333333333333332</ele><time>2026-04-22T09:39:28.067Z</time></trkpt><trkpt lat="42.6534892" lon="11.1382884"><ele>18.666666666666664</ele><time>2026-04-22T09:39:29.079Z</time></trkpt><trkpt lat="42.6532754" lon="11.1382267"><ele>19.0</ele><time>2026-04-22T09:39:30.085Z</time></trkpt><trkpt lat="42.6530656" lon="11.1381822"><ele>19.333333333333332</ele><time>2026-04-22T09:39:31.061Z</time></trkpt><trkpt lat="42.6528579" lon="11.1381308"><ele>19.666666666666668</ele><time>2026-04-22T09:39:32.061Z</time></trkpt><trkpt lat="42.6526455" lon="11.1380755"><ele>20.0</ele><time>2026-04-22T09:39:33.085Z</time></trkpt><trkpt lat="42.6524326" lon="11.1380193"><ele>20.666666666666668</ele><time>2026-04-22T09:39:34.085Z</time></trkpt><trkpt lat="42.6522198" lon="11.1379605"><ele>21.333333333333332</ele><time>2026-04-22T09:39:35.083Z</time></trkpt><trkpt lat="42.6520064" lon="11.1379108"><ele>22.0</ele><time>2026-04-22T09:39:36.045Z</time></trkpt><trkpt lat="42.6517943" lon="11.1378538"><ele>22.0</ele><time>2026-04-22T09:39:37.077Z</time></trkpt><trkpt lat="42.6515795" lon="11.1377977"><ele>22.0</ele><time>2026-04-22T09:39:38.065Z</time></trkpt><trkpt lat="42.6513678" lon="11.1377474"><ele>22.0</ele><time>2026-04-22T09:39:39.077Z</time></trkpt><trkpt lat="42.6511541" lon="11.1376892"><ele>22.333333333333332</ele><time>2026-04-22T09:39:40.096Z</time></trkpt><trkpt lat="42.6509358" lon="11.1376291"><ele>22.666666666666668</ele><time>2026-04-22T09:39:41.078Z</time></trkpt><trkpt lat="42.6507178" lon="11.1375698"><ele>23.0</ele><time>2026-04-22T09:39:42.083Z</time></trkpt><trkpt lat="42.6505047" lon="11.1375134"><ele>22.333333333333336</ele><time>2026-04-22T09:39:43.081Z</time></trkpt><trkpt lat="42.6502911" lon="11.137457"><ele>21.666666666666668</ele><time>2026-04-22T09:39:44.078Z</time></trkpt><trkpt lat="42.6500764" lon="11.1373964"><ele>21.0</ele><time>2026-04-22T09:39:45.079Z</time></trkpt><trkpt lat="42.6498645" lon="11.1373377"><ele>21.0</ele><time>2026-04-22T09:39:46.059Z</time></trkpt><trkpt lat="42.6496522" lon="11.1372828"><ele>21.0</ele><time>2026-04-22T09:39:47.073Z</time></trkpt><trkpt lat="42.6494385" lon="11.137232"><ele>21.0</ele><time>2026-04-22T09:39:48.082Z</time></trkpt><trkpt lat="42.6492296" lon="11.1371764"><ele>21.0</ele><time>2026-04-22T09:39:49.075Z</time></trkpt><trkpt lat="42.6490187" lon="11.137126"><ele>21.0</ele><time>2026-04-22T09:39:50.094Z</time></trkpt><trkpt lat="42.6488084" lon="11.1370787"><ele>21.0</ele><time>2026-04-22T09:39:51.073Z</time></trkpt><trkpt lat="42.648598" lon="11.1370372"><ele>21.0</ele><time>2026-04-22T09:39:52.092Z</time></trkpt><trkpt lat="42.6483867" lon="11.1370047"><ele>21.0</ele><time>2026-04-22T09:39:53.093Z</time></trkpt><trkpt lat="42.6481731" lon="11.1369714"><ele>21.0</ele><time>2026-04-22T09:39:54.093Z</time></trkpt><trkpt lat="42.6479607" lon="11.1369416"><ele>20.666666666666668</ele><time>2026-04-22T09:39:55.041Z</time></trkpt><trkpt lat="42.6477418" lon="11.1369218"><ele>20.333333333333336</ele><time>2026-04-22T09:39:56.086Z</time></trkpt><trkpt lat="42.6475249" lon="11.1369002"><ele>20.0</ele><time>2026-04-22T09:39:57.082Z</time></trkpt><trkpt lat="42.6473064" lon="11.1368788"><ele>20.0</ele><time>2026-04-22T09:39:58.075Z</time></trkpt><trkpt lat="42.6470898" lon="11.1368572"><ele>20.0</ele><time>2026-04-22T09:39:59.081Z</time></trkpt><trkpt lat="42.6468741" lon="11.1368317"><ele>20.0</ele><time>2026-04-22T09:40:00.077Z</time></trkpt><trkpt lat="42.6466521" lon="11.1368016"><ele>19.666666666666668</ele><time>2026-04-22T09:40:01.063Z</time></trkpt><trkpt lat="42.646435" lon="11.1367777"><ele>19.333333333333332</ele><time>2026-04-22T09:40:02.089Z</time></trkpt><trkpt lat="42.6462163" lon="11.1367567"><ele>19.0</ele><time>2026-04-22T09:40:03.026Z</time></trkpt><trkpt lat="42.6459947" lon="11.1367355"><ele>19.0</ele><time>2026-04-22T09:40:04.047Z</time></trkpt><trkpt lat="42.6457685" lon="11.1367124"><ele>19.0</ele><time>2026-04-22T09:40:05.061Z</time></trkpt><trkpt lat="42.6455446" lon="11.1366923"><ele>19.0</ele><time>2026-04-22T09:40:06.098Z</time></trkpt><trkpt lat="42.6453227" lon="11.1366601"><ele>19.0</ele><time>2026-04-22T09:40:07.08Z</time></trkpt><trkpt lat="42.6450949" lon="11.1366197"><ele>19.0</ele><time>2026-04-22T09:40:08.096Z</time></trkpt><trkpt lat="42.644868" lon="11.1365705"><ele>19.0</ele><time>2026-04-22T09:40:09.086Z</time></trkpt><trkpt lat="42.6446506" lon="11.1365156"><ele>19.0</ele><time>2026-04-22T09:40:10.067Z</time></trkpt><trkpt lat="42.644434" lon="11.1364644"><ele>19.0</ele><time>2026-04-22T09:40:11.094Z</time></trkpt><trkpt lat="42.6442136" lon="11.1364097"><ele>19.0</ele><time>2026-04-22T09:40:12.1Z</time></trkpt><trkpt lat="42.6439909" lon="11.1363547"><ele>19.0</ele><time>2026-04-22T09:40:13.066Z</time></trkpt><trkpt lat="42.6437747" lon="11.1363011"><ele>19.0</ele><time>2026-04-22T09:40:14.085Z</time></trkpt><trkpt lat="42.6435604" lon="11.1362469"><ele>19.0</ele><time>2026-04-22T09:40:15.082Z</time></trkpt><trkpt lat="42.6433443" lon="11.1361875"><ele>19.333333333333332</ele><time>2026-04-22T09:40:16.09Z</time></trkpt><trkpt lat="42.6431295" lon="11.1361344"><ele>19.666666666666668</ele><time>2026-04-22T09:40:17.08Z</time></trkpt><trkpt lat="42.6429134" lon="11.1360786"><ele>20.0</ele><time>2026-04-22T09:40:18.066Z</time></trkpt><trkpt lat="42.6426966" lon="11.1360215"><ele>21.666666666666668</ele><time>2026-04-22T09:40:19.041Z</time></trkpt><trkpt lat="42.6424808" lon="11.1359608"><ele>23.333333333333336</ele><time>2026-04-22T09:40:20.051Z</time></trkpt><trkpt lat="42.6422664" lon="11.1359004"><ele>25.0</ele><time>2026-04-22T09:40:21.09Z</time></trkpt><trkpt lat="42.6420519" lon="11.1358456"><ele>24.333333333333336</ele><time>2026-04-22T09:40:22.051Z</time></trkpt><trkpt lat="42.6418363" lon="11.1357863"><ele>23.666666666666668</ele><time>2026-04-22T09:40:23.077Z</time></trkpt><trkpt lat="42.641622" lon="11.1357244"><ele>23.0</ele><time>2026-04-22T09:40:24.094Z</time></trkpt><trkpt lat="42.6414065" lon="11.1356604"><ele>23.0</ele><time>2026-04-22T09:40:25.086Z</time></trkpt><trkpt lat="42.6411892" lon="11.1355998"><ele>23.0</ele><time>2026-04-22T09:40:26.069Z</time></trkpt><trkpt lat="42.6409747" lon="11.1355447"><ele>23.0</ele><time>2026-04-22T09:40:27.062Z</time></trkpt><trkpt lat="42.6407662" lon="11.1354928"><ele>23.333333333333336</ele><time>2026-04-22T09:40:28.087Z</time></trkpt><trkpt lat="42.6405541" lon="11.1354389"><ele>23.666666666666668</ele><time>2026-04-22T09:40:29.076Z</time></trkpt><trkpt lat="42.6403388" lon="11.1353798"><ele>24.0</ele><time>2026-04-22T09:40:30.074Z</time></trkpt><trkpt lat="42.6401195" lon="11.135321"><ele>26.0</ele><time>2026-04-22T09:40:31.086Z</time></trkpt><trkpt lat="42.6398997" lon="11.135262"><ele>28.0</ele><time>2026-04-22T09:40:32.095Z</time></trkpt><trkpt lat="42.6396708" lon="11.1351978"><ele>27.5</ele><time>2026-04-22T09:40:33.094Z</time></trkpt><trkpt lat="42.6394442" lon="11.1351336"><ele>27.0</ele><time>2026-04-22T09:40:34.069Z</time></trkpt><trkpt lat="42.639216" lon="11.1350738"><ele>27.0</ele><time>2026-04-22T09:40:35.097Z</time></trkpt><trkpt lat="42.6389887" lon="11.1350234"><ele>27.0</ele><time>2026-04-22T09:40:36.085Z</time></trkpt><trkpt lat="42.6387585" lon="11.1349744"><ele>26.5</ele><time>2026-04-22T09:40:37.076Z</time></trkpt><trkpt lat="42.6385272" lon="11.1349358"><ele>26.0</ele><time>2026-04-22T09:40:38.086Z</time></trkpt><trkpt lat="42.6382937" lon="11.1349172"><ele>26.0</ele><time>2026-04-22T09:40:39.101Z</time></trkpt><trkpt lat="42.6380555" lon="11.1349243"><ele>26.0</ele><time>2026-04-22T09:40:40.088Z</time></trkpt><trkpt lat="42.63782" lon="11.134931"><ele>25.0</ele><time>2026-04-22T09:40:41.056Z</time></trkpt><trkpt lat="42.6375822" lon="11.134949"><ele>24.0</ele><time>2026-04-22T09:40:42.088Z</time></trkpt><trkpt lat="42.6373466" lon="11.1349827"><ele>24.0</ele><time>2026-04-22T09:40:43.085Z</time></trkpt><trkpt lat="42.6371148" lon="11.1350337"><ele>24.0</ele><time>2026-04-22T09:40:44.072Z</time></trkpt><trkpt lat="42.6368837" lon="11.1350939"><ele>23.5</ele><time>2026-04-22T09:40:45.077Z</time></trkpt><trkpt lat="42.6366528" lon="11.135168"><ele>23.0</ele><time>2026-04-22T09:40:46.083Z</time></trkpt><trkpt lat="42.6364266" lon="11.1352583"><ele>23.0</ele><time>2026-04-22T09:40:47.077Z</time></trkpt><trkpt lat="42.6362026" lon="11.1353551"><ele>23.0</ele><time>2026-04-22T09:40:48.086Z</time></trkpt><trkpt lat="42.6359841" lon="11.1354631"><ele>21.5</ele><time>2026-04-22T09:40:49.075Z</time></trkpt><trkpt lat="42.6357706" lon="11.1355734"><ele>20.0</ele><time>2026-04-22T09:40:50.079Z</time></trkpt><trkpt lat="42.6355506" lon="11.1356832"><ele>20.0</ele><time>2026-04-22T09:40:51.099Z</time></trkpt><trkpt lat="42.6353293" lon="11.1357874"><ele>20.0</ele><time>2026-04-22T09:40:52.103Z</time></trkpt><trkpt lat="42.6351106" lon="11.1358877"><ele>20.0</ele><time>2026-04-22T09:40:53.078Z</time></trkpt><trkpt lat="42.6348944" lon="11.1359959"><ele>20.0</ele><time>2026-04-22T09:40:54.07Z</time></trkpt><trkpt lat="42.6346789" lon="11.1361041"><ele>19.5</ele><time>2026-04-22T09:40:55.079Z</time></trkpt><trkpt lat="42.63446" lon="11.136208"><ele>19.0</ele><time>2026-04-22T09:40:56.061Z</time></trkpt><trkpt lat="42.6342487" lon="11.1363067"><ele>19.0</ele><time>2026-04-22T09:40:57.092Z</time></trkpt><trkpt lat="42.6340381" lon="11.1364087"><ele>19.0</ele><time>2026-04-22T09:40:58.089Z</time></trkpt><trkpt lat="42.6338266" lon="11.1365091"><ele>19.0</ele><time>2026-04-22T09:40:59.063Z</time></trkpt><trkpt lat="42.6336127" lon="11.1366051"><ele>19.0</ele><time>2026-04-22T09:41:00.089Z</time></trkpt><trkpt lat="42.6333941" lon="11.136711"><ele>19.0</ele><time>2026-04-22T09:41:01.09Z</time></trkpt><trkpt lat="42.6331753" lon="11.1368182"><ele>19.0</ele><time>2026-04-22T09:41:02.058Z</time></trkpt><trkpt lat="42.6329587" lon="11.136919"><ele>19.0</ele><time>2026-04-22T09:41:03.1Z</time></trkpt><trkpt lat="42.6327465" lon="11.1370285"><ele>17.5</ele><time>2026-04-22T09:41:04.071Z</time></trkpt><trkpt lat="42.6325257" lon="11.1371311"><ele>16.0</ele><time>2026-04-22T09:41:05.036Z</time></trkpt><trkpt lat="42.6323109" lon="11.1372384"><ele>16.0</ele><time>2026-04-22T09:41:06.063Z</time></trkpt><trkpt lat="42.6320939" lon="11.1373404"><ele>16.0</ele><time>2026-04-22T09:41:07.056Z</time></trkpt><trkpt lat="42.6318741" lon="11.1374513"><ele>17.0</ele><time>2026-04-22T09:41:08.053Z</time></trkpt><trkpt lat="42.6316581" lon="11.1375558"><ele>18.0</ele><time>2026-04-22T09:41:09.096Z</time></trkpt><trkpt lat="42.6314371" lon="11.1376667"><ele>18.0</ele><time>2026-04-22T09:41:10.083Z</time></trkpt><trkpt lat="42.6312215" lon="11.1377672"><ele>18.0</ele><time>2026-04-22T09:41:11.081Z</time></trkpt><trkpt lat="42.6310059" lon="11.1378732"><ele>18.0</ele><time>2026-04-22T09:41:12.079Z</time></trkpt><trkpt lat="42.6307925" lon="11.137971"><ele>18.0</ele><time>2026-04-22T09:41:13.099Z</time></trkpt><trkpt lat="42.6305745" lon="11.1380672"><ele>18.0</ele><time>2026-04-22T09:41:14.075Z</time></trkpt><trkpt lat="42.6303601" lon="11.1381699"><ele>18.0</ele><time>2026-04-22T09:41:15.094Z</time></trkpt><trkpt lat="42.6301494" lon="11.1382729"><ele>18.0</ele><time>2026-04-22T09:41:16.095Z</time></trkpt><trkpt lat="42.6299403" lon="11.13838"><ele>18.0</ele><time>2026-04-22T09:41:17.076Z</time></trkpt><trkpt lat="42.6297273" lon="11.13849"><ele>18.0</ele><time>2026-04-22T09:41:18.08Z</time></trkpt><trkpt lat="42.6295133" lon="11.138597"><ele>18.0</ele><time>2026-04-22T09:41:19.047Z</time></trkpt><trkpt lat="42.6293007" lon="11.138697"><ele>17.0</ele><time>2026-04-22T09:41:20.088Z</time></trkpt><trkpt lat="42.629089" lon="11.1388011"><ele>16.0</ele><time>2026-04-22T09:41:21.085Z</time></trkpt><trkpt lat="42.6288769" lon="11.1389105"><ele>16.0</ele><time>2026-04-22T09:41:22.099Z</time></trkpt><trkpt lat="42.6286626" lon="11.1390179"><ele>16.0</ele><time>2026-04-22T09:41:23.064Z</time></trkpt><trkpt lat="42.6284498" lon="11.1391222"><ele>17.333333333333332</ele><time>2026-04-22T09:41:24.088Z</time></trkpt><trkpt lat="42.6282381" lon="11.1392272"><ele>18.666666666666668</ele><time>2026-04-22T09:41:25.089Z</time></trkpt><trkpt lat="42.628028" lon="11.1393187"><ele>20.0</ele><time>2026-04-22T09:41:26.046Z</time></trkpt><trkpt lat="42.6278179" lon="11.1394188"><ele>18.0</ele><time>2026-04-22T09:41:27.092Z</time></trkpt><trkpt lat="42.627606" lon="11.1395161"><ele>16.0</ele><time>2026-04-22T09:41:28.083Z</time></trkpt><trkpt lat="42.6273944" lon="11.1396151"><ele>14.0</ele><time>2026-04-22T09:41:29.062Z</time></trkpt><trkpt lat="42.6271869" lon="11.1397149"><ele>14.0</ele><time>2026-04-22T09:41:30.079Z</time></trkpt><trkpt lat="42.6269788" lon="11.1398162"><ele>14.0</ele><time>2026-04-22T09:41:31.077Z</time></trkpt><trkpt lat="42.626772" lon="11.139917"><ele>14.0</ele><time>2026-04-22T09:41:32.094Z</time></trkpt><trkpt lat="42.6265661" lon="11.1400212"><ele>14.0</ele><time>2026-04-22T09:41:33.056Z</time></trkpt><trkpt lat="42.6263565" lon="11.1401195"><ele>14.0</ele><time>2026-04-22T09:41:34.087Z</time></trkpt><trkpt lat="42.6261443" lon="11.1402225"><ele>14.0</ele><time>2026-04-22T09:41:35.077Z</time></trkpt><trkpt lat="42.6259358" lon="11.1403233"><ele>13.666666666666668</ele><time>2026-04-22T09:41:36.091Z</time></trkpt><trkpt lat="42.6257248" lon="11.1404274"><ele>13.333333333333332</ele><time>2026-04-22T09:41:37.084Z</time></trkpt><trkpt lat="42.6255159" lon="11.1405335"><ele>13.0</ele><time>2026-04-22T09:41:38.095Z</time></trkpt><trkpt lat="42.6253042" lon="11.1406364"><ele>12.5</ele><time>2026-04-22T09:41:39.087Z</time></trkpt><trkpt lat="42.6250893" lon="11.1407441"><ele>12.0</ele><time>2026-04-22T09:41:40.085Z</time></trkpt><trkpt lat="42.624874" lon="11.1408426"><ele>12.0</ele><time>2026-04-22T09:41:41.081Z</time></trkpt><trkpt lat="42.6246616" lon="11.1409486"><ele>12.0</ele><time>2026-04-22T09:41:42.095Z</time></trkpt><trkpt lat="42.6244442" lon="11.1410559"><ele>12.5</ele><time>2026-04-22T09:41:43.09Z</time></trkpt><trkpt lat="42.6242208" lon="11.1411625"><ele>13.0</ele><time>2026-04-22T09:41:44.075Z</time></trkpt><trkpt lat="42.6239981" lon="11.1412691"><ele>13.0</ele><time>2026-04-22T09:41:45.077Z</time></trkpt><trkpt lat="42.6237802" lon="11.1413766"><ele>13.0</ele><time>2026-04-22T09:41:46.093Z</time></trkpt><trkpt lat="42.6235578" lon="11.1414828"><ele>12.5</ele><time>2026-04-22T09:41:47.076Z</time></trkpt><trkpt lat="42.623331" lon="11.1415909"><ele>12.0</ele><time>2026-04-22T09:41:48.079Z</time></trkpt><trkpt lat="42.6231143" lon="11.141695"><ele>12.0</ele><time>2026-04-22T09:41:49.067Z</time></trkpt><trkpt lat="42.6228909" lon="11.1417983"><ele>12.0</ele><time>2026-04-22T09:41:50.071Z</time></trkpt><trkpt lat="42.6226663" lon="11.1419072"><ele>11.0</ele><time>2026-04-22T09:41:51.037Z</time></trkpt><trkpt lat="42.6224447" lon="11.1420107"><ele>10.0</ele><time>2026-04-22T09:41:52.076Z</time></trkpt><trkpt lat="42.6222217" lon="11.1421162"><ele>10.0</ele><time>2026-04-22T09:41:53.089Z</time></trkpt><trkpt lat="42.6219976" lon="11.1422232"><ele>10.0</ele><time>2026-04-22T09:41:54.074Z</time></trkpt><trkpt lat="42.6217768" lon="11.1423346"><ele>11.0</ele><time>2026-04-22T09:41:55.081Z</time></trkpt><trkpt lat="42.621556" lon="11.1424443"><ele>12.0</ele><time>2026-04-22T09:41:56.079Z</time></trkpt><trkpt lat="42.6213303" lon="11.1425513"><ele>10.0</ele><time>2026-04-22T09:41:57.082Z</time></trkpt><trkpt lat="42.6211093" lon="11.1426598"><ele>8.0</ele><time>2026-04-22T09:41:58.081Z</time></trkpt><trkpt lat="42.6208852" lon="11.142764"><ele>8.0</ele><time>2026-04-22T09:41:59.096Z</time></trkpt><trkpt lat="42.6206605" lon="11.1428692"><ele>8.0</ele><time>2026-04-22T09:42:00.094Z</time></trkpt><trkpt lat="42.6204432" lon="11.1429681"><ele>8.5</ele><time>2026-04-22T09:42:01.089Z</time></trkpt><trkpt lat="42.6202219" lon="11.1430804"><ele>9.0</ele><time>2026-04-22T09:42:02.066Z</time></trkpt><trkpt lat="42.6199996" lon="11.1431892"><ele>10.5</ele><time>2026-04-22T09:42:03.095Z</time></trkpt><trkpt lat="42.6197807" lon="11.1432959"><ele>12.0</ele><time>2026-04-22T09:42:04.055Z</time></trkpt><trkpt lat="42.6195574" lon="11.1434063"><ele>10.0</ele><time>2026-04-22T09:42:05.105Z</time></trkpt><trkpt lat="42.6193348" lon="11.1435156"><ele>8.0</ele><time>2026-04-22T09:42:06.078Z</time></trkpt><trkpt lat="42.6191103" lon="11.1436287"><ele>8.0</ele><time>2026-04-22T09:42:07.03Z</time></trkpt><trkpt lat="42.6188878" lon="11.1437504"><ele>8.0</ele><time>2026-04-22T09:42:08.09Z</time></trkpt><trkpt lat="42.6186661" lon="11.1438686"><ele>7.5</ele><time>2026-04-22T09:42:09.033Z</time></trkpt><trkpt lat="42.6184459" lon="11.1439939"><ele>7.0</ele><time>2026-04-22T09:42:10.086Z</time></trkpt><trkpt lat="42.6182274" lon="11.1441135"><ele>7.0</ele><time>2026-04-22T09:42:11.059Z</time></trkpt><trkpt lat="42.618012" lon="11.1442357"><ele>7.0</ele><time>2026-04-22T09:42:12.066Z</time></trkpt><trkpt lat="42.6177964" lon="11.1443615"><ele>7.0</ele><time>2026-04-22T09:42:13.076Z</time></trkpt><trkpt lat="42.6175811" lon="11.1444923"><ele>7.0</ele><time>2026-04-22T09:42:14.053Z</time></trkpt><trkpt lat="42.6173708" lon="11.1446285"><ele>7.0</ele><time>2026-04-22T09:42:15.086Z</time></trkpt><trkpt lat="42.6171607" lon="11.1447643"><ele>7.0</ele><time>2026-04-22T09:42:16.079Z</time></trkpt><trkpt lat="42.6169479" lon="11.1449056"><ele>6.5</ele><time>2026-04-22T09:42:17.071Z</time></trkpt><trkpt lat="42.616735" lon="11.1450426"><ele>6.0</ele><time>2026-04-22T09:42:18.092Z</time></trkpt><trkpt lat="42.6165209" lon="11.1451824"><ele>6.0</ele><time>2026-04-22T09:42:19.089Z</time></trkpt><trkpt lat="42.6163053" lon="11.1453309"><ele>6.0</ele><time>2026-04-22T09:42:20.087Z</time></trkpt><trkpt lat="42.6160895" lon="11.1454913"><ele>6.0</ele><time>2026-04-22T09:42:21.084Z</time></trkpt><trkpt lat="42.615875" lon="11.1456513"><ele>6.0</ele><time>2026-04-22T09:42:22.077Z</time></trkpt><trkpt lat="42.6156572" lon="11.1458031"><ele>6.5</ele><time>2026-04-22T09:42:23.088Z</time></trkpt><trkpt lat="42.6154359" lon="11.1459589"><ele>7.0</ele><time>2026-04-22T09:42:24.088Z</time></trkpt><trkpt lat="42.6152158" lon="11.1461113"><ele>6.0</ele><time>2026-04-22T09:42:25.09Z</time></trkpt><trkpt lat="42.6149986" lon="11.1462667"><ele>5.0</ele><time>2026-04-22T09:42:26.059Z</time></trkpt><trkpt lat="42.6147827" lon="11.1464202"><ele>6.5</ele><time>2026-04-22T09:42:27.093Z</time></trkpt><trkpt lat="42.6145622" lon="11.1465713"><ele>8.0</ele><time>2026-04-22T09:42:28.091Z</time></trkpt><trkpt lat="42.6143441" lon="11.1467235"><ele>8.0</ele><time>2026-04-22T09:42:29.079Z</time></trkpt><trkpt lat="42.6141289" lon="11.1468769"><ele>8.0</ele><time>2026-04-22T09:42:30.072Z</time></trkpt><trkpt lat="42.6139114" lon="11.1470271"><ele>8.0</ele><time>2026-04-22T09:42:31.086Z</time></trkpt><trkpt lat="42.6136935" lon="11.147174"><ele>8.0</ele><time>2026-04-22T09:42:32.073Z</time></trkpt><trkpt lat="42.6134759" lon="11.147315"><ele>8.5</ele><time>2026-04-22T09:42:33.042Z</time></trkpt><trkpt lat="42.6132594" lon="11.1474476"><ele>9.0</ele><time>2026-04-22T09:42:34.086Z</time></trkpt><trkpt lat="42.6130442" lon="11.1475861"><ele>9.0</ele><time>2026-04-22T09:42:35.076Z</time></trkpt><trkpt lat="42.6128303" lon="11.1477211"><ele>9.0</ele><time>2026-04-22T09:42:36.084Z</time></trkpt><trkpt lat="42.6126187" lon="11.147857"><ele>7.5</ele><time>2026-04-22T09:42:37.06Z</time></trkpt><trkpt lat="42.6124048" lon="11.1479997"><ele>6.0</ele><time>2026-04-22T09:42:38.072Z</time></trkpt><trkpt lat="42.6121956" lon="11.1481409"><ele>6.0</ele><time>2026-04-22T09:42:39.079Z</time></trkpt><trkpt lat="42.6119925" lon="11.1482846"><ele>6.0</ele><time>2026-04-22T09:42:40.083Z</time></trkpt><trkpt lat="42.6117839" lon="11.1484356"><ele>5.5</ele><time>2026-04-22T09:42:41.103Z</time></trkpt><trkpt lat="42.6115735" lon="11.1485837"><ele>5.0</ele><time>2026-04-22T09:42:42.095Z</time></trkpt><trkpt lat="42.6113632" lon="11.148733"><ele>5.0</ele><time>2026-04-22T09:42:43.054Z</time></trkpt><trkpt lat="42.6111521" lon="11.1488749"><ele>5.0</ele><time>2026-04-22T09:42:44.089Z</time></trkpt><trkpt lat="42.6109427" lon="11.1490147"><ele>5.0</ele><time>2026-04-22T09:42:45.087Z</time></trkpt><trkpt lat="42.6107314" lon="11.1491555"><ele>5.0</ele><time>2026-04-22T09:42:46.077Z</time></trkpt><trkpt lat="42.6105215" lon="11.1492972"><ele>5.5</ele><time>2026-04-22T09:42:47.088Z</time></trkpt><trkpt lat="42.6103143" lon="11.149444"><ele>6.0</ele><time>2026-04-22T09:42:48.084Z</time></trkpt><trkpt lat="42.6101001" lon="11.1495947"><ele>6.0</ele><time>2026-04-22T09:42:49.067Z</time></trkpt><trkpt lat="42.609886" lon="11.1497391"><ele>6.0</ele><time>2026-04-22T09:42:50.073Z</time></trkpt><trkpt lat="42.6096758" lon="11.149882"><ele>6.0</ele><time>2026-04-22T09:42:51.081Z</time></trkpt><trkpt lat="42.6094659" lon="11.1500285"><ele>6.0</ele><time>2026-04-22T09:42:52.084Z</time></trkpt><trkpt lat="42.6092561" lon="11.1501739"><ele>6.0</ele><time>2026-04-22T09:42:53.087Z</time></trkpt><trkpt lat="42.6090451" lon="11.1503199"><ele>6.0</ele><time>2026-04-22T09:42:54.061Z</time></trkpt><trkpt lat="42.6088352" lon="11.1504629"><ele>6.0</ele><time>2026-04-22T09:42:55.076Z</time></trkpt><trkpt lat="42.608625" lon="11.1506124"><ele>6.0</ele><time>2026-04-22T09:42:56.08Z</time></trkpt><trkpt lat="42.6084175" lon="11.1507556"><ele>6.5</ele><time>2026-04-22T09:42:57.053Z</time></trkpt><trkpt lat="42.608209" lon="11.1508995"><ele>7.0</ele><time>2026-04-22T09:42:58.072Z</time></trkpt><trkpt lat="42.6079959" lon="11.1510453"><ele>6.5</ele><time>2026-04-22T09:42:59.058Z</time></trkpt><trkpt lat="42.6077865" lon="11.1511987"><ele>6.0</ele><time>2026-04-22T09:43:00.079Z</time></trkpt><trkpt lat="42.6075747" lon="11.1513484"><ele>6.0</ele><time>2026-04-22T09:43:01.07Z</time></trkpt><trkpt lat="42.6073635" lon="11.1514912"><ele>6.0</ele><time>2026-04-22T09:43:02.082Z</time></trkpt><trkpt lat="42.6071541" lon="11.1516255"><ele>6.0</ele><time>2026-04-22T09:43:03.089Z</time></trkpt><trkpt lat="42.6069464" lon="11.1517625"><ele>6.0</ele><time>2026-04-22T09:43:04.069Z</time></trkpt><trkpt lat="42.606734" lon="11.1519064"><ele>6.0</ele><time>2026-04-22T09:43:05.036Z</time></trkpt><trkpt lat="42.6065238" lon="11.1520441"><ele>6.0</ele><time>2026-04-22T09:43:06.028Z</time></trkpt><trkpt lat="42.6063104" lon="11.1521796"><ele>6.0</ele><time>2026-04-22T09:43:07.078Z</time></trkpt><trkpt lat="42.6060972" lon="11.1523132"><ele>6.0</ele><time>2026-04-22T09:43:08.08Z</time></trkpt><trkpt lat="42.6058796" lon="11.1524398"><ele>6.0</ele><time>2026-04-22T09:43:09.062Z</time></trkpt><trkpt lat="42.6056629" lon="11.1525634"><ele>6.0</ele><time>2026-04-22T09:43:10.039Z</time></trkpt><trkpt lat="42.6054422" lon="11.1526855"><ele>5.5</ele><time>2026-04-22T09:43:11.084Z</time></trkpt><trkpt lat="42.6052255" lon="11.1528037"><ele>5.0</ele><time>2026-04-22T09:43:12.043Z</time></trkpt><trkpt lat="42.6050059" lon="11.1529246"><ele>5.0</ele><time>2026-04-22T09:43:13.097Z</time></trkpt><trkpt lat="42.6047884" lon="11.1530393"><ele>5.0</ele><time>2026-04-22T09:43:14.099Z</time></trkpt><trkpt lat="42.6045758" lon="11.1531609"><ele>4.666666666666667</ele><time>2026-04-22T09:43:15.091Z</time></trkpt><trkpt lat="42.6043706" lon="11.1532723"><ele>4.333333333333333</ele><time>2026-04-22T09:43:16.078Z</time></trkpt><trkpt lat="42.604167" lon="11.1533865"><ele>4.0</ele><time>2026-04-22T09:43:17.079Z</time></trkpt><trkpt lat="42.6039627" lon="11.153496"><ele>4.0</ele><time>2026-04-22T09:43:18.102Z</time></trkpt><trkpt lat="42.6037591" lon="11.1536083"><ele>4.0</ele><time>2026-04-22T09:43:19.083Z</time></trkpt><trkpt lat="42.6035556" lon="11.1537198"><ele>4.0</ele><time>2026-04-22T09:43:20.066Z</time></trkpt><trkpt lat="42.6033534" lon="11.1538265"><ele>3.6666666666666665</ele><time>2026-04-22T09:43:21.049Z</time></trkpt><trkpt lat="42.6031537" lon="11.1539354"><ele>3.333333333333333</ele><time>2026-04-22T09:43:22.065Z</time></trkpt><trkpt lat="42.602951" lon="11.1540441"><ele>3.0</ele><time>2026-04-22T09:43:23.105Z</time></trkpt><trkpt lat="42.6027496" lon="11.15415"><ele>3.0</ele><time>2026-04-22T09:43:24.077Z</time></trkpt><trkpt lat="42.6025458" lon="11.1542601"><ele>3.0</ele><time>2026-04-22T09:43:25.09Z</time></trkpt><trkpt lat="42.6023416" lon="11.1543673"><ele>3.0</ele><time>2026-04-22T09:43:26.084Z</time></trkpt><trkpt lat="42.6021354" lon="11.1544768"><ele>2.6666666666666665</ele><time>2026-04-22T09:43:27.075Z</time></trkpt><trkpt lat="42.6019322" lon="11.1545891"><ele>2.333333333333333</ele><time>2026-04-22T09:43:28.072Z</time></trkpt><trkpt lat="42.6017277" lon="11.1546973"><ele>2.0</ele><time>2026-04-22T09:43:29.083Z</time></trkpt><trkpt lat="42.6015252" lon="11.1548025"><ele>2.0</ele><time>2026-04-22T09:43:30.084Z</time></trkpt><trkpt lat="42.6013211" lon="11.1549059"><ele>2.0</ele><time>2026-04-22T09:43:31.048Z</time></trkpt><trkpt lat="42.6011169" lon="11.1550137"><ele>2.0</ele><time>2026-04-22T09:43:32.086Z</time></trkpt><trkpt lat="42.6009165" lon="11.15512"><ele>2.0</ele><time>2026-04-22T09:43:33.071Z</time></trkpt><trkpt lat="42.600711" lon="11.1552237"><ele>2.0</ele><time>2026-04-22T09:43:34.059Z</time></trkpt><trkpt lat="42.6005069" lon="11.1553381"><ele>2.0</ele><time>2026-04-22T09:43:35.066Z</time></trkpt><trkpt lat="42.6003014" lon="11.1554438"><ele>2.0</ele><time>2026-04-22T09:43:36.094Z</time></trkpt><trkpt lat="42.6000955" lon="11.155551"><ele>2.0</ele><time>2026-04-22T09:43:37.084Z</time></trkpt><trkpt lat="42.5998887" lon="11.1556583"><ele>2.0</ele><time>2026-04-22T09:43:38.088Z</time></trkpt><trkpt lat="42.5996822" lon="11.1557657"><ele>2.333333333333333</ele><time>2026-04-22T09:43:39.082Z</time></trkpt><trkpt lat="42.5994917" lon="11.1558713"><ele>2.6666666666666665</ele><time>2026-04-22T09:43:40.078Z</time></trkpt><trkpt lat="42.5992976" lon="11.1559751"><ele>3.0</ele><time>2026-04-22T09:43:41.071Z</time></trkpt><trkpt lat="42.5991087" lon="11.1560752"><ele>3.0</ele><time>2026-04-22T09:43:42.101Z</time></trkpt><trkpt lat="42.5989134" lon="11.1561778"><ele>3.0</ele><time>2026-04-22T09:43:43.065Z</time></trkpt><trkpt lat="42.5987103" lon="11.1562837"><ele>3.0</ele><time>2026-04-22T09:43:44.083Z</time></trkpt><trkpt lat="42.5985038" lon="11.1563978"><ele>2.0</ele><time>2026-04-22T09:43:45.076Z</time></trkpt><trkpt lat="42.5983003" lon="11.1565083"><ele>1.0</ele><time>2026-04-22T09:43:46.074Z</time></trkpt><trkpt lat="42.5980937" lon="11.1566227"><ele>0.0</ele><time>2026-04-22T09:43:47.071Z</time></trkpt><trkpt lat="42.597888" lon="11.1567357"><ele>0.3333333333333333</ele><time>2026-04-22T09:43:48.078Z</time></trkpt><trkpt lat="42.5976853" lon="11.1568461"><ele>0.6666666666666666</ele><time>2026-04-22T09:43:49.074Z</time></trkpt><trkpt lat="42.5974844" lon="11.1569522"><ele>1.0</ele><time>2026-04-22T09:43:50.086Z</time></trkpt><trkpt lat="42.5972807" lon="11.1570641"><ele>1.0</ele><time>2026-04-22T09:43:51.082Z</time></trkpt><trkpt lat="42.5970807" lon="11.1571682"><ele>1.0</ele><time>2026-04-22T09:43:52.092Z</time></trkpt><trkpt lat="42.5968817" lon="11.1572649"><ele>1.0</ele><time>2026-04-22T09:43:53.103Z</time></trkpt><trkpt lat="42.5966794" lon="11.1573703"><ele>0.3333333333333333</ele><time>2026-04-22T09:43:54.092Z</time></trkpt><trkpt lat="42.5964782" lon="11.1574791"><ele>-0.3333333333333333</ele><time>2026-04-22T09:43:55.074Z</time></trkpt><trkpt lat="42.596274" lon="11.157585"><ele>-1.0</ele><time>2026-04-22T09:43:56.09Z</time></trkpt><trkpt lat="42.5960689" lon="11.1576961"><ele>-1.0</ele><time>2026-04-22T09:43:57.091Z</time></trkpt><trkpt lat="42.5958679" lon="11.1578014"><ele>-1.0</ele><time>2026-04-22T09:43:58.074Z</time></trkpt><trkpt lat="42.5956624" lon="11.1579105"><ele>-1.0</ele><time>2026-04-22T09:43:59.079Z</time></trkpt><trkpt lat="42.5954589" lon="11.1580131"><ele>-1.0</ele><time>2026-04-22T09:44:00.095Z</time></trkpt><trkpt lat="42.5952588" lon="11.1581213"><ele>-1.0</ele><time>2026-04-22T09:44:01.086Z</time></trkpt><trkpt lat="42.5950583" lon="11.1582318"><ele>-1.0</ele><time>2026-04-22T09:44:02.102Z</time></trkpt><trkpt lat="42.5948544" lon="11.158343"><ele>-1.0</ele><time>2026-04-22T09:44:03.074Z</time></trkpt><trkpt lat="42.5946493" lon="11.1584488"><ele>-1.0</ele><time>2026-04-22T09:44:04.08Z</time></trkpt><trkpt lat="42.594448" lon="11.1585552"><ele>-1.0</ele><time>2026-04-22T09:44:05.084Z</time></trkpt><trkpt lat="42.5942499" lon="11.1586589"><ele>-0.6666666666666666</ele><time>2026-04-22T09:44:06.036Z</time></trkpt><trkpt lat="42.5940485" lon="11.1587645"><ele>-0.3333333333333333</ele><time>2026-04-22T09:44:07.032Z</time></trkpt><trkpt lat="42.5938469" lon="11.1588643"><ele>0.0</ele><time>2026-04-22T09:44:08.076Z</time></trkpt><trkpt lat="42.5936382" lon="11.1589629"><ele>0.0</ele><time>2026-04-22T09:44:09.081Z</time></trkpt><trkpt lat="42.5934401" lon="11.1590627"><ele>0.0</ele><time>2026-04-22T09:44:10.079Z</time></trkpt><trkpt lat="42.5932354" lon="11.1591665"><ele>0.0</ele><time>2026-04-22T09:44:11.052Z</time></trkpt><trkpt lat="42.5930301" lon="11.1592683"><ele>-0.3333333333333333</ele><time>2026-04-22T09:44:12.081Z</time></trkpt><trkpt lat="42.5928276" lon="11.1593741"><ele>-0.6666666666666666</ele><time>2026-04-22T09:44:13.094Z</time></trkpt><trkpt lat="42.5926172" lon="11.1594836"><ele>-1.0</ele><time>2026-04-22T09:44:14.079Z</time></trkpt><trkpt lat="42.5924042" lon="11.1595891"><ele>-1.0</ele><time>2026-04-22T09:44:15.085Z</time></trkpt><trkpt lat="42.592194" lon="11.1597023"><ele>-1.0</ele><time>2026-04-22T09:44:16.079Z</time></trkpt><trkpt lat="42.5919824" lon="11.1598134"><ele>-1.0</ele><time>2026-04-22T09:44:17.073Z</time></trkpt><trkpt lat="42.5917713" lon="11.1599254"><ele>-1.0</ele><time>2026-04-22T09:44:18.091Z</time></trkpt><trkpt lat="42.5915601" lon="11.1600372"><ele>-1.0</ele><time>2026-04-22T09:44:19.087Z</time></trkpt><trkpt lat="42.5913481" lon="11.1601496"><ele>-1.0</ele><time>2026-04-22T09:44:20.065Z</time></trkpt><trkpt lat="42.5911343" lon="11.160262"><ele>-0.5</ele><time>2026-04-22T09:44:21.07Z</time></trkpt><trkpt lat="42.5909256" lon="11.1603752"><ele>0.0</ele><time>2026-04-22T09:44:22.098Z</time></trkpt><trkpt lat="42.5907152" lon="11.160489"><ele>0.0</ele><time>2026-04-22T09:44:23.078Z</time></trkpt><trkpt lat="42.590505" lon="11.1605991"><ele>0.0</ele><time>2026-04-22T09:44:24.088Z</time></trkpt><trkpt lat="42.5902956" lon="11.1607094"><ele>0.5</ele><time>2026-04-22T09:44:25.079Z</time></trkpt><trkpt lat="42.5900821" lon="11.1608206"><ele>1.0</ele><time>2026-04-22T09:44:26.044Z</time></trkpt><trkpt lat="42.5898724" lon="11.1609308"><ele>1.0</ele><time>2026-04-22T09:44:27.035Z</time></trkpt><trkpt lat="42.5896595" lon="11.1610409"><ele>1.0</ele><time>2026-04-22T09:44:28.059Z</time></trkpt><trkpt lat="42.589447" lon="11.1611502"><ele>0.5</ele><time>2026-04-22T09:44:29.06Z</time></trkpt><trkpt lat="42.5892315" lon="11.1612655"><ele>0.0</ele><time>2026-04-22T09:44:30.081Z</time></trkpt><trkpt lat="42.58902" lon="11.1613681"><ele>0.0</ele><time>2026-04-22T09:44:31.064Z</time></trkpt><trkpt lat="42.5888093" lon="11.161469"><ele>0.0</ele><time>2026-04-22T09:44:32.084Z</time></trkpt><trkpt lat="42.5885963" lon="11.1615585"><ele>0.0</ele><time>2026-04-22T09:44:33.09Z</time></trkpt><trkpt lat="42.5883817" lon="11.161654"><ele>0.0</ele><time>2026-04-22T09:44:34.078Z</time></trkpt><trkpt lat="42.5881659" lon="11.1617417"><ele>0.0</ele><time>2026-04-22T09:44:35.07Z</time></trkpt><trkpt lat="42.5879513" lon="11.1618338"><ele>0.5</ele><time>2026-04-22T09:44:36.074Z</time></trkpt><trkpt lat="42.5877356" lon="11.1619184"><ele>1.0</ele><time>2026-04-22T09:44:37.075Z</time></trkpt><trkpt lat="42.5875159" lon="11.1619961"><ele>1.0</ele><time>2026-04-22T09:44:38.075Z</time></trkpt><trkpt lat="42.5872946" lon="11.1620737"><ele>1.0</ele><time>2026-04-22T09:44:39.076Z</time></trkpt><trkpt lat="42.5870753" lon="11.1621464"><ele>0.5</ele><time>2026-04-22T09:44:40.068Z</time></trkpt><trkpt lat="42.5868551" lon="11.1622232"><ele>0.0</ele><time>2026-04-22T09:44:41.068Z</time></trkpt><trkpt lat="42.5866337" lon="11.1622955"><ele>0.0</ele><time>2026-04-22T09:44:42.091Z</time></trkpt><trkpt lat="42.5864147" lon="11.1623641"><ele>0.0</ele><time>2026-04-22T09:44:43.084Z</time></trkpt><trkpt lat="42.5861967" lon="11.1624274"><ele>0.0</ele><time>2026-04-22T09:44:44.08Z</time></trkpt><trkpt lat="42.5859768" lon="11.1624887"><ele>0.5</ele><time>2026-04-22T09:44:45.083Z</time></trkpt><trkpt lat="42.5857541" lon="11.1625553"><ele>1.0</ele><time>2026-04-22T09:44:46.083Z</time></trkpt><trkpt lat="42.585531" lon="11.1626174"><ele>1.0</ele><time>2026-04-22T09:44:47.084Z</time></trkpt><trkpt lat="42.5853126" lon="11.1626724"><ele>1.0</ele><time>2026-04-22T09:44:48.081Z</time></trkpt><trkpt lat="42.5850909" lon="11.1627343"><ele>1.0</ele><time>2026-04-22T09:44:49.086Z</time></trkpt><trkpt lat="42.5848673" lon="11.1627881"><ele>1.0</ele><time>2026-04-22T09:44:50.08Z</time></trkpt><trkpt lat="42.5846482" lon="11.1628492"><ele>1.0</ele><time>2026-04-22T09:44:51.086Z</time></trkpt><trkpt lat="42.5844267" lon="11.162916"><ele>1.0</ele><time>2026-04-22T09:44:52.085Z</time></trkpt><trkpt lat="42.5842072" lon="11.1629764"><ele>1.0</ele><time>2026-04-22T09:44:53.084Z</time></trkpt><trkpt lat="42.5839853" lon="11.1630402"><ele>1.0</ele><time>2026-04-22T09:44:54.106Z</time></trkpt><trkpt lat="42.5837706" lon="11.1631007"><ele>1.0</ele><time>2026-04-22T09:44:55.088Z</time></trkpt><trkpt lat="42.5835482" lon="11.1631605"><ele>1.0</ele><time>2026-04-22T09:44:56.095Z</time></trkpt><trkpt lat="42.5833242" lon="11.1632185"><ele>1.5</ele><time>2026-04-22T09:44:57.094Z</time></trkpt><trkpt lat="42.5831015" lon="11.1632821"><ele>2.0</ele><time>2026-04-22T09:44:58.096Z</time></trkpt><trkpt lat="42.5828803" lon="11.1633481"><ele>2.5</ele><time>2026-04-22T09:44:59.069Z</time></trkpt><trkpt lat="42.5826566" lon="11.1634144"><ele>3.0</ele><time>2026-04-22T09:45:00.091Z</time></trkpt><trkpt lat="42.5824358" lon="11.1634791"><ele>3.0</ele><time>2026-04-22T09:45:01.058Z</time></trkpt><trkpt lat="42.5822224" lon="11.1635562"><ele>3.0</ele><time>2026-04-22T09:45:02.091Z</time></trkpt><trkpt lat="42.5820056" lon="11.1636306"><ele>3.0</ele><time>2026-04-22T09:45:03.081Z</time></trkpt><trkpt lat="42.5817925" lon="11.1637104"><ele>2.5</ele><time>2026-04-22T09:45:04.068Z</time></trkpt><trkpt lat="42.5815756" lon="11.1637959"><ele>2.0</ele><time>2026-04-22T09:45:05.079Z</time></trkpt><trkpt lat="42.581354" lon="11.1638827"><ele>2.0</ele><time>2026-04-22T09:45:06.034Z</time></trkpt><trkpt lat="42.581135" lon="11.1639697"><ele>2.0</ele><time>2026-04-22T09:45:07.078Z</time></trkpt><trkpt lat="42.5809157" lon="11.1640554"><ele>2.5</ele><time>2026-04-22T09:45:08.094Z</time></trkpt><trkpt lat="42.5806963" lon="11.1641393"><ele>3.0</ele><time>2026-04-22T09:45:09.097Z</time></trkpt><trkpt lat="42.5804785" lon="11.164225"><ele>2.0</ele><time>2026-04-22T09:45:10.078Z</time></trkpt><trkpt lat="42.5802599" lon="11.1643081"><ele>1.0</ele><time>2026-04-22T09:45:11.088Z</time></trkpt><trkpt lat="42.580046" lon="11.1643992"><ele>1.0</ele><time>2026-04-22T09:45:12.086Z</time></trkpt><trkpt lat="42.5798297" lon="11.1644989"><ele>1.0</ele><time>2026-04-22T09:45:13.084Z</time></trkpt><trkpt lat="42.5796131" lon="11.164584"><ele>0.5</ele><time>2026-04-22T09:45:14.091Z</time></trkpt><trkpt lat="42.5793918" lon="11.1646743"><ele>0.0</ele><time>2026-04-22T09:45:15.083Z</time></trkpt><trkpt lat="42.5791746" lon="11.1647577"><ele>0.0</ele><time>2026-04-22T09:45:16.081Z</time></trkpt><trkpt lat="42.5789627" lon="11.164844"><ele>0.0</ele><time>2026-04-22T09:45:17.083Z</time></trkpt><trkpt lat="42.5787459" lon="11.1649302"><ele>0.0</ele><time>2026-04-22T09:45:18.087Z</time></trkpt><trkpt lat="42.5785305" lon="11.165019"><ele>-0.5</ele><time>2026-04-22T09:45:19.075Z</time></trkpt><trkpt lat="42.5783108" lon="11.1651097"><ele>-1.0</ele><time>2026-04-22T09:45:20.084Z</time></trkpt><trkpt lat="42.5780917" lon="11.165202"><ele>-1.0</ele><time>2026-04-22T09:45:21.086Z</time></trkpt><trkpt lat="42.5778778" lon="11.1652957"><ele>-1.0</ele><time>2026-04-22T09:45:22.086Z</time></trkpt><trkpt lat="42.5776586" lon="11.1653781"><ele>-1.0</ele><time>2026-04-22T09:45:23.077Z</time></trkpt><trkpt lat="42.5774458" lon="11.1654575"><ele>-1.0</ele><time>2026-04-22T09:45:24.091Z</time></trkpt><trkpt lat="42.5772299" lon="11.1655437"><ele>-1.0</ele><time>2026-04-22T09:45:25.092Z</time></trkpt><trkpt lat="42.5770118" lon="11.1656319"><ele>0.0</ele><time>2026-04-22T09:45:26.074Z</time></trkpt><trkpt lat="42.5767935" lon="11.1657117"><ele>1.0</ele><time>2026-04-22T09:45:27.1Z</time></trkpt><trkpt lat="42.5765784" lon="11.1657923"><ele>2.0</ele><time>2026-04-22T09:45:28.078Z</time></trkpt><trkpt lat="42.5763697" lon="11.165878"><ele>2.0</ele><time>2026-04-22T09:45:29.079Z</time></trkpt><trkpt lat="42.5761533" lon="11.165969"><ele>2.0</ele><time>2026-04-22T09:45:30.089Z</time></trkpt><trkpt lat="42.5759386" lon="11.1660598"><ele>2.0</ele><time>2026-04-22T09:45:31.079Z</time></trkpt><trkpt lat="42.5757199" lon="11.1661438"><ele>2.0</ele><time>2026-04-22T09:45:32.088Z</time></trkpt><trkpt lat="42.575499" lon="11.166236"><ele>1.5</ele><time>2026-04-22T09:45:33.083Z</time></trkpt><trkpt lat="42.5752827" lon="11.1663195"><ele>1.0</ele><time>2026-04-22T09:45:34.1Z</time></trkpt><trkpt lat="42.5750611" lon="11.1664056"><ele>1.0</ele><time>2026-04-22T09:45:35.079Z</time></trkpt><trkpt lat="42.5748445" lon="11.1664914"><ele>1.0</ele><time>2026-04-22T09:45:36.092Z</time></trkpt><trkpt lat="42.5746282" lon="11.1665778"><ele>1.6666666666666665</ele><time>2026-04-22T09:45:37.09Z</time></trkpt><trkpt lat="42.5744126" lon="11.1666628"><ele>2.3333333333333335</ele><time>2026-04-22T09:45:38.097Z</time></trkpt><trkpt lat="42.5741978" lon="11.1667535"><ele>3.0</ele><time>2026-04-22T09:45:39.087Z</time></trkpt><trkpt lat="42.5739834" lon="11.1668385"><ele>3.0</ele><time>2026-04-22T09:45:40.079Z</time></trkpt><trkpt lat="42.573767" lon="11.166928"><ele>3.0</ele><time>2026-04-22T09:45:41.089Z</time></trkpt><trkpt lat="42.5735518" lon="11.1670172"><ele>2.5</ele><time>2026-04-22T09:45:42.066Z</time></trkpt><trkpt lat="42.5733317" lon="11.1671052"><ele>2.0</ele><time>2026-04-22T09:45:43.085Z</time></trkpt><trkpt lat="42.5731179" lon="11.1671898"><ele>2.0</ele><time>2026-04-22T09:45:44.092Z</time></trkpt><trkpt lat="42.5728963" lon="11.1672766"><ele>2.0</ele><time>2026-04-22T09:45:45.075Z</time></trkpt><trkpt lat="42.572681" lon="11.167366"><ele>1.5</ele><time>2026-04-22T09:45:46.092Z</time></trkpt><trkpt lat="42.5724665" lon="11.1674554"><ele>1.0</ele><time>2026-04-22T09:45:47.06Z</time></trkpt><trkpt lat="42.5722491" lon="11.1675439"><ele>1.0</ele><time>2026-04-22T09:45:48.071Z</time></trkpt><trkpt lat="42.5720315" lon="11.1676356"><ele>1.0</ele><time>2026-04-22T09:45:49.051Z</time></trkpt><trkpt lat="42.5718182" lon="11.1677275"><ele>2.5</ele><time>2026-04-22T09:45:50.076Z</time></trkpt><trkpt lat="42.5716028" lon="11.1678169"><ele>4.0</ele><time>2026-04-22T09:45:51.074Z</time></trkpt><trkpt lat="42.5713855" lon="11.167906"><ele>4.0</ele><time>2026-04-22T09:45:52.083Z</time></trkpt><trkpt lat="42.5711753" lon="11.1680016"><ele>4.0</ele><time>2026-04-22T09:45:53.062Z</time></trkpt><trkpt lat="42.570973" lon="11.1681214"><ele>4.0</ele><time>2026-04-22T09:45:54.095Z</time></trkpt><trkpt lat="42.5707689" lon="11.1682508"><ele>4.0</ele><time>2026-04-22T09:45:55.086Z</time></trkpt><trkpt lat="42.5705743" lon="11.1683893"><ele>4.0</ele><time>2026-04-22T09:45:56.093Z</time></trkpt><trkpt lat="42.570393" lon="11.1685293"><ele>4.0</ele><time>2026-04-22T09:45:57.084Z</time></trkpt><trkpt lat="42.570213" lon="11.1686732"><ele>4.0</ele><time>2026-04-22T09:45:58.079Z</time></trkpt><trkpt lat="42.5700407" lon="11.1688224"><ele>4.0</ele><time>2026-04-22T09:45:59.056Z</time></trkpt><trkpt lat="42.5698761" lon="11.1689822"><ele>4.0</ele><time>2026-04-22T09:46:00.112Z</time></trkpt><trkpt lat="42.5697135" lon="11.169156"><ele>4.0</ele><time>2026-04-22T09:46:01.069Z</time></trkpt><trkpt lat="42.569549" lon="11.16935"><ele>4.0</ele><time>2026-04-22T09:46:02.076Z</time></trkpt><trkpt lat="42.569385" lon="11.1695521"><ele>4.0</ele><time>2026-04-22T09:46:03.093Z</time></trkpt><trkpt lat="42.5692203" lon="11.1697661"><ele>5.666666666666666</ele><time>2026-04-22T09:46:04.053Z</time></trkpt><trkpt lat="42.5690586" lon="11.1699766"><ele>7.333333333333333</ele><time>2026-04-22T09:46:05.05Z</time></trkpt><trkpt lat="42.568895" lon="11.1701855"><ele>9.0</ele><time>2026-04-22T09:46:06.062Z</time></trkpt><trkpt lat="42.5687375" lon="11.1703868"><ele>11.333333333333332</ele><time>2026-04-22T09:46:07.074Z</time></trkpt><trkpt lat="42.5685754" lon="11.170594"><ele>13.666666666666666</ele><time>2026-04-22T09:46:08.051Z</time></trkpt><trkpt lat="42.5684124" lon="11.1708022"><ele>16.0</ele><time>2026-04-22T09:46:09.093Z</time></trkpt><trkpt lat="42.5682504" lon="11.1710055"><ele>16.5</ele><time>2026-04-22T09:46:10.076Z</time></trkpt><trkpt lat="42.5680848" lon="11.1712063"><ele>17.0</ele><time>2026-04-22T09:46:11.084Z</time></trkpt><trkpt lat="42.5679121" lon="11.1714088"><ele>19.0</ele><time>2026-04-22T09:46:12.076Z</time></trkpt><trkpt lat="42.5677382" lon="11.1715937"><ele>21.0</ele><time>2026-04-22T09:46:13.071Z</time></trkpt><trkpt lat="42.5675499" lon="11.171767"><ele>23.0</ele><time>2026-04-22T09:46:14.077Z</time></trkpt><trkpt lat="42.5673633" lon="11.1719212"><ele>23.0</ele><time>2026-04-22T09:46:15.077Z</time></trkpt><trkpt lat="42.5671718" lon="11.1720606"><ele>23.0</ele><time>2026-04-22T09:46:16.082Z</time></trkpt><trkpt lat="42.5669746" lon="11.1721895"><ele>23.0</ele><time>2026-04-22T09:46:17.078Z</time></trkpt><trkpt lat="42.5667726" lon="11.1723142"><ele>22.333333333333336</ele><time>2026-04-22T09:46:18.096Z</time></trkpt><trkpt lat="42.5665651" lon="11.1724188"><ele>21.666666666666668</ele><time>2026-04-22T09:46:19.08Z</time></trkpt><trkpt lat="42.5663555" lon="11.1725073"><ele>21.0</ele><time>2026-04-22T09:46:20.084Z</time></trkpt><trkpt lat="42.5661402" lon="11.1725861"><ele>21.0</ele><time>2026-04-22T09:46:21.068Z</time></trkpt><trkpt lat="42.5659265" lon="11.1726598"><ele>21.0</ele><time>2026-04-22T09:46:22.071Z</time></trkpt><trkpt lat="42.5657097" lon="11.172743"><ele>21.0</ele><time>2026-04-22T09:46:23.093Z</time></trkpt><trkpt lat="42.5654977" lon="11.1728339"><ele>22.333333333333336</ele><time>2026-04-22T09:46:24.096Z</time></trkpt><trkpt lat="42.5652902" lon="11.1729219"><ele>23.666666666666668</ele><time>2026-04-22T09:46:25.104Z</time></trkpt><trkpt lat="42.5650809" lon="11.1730051"><ele>25.0</ele><time>2026-04-22T09:46:26.058Z</time></trkpt><trkpt lat="42.5648609" lon="11.1730935"><ele>25.0</ele><time>2026-04-22T09:46:27.097Z</time></trkpt><trkpt lat="42.5646363" lon="11.1731778"><ele>25.0</ele><time>2026-04-22T09:46:28.061Z</time></trkpt><trkpt lat="42.5644187" lon="11.1732645"><ele>26.666666666666668</ele><time>2026-04-22T09:46:29.094Z</time></trkpt><trkpt lat="42.5641974" lon="11.1733322"><ele>28.333333333333336</ele><time>2026-04-22T09:46:30.038Z</time></trkpt><trkpt lat="42.5639778" lon="11.1733794"><ele>30.0</ele><time>2026-04-22T09:46:31.042Z</time></trkpt><trkpt lat="42.5637529" lon="11.1734089"><ele>30.333333333333336</ele><time>2026-04-22T09:46:32.08Z</time></trkpt><trkpt lat="42.5635277" lon="11.1734341"><ele>30.666666666666668</ele><time>2026-04-22T09:46:33.087Z</time></trkpt><trkpt lat="42.5633046" lon="11.1734342"><ele>31.0</ele><time>2026-04-22T09:46:34.086Z</time></trkpt><trkpt lat="42.5630744" lon="11.1734226"><ele>30.5</ele><time>2026-04-22T09:46:35.074Z</time></trkpt><trkpt lat="42.562845" lon="11.1733906"><ele>30.0</ele><time>2026-04-22T09:46:36.049Z</time></trkpt><trkpt lat="42.5626196" lon="11.1733432"><ele>30.0</ele><time>2026-04-22T09:46:37.071Z</time></trkpt><trkpt lat="42.5623981" lon="11.1732731"><ele>30.0</ele><time>2026-04-22T09:46:38.075Z</time></trkpt><trkpt lat="42.5621751" lon="11.1731932"><ele>25.5</ele><time>2026-04-22T09:46:39.062Z</time></trkpt><trkpt lat="42.5619606" lon="11.1730899"><ele>21.0</ele><time>2026-04-22T09:46:40.058Z</time></trkpt><trkpt lat="42.5617458" lon="11.1729838"><ele>21.0</ele><time>2026-04-22T09:46:41.084Z</time></trkpt><trkpt lat="42.5615331" lon="11.1728785"><ele>21.0</ele><time>2026-04-22T09:46:42.074Z</time></trkpt><trkpt lat="42.5613174" lon="11.1727696"><ele>23.5</ele><time>2026-04-22T09:46:43.075Z</time></trkpt><trkpt lat="42.5611002" lon="11.1726662"><ele>26.0</ele><time>2026-04-22T09:46:44.085Z</time></trkpt><trkpt lat="42.5608865" lon="11.1725606"><ele>26.0</ele><time>2026-04-22T09:46:45.086Z</time></trkpt><trkpt lat="42.5606718" lon="11.1724539"><ele>26.0</ele><time>2026-04-22T09:46:46.071Z</time></trkpt><trkpt lat="42.5604557" lon="11.172352"><ele>21.5</ele><time>2026-04-22T09:46:47.081Z</time></trkpt><trkpt lat="42.5602377" lon="11.1722504"><ele>17.0</ele><time>2026-04-22T09:46:48.085Z</time></trkpt><trkpt lat="42.5600203" lon="11.1721395"><ele>17.0</ele><time>2026-04-22T09:46:49.09Z</time></trkpt><trkpt lat="42.5598052" lon="11.1720341"><ele>17.0</ele><time>2026-04-22T09:46:50.073Z</time></trkpt><trkpt lat="42.5595902" lon="11.1719294"><ele>21.5</ele><time>2026-04-22T09:46:51.089Z</time></trkpt><trkpt lat="42.5593738" lon="11.1718279"><ele>26.0</ele><time>2026-04-22T09:46:52.081Z</time></trkpt><trkpt lat="42.5591603" lon="11.1717233"><ele>26.0</ele><time>2026-04-22T09:46:53.047Z</time></trkpt><trkpt lat="42.5589448" lon="11.1716192"><ele>26.0</ele><time>2026-04-22T09:46:54.07Z</time></trkpt><trkpt lat="42.5587303" lon="11.1715138"><ele>20.0</ele><time>2026-04-22T09:46:55.072Z</time></trkpt><trkpt lat="42.5585153" lon="11.1714081"><ele>14.0</ele><time>2026-04-22T09:46:56.089Z</time></trkpt><trkpt lat="42.5582975" lon="11.1713085"><ele>14.0</ele><time>2026-04-22T09:46:57.085Z</time></trkpt><trkpt lat="42.5580784" lon="11.1712096"><ele>14.0</ele><time>2026-04-22T09:46:58.078Z</time></trkpt><trkpt lat="42.55786" lon="11.1711269"><ele>16.0</ele><time>2026-04-22T09:46:59.082Z</time></trkpt><trkpt lat="42.5576395" lon="11.1710676"><ele>18.0</ele><time>2026-04-22T09:47:00.082Z</time></trkpt><trkpt lat="42.5574113" lon="11.1710338"><ele>18.0</ele><time>2026-04-22T09:47:01.08Z</time></trkpt><trkpt lat="42.5571884" lon="11.1710077"><ele>18.0</ele><time>2026-04-22T09:47:02.085Z</time></trkpt><trkpt lat="42.5569602" lon="11.1709935"><ele>18.5</ele><time>2026-04-22T09:47:03.086Z</time></trkpt><trkpt lat="42.5567338" lon="11.1710036"><ele>19.0</ele><time>2026-04-22T09:47:04.089Z</time></trkpt><trkpt lat="42.5565028" lon="11.1710356"><ele>19.0</ele><time>2026-04-22T09:47:05.104Z</time></trkpt><trkpt lat="42.5562742" lon="11.1710835"><ele>19.0</ele><time>2026-04-22T09:47:06.076Z</time></trkpt><trkpt lat="42.5560503" lon="11.1711454"><ele>20.0</ele><time>2026-04-22T09:47:07.051Z</time></trkpt><trkpt lat="42.55583" lon="11.1712343"><ele>21.0</ele><time>2026-04-22T09:47:08.072Z</time></trkpt><trkpt lat="42.5556138" lon="11.171331"><ele>21.0</ele><time>2026-04-22T09:47:09.063Z</time></trkpt><trkpt lat="42.5553985" lon="11.1714506"><ele>21.0</ele><time>2026-04-22T09:47:10.1Z</time></trkpt><trkpt lat="42.5551832" lon="11.1715732"><ele>17.5</ele><time>2026-04-22T09:47:11.049Z</time></trkpt><trkpt lat="42.5549618" lon="11.1716995"><ele>14.0</ele><time>2026-04-22T09:47:12.079Z</time></trkpt><trkpt lat="42.5547441" lon="11.1718274"><ele>17.5</ele><time>2026-04-22T09:47:13.091Z</time></trkpt><trkpt lat="42.5545291" lon="11.1719465"><ele>21.0</ele><time>2026-04-22T09:47:14.031Z</time></trkpt><trkpt lat="42.5543146" lon="11.1720649"><ele>21.0</ele><time>2026-04-22T09:47:15.066Z</time></trkpt><trkpt lat="42.5541026" lon="11.1721778"><ele>21.0</ele><time>2026-04-22T09:47:16.079Z</time></trkpt><trkpt lat="42.5538893" lon="11.1722998"><ele>17.5</ele><time>2026-04-22T09:47:17.051Z</time></trkpt><trkpt lat="42.5536743" lon="11.1724191"><ele>14.0</ele><time>2026-04-22T09:47:18.082Z</time></trkpt><trkpt lat="42.5534564" lon="11.1725422"><ele>14.0</ele><time>2026-04-22T09:47:19.077Z</time></trkpt><trkpt lat="42.553244" lon="11.1726577"><ele>14.0</ele><time>2026-04-22T09:47:20.069Z</time></trkpt><trkpt lat="42.5530328" lon="11.1727795"><ele>18.0</ele><time>2026-04-22T09:47:21.084Z</time></trkpt><trkpt lat="42.5528222" lon="11.1728968"><ele>22.0</ele><time>2026-04-22T09:47:22.081Z</time></trkpt><trkpt lat="42.5526051" lon="11.1730148"><ele>22.0</ele><time>2026-04-22T09:47:23.07Z</time></trkpt><trkpt lat="42.5523901" lon="11.1731337"><ele>22.0</ele><time>2026-04-22T09:47:24.09Z</time></trkpt><trkpt lat="42.5521684" lon="11.1732462"><ele>14.0</ele><time>2026-04-22T09:47:25.061Z</time></trkpt><trkpt lat="42.5519428" lon="11.1733484"><ele>6.0</ele><time>2026-04-22T09:47:26.091Z</time></trkpt><trkpt lat="42.5517101" lon="11.1734308"><ele>6.0</ele><time>2026-04-22T09:47:27.076Z</time></trkpt><trkpt lat="42.5514835" lon="11.1735161"><ele>6.0</ele><time>2026-04-22T09:47:28.079Z</time></trkpt><trkpt lat="42.5512508" lon="11.1735946"><ele>5.0</ele><time>2026-04-22T09:47:29.08Z</time></trkpt><trkpt lat="42.55102" lon="11.1736728"><ele>4.0</ele><time>2026-04-22T09:47:30.089Z</time></trkpt><trkpt lat="42.5507921" lon="11.1737502"><ele>4.0</ele><time>2026-04-22T09:47:31.091Z</time></trkpt><trkpt lat="42.5505698" lon="11.1738271"><ele>4.0</ele><time>2026-04-22T09:47:32.054Z</time></trkpt><trkpt lat="42.5503502" lon="11.1739081"><ele>4.0</ele><time>2026-04-22T09:47:33.049Z</time></trkpt><trkpt lat="42.5501371" lon="11.1739827"><ele>4.0</ele><time>2026-04-22T09:47:34.037Z</time></trkpt><trkpt lat="42.5499179" lon="11.1740567"><ele>4.0</ele><time>2026-04-22T09:47:35.031Z</time></trkpt><trkpt lat="42.5496983" lon="11.1741329"><ele>3.0</ele><time>2026-04-22T09:47:36.032Z</time></trkpt><trkpt lat="42.5494826" lon="11.1742055"><ele>2.0</ele><time>2026-04-22T09:47:37.031Z</time></trkpt><trkpt lat="42.5492685" lon="11.1742744"><ele>1.0</ele><time>2026-04-22T09:47:38.033Z</time></trkpt><trkpt lat="42.549061" lon="11.1743454"><ele>1.0</ele><time>2026-04-22T09:47:39.027Z</time></trkpt><trkpt lat="42.5488521" lon="11.1744166"><ele>1.0</ele><time>2026-04-22T09:47:40.032Z</time></trkpt><trkpt lat="42.5486449" lon="11.1744934"><ele>1.0</ele><time>2026-04-22T09:47:41.041Z</time></trkpt><trkpt lat="42.5484413" lon="11.1745754"><ele>2.0</ele><time>2026-04-22T09:47:42.054Z</time></trkpt><trkpt lat="42.5482375" lon="11.1746571"><ele>3.0</ele><time>2026-04-22T09:47:43.062Z</time></trkpt><trkpt lat="42.5480384" lon="11.1747503"><ele>4.0</ele><time>2026-04-22T09:47:44.054Z</time></trkpt><trkpt lat="42.5478397" lon="11.1748629"><ele>4.0</ele><time>2026-04-22T09:47:45.055Z</time></trkpt><trkpt lat="42.5476496" lon="11.17499"><ele>4.0</ele><time>2026-04-22T09:47:46.052Z</time></trkpt><trkpt lat="42.5474535" lon="11.1751432"><ele>4.0</ele><time>2026-04-22T09:47:47.047Z</time></trkpt><trkpt lat="42.5472675" lon="11.1753153"><ele>4.0</ele><time>2026-04-22T09:47:48.046Z</time></trkpt><trkpt lat="42.5470845" lon="11.1754957"><ele>4.0</ele><time>2026-04-22T09:47:49.058Z</time></trkpt><trkpt lat="42.5469046" lon="11.1756689"><ele>4.0</ele><time>2026-04-22T09:47:50.047Z</time></trkpt><trkpt lat="42.5467253" lon="11.175845"><ele>4.0</ele><time>2026-04-22T09:47:51.055Z</time></trkpt><trkpt lat="42.5465478" lon="11.1760237"><ele>4.0</ele><time>2026-04-22T09:47:52.043Z</time></trkpt><trkpt lat="42.5463649" lon="11.1761915"><ele>4.0</ele><time>2026-04-22T09:47:53.047Z</time></trkpt><trkpt lat="42.5461845" lon="11.1763563"><ele>4.0</ele><time>2026-04-22T09:47:54.072Z</time></trkpt><trkpt lat="42.5460075" lon="11.176523"><ele>4.0</ele><time>2026-04-22T09:47:55.062Z</time></trkpt><trkpt lat="42.545826" lon="11.1766916"><ele>4.0</ele><time>2026-04-22T09:47:56.071Z</time></trkpt><trkpt lat="42.5456517" lon="11.1768612"><ele>4.0</ele><time>2026-04-22T09:47:57.063Z</time></trkpt><trkpt lat="42.5454817" lon="11.1770421"><ele>4.0</ele><time>2026-04-22T09:47:58.052Z</time></trkpt><trkpt lat="42.5453042" lon="11.177214"><ele>4.0</ele><time>2026-04-22T09:47:59.058Z</time></trkpt><trkpt lat="42.545125" lon="11.1773791"><ele>2.6666666666666665</ele><time>2026-04-22T09:48:00.072Z</time></trkpt><trkpt lat="42.5449515" lon="11.1775509"><ele>1.3333333333333333</ele><time>2026-04-22T09:48:01.05Z</time></trkpt><trkpt lat="42.5447767" lon="11.1777244"><ele>0.0</ele><time>2026-04-22T09:48:02.054Z</time></trkpt><trkpt lat="42.5445982" lon="11.1778927"><ele>0.6666666666666666</ele><time>2026-04-22T09:48:03.042Z</time></trkpt><trkpt lat="42.5444136" lon="11.1780628"><ele>1.3333333333333333</ele><time>2026-04-22T09:48:04.055Z</time></trkpt><trkpt lat="42.544227" lon="11.178228"><ele>2.0</ele><time>2026-04-22T09:48:05.08Z</time></trkpt><trkpt lat="42.5440397" lon="11.1783885"><ele>2.0</ele><time>2026-04-22T09:48:06.043Z</time></trkpt><trkpt lat="42.5438447" lon="11.1785391"><ele>2.0</ele><time>2026-04-22T09:48:07.047Z</time></trkpt><trkpt lat="42.5436573" lon="11.1786835"><ele>2.0</ele><time>2026-04-22T09:48:08.046Z</time></trkpt><trkpt lat="42.5434726" lon="11.178822"><ele>2.0</ele><time>2026-04-22T09:48:09.067Z</time></trkpt><trkpt lat="42.5432804" lon="11.1789676"><ele>2.0</ele><time>2026-04-22T09:48:10.038Z</time></trkpt><trkpt lat="42.543089" lon="11.179111"><ele>2.0</ele><time>2026-04-22T09:48:11.057Z</time></trkpt><trkpt lat="42.5428958" lon="11.1792499"><ele>2.6666666666666665</ele><time>2026-04-22T09:48:12.045Z</time></trkpt><trkpt lat="42.5426926" lon="11.1793837"><ele>3.333333333333333</ele><time>2026-04-22T09:48:13.066Z</time></trkpt><trkpt lat="42.5424972" lon="11.1795219"><ele>4.0</ele><time>2026-04-22T09:48:14.035Z</time></trkpt><trkpt lat="42.5422977" lon="11.1796591"><ele>4.0</ele><time>2026-04-22T09:48:15.058Z</time></trkpt><trkpt lat="42.5421051" lon="11.1797962"><ele>4.0</ele><time>2026-04-22T09:48:16.054Z</time></trkpt><trkpt lat="42.5419128" lon="11.1799325"><ele>4.0</ele><time>2026-04-22T09:48:17.047Z</time></trkpt><trkpt lat="42.5417196" lon="11.1800673"><ele>3.6666666666666665</ele><time>2026-04-22T09:48:18.048Z</time></trkpt><trkpt lat="42.541527" lon="11.1802041"><ele>3.333333333333333</ele><time>2026-04-22T09:48:19.053Z</time></trkpt><trkpt lat="42.5413281" lon="11.1803436"><ele>3.0</ele><time>2026-04-22T09:48:20.063Z</time></trkpt><trkpt lat="42.541129" lon="11.1804787"><ele>2.6666666666666665</ele><time>2026-04-22T09:48:21.054Z</time></trkpt><trkpt lat="42.5409329" lon="11.1806164"><ele>2.333333333333333</ele><time>2026-04-22T09:48:22.062Z</time></trkpt><trkpt lat="42.5407298" lon="11.1807528"><ele>2.0</ele><time>2026-04-22T09:48:23.064Z</time></trkpt><trkpt lat="42.5405334" lon="11.1808939"><ele>2.5</ele><time>2026-04-22T09:48:24.06Z</time></trkpt><trkpt lat="42.5403343" lon="11.1810332"><ele>3.0</ele><time>2026-04-22T09:48:25.057Z</time></trkpt><trkpt lat="42.5401329" lon="11.1811768"><ele>3.0</ele><time>2026-04-22T09:48:26.046Z</time></trkpt><trkpt lat="42.53993" lon="11.1813099"><ele>3.0</ele><time>2026-04-22T09:48:27.044Z</time></trkpt><trkpt lat="42.5397346" lon="11.1814504"><ele>3.0</ele><time>2026-04-22T09:48:28.059Z</time></trkpt><trkpt lat="42.539541" lon="11.1815862"><ele>2.6666666666666665</ele><time>2026-04-22T09:48:29.066Z</time></trkpt><trkpt lat="42.5393464" lon="11.1817155"><ele>2.333333333333333</ele><time>2026-04-22T09:48:30.063Z</time></trkpt><trkpt lat="42.5391491" lon="11.1818461"><ele>2.0</ele><time>2026-04-22T09:48:31.052Z</time></trkpt><trkpt lat="42.5389625" lon="11.181985"><ele>2.0</ele><time>2026-04-22T09:48:32.065Z</time></trkpt><trkpt lat="42.5387705" lon="11.1821206"><ele>2.0</ele><time>2026-04-22T09:48:33.042Z</time></trkpt><trkpt lat="42.5385777" lon="11.1822575"><ele>2.0</ele><time>2026-04-22T09:48:34.085Z</time></trkpt><trkpt lat="42.5383864" lon="11.1823798"><ele>2.0</ele><time>2026-04-22T09:48:35.062Z</time></trkpt><trkpt lat="42.5381943" lon="11.182514"><ele>2.0</ele><time>2026-04-22T09:48:36.058Z</time></trkpt><trkpt lat="42.5380014" lon="11.1826506"><ele>2.0</ele><time>2026-04-22T09:48:37.059Z</time></trkpt><trkpt lat="42.5377996" lon="11.1827843"><ele>2.0</ele><time>2026-04-22T09:48:38.041Z</time></trkpt><trkpt lat="42.5376005" lon="11.1829272"><ele>2.0</ele><time>2026-04-22T09:48:39.043Z</time></trkpt><trkpt lat="42.5374068" lon="11.1830665"><ele>2.0</ele><time>2026-04-22T09:48:40.059Z</time></trkpt><trkpt lat="42.5372098" lon="11.1832038"><ele>2.0</ele><time>2026-04-22T09:48:41.051Z</time></trkpt><trkpt lat="42.537014" lon="11.1833423"><ele>2.0</ele><time>2026-04-22T09:48:42.09Z</time></trkpt><trkpt lat="42.5368239" lon="11.1834813"><ele>2.0</ele><time>2026-04-22T09:48:43.053Z</time></trkpt><trkpt lat="42.5366304" lon="11.183621"><ele>2.0</ele><time>2026-04-22T09:48:44.061Z</time></trkpt><trkpt lat="42.5364336" lon="11.1837577"><ele>2.0</ele><time>2026-04-22T09:48:45.06Z</time></trkpt><trkpt lat="42.5362406" lon="11.1838996"><ele>2.0</ele><time>2026-04-22T09:48:46.047Z</time></trkpt><trkpt lat="42.5360393" lon="11.1840409"><ele>2.333333333333333</ele><time>2026-04-22T09:48:47.043Z</time></trkpt><trkpt lat="42.5358416" lon="11.1841885"><ele>2.6666666666666665</ele><time>2026-04-22T09:48:48.048Z</time></trkpt><trkpt lat="42.5356451" lon="11.1843314"><ele>3.0</ele><time>2026-04-22T09:48:49.058Z</time></trkpt><trkpt lat="42.5354451" lon="11.1844711"><ele>3.0</ele><time>2026-04-22T09:48:50.057Z</time></trkpt><trkpt lat="42.5352476" lon="11.1846134"><ele>3.0</ele><time>2026-04-22T09:48:51.056Z</time></trkpt><trkpt lat="42.5350515" lon="11.1847453"><ele>3.0</ele><time>2026-04-22T09:48:52.069Z</time></trkpt><trkpt lat="42.5348549" lon="11.1848771"><ele>2.6666666666666665</ele><time>2026-04-22T09:48:53.061Z</time></trkpt><trkpt lat="42.5346546" lon="11.1850111"><ele>2.333333333333333</ele><time>2026-04-22T09:48:54.061Z</time></trkpt><trkpt lat="42.534451" lon="11.1851277"><ele>2.0</ele><time>2026-04-22T09:48:55.049Z</time></trkpt><trkpt lat="42.5342445" lon="11.1852314"><ele>2.0</ele><time>2026-04-22T09:48:56.052Z</time></trkpt><trkpt lat="42.5340372" lon="11.1853428"><ele>2.0</ele><time>2026-04-22T09:48:57.061Z</time></trkpt><trkpt lat="42.5338295" lon="11.1854531"><ele>2.0</ele><time>2026-04-22T09:48:58.049Z</time></trkpt><trkpt lat="42.5336171" lon="11.1855595"><ele>2.0</ele><time>2026-04-22T09:48:59.054Z</time></trkpt><trkpt lat="42.5334141" lon="11.1856707"><ele>2.0</ele><time>2026-04-22T09:49:00.079Z</time></trkpt><trkpt lat="42.5332098" lon="11.1857747"><ele>2.0</ele><time>2026-04-22T09:49:01.064Z</time></trkpt><trkpt lat="42.5330047" lon="11.1858825"><ele>2.6666666666666665</ele><time>2026-04-22T09:49:02.062Z</time></trkpt><trkpt lat="42.5328078" lon="11.1859845"><ele>3.333333333333333</ele><time>2026-04-22T09:49:03.055Z</time></trkpt><trkpt lat="42.5326081" lon="11.1860877"><ele>4.0</ele><time>2026-04-22T09:49:04.052Z</time></trkpt><trkpt lat="42.5324069" lon="11.1861881"><ele>4.0</ele><time>2026-04-22T09:49:05.06Z</time></trkpt><trkpt lat="42.532205" lon="11.1862889"><ele>4.0</ele><time>2026-04-22T09:49:06.049Z</time></trkpt><trkpt lat="42.5320111" lon="11.1863892"><ele>4.0</ele><time>2026-04-22T09:49:07.05Z</time></trkpt><trkpt lat="42.5318121" lon="11.1864958"><ele>3.6666666666666665</ele><time>2026-04-22T09:49:08.072Z</time></trkpt><trkpt lat="42.5316179" lon="11.1866013"><ele>3.333333333333333</ele><time>2026-04-22T09:49:09.041Z</time></trkpt><trkpt lat="42.5314211" lon="11.1867056"><ele>3.0</ele><time>2026-04-22T09:49:10.064Z</time></trkpt><trkpt lat="42.5312247" lon="11.1867983"><ele>4.0</ele><time>2026-04-22T09:49:11.041Z</time></trkpt><trkpt lat="42.5310261" lon="11.1868952"><ele>5.0</ele><time>2026-04-22T09:49:12.038Z</time></trkpt><trkpt lat="42.5308282" lon="11.1869975"><ele>6.0</ele><time>2026-04-22T09:49:13.043Z</time></trkpt><trkpt lat="42.5306243" lon="11.187103"><ele>6.0</ele><time>2026-04-22T09:49:14.07Z</time></trkpt><trkpt lat="42.5304225" lon="11.1871985"><ele>6.0</ele><time>2026-04-22T09:49:15.039Z</time></trkpt><trkpt lat="42.530218" lon="11.1873029"><ele>6.0</ele><time>2026-04-22T09:49:16.046Z</time></trkpt><trkpt lat="42.5300144" lon="11.1874124"><ele>4.666666666666667</ele><time>2026-04-22T09:49:17.044Z</time></trkpt><trkpt lat="42.5298052" lon="11.1875191"><ele>3.333333333333333</ele><time>2026-04-22T09:49:18.059Z</time></trkpt><trkpt lat="42.5296007" lon="11.1876263"><ele>2.0</ele><time>2026-04-22T09:49:19.049Z</time></trkpt><trkpt lat="42.5294001" lon="11.1877261"><ele>2.0</ele><time>2026-04-22T09:49:20.043Z</time></trkpt><trkpt lat="42.529198" lon="11.1878371"><ele>2.0</ele><time>2026-04-22T09:49:21.06Z</time></trkpt><trkpt lat="42.5289934" lon="11.1879495"><ele>2.0</ele><time>2026-04-22T09:49:22.049Z</time></trkpt><trkpt lat="42.5287907" lon="11.1880605"><ele>1.6666666666666665</ele><time>2026-04-22T09:49:23.055Z</time></trkpt><trkpt lat="42.5285917" lon="11.1881703"><ele>1.3333333333333333</ele><time>2026-04-22T09:49:24.07Z</time></trkpt><trkpt lat="42.5283875" lon="11.1882793"><ele>1.0</ele><time>2026-04-22T09:49:25.071Z</time></trkpt><trkpt lat="42.528187" lon="11.1883885"><ele>1.0</ele><time>2026-04-22T09:49:26.068Z</time></trkpt><trkpt lat="42.5279836" lon="11.1884993"><ele>1.0</ele><time>2026-04-22T09:49:27.049Z</time></trkpt><trkpt lat="42.5277796" lon="11.188602"><ele>1.0</ele><time>2026-04-22T09:49:28.048Z</time></trkpt><trkpt lat="42.5275834" lon="11.1887061"><ele>1.6666666666666665</ele><time>2026-04-22T09:49:29.056Z</time></trkpt><trkpt lat="42.5273813" lon="11.1888133"><ele>2.3333333333333335</ele><time>2026-04-22T09:49:30.072Z</time></trkpt><trkpt lat="42.5271822" lon="11.1889226"><ele>3.0</ele><time>2026-04-22T09:49:31.066Z</time></trkpt><trkpt lat="42.5269844" lon="11.1890262"><ele>3.0</ele><time>2026-04-22T09:49:32.066Z</time></trkpt><trkpt lat="42.5267827" lon="11.1891286"><ele>3.0</ele><time>2026-04-22T09:49:33.053Z</time></trkpt><trkpt lat="42.5265791" lon="11.189236"><ele>3.0</ele><time>2026-04-22T09:49:34.05Z</time></trkpt><trkpt lat="42.5263762" lon="11.1893511"><ele>2.0</ele><time>2026-04-22T09:49:35.051Z</time></trkpt><trkpt lat="42.5261744" lon="11.1894611"><ele>1.0</ele><time>2026-04-22T09:49:36.042Z</time></trkpt><trkpt lat="42.525968" lon="11.189571"><ele>0.0</ele><time>2026-04-22T09:49:37.062Z</time></trkpt><trkpt lat="42.5257612" lon="11.1896765"><ele>0.0</ele><time>2026-04-22T09:49:38.056Z</time></trkpt><trkpt lat="42.5255579" lon="11.1897841"><ele>0.0</ele><time>2026-04-22T09:49:39.047Z</time></trkpt><trkpt lat="42.5253523" lon="11.1898945"><ele>0.0</ele><time>2026-04-22T09:49:40.052Z</time></trkpt><trkpt lat="42.5251445" lon="11.1900031"><ele>0.6666666666666666</ele><time>2026-04-22T09:49:41.043Z</time></trkpt><trkpt lat="42.524939" lon="11.1901074"><ele>1.3333333333333333</ele><time>2026-04-22T09:49:42.032Z</time></trkpt><trkpt lat="42.5247325" lon="11.1902224"><ele>2.0</ele><time>2026-04-22T09:49:43.049Z</time></trkpt><trkpt lat="42.5245277" lon="11.1903322"><ele>2.0</ele><time>2026-04-22T09:49:44.075Z</time></trkpt><trkpt lat="42.524322" lon="11.1904431"><ele>2.0</ele><time>2026-04-22T09:49:45.036Z</time></trkpt><trkpt lat="42.5241136" lon="11.1905519"><ele>2.0</ele><time>2026-04-22T09:49:46.03Z</time></trkpt><trkpt lat="42.5239037" lon="11.1906494"><ele>1.5</ele><time>2026-04-22T09:49:47.043Z</time></trkpt><trkpt lat="42.5236893" lon="11.190758"><ele>1.0</ele><time>2026-04-22T09:49:48.036Z</time></trkpt><trkpt lat="42.5234778" lon="11.190867"><ele>1.0</ele><time>2026-04-22T09:49:49.029Z</time></trkpt><trkpt lat="42.5232635" lon="11.1909804"><ele>1.0</ele><time>2026-04-22T09:49:50.029Z</time></trkpt><trkpt lat="42.5230447" lon="11.1910993"><ele>2.0</ele><time>2026-04-22T09:49:51.032Z</time></trkpt><trkpt lat="42.522825" lon="11.1912089"><ele>3.0</ele><time>2026-04-22T09:49:52.043Z</time></trkpt><trkpt lat="42.5226048" lon="11.1913225"><ele>3.0</ele><time>2026-04-22T09:49:53.056Z</time></trkpt><trkpt lat="42.5223867" lon="11.1914525"><ele>3.0</ele><time>2026-04-22T09:49:54.066Z</time></trkpt><trkpt lat="42.5221632" lon="11.1915726"><ele>3.5</ele><time>2026-04-22T09:49:55.05Z</time></trkpt><trkpt lat="42.5219405" lon="11.1916825"><ele>4.0</ele><time>2026-04-22T09:49:56.06Z</time></trkpt><trkpt lat="42.5217156" lon="11.1917965"><ele>4.0</ele><time>2026-04-22T09:49:57.074Z</time></trkpt><trkpt lat="42.5214888" lon="11.1919148"><ele>4.0</ele><time>2026-04-22T09:49:58.064Z</time></trkpt><trkpt lat="42.5212621" lon="11.1920352"><ele>4.0</ele><time>2026-04-22T09:49:59.049Z</time></trkpt><trkpt lat="42.5210419" lon="11.1921455"><ele>4.0</ele><time>2026-04-22T09:50:00.045Z</time></trkpt><trkpt lat="42.5208194" lon="11.1922564"><ele>3.5</ele><time>2026-04-22T09:50:01.063Z</time></trkpt><trkpt lat="42.5205991" lon="11.1923668"><ele>3.0</ele><time>2026-04-22T09:50:02.055Z</time></trkpt><trkpt lat="42.5203844" lon="11.1924777"><ele>3.0</ele><time>2026-04-22T09:50:03.067Z</time></trkpt><trkpt lat="42.5201656" lon="11.192584"><ele>3.0</ele><time>2026-04-22T09:50:04.039Z</time></trkpt><trkpt lat="42.5199433" lon="11.1926899"><ele>3.0</ele><time>2026-04-22T09:50:05.056Z</time></trkpt><trkpt lat="42.5197234" lon="11.1927891"><ele>3.0</ele><time>2026-04-22T09:50:06.046Z</time></trkpt><trkpt lat="42.5195026" lon="11.1928853"><ele>4.0</ele><time>2026-04-22T09:50:07.056Z</time></trkpt><trkpt lat="42.5192843" lon="11.1929694"><ele>5.0</ele><time>2026-04-22T09:50:08.05Z</time></trkpt><trkpt lat="42.5190594" lon="11.1930422"><ele>5.0</ele><time>2026-04-22T09:50:09.046Z</time></trkpt><trkpt lat="42.5188369" lon="11.1931165"><ele>5.0</ele><time>2026-04-22T09:50:10.033Z</time></trkpt><trkpt lat="42.5186194" lon="11.1932004"><ele>3.5</ele><time>2026-04-22T09:50:11.039Z</time></trkpt><trkpt lat="42.5184015" lon="11.1932829"><ele>2.0</ele><time>2026-04-22T09:50:12.054Z</time></trkpt><trkpt lat="42.5181822" lon="11.1933534"><ele>2.0</ele><time>2026-04-22T09:50:13.03Z</time></trkpt><trkpt lat="42.5179643" lon="11.1934206"><ele>2.0</ele><time>2026-04-22T09:50:14.031Z</time></trkpt><trkpt lat="42.5177428" lon="11.1934929"><ele>2.5</ele><time>2026-04-22T09:50:15.053Z</time></trkpt><trkpt lat="42.5175242" lon="11.1935703"><ele>3.0</ele><time>2026-04-22T09:50:16.049Z</time></trkpt><trkpt lat="42.5173031" lon="11.1936365"><ele>3.0</ele><time>2026-04-22T09:50:17.05Z</time></trkpt><trkpt lat="42.5170909" lon="11.1936998"><ele>3.0</ele><time>2026-04-22T09:50:18.05Z</time></trkpt><trkpt lat="42.5168784" lon="11.1937609"><ele>3.0</ele><time>2026-04-22T09:50:19.059Z</time></trkpt><trkpt lat="42.5166718" lon="11.1938142"><ele>3.333333333333333</ele><time>2026-04-22T09:50:20.047Z</time></trkpt><trkpt lat="42.5164667" lon="11.1938672"><ele>3.6666666666666665</ele><time>2026-04-22T09:50:21.058Z</time></trkpt><trkpt lat="42.5162746" lon="11.1939266"><ele>4.0</ele><time>2026-04-22T09:50:22.091Z</time></trkpt><trkpt lat="42.5160903" lon="11.1939821"><ele>4.0</ele><time>2026-04-22T09:50:23.042Z</time></trkpt><trkpt lat="42.5159112" lon="11.1940406"><ele>4.0</ele><time>2026-04-22T09:50:24.049Z</time></trkpt><trkpt lat="42.515738" lon="11.1940961"><ele>4.0</ele><time>2026-04-22T09:50:25.065Z</time></trkpt><trkpt lat="42.5155738" lon="11.1941469"><ele>4.0</ele><time>2026-04-22T09:50:26.063Z</time></trkpt><trkpt lat="42.5154128" lon="11.1941951"><ele>4.0</ele><time>2026-04-22T09:50:27.043Z</time></trkpt><trkpt lat="42.5152487" lon="11.1942364"><ele>4.0</ele><time>2026-04-22T09:50:28.043Z</time></trkpt><trkpt lat="42.5150816" lon="11.1942824"><ele>4.0</ele><time>2026-04-22T09:50:29.047Z</time></trkpt><trkpt lat="42.5149163" lon="11.1943317"><ele>4.0</ele><time>2026-04-22T09:50:30.056Z</time></trkpt><trkpt lat="42.5147459" lon="11.1943815"><ele>4.0</ele><time>2026-04-22T09:50:31.061Z</time></trkpt><trkpt lat="42.5145744" lon="11.1944354"><ele>3.6666666666666665</ele><time>2026-04-22T09:50:32.071Z</time></trkpt><trkpt lat="42.5144058" lon="11.194488"><ele>3.333333333333333</ele><time>2026-04-22T09:50:33.057Z</time></trkpt><trkpt lat="42.5142376" lon="11.1945381"><ele>3.0</ele><time>2026-04-22T09:50:34.061Z</time></trkpt><trkpt lat="42.5140688" lon="11.1945907"><ele>3.0</ele><time>2026-04-22T09:50:35.066Z</time></trkpt><trkpt lat="42.5139012" lon="11.194645"><ele>3.0</ele><time>2026-04-22T09:50:36.075Z</time></trkpt><trkpt lat="42.5137447" lon="11.1946984"><ele>3.0</ele><time>2026-04-22T09:50:37.063Z</time></trkpt><trkpt lat="42.5135971" lon="11.1947495"><ele>2.75</ele><time>2026-04-22T09:50:38.05Z</time></trkpt><trkpt lat="42.5134515" lon="11.1948019"><ele>2.5</ele><time>2026-04-22T09:50:39.06Z</time></trkpt><trkpt lat="42.5133276" lon="11.1948413"><ele>2.25</ele><time>2026-04-22T09:50:40.068Z</time></trkpt><trkpt lat="42.5132197" lon="11.1948873"><ele>2.0</ele><time>2026-04-22T09:50:41.042Z</time></trkpt><trkpt lat="42.5131281" lon="11.1949121"><ele>2.0</ele><time>2026-04-22T09:50:42.053Z</time></trkpt><trkpt lat="42.5130444" lon="11.1949395"><ele>2.0</ele><time>2026-04-22T09:50:43.06Z</time></trkpt><trkpt lat="42.5129707" lon="11.1949746"><ele>2.0</ele><time>2026-04-22T09:50:44.061Z</time></trkpt><trkpt lat="42.5129013" lon="11.1950015"><ele>2.0</ele><time>2026-04-22T09:50:45.071Z</time></trkpt><trkpt lat="42.5127899" lon="11.1950387"><ele>2.0</ele><time>2026-04-22T09:50:47.062Z</time></trkpt><trkpt lat="42.5126858" lon="11.1950788"><ele>2.0</ele><time>2026-04-22T09:50:49.072Z</time></trkpt><trkpt lat="42.5125764" lon="11.1951229"><ele>2.0</ele><time>2026-04-22T09:50:51.074Z</time></trkpt><trkpt lat="42.512456" lon="11.1951805"><ele>2.0</ele><time>2026-04-22T09:50:53.075Z</time></trkpt><trkpt lat="42.5123795" lon="11.1952149"><ele>2.0</ele><time>2026-04-22T09:50:54.061Z</time></trkpt><trkpt lat="42.5123091" lon="11.1952533"><ele>2.0</ele><time>2026-04-22T09:50:55.077Z</time></trkpt><trkpt lat="42.5122403" lon="11.1952847"><ele>1.9999999999999998</ele><time>2026-04-22T09:50:56.068Z</time></trkpt><trkpt lat="42.5121699" lon="11.1953241"><ele>2.0</ele><time>2026-04-22T09:50:57.062Z</time></trkpt><trkpt lat="42.5121024" lon="11.1953635"><ele>2.0</ele><time>2026-04-22T09:50:58.069Z</time></trkpt><trkpt lat="42.512036" lon="11.195402"><ele>2.0</ele><time>2026-04-22T09:50:59.064Z</time></trkpt><trkpt lat="42.5119693" lon="11.195444"><ele>1.9999999999999998</ele><time>2026-04-22T09:51:00.066Z</time></trkpt><trkpt lat="42.5119076" lon="11.1954772"><ele>2.0</ele><time>2026-04-22T09:51:01.036Z</time></trkpt><trkpt lat="42.5117932" lon="11.1955394"><ele>1.8333333333333333</ele><time>2026-04-22T09:51:03.064Z</time></trkpt><trkpt lat="42.5117257" lon="11.1955696"><ele>1.6666666666666665</ele><time>2026-04-22T09:51:04.071Z</time></trkpt><trkpt lat="42.5116483" lon="11.195611"><ele>1.5</ele><time>2026-04-22T09:51:05.066Z</time></trkpt><trkpt lat="42.5115626" lon="11.1956582"><ele>1.3333333333333333</ele><time>2026-04-22T09:51:06.083Z</time></trkpt><trkpt lat="42.5114787" lon="11.1957086"><ele>1.1666666666666665</ele><time>2026-04-22T09:51:07.05Z</time></trkpt><trkpt lat="42.5113887" lon="11.1957573"><ele>1.0</ele><time>2026-04-22T09:51:08.061Z</time></trkpt><trkpt lat="42.5112986" lon="11.1958116"><ele>0.9999999999999999</ele><time>2026-04-22T09:51:09.059Z</time></trkpt><trkpt lat="42.5112168" lon="11.1958649"><ele>1.0</ele><time>2026-04-22T09:51:10.041Z</time></trkpt><trkpt lat="42.5111447" lon="11.1959164"><ele>1.0</ele><time>2026-04-22T09:51:11.055Z</time></trkpt><trkpt lat="42.5110747" lon="11.1959633"><ele>1.0</ele><time>2026-04-22T09:51:12.061Z</time></trkpt><trkpt lat="42.511012" lon="11.1960015"><ele>0.9999999999999999</ele><time>2026-04-22T09:51:13.068Z</time></trkpt><trkpt lat="42.5109503" lon="11.1960419"><ele>1.0</ele><time>2026-04-22T09:51:14.075Z</time></trkpt><trkpt lat="42.5108624" lon="11.1961337"><ele>0.9999999999999999</ele><time>2026-04-22T09:51:16.056Z</time></trkpt><trkpt lat="42.5108198" lon="11.1962165"><ele>1.0</ele><time>2026-04-22T09:51:17.083Z</time></trkpt><trkpt lat="42.5107903" lon="11.1963298"><ele>1.0</ele><time>2026-04-22T09:51:18.069Z</time></trkpt><trkpt lat="42.5107716" lon="11.1964535"><ele>1.0</ele><time>2026-04-22T09:51:19.058Z</time></trkpt><trkpt lat="42.5107545" lon="11.1965744"><ele>0.9999999999999999</ele><time>2026-04-22T09:51:20.07Z</time></trkpt><trkpt lat="42.5107434" lon="11.1966975"><ele>1.0</ele><time>2026-04-22T09:51:21.064Z</time></trkpt><trkpt lat="42.5107338" lon="11.1968182"><ele>0.8333333333333333</ele><time>2026-04-22T09:51:22.058Z</time></trkpt><trkpt lat="42.5107189" lon="11.1969368"><ele>0.6666666666666666</ele><time>2026-04-22T09:51:23.065Z</time></trkpt><trkpt lat="42.5106975" lon="11.1970508"><ele>0.5</ele><time>2026-04-22T09:51:24.074Z</time></trkpt><trkpt lat="42.5106714" lon="11.1971614"><ele>0.3333333333333333</ele><time>2026-04-22T09:51:25.065Z</time></trkpt><trkpt lat="42.5106328" lon="11.1972685"><ele>0.16666666666666666</ele><time>2026-04-22T09:51:26.073Z</time></trkpt><trkpt lat="42.5105917" lon="11.1973696"><ele>0.0</ele><time>2026-04-22T09:51:27.061Z</time></trkpt><trkpt lat="42.5105467" lon="11.1974661"><ele>-0.16666666666666666</ele><time>2026-04-22T09:51:28.061Z</time></trkpt><trkpt lat="42.5105036" lon="11.1975518"><ele>-0.3333333333333333</ele><time>2026-04-22T09:51:29.06Z</time></trkpt><trkpt lat="42.5104655" lon="11.1976359"><ele>-0.5</ele><time>2026-04-22T09:51:30.084Z</time></trkpt><trkpt lat="42.5104173" lon="11.1977046"><ele>-0.6666666666666666</ele><time>2026-04-22T09:51:31.075Z</time></trkpt><trkpt lat="42.5103591" lon="11.197774"><ele>-0.8333333333333333</ele><time>2026-04-22T09:51:32.071Z</time></trkpt><trkpt lat="42.5102848" lon="11.1978279"><ele>-1.0</ele><time>2026-04-22T09:51:33.066Z</time></trkpt><trkpt lat="42.5102118" lon="11.1978729"><ele>-0.6666666666666666</ele><time>2026-04-22T09:51:34.051Z</time></trkpt><trkpt lat="42.5101392" lon="11.1979158"><ele>-0.3333333333333333</ele><time>2026-04-22T09:51:35.047Z</time></trkpt><trkpt lat="42.5100567" lon="11.1979596"><ele>0.0</ele><time>2026-04-22T09:51:36.038Z</time></trkpt><trkpt lat="42.5099772" lon="11.1979981"><ele>0.3333333333333333</ele><time>2026-04-22T09:51:37.041Z</time></trkpt><trkpt lat="42.5099024" lon="11.1980323"><ele>0.6666666666666666</ele><time>2026-04-22T09:51:38.083Z</time></trkpt><trkpt lat="42.5098304" lon="11.1980475"><ele>1.0</ele><time>2026-04-22T09:51:39.035Z</time></trkpt><trkpt lat="42.5097617" lon="11.1980467"><ele>0.9999999999999999</ele><time>2026-04-22T09:51:40.05Z</time></trkpt><trkpt lat="42.5096959" lon="11.198028"><ele>1.0</ele><time>2026-04-22T09:51:41.066Z</time></trkpt><trkpt lat="42.5095862" lon="11.1979755"><ele>1.0</ele><time>2026-04-22T09:51:43.062Z</time></trkpt><trkpt lat="42.5095101" lon="11.19793"><ele>1.0</ele><time>2026-04-22T09:51:45.069Z</time></trkpt><trkpt lat="42.5094397" lon="11.1978873"><ele>0.9999999999999999</ele><time>2026-04-22T09:51:47.067Z</time></trkpt><trkpt lat="42.5093485" lon="11.1978269"><ele>1.0</ele><time>2026-04-22T09:51:49.072Z</time></trkpt><trkpt lat="42.509283" lon="11.1977824"><ele>0.9999999999999999</ele><time>2026-04-22T09:51:50.076Z</time></trkpt><trkpt lat="42.5092168" lon="11.1977314"><ele>1.0</ele><time>2026-04-22T09:51:51.059Z</time></trkpt><trkpt lat="42.5091474" lon="11.1976785"><ele>1.0</ele><time>2026-04-22T09:51:52.073Z</time></trkpt><trkpt lat="42.5090785" lon="11.1976326"><ele>1.0</ele><time>2026-04-22T09:51:53.059Z</time></trkpt><trkpt lat="42.5090116" lon="11.1975999"><ele>0.9999999999999999</ele><time>2026-04-22T09:51:54.079Z</time></trkpt><trkpt lat="42.5089293" lon="11.1975974"><ele>1.0</ele><time>2026-04-22T09:51:55.083Z</time></trkpt><trkpt lat="42.5088389" lon="11.1976211"><ele>1.0</ele><time>2026-04-22T09:51:56.06Z</time></trkpt><trkpt lat="42.508757" lon="11.1976659"><ele>1.0</ele><time>2026-04-22T09:51:57.066Z</time></trkpt><trkpt lat="42.5086705" lon="11.1977227"><ele>1.0</ele><time>2026-04-22T09:51:58.051Z</time></trkpt><trkpt lat="42.5085841" lon="11.1977813"><ele>1.0</ele><time>2026-04-22T09:51:59.059Z</time></trkpt><trkpt lat="42.508493" lon="11.1978501"><ele>1.0</ele><time>2026-04-22T09:52:00.056Z</time></trkpt><trkpt lat="42.5083986" lon="11.1979222"><ele>1.0</ele><time>2026-04-22T09:52:01.049Z</time></trkpt><trkpt lat="42.5083094" lon="11.197987"><ele>1.0</ele><time>2026-04-22T09:52:02.068Z</time></trkpt><trkpt lat="42.5082066" lon="11.1980612"><ele>1.0</ele><time>2026-04-22T09:52:03.047Z</time></trkpt><trkpt lat="42.5081086" lon="11.198134"><ele>1.0</ele><time>2026-04-22T09:52:04.056Z</time></trkpt><trkpt lat="42.5080097" lon="11.198208"><ele>1.0</ele><time>2026-04-22T09:52:05.073Z</time></trkpt><trkpt lat="42.5079119" lon="11.1982768"><ele>0.6000000000000001</ele><time>2026-04-22T09:52:06.04Z</time></trkpt><trkpt lat="42.507817" lon="11.1983464"><ele>0.20000000000000007</ele><time>2026-04-22T09:52:07.046Z</time></trkpt><trkpt lat="42.5077211" lon="11.1984224"><ele>-0.20000000000000007</ele><time>2026-04-22T09:52:08.04Z</time></trkpt><trkpt lat="42.5076235" lon="11.1984932"><ele>-0.6000000000000001</ele><time>2026-04-22T09:52:09.066Z</time></trkpt><trkpt lat="42.5075287" lon="11.1985652"><ele>-1.0</ele><time>2026-04-22T09:52:10.06Z</time></trkpt><trkpt lat="42.507427" lon="11.1986373"><ele>-1.0</ele><time>2026-04-22T09:52:11.049Z</time></trkpt><trkpt lat="42.5073234" lon="11.1987188"><ele>-1.0</ele><time>2026-04-22T09:52:12.062Z</time></trkpt><trkpt lat="42.5072161" lon="11.1987988"><ele>-1.0</ele><time>2026-04-22T09:52:13.05Z</time></trkpt><trkpt lat="42.5071103" lon="11.198878"><ele>-1.0</ele><time>2026-04-22T09:52:14.068Z</time></trkpt><trkpt lat="42.5069988" lon="11.1989553"><ele>-0.75</ele><time>2026-04-22T09:52:15.067Z</time></trkpt><trkpt lat="42.50689" lon="11.1990352"><ele>-0.5</ele><time>2026-04-22T09:52:16.039Z</time></trkpt><trkpt lat="42.5067809" lon="11.1991191"><ele>-0.25</ele><time>2026-04-22T09:52:17.06Z</time></trkpt><trkpt lat="42.506666" lon="11.1992059"><ele>0.0</ele><time>2026-04-22T09:52:18.054Z</time></trkpt><trkpt lat="42.5065505" lon="11.1992886"><ele>0.0</ele><time>2026-04-22T09:52:19.058Z</time></trkpt><trkpt lat="42.5064338" lon="11.1993772"><ele>0.0</ele><time>2026-04-22T09:52:20.061Z</time></trkpt><trkpt lat="42.5063095" lon="11.19947"><ele>0.0</ele><time>2026-04-22T09:52:21.054Z</time></trkpt><trkpt lat="42.506189" lon="11.1995678"><ele>0.0</ele><time>2026-04-22T09:52:22.054Z</time></trkpt><trkpt lat="42.5060697" lon="11.1996694"><ele>0.0</ele><time>2026-04-22T09:52:23.05Z</time></trkpt><trkpt lat="42.5059443" lon="11.1997647"><ele>0.0</ele><time>2026-04-22T09:52:24.059Z</time></trkpt><trkpt lat="42.5058184" lon="11.1998523"><ele>0.0</ele><time>2026-04-22T09:52:25.06Z</time></trkpt><trkpt lat="42.5056944" lon="11.1999457"><ele>0.0</ele><time>2026-04-22T09:52:26.053Z</time></trkpt><trkpt lat="42.5055706" lon="11.2000308"><ele>0.0</ele><time>2026-04-22T09:52:27.06Z</time></trkpt><trkpt lat="42.5054487" lon="11.2001157"><ele>0.0</ele><time>2026-04-22T09:52:28.055Z</time></trkpt><trkpt lat="42.5053237" lon="11.2002077"><ele>0.0</ele><time>2026-04-22T09:52:29.058Z</time></trkpt><trkpt lat="42.5052011" lon="11.2002946"><ele>0.0</ele><time>2026-04-22T09:52:30.067Z</time></trkpt><trkpt lat="42.5050798" lon="11.2003819"><ele>0.0</ele><time>2026-04-22T09:52:31.068Z</time></trkpt><trkpt lat="42.5049601" lon="11.2004676"><ele>0.0</ele><time>2026-04-22T09:52:32.059Z</time></trkpt><trkpt lat="42.5048345" lon="11.2005609"><ele>0.0</ele><time>2026-04-22T09:52:33.05Z</time></trkpt><trkpt lat="42.5047041" lon="11.2006562"><ele>0.0</ele><time>2026-04-22T09:52:34.04Z</time></trkpt><trkpt lat="42.5045723" lon="11.2007441"><ele>-0.3333333333333333</ele><time>2026-04-22T09:52:35.059Z</time></trkpt><trkpt lat="42.5044474" lon="11.2008448"><ele>-0.6666666666666666</ele><time>2026-04-22T09:52:36.06Z</time></trkpt><trkpt lat="42.5043096" lon="11.2009497"><ele>-1.0</ele><time>2026-04-22T09:52:37.059Z</time></trkpt><trkpt lat="42.5041745" lon="11.2010575"><ele>-1.0</ele><time>2026-04-22T09:52:38.059Z</time></trkpt><trkpt lat="42.5040432" lon="11.2011567"><ele>-1.0</ele><time>2026-04-22T09:52:39.059Z</time></trkpt><trkpt lat="42.5039104" lon="11.2012599"><ele>-1.0</ele><time>2026-04-22T09:52:40.044Z</time></trkpt><trkpt lat="42.5037742" lon="11.2013713"><ele>-1.0</ele><time>2026-04-22T09:52:41.048Z</time></trkpt><trkpt lat="42.5036349" lon="11.2014819"><ele>-1.0</ele><time>2026-04-22T09:52:42.064Z</time></trkpt><trkpt lat="42.503494" lon="11.201592"><ele>-1.0</ele><time>2026-04-22T09:52:43.057Z</time></trkpt><trkpt lat="42.5033488" lon="11.2017095"><ele>-0.3333333333333333</ele><time>2026-04-22T09:52:44.052Z</time></trkpt><trkpt lat="42.5032061" lon="11.2018291"><ele>0.3333333333333333</ele><time>2026-04-22T09:52:45.051Z</time></trkpt><trkpt lat="42.5030609" lon="11.2019517"><ele>1.0</ele><time>2026-04-22T09:52:46.063Z</time></trkpt><trkpt lat="42.502914" lon="11.2020783"><ele>1.3333333333333333</ele><time>2026-04-22T09:52:47.052Z</time></trkpt><trkpt lat="42.5027641" lon="11.2022083"><ele>1.6666666666666665</ele><time>2026-04-22T09:52:48.059Z</time></trkpt><trkpt lat="42.5026099" lon="11.2023397"><ele>2.0</ele><time>2026-04-22T09:52:49.054Z</time></trkpt><trkpt lat="42.5024593" lon="11.2024643"><ele>2.0</ele><time>2026-04-22T09:52:50.044Z</time></trkpt><trkpt lat="42.5023192" lon="11.2025752"><ele>2.0</ele><time>2026-04-22T09:52:51.043Z</time></trkpt><trkpt lat="42.5021838" lon="11.2026878"><ele>2.0</ele><time>2026-04-22T09:52:52.051Z</time></trkpt><trkpt lat="42.5020457" lon="11.2028071"><ele>1.3333333333333333</ele><time>2026-04-22T09:52:53.06Z</time></trkpt><trkpt lat="42.5019031" lon="11.2029363"><ele>0.6666666666666666</ele><time>2026-04-22T09:52:54.05Z</time></trkpt><trkpt lat="42.5017471" lon="11.2030693"><ele>0.0</ele><time>2026-04-22T09:52:55.057Z</time></trkpt><trkpt lat="42.5015917" lon="11.2031963"><ele>-0.3333333333333333</ele><time>2026-04-22T09:52:56.059Z</time></trkpt><trkpt lat="42.5014462" lon="11.2033116"><ele>-0.6666666666666666</ele><time>2026-04-22T09:52:57.066Z</time></trkpt><trkpt lat="42.5013055" lon="11.2034271"><ele>-1.0</ele><time>2026-04-22T09:52:58.058Z</time></trkpt><trkpt lat="42.5011643" lon="11.2035463"><ele>-1.0</ele><time>2026-04-22T09:52:59.047Z</time></trkpt><trkpt lat="42.5010148" lon="11.2036579"><ele>-1.0</ele><time>2026-04-22T09:53:00.053Z</time></trkpt><trkpt lat="42.5008754" lon="11.2037783"><ele>-1.0</ele><time>2026-04-22T09:53:01.055Z</time></trkpt><trkpt lat="42.5007416" lon="11.2038906"><ele>-0.6666666666666666</ele><time>2026-04-22T09:53:02.057Z</time></trkpt><trkpt lat="42.5006125" lon="11.2040064"><ele>-0.3333333333333333</ele><time>2026-04-22T09:53:03.051Z</time></trkpt><trkpt lat="42.5004833" lon="11.2041191"><ele>0.0</ele><time>2026-04-22T09:53:04.071Z</time></trkpt><trkpt lat="42.5003558" lon="11.2042311"><ele>0.3333333333333333</ele><time>2026-04-22T09:53:05.056Z</time></trkpt><trkpt lat="42.5002213" lon="11.204343"><ele>0.6666666666666666</ele><time>2026-04-22T09:53:06.058Z</time></trkpt><trkpt lat="42.5000882" lon="11.2044565"><ele>1.0</ele><time>2026-04-22T09:53:07.055Z</time></trkpt><trkpt lat="42.4999573" lon="11.2045693"><ele>1.0</ele><time>2026-04-22T09:53:08.043Z</time></trkpt><trkpt lat="42.4998259" lon="11.2046804"><ele>1.0</ele><time>2026-04-22T09:53:09.073Z</time></trkpt><trkpt lat="42.4997046" lon="11.2047802"><ele>1.0</ele><time>2026-04-22T09:53:10.059Z</time></trkpt><trkpt lat="42.4995861" lon="11.2048759"><ele>1.0</ele><time>2026-04-22T09:53:11.053Z</time></trkpt><trkpt lat="42.4994677" lon="11.2049738"><ele>1.25</ele><time>2026-04-22T09:53:12.059Z</time></trkpt><trkpt lat="42.4993531" lon="11.2050713"><ele>1.5</ele><time>2026-04-22T09:53:13.06Z</time></trkpt><trkpt lat="42.499235" lon="11.2051717"><ele>1.75</ele><time>2026-04-22T09:53:14.057Z</time></trkpt><trkpt lat="42.4991153" lon="11.205273"><ele>2.0</ele><time>2026-04-22T09:53:15.059Z</time></trkpt><trkpt lat="42.498996" lon="11.2053699"><ele>2.0</ele><time>2026-04-22T09:53:16.053Z</time></trkpt><trkpt lat="42.4988854" lon="11.2054702"><ele>2.0</ele><time>2026-04-22T09:53:17.057Z</time></trkpt><trkpt lat="42.4987706" lon="11.2055661"><ele>2.0</ele><time>2026-04-22T09:53:18.069Z</time></trkpt><trkpt lat="42.4986567" lon="11.2056656"><ele>2.0</ele><time>2026-04-22T09:53:19.066Z</time></trkpt><trkpt lat="42.4985483" lon="11.2057583"><ele>2.0</ele><time>2026-04-22T09:53:20.058Z</time></trkpt><trkpt lat="42.4984383" lon="11.2058467"><ele>2.0</ele><time>2026-04-22T09:53:21.077Z</time></trkpt><trkpt lat="42.4983263" lon="11.2059348"><ele>2.0</ele><time>2026-04-22T09:53:22.059Z</time></trkpt><trkpt lat="42.498222" lon="11.2060206"><ele>2.0</ele><time>2026-04-22T09:53:23.057Z</time></trkpt><trkpt lat="42.4981169" lon="11.2061051"><ele>2.0</ele><time>2026-04-22T09:53:24.057Z</time></trkpt><trkpt lat="42.4980113" lon="11.2061982"><ele>2.0</ele><time>2026-04-22T09:53:25.06Z</time></trkpt><trkpt lat="42.4979009" lon="11.2062895"><ele>2.0</ele><time>2026-04-22T09:53:26.067Z</time></trkpt><trkpt lat="42.4977872" lon="11.2063831"><ele>2.0</ele><time>2026-04-22T09:53:27.058Z</time></trkpt><trkpt lat="42.4976694" lon="11.2064841"><ele>2.0</ele><time>2026-04-22T09:53:28.059Z</time></trkpt><trkpt lat="42.4975495" lon="11.2065831"><ele>2.0</ele><time>2026-04-22T09:53:29.059Z</time></trkpt><trkpt lat="42.4974332" lon="11.2066877"><ele>2.0</ele><time>2026-04-22T09:53:30.059Z</time></trkpt><trkpt lat="42.4973109" lon="11.206788"><ele>2.0</ele><time>2026-04-22T09:53:31.057Z</time></trkpt><trkpt lat="42.4971945" lon="11.2068886"><ele>1.5</ele><time>2026-04-22T09:53:32.057Z</time></trkpt><trkpt lat="42.4970731" lon="11.2069833"><ele>1.0</ele><time>2026-04-22T09:53:33.058Z</time></trkpt><trkpt lat="42.4969479" lon="11.2070842"><ele>0.5</ele><time>2026-04-22T09:53:34.051Z</time></trkpt><trkpt lat="42.4968192" lon="11.2071991"><ele>0.0</ele><time>2026-04-22T09:53:35.067Z</time></trkpt><trkpt lat="42.4966875" lon="11.2073139"><ele>0.3333333333333333</ele><time>2026-04-22T09:53:36.049Z</time></trkpt><trkpt lat="42.4965575" lon="11.2074271"><ele>0.6666666666666666</ele><time>2026-04-22T09:53:37.066Z</time></trkpt><trkpt lat="42.4964216" lon="11.207538"><ele>1.0</ele><time>2026-04-22T09:53:38.061Z</time></trkpt><trkpt lat="42.4962869" lon="11.2076434"><ele>0.75</ele><time>2026-04-22T09:53:39.047Z</time></trkpt><trkpt lat="42.4961601" lon="11.2077495"><ele>0.5</ele><time>2026-04-22T09:53:40.049Z</time></trkpt><trkpt lat="42.4960402" lon="11.2078561"><ele>0.25</ele><time>2026-04-22T09:53:41.053Z</time></trkpt><trkpt lat="42.4959202" lon="11.207954"><ele>0.0</ele><time>2026-04-22T09:53:42.07Z</time></trkpt><trkpt lat="42.4958057" lon="11.2080549"><ele>0.0</ele><time>2026-04-22T09:53:43.062Z</time></trkpt><trkpt lat="42.4956946" lon="11.2081471"><ele>0.0</ele><time>2026-04-22T09:53:44.074Z</time></trkpt><trkpt lat="42.4955854" lon="11.2082459"><ele>0.0</ele><time>2026-04-22T09:53:45.045Z</time></trkpt><trkpt lat="42.4954739" lon="11.2083458"><ele>0.0</ele><time>2026-04-22T09:53:46.058Z</time></trkpt><trkpt lat="42.4953598" lon="11.2084505"><ele>0.25</ele><time>2026-04-22T09:53:47.066Z</time></trkpt><trkpt lat="42.4952393" lon="11.2085571"><ele>0.5</ele><time>2026-04-22T09:53:48.049Z</time></trkpt><trkpt lat="42.4951151" lon="11.2086643"><ele>0.75</ele><time>2026-04-22T09:53:49.053Z</time></trkpt><trkpt lat="42.4949896" lon="11.2087673"><ele>1.0</ele><time>2026-04-22T09:53:50.049Z</time></trkpt><trkpt lat="42.4948644" lon="11.2088681"><ele>1.0</ele><time>2026-04-22T09:53:51.052Z</time></trkpt><trkpt lat="42.4947378" lon="11.2089721"><ele>1.0</ele><time>2026-04-22T09:53:52.042Z</time></trkpt><trkpt lat="42.4946116" lon="11.2090832"><ele>1.0</ele><time>2026-04-22T09:53:53.046Z</time></trkpt><trkpt lat="42.4944867" lon="11.2091849"><ele>1.0</ele><time>2026-04-22T09:53:54.069Z</time></trkpt><trkpt lat="42.4943607" lon="11.2092914"><ele>1.5</ele><time>2026-04-22T09:53:55.063Z</time></trkpt><trkpt lat="42.4942347" lon="11.2094049"><ele>2.0</ele><time>2026-04-22T09:53:56.047Z</time></trkpt><trkpt lat="42.49411" lon="11.2095097"><ele>2.5</ele><time>2026-04-22T09:53:57.062Z</time></trkpt><trkpt lat="42.4939848" lon="11.2096228"><ele>3.0</ele><time>2026-04-22T09:53:58.058Z</time></trkpt><trkpt lat="42.493861" lon="11.2097396"><ele>3.333333333333333</ele><time>2026-04-22T09:53:59.06Z</time></trkpt><trkpt lat="42.4937269" lon="11.2098595"><ele>3.6666666666666665</ele><time>2026-04-22T09:54:00.073Z</time></trkpt><trkpt lat="42.4935938" lon="11.2099751"><ele>4.0</ele><time>2026-04-22T09:54:01.071Z</time></trkpt><trkpt lat="42.4934533" lon="11.2100951"><ele>4.0</ele><time>2026-04-22T09:54:02.064Z</time></trkpt><trkpt lat="42.4933142" lon="11.2102102"><ele>4.0</ele><time>2026-04-22T09:54:03.052Z</time></trkpt><trkpt lat="42.4931669" lon="11.2103296"><ele>4.0</ele><time>2026-04-22T09:54:04.057Z</time></trkpt><trkpt lat="42.4930252" lon="11.2104566"><ele>3.333333333333333</ele><time>2026-04-22T09:54:05.061Z</time></trkpt><trkpt lat="42.4928779" lon="11.2105759"><ele>2.6666666666666665</ele><time>2026-04-22T09:54:06.051Z</time></trkpt><trkpt lat="42.4927254" lon="11.2106981"><ele>2.0</ele><time>2026-04-22T09:54:07.063Z</time></trkpt><trkpt lat="42.4925685" lon="11.2108214"><ele>1.6666666666666665</ele><time>2026-04-22T09:54:08.065Z</time></trkpt><trkpt lat="42.4924175" lon="11.2109501"><ele>1.3333333333333333</ele><time>2026-04-22T09:54:09.059Z</time></trkpt><trkpt lat="42.4922736" lon="11.2110793"><ele>1.0</ele><time>2026-04-22T09:54:10.075Z</time></trkpt><trkpt lat="42.4921254" lon="11.2112137"><ele>1.0</ele><time>2026-04-22T09:54:11.046Z</time></trkpt><trkpt lat="42.4919771" lon="11.211348"><ele>1.0</ele><time>2026-04-22T09:54:12.062Z</time></trkpt><trkpt lat="42.4918293" lon="11.2114762"><ele>1.0</ele><time>2026-04-22T09:54:13.06Z</time></trkpt><trkpt lat="42.4916768" lon="11.2116088"><ele>1.3333333333333333</ele><time>2026-04-22T09:54:14.048Z</time></trkpt><trkpt lat="42.4915278" lon="11.2117471"><ele>1.6666666666666665</ele><time>2026-04-22T09:54:15.052Z</time></trkpt><trkpt lat="42.4913741" lon="11.211881"><ele>2.0</ele><time>2026-04-22T09:54:16.048Z</time></trkpt><trkpt lat="42.4912274" lon="11.2120177"><ele>2.0</ele><time>2026-04-22T09:54:17.054Z</time></trkpt><trkpt lat="42.4910819" lon="11.2121566"><ele>2.0</ele><time>2026-04-22T09:54:18.045Z</time></trkpt><trkpt lat="42.4909344" lon="11.2122926"><ele>2.0</ele><time>2026-04-22T09:54:19.051Z</time></trkpt><trkpt lat="42.4907891" lon="11.2124274"><ele>2.333333333333333</ele><time>2026-04-22T09:54:20.035Z</time></trkpt><trkpt lat="42.4906476" lon="11.2125579"><ele>2.6666666666666665</ele><time>2026-04-22T09:54:21.06Z</time></trkpt><trkpt lat="42.4905105" lon="11.2126858"><ele>3.0</ele><time>2026-04-22T09:54:22.058Z</time></trkpt><trkpt lat="42.4903739" lon="11.2128134"><ele>3.0</ele><time>2026-04-22T09:54:23.057Z</time></trkpt><trkpt lat="42.49024" lon="11.2129373"><ele>3.0</ele><time>2026-04-22T09:54:24.055Z</time></trkpt><trkpt lat="42.4901032" lon="11.2130635"><ele>3.0</ele><time>2026-04-22T09:54:25.075Z</time></trkpt><trkpt lat="42.4899681" lon="11.2131857"><ele>3.666666666666667</ele><time>2026-04-22T09:54:26.066Z</time></trkpt><trkpt lat="42.4898323" lon="11.2133049"><ele>4.333333333333334</ele><time>2026-04-22T09:54:27.047Z</time></trkpt><trkpt lat="42.4896982" lon="11.2134233"><ele>5.0</ele><time>2026-04-22T09:54:28.045Z</time></trkpt><trkpt lat="42.4895666" lon="11.2135479"><ele>3.666666666666667</ele><time>2026-04-22T09:54:29.052Z</time></trkpt><trkpt lat="42.4894398" lon="11.2136772"><ele>2.3333333333333335</ele><time>2026-04-22T09:54:30.06Z</time></trkpt><trkpt lat="42.4893123" lon="11.213806"><ele>1.0</ele><time>2026-04-22T09:54:31.058Z</time></trkpt><trkpt lat="42.4891844" lon="11.2139269"><ele>1.3333333333333333</ele><time>2026-04-22T09:54:32.062Z</time></trkpt><trkpt lat="42.4890567" lon="11.2140446"><ele>1.6666666666666665</ele><time>2026-04-22T09:54:33.047Z</time></trkpt><trkpt lat="42.4889289" lon="11.2141664"><ele>2.0</ele><time>2026-04-22T09:54:34.059Z</time></trkpt><trkpt lat="42.4888031" lon="11.2142743"><ele>2.0</ele><time>2026-04-22T09:54:35.05Z</time></trkpt><trkpt lat="42.4886739" lon="11.214387"><ele>2.0</ele><time>2026-04-22T09:54:36.047Z</time></trkpt><trkpt lat="42.4885421" lon="11.2145039"><ele>2.0</ele><time>2026-04-22T09:54:37.047Z</time></trkpt><trkpt lat="42.4884177" lon="11.2146236"><ele>2.0</ele><time>2026-04-22T09:54:38.054Z</time></trkpt><trkpt lat="42.488292" lon="11.2147428"><ele>2.0</ele><time>2026-04-22T09:54:39.049Z</time></trkpt><trkpt lat="42.4881644" lon="11.2148624"><ele>2.0</ele><time>2026-04-22T09:54:40.058Z</time></trkpt><trkpt lat="42.488041" lon="11.2149793"><ele>2.0</ele><time>2026-04-22T09:54:41.062Z</time></trkpt><trkpt lat="42.4879096" lon="11.2151016"><ele>2.0</ele><time>2026-04-22T09:54:42.054Z</time></trkpt><trkpt lat="42.4877755" lon="11.215222"><ele>2.0</ele><time>2026-04-22T09:54:43.047Z</time></trkpt><trkpt lat="42.4876404" lon="11.2153426"><ele>2.0</ele><time>2026-04-22T09:54:44.052Z</time></trkpt><trkpt lat="42.4874969" lon="11.2154705"><ele>2.0</ele><time>2026-04-22T09:54:45.048Z</time></trkpt><trkpt lat="42.4873571" lon="11.215593"><ele>2.0</ele><time>2026-04-22T09:54:46.045Z</time></trkpt><trkpt lat="42.4872176" lon="11.2157153"><ele>2.333333333333333</ele><time>2026-04-22T09:54:47.044Z</time></trkpt><trkpt lat="42.4870775" lon="11.2158419"><ele>2.6666666666666665</ele><time>2026-04-22T09:54:48.057Z</time></trkpt><trkpt lat="42.4869406" lon="11.2159688"><ele>3.0</ele><time>2026-04-22T09:54:49.062Z</time></trkpt><trkpt lat="42.4868105" lon="11.216096"><ele>3.0</ele><time>2026-04-22T09:54:50.052Z</time></trkpt><trkpt lat="42.4866749" lon="11.2162131"><ele>3.0</ele><time>2026-04-22T09:54:51.046Z</time></trkpt><trkpt lat="42.4865409" lon="11.2163294"><ele>3.0</ele><time>2026-04-22T09:54:52.052Z</time></trkpt><trkpt lat="42.4864096" lon="11.2164508"><ele>3.0</ele><time>2026-04-22T09:54:53.059Z</time></trkpt><trkpt lat="42.4862765" lon="11.2165658"><ele>3.0</ele><time>2026-04-22T09:54:54.06Z</time></trkpt><trkpt lat="42.4861465" lon="11.2166865"><ele>3.0</ele><time>2026-04-22T09:54:55.065Z</time></trkpt><trkpt lat="42.4860185" lon="11.2168064"><ele>3.0</ele><time>2026-04-22T09:54:56.054Z</time></trkpt><trkpt lat="42.4858801" lon="11.2169327"><ele>3.0</ele><time>2026-04-22T09:54:57.054Z</time></trkpt><trkpt lat="42.4857377" lon="11.2170532"><ele>3.0</ele><time>2026-04-22T09:54:58.058Z</time></trkpt><trkpt lat="42.4855844" lon="11.2171858"><ele>3.0</ele><time>2026-04-22T09:54:59.044Z</time></trkpt><trkpt lat="42.4854306" lon="11.21731"><ele>3.0</ele><time>2026-04-22T09:55:00.069Z</time></trkpt><trkpt lat="42.4852734" lon="11.2174429"><ele>3.0</ele><time>2026-04-22T09:55:01.039Z</time></trkpt><trkpt lat="42.4851115" lon="11.2175903"><ele>3.666666666666667</ele><time>2026-04-22T09:55:02.061Z</time></trkpt><trkpt lat="42.4849508" lon="11.2177433"><ele>4.333333333333334</ele><time>2026-04-22T09:55:03.043Z</time></trkpt><trkpt lat="42.4847874" lon="11.2178886"><ele>5.0</ele><time>2026-04-22T09:55:04.049Z</time></trkpt><trkpt lat="42.4846178" lon="11.2180366"><ele>4.666666666666667</ele><time>2026-04-22T09:55:05.059Z</time></trkpt><trkpt lat="42.4844499" lon="11.2181882"><ele>4.333333333333333</ele><time>2026-04-22T09:55:06.057Z</time></trkpt><trkpt lat="42.484294" lon="11.2183366"><ele>4.0</ele><time>2026-04-22T09:55:07.058Z</time></trkpt><trkpt lat="42.4841364" lon="11.2184897"><ele>4.0</ele><time>2026-04-22T09:55:08.068Z</time></trkpt><trkpt lat="42.4839731" lon="11.2186381"><ele>4.0</ele><time>2026-04-22T09:55:09.061Z</time></trkpt><trkpt lat="42.4838131" lon="11.218783"><ele>4.0</ele><time>2026-04-22T09:55:10.057Z</time></trkpt><trkpt lat="42.483653" lon="11.2189283"><ele>4.333333333333333</ele><time>2026-04-22T09:55:11.054Z</time></trkpt><trkpt lat="42.4834857" lon="11.2190797"><ele>4.666666666666667</ele><time>2026-04-22T09:55:12.059Z</time></trkpt><trkpt lat="42.4833168" lon="11.219235"><ele>5.0</ele><time>2026-04-22T09:55:13.052Z</time></trkpt><trkpt lat="42.4831401" lon="11.2194017"><ele>5.0</ele><time>2026-04-22T09:55:14.061Z</time></trkpt><trkpt lat="42.4829543" lon="11.2195725"><ele>5.0</ele><time>2026-04-22T09:55:15.039Z</time></trkpt><trkpt lat="42.4827709" lon="11.2197508"><ele>4.333333333333334</ele><time>2026-04-22T09:55:16.062Z</time></trkpt><trkpt lat="42.4825972" lon="11.2199141"><ele>3.666666666666667</ele><time>2026-04-22T09:55:17.056Z</time></trkpt><trkpt lat="42.4824228" lon="11.2200787"><ele>3.0</ele><time>2026-04-22T09:55:18.062Z</time></trkpt><trkpt lat="42.4822542" lon="11.2202268"><ele>3.0</ele><time>2026-04-22T09:55:19.054Z</time></trkpt><trkpt lat="42.482085" lon="11.2203854"><ele>3.0</ele><time>2026-04-22T09:55:20.061Z</time></trkpt><trkpt lat="42.4819131" lon="11.2205421"><ele>3.0</ele><time>2026-04-22T09:55:21.054Z</time></trkpt><trkpt lat="42.4817421" lon="11.2207058"><ele>3.666666666666667</ele><time>2026-04-22T09:55:22.059Z</time></trkpt><trkpt lat="42.481569" lon="11.220863"><ele>4.333333333333334</ele><time>2026-04-22T09:55:23.052Z</time></trkpt><trkpt lat="42.4813976" lon="11.2210099"><ele>5.0</ele><time>2026-04-22T09:55:24.059Z</time></trkpt><trkpt lat="42.481222" lon="11.2211675"><ele>5.0</ele><time>2026-04-22T09:55:25.057Z</time></trkpt><trkpt lat="42.4810558" lon="11.2213284"><ele>5.0</ele><time>2026-04-22T09:55:26.059Z</time></trkpt><trkpt lat="42.4808975" lon="11.2215092"><ele>5.0</ele><time>2026-04-22T09:55:27.051Z</time></trkpt><trkpt lat="42.4807427" lon="11.221703"><ele>5.333333333333334</ele><time>2026-04-22T09:55:28.059Z</time></trkpt><trkpt lat="42.4805946" lon="11.2218979"><ele>5.666666666666667</ele><time>2026-04-22T09:55:29.059Z</time></trkpt><trkpt lat="42.4804564" lon="11.2220882"><ele>6.0</ele><time>2026-04-22T09:55:30.061Z</time></trkpt><trkpt lat="42.4803269" lon="11.2222857"><ele>6.0</ele><time>2026-04-22T09:55:31.044Z</time></trkpt><trkpt lat="42.480208" lon="11.2224795"><ele>6.0</ele><time>2026-04-22T09:55:32.051Z</time></trkpt><trkpt lat="42.4800936" lon="11.2226892"><ele>6.0</ele><time>2026-04-22T09:55:33.055Z</time></trkpt><trkpt lat="42.4799833" lon="11.2228945"><ele>6.0</ele><time>2026-04-22T09:55:34.052Z</time></trkpt><trkpt lat="42.4798809" lon="11.2231192"><ele>6.0</ele><time>2026-04-22T09:55:35.063Z</time></trkpt><trkpt lat="42.4797887" lon="11.2233437"><ele>6.0</ele><time>2026-04-22T09:55:36.061Z</time></trkpt><trkpt lat="42.4797019" lon="11.2235645"><ele>6.333333333333334</ele><time>2026-04-22T09:55:37.056Z</time></trkpt><trkpt lat="42.4796175" lon="11.2237858"><ele>6.666666666666667</ele><time>2026-04-22T09:55:38.057Z</time></trkpt><trkpt lat="42.4795362" lon="11.2240138"><ele>7.0</ele><time>2026-04-22T09:55:39.041Z</time></trkpt><trkpt lat="42.4794559" lon="11.2242438"><ele>7.0</ele><time>2026-04-22T09:55:40.042Z</time></trkpt><trkpt lat="42.479385" lon="11.2244742"><ele>7.0</ele><time>2026-04-22T09:55:41.062Z</time></trkpt><trkpt lat="42.4793266" lon="11.2247102"><ele>7.0</ele><time>2026-04-22T09:55:42.065Z</time></trkpt><trkpt lat="42.4792735" lon="11.2249493"><ele>7.333333333333334</ele><time>2026-04-22T09:55:43.051Z</time></trkpt><trkpt lat="42.479216" lon="11.2252"><ele>7.666666666666666</ele><time>2026-04-22T09:55:44.052Z</time></trkpt><trkpt lat="42.4791517" lon="11.2254562"><ele>8.0</ele><time>2026-04-22T09:55:45.049Z</time></trkpt><trkpt lat="42.4790973" lon="11.2256998"><ele>8.0</ele><time>2026-04-22T09:55:46.046Z</time></trkpt><trkpt lat="42.4790366" lon="11.2259444"><ele>8.0</ele><time>2026-04-22T09:55:47.044Z</time></trkpt><trkpt lat="42.4789782" lon="11.2261773"><ele>8.0</ele><time>2026-04-22T09:55:48.059Z</time></trkpt><trkpt lat="42.4789177" lon="11.2264194"><ele>8.0</ele><time>2026-04-22T09:55:49.055Z</time></trkpt><trkpt lat="42.4788638" lon="11.2266567"><ele>8.0</ele><time>2026-04-22T09:55:50.04Z</time></trkpt><trkpt lat="42.4788068" lon="11.2268945"><ele>8.0</ele><time>2026-04-22T09:55:51.04Z</time></trkpt><trkpt lat="42.4787534" lon="11.2271306"><ele>8.0</ele><time>2026-04-22T09:55:52.061Z</time></trkpt><trkpt lat="42.4786962" lon="11.2273665"><ele>8.0</ele><time>2026-04-22T09:55:53.043Z</time></trkpt><trkpt lat="42.4786383" lon="11.227606"><ele>8.0</ele><time>2026-04-22T09:55:54.05Z</time></trkpt><trkpt lat="42.4785826" lon="11.2278444"><ele>8.0</ele><time>2026-04-22T09:55:55.06Z</time></trkpt><trkpt lat="42.4785262" lon="11.2280828"><ele>8.0</ele><time>2026-04-22T09:55:56.068Z</time></trkpt><trkpt lat="42.4784727" lon="11.2283237"><ele>8.0</ele><time>2026-04-22T09:55:57.055Z</time></trkpt><trkpt lat="42.4784154" lon="11.2285676"><ele>8.0</ele><time>2026-04-22T09:55:58.053Z</time></trkpt><trkpt lat="42.4783521" lon="11.2288125"><ele>8.0</ele><time>2026-04-22T09:55:59.041Z</time></trkpt><trkpt lat="42.4782885" lon="11.2290542"><ele>8.0</ele><time>2026-04-22T09:56:00.075Z</time></trkpt><trkpt lat="42.4782141" lon="11.2292824"><ele>8.0</ele><time>2026-04-22T09:56:01.06Z</time></trkpt><trkpt lat="42.4781329" lon="11.2295216"><ele>8.0</ele><time>2026-04-22T09:56:02.052Z</time></trkpt><trkpt lat="42.4780411" lon="11.2297558"><ele>8.0</ele><time>2026-04-22T09:56:03.069Z</time></trkpt><trkpt lat="42.4779321" lon="11.2299842"><ele>8.333333333333332</ele><time>2026-04-22T09:56:04.055Z</time></trkpt><trkpt lat="42.4778177" lon="11.2302061"><ele>8.666666666666666</ele><time>2026-04-22T09:56:05.065Z</time></trkpt><trkpt lat="42.4776897" lon="11.2304333"><ele>9.0</ele><time>2026-04-22T09:56:06.067Z</time></trkpt><trkpt lat="42.4775444" lon="11.2306493"><ele>9.0</ele><time>2026-04-22T09:56:07.058Z</time></trkpt><trkpt lat="42.4773887" lon="11.230856"><ele>9.0</ele><time>2026-04-22T09:56:08.062Z</time></trkpt><trkpt lat="42.4772167" lon="11.231053"><ele>9.0</ele><time>2026-04-22T09:56:09.057Z</time></trkpt><trkpt lat="42.4770399" lon="11.2312464"><ele>9.0</ele><time>2026-04-22T09:56:10.049Z</time></trkpt><trkpt lat="42.4768498" lon="11.2314198"><ele>9.0</ele><time>2026-04-22T09:56:11.046Z</time></trkpt><trkpt lat="42.4766619" lon="11.2315734"><ele>9.0</ele><time>2026-04-22T09:56:12.067Z</time></trkpt><trkpt lat="42.4764701" lon="11.2317238"><ele>9.0</ele><time>2026-04-22T09:56:13.061Z</time></trkpt><trkpt lat="42.4762884" lon="11.2318736"><ele>9.0</ele><time>2026-04-22T09:56:14.061Z</time></trkpt><trkpt lat="42.4761206" lon="11.23202"><ele>9.0</ele><time>2026-04-22T09:56:15.058Z</time></trkpt><trkpt lat="42.4759572" lon="11.2321587"><ele>8.666666666666666</ele><time>2026-04-22T09:56:16.066Z</time></trkpt><trkpt lat="42.4758032" lon="11.2322786"><ele>8.333333333333332</ele><time>2026-04-22T09:56:17.049Z</time></trkpt><trkpt lat="42.4756632" lon="11.2323968"><ele>8.0</ele><time>2026-04-22T09:56:18.064Z</time></trkpt><trkpt lat="42.4755363" lon="11.2325131"><ele>7.75</ele><time>2026-04-22T09:56:19.071Z</time></trkpt><trkpt lat="42.4754136" lon="11.2326127"><ele>7.5</ele><time>2026-04-22T09:56:20.06Z</time></trkpt><trkpt lat="42.4752964" lon="11.2327119"><ele>7.25</ele><time>2026-04-22T09:56:21.062Z</time></trkpt><trkpt lat="42.4751804" lon="11.2328066"><ele>7.0</ele><time>2026-04-22T09:56:22.06Z</time></trkpt><trkpt lat="42.4750696" lon="11.2329042"><ele>7.0</ele><time>2026-04-22T09:56:23.059Z</time></trkpt><trkpt lat="42.4749598" lon="11.2330028"><ele>7.0</ele><time>2026-04-22T09:56:24.055Z</time></trkpt><trkpt lat="42.4748495" lon="11.2331085"><ele>7.0</ele><time>2026-04-22T09:56:25.05Z</time></trkpt><trkpt lat="42.4747277" lon="11.2332141"><ele>7.0</ele><time>2026-04-22T09:56:26.06Z</time></trkpt><trkpt lat="42.4745981" lon="11.2333227"><ele>7.5</ele><time>2026-04-22T09:56:27.062Z</time></trkpt><trkpt lat="42.4744693" lon="11.2334317"><ele>8.0</ele><time>2026-04-22T09:56:28.063Z</time></trkpt><trkpt lat="42.4743449" lon="11.2335355"><ele>8.5</ele><time>2026-04-22T09:56:29.051Z</time></trkpt><trkpt lat="42.4742222" lon="11.2336385"><ele>9.0</ele><time>2026-04-22T09:56:30.034Z</time></trkpt><trkpt lat="42.4741047" lon="11.233743"><ele>9.0</ele><time>2026-04-22T09:56:31.057Z</time></trkpt><trkpt lat="42.4739962" lon="11.2338314"><ele>9.0</ele><time>2026-04-22T09:56:32.064Z</time></trkpt><trkpt lat="42.4738857" lon="11.2339228"><ele>9.0</ele><time>2026-04-22T09:56:33.041Z</time></trkpt><trkpt lat="42.4737848" lon="11.2340031"><ele>9.0</ele><time>2026-04-22T09:56:34.073Z</time></trkpt><trkpt lat="42.473695" lon="11.2340772"><ele>8.5</ele><time>2026-04-22T09:56:35.053Z</time></trkpt><trkpt lat="42.4736034" lon="11.2341491"><ele>8.0</ele><time>2026-04-22T09:56:36.054Z</time></trkpt><trkpt lat="42.4735264" lon="11.2342063"><ele>7.5</ele><time>2026-04-22T09:56:37.051Z</time></trkpt><trkpt lat="42.4734664" lon="11.2342522"><ele>7.0</ele><time>2026-04-22T09:56:38.051Z</time></trkpt><trkpt lat="42.4734032" lon="11.2343003"><ele>6.5</ele><time>2026-04-22T09:56:39.057Z</time></trkpt><trkpt lat="42.4733383" lon="11.2343538"><ele>6.0</ele><time>2026-04-22T09:56:40.06Z</time></trkpt><trkpt lat="42.4732715" lon="11.2344127"><ele>5.999999999999999</ele><time>2026-04-22T09:56:41.048Z</time></trkpt><trkpt lat="42.4732036" lon="11.2344688"><ele>6.0</ele><time>2026-04-22T09:56:42.062Z</time></trkpt><trkpt lat="42.4731346" lon="11.2345316"><ele>6.0</ele><time>2026-04-22T09:56:43.057Z</time></trkpt><trkpt lat="42.4730697" lon="11.2345862"><ele>6.0</ele><time>2026-04-22T09:56:44.056Z</time></trkpt><trkpt lat="42.4730109" lon="11.234635"><ele>6.0</ele><time>2026-04-22T09:56:45.065Z</time></trkpt><trkpt lat="42.4729509" lon="11.2346839"><ele>5.999999999999999</ele><time>2026-04-22T09:56:46.052Z</time></trkpt><trkpt lat="42.472891" lon="11.2347316"><ele>6.0</ele><time>2026-04-22T09:56:47.066Z</time></trkpt><trkpt lat="42.4728332" lon="11.2347858"><ele>6.333333333333333</ele><time>2026-04-22T09:56:48.062Z</time></trkpt><trkpt lat="42.472771" lon="11.2348314"><ele>6.666666666666666</ele><time>2026-04-22T09:56:49.061Z</time></trkpt><trkpt lat="42.4727038" lon="11.2348817"><ele>7.0</ele><time>2026-04-22T09:56:50.061Z</time></trkpt><trkpt lat="42.4726387" lon="11.2349389"><ele>7.333333333333333</ele><time>2026-04-22T09:56:51.057Z</time></trkpt><trkpt lat="42.4725692" lon="11.2349975"><ele>7.666666666666666</ele><time>2026-04-22T09:56:52.04Z</time></trkpt><trkpt lat="42.4724903" lon="11.235067"><ele>8.0</ele><time>2026-04-22T09:56:53.044Z</time></trkpt><trkpt lat="42.4724125" lon="11.2351303"><ele>7.999999999999999</ele><time>2026-04-22T09:56:54.051Z</time></trkpt><trkpt lat="42.4723422" lon="11.2351932"><ele>8.0</ele><time>2026-04-22T09:56:55.041Z</time></trkpt><trkpt lat="42.4722687" lon="11.2352515"><ele>8.0</ele><time>2026-04-22T09:56:56.042Z</time></trkpt><trkpt lat="42.4722013" lon="11.2353107"><ele>8.0</ele><time>2026-04-22T09:56:57.044Z</time></trkpt><trkpt lat="42.4721315" lon="11.2353763"><ele>7.999999999999999</ele><time>2026-04-22T09:56:58.058Z</time></trkpt><trkpt lat="42.4720553" lon="11.2354457"><ele>8.0</ele><time>2026-04-22T09:56:59.058Z</time></trkpt><trkpt lat="42.4719788" lon="11.2355075"><ele>7.800000000000001</ele><time>2026-04-22T09:57:00.067Z</time></trkpt><trkpt lat="42.4718967" lon="11.2355725"><ele>7.6000000000000005</ele><time>2026-04-22T09:57:01.059Z</time></trkpt><trkpt lat="42.4718074" lon="11.2356418"><ele>7.3999999999999995</ele><time>2026-04-22T09:57:02.053Z</time></trkpt><trkpt lat="42.4717153" lon="11.2357192"><ele>7.199999999999999</ele><time>2026-04-22T09:57:03.067Z</time></trkpt><trkpt lat="42.471614" lon="11.2357998"><ele>7.0</ele><time>2026-04-22T09:57:04.039Z</time></trkpt><trkpt lat="42.4715123" lon="11.23588"><ele>7.0</ele><time>2026-04-22T09:57:05.064Z</time></trkpt><trkpt lat="42.4714132" lon="11.2359596"><ele>7.0</ele><time>2026-04-22T09:57:06.074Z</time></trkpt><trkpt lat="42.4713163" lon="11.2360438"><ele>7.0</ele><time>2026-04-22T09:57:07.067Z</time></trkpt><trkpt lat="42.4712151" lon="11.2361331"><ele>7.0</ele><time>2026-04-22T09:57:08.049Z</time></trkpt><trkpt lat="42.4711011" lon="11.2362351"><ele>7.0</ele><time>2026-04-22T09:57:09.065Z</time></trkpt><trkpt lat="42.4709751" lon="11.2363431"><ele>7.0</ele><time>2026-04-22T09:57:10.049Z</time></trkpt><trkpt lat="42.4708499" lon="11.2364527"><ele>7.0</ele><time>2026-04-22T09:57:11.039Z</time></trkpt><trkpt lat="42.4707163" lon="11.2365701"><ele>7.333333333333334</ele><time>2026-04-22T09:57:12.05Z</time></trkpt><trkpt lat="42.4705813" lon="11.2366853"><ele>7.666666666666666</ele><time>2026-04-22T09:57:13.048Z</time></trkpt><trkpt lat="42.4704489" lon="11.2367897"><ele>8.0</ele><time>2026-04-22T09:57:14.053Z</time></trkpt><trkpt lat="42.4703208" lon="11.2369003"><ele>7.0</ele><time>2026-04-22T09:57:15.053Z</time></trkpt><trkpt lat="42.4701893" lon="11.2370184"><ele>6.0</ele><time>2026-04-22T09:57:16.068Z</time></trkpt><trkpt lat="42.4700586" lon="11.2371319"><ele>5.0</ele><time>2026-04-22T09:57:17.068Z</time></trkpt><trkpt lat="42.469927" lon="11.237238"><ele>5.0</ele><time>2026-04-22T09:57:18.068Z</time></trkpt><trkpt lat="42.4697945" lon="11.2373489"><ele>5.0</ele><time>2026-04-22T09:57:19.034Z</time></trkpt><trkpt lat="42.4696538" lon="11.2374655"><ele>5.0</ele><time>2026-04-22T09:57:20.056Z</time></trkpt><trkpt lat="42.4695166" lon="11.2375831"><ele>5.0</ele><time>2026-04-22T09:57:21.05Z</time></trkpt><trkpt lat="42.4693787" lon="11.2377068"><ele>5.0</ele><time>2026-04-22T09:57:22.03Z</time></trkpt><trkpt lat="42.4692346" lon="11.2378338"><ele>5.0</ele><time>2026-04-22T09:57:23.035Z</time></trkpt><trkpt lat="42.4690838" lon="11.237958"><ele>5.0</ele><time>2026-04-22T09:57:24.059Z</time></trkpt><trkpt lat="42.4689305" lon="11.2380777"><ele>5.0</ele><time>2026-04-22T09:57:25.046Z</time></trkpt><trkpt lat="42.4687741" lon="11.2382104"><ele>5.0</ele><time>2026-04-22T09:57:26.04Z</time></trkpt><trkpt lat="42.4686197" lon="11.2383516"><ele>5.0</ele><time>2026-04-22T09:57:27.052Z</time></trkpt><trkpt lat="42.4684676" lon="11.2385007"><ele>5.0</ele><time>2026-04-22T09:57:28.043Z</time></trkpt><trkpt lat="42.4683079" lon="11.2386414"><ele>5.0</ele><time>2026-04-22T09:57:29.047Z</time></trkpt><trkpt lat="42.4681451" lon="11.2387718"><ele>5.0</ele><time>2026-04-22T09:57:30.058Z</time></trkpt><trkpt lat="42.4679872" lon="11.2389101"><ele>5.0</ele><time>2026-04-22T09:57:31.06Z</time></trkpt><trkpt lat="42.4678379" lon="11.2390417"><ele>5.0</ele><time>2026-04-22T09:57:32.052Z</time></trkpt><trkpt lat="42.4676871" lon="11.2391797"><ele>4.666666666666667</ele><time>2026-04-22T09:57:33.046Z</time></trkpt><trkpt lat="42.4675352" lon="11.2393132"><ele>4.333333333333333</ele><time>2026-04-22T09:57:34.051Z</time></trkpt><trkpt lat="42.4673849" lon="11.239453"><ele>4.0</ele><time>2026-04-22T09:57:35.053Z</time></trkpt><trkpt lat="42.467236" lon="11.2395914"><ele>4.666666666666666</ele><time>2026-04-22T09:57:36.051Z</time></trkpt><trkpt lat="42.4670842" lon="11.2397316"><ele>5.333333333333333</ele><time>2026-04-22T09:57:37.058Z</time></trkpt><trkpt lat="42.4669271" lon="11.2398721"><ele>6.0</ele><time>2026-04-22T09:57:38.057Z</time></trkpt><trkpt lat="42.4667705" lon="11.240011"><ele>6.0</ele><time>2026-04-22T09:57:39.065Z</time></trkpt><trkpt lat="42.4666152" lon="11.2401539"><ele>6.0</ele><time>2026-04-22T09:57:40.038Z</time></trkpt><trkpt lat="42.4664647" lon="11.2402956"><ele>6.0</ele><time>2026-04-22T09:57:41.055Z</time></trkpt><trkpt lat="42.4663107" lon="11.2404453"><ele>6.0</ele><time>2026-04-22T09:57:42.066Z</time></trkpt><trkpt lat="42.4661551" lon="11.2405913"><ele>6.0</ele><time>2026-04-22T09:57:43.056Z</time></trkpt><trkpt lat="42.466006" lon="11.2407275"><ele>6.0</ele><time>2026-04-22T09:57:44.063Z</time></trkpt><trkpt lat="42.465851" lon="11.2408644"><ele>5.666666666666667</ele><time>2026-04-22T09:57:45.057Z</time></trkpt><trkpt lat="42.4656995" lon="11.2409987"><ele>5.333333333333334</ele><time>2026-04-22T09:57:46.052Z</time></trkpt><trkpt lat="42.4655512" lon="11.2411319"><ele>5.0</ele><time>2026-04-22T09:57:47.061Z</time></trkpt><trkpt lat="42.4654023" lon="11.2412691"><ele>4.666666666666667</ele><time>2026-04-22T09:57:48.066Z</time></trkpt><trkpt lat="42.4652481" lon="11.2414125"><ele>4.333333333333333</ele><time>2026-04-22T09:57:49.063Z</time></trkpt><trkpt lat="42.4650947" lon="11.2415535"><ele>4.0</ele><time>2026-04-22T09:57:50.043Z</time></trkpt><trkpt lat="42.4649371" lon="11.2416992"><ele>4.0</ele><time>2026-04-22T09:57:51.058Z</time></trkpt><trkpt lat="42.4647757" lon="11.2418438"><ele>4.0</ele><time>2026-04-22T09:57:52.039Z</time></trkpt><trkpt lat="42.4646114" lon="11.2419916"><ele>4.0</ele><time>2026-04-22T09:57:53.048Z</time></trkpt><trkpt lat="42.4644541" lon="11.2421405"><ele>4.0</ele><time>2026-04-22T09:57:54.067Z</time></trkpt><trkpt lat="42.4642943" lon="11.2422868"><ele>4.0</ele><time>2026-04-22T09:57:55.059Z</time></trkpt><trkpt lat="42.4641323" lon="11.2424433"><ele>4.0</ele><time>2026-04-22T09:57:56.044Z</time></trkpt><trkpt lat="42.4639658" lon="11.2425979"><ele>4.0</ele><time>2026-04-22T09:57:57.059Z</time></trkpt><trkpt lat="42.4638022" lon="11.2427423"><ele>4.0</ele><time>2026-04-22T09:57:58.065Z</time></trkpt><trkpt lat="42.463637" lon="11.2428913"><ele>4.0</ele><time>2026-04-22T09:57:59.05Z</time></trkpt><trkpt lat="42.4634689" lon="11.2430425"><ele>4.333333333333333</ele><time>2026-04-22T09:58:00.068Z</time></trkpt><trkpt lat="42.4633055" lon="11.2431942"><ele>4.666666666666667</ele><time>2026-04-22T09:58:01.058Z</time></trkpt><trkpt lat="42.4631386" lon="11.2433546"><ele>5.0</ele><time>2026-04-22T09:58:02.055Z</time></trkpt><trkpt lat="42.4629654" lon="11.2435118"><ele>4.666666666666667</ele><time>2026-04-22T09:58:03.065Z</time></trkpt><trkpt lat="42.4627952" lon="11.2436679"><ele>4.333333333333333</ele><time>2026-04-22T09:58:04.067Z</time></trkpt><trkpt lat="42.4626248" lon="11.2438262"><ele>4.0</ele><time>2026-04-22T09:58:05.059Z</time></trkpt><trkpt lat="42.4624521" lon="11.2439873"><ele>4.0</ele><time>2026-04-22T09:58:06.058Z</time></trkpt><trkpt lat="42.4622771" lon="11.2441452"><ele>4.0</ele><time>2026-04-22T09:58:07.051Z</time></trkpt><trkpt lat="42.4621067" lon="11.2443071"><ele>4.0</ele><time>2026-04-22T09:58:08.05Z</time></trkpt><trkpt lat="42.4619327" lon="11.244471"><ele>3.6666666666666665</ele><time>2026-04-22T09:58:09.05Z</time></trkpt><trkpt lat="42.4617547" lon="11.244631"><ele>3.333333333333333</ele><time>2026-04-22T09:58:10.068Z</time></trkpt><trkpt lat="42.4615793" lon="11.2447956"><ele>3.0</ele><time>2026-04-22T09:58:11.052Z</time></trkpt><trkpt lat="42.4614088" lon="11.2449557"><ele>2.6666666666666665</ele><time>2026-04-22T09:58:12.059Z</time></trkpt><trkpt lat="42.4612358" lon="11.2451126"><ele>2.333333333333333</ele><time>2026-04-22T09:58:13.066Z</time></trkpt><trkpt lat="42.4610579" lon="11.2452695"><ele>2.0</ele><time>2026-04-22T09:58:14.067Z</time></trkpt><trkpt lat="42.4608873" lon="11.2454291"><ele>2.0</ele><time>2026-04-22T09:58:15.059Z</time></trkpt><trkpt lat="42.4607128" lon="11.2455897"><ele>2.0</ele><time>2026-04-22T09:58:16.046Z</time></trkpt><trkpt lat="42.4605426" lon="11.2457381"><ele>2.0</ele><time>2026-04-22T09:58:17.048Z</time></trkpt><trkpt lat="42.4603678" lon="11.2458914"><ele>2.0</ele><time>2026-04-22T09:58:18.057Z</time></trkpt><trkpt lat="42.4601964" lon="11.2460488"><ele>2.0</ele><time>2026-04-22T09:58:19.057Z</time></trkpt><trkpt lat="42.4600248" lon="11.2462053"><ele>2.0</ele><time>2026-04-22T09:58:20.067Z</time></trkpt><trkpt lat="42.4598528" lon="11.2463671"><ele>1.6666666666666665</ele><time>2026-04-22T09:58:21.06Z</time></trkpt><trkpt lat="42.4596833" lon="11.2465265"><ele>1.3333333333333333</ele><time>2026-04-22T09:58:22.043Z</time></trkpt><trkpt lat="42.4595086" lon="11.2466854"><ele>1.0</ele><time>2026-04-22T09:58:23.06Z</time></trkpt><trkpt lat="42.4593351" lon="11.2468372"><ele>1.0</ele><time>2026-04-22T09:58:24.05Z</time></trkpt><trkpt lat="42.4591727" lon="11.2469839"><ele>1.0</ele><time>2026-04-22T09:58:25.048Z</time></trkpt><trkpt lat="42.4590026" lon="11.2471407"><ele>1.0</ele><time>2026-04-22T09:58:26.052Z</time></trkpt><trkpt lat="42.4588281" lon="11.2473001"><ele>1.3333333333333333</ele><time>2026-04-22T09:58:27.052Z</time></trkpt><trkpt lat="42.4586551" lon="11.2474694"><ele>1.6666666666666665</ele><time>2026-04-22T09:58:28.053Z</time></trkpt><trkpt lat="42.4584782" lon="11.247649"><ele>2.0</ele><time>2026-04-22T09:58:29.073Z</time></trkpt><trkpt lat="42.4582922" lon="11.2478229"><ele>2.0</ele><time>2026-04-22T09:58:30.05Z</time></trkpt><trkpt lat="42.4581082" lon="11.2479976"><ele>2.0</ele><time>2026-04-22T09:58:31.051Z</time></trkpt><trkpt lat="42.4579216" lon="11.2481709"><ele>2.6666666666666665</ele><time>2026-04-22T09:58:32.058Z</time></trkpt><trkpt lat="42.457735" lon="11.2483395"><ele>3.333333333333333</ele><time>2026-04-22T09:58:33.045Z</time></trkpt><trkpt lat="42.4575505" lon="11.248505"><ele>4.0</ele><time>2026-04-22T09:58:34.055Z</time></trkpt><trkpt lat="42.4573675" lon="11.2486757"><ele>4.0</ele><time>2026-04-22T09:58:35.068Z</time></trkpt><trkpt lat="42.4571849" lon="11.2488277"><ele>4.0</ele><time>2026-04-22T09:58:36.066Z</time></trkpt><trkpt lat="42.4570037" lon="11.2489795"><ele>4.0</ele><time>2026-04-22T09:58:37.074Z</time></trkpt><trkpt lat="42.4568274" lon="11.2491196"><ele>3.6666666666666665</ele><time>2026-04-22T09:58:38.065Z</time></trkpt><trkpt lat="42.4566514" lon="11.2492616"><ele>3.333333333333333</ele><time>2026-04-22T09:58:39.069Z</time></trkpt><trkpt lat="42.456475" lon="11.2494032"><ele>3.0</ele><time>2026-04-22T09:58:40.059Z</time></trkpt><trkpt lat="42.4563055" lon="11.2495414"><ele>3.0</ele><time>2026-04-22T09:58:41.05Z</time></trkpt><trkpt lat="42.4561386" lon="11.2496801"><ele>3.0</ele><time>2026-04-22T09:58:42.067Z</time></trkpt><trkpt lat="42.4559675" lon="11.2498262"><ele>3.0</ele><time>2026-04-22T09:58:43.052Z</time></trkpt><trkpt lat="42.4557969" lon="11.2499752"><ele>2.6666666666666665</ele><time>2026-04-22T09:58:44.041Z</time></trkpt><trkpt lat="42.4556259" lon="11.2501127"><ele>2.333333333333333</ele><time>2026-04-22T09:58:45.059Z</time></trkpt><trkpt lat="42.4554632" lon="11.2502382"><ele>2.0</ele><time>2026-04-22T09:58:46.062Z</time></trkpt><trkpt lat="42.4553065" lon="11.2503643"><ele>2.0</ele><time>2026-04-22T09:58:47.047Z</time></trkpt><trkpt lat="42.4551483" lon="11.2504944"><ele>2.0</ele><time>2026-04-22T09:58:48.049Z</time></trkpt><trkpt lat="42.4549795" lon="11.2506376"><ele>2.0</ele><time>2026-04-22T09:58:49.054Z</time></trkpt><trkpt lat="42.4548032" lon="11.2507907"><ele>2.0</ele><time>2026-04-22T09:58:50.054Z</time></trkpt><trkpt lat="42.4546162" lon="11.2509503"><ele>2.0</ele><time>2026-04-22T09:58:51.055Z</time></trkpt><trkpt lat="42.4544196" lon="11.2511052"><ele>2.0</ele><time>2026-04-22T09:58:52.043Z</time></trkpt><trkpt lat="42.454242" lon="11.2512518"><ele>2.0</ele><time>2026-04-22T09:58:53.052Z</time></trkpt><trkpt lat="42.4540635" lon="11.2513927"><ele>2.0</ele><time>2026-04-22T09:58:54.068Z</time></trkpt><trkpt lat="42.4538925" lon="11.2515196"><ele>2.0</ele><time>2026-04-22T09:58:55.058Z</time></trkpt><trkpt lat="42.4537339" lon="11.2516427"><ele>2.333333333333333</ele><time>2026-04-22T09:58:56.04Z</time></trkpt><trkpt lat="42.4535766" lon="11.2517656"><ele>2.6666666666666665</ele><time>2026-04-22T09:58:57.044Z</time></trkpt><trkpt lat="42.4534325" lon="11.251876"><ele>3.0</ele><time>2026-04-22T09:58:58.058Z</time></trkpt><trkpt lat="42.4533008" lon="11.2519822"><ele>3.0</ele><time>2026-04-22T09:58:59.06Z</time></trkpt><trkpt lat="42.4531803" lon="11.2520754"><ele>3.0</ele><time>2026-04-22T09:59:00.074Z</time></trkpt><trkpt lat="42.4530681" lon="11.2521649"><ele>3.0</ele><time>2026-04-22T09:59:01.054Z</time></trkpt><trkpt lat="42.4529654" lon="11.2522516"><ele>3.0</ele><time>2026-04-22T09:59:02.058Z</time></trkpt><trkpt lat="42.4528722" lon="11.252335"><ele>4.0</ele><time>2026-04-22T09:59:03.061Z</time></trkpt><trkpt lat="42.4527777" lon="11.2524115"><ele>5.0</ele><time>2026-04-22T09:59:04.034Z</time></trkpt><trkpt lat="42.452682" lon="11.2524986"><ele>6.0</ele><time>2026-04-22T09:59:05.06Z</time></trkpt><trkpt lat="42.4525821" lon="11.2525863"><ele>7.0</ele><time>2026-04-22T09:59:06.061Z</time></trkpt><trkpt lat="42.452484" lon="11.2526825"><ele>7.0</ele><time>2026-04-22T09:59:07.064Z</time></trkpt><trkpt lat="42.4523862" lon="11.2527757"><ele>7.0</ele><time>2026-04-22T09:59:08.085Z</time></trkpt><trkpt lat="42.4522842" lon="11.2528645"><ele>7.0</ele><time>2026-04-22T09:59:09.054Z</time></trkpt><trkpt lat="42.4521782" lon="11.252952"><ele>7.0</ele><time>2026-04-22T09:59:10.048Z</time></trkpt><trkpt lat="42.4520737" lon="11.2530368"><ele>6.75</ele><time>2026-04-22T09:59:11.04Z</time></trkpt><trkpt lat="42.4519635" lon="11.2531288"><ele>6.5</ele><time>2026-04-22T09:59:12.051Z</time></trkpt><trkpt lat="42.4518557" lon="11.2532297"><ele>6.25</ele><time>2026-04-22T09:59:13.062Z</time></trkpt><trkpt lat="42.4517469" lon="11.2533245"><ele>6.0</ele><time>2026-04-22T09:59:14.058Z</time></trkpt><trkpt lat="42.451638" lon="11.2534233"><ele>6.0</ele><time>2026-04-22T09:59:15.06Z</time></trkpt><trkpt lat="42.4515351" lon="11.253519"><ele>6.0</ele><time>2026-04-22T09:59:16.055Z</time></trkpt><trkpt lat="42.4514182" lon="11.2536194"><ele>6.0</ele><time>2026-04-22T09:59:17.068Z</time></trkpt><trkpt lat="42.4512927" lon="11.2537254"><ele>6.0</ele><time>2026-04-22T09:59:18.06Z</time></trkpt><trkpt lat="42.4511675" lon="11.2538339"><ele>5.5</ele><time>2026-04-22T09:59:19.066Z</time></trkpt><trkpt lat="42.4510472" lon="11.2539428"><ele>5.0</ele><time>2026-04-22T09:59:20.059Z</time></trkpt><trkpt lat="42.4509225" lon="11.2540516"><ele>4.5</ele><time>2026-04-22T09:59:21.047Z</time></trkpt><trkpt lat="42.4507941" lon="11.2541703"><ele>4.0</ele><time>2026-04-22T09:59:22.073Z</time></trkpt><trkpt lat="42.4506638" lon="11.2542838"><ele>4.666666666666666</ele><time>2026-04-22T09:59:23.034Z</time></trkpt><trkpt lat="42.4505293" lon="11.2543908"><ele>5.333333333333333</ele><time>2026-04-22T09:59:24.057Z</time></trkpt><trkpt lat="42.4504022" lon="11.2545057"><ele>6.0</ele><time>2026-04-22T09:59:25.057Z</time></trkpt><trkpt lat="42.4502769" lon="11.2546232"><ele>6.0</ele><time>2026-04-22T09:59:26.051Z</time></trkpt><trkpt lat="42.4501483" lon="11.2547408"><ele>6.0</ele><time>2026-04-22T09:59:27.057Z</time></trkpt><trkpt lat="42.4500253" lon="11.2548568"><ele>6.0</ele><time>2026-04-22T09:59:28.039Z</time></trkpt><trkpt lat="42.4498996" lon="11.25497"><ele>6.333333333333334</ele><time>2026-04-22T09:59:29.057Z</time></trkpt><trkpt lat="42.4497697" lon="11.2550834"><ele>6.666666666666667</ele><time>2026-04-22T09:59:30.052Z</time></trkpt><trkpt lat="42.4496417" lon="11.2551968"><ele>7.0</ele><time>2026-04-22T09:59:31.059Z</time></trkpt><trkpt lat="42.4495166" lon="11.2553123"><ele>7.0</ele><time>2026-04-22T09:59:32.059Z</time></trkpt><trkpt lat="42.4493925" lon="11.2554243"><ele>7.0</ele><time>2026-04-22T09:59:33.061Z</time></trkpt><trkpt lat="42.4492657" lon="11.2555411"><ele>7.0</ele><time>2026-04-22T09:59:34.058Z</time></trkpt><trkpt lat="42.4491377" lon="11.2556581"><ele>7.666666666666667</ele><time>2026-04-22T09:59:35.055Z</time></trkpt><trkpt lat="42.4490104" lon="11.2557781"><ele>8.333333333333334</ele><time>2026-04-22T09:59:36.048Z</time></trkpt><trkpt lat="42.4488839" lon="11.2559028"><ele>9.0</ele><time>2026-04-22T09:59:37.065Z</time></trkpt><trkpt lat="42.4487526" lon="11.2560351"><ele>9.0</ele><time>2026-04-22T09:59:38.062Z</time></trkpt><trkpt lat="42.4486231" lon="11.2561698"><ele>9.0</ele><time>2026-04-22T09:59:39.049Z</time></trkpt><trkpt lat="42.448497" lon="11.2563053"><ele>9.0</ele><time>2026-04-22T09:59:40.032Z</time></trkpt><trkpt lat="42.4483687" lon="11.2564393"><ele>10.0</ele><time>2026-04-22T09:59:41.063Z</time></trkpt><trkpt lat="42.4482415" lon="11.2565843"><ele>11.0</ele><time>2026-04-22T09:59:42.05Z</time></trkpt><trkpt lat="42.448115" lon="11.2567333"><ele>12.0</ele><time>2026-04-22T09:59:43.065Z</time></trkpt><trkpt lat="42.4479784" lon="11.25689"><ele>11.333333333333334</ele><time>2026-04-22T09:59:44.053Z</time></trkpt><trkpt lat="42.4478373" lon="11.257045"><ele>10.666666666666668</ele><time>2026-04-22T09:59:45.06Z</time></trkpt><trkpt lat="42.44769" lon="11.2572134"><ele>10.0</ele><time>2026-04-22T09:59:46.051Z</time></trkpt><trkpt lat="42.447541" lon="11.2573863"><ele>10.0</ele><time>2026-04-22T09:59:47.058Z</time></trkpt><trkpt lat="42.4473866" lon="11.2575552"><ele>10.0</ele><time>2026-04-22T09:59:48.059Z</time></trkpt><trkpt lat="42.4472212" lon="11.2577242"><ele>10.0</ele><time>2026-04-22T09:59:49.061Z</time></trkpt><trkpt lat="42.4470504" lon="11.2579034"><ele>10.0</ele><time>2026-04-22T09:59:50.056Z</time></trkpt><trkpt lat="42.4468839" lon="11.2580698"><ele>10.0</ele><time>2026-04-22T09:59:51.049Z</time></trkpt><trkpt lat="42.4467092" lon="11.2582278"><ele>10.0</ele><time>2026-04-22T09:59:52.039Z</time></trkpt><trkpt lat="42.446528" lon="11.2583948"><ele>10.0</ele><time>2026-04-22T09:59:53.061Z</time></trkpt><trkpt lat="42.4463507" lon="11.2585659"><ele>10.0</ele><time>2026-04-22T09:59:54.054Z</time></trkpt><trkpt lat="42.446171" lon="11.2587399"><ele>10.0</ele><time>2026-04-22T09:59:55.055Z</time></trkpt><trkpt lat="42.4459937" lon="11.2589163"><ele>10.0</ele><time>2026-04-22T09:59:56.056Z</time></trkpt><trkpt lat="42.4458132" lon="11.2590817"><ele>10.0</ele><time>2026-04-22T09:59:57.065Z</time></trkpt><trkpt lat="42.4456385" lon="11.2592538"><ele>10.0</ele><time>2026-04-22T09:59:58.066Z</time></trkpt><trkpt lat="42.4454589" lon="11.2594274"><ele>10.0</ele><time>2026-04-22T09:59:59.059Z</time></trkpt><trkpt lat="42.445281" lon="11.2595915"><ele>10.0</ele><time>2026-04-22T10:00:00.053Z</time></trkpt><trkpt lat="42.4451012" lon="11.2597507"><ele>10.0</ele><time>2026-04-22T10:00:01.047Z</time></trkpt><trkpt lat="42.444915" lon="11.2599093"><ele>10.0</ele><time>2026-04-22T10:00:02.056Z</time></trkpt><trkpt lat="42.4447259" lon="11.2600653"><ele>10.0</ele><time>2026-04-22T10:00:03.069Z</time></trkpt><trkpt lat="42.4445423" lon="11.2602227"><ele>10.0</ele><time>2026-04-22T10:00:04.059Z</time></trkpt><trkpt lat="42.4443593" lon="11.2603846"><ele>9.333333333333334</ele><time>2026-04-22T10:00:05.061Z</time></trkpt><trkpt lat="42.4441811" lon="11.260554"><ele>8.666666666666666</ele><time>2026-04-22T10:00:06.054Z</time></trkpt><trkpt lat="42.4440013" lon="11.2607204"><ele>8.0</ele><time>2026-04-22T10:00:07.056Z</time></trkpt><trkpt lat="42.4438237" lon="11.2608853"><ele>7.0</ele><time>2026-04-22T10:00:08.058Z</time></trkpt><trkpt lat="42.4436499" lon="11.2610537"><ele>6.0</ele><time>2026-04-22T10:00:09.059Z</time></trkpt><trkpt lat="42.4434729" lon="11.2612253"><ele>5.0</ele><time>2026-04-22T10:00:10.06Z</time></trkpt><trkpt lat="42.4432928" lon="11.2613859"><ele>5.333333333333334</ele><time>2026-04-22T10:00:11.061Z</time></trkpt><trkpt lat="42.4431154" lon="11.2615475"><ele>5.666666666666667</ele><time>2026-04-22T10:00:12.058Z</time></trkpt><trkpt lat="42.4429343" lon="11.2617101"><ele>6.0</ele><time>2026-04-22T10:00:13.059Z</time></trkpt><trkpt lat="42.4427563" lon="11.2618761"><ele>5.333333333333333</ele><time>2026-04-22T10:00:14.054Z</time></trkpt><trkpt lat="42.4425774" lon="11.2620409"><ele>4.666666666666666</ele><time>2026-04-22T10:00:15.056Z</time></trkpt><trkpt lat="42.4424003" lon="11.2622142"><ele>4.0</ele><time>2026-04-22T10:00:16.056Z</time></trkpt><trkpt lat="42.4422371" lon="11.2623919"><ele>3.333333333333333</ele><time>2026-04-22T10:00:17.043Z</time></trkpt><trkpt lat="42.4420758" lon="11.2625853"><ele>2.6666666666666665</ele><time>2026-04-22T10:00:18.057Z</time></trkpt><trkpt lat="42.4419203" lon="11.2627848"><ele>2.0</ele><time>2026-04-22T10:00:19.05Z</time></trkpt><trkpt lat="42.4417783" lon="11.2629976"><ele>2.0</ele><time>2026-04-22T10:00:20.058Z</time></trkpt><trkpt lat="42.4416367" lon="11.2632193"><ele>2.0</ele><time>2026-04-22T10:00:21.06Z</time></trkpt><trkpt lat="42.4415006" lon="11.263443"><ele>2.0</ele><time>2026-04-22T10:00:22.052Z</time></trkpt><trkpt lat="42.4413718" lon="11.2636691"><ele>1.3333333333333333</ele><time>2026-04-22T10:00:23.054Z</time></trkpt><trkpt lat="42.4412501" lon="11.2639056"><ele>0.6666666666666666</ele><time>2026-04-22T10:00:24.051Z</time></trkpt><trkpt lat="42.441137" lon="11.2641533"><ele>0.0</ele><time>2026-04-22T10:00:25.05Z</time></trkpt><trkpt lat="42.4410349" lon="11.2644135"><ele>0.0</ele><time>2026-04-22T10:00:26.056Z</time></trkpt><trkpt lat="42.4409405" lon="11.2646719"><ele>0.0</ele><time>2026-04-22T10:00:27.057Z</time></trkpt><trkpt lat="42.4408526" lon="11.2649387"><ele>0.0</ele><time>2026-04-22T10:00:28.052Z</time></trkpt><trkpt lat="42.4407705" lon="11.2652076"><ele>0.0</ele><time>2026-04-22T10:00:29.066Z</time></trkpt><trkpt lat="42.4406976" lon="11.265475"><ele>0.0</ele><time>2026-04-22T10:00:30.061Z</time></trkpt><trkpt lat="42.4406268" lon="11.2657395"><ele>0.0</ele><time>2026-04-22T10:00:31.048Z</time></trkpt><trkpt lat="42.4405588" lon="11.2660005"><ele>0.0</ele><time>2026-04-22T10:00:32.057Z</time></trkpt><trkpt lat="42.440491" lon="11.2662657"><ele>0.0</ele><time>2026-04-22T10:00:33.076Z</time></trkpt><trkpt lat="42.4404186" lon="11.2665314"><ele>0.0</ele><time>2026-04-22T10:00:34.066Z</time></trkpt><trkpt lat="42.4403483" lon="11.2667861"><ele>0.0</ele><time>2026-04-22T10:00:35.061Z</time></trkpt><trkpt lat="42.4402731" lon="11.267043"><ele>0.0</ele><time>2026-04-22T10:00:36.043Z</time></trkpt><trkpt lat="42.4402034" lon="11.2672962"><ele>0.0</ele><time>2026-04-22T10:00:37.057Z</time></trkpt><trkpt lat="42.4401353" lon="11.2675567"><ele>0.0</ele><time>2026-04-22T10:00:38.057Z</time></trkpt><trkpt lat="42.4400695" lon="11.2678141"><ele>0.0</ele><time>2026-04-22T10:00:39.059Z</time></trkpt><trkpt lat="42.4399989" lon="11.2680669"><ele>0.0</ele><time>2026-04-22T10:00:40.081Z</time></trkpt><trkpt lat="42.4399237" lon="11.2683223"><ele>0.0</ele><time>2026-04-22T10:00:41.057Z</time></trkpt><trkpt lat="42.4398541" lon="11.2685793"><ele>0.0</ele><time>2026-04-22T10:00:42.062Z</time></trkpt><trkpt lat="42.439789" lon="11.268826"><ele>0.0</ele><time>2026-04-22T10:00:43.074Z</time></trkpt><trkpt lat="42.4397179" lon="11.2690839"><ele>0.0</ele><time>2026-04-22T10:00:44.039Z</time></trkpt><trkpt lat="42.4396508" lon="11.2693381"><ele>0.0</ele><time>2026-04-22T10:00:45.051Z</time></trkpt><trkpt lat="42.439586" lon="11.2695919"><ele>0.0</ele><time>2026-04-22T10:00:46.053Z</time></trkpt><trkpt lat="42.4395195" lon="11.2698494"><ele>0.0</ele><time>2026-04-22T10:00:47.055Z</time></trkpt><trkpt lat="42.439448" lon="11.2701032"><ele>0.0</ele><time>2026-04-22T10:00:48.056Z</time></trkpt><trkpt lat="42.4393818" lon="11.2703623"><ele>0.0</ele><time>2026-04-22T10:00:49.053Z</time></trkpt><trkpt lat="42.4393096" lon="11.2706176"><ele>0.0</ele><time>2026-04-22T10:00:50.058Z</time></trkpt><trkpt lat="42.4392376" lon="11.2708796"><ele>0.0</ele><time>2026-04-22T10:00:51.043Z</time></trkpt><trkpt lat="42.4391696" lon="11.2711447"><ele>0.0</ele><time>2026-04-22T10:00:52.053Z</time></trkpt><trkpt lat="42.4390986" lon="11.2714175"><ele>0.3333333333333333</ele><time>2026-04-22T10:00:53.059Z</time></trkpt><trkpt lat="42.4390297" lon="11.2716909"><ele>0.6666666666666666</ele><time>2026-04-22T10:00:54.052Z</time></trkpt><trkpt lat="42.4389573" lon="11.2719651"><ele>1.0</ele><time>2026-04-22T10:00:55.056Z</time></trkpt><trkpt lat="42.4388836" lon="11.2722442"><ele>1.0</ele><time>2026-04-22T10:00:56.064Z</time></trkpt><trkpt lat="42.4388104" lon="11.272516"><ele>1.0</ele><time>2026-04-22T10:00:57.06Z</time></trkpt><trkpt lat="42.4387382" lon="11.2727919"><ele>1.0</ele><time>2026-04-22T10:00:58.048Z</time></trkpt><trkpt lat="42.4386645" lon="11.2730689"><ele>0.5</ele><time>2026-04-22T10:00:59.055Z</time></trkpt><trkpt lat="42.4385877" lon="11.2733541"><ele>0.0</ele><time>2026-04-22T10:01:00.057Z</time></trkpt><trkpt lat="42.4385126" lon="11.2736433"><ele>0.0</ele><time>2026-04-22T10:01:01.059Z</time></trkpt><trkpt lat="42.4384378" lon="11.2739349"><ele>0.0</ele><time>2026-04-22T10:01:02.052Z</time></trkpt><trkpt lat="42.4383573" lon="11.2742279"><ele>-0.5</ele><time>2026-04-22T10:01:03.057Z</time></trkpt><trkpt lat="42.438273" lon="11.274526"><ele>-1.0</ele><time>2026-04-22T10:01:04.054Z</time></trkpt><trkpt lat="42.438194" lon="11.2748195"><ele>0.0</ele><time>2026-04-22T10:01:05.034Z</time></trkpt><trkpt lat="42.4381166" lon="11.2751094"><ele>1.0</ele><time>2026-04-22T10:01:06.042Z</time></trkpt><trkpt lat="42.4380436" lon="11.2754073"><ele>1.5</ele><time>2026-04-22T10:01:07.047Z</time></trkpt><trkpt lat="42.4379741" lon="11.2757081"><ele>2.0</ele><time>2026-04-22T10:01:08.059Z</time></trkpt><trkpt lat="42.4378876" lon="11.2760049"><ele>0.5</ele><time>2026-04-22T10:01:09.054Z</time></trkpt><trkpt lat="42.4378069" lon="11.2762987"><ele>-1.0</ele><time>2026-04-22T10:01:10.051Z</time></trkpt><trkpt lat="42.437719" lon="11.2765856"><ele>-1.0</ele><time>2026-04-22T10:01:11.058Z</time></trkpt><trkpt lat="42.437623" lon="11.2768692"><ele>-1.0</ele><time>2026-04-22T10:01:12.061Z</time></trkpt><trkpt lat="42.437516" lon="11.2771481"><ele>-0.3333333333333333</ele><time>2026-04-22T10:01:13.064Z</time></trkpt><trkpt lat="42.4374014" lon="11.2774108"><ele>0.3333333333333333</ele><time>2026-04-22T10:01:14.053Z</time></trkpt><trkpt lat="42.43728" lon="11.2776584"><ele>1.0</ele><time>2026-04-22T10:01:15.053Z</time></trkpt><trkpt lat="42.437155" lon="11.2779069"><ele>1.3333333333333333</ele><time>2026-04-22T10:01:16.059Z</time></trkpt><trkpt lat="42.4370318" lon="11.2781489"><ele>1.6666666666666665</ele><time>2026-04-22T10:01:17.063Z</time></trkpt><trkpt lat="42.4369008" lon="11.2783819"><ele>2.0</ele><time>2026-04-22T10:01:18.05Z</time></trkpt><trkpt lat="42.4367646" lon="11.2786171"><ele>2.0</ele><time>2026-04-22T10:01:19.056Z</time></trkpt><trkpt lat="42.4366199" lon="11.2788451"><ele>2.0</ele><time>2026-04-22T10:01:20.065Z</time></trkpt><trkpt lat="42.4364698" lon="11.2790646"><ele>2.0</ele><time>2026-04-22T10:01:21.066Z</time></trkpt><trkpt lat="42.4363072" lon="11.2792792"><ele>1.6666666666666665</ele><time>2026-04-22T10:01:22.053Z</time></trkpt><trkpt lat="42.4361493" lon="11.2794891"><ele>1.3333333333333333</ele><time>2026-04-22T10:01:23.057Z</time></trkpt><trkpt lat="42.4359833" lon="11.2796922"><ele>1.0</ele><time>2026-04-22T10:01:24.058Z</time></trkpt><trkpt lat="42.4358116" lon="11.2798897"><ele>1.0</ele><time>2026-04-22T10:01:25.056Z</time></trkpt><trkpt lat="42.4356312" lon="11.2800841"><ele>1.0</ele><time>2026-04-22T10:01:26.054Z</time></trkpt><trkpt lat="42.4354415" lon="11.280284"><ele>1.5</ele><time>2026-04-22T10:01:27.059Z</time></trkpt><trkpt lat="42.4352497" lon="11.280481"><ele>2.0</ele><time>2026-04-22T10:01:28.05Z</time></trkpt><trkpt lat="42.4350526" lon="11.2806791"><ele>2.5</ele><time>2026-04-22T10:01:29.056Z</time></trkpt><trkpt lat="42.4348503" lon="11.2808828"><ele>3.0</ele><time>2026-04-22T10:01:30.051Z</time></trkpt><trkpt lat="42.4346452" lon="11.281092"><ele>2.0</ele><time>2026-04-22T10:01:31.059Z</time></trkpt><trkpt lat="42.4344377" lon="11.281296"><ele>1.0</ele><time>2026-04-22T10:01:32.061Z</time></trkpt><trkpt lat="42.4342362" lon="11.2814982"><ele>0.5</ele><time>2026-04-22T10:01:33.056Z</time></trkpt><trkpt lat="42.4340331" lon="11.2816978"><ele>0.0</ele><time>2026-04-22T10:01:34.044Z</time></trkpt><trkpt lat="42.4338262" lon="11.2818986"><ele>0.0</ele><time>2026-04-22T10:01:35.036Z</time></trkpt><trkpt lat="42.4336252" lon="11.2820951"><ele>0.0</ele><time>2026-04-22T10:01:36.052Z</time></trkpt><trkpt lat="42.4334303" lon="11.2822917"><ele>1.0</ele><time>2026-04-22T10:01:37.045Z</time></trkpt><trkpt lat="42.4332284" lon="11.2824885"><ele>2.0</ele><time>2026-04-22T10:01:38.038Z</time></trkpt><trkpt lat="42.433035" lon="11.2826869"><ele>1.5</ele><time>2026-04-22T10:01:39.043Z</time></trkpt><trkpt lat="42.4328331" lon="11.2828851"><ele>1.0</ele><time>2026-04-22T10:01:40.05Z</time></trkpt><trkpt lat="42.4326394" lon="11.2830731"><ele>2.0</ele><time>2026-04-22T10:01:41.046Z</time></trkpt><trkpt lat="42.4324454" lon="11.283262"><ele>3.0</ele><time>2026-04-22T10:01:42.038Z</time></trkpt><trkpt lat="42.432254" lon="11.283445"><ele>2.0</ele><time>2026-04-22T10:01:43.061Z</time></trkpt><trkpt lat="42.4320554" lon="11.2836314"><ele>1.0</ele><time>2026-04-22T10:01:44.049Z</time></trkpt><trkpt lat="42.431865" lon="11.283821"><ele>2.0</ele><time>2026-04-22T10:01:45.061Z</time></trkpt><trkpt lat="42.4316693" lon="11.284005"><ele>3.0</ele><time>2026-04-22T10:01:46.065Z</time></trkpt><trkpt lat="42.4314736" lon="11.2841985"><ele>3.0</ele><time>2026-04-22T10:01:47.04Z</time></trkpt><trkpt lat="42.4312795" lon="11.2843873"><ele>3.0</ele><time>2026-04-22T10:01:48.069Z</time></trkpt><trkpt lat="42.4310888" lon="11.2845767"><ele>3.0</ele><time>2026-04-22T10:01:49.047Z</time></trkpt><trkpt lat="42.4308923" lon="11.2847582"><ele>3.0</ele><time>2026-04-22T10:01:50.047Z</time></trkpt><trkpt lat="42.4306905" lon="11.284938"><ele>3.0</ele><time>2026-04-22T10:01:51.052Z</time></trkpt><trkpt lat="42.4304842" lon="11.2851194"><ele>3.0</ele><time>2026-04-22T10:01:52.06Z</time></trkpt><trkpt lat="42.4302724" lon="11.2852872"><ele>3.5</ele><time>2026-04-22T10:01:53.062Z</time></trkpt><trkpt lat="42.4300529" lon="11.2854409"><ele>4.0</ele><time>2026-04-22T10:01:54.055Z</time></trkpt><trkpt lat="42.4298296" lon="11.2855785"><ele>7.5</ele><time>2026-04-22T10:01:55.075Z</time></trkpt><trkpt lat="42.4296035" lon="11.2857055"><ele>11.0</ele><time>2026-04-22T10:01:56.057Z</time></trkpt><trkpt lat="42.4293714" lon="11.285831"><ele>11.0</ele><time>2026-04-22T10:01:57.049Z</time></trkpt><trkpt lat="42.4291372" lon="11.2859425"><ele>11.0</ele><time>2026-04-22T10:01:58.057Z</time></trkpt><trkpt lat="42.4289028" lon="11.286047"><ele>12.0</ele><time>2026-04-22T10:01:59.051Z</time></trkpt><trkpt lat="42.4286704" lon="11.2861516"><ele>13.0</ele><time>2026-04-22T10:02:00.066Z</time></trkpt><trkpt lat="42.4284374" lon="11.2862602"><ele>13.0</ele><time>2026-04-22T10:02:01.054Z</time></trkpt><trkpt lat="42.4282109" lon="11.286363"><ele>13.0</ele><time>2026-04-22T10:02:02.061Z</time></trkpt><trkpt lat="42.4279799" lon="11.2864669"><ele>16.0</ele><time>2026-04-22T10:02:03.055Z</time></trkpt><trkpt lat="42.4277535" lon="11.2865707"><ele>19.0</ele><time>2026-04-22T10:02:04.052Z</time></trkpt><trkpt lat="42.4275224" lon="11.2866742"><ele>19.0</ele><time>2026-04-22T10:02:05.053Z</time></trkpt><trkpt lat="42.4272876" lon="11.2867726"><ele>19.0</ele><time>2026-04-22T10:02:06.058Z</time></trkpt><trkpt lat="42.4270516" lon="11.2868628"><ele>22.5</ele><time>2026-04-22T10:02:07.05Z</time></trkpt><trkpt lat="42.4268154" lon="11.2869551"><ele>26.0</ele><time>2026-04-22T10:02:08.061Z</time></trkpt><trkpt lat="42.4265794" lon="11.2870476"><ele>26.0</ele><time>2026-04-22T10:02:09.067Z</time></trkpt><trkpt lat="42.4263483" lon="11.2871482"><ele>26.0</ele><time>2026-04-22T10:02:10.053Z</time></trkpt><trkpt lat="42.4261185" lon="11.2872465"><ele>28.5</ele><time>2026-04-22T10:02:11.048Z</time></trkpt><trkpt lat="42.4258906" lon="11.2873457"><ele>31.0</ele><time>2026-04-22T10:02:12.062Z</time></trkpt><trkpt lat="42.4256611" lon="11.2874543"><ele>29.5</ele><time>2026-04-22T10:02:13.053Z</time></trkpt><trkpt lat="42.4254301" lon="11.2875611"><ele>28.0</ele><time>2026-04-22T10:02:14.053Z</time></trkpt><trkpt lat="42.4251928" lon="11.2876703"><ele>28.0</ele><time>2026-04-22T10:02:15.07Z</time></trkpt><trkpt lat="42.4249619" lon="11.2877692"><ele>28.0</ele><time>2026-04-22T10:02:16.057Z</time></trkpt><trkpt lat="42.4247282" lon="11.2878699"><ele>28.0</ele><time>2026-04-22T10:02:17.061Z</time></trkpt><trkpt lat="42.4244909" lon="11.2879752"><ele>28.0</ele><time>2026-04-22T10:02:18.055Z</time></trkpt><trkpt lat="42.4242552" lon="11.2880844"><ele>27.5</ele><time>2026-04-22T10:02:19.05Z</time></trkpt><trkpt lat="42.4240198" lon="11.2881921"><ele>27.0</ele><time>2026-04-22T10:02:20.057Z</time></trkpt><trkpt lat="42.4237858" lon="11.2882957"><ele>27.0</ele><time>2026-04-22T10:02:21.052Z</time></trkpt><trkpt lat="42.4235545" lon="11.2883949"><ele>27.0</ele><time>2026-04-22T10:02:22.053Z</time></trkpt><trkpt lat="42.4233246" lon="11.2884976"><ele>27.0</ele><time>2026-04-22T10:02:23.041Z</time></trkpt><trkpt lat="42.4230899" lon="11.2886026"><ele>27.0</ele><time>2026-04-22T10:02:24.068Z</time></trkpt><trkpt lat="42.4228574" lon="11.2887132"><ele>25.0</ele><time>2026-04-22T10:02:25.047Z</time></trkpt><trkpt lat="42.4226265" lon="11.2888206"><ele>23.0</ele><time>2026-04-22T10:02:26.057Z</time></trkpt><trkpt lat="42.4223938" lon="11.2889412"><ele>23.0</ele><time>2026-04-22T10:02:27.052Z</time></trkpt><trkpt lat="42.422172" lon="11.2890744"><ele>23.0</ele><time>2026-04-22T10:02:28.043Z</time></trkpt><trkpt lat="42.4219529" lon="11.2892236"><ele>20.0</ele><time>2026-04-22T10:02:29.05Z</time></trkpt><trkpt lat="42.4217405" lon="11.2893861"><ele>17.0</ele><time>2026-04-22T10:02:30.062Z</time></trkpt><trkpt lat="42.4215345" lon="11.289557"><ele>17.0</ele><time>2026-04-22T10:02:31.067Z</time></trkpt><trkpt lat="42.4213311" lon="11.2897332"><ele>17.0</ele><time>2026-04-22T10:02:32.056Z</time></trkpt><trkpt lat="42.4211393" lon="11.2899257"><ele>16.0</ele><time>2026-04-22T10:02:33.058Z</time></trkpt><trkpt lat="42.4209515" lon="11.2901339"><ele>15.0</ele><time>2026-04-22T10:02:34.069Z</time></trkpt><trkpt lat="42.4207697" lon="11.2903634"><ele>13.5</ele><time>2026-04-22T10:02:35.059Z</time></trkpt><trkpt lat="42.420597" lon="11.2905972"><ele>12.0</ele><time>2026-04-22T10:02:36.056Z</time></trkpt><trkpt lat="42.4204315" lon="11.2908472"><ele>12.0</ele><time>2026-04-22T10:02:37.052Z</time></trkpt><trkpt lat="42.4202819" lon="11.2911179"><ele>12.0</ele><time>2026-04-22T10:02:38.055Z</time></trkpt><trkpt lat="42.4201375" lon="11.2913815"><ele>12.5</ele><time>2026-04-22T10:02:39.056Z</time></trkpt><trkpt lat="42.4199986" lon="11.2916514"><ele>13.0</ele><time>2026-04-22T10:02:40.059Z</time></trkpt><trkpt lat="42.4198674" lon="11.2919315"><ele>13.0</ele><time>2026-04-22T10:02:41.057Z</time></trkpt><trkpt lat="42.4197414" lon="11.2922178"><ele>13.0</ele><time>2026-04-22T10:02:42.065Z</time></trkpt><trkpt lat="42.4196239" lon="11.2925117"><ele>12.0</ele><time>2026-04-22T10:02:43.065Z</time></trkpt><trkpt lat="42.4195141" lon="11.2928119"><ele>11.0</ele><time>2026-04-22T10:02:44.052Z</time></trkpt><trkpt lat="42.419417" lon="11.2931213"><ele>11.0</ele><time>2026-04-22T10:02:45.053Z</time></trkpt><trkpt lat="42.4193283" lon="11.293425"><ele>11.0</ele><time>2026-04-22T10:02:46.067Z</time></trkpt><trkpt lat="42.4192522" lon="11.293741"><ele>13.0</ele><time>2026-04-22T10:02:47.056Z</time></trkpt><trkpt lat="42.4191872" lon="11.2940561"><ele>15.0</ele><time>2026-04-22T10:02:48.058Z</time></trkpt><trkpt lat="42.4191352" lon="11.2943777"><ele>15.0</ele><time>2026-04-22T10:02:49.051Z</time></trkpt><trkpt lat="42.4190903" lon="11.2946952"><ele>15.0</ele><time>2026-04-22T10:02:50.053Z</time></trkpt><trkpt lat="42.4190487" lon="11.2950202"><ele>16.5</ele><time>2026-04-22T10:02:51.054Z</time></trkpt><trkpt lat="42.4190111" lon="11.2953458"><ele>18.0</ele><time>2026-04-22T10:02:52.041Z</time></trkpt><trkpt lat="42.4189876" lon="11.2956712"><ele>19.0</ele><time>2026-04-22T10:02:53.066Z</time></trkpt><trkpt lat="42.4189637" lon="11.2959995"><ele>20.0</ele><time>2026-04-22T10:02:54.067Z</time></trkpt><trkpt lat="42.4189437" lon="11.2963321"><ele>21.0</ele><time>2026-04-22T10:02:55.065Z</time></trkpt><trkpt lat="42.4189249" lon="11.2966676"><ele>22.0</ele><time>2026-04-22T10:02:56.056Z</time></trkpt><trkpt lat="42.418902" lon="11.2969991"><ele>21.5</ele><time>2026-04-22T10:02:57.061Z</time></trkpt><trkpt lat="42.4188811" lon="11.2973315"><ele>21.0</ele><time>2026-04-22T10:02:58.057Z</time></trkpt><trkpt lat="42.4188607" lon="11.2976604"><ele>21.0</ele><time>2026-04-22T10:02:59.06Z</time></trkpt><trkpt lat="42.4188391" lon="11.2979846"><ele>21.0</ele><time>2026-04-22T10:03:00.068Z</time></trkpt><trkpt lat="42.4188174" lon="11.2983135"><ele>21.5</ele><time>2026-04-22T10:03:01.054Z</time></trkpt><trkpt lat="42.4187941" lon="11.2986404"><ele>22.0</ele><time>2026-04-22T10:03:02.061Z</time></trkpt><trkpt lat="42.4187748" lon="11.2989704"><ele>22.0</ele><time>2026-04-22T10:03:03.057Z</time></trkpt><trkpt lat="42.4187519" lon="11.2993012"><ele>22.0</ele><time>2026-04-22T10:03:04.053Z</time></trkpt><trkpt lat="42.4187274" lon="11.2996308"><ele>21.0</ele><time>2026-04-22T10:03:05.061Z</time></trkpt><trkpt lat="42.4187018" lon="11.2999585"><ele>20.0</ele><time>2026-04-22T10:03:06.068Z</time></trkpt><trkpt lat="42.4186798" lon="11.3002902"><ele>18.0</ele><time>2026-04-22T10:03:07.04Z</time></trkpt><trkpt lat="42.4186593" lon="11.3006155"><ele>16.0</ele><time>2026-04-22T10:03:08.067Z</time></trkpt><trkpt lat="42.418636" lon="11.3009411"><ele>16.0</ele><time>2026-04-22T10:03:09.058Z</time></trkpt><trkpt lat="42.4186043" lon="11.3012527"><ele>16.0</ele><time>2026-04-22T10:03:10.07Z</time></trkpt><trkpt lat="42.4185727" lon="11.3015448"><ele>14.666666666666666</ele><time>2026-04-22T10:03:11.053Z</time></trkpt><trkpt lat="42.41854" lon="11.3018168"><ele>13.333333333333332</ele><time>2026-04-22T10:03:12.051Z</time></trkpt><trkpt lat="42.4185053" lon="11.3020789"><ele>12.0</ele><time>2026-04-22T10:03:13.056Z</time></trkpt><trkpt lat="42.4184636" lon="11.3023341"><ele>11.0</ele><time>2026-04-22T10:03:14.052Z</time></trkpt><trkpt lat="42.4184258" lon="11.3025798"><ele>10.0</ele><time>2026-04-22T10:03:15.057Z</time></trkpt><trkpt lat="42.4183854" lon="11.3028098"><ele>9.0</ele><time>2026-04-22T10:03:16.054Z</time></trkpt><trkpt lat="42.4183433" lon="11.3030408"><ele>8.333333333333334</ele><time>2026-04-22T10:03:17.067Z</time></trkpt><trkpt lat="42.4182972" lon="11.3032709"><ele>7.666666666666667</ele><time>2026-04-22T10:03:18.064Z</time></trkpt><trkpt lat="42.4182459" lon="11.3034986"><ele>7.0</ele><time>2026-04-22T10:03:19.058Z</time></trkpt><trkpt lat="42.4181999" lon="11.3037342"><ele>6.666666666666667</ele><time>2026-04-22T10:03:20.058Z</time></trkpt><trkpt lat="42.4181569" lon="11.3039762"><ele>6.333333333333334</ele><time>2026-04-22T10:03:21.06Z</time></trkpt><trkpt lat="42.4181131" lon="11.3042347"><ele>6.0</ele><time>2026-04-22T10:03:22.054Z</time></trkpt><trkpt lat="42.4180685" lon="11.3044789"><ele>6.0</ele><time>2026-04-22T10:03:23.057Z</time></trkpt><trkpt lat="42.418016" lon="11.304712"><ele>6.0</ele><time>2026-04-22T10:03:24.055Z</time></trkpt><trkpt lat="42.4179668" lon="11.3049399"><ele>6.0</ele><time>2026-04-22T10:03:25.045Z</time></trkpt><trkpt lat="42.41792" lon="11.305172"><ele>6.333333333333334</ele><time>2026-04-22T10:03:26.051Z</time></trkpt><trkpt lat="42.4178729" lon="11.3054156"><ele>6.666666666666667</ele><time>2026-04-22T10:03:27.059Z</time></trkpt><trkpt lat="42.4178212" lon="11.3056817"><ele>7.0</ele><time>2026-04-22T10:03:28.055Z</time></trkpt><trkpt lat="42.4177695" lon="11.3059743"><ele>7.0</ele><time>2026-04-22T10:03:29.055Z</time></trkpt><trkpt lat="42.4177124" lon="11.3062738"><ele>7.0</ele><time>2026-04-22T10:03:30.062Z</time></trkpt><trkpt lat="42.4176486" lon="11.3065923"><ele>8.5</ele><time>2026-04-22T10:03:31.051Z</time></trkpt><trkpt lat="42.4175859" lon="11.3069119"><ele>10.0</ele><time>2026-04-22T10:03:32.05Z</time></trkpt><trkpt lat="42.4175192" lon="11.3072357"><ele>10.5</ele><time>2026-04-22T10:03:33.058Z</time></trkpt><trkpt lat="42.4174537" lon="11.3075611"><ele>11.0</ele><time>2026-04-22T10:03:34.067Z</time></trkpt><trkpt lat="42.4173856" lon="11.3078875"><ele>10.5</ele><time>2026-04-22T10:03:35.06Z</time></trkpt><trkpt lat="42.4173191" lon="11.3082131"><ele>10.0</ele><time>2026-04-22T10:03:36.047Z</time></trkpt><trkpt lat="42.417255" lon="11.3085305"><ele>10.0</ele><time>2026-04-22T10:03:37.052Z</time></trkpt><trkpt lat="42.4171926" lon="11.3088542"><ele>10.0</ele><time>2026-04-22T10:03:38.046Z</time></trkpt><trkpt lat="42.4171289" lon="11.3091752"><ele>10.0</ele><time>2026-04-22T10:03:39.055Z</time></trkpt><trkpt lat="42.4170653" lon="11.3094946"><ele>10.0</ele><time>2026-04-22T10:03:40.057Z</time></trkpt><trkpt lat="42.4169966" lon="11.309811"><ele>10.0</ele><time>2026-04-22T10:03:41.043Z</time></trkpt><trkpt lat="42.4169307" lon="11.3101311"><ele>10.0</ele><time>2026-04-22T10:03:42.061Z</time></trkpt><trkpt lat="42.4168639" lon="11.3104515"><ele>10.5</ele><time>2026-04-22T10:03:43.057Z</time></trkpt><trkpt lat="42.4167999" lon="11.3107733"><ele>11.0</ele><time>2026-04-22T10:03:44.054Z</time></trkpt><trkpt lat="42.4167349" lon="11.3111002"><ele>11.0</ele><time>2026-04-22T10:03:45.064Z</time></trkpt><trkpt lat="42.4166702" lon="11.3114197"><ele>11.0</ele><time>2026-04-22T10:03:46.057Z</time></trkpt><trkpt lat="42.4166063" lon="11.3117427"><ele>11.0</ele><time>2026-04-22T10:03:47.049Z</time></trkpt><trkpt lat="42.4165456" lon="11.312068"><ele>11.0</ele><time>2026-04-22T10:03:48.068Z</time></trkpt><trkpt lat="42.4164842" lon="11.3123949"><ele>11.0</ele><time>2026-04-22T10:03:49.047Z</time></trkpt><trkpt lat="42.416424" lon="11.312719"><ele>11.0</ele><time>2026-04-22T10:03:50.063Z</time></trkpt><trkpt lat="42.4163664" lon="11.3130426"><ele>10.0</ele><time>2026-04-22T10:03:51.035Z</time></trkpt><trkpt lat="42.416317" lon="11.313367"><ele>9.0</ele><time>2026-04-22T10:03:52.07Z</time></trkpt><trkpt lat="42.4162723" lon="11.3136928"><ele>7.5</ele><time>2026-04-22T10:03:53.059Z</time></trkpt><trkpt lat="42.4162313" lon="11.3140211"><ele>6.0</ele><time>2026-04-22T10:03:54.058Z</time></trkpt><trkpt lat="42.4161852" lon="11.3143461"><ele>6.0</ele><time>2026-04-22T10:03:55.052Z</time></trkpt><trkpt lat="42.4161424" lon="11.3146594"><ele>6.0</ele><time>2026-04-22T10:03:56.058Z</time></trkpt><trkpt lat="42.4161036" lon="11.3149525"><ele>5.666666666666667</ele><time>2026-04-22T10:03:57.052Z</time></trkpt><trkpt lat="42.4160621" lon="11.315232"><ele>5.333333333333334</ele><time>2026-04-22T10:03:58.066Z</time></trkpt><trkpt lat="42.4160266" lon="11.3155174"><ele>5.0</ele><time>2026-04-22T10:03:59.05Z</time></trkpt><trkpt lat="42.4159895" lon="11.3158033"><ele>4.666666666666667</ele><time>2026-04-22T10:04:00.069Z</time></trkpt><trkpt lat="42.4159539" lon="11.3160977"><ele>4.333333333333333</ele><time>2026-04-22T10:04:01.078Z</time></trkpt><trkpt lat="42.4159201" lon="11.3163962"><ele>4.0</ele><time>2026-04-22T10:04:02.047Z</time></trkpt><trkpt lat="42.415884" lon="11.3167044"><ele>4.0</ele><time>2026-04-22T10:04:03.058Z</time></trkpt><trkpt lat="42.4158492" lon="11.317014"><ele>4.0</ele><time>2026-04-22T10:04:04.055Z</time></trkpt><trkpt lat="42.4158126" lon="11.3173145"><ele>4.0</ele><time>2026-04-22T10:04:05.055Z</time></trkpt><trkpt lat="42.4157743" lon="11.3176161"><ele>4.0</ele><time>2026-04-22T10:04:06.059Z</time></trkpt><trkpt lat="42.4157403" lon="11.3179151"><ele>4.0</ele><time>2026-04-22T10:04:07.048Z</time></trkpt><trkpt lat="42.4157111" lon="11.3182134"><ele>5.5</ele><time>2026-04-22T10:04:08.061Z</time></trkpt><trkpt lat="42.4156757" lon="11.3185144"><ele>7.0</ele><time>2026-04-22T10:04:09.037Z</time></trkpt><trkpt lat="42.4156381" lon="11.3188148"><ele>6.666666666666667</ele><time>2026-04-22T10:04:10.068Z</time></trkpt><trkpt lat="42.4156065" lon="11.3191119"><ele>6.333333333333334</ele><time>2026-04-22T10:04:11.053Z</time></trkpt><trkpt lat="42.4155702" lon="11.3194102"><ele>6.0</ele><time>2026-04-22T10:04:12.058Z</time></trkpt><trkpt lat="42.4155356" lon="11.3197139"><ele>6.0</ele><time>2026-04-22T10:04:13.054Z</time></trkpt><trkpt lat="42.4155" lon="11.3200131"><ele>6.0</ele><time>2026-04-22T10:04:14.061Z</time></trkpt><trkpt lat="42.415468" lon="11.3203223"><ele>6.0</ele><time>2026-04-22T10:04:15.048Z</time></trkpt><trkpt lat="42.4154351" lon="11.3206261"><ele>6.0</ele><time>2026-04-22T10:04:16.044Z</time></trkpt><trkpt lat="42.4154007" lon="11.3209274"><ele>6.0</ele><time>2026-04-22T10:04:17.058Z</time></trkpt><trkpt lat="42.4153668" lon="11.3212308"><ele>6.0</ele><time>2026-04-22T10:04:18.041Z</time></trkpt><trkpt lat="42.4153316" lon="11.321532"><ele>6.666666666666666</ele><time>2026-04-22T10:04:19.033Z</time></trkpt><trkpt lat="42.4152927" lon="11.3218328"><ele>7.333333333333333</ele><time>2026-04-22T10:04:20.049Z</time></trkpt><trkpt lat="42.4152579" lon="11.3221293"><ele>8.0</ele><time>2026-04-22T10:04:21.054Z</time></trkpt><trkpt lat="42.4152217" lon="11.3224284"><ele>8.0</ele><time>2026-04-22T10:04:22.077Z</time></trkpt><trkpt lat="42.4151874" lon="11.3227329"><ele>8.0</ele><time>2026-04-22T10:04:23.044Z</time></trkpt><trkpt lat="42.4151528" lon="11.3230354"><ele>8.0</ele><time>2026-04-22T10:04:24.041Z</time></trkpt><trkpt lat="42.4151176" lon="11.3233334"><ele>8.0</ele><time>2026-04-22T10:04:25.055Z</time></trkpt><trkpt lat="42.4150813" lon="11.323634"><ele>8.0</ele><time>2026-04-22T10:04:26.045Z</time></trkpt><trkpt lat="42.4150489" lon="11.3239338"><ele>7.666666666666666</ele><time>2026-04-22T10:04:27.045Z</time></trkpt><trkpt lat="42.4150132" lon="11.3242352"><ele>7.333333333333334</ele><time>2026-04-22T10:04:28.047Z</time></trkpt><trkpt lat="42.4149836" lon="11.3245346"><ele>7.0</ele><time>2026-04-22T10:04:29.053Z</time></trkpt><trkpt lat="42.4149527" lon="11.324839"><ele>7.0</ele><time>2026-04-22T10:04:30.066Z</time></trkpt><trkpt lat="42.4149193" lon="11.3251449"><ele>7.0</ele><time>2026-04-22T10:04:31.051Z</time></trkpt><trkpt lat="42.4148937" lon="11.3254379"><ele>7.0</ele><time>2026-04-22T10:04:32.066Z</time></trkpt><trkpt lat="42.4148635" lon="11.3257183"><ele>7.333333333333334</ele><time>2026-04-22T10:04:33.063Z</time></trkpt><trkpt lat="42.414838" lon="11.3259977"><ele>7.666666666666666</ele><time>2026-04-22T10:04:34.05Z</time></trkpt><trkpt lat="42.4148102" lon="11.3262759"><ele>8.0</ele><time>2026-04-22T10:04:35.052Z</time></trkpt><trkpt lat="42.4147897" lon="11.3265509"><ele>8.0</ele><time>2026-04-22T10:04:36.05Z</time></trkpt><trkpt lat="42.4147722" lon="11.3268228"><ele>8.0</ele><time>2026-04-22T10:04:37.057Z</time></trkpt><trkpt lat="42.4147481" lon="11.3270957"><ele>8.0</ele><time>2026-04-22T10:04:38.06Z</time></trkpt><trkpt lat="42.4147292" lon="11.3273749"><ele>8.0</ele><time>2026-04-22T10:04:39.059Z</time></trkpt><trkpt lat="42.4147119" lon="11.3276468"><ele>8.0</ele><time>2026-04-22T10:04:40.053Z</time></trkpt><trkpt lat="42.4146867" lon="11.3279313"><ele>8.0</ele><time>2026-04-22T10:04:41.048Z</time></trkpt><trkpt lat="42.4146709" lon="11.3282089"><ele>7.333333333333333</ele><time>2026-04-22T10:04:42.044Z</time></trkpt><trkpt lat="42.4146542" lon="11.3284869"><ele>6.666666666666666</ele><time>2026-04-22T10:04:43.058Z</time></trkpt><trkpt lat="42.4146402" lon="11.3287615"><ele>6.0</ele><time>2026-04-22T10:04:44.069Z</time></trkpt><trkpt lat="42.41463" lon="11.3290383"><ele>6.0</ele><time>2026-04-22T10:04:45.056Z</time></trkpt><trkpt lat="42.4146177" lon="11.3293191"><ele>6.0</ele><time>2026-04-22T10:04:46.061Z</time></trkpt><trkpt lat="42.4146032" lon="11.3296091"><ele>6.0</ele><time>2026-04-22T10:04:47.065Z</time></trkpt><trkpt lat="42.4145864" lon="11.3298911"><ele>5.666666666666667</ele><time>2026-04-22T10:04:48.063Z</time></trkpt><trkpt lat="42.4145689" lon="11.3301698"><ele>5.333333333333334</ele><time>2026-04-22T10:04:49.055Z</time></trkpt><trkpt lat="42.4145574" lon="11.3304472"><ele>5.0</ele><time>2026-04-22T10:04:50.053Z</time></trkpt><trkpt lat="42.4145469" lon="11.3307288"><ele>4.666666666666667</ele><time>2026-04-22T10:04:51.052Z</time></trkpt><trkpt lat="42.4145377" lon="11.3310149"><ele>4.333333333333333</ele><time>2026-04-22T10:04:52.055Z</time></trkpt><trkpt lat="42.4145195" lon="11.331299"><ele>4.0</ele><time>2026-04-22T10:04:53.059Z</time></trkpt><trkpt lat="42.4145069" lon="11.331587"><ele>4.0</ele><time>2026-04-22T10:04:54.066Z</time></trkpt><trkpt lat="42.4144939" lon="11.3318743"><ele>4.0</ele><time>2026-04-22T10:04:55.055Z</time></trkpt><trkpt lat="42.4144792" lon="11.3321645"><ele>4.0</ele><time>2026-04-22T10:04:56.052Z</time></trkpt><trkpt lat="42.4144637" lon="11.3324525"><ele>4.0</ele><time>2026-04-22T10:04:57.057Z</time></trkpt><trkpt lat="42.4144503" lon="11.3327369"><ele>4.0</ele><time>2026-04-22T10:04:58.041Z</time></trkpt><trkpt lat="42.4144352" lon="11.3330223"><ele>4.0</ele><time>2026-04-22T10:04:59.044Z</time></trkpt><trkpt lat="42.4144209" lon="11.3333116"><ele>4.333333333333333</ele><time>2026-04-22T10:05:00.073Z</time></trkpt><trkpt lat="42.4144094" lon="11.3336088"><ele>4.666666666666667</ele><time>2026-04-22T10:05:01.06Z</time></trkpt><trkpt lat="42.414394" lon="11.3339046"><ele>5.0</ele><time>2026-04-22T10:05:02.061Z</time></trkpt><trkpt lat="42.4143791" lon="11.3342031"><ele>5.0</ele><time>2026-04-22T10:05:03.07Z</time></trkpt><trkpt lat="42.4143627" lon="11.3344996"><ele>5.0</ele><time>2026-04-22T10:05:04.061Z</time></trkpt><trkpt lat="42.4143471" lon="11.3348013"><ele>5.0</ele><time>2026-04-22T10:05:05.066Z</time></trkpt><trkpt lat="42.4143301" lon="11.3351068"><ele>5.333333333333334</ele><time>2026-04-22T10:05:06.045Z</time></trkpt><trkpt lat="42.4143138" lon="11.3354046"><ele>5.666666666666667</ele><time>2026-04-22T10:05:07.069Z</time></trkpt><trkpt lat="42.4143044" lon="11.3357063"><ele>6.0</ele><time>2026-04-22T10:05:08.06Z</time></trkpt><trkpt lat="42.4143034" lon="11.3360105"><ele>6.0</ele><time>2026-04-22T10:05:09.066Z</time></trkpt><trkpt lat="42.4143042" lon="11.3363072"><ele>6.0</ele><time>2026-04-22T10:05:10.074Z</time></trkpt><trkpt lat="42.4143176" lon="11.3366009"><ele>6.0</ele><time>2026-04-22T10:05:11.083Z</time></trkpt><trkpt lat="42.4143495" lon="11.3368947"><ele>6.0</ele><time>2026-04-22T10:05:12.06Z</time></trkpt><trkpt lat="42.414393" lon="11.337193"><ele>6.0</ele><time>2026-04-22T10:05:13.056Z</time></trkpt><trkpt lat="42.4144424" lon="11.3374962"><ele>6.0</ele><time>2026-04-22T10:05:14.058Z</time></trkpt><trkpt lat="42.4145029" lon="11.3377999"><ele>6.0</ele><time>2026-04-22T10:05:15.04Z</time></trkpt><trkpt lat="42.4145745" lon="11.3380951"><ele>7.0</ele><time>2026-04-22T10:05:16.036Z</time></trkpt><trkpt lat="42.4146544" lon="11.3383918"><ele>8.0</ele><time>2026-04-22T10:05:17.06Z</time></trkpt><trkpt lat="42.4147377" lon="11.3386923"><ele>10.0</ele><time>2026-04-22T10:05:18.061Z</time></trkpt><trkpt lat="42.4148262" lon="11.3389944"><ele>12.0</ele><time>2026-04-22T10:05:19.062Z</time></trkpt><trkpt lat="42.4149076" lon="11.339302"><ele>12.0</ele><time>2026-04-22T10:05:20.06Z</time></trkpt><trkpt lat="42.4149859" lon="11.3396075"><ele>12.0</ele><time>2026-04-22T10:05:21.059Z</time></trkpt><trkpt lat="42.415064" lon="11.3399134"><ele>12.5</ele><time>2026-04-22T10:05:22.047Z</time></trkpt><trkpt lat="42.4151336" lon="11.3402112"><ele>13.0</ele><time>2026-04-22T10:05:23.051Z</time></trkpt><trkpt lat="42.415192" lon="11.3405192"><ele>13.0</ele><time>2026-04-22T10:05:24.063Z</time></trkpt><trkpt lat="42.415229" lon="11.3408364"><ele>13.0</ele><time>2026-04-22T10:05:25.053Z</time></trkpt><trkpt lat="42.4152592" lon="11.3411529"><ele>12.5</ele><time>2026-04-22T10:05:26.083Z</time></trkpt><trkpt lat="42.4152746" lon="11.341471"><ele>12.0</ele><time>2026-04-22T10:05:27.058Z</time></trkpt><trkpt lat="42.4152819" lon="11.3417933"><ele>12.0</ele><time>2026-04-22T10:05:28.062Z</time></trkpt><trkpt lat="42.4152866" lon="11.3421174"><ele>12.0</ele><time>2026-04-22T10:05:29.06Z</time></trkpt><trkpt lat="42.4152828" lon="11.3424399"><ele>12.0</ele><time>2026-04-22T10:05:30.055Z</time></trkpt><trkpt lat="42.4152846" lon="11.342767"><ele>12.0</ele><time>2026-04-22T10:05:31.063Z</time></trkpt><trkpt lat="42.4152866" lon="11.3430894"><ele>11.5</ele><time>2026-04-22T10:05:32.054Z</time></trkpt><trkpt lat="42.415283" lon="11.3434197"><ele>11.0</ele><time>2026-04-22T10:05:33.071Z</time></trkpt><trkpt lat="42.4152772" lon="11.3437405"><ele>10.5</ele><time>2026-04-22T10:05:34.066Z</time></trkpt><trkpt lat="42.4152709" lon="11.3440643"><ele>10.0</ele><time>2026-04-22T10:05:35.043Z</time></trkpt><trkpt lat="42.4152688" lon="11.3443892"><ele>9.0</ele><time>2026-04-22T10:05:36.063Z</time></trkpt><trkpt lat="42.4152615" lon="11.3447136"><ele>8.0</ele><time>2026-04-22T10:05:37.054Z</time></trkpt><trkpt lat="42.4152609" lon="11.345035"><ele>8.0</ele><time>2026-04-22T10:05:38.048Z</time></trkpt><trkpt lat="42.4152589" lon="11.3453499"><ele>8.0</ele><time>2026-04-22T10:05:39.051Z</time></trkpt><trkpt lat="42.4152559" lon="11.3456586"><ele>7.0</ele><time>2026-04-22T10:05:40.06Z</time></trkpt><trkpt lat="42.415249" lon="11.3459704"><ele>6.0</ele><time>2026-04-22T10:05:41.061Z</time></trkpt><trkpt lat="42.415248" lon="11.3462759"><ele>6.333333333333334</ele><time>2026-04-22T10:05:42.052Z</time></trkpt><trkpt lat="42.4152513" lon="11.3465736"><ele>6.666666666666667</ele><time>2026-04-22T10:05:43.065Z</time></trkpt><trkpt lat="42.415252" lon="11.3468713"><ele>7.0</ele><time>2026-04-22T10:05:44.052Z</time></trkpt><trkpt lat="42.4152528" lon="11.3471679"><ele>8.666666666666668</ele><time>2026-04-22T10:05:45.048Z</time></trkpt><trkpt lat="42.4152568" lon="11.3474623"><ele>10.333333333333334</ele><time>2026-04-22T10:05:46.052Z</time></trkpt><trkpt lat="42.4152543" lon="11.3477552"><ele>12.0</ele><time>2026-04-22T10:05:47.07Z</time></trkpt><trkpt lat="42.4152544" lon="11.3480502"><ele>12.333333333333332</ele><time>2026-04-22T10:05:48.052Z</time></trkpt><trkpt lat="42.4152544" lon="11.3483445"><ele>12.666666666666666</ele><time>2026-04-22T10:05:49.068Z</time></trkpt><trkpt lat="42.4152517" lon="11.3486342"><ele>13.0</ele><time>2026-04-22T10:05:50.064Z</time></trkpt><trkpt lat="42.4152475" lon="11.3489234"><ele>13.0</ele><time>2026-04-22T10:05:51.058Z</time></trkpt><trkpt lat="42.4152396" lon="11.3492199"><ele>13.0</ele><time>2026-04-22T10:05:52.057Z</time></trkpt><trkpt lat="42.4152422" lon="11.3495125"><ele>13.0</ele><time>2026-04-22T10:05:53.059Z</time></trkpt><trkpt lat="42.4152283" lon="11.3497958"><ele>12.0</ele><time>2026-04-22T10:05:54.049Z</time></trkpt><trkpt lat="42.4152283" lon="11.3500782"><ele>11.0</ele><time>2026-04-22T10:05:55.056Z</time></trkpt><trkpt lat="42.4152283" lon="11.3503335"><ele>10.0</ele><time>2026-04-22T10:05:56.052Z</time></trkpt><trkpt lat="42.4152222" lon="11.3505651"><ele>9.5</ele><time>2026-04-22T10:05:57.058Z</time></trkpt><trkpt lat="42.4152136" lon="11.3507807"><ele>9.0</ele><time>2026-04-22T10:05:58.059Z</time></trkpt><trkpt lat="42.4152072" lon="11.3509701"><ele>8.5</ele><time>2026-04-22T10:05:59.054Z</time></trkpt><trkpt lat="42.4152001" lon="11.3511325"><ele>8.0</ele><time>2026-04-22T10:06:00.065Z</time></trkpt><trkpt lat="42.4151826" lon="11.3512592"><ele>7.999999999999999</ele><time>2026-04-22T10:06:01.058Z</time></trkpt><trkpt lat="42.4151635" lon="11.3513537"><ele>8.0</ele><time>2026-04-22T10:06:02.093Z</time></trkpt><trkpt lat="42.4151261" lon="11.3514943"><ele>8.0</ele><time>2026-04-22T10:06:04.066Z</time></trkpt><trkpt lat="42.4151106" lon="11.3516108"><ele>8.0</ele><time>2026-04-22T10:06:06.078Z</time></trkpt><trkpt lat="42.4151059" lon="11.3517058"><ele>7.999999999999999</ele><time>2026-04-22T10:06:08.069Z</time></trkpt><trkpt lat="42.4150991" lon="11.3517938"><ele>8.0</ele><time>2026-04-22T10:06:25.061Z</time></trkpt><trkpt lat="42.4151177" lon="11.3518876"><ele>8.0</ele><time>2026-04-22T10:06:29.074Z</time></trkpt><trkpt lat="42.4151075" lon="11.351998"><ele>8.0</ele><time>2026-04-22T10:25:13.042Z</time></trkpt><trkpt lat="42.4151324" lon="11.3520941"><ele>8.0</ele><time>2026-04-22T10:25:16.081Z</time></trkpt><trkpt lat="42.4151897" lon="11.352192"><ele>8.0</ele><time>2026-04-22T10:25:30.028Z</time></trkpt><trkpt lat="42.415199" lon="11.3523637"><ele>8.0</ele><time>2026-04-22T10:25:32.036Z</time></trkpt><trkpt lat="42.4151968" lon="11.3524795"><ele>8.0</ele><time>2026-04-22T10:25:33.031Z</time></trkpt><trkpt lat="42.4151974" lon="11.3525988"><ele>8.0</ele><time>2026-04-22T10:25:34.037Z</time></trkpt><trkpt lat="42.4151931" lon="11.352737"><ele>8.0</ele><time>2026-04-22T10:25:35.052Z</time></trkpt><trkpt lat="42.4151922" lon="11.3528813"><ele>8.0</ele><time>2026-04-22T10:25:36.039Z</time></trkpt><trkpt lat="42.4151959" lon="11.3530364"><ele>8.0</ele><time>2026-04-22T10:25:37.039Z</time></trkpt><trkpt lat="42.4151947" lon="11.3531924"><ele>7.5</ele><time>2026-04-22T10:25:38.047Z</time></trkpt><trkpt lat="42.4151918" lon="11.3533537"><ele>7.0</ele><time>2026-04-22T10:25:39.032Z</time></trkpt><trkpt lat="42.4151914" lon="11.3535089"><ele>6.5</ele><time>2026-04-22T10:25:40.066Z</time></trkpt><trkpt lat="42.4151938" lon="11.3536805"><ele>6.0</ele><time>2026-04-22T10:25:41.04Z</time></trkpt><trkpt lat="42.415191" lon="11.3538533"><ele>6.0</ele><time>2026-04-22T10:25:42.039Z</time></trkpt><trkpt lat="42.4151877" lon="11.3540369"><ele>6.0</ele><time>2026-04-22T10:25:43.063Z</time></trkpt><trkpt lat="42.4151915" lon="11.3542189"><ele>6.0</ele><time>2026-04-22T10:25:44.047Z</time></trkpt><trkpt lat="42.4151895" lon="11.3544"><ele>6.0</ele><time>2026-04-22T10:25:45.038Z</time></trkpt><trkpt lat="42.4151853" lon="11.3545969"><ele>6.25</ele><time>2026-04-22T10:25:46.061Z</time></trkpt><trkpt lat="42.4151889" lon="11.3547864"><ele>6.5</ele><time>2026-04-22T10:25:47.048Z</time></trkpt><trkpt lat="42.4151813" lon="11.3549791"><ele>6.75</ele><time>2026-04-22T10:25:48.057Z</time></trkpt><trkpt lat="42.4151809" lon="11.3551819"><ele>7.0</ele><time>2026-04-22T10:25:49.055Z</time></trkpt><trkpt lat="42.4151802" lon="11.3553859"><ele>7.333333333333334</ele><time>2026-04-22T10:25:50.068Z</time></trkpt><trkpt lat="42.4151832" lon="11.3555925"><ele>7.666666666666666</ele><time>2026-04-22T10:25:51.052Z</time></trkpt><trkpt lat="42.4151755" lon="11.355807"><ele>8.0</ele><time>2026-04-22T10:25:52.071Z</time></trkpt><trkpt lat="42.4151679" lon="11.3560213"><ele>8.0</ele><time>2026-04-22T10:25:53.043Z</time></trkpt><trkpt lat="42.4151636" lon="11.356232"><ele>8.0</ele><time>2026-04-22T10:25:54.04Z</time></trkpt><trkpt lat="42.4151614" lon="11.3564384"><ele>8.0</ele><time>2026-04-22T10:25:55.04Z</time></trkpt><trkpt lat="42.4151583" lon="11.3566448"><ele>8.0</ele><time>2026-04-22T10:25:56.045Z</time></trkpt><trkpt lat="42.4151558" lon="11.3568538"><ele>8.0</ele><time>2026-04-22T10:25:57.034Z</time></trkpt><trkpt lat="42.415154" lon="11.3570783"><ele>8.0</ele><time>2026-04-22T10:25:58.062Z</time></trkpt><trkpt lat="42.41515" lon="11.3572986"><ele>7.666666666666666</ele><time>2026-04-22T10:25:59.055Z</time></trkpt><trkpt lat="42.4151496" lon="11.3575243"><ele>7.333333333333334</ele><time>2026-04-22T10:26:00.04Z</time></trkpt><trkpt lat="42.4151478" lon="11.3577468"><ele>7.0</ele><time>2026-04-22T10:26:01.039Z</time></trkpt><trkpt lat="42.4151454" lon="11.3579732"><ele>7.0</ele><time>2026-04-22T10:26:02.054Z</time></trkpt><trkpt lat="42.4151465" lon="11.3582053"><ele>7.0</ele><time>2026-04-22T10:26:03.058Z</time></trkpt><trkpt lat="42.4151475" lon="11.3584441"><ele>7.0</ele><time>2026-04-22T10:26:04.03Z</time></trkpt><trkpt lat="42.4151449" lon="11.3586845"><ele>7.333333333333334</ele><time>2026-04-22T10:26:05.068Z</time></trkpt><trkpt lat="42.415144" lon="11.3589232"><ele>7.666666666666666</ele><time>2026-04-22T10:26:06.061Z</time></trkpt><trkpt lat="42.4151448" lon="11.3591602"><ele>8.0</ele><time>2026-04-22T10:26:07.044Z</time></trkpt><trkpt lat="42.4151406" lon="11.3594036"><ele>8.0</ele><time>2026-04-22T10:26:08.034Z</time></trkpt><trkpt lat="42.415141" lon="11.3596495"><ele>8.0</ele><time>2026-04-22T10:26:09.07Z</time></trkpt><trkpt lat="42.4151375" lon="11.3598993"><ele>8.0</ele><time>2026-04-22T10:26:10.058Z</time></trkpt><trkpt lat="42.415136" lon="11.3601526"><ele>8.333333333333332</ele><time>2026-04-22T10:26:11.038Z</time></trkpt><trkpt lat="42.4151353" lon="11.3604076"><ele>8.666666666666666</ele><time>2026-04-22T10:26:12.047Z</time></trkpt><trkpt lat="42.415133" lon="11.3606593"><ele>9.0</ele><time>2026-04-22T10:26:13.052Z</time></trkpt><trkpt lat="42.4151289" lon="11.3609134"><ele>9.0</ele><time>2026-04-22T10:26:14.05Z</time></trkpt><trkpt lat="42.4151245" lon="11.3611647"><ele>9.0</ele><time>2026-04-22T10:26:15.044Z</time></trkpt><trkpt lat="42.4151226" lon="11.3614246"><ele>9.0</ele><time>2026-04-22T10:26:16.046Z</time></trkpt><trkpt lat="42.4151194" lon="11.3616855"><ele>9.0</ele><time>2026-04-22T10:26:17.059Z</time></trkpt><trkpt lat="42.4151157" lon="11.3619466"><ele>9.0</ele><time>2026-04-22T10:26:18.056Z</time></trkpt><trkpt lat="42.4151151" lon="11.3622106"><ele>9.0</ele><time>2026-04-22T10:26:19.044Z</time></trkpt><trkpt lat="42.4151148" lon="11.3624719"><ele>9.0</ele><time>2026-04-22T10:26:20.042Z</time></trkpt><trkpt lat="42.4151146" lon="11.3627335"><ele>9.0</ele><time>2026-04-22T10:26:21.059Z</time></trkpt><trkpt lat="42.4151142" lon="11.3629904"><ele>9.0</ele><time>2026-04-22T10:26:22.051Z</time></trkpt><trkpt lat="42.4151095" lon="11.3632546"><ele>9.0</ele><time>2026-04-22T10:26:23.038Z</time></trkpt><trkpt lat="42.4151089" lon="11.3635212"><ele>9.0</ele><time>2026-04-22T10:26:24.062Z</time></trkpt><trkpt lat="42.4151049" lon="11.3637843"><ele>9.0</ele><time>2026-04-22T10:26:25.043Z</time></trkpt><trkpt lat="42.4151027" lon="11.3640475"><ele>8.666666666666666</ele><time>2026-04-22T10:26:26.038Z</time></trkpt><trkpt lat="42.4151049" lon="11.3643123"><ele>8.333333333333332</ele><time>2026-04-22T10:26:27.058Z</time></trkpt><trkpt lat="42.4151036" lon="11.3645771"><ele>8.0</ele><time>2026-04-22T10:26:28.027Z</time></trkpt><trkpt lat="42.4151017" lon="11.3648384"><ele>8.333333333333332</ele><time>2026-04-22T10:26:29.051Z</time></trkpt><trkpt lat="42.4150998" lon="11.3651019"><ele>8.666666666666666</ele><time>2026-04-22T10:26:30.049Z</time></trkpt><trkpt lat="42.4150971" lon="11.3653662"><ele>9.0</ele><time>2026-04-22T10:26:31.067Z</time></trkpt><trkpt lat="42.4150936" lon="11.3656282"><ele>9.0</ele><time>2026-04-22T10:26:32.048Z</time></trkpt><trkpt lat="42.4150876" lon="11.3658954"><ele>9.0</ele><time>2026-04-22T10:26:33.035Z</time></trkpt><trkpt lat="42.4150857" lon="11.3661695"><ele>9.0</ele><time>2026-04-22T10:26:34.045Z</time></trkpt><trkpt lat="42.4150781" lon="11.3664423"><ele>9.0</ele><time>2026-04-22T10:26:35.051Z</time></trkpt><trkpt lat="42.4150768" lon="11.3667102"><ele>9.0</ele><time>2026-04-22T10:26:36.038Z</time></trkpt><trkpt lat="42.4150727" lon="11.3669773"><ele>9.0</ele><time>2026-04-22T10:26:37.065Z</time></trkpt><trkpt lat="42.4150724" lon="11.367244"><ele>9.0</ele><time>2026-04-22T10:26:38.058Z</time></trkpt><trkpt lat="42.4150694" lon="11.3675171"><ele>9.0</ele><time>2026-04-22T10:26:39.071Z</time></trkpt><trkpt lat="42.4150685" lon="11.3677872"><ele>9.0</ele><time>2026-04-22T10:26:40.054Z</time></trkpt><trkpt lat="42.4150624" lon="11.3680629"><ele>9.0</ele><time>2026-04-22T10:26:41.06Z</time></trkpt><trkpt lat="42.4150627" lon="11.3683355"><ele>9.0</ele><time>2026-04-22T10:26:42.059Z</time></trkpt><trkpt lat="42.4150642" lon="11.3686214"><ele>9.0</ele><time>2026-04-22T10:26:43.069Z</time></trkpt><trkpt lat="42.4150612" lon="11.3689034"><ele>9.0</ele><time>2026-04-22T10:26:44.066Z</time></trkpt><trkpt lat="42.4150614" lon="11.3691878"><ele>9.0</ele><time>2026-04-22T10:26:45.053Z</time></trkpt><trkpt lat="42.4150592" lon="11.3694718"><ele>9.0</ele><time>2026-04-22T10:26:46.061Z</time></trkpt><trkpt lat="42.415058" lon="11.3697554"><ele>8.666666666666666</ele><time>2026-04-22T10:26:47.054Z</time></trkpt><trkpt lat="42.4150558" lon="11.370039"><ele>8.333333333333332</ele><time>2026-04-22T10:26:48.051Z</time></trkpt><trkpt lat="42.4150519" lon="11.3703201"><ele>8.0</ele><time>2026-04-22T10:26:49.061Z</time></trkpt><trkpt lat="42.4150501" lon="11.3706013"><ele>8.666666666666666</ele><time>2026-04-22T10:26:50.084Z</time></trkpt><trkpt lat="42.4150507" lon="11.3708841"><ele>9.333333333333334</ele><time>2026-04-22T10:26:51.049Z</time></trkpt><trkpt lat="42.4150454" lon="11.3711623"><ele>10.0</ele><time>2026-04-22T10:26:52.059Z</time></trkpt><trkpt lat="42.4150456" lon="11.371442"><ele>10.333333333333334</ele><time>2026-04-22T10:26:53.057Z</time></trkpt><trkpt lat="42.4150439" lon="11.3717178"><ele>10.666666666666666</ele><time>2026-04-22T10:26:54.065Z</time></trkpt><trkpt lat="42.4150413" lon="11.3719971"><ele>11.0</ele><time>2026-04-22T10:26:55.06Z</time></trkpt><trkpt lat="42.4150364" lon="11.3722661"><ele>11.0</ele><time>2026-04-22T10:26:56.062Z</time></trkpt><trkpt lat="42.4150312" lon="11.372528"><ele>11.0</ele><time>2026-04-22T10:26:57.07Z</time></trkpt><trkpt lat="42.4150274" lon="11.372788"><ele>11.0</ele><time>2026-04-22T10:26:58.064Z</time></trkpt><trkpt lat="42.4150258" lon="11.3730494"><ele>10.666666666666666</ele><time>2026-04-22T10:26:59.057Z</time></trkpt><trkpt lat="42.4150224" lon="11.3733131"><ele>10.333333333333334</ele><time>2026-04-22T10:27:00.078Z</time></trkpt><trkpt lat="42.4150207" lon="11.3735768"><ele>10.0</ele><time>2026-04-22T10:27:01.059Z</time></trkpt><trkpt lat="42.4150185" lon="11.3738415"><ele>10.0</ele><time>2026-04-22T10:27:02.064Z</time></trkpt><trkpt lat="42.415013" lon="11.3741077"><ele>10.0</ele><time>2026-04-22T10:27:03.061Z</time></trkpt><trkpt lat="42.4150109" lon="11.3743807"><ele>10.0</ele><time>2026-04-22T10:27:04.06Z</time></trkpt><trkpt lat="42.4150126" lon="11.3746437"><ele>8.666666666666668</ele><time>2026-04-22T10:27:05.068Z</time></trkpt><trkpt lat="42.415012" lon="11.3749037"><ele>7.333333333333334</ele><time>2026-04-22T10:27:06.072Z</time></trkpt><trkpt lat="42.4150097" lon="11.375168"><ele>6.0</ele><time>2026-04-22T10:27:07.058Z</time></trkpt><trkpt lat="42.4150053" lon="11.3754395"><ele>5.666666666666667</ele><time>2026-04-22T10:27:08.066Z</time></trkpt><trkpt lat="42.4150009" lon="11.3757028"><ele>5.333333333333334</ele><time>2026-04-22T10:27:09.058Z</time></trkpt><trkpt lat="42.4149983" lon="11.3759628"><ele>5.0</ele><time>2026-04-22T10:27:10.057Z</time></trkpt><trkpt lat="42.4150015" lon="11.3762377"><ele>6.0</ele><time>2026-04-22T10:27:11.049Z</time></trkpt><trkpt lat="42.4149973" lon="11.3765043"><ele>7.0</ele><time>2026-04-22T10:27:12.07Z</time></trkpt><trkpt lat="42.4149973" lon="11.3767749"><ele>8.0</ele><time>2026-04-22T10:27:13.065Z</time></trkpt><trkpt lat="42.4149956" lon="11.3770419"><ele>7.0</ele><time>2026-04-22T10:27:14.07Z</time></trkpt><trkpt lat="42.4149927" lon="11.3773061"><ele>6.0</ele><time>2026-04-22T10:27:15.065Z</time></trkpt><trkpt lat="42.4149925" lon="11.3775707"><ele>5.0</ele><time>2026-04-22T10:27:16.059Z</time></trkpt><trkpt lat="42.4149922" lon="11.3778418"><ele>5.0</ele><time>2026-04-22T10:27:17.059Z</time></trkpt><trkpt lat="42.4149869" lon="11.3781154"><ele>5.0</ele><time>2026-04-22T10:27:18.059Z</time></trkpt><trkpt lat="42.4149874" lon="11.3783974"><ele>5.0</ele><time>2026-04-22T10:27:19.067Z</time></trkpt><trkpt lat="42.4149875" lon="11.3786841"><ele>4.666666666666667</ele><time>2026-04-22T10:27:20.051Z</time></trkpt><trkpt lat="42.4149826" lon="11.3789571"><ele>4.333333333333333</ele><time>2026-04-22T10:27:21.067Z</time></trkpt><trkpt lat="42.4149804" lon="11.3792333"><ele>4.0</ele><time>2026-04-22T10:27:22.071Z</time></trkpt><trkpt lat="42.4149751" lon="11.3795076"><ele>4.0</ele><time>2026-04-22T10:27:23.058Z</time></trkpt><trkpt lat="42.4149709" lon="11.379774"><ele>4.0</ele><time>2026-04-22T10:27:24.066Z</time></trkpt><trkpt lat="42.4149678" lon="11.380052"><ele>4.0</ele><time>2026-04-22T10:27:25.04Z</time></trkpt><trkpt lat="42.4149654" lon="11.3803344"><ele>4.666666666666666</ele><time>2026-04-22T10:27:26.061Z</time></trkpt><trkpt lat="42.4149649" lon="11.3806181"><ele>5.333333333333333</ele><time>2026-04-22T10:27:27.064Z</time></trkpt><trkpt lat="42.4149616" lon="11.3808996"><ele>6.0</ele><time>2026-04-22T10:27:28.05Z</time></trkpt><trkpt lat="42.4149569" lon="11.381183"><ele>6.0</ele><time>2026-04-22T10:27:29.069Z</time></trkpt><trkpt lat="42.4149564" lon="11.3814738"><ele>6.0</ele><time>2026-04-22T10:27:30.07Z</time></trkpt><trkpt lat="42.4149548" lon="11.3817603"><ele>6.0</ele><time>2026-04-22T10:27:31.084Z</time></trkpt><trkpt lat="42.4149523" lon="11.3820524"><ele>5.666666666666667</ele><time>2026-04-22T10:27:32.069Z</time></trkpt><trkpt lat="42.41495" lon="11.3823371"><ele>5.333333333333334</ele><time>2026-04-22T10:27:33.063Z</time></trkpt><trkpt lat="42.4149483" lon="11.3826243"><ele>5.0</ele><time>2026-04-22T10:27:34.071Z</time></trkpt><trkpt lat="42.414945" lon="11.3829113"><ele>4.666666666666667</ele><time>2026-04-22T10:27:35.044Z</time></trkpt><trkpt lat="42.4149445" lon="11.3831974"><ele>4.333333333333333</ele><time>2026-04-22T10:27:36.069Z</time></trkpt><trkpt lat="42.4149406" lon="11.3834835"><ele>4.0</ele><time>2026-04-22T10:27:37.052Z</time></trkpt><trkpt lat="42.4149422" lon="11.3837706"><ele>4.0</ele><time>2026-04-22T10:27:38.066Z</time></trkpt><trkpt lat="42.4149357" lon="11.3840558"><ele>4.0</ele><time>2026-04-22T10:27:39.062Z</time></trkpt><trkpt lat="42.4149314" lon="11.3843373"><ele>4.0</ele><time>2026-04-22T10:27:40.055Z</time></trkpt><trkpt lat="42.4149298" lon="11.3846212"><ele>4.333333333333333</ele><time>2026-04-22T10:27:41.069Z</time></trkpt><trkpt lat="42.4149292" lon="11.3849082"><ele>4.666666666666667</ele><time>2026-04-22T10:27:42.051Z</time></trkpt><trkpt lat="42.4149292" lon="11.3851905"><ele>5.0</ele><time>2026-04-22T10:27:43.06Z</time></trkpt><trkpt lat="42.4149297" lon="11.3854812"><ele>5.0</ele><time>2026-04-22T10:27:44.054Z</time></trkpt><trkpt lat="42.4149239" lon="11.3857656"><ele>5.0</ele><time>2026-04-22T10:27:45.044Z</time></trkpt><trkpt lat="42.414918" lon="11.3860509"><ele>5.0</ele><time>2026-04-22T10:27:46.065Z</time></trkpt><trkpt lat="42.4149122" lon="11.3863283"><ele>4.666666666666667</ele><time>2026-04-22T10:27:47.068Z</time></trkpt><trkpt lat="42.4149105" lon="11.3866116"><ele>4.333333333333333</ele><time>2026-04-22T10:27:48.053Z</time></trkpt><trkpt lat="42.4149115" lon="11.3868916"><ele>4.0</ele><time>2026-04-22T10:27:49.072Z</time></trkpt><trkpt lat="42.4149126" lon="11.387176"><ele>4.0</ele><time>2026-04-22T10:27:50.039Z</time></trkpt><trkpt lat="42.4149075" lon="11.3874587"><ele>4.0</ele><time>2026-04-22T10:27:51.031Z</time></trkpt><trkpt lat="42.4149019" lon="11.3877413"><ele>4.0</ele><time>2026-04-22T10:27:52.031Z</time></trkpt><trkpt lat="42.4149006" lon="11.3880178"><ele>4.0</ele><time>2026-04-22T10:27:53.039Z</time></trkpt><trkpt lat="42.4148974" lon="11.3882974"><ele>4.0</ele><time>2026-04-22T10:27:54.044Z</time></trkpt><trkpt lat="42.4148966" lon="11.3885777"><ele>4.0</ele><time>2026-04-22T10:27:55.05Z</time></trkpt><trkpt lat="42.4148921" lon="11.3888579"><ele>4.0</ele><time>2026-04-22T10:27:56.037Z</time></trkpt><trkpt lat="42.4148875" lon="11.3891341"><ele>4.0</ele><time>2026-04-22T10:27:57.061Z</time></trkpt><trkpt lat="42.4148847" lon="11.3894108"><ele>4.0</ele><time>2026-04-22T10:27:58.063Z</time></trkpt><trkpt lat="42.4148798" lon="11.3896938"><ele>4.0</ele><time>2026-04-22T10:27:59.052Z</time></trkpt><trkpt lat="42.4148766" lon="11.3899752"><ele>4.0</ele><time>2026-04-22T10:28:00.059Z</time></trkpt><trkpt lat="42.4148739" lon="11.3902555"><ele>4.0</ele><time>2026-04-22T10:28:01.059Z</time></trkpt><trkpt lat="42.414873" lon="11.3905387"><ele>3.6666666666666665</ele><time>2026-04-22T10:28:02.065Z</time></trkpt><trkpt lat="42.4148719" lon="11.3908215"><ele>3.333333333333333</ele><time>2026-04-22T10:28:03.06Z</time></trkpt><trkpt lat="42.4148726" lon="11.3911072"><ele>3.0</ele><time>2026-04-22T10:28:04.058Z</time></trkpt><trkpt lat="42.4148703" lon="11.391397"><ele>3.0</ele><time>2026-04-22T10:28:05.056Z</time></trkpt><trkpt lat="42.4148692" lon="11.3916955"><ele>3.0</ele><time>2026-04-22T10:28:06.063Z</time></trkpt><trkpt lat="42.4148681" lon="11.3919789"><ele>3.0</ele><time>2026-04-22T10:28:07.067Z</time></trkpt><trkpt lat="42.4148639" lon="11.3922634"><ele>3.333333333333333</ele><time>2026-04-22T10:28:08.065Z</time></trkpt><trkpt lat="42.4148595" lon="11.3925468"><ele>3.6666666666666665</ele><time>2026-04-22T10:28:09.058Z</time></trkpt><trkpt lat="42.4148573" lon="11.3928311"><ele>4.0</ele><time>2026-04-22T10:28:10.076Z</time></trkpt><trkpt lat="42.414855" lon="11.3931119"><ele>4.0</ele><time>2026-04-22T10:28:11.06Z</time></trkpt><trkpt lat="42.4148546" lon="11.3933949"><ele>4.0</ele><time>2026-04-22T10:28:12.068Z</time></trkpt><trkpt lat="42.4148514" lon="11.3936788"><ele>4.0</ele><time>2026-04-22T10:28:13.066Z</time></trkpt><trkpt lat="42.4148502" lon="11.3939687"><ele>4.0</ele><time>2026-04-22T10:28:14.05Z</time></trkpt><trkpt lat="42.414845" lon="11.3942561"><ele>4.0</ele><time>2026-04-22T10:28:15.054Z</time></trkpt><trkpt lat="42.4148429" lon="11.3945439"><ele>4.0</ele><time>2026-04-22T10:28:16.061Z</time></trkpt><trkpt lat="42.4148405" lon="11.3948256"><ele>4.0</ele><time>2026-04-22T10:28:17.054Z</time></trkpt><trkpt lat="42.414838" lon="11.3951135"><ele>4.0</ele><time>2026-04-22T10:28:18.043Z</time></trkpt><trkpt lat="42.4148339" lon="11.3954"><ele>4.0</ele><time>2026-04-22T10:28:19.053Z</time></trkpt><trkpt lat="42.414831" lon="11.395686"><ele>3.6666666666666665</ele><time>2026-04-22T10:28:20.079Z</time></trkpt><trkpt lat="42.4148292" lon="11.3959677"><ele>3.333333333333333</ele><time>2026-04-22T10:28:21.069Z</time></trkpt><trkpt lat="42.414827" lon="11.3962542"><ele>3.0</ele><time>2026-04-22T10:28:22.067Z</time></trkpt><trkpt lat="42.4148232" lon="11.3965337"><ele>3.0</ele><time>2026-04-22T10:28:23.068Z</time></trkpt><trkpt lat="42.4148204" lon="11.3968185"><ele>3.0</ele><time>2026-04-22T10:28:24.045Z</time></trkpt><trkpt lat="42.414821" lon="11.3971089"><ele>3.0</ele><time>2026-04-22T10:28:25.059Z</time></trkpt><trkpt lat="42.4148219" lon="11.3973983"><ele>3.0</ele><time>2026-04-22T10:28:26.059Z</time></trkpt><trkpt lat="42.4148173" lon="11.3976766"><ele>3.0</ele><time>2026-04-22T10:28:27.065Z</time></trkpt><trkpt lat="42.4148155" lon="11.397962"><ele>3.0</ele><time>2026-04-22T10:28:28.061Z</time></trkpt><trkpt lat="42.4148124" lon="11.3982471"><ele>3.0</ele><time>2026-04-22T10:28:29.069Z</time></trkpt><trkpt lat="42.4148117" lon="11.3985348"><ele>3.0</ele><time>2026-04-22T10:28:30.044Z</time></trkpt><trkpt lat="42.4148081" lon="11.3988222"><ele>3.0</ele><time>2026-04-22T10:28:31.051Z</time></trkpt><trkpt lat="42.414806" lon="11.3991027"><ele>3.0</ele><time>2026-04-22T10:28:32.06Z</time></trkpt><trkpt lat="42.4148038" lon="11.3993885"><ele>3.0</ele><time>2026-04-22T10:28:33.055Z</time></trkpt><trkpt lat="42.4148016" lon="11.3996756"><ele>3.0</ele><time>2026-04-22T10:28:34.061Z</time></trkpt><trkpt lat="42.4148002" lon="11.3999696"><ele>3.0</ele><time>2026-04-22T10:28:35.062Z</time></trkpt><trkpt lat="42.4147999" lon="11.400251"><ele>3.0</ele><time>2026-04-22T10:28:36.066Z</time></trkpt><trkpt lat="42.4147987" lon="11.4005362"><ele>3.0</ele><time>2026-04-22T10:28:37.047Z</time></trkpt><trkpt lat="42.4147955" lon="11.4008215"><ele>3.0</ele><time>2026-04-22T10:28:38.053Z</time></trkpt><trkpt lat="42.4147914" lon="11.4011064"><ele>3.0</ele><time>2026-04-22T10:28:39.057Z</time></trkpt><trkpt lat="42.4147906" lon="11.4013986"><ele>3.0</ele><time>2026-04-22T10:28:40.056Z</time></trkpt><trkpt lat="42.4147875" lon="11.4016819"><ele>3.0</ele><time>2026-04-22T10:28:41.063Z</time></trkpt><trkpt lat="42.4147868" lon="11.4019668"><ele>3.0</ele><time>2026-04-22T10:28:42.044Z</time></trkpt><trkpt lat="42.4147831" lon="11.4022555"><ele>3.0</ele><time>2026-04-22T10:28:43.055Z</time></trkpt><trkpt lat="42.4147794" lon="11.4025323"><ele>3.333333333333333</ele><time>2026-04-22T10:28:44.058Z</time></trkpt><trkpt lat="42.4147748" lon="11.4027939"><ele>3.6666666666666665</ele><time>2026-04-22T10:28:45.06Z</time></trkpt><trkpt lat="42.4147693" lon="11.4030499"><ele>4.0</ele><time>2026-04-22T10:28:46.055Z</time></trkpt><trkpt lat="42.4147654" lon="11.4033019"><ele>4.333333333333333</ele><time>2026-04-22T10:28:47.054Z</time></trkpt><trkpt lat="42.414764" lon="11.4035584"><ele>4.666666666666667</ele><time>2026-04-22T10:28:48.066Z</time></trkpt><trkpt lat="42.4147602" lon="11.4038109"><ele>5.0</ele><time>2026-04-22T10:28:49.044Z</time></trkpt><trkpt lat="42.4147556" lon="11.4040631"><ele>4.333333333333334</ele><time>2026-04-22T10:28:50.063Z</time></trkpt><trkpt lat="42.4147507" lon="11.4043284"><ele>3.666666666666667</ele><time>2026-04-22T10:28:51.068Z</time></trkpt><trkpt lat="42.4147471" lon="11.4045946"><ele>3.0</ele><time>2026-04-22T10:28:52.061Z</time></trkpt><trkpt lat="42.4147485" lon="11.4048641"><ele>3.0</ele><time>2026-04-22T10:28:53.052Z</time></trkpt><trkpt lat="42.4147471" lon="11.4051344"><ele>3.0</ele><time>2026-04-22T10:28:54.063Z</time></trkpt><trkpt lat="42.4147453" lon="11.4054054"><ele>3.0</ele><time>2026-04-22T10:28:55.074Z</time></trkpt><trkpt lat="42.4147446" lon="11.4056837"><ele>3.333333333333333</ele><time>2026-04-22T10:28:56.059Z</time></trkpt><trkpt lat="42.4147418" lon="11.4059676"><ele>3.6666666666666665</ele><time>2026-04-22T10:28:57.058Z</time></trkpt><trkpt lat="42.4147417" lon="11.4062464"><ele>4.0</ele><time>2026-04-22T10:28:58.052Z</time></trkpt><trkpt lat="42.4147411" lon="11.4065206"><ele>4.333333333333333</ele><time>2026-04-22T10:28:59.058Z</time></trkpt><trkpt lat="42.4147398" lon="11.4067993"><ele>4.666666666666667</ele><time>2026-04-22T10:29:00.043Z</time></trkpt><trkpt lat="42.4147321" lon="11.4070672"><ele>5.0</ele><time>2026-04-22T10:29:01.056Z</time></trkpt><trkpt lat="42.4147155" lon="11.4073406"><ele>5.0</ele><time>2026-04-22T10:29:02.068Z</time></trkpt><trkpt lat="42.414688" lon="11.4076093"><ele>5.0</ele><time>2026-04-22T10:29:03.065Z</time></trkpt><trkpt lat="42.4146576" lon="11.4078757"><ele>5.0</ele><time>2026-04-22T10:29:04.042Z</time></trkpt><trkpt lat="42.4146324" lon="11.4081421"><ele>6.0</ele><time>2026-04-22T10:29:05.038Z</time></trkpt><trkpt lat="42.4146224" lon="11.4084153"><ele>7.0</ele><time>2026-04-22T10:29:06.066Z</time></trkpt><trkpt lat="42.4146184" lon="11.4086901"><ele>8.0</ele><time>2026-04-22T10:29:07.067Z</time></trkpt><trkpt lat="42.4146148" lon="11.4089668"><ele>8.333333333333332</ele><time>2026-04-22T10:29:08.055Z</time></trkpt><trkpt lat="42.4146073" lon="11.4092439"><ele>8.666666666666666</ele><time>2026-04-22T10:29:09.062Z</time></trkpt><trkpt lat="42.4146065" lon="11.4095217"><ele>9.0</ele><time>2026-04-22T10:29:10.055Z</time></trkpt><trkpt lat="42.4146064" lon="11.4097996"><ele>9.0</ele><time>2026-04-22T10:29:11.058Z</time></trkpt><trkpt lat="42.4146023" lon="11.4100866"><ele>9.0</ele><time>2026-04-22T10:29:12.063Z</time></trkpt><trkpt lat="42.4145985" lon="11.4103718"><ele>9.0</ele><time>2026-04-22T10:29:13.059Z</time></trkpt><trkpt lat="42.4145971" lon="11.4106605"><ele>8.333333333333334</ele><time>2026-04-22T10:29:14.041Z</time></trkpt><trkpt lat="42.4145983" lon="11.4109439"><ele>7.666666666666667</ele><time>2026-04-22T10:29:15.063Z</time></trkpt><trkpt lat="42.4145982" lon="11.4112331"><ele>7.0</ele><time>2026-04-22T10:29:16.056Z</time></trkpt><trkpt lat="42.4145971" lon="11.4115213"><ele>6.0</ele><time>2026-04-22T10:29:17.055Z</time></trkpt><trkpt lat="42.414595" lon="11.4118074"><ele>5.0</ele><time>2026-04-22T10:29:18.065Z</time></trkpt><trkpt lat="42.4145912" lon="11.4120959"><ele>4.0</ele><time>2026-04-22T10:29:19.071Z</time></trkpt><trkpt lat="42.4145921" lon="11.4123779"><ele>4.0</ele><time>2026-04-22T10:29:20.061Z</time></trkpt><trkpt lat="42.4146044" lon="11.4126626"><ele>4.0</ele><time>2026-04-22T10:29:21.054Z</time></trkpt><trkpt lat="42.4146236" lon="11.4129434"><ele>4.0</ele><time>2026-04-22T10:29:22.08Z</time></trkpt><trkpt lat="42.414645" lon="11.4132207"><ele>4.666666666666666</ele><time>2026-04-22T10:29:23.057Z</time></trkpt><trkpt lat="42.4146596" lon="11.4134973"><ele>5.333333333333333</ele><time>2026-04-22T10:29:24.057Z</time></trkpt><trkpt lat="42.4146743" lon="11.413781"><ele>6.0</ele><time>2026-04-22T10:29:25.054Z</time></trkpt><trkpt lat="42.4146796" lon="11.4140654"><ele>6.0</ele><time>2026-04-22T10:29:26.053Z</time></trkpt><trkpt lat="42.4146821" lon="11.4143462"><ele>6.0</ele><time>2026-04-22T10:29:27.056Z</time></trkpt><trkpt lat="42.4146783" lon="11.4146162"><ele>6.0</ele><time>2026-04-22T10:29:28.063Z</time></trkpt><trkpt lat="42.4146714" lon="11.4148801"><ele>6.666666666666666</ele><time>2026-04-22T10:29:29.063Z</time></trkpt><trkpt lat="42.4146635" lon="11.4151508"><ele>7.333333333333333</ele><time>2026-04-22T10:29:30.056Z</time></trkpt><trkpt lat="42.4146604" lon="11.4154254"><ele>8.0</ele><time>2026-04-22T10:29:31.048Z</time></trkpt><trkpt lat="42.4146584" lon="11.4157004"><ele>8.666666666666666</ele><time>2026-04-22T10:29:32.067Z</time></trkpt><trkpt lat="42.4146588" lon="11.4159773"><ele>9.333333333333334</ele><time>2026-04-22T10:29:33.082Z</time></trkpt><trkpt lat="42.4146555" lon="11.416255"><ele>10.0</ele><time>2026-04-22T10:29:34.074Z</time></trkpt><trkpt lat="42.4146552" lon="11.4165344"><ele>10.0</ele><time>2026-04-22T10:29:35.076Z</time></trkpt><trkpt lat="42.4146514" lon="11.4168095"><ele>10.0</ele><time>2026-04-22T10:29:36.05Z</time></trkpt><trkpt lat="42.4146477" lon="11.4170997"><ele>10.0</ele><time>2026-04-22T10:29:37.067Z</time></trkpt><trkpt lat="42.4146425" lon="11.4173791"><ele>10.0</ele><time>2026-04-22T10:29:38.063Z</time></trkpt><trkpt lat="42.4146406" lon="11.4176594"><ele>10.0</ele><time>2026-04-22T10:29:39.063Z</time></trkpt><trkpt lat="42.4146421" lon="11.4179391"><ele>10.0</ele><time>2026-04-22T10:29:40.046Z</time></trkpt><trkpt lat="42.4146384" lon="11.418216"><ele>10.0</ele><time>2026-04-22T10:29:41.062Z</time></trkpt><trkpt lat="42.4146325" lon="11.4184941"><ele>10.0</ele><time>2026-04-22T10:29:42.066Z</time></trkpt><trkpt lat="42.4146313" lon="11.4187711"><ele>10.0</ele><time>2026-04-22T10:29:43.052Z</time></trkpt><trkpt lat="42.4146285" lon="11.419047"><ele>10.0</ele><time>2026-04-22T10:29:44.055Z</time></trkpt><trkpt lat="42.4146308" lon="11.4193293"><ele>10.0</ele><time>2026-04-22T10:29:45.058Z</time></trkpt><trkpt lat="42.4146361" lon="11.4196051"><ele>10.0</ele><time>2026-04-22T10:29:46.065Z</time></trkpt><trkpt lat="42.414637" lon="11.4198915"><ele>10.0</ele><time>2026-04-22T10:29:47.067Z</time></trkpt><trkpt lat="42.4146305" lon="11.4201816"><ele>10.0</ele><time>2026-04-22T10:29:48.074Z</time></trkpt><trkpt lat="42.4146258" lon="11.4204657"><ele>10.0</ele><time>2026-04-22T10:29:49.051Z</time></trkpt><trkpt lat="42.4146215" lon="11.4207514"><ele>10.333333333333334</ele><time>2026-04-22T10:29:50.05Z</time></trkpt><trkpt lat="42.4146172" lon="11.4210381"><ele>10.666666666666666</ele><time>2026-04-22T10:29:51.057Z</time></trkpt><trkpt lat="42.4146125" lon="11.4213245"><ele>11.0</ele><time>2026-04-22T10:29:52.049Z</time></trkpt><trkpt lat="42.4146092" lon="11.4216079"><ele>10.333333333333332</ele><time>2026-04-22T10:29:53.051Z</time></trkpt><trkpt lat="42.414606" lon="11.4218965"><ele>9.666666666666666</ele><time>2026-04-22T10:29:54.071Z</time></trkpt><trkpt lat="42.414606" lon="11.4221782"><ele>9.0</ele><time>2026-04-22T10:29:55.065Z</time></trkpt><trkpt lat="42.4146025" lon="11.42246"><ele>9.0</ele><time>2026-04-22T10:29:56.072Z</time></trkpt><trkpt lat="42.4145977" lon="11.4227473"><ele>9.0</ele><time>2026-04-22T10:29:57.06Z</time></trkpt><trkpt lat="42.4145938" lon="11.4230285"><ele>9.0</ele><time>2026-04-22T10:29:58.045Z</time></trkpt><trkpt lat="42.4145903" lon="11.4233143"><ele>9.333333333333334</ele><time>2026-04-22T10:29:59.063Z</time></trkpt><trkpt lat="42.4145867" lon="11.4235983"><ele>9.666666666666668</ele><time>2026-04-22T10:30:00.065Z</time></trkpt><trkpt lat="42.4145835" lon="11.4238783"><ele>10.0</ele><time>2026-04-22T10:30:01.063Z</time></trkpt><trkpt lat="42.4145785" lon="11.4241542"><ele>10.333333333333334</ele><time>2026-04-22T10:30:02.063Z</time></trkpt><trkpt lat="42.4145795" lon="11.4244296"><ele>10.666666666666666</ele><time>2026-04-22T10:30:03.066Z</time></trkpt><trkpt lat="42.4145782" lon="11.4247059"><ele>11.0</ele><time>2026-04-22T10:30:04.078Z</time></trkpt><trkpt lat="42.4145786" lon="11.4249801"><ele>11.0</ele><time>2026-04-22T10:30:05.063Z</time></trkpt><trkpt lat="42.4145763" lon="11.4252467"><ele>11.0</ele><time>2026-04-22T10:30:06.044Z</time></trkpt><trkpt lat="42.4145732" lon="11.4255218"><ele>11.0</ele><time>2026-04-22T10:30:07.076Z</time></trkpt><trkpt lat="42.4145678" lon="11.4257958"><ele>10.666666666666666</ele><time>2026-04-22T10:30:08.076Z</time></trkpt><trkpt lat="42.4145647" lon="11.42607"><ele>10.333333333333334</ele><time>2026-04-22T10:30:09.068Z</time></trkpt><trkpt lat="42.4145615" lon="11.4263482"><ele>10.0</ele><time>2026-04-22T10:30:10.055Z</time></trkpt><trkpt lat="42.4145587" lon="11.4266328"><ele>10.0</ele><time>2026-04-22T10:30:11.058Z</time></trkpt><trkpt lat="42.4145552" lon="11.4269196"><ele>10.0</ele><time>2026-04-22T10:30:12.069Z</time></trkpt><trkpt lat="42.4145503" lon="11.4271989"><ele>10.0</ele><time>2026-04-22T10:30:13.056Z</time></trkpt><trkpt lat="42.4145479" lon="11.4274829"><ele>11.0</ele><time>2026-04-22T10:30:14.058Z</time></trkpt><trkpt lat="42.4145445" lon="11.4277621"><ele>12.0</ele><time>2026-04-22T10:30:15.074Z</time></trkpt><trkpt lat="42.414544" lon="11.4280415"><ele>13.0</ele><time>2026-04-22T10:30:16.066Z</time></trkpt><trkpt lat="42.4145414" lon="11.4283216"><ele>13.0</ele><time>2026-04-22T10:30:17.061Z</time></trkpt><trkpt lat="42.4145407" lon="11.4285987"><ele>13.0</ele><time>2026-04-22T10:30:18.066Z</time></trkpt><trkpt lat="42.4145353" lon="11.4288784"><ele>13.0</ele><time>2026-04-22T10:30:19.053Z</time></trkpt><trkpt lat="42.4145337" lon="11.4291605"><ele>13.0</ele><time>2026-04-22T10:30:20.059Z</time></trkpt><trkpt lat="42.4145303" lon="11.4294415"><ele>13.0</ele><time>2026-04-22T10:30:21.057Z</time></trkpt><trkpt lat="42.4145267" lon="11.4297229"><ele>13.0</ele><time>2026-04-22T10:30:22.033Z</time></trkpt><trkpt lat="42.4145256" lon="11.4300067"><ele>13.333333333333332</ele><time>2026-04-22T10:30:23.024Z</time></trkpt><trkpt lat="42.4145227" lon="11.4302878"><ele>13.666666666666668</ele><time>2026-04-22T10:30:24.055Z</time></trkpt><trkpt lat="42.4145255" lon="11.43057"><ele>14.0</ele><time>2026-04-22T10:30:25.058Z</time></trkpt><trkpt lat="42.4145253" lon="11.430856"><ele>14.0</ele><time>2026-04-22T10:30:26.057Z</time></trkpt><trkpt lat="42.4145237" lon="11.4311421"><ele>14.0</ele><time>2026-04-22T10:30:27.063Z</time></trkpt><trkpt lat="42.4145179" lon="11.431441"><ele>14.0</ele><time>2026-04-22T10:30:28.058Z</time></trkpt><trkpt lat="42.4145152" lon="11.4317367"><ele>14.0</ele><time>2026-04-22T10:30:29.035Z</time></trkpt><trkpt lat="42.4145111" lon="11.4320249"><ele>14.0</ele><time>2026-04-22T10:30:30.06Z</time></trkpt><trkpt lat="42.4145078" lon="11.4323194"><ele>14.0</ele><time>2026-04-22T10:30:31.064Z</time></trkpt><trkpt lat="42.414502" lon="11.4326154"><ele>14.0</ele><time>2026-04-22T10:30:32.058Z</time></trkpt><trkpt lat="42.4144999" lon="11.4329122"><ele>14.0</ele><time>2026-04-22T10:30:33.057Z</time></trkpt><trkpt lat="42.4144972" lon="11.4332093"><ele>14.0</ele><time>2026-04-22T10:30:34.071Z</time></trkpt><trkpt lat="42.414496" lon="11.4335078"><ele>13.333333333333334</ele><time>2026-04-22T10:30:35.042Z</time></trkpt><trkpt lat="42.4144976" lon="11.4338052"><ele>12.666666666666668</ele><time>2026-04-22T10:30:36.042Z</time></trkpt><trkpt lat="42.4145003" lon="11.4341037"><ele>12.0</ele><time>2026-04-22T10:30:37.055Z</time></trkpt><trkpt lat="42.4144964" lon="11.4343978"><ele>11.0</ele><time>2026-04-22T10:30:38.068Z</time></trkpt><trkpt lat="42.4144938" lon="11.4346976"><ele>10.0</ele><time>2026-04-22T10:30:39.064Z</time></trkpt><trkpt lat="42.4144881" lon="11.4349973"><ele>9.0</ele><time>2026-04-22T10:30:40.069Z</time></trkpt><trkpt lat="42.4144851" lon="11.4352965"><ele>8.0</ele><time>2026-04-22T10:30:41.063Z</time></trkpt><trkpt lat="42.4144806" lon="11.4355836"><ele>7.0</ele><time>2026-04-22T10:30:42.061Z</time></trkpt><trkpt lat="42.414477" lon="11.4358725"><ele>6.0</ele><time>2026-04-22T10:30:43.049Z</time></trkpt><trkpt lat="42.4144733" lon="11.4361561"><ele>6.666666666666666</ele><time>2026-04-22T10:30:44.056Z</time></trkpt><trkpt lat="42.4144692" lon="11.4364444"><ele>7.333333333333333</ele><time>2026-04-22T10:30:45.064Z</time></trkpt><trkpt lat="42.4144675" lon="11.4367288"><ele>8.0</ele><time>2026-04-22T10:30:46.066Z</time></trkpt><trkpt lat="42.4144694" lon="11.4370112"><ele>9.666666666666666</ele><time>2026-04-22T10:30:47.058Z</time></trkpt><trkpt lat="42.4144651" lon="11.4372932"><ele>11.333333333333332</ele><time>2026-04-22T10:30:48.061Z</time></trkpt><trkpt lat="42.4144662" lon="11.4375685"><ele>13.0</ele><time>2026-04-22T10:30:49.036Z</time></trkpt><trkpt lat="42.4144635" lon="11.4378437"><ele>13.666666666666666</ele><time>2026-04-22T10:30:50.063Z</time></trkpt><trkpt lat="42.4144604" lon="11.4381121"><ele>14.333333333333332</ele><time>2026-04-22T10:30:51.059Z</time></trkpt><trkpt lat="42.4144561" lon="11.4383811"><ele>15.0</ele><time>2026-04-22T10:30:52.035Z</time></trkpt><trkpt lat="42.4144576" lon="11.4386563"><ele>15.666666666666668</ele><time>2026-04-22T10:30:53.053Z</time></trkpt><trkpt lat="42.4144521" lon="11.4389263"><ele>16.333333333333336</ele><time>2026-04-22T10:30:54.069Z</time></trkpt><trkpt lat="42.4144517" lon="11.439192"><ele>17.0</ele><time>2026-04-22T10:30:55.063Z</time></trkpt><trkpt lat="42.4144514" lon="11.4394642"><ele>17.333333333333336</ele><time>2026-04-22T10:30:56.058Z</time></trkpt><trkpt lat="42.4144483" lon="11.439739"><ele>17.666666666666668</ele><time>2026-04-22T10:30:57.07Z</time></trkpt><trkpt lat="42.4144473" lon="11.4400109"><ele>18.0</ele><time>2026-04-22T10:30:58.045Z</time></trkpt><trkpt lat="42.4144439" lon="11.4402846"><ele>18.333333333333332</ele><time>2026-04-22T10:30:59.062Z</time></trkpt><trkpt lat="42.4144443" lon="11.4405511"><ele>18.666666666666664</ele><time>2026-04-22T10:31:00.044Z</time></trkpt><trkpt lat="42.4144437" lon="11.4408264"><ele>19.0</ele><time>2026-04-22T10:31:01.051Z</time></trkpt><trkpt lat="42.4144404" lon="11.4410998"><ele>19.0</ele><time>2026-04-22T10:31:02.065Z</time></trkpt><trkpt lat="42.4144404" lon="11.4413656"><ele>19.0</ele><time>2026-04-22T10:31:03.063Z</time></trkpt><trkpt lat="42.4144319" lon="11.4416319"><ele>19.0</ele><time>2026-04-22T10:31:04.054Z</time></trkpt><trkpt lat="42.4144289" lon="11.4419005"><ele>19.0</ele><time>2026-04-22T10:31:05.052Z</time></trkpt><trkpt lat="42.4144257" lon="11.4421656"><ele>19.0</ele><time>2026-04-22T10:31:06.08Z</time></trkpt><trkpt lat="42.4144219" lon="11.4424201"><ele>19.0</ele><time>2026-04-22T10:31:07.058Z</time></trkpt><trkpt lat="42.4144212" lon="11.442684"><ele>19.0</ele><time>2026-04-22T10:31:08.04Z</time></trkpt><trkpt lat="42.4144179" lon="11.4429526"><ele>19.0</ele><time>2026-04-22T10:31:09.046Z</time></trkpt><trkpt lat="42.4144184" lon="11.4432227"><ele>19.0</ele><time>2026-04-22T10:31:10.049Z</time></trkpt><trkpt lat="42.4144121" lon="11.4434879"><ele>19.0</ele><time>2026-04-22T10:31:11.052Z</time></trkpt><trkpt lat="42.4144106" lon="11.4437605"><ele>19.0</ele><time>2026-04-22T10:31:12.086Z</time></trkpt><trkpt lat="42.4144057" lon="11.4440326"><ele>19.0</ele><time>2026-04-22T10:31:13.065Z</time></trkpt><trkpt lat="42.4144013" lon="11.4443124"><ele>19.0</ele><time>2026-04-22T10:31:14.07Z</time></trkpt><trkpt lat="42.4143964" lon="11.4445915"><ele>19.0</ele><time>2026-04-22T10:31:15.059Z</time></trkpt><trkpt lat="42.414394" lon="11.4448708"><ele>19.0</ele><time>2026-04-22T10:31:16.039Z</time></trkpt><trkpt lat="42.4143925" lon="11.4451519"><ele>19.666666666666664</ele><time>2026-04-22T10:31:17.062Z</time></trkpt><trkpt lat="42.4143867" lon="11.4454292"><ele>20.333333333333332</ele><time>2026-04-22T10:31:18.05Z</time></trkpt><trkpt lat="42.414384" lon="11.445705"><ele>21.0</ele><time>2026-04-22T10:31:19.058Z</time></trkpt><trkpt lat="42.4143807" lon="11.4459807"><ele>22.0</ele><time>2026-04-22T10:31:20.079Z</time></trkpt><trkpt lat="42.4143803" lon="11.4462598"><ele>23.0</ele><time>2026-04-22T10:31:21.061Z</time></trkpt><trkpt lat="42.4143793" lon="11.4465438"><ele>24.0</ele><time>2026-04-22T10:31:22.063Z</time></trkpt><trkpt lat="42.4143797" lon="11.4468249"><ele>24.0</ele><time>2026-04-22T10:31:23.047Z</time></trkpt><trkpt lat="42.4143757" lon="11.4471072"><ele>24.0</ele><time>2026-04-22T10:31:24.059Z</time></trkpt><trkpt lat="42.4143756" lon="11.4473846"><ele>24.0</ele><time>2026-04-22T10:31:25.046Z</time></trkpt><trkpt lat="42.4143743" lon="11.4476661"><ele>22.666666666666668</ele><time>2026-04-22T10:31:26.061Z</time></trkpt><trkpt lat="42.4143645" lon="11.447953"><ele>21.333333333333336</ele><time>2026-04-22T10:31:27.073Z</time></trkpt><trkpt lat="42.41436" lon="11.4482342"><ele>20.0</ele><time>2026-04-22T10:31:28.057Z</time></trkpt><trkpt lat="42.4143613" lon="11.4485123"><ele>19.333333333333336</ele><time>2026-04-22T10:31:29.046Z</time></trkpt><trkpt lat="42.4143612" lon="11.4487999"><ele>18.666666666666668</ele><time>2026-04-22T10:31:30.061Z</time></trkpt><trkpt lat="42.4143585" lon="11.4490885"><ele>18.0</ele><time>2026-04-22T10:31:31.068Z</time></trkpt><trkpt lat="42.4143577" lon="11.4493739"><ele>17.333333333333332</ele><time>2026-04-22T10:31:32.065Z</time></trkpt><trkpt lat="42.4143529" lon="11.4496614"><ele>16.666666666666664</ele><time>2026-04-22T10:31:33.079Z</time></trkpt><trkpt lat="42.4143462" lon="11.4499491"><ele>16.0</ele><time>2026-04-22T10:31:34.063Z</time></trkpt><trkpt lat="42.4143423" lon="11.4502331"><ele>15.0</ele><time>2026-04-22T10:31:35.051Z</time></trkpt><trkpt lat="42.4143436" lon="11.4505211"><ele>14.0</ele><time>2026-04-22T10:31:36.062Z</time></trkpt><trkpt lat="42.4143408" lon="11.4508057"><ele>13.0</ele><time>2026-04-22T10:31:37.054Z</time></trkpt><trkpt lat="42.4143378" lon="11.4510907"><ele>13.666666666666666</ele><time>2026-04-22T10:31:38.064Z</time></trkpt><trkpt lat="42.4143398" lon="11.451373"><ele>14.333333333333332</ele><time>2026-04-22T10:31:39.042Z</time></trkpt><trkpt lat="42.4143391" lon="11.4516566"><ele>15.0</ele><time>2026-04-22T10:31:40.06Z</time></trkpt><trkpt lat="42.4143347" lon="11.4519317"><ele>16.333333333333332</ele><time>2026-04-22T10:31:41.068Z</time></trkpt><trkpt lat="42.4143314" lon="11.4521991"><ele>17.666666666666664</ele><time>2026-04-22T10:31:42.064Z</time></trkpt><trkpt lat="42.4143295" lon="11.4524584"><ele>19.0</ele><time>2026-04-22T10:31:43.075Z</time></trkpt><trkpt lat="42.4143254" lon="11.4527188"><ele>20.0</ele><time>2026-04-22T10:31:44.059Z</time></trkpt><trkpt lat="42.4143174" lon="11.4529726"><ele>21.0</ele><time>2026-04-22T10:31:45.069Z</time></trkpt><trkpt lat="42.4143114" lon="11.4532229"><ele>22.0</ele><time>2026-04-22T10:31:46.047Z</time></trkpt><trkpt lat="42.414311" lon="11.4534748"><ele>22.0</ele><time>2026-04-22T10:31:47.062Z</time></trkpt><trkpt lat="42.4143064" lon="11.4537266"><ele>22.0</ele><time>2026-04-22T10:31:48.059Z</time></trkpt><trkpt lat="42.4143066" lon="11.4539711"><ele>22.0</ele><time>2026-04-22T10:31:49.049Z</time></trkpt><trkpt lat="42.4142998" lon="11.4542257"><ele>22.333333333333332</ele><time>2026-04-22T10:31:50.059Z</time></trkpt><trkpt lat="42.4142941" lon="11.4544797"><ele>22.666666666666668</ele><time>2026-04-22T10:31:51.059Z</time></trkpt><trkpt lat="42.4142929" lon="11.4547386"><ele>23.0</ele><time>2026-04-22T10:31:52.04Z</time></trkpt><trkpt lat="42.4142921" lon="11.4549996"><ele>23.333333333333336</ele><time>2026-04-22T10:31:53.065Z</time></trkpt><trkpt lat="42.4142941" lon="11.4552685"><ele>23.666666666666668</ele><time>2026-04-22T10:31:54.059Z</time></trkpt><trkpt lat="42.4142975" lon="11.4555357"><ele>24.0</ele><time>2026-04-22T10:31:55.066Z</time></trkpt><trkpt lat="42.4142964" lon="11.4558084"><ele>24.0</ele><time>2026-04-22T10:31:56.037Z</time></trkpt><trkpt lat="42.4142902" lon="11.4560759"><ele>24.0</ele><time>2026-04-22T10:31:57.04Z</time></trkpt><trkpt lat="42.4142855" lon="11.4563441"><ele>24.0</ele><time>2026-04-22T10:31:58.07Z</time></trkpt><trkpt lat="42.4142756" lon="11.4566168"><ele>24.0</ele><time>2026-04-22T10:31:59.068Z</time></trkpt><trkpt lat="42.4142667" lon="11.4568769"><ele>24.0</ele><time>2026-04-22T10:32:00.055Z</time></trkpt><trkpt lat="42.4142636" lon="11.457139"><ele>24.0</ele><time>2026-04-22T10:32:01.073Z</time></trkpt><trkpt lat="42.4142616" lon="11.4574021"><ele>23.0</ele><time>2026-04-22T10:32:02.043Z</time></trkpt><trkpt lat="42.4142575" lon="11.4576642"><ele>22.0</ele><time>2026-04-22T10:32:03.05Z</time></trkpt><trkpt lat="42.4142578" lon="11.4579361"><ele>21.0</ele><time>2026-04-22T10:32:04.054Z</time></trkpt><trkpt lat="42.4142571" lon="11.4582038"><ele>20.666666666666668</ele><time>2026-04-22T10:32:05.064Z</time></trkpt><trkpt lat="42.4142613" lon="11.4584861"><ele>20.333333333333336</ele><time>2026-04-22T10:32:06.044Z</time></trkpt><trkpt lat="42.4142604" lon="11.458762"><ele>20.0</ele><time>2026-04-22T10:32:07.056Z</time></trkpt><trkpt lat="42.4142575" lon="11.4590365"><ele>20.666666666666668</ele><time>2026-04-22T10:32:08.044Z</time></trkpt><trkpt lat="42.4142483" lon="11.4593113"><ele>21.333333333333332</ele><time>2026-04-22T10:32:09.051Z</time></trkpt><trkpt lat="42.4142369" lon="11.4595834"><ele>22.0</ele><time>2026-04-22T10:32:10.059Z</time></trkpt><trkpt lat="42.4142259" lon="11.4598619"><ele>22.0</ele><time>2026-04-22T10:32:11.052Z</time></trkpt><trkpt lat="42.4142142" lon="11.4601389"><ele>22.0</ele><time>2026-04-22T10:32:12.067Z</time></trkpt><trkpt lat="42.4142022" lon="11.4604149"><ele>22.0</ele><time>2026-04-22T10:32:13.051Z</time></trkpt><trkpt lat="42.4141957" lon="11.4606885"><ele>22.0</ele><time>2026-04-22T10:32:14.073Z</time></trkpt><trkpt lat="42.4141874" lon="11.4609643"><ele>22.0</ele><time>2026-04-22T10:32:15.063Z</time></trkpt><trkpt lat="42.4141835" lon="11.461237"><ele>22.0</ele><time>2026-04-22T10:32:16.061Z</time></trkpt><trkpt lat="42.4141831" lon="11.4615158"><ele>21.666666666666664</ele><time>2026-04-22T10:32:17.042Z</time></trkpt><trkpt lat="42.4141806" lon="11.4617887"><ele>21.333333333333332</ele><time>2026-04-22T10:32:18.067Z</time></trkpt><trkpt lat="42.4141827" lon="11.4620657"><ele>21.0</ele><time>2026-04-22T10:32:19.075Z</time></trkpt><trkpt lat="42.4141811" lon="11.4623353"><ele>21.0</ele><time>2026-04-22T10:32:20.056Z</time></trkpt><trkpt lat="42.4141753" lon="11.4626102"><ele>21.0</ele><time>2026-04-22T10:32:21.024Z</time></trkpt><trkpt lat="42.4141734" lon="11.4628858"><ele>21.0</ele><time>2026-04-22T10:32:22.029Z</time></trkpt><trkpt lat="42.4141676" lon="11.4631701"><ele>21.666666666666668</ele><time>2026-04-22T10:32:23.035Z</time></trkpt><trkpt lat="42.414162" lon="11.4634536"><ele>22.333333333333336</ele><time>2026-04-22T10:32:24.055Z</time></trkpt><trkpt lat="42.4141588" lon="11.463732"><ele>23.0</ele><time>2026-04-22T10:32:25.043Z</time></trkpt><trkpt lat="42.4141514" lon="11.4640102"><ele>24.333333333333336</ele><time>2026-04-22T10:32:26.05Z</time></trkpt><trkpt lat="42.4141483" lon="11.4642849"><ele>25.666666666666668</ele><time>2026-04-22T10:32:27.057Z</time></trkpt><trkpt lat="42.4141449" lon="11.464561"><ele>27.0</ele><time>2026-04-22T10:32:28.054Z</time></trkpt><trkpt lat="42.4141305" lon="11.4648415"><ele>28.0</ele><time>2026-04-22T10:32:29.061Z</time></trkpt><trkpt lat="42.4141204" lon="11.4651192"><ele>29.0</ele><time>2026-04-22T10:32:30.067Z</time></trkpt><trkpt lat="42.4141169" lon="11.4654006"><ele>30.0</ele><time>2026-04-22T10:32:31.061Z</time></trkpt><trkpt lat="42.4141117" lon="11.4656832"><ele>30.0</ele><time>2026-04-22T10:32:32.058Z</time></trkpt><trkpt lat="42.4141076" lon="11.4659617"><ele>30.0</ele><time>2026-04-22T10:32:33.066Z</time></trkpt><trkpt lat="42.4141049" lon="11.4662506"><ele>30.0</ele><time>2026-04-22T10:32:34.054Z</time></trkpt><trkpt lat="42.4141022" lon="11.4665429"><ele>30.333333333333336</ele><time>2026-04-22T10:32:35.048Z</time></trkpt><trkpt lat="42.4141006" lon="11.4668311"><ele>30.666666666666668</ele><time>2026-04-22T10:32:36.067Z</time></trkpt><trkpt lat="42.4141013" lon="11.4671179"><ele>31.0</ele><time>2026-04-22T10:32:37.047Z</time></trkpt><trkpt lat="42.4141046" lon="11.4674013"><ele>31.0</ele><time>2026-04-22T10:32:38.067Z</time></trkpt><trkpt lat="42.4141022" lon="11.4676852"><ele>31.0</ele><time>2026-04-22T10:32:39.039Z</time></trkpt><trkpt lat="42.4140987" lon="11.4679736"><ele>31.0</ele><time>2026-04-22T10:32:40.04Z</time></trkpt><trkpt lat="42.4140937" lon="11.468261"><ele>31.0</ele><time>2026-04-22T10:32:41.056Z</time></trkpt><trkpt lat="42.4140877" lon="11.4685491"><ele>31.0</ele><time>2026-04-22T10:32:42.055Z</time></trkpt><trkpt lat="42.4140856" lon="11.468832"><ele>31.0</ele><time>2026-04-22T10:32:43.052Z</time></trkpt><trkpt lat="42.4140861" lon="11.4691168"><ele>31.333333333333336</ele><time>2026-04-22T10:32:44.062Z</time></trkpt><trkpt lat="42.4140815" lon="11.4693992"><ele>31.666666666666664</ele><time>2026-04-22T10:32:45.043Z</time></trkpt><trkpt lat="42.4140796" lon="11.469685"><ele>32.0</ele><time>2026-04-22T10:32:46.053Z</time></trkpt><trkpt lat="42.4140789" lon="11.4699706"><ele>32.0</ele><time>2026-04-22T10:32:47.046Z</time></trkpt><trkpt lat="42.4140741" lon="11.4702586"><ele>32.0</ele><time>2026-04-22T10:32:48.057Z</time></trkpt><trkpt lat="42.4140676" lon="11.4705411"><ele>32.0</ele><time>2026-04-22T10:32:49.062Z</time></trkpt><trkpt lat="42.4140643" lon="11.4708276"><ele>31.0</ele><time>2026-04-22T10:32:50.062Z</time></trkpt><trkpt lat="42.4140623" lon="11.4711168"><ele>30.0</ele><time>2026-04-22T10:32:51.059Z</time></trkpt><trkpt lat="42.4140545" lon="11.4714187"><ele>29.0</ele><time>2026-04-22T10:32:52.044Z</time></trkpt><trkpt lat="42.4140474" lon="11.4717138"><ele>28.666666666666664</ele><time>2026-04-22T10:32:53.053Z</time></trkpt><trkpt lat="42.4140226" lon="11.4720061"><ele>28.333333333333336</ele><time>2026-04-22T10:32:54.064Z</time></trkpt><trkpt lat="42.4139832" lon="11.4722922"><ele>28.0</ele><time>2026-04-22T10:32:55.057Z</time></trkpt><trkpt lat="42.4139307" lon="11.4725777"><ele>27.0</ele><time>2026-04-22T10:32:56.044Z</time></trkpt><trkpt lat="42.4138704" lon="11.4728502"><ele>26.0</ele><time>2026-04-22T10:32:57.063Z</time></trkpt><trkpt lat="42.4138029" lon="11.4731289"><ele>25.0</ele><time>2026-04-22T10:32:58.055Z</time></trkpt><trkpt lat="42.4137193" lon="11.4734019"><ele>24.666666666666668</ele><time>2026-04-22T10:32:59.053Z</time></trkpt><trkpt lat="42.4136326" lon="11.4736691"><ele>24.333333333333336</ele><time>2026-04-22T10:33:00.037Z</time></trkpt><trkpt lat="42.4135392" lon="11.4739253"><ele>24.0</ele><time>2026-04-22T10:33:01.047Z</time></trkpt><trkpt lat="42.4134399" lon="11.4741795"><ele>24.0</ele><time>2026-04-22T10:33:02.056Z</time></trkpt><trkpt lat="42.4133243" lon="11.4744332"><ele>24.0</ele><time>2026-04-22T10:33:03.034Z</time></trkpt><trkpt lat="42.4131998" lon="11.4746748"><ele>24.0</ele><time>2026-04-22T10:33:04.052Z</time></trkpt><trkpt lat="42.4130612" lon="11.4749057"><ele>23.333333333333332</ele><time>2026-04-22T10:33:05.057Z</time></trkpt><trkpt lat="42.4129188" lon="11.4751183"><ele>22.666666666666664</ele><time>2026-04-22T10:33:06.065Z</time></trkpt><trkpt lat="42.4127706" lon="11.475335"><ele>22.0</ele><time>2026-04-22T10:33:07.029Z</time></trkpt><trkpt lat="42.4126126" lon="11.4755362"><ele>22.0</ele><time>2026-04-22T10:33:08.057Z</time></trkpt><trkpt lat="42.4124505" lon="11.4757273"><ele>22.0</ele><time>2026-04-22T10:33:09.045Z</time></trkpt><trkpt lat="42.4122754" lon="11.475906"><ele>22.0</ele><time>2026-04-22T10:33:10.055Z</time></trkpt><trkpt lat="42.4121003" lon="11.4760776"><ele>22.0</ele><time>2026-04-22T10:33:11.039Z</time></trkpt><trkpt lat="42.4119192" lon="11.4762438"><ele>22.0</ele><time>2026-04-22T10:33:12.055Z</time></trkpt><trkpt lat="42.4117363" lon="11.4763969"><ele>22.0</ele><time>2026-04-22T10:33:13.055Z</time></trkpt><trkpt lat="42.4115455" lon="11.4765374"><ele>22.0</ele><time>2026-04-22T10:33:14.052Z</time></trkpt><trkpt lat="42.4113578" lon="11.4766717"><ele>22.0</ele><time>2026-04-22T10:33:15.054Z</time></trkpt><trkpt lat="42.4111697" lon="11.4768004"><ele>22.0</ele><time>2026-04-22T10:33:16.043Z</time></trkpt><trkpt lat="42.4109809" lon="11.4769288"><ele>22.0</ele><time>2026-04-22T10:33:17.048Z</time></trkpt><trkpt lat="42.4107908" lon="11.4770715"><ele>22.0</ele><time>2026-04-22T10:33:18.049Z</time></trkpt><trkpt lat="42.4105995" lon="11.4772121"><ele>22.0</ele><time>2026-04-22T10:33:19.068Z</time></trkpt><trkpt lat="42.4104064" lon="11.4773483"><ele>22.333333333333332</ele><time>2026-04-22T10:33:20.053Z</time></trkpt><trkpt lat="42.4102142" lon="11.4774833"><ele>22.666666666666668</ele><time>2026-04-22T10:33:21.041Z</time></trkpt><trkpt lat="42.4100227" lon="11.4776227"><ele>23.0</ele><time>2026-04-22T10:33:22.063Z</time></trkpt><trkpt lat="42.4098351" lon="11.4777739"><ele>24.0</ele><time>2026-04-22T10:33:23.064Z</time></trkpt><trkpt lat="42.409654" lon="11.477936"><ele>25.0</ele><time>2026-04-22T10:33:24.062Z</time></trkpt><trkpt lat="42.40948" lon="11.4781116"><ele>26.0</ele><time>2026-04-22T10:33:25.06Z</time></trkpt><trkpt lat="42.4093072" lon="11.4782911"><ele>26.0</ele><time>2026-04-22T10:33:26.05Z</time></trkpt><trkpt lat="42.4091396" lon="11.4784741"><ele>26.0</ele><time>2026-04-22T10:33:27.068Z</time></trkpt><trkpt lat="42.4089773" lon="11.4786639"><ele>26.0</ele><time>2026-04-22T10:33:28.045Z</time></trkpt><trkpt lat="42.4088205" lon="11.4788623"><ele>26.333333333333332</ele><time>2026-04-22T10:33:29.062Z</time></trkpt><trkpt lat="42.4086712" lon="11.4790651"><ele>26.666666666666664</ele><time>2026-04-22T10:33:30.048Z</time></trkpt><trkpt lat="42.4085253" lon="11.4792809"><ele>27.0</ele><time>2026-04-22T10:33:31.043Z</time></trkpt><trkpt lat="42.4083824" lon="11.4794976"><ele>26.666666666666664</ele><time>2026-04-22T10:33:32.037Z</time></trkpt><trkpt lat="42.4082402" lon="11.4797187"><ele>26.333333333333332</ele><time>2026-04-22T10:33:33.05Z</time></trkpt><trkpt lat="42.4081098" lon="11.4799556"><ele>26.0</ele><time>2026-04-22T10:33:34.051Z</time></trkpt><trkpt lat="42.4079845" lon="11.4801914"><ele>26.0</ele><time>2026-04-22T10:33:35.07Z</time></trkpt><trkpt lat="42.4078601" lon="11.4804319"><ele>26.0</ele><time>2026-04-22T10:33:36.053Z</time></trkpt><trkpt lat="42.4077477" lon="11.4806866"><ele>26.0</ele><time>2026-04-22T10:33:37.054Z</time></trkpt><trkpt lat="42.4076477" lon="11.4809462"><ele>26.0</ele><time>2026-04-22T10:33:38.054Z</time></trkpt><trkpt lat="42.4075577" lon="11.4812145"><ele>26.0</ele><time>2026-04-22T10:33:39.065Z</time></trkpt><trkpt lat="42.4074801" lon="11.4814839"><ele>26.0</ele><time>2026-04-22T10:33:40.046Z</time></trkpt><trkpt lat="42.4074013" lon="11.4817517"><ele>26.333333333333332</ele><time>2026-04-22T10:33:41.051Z</time></trkpt><trkpt lat="42.4073275" lon="11.4820238"><ele>26.666666666666664</ele><time>2026-04-22T10:33:42.068Z</time></trkpt><trkpt lat="42.4072477" lon="11.4823099"><ele>27.0</ele><time>2026-04-22T10:33:43.047Z</time></trkpt><trkpt lat="42.4071638" lon="11.482605"><ele>26.0</ele><time>2026-04-22T10:33:44.061Z</time></trkpt><trkpt lat="42.4070846" lon="11.4828905"><ele>25.0</ele><time>2026-04-22T10:33:45.065Z</time></trkpt><trkpt lat="42.4069979" lon="11.4831761"><ele>23.5</ele><time>2026-04-22T10:33:46.057Z</time></trkpt><trkpt lat="42.4069166" lon="11.4834619"><ele>22.0</ele><time>2026-04-22T10:33:47.055Z</time></trkpt><trkpt lat="42.4068356" lon="11.4837497"><ele>21.5</ele><time>2026-04-22T10:33:48.054Z</time></trkpt><trkpt lat="42.4067494" lon="11.4840439"><ele>21.0</ele><time>2026-04-22T10:33:49.045Z</time></trkpt><trkpt lat="42.4066703" lon="11.4843344"><ele>20.5</ele><time>2026-04-22T10:33:50.055Z</time></trkpt><trkpt lat="42.4065906" lon="11.4846259"><ele>20.0</ele><time>2026-04-22T10:33:51.071Z</time></trkpt><trkpt lat="42.4065051" lon="11.4849157"><ele>20.0</ele><time>2026-04-22T10:33:52.062Z</time></trkpt><trkpt lat="42.4064196" lon="11.4852028"><ele>20.0</ele><time>2026-04-22T10:33:53.051Z</time></trkpt><trkpt lat="42.4063352" lon="11.4854935"><ele>17.0</ele><time>2026-04-22T10:33:54.05Z</time></trkpt><trkpt lat="42.4062506" lon="11.4857844"><ele>14.0</ele><time>2026-04-22T10:33:55.034Z</time></trkpt><trkpt lat="42.4061717" lon="11.4860788"><ele>14.5</ele><time>2026-04-22T10:33:56.066Z</time></trkpt><trkpt lat="42.4060901" lon="11.4863697"><ele>15.0</ele><time>2026-04-22T10:33:57.056Z</time></trkpt><trkpt lat="42.406009" lon="11.4866655"><ele>15.0</ele><time>2026-04-22T10:33:58.04Z</time></trkpt><trkpt lat="42.4059217" lon="11.4869637"><ele>15.0</ele><time>2026-04-22T10:33:59.049Z</time></trkpt><trkpt lat="42.4058355" lon="11.487261"><ele>17.0</ele><time>2026-04-22T10:34:00.055Z</time></trkpt><trkpt lat="42.4057531" lon="11.4875653"><ele>19.0</ele><time>2026-04-22T10:34:01.056Z</time></trkpt><trkpt lat="42.4056699" lon="11.4878695"><ele>20.5</ele><time>2026-04-22T10:34:02.069Z</time></trkpt><trkpt lat="42.4055855" lon="11.4881647"><ele>22.0</ele><time>2026-04-22T10:34:03.065Z</time></trkpt><trkpt lat="42.4055008" lon="11.4884634"><ele>21.0</ele><time>2026-04-22T10:34:04.047Z</time></trkpt><trkpt lat="42.4054148" lon="11.4887581"><ele>20.0</ele><time>2026-04-22T10:34:05.052Z</time></trkpt><trkpt lat="42.4053336" lon="11.4890588"><ele>20.0</ele><time>2026-04-22T10:34:06.039Z</time></trkpt><trkpt lat="42.4052517" lon="11.4893625"><ele>20.0</ele><time>2026-04-22T10:34:07.047Z</time></trkpt><trkpt lat="42.4051627" lon="11.4896565"><ele>20.5</ele><time>2026-04-22T10:34:08.047Z</time></trkpt><trkpt lat="42.4050738" lon="11.4899524"><ele>21.0</ele><time>2026-04-22T10:34:09.06Z</time></trkpt><trkpt lat="42.4049795" lon="11.4902491"><ele>19.5</ele><time>2026-04-22T10:34:10.039Z</time></trkpt><trkpt lat="42.4048883" lon="11.4905446"><ele>18.0</ele><time>2026-04-22T10:34:11.039Z</time></trkpt><trkpt lat="42.4048036" lon="11.4908412"><ele>18.0</ele><time>2026-04-22T10:34:12.051Z</time></trkpt><trkpt lat="42.4047167" lon="11.4911417"><ele>18.0</ele><time>2026-04-22T10:34:13.055Z</time></trkpt><trkpt lat="42.4046248" lon="11.4914299"><ele>18.0</ele><time>2026-04-22T10:34:14.064Z</time></trkpt><trkpt lat="42.4045361" lon="11.4917296"><ele>18.0</ele><time>2026-04-22T10:34:15.062Z</time></trkpt><trkpt lat="42.4044461" lon="11.4920263"><ele>15.5</ele><time>2026-04-22T10:34:16.053Z</time></trkpt><trkpt lat="42.4043611" lon="11.4923149"><ele>13.0</ele><time>2026-04-22T10:34:17.047Z</time></trkpt><trkpt lat="42.4042792" lon="11.4926124"><ele>13.0</ele><time>2026-04-22T10:34:18.058Z</time></trkpt><trkpt lat="42.4041979" lon="11.4929105"><ele>13.0</ele><time>2026-04-22T10:34:19.05Z</time></trkpt><trkpt lat="42.4041124" lon="11.4932063"><ele>13.0</ele><time>2026-04-22T10:34:20.033Z</time></trkpt><trkpt lat="42.4040339" lon="11.4935018"><ele>13.0</ele><time>2026-04-22T10:34:21.053Z</time></trkpt><trkpt lat="42.4039512" lon="11.4937915"><ele>13.0</ele><time>2026-04-22T10:34:22.055Z</time></trkpt><trkpt lat="42.4038699" lon="11.4940867"><ele>13.0</ele><time>2026-04-22T10:34:23.055Z</time></trkpt><trkpt lat="42.4037901" lon="11.4943773"><ele>13.5</ele><time>2026-04-22T10:34:24.054Z</time></trkpt><trkpt lat="42.4037086" lon="11.4946663"><ele>14.0</ele><time>2026-04-22T10:34:25.051Z</time></trkpt><trkpt lat="42.4036256" lon="11.4949512"><ele>14.0</ele><time>2026-04-22T10:34:26.058Z</time></trkpt><trkpt lat="42.403542" lon="11.4952267"><ele>14.0</ele><time>2026-04-22T10:34:27.047Z</time></trkpt><trkpt lat="42.4034548" lon="11.4955023"><ele>14.0</ele><time>2026-04-22T10:34:28.05Z</time></trkpt><trkpt lat="42.4033783" lon="11.4957869"><ele>14.666666666666668</ele><time>2026-04-22T10:34:29.055Z</time></trkpt><trkpt lat="42.4033004" lon="11.4960693"><ele>15.333333333333332</ele><time>2026-04-22T10:34:30.052Z</time></trkpt><trkpt lat="42.4032238" lon="11.4963502"><ele>16.0</ele><time>2026-04-22T10:34:31.046Z</time></trkpt><trkpt lat="42.4031487" lon="11.4966348"><ele>17.5</ele><time>2026-04-22T10:34:32.045Z</time></trkpt><trkpt lat="42.4030636" lon="11.496926"><ele>19.0</ele><time>2026-04-22T10:34:33.061Z</time></trkpt><trkpt lat="42.4029781" lon="11.4972309"><ele>20.5</ele><time>2026-04-22T10:34:34.046Z</time></trkpt><trkpt lat="42.4028891" lon="11.4975374"><ele>22.0</ele><time>2026-04-22T10:34:35.067Z</time></trkpt><trkpt lat="42.4028034" lon="11.4978394"><ele>21.0</ele><time>2026-04-22T10:34:36.048Z</time></trkpt><trkpt lat="42.4027165" lon="11.4981402"><ele>20.0</ele><time>2026-04-22T10:34:37.042Z</time></trkpt><trkpt lat="42.4026296" lon="11.4984435"><ele>20.0</ele><time>2026-04-22T10:34:38.056Z</time></trkpt><trkpt lat="42.4025399" lon="11.4987492"><ele>20.0</ele><time>2026-04-22T10:34:39.054Z</time></trkpt><trkpt lat="42.4024545" lon="11.49905"><ele>20.0</ele><time>2026-04-22T10:34:40.049Z</time></trkpt><trkpt lat="42.4023725" lon="11.4993531"><ele>20.0</ele><time>2026-04-22T10:34:41.048Z</time></trkpt><trkpt lat="42.40229" lon="11.4996597"><ele>19.0</ele><time>2026-04-22T10:34:42.055Z</time></trkpt><trkpt lat="42.4022009" lon="11.4999594"><ele>18.0</ele><time>2026-04-22T10:34:43.061Z</time></trkpt><trkpt lat="42.4021147" lon="11.5002639"><ele>17.5</ele><time>2026-04-22T10:34:44.049Z</time></trkpt><trkpt lat="42.4020302" lon="11.5005617"><ele>17.0</ele><time>2026-04-22T10:34:45.045Z</time></trkpt><trkpt lat="42.4019435" lon="11.5008651"><ele>17.0</ele><time>2026-04-22T10:34:46.052Z</time></trkpt><trkpt lat="42.4018592" lon="11.5011612"><ele>17.0</ele><time>2026-04-22T10:34:47.054Z</time></trkpt><trkpt lat="42.4017722" lon="11.5014612"><ele>15.5</ele><time>2026-04-22T10:34:48.052Z</time></trkpt><trkpt lat="42.4016833" lon="11.5017522"><ele>14.0</ele><time>2026-04-22T10:34:49.049Z</time></trkpt><trkpt lat="42.4015931" lon="11.5020489"><ele>13.5</ele><time>2026-04-22T10:34:50.058Z</time></trkpt><trkpt lat="42.4015018" lon="11.5023396"><ele>13.0</ele><time>2026-04-22T10:34:51.053Z</time></trkpt><trkpt lat="42.4014184" lon="11.502638"><ele>13.0</ele><time>2026-04-22T10:34:52.047Z</time></trkpt><trkpt lat="42.4013386" lon="11.502932"><ele>13.0</ele><time>2026-04-22T10:34:53.043Z</time></trkpt><trkpt lat="42.4012577" lon="11.5032284"><ele>13.0</ele><time>2026-04-22T10:34:54.05Z</time></trkpt><trkpt lat="42.4011721" lon="11.5035289"><ele>13.0</ele><time>2026-04-22T10:34:55.064Z</time></trkpt><trkpt lat="42.4010872" lon="11.5038205"><ele>13.5</ele><time>2026-04-22T10:34:56.066Z</time></trkpt><trkpt lat="42.4010009" lon="11.5041086"><ele>14.0</ele><time>2026-04-22T10:34:57.051Z</time></trkpt><trkpt lat="42.4009195" lon="11.5043872"><ele>15.0</ele><time>2026-04-22T10:34:58.044Z</time></trkpt><trkpt lat="42.4008381" lon="11.5046797"><ele>16.0</ele><time>2026-04-22T10:34:59.05Z</time></trkpt><trkpt lat="42.4007577" lon="11.5049684"><ele>16.0</ele><time>2026-04-22T10:35:00.043Z</time></trkpt><trkpt lat="42.4006805" lon="11.5052634"><ele>16.0</ele><time>2026-04-22T10:35:01.048Z</time></trkpt><trkpt lat="42.4005948" lon="11.5055465"><ele>17.333333333333332</ele><time>2026-04-22T10:35:02.04Z</time></trkpt><trkpt lat="42.4005148" lon="11.5058303"><ele>18.666666666666668</ele><time>2026-04-22T10:35:03.052Z</time></trkpt><trkpt lat="42.4004345" lon="11.5061086"><ele>20.0</ele><time>2026-04-22T10:35:04.046Z</time></trkpt><trkpt lat="42.4003541" lon="11.5063924"><ele>20.0</ele><time>2026-04-22T10:35:05.039Z</time></trkpt><trkpt lat="42.4002734" lon="11.5066702"><ele>20.0</ele><time>2026-04-22T10:35:06.059Z</time></trkpt><trkpt lat="42.4001903" lon="11.5069466"><ele>20.0</ele><time>2026-04-22T10:35:07.044Z</time></trkpt><trkpt lat="42.4001077" lon="11.5072215"><ele>20.0</ele><time>2026-04-22T10:35:08.033Z</time></trkpt><trkpt lat="42.4000293" lon="11.5074976"><ele>20.0</ele><time>2026-04-22T10:35:09.029Z</time></trkpt><trkpt lat="42.3999512" lon="11.5077805"><ele>20.0</ele><time>2026-04-22T10:35:10.035Z</time></trkpt><trkpt lat="42.3998739" lon="11.5080592"><ele>20.0</ele><time>2026-04-22T10:35:11.047Z</time></trkpt><trkpt lat="42.3997972" lon="11.5083366"><ele>20.0</ele><time>2026-04-22T10:35:12.059Z</time></trkpt><trkpt lat="42.3997174" lon="11.5086148"><ele>20.0</ele><time>2026-04-22T10:35:13.053Z</time></trkpt><trkpt lat="42.3996406" lon="11.5088871"><ele>20.0</ele><time>2026-04-22T10:35:14.052Z</time></trkpt><trkpt lat="42.3995648" lon="11.5091632"><ele>20.0</ele><time>2026-04-22T10:35:15.042Z</time></trkpt><trkpt lat="42.3994883" lon="11.5094304"><ele>20.0</ele><time>2026-04-22T10:35:16.046Z</time></trkpt><trkpt lat="42.3994127" lon="11.5096955"><ele>20.0</ele><time>2026-04-22T10:35:17.057Z</time></trkpt><trkpt lat="42.3993386" lon="11.5099653"><ele>20.0</ele><time>2026-04-22T10:35:18.044Z</time></trkpt><trkpt lat="42.3992628" lon="11.5102408"><ele>20.0</ele><time>2026-04-22T10:35:19.046Z</time></trkpt><trkpt lat="42.3991832" lon="11.5105199"><ele>20.666666666666668</ele><time>2026-04-22T10:35:20.06Z</time></trkpt><trkpt lat="42.399103" lon="11.5107976"><ele>21.333333333333332</ele><time>2026-04-22T10:35:21.044Z</time></trkpt><trkpt lat="42.3990238" lon="11.5110717"><ele>22.0</ele><time>2026-04-22T10:35:22.037Z</time></trkpt><trkpt lat="42.3989464" lon="11.5113503"><ele>22.333333333333332</ele><time>2026-04-22T10:35:23.048Z</time></trkpt><trkpt lat="42.3988652" lon="11.511631"><ele>22.666666666666668</ele><time>2026-04-22T10:35:24.063Z</time></trkpt><trkpt lat="42.3987823" lon="11.5119047"><ele>23.0</ele><time>2026-04-22T10:35:25.052Z</time></trkpt><trkpt lat="42.3987047" lon="11.5121734"><ele>22.0</ele><time>2026-04-22T10:35:26.045Z</time></trkpt><trkpt lat="42.3986207" lon="11.5124559"><ele>21.0</ele><time>2026-04-22T10:35:27.049Z</time></trkpt><trkpt lat="42.3985437" lon="11.5127322"><ele>20.0</ele><time>2026-04-22T10:35:28.059Z</time></trkpt><trkpt lat="42.3984632" lon="11.5130122"><ele>19.666666666666668</ele><time>2026-04-22T10:35:29.043Z</time></trkpt><trkpt lat="42.398385" lon="11.5132984"><ele>19.333333333333332</ele><time>2026-04-22T10:35:30.05Z</time></trkpt><trkpt lat="42.3983055" lon="11.5135751"><ele>19.0</ele><time>2026-04-22T10:35:31.053Z</time></trkpt><trkpt lat="42.3982248" lon="11.5138555"><ele>19.0</ele><time>2026-04-22T10:35:32.051Z</time></trkpt><trkpt lat="42.398148" lon="11.5141299"><ele>19.0</ele><time>2026-04-22T10:35:33.05Z</time></trkpt><trkpt lat="42.3980682" lon="11.5144027"><ele>19.0</ele><time>2026-04-22T10:35:34.053Z</time></trkpt><trkpt lat="42.3979858" lon="11.5146799"><ele>17.0</ele><time>2026-04-22T10:35:35.051Z</time></trkpt><trkpt lat="42.3979027" lon="11.5149587"><ele>15.0</ele><time>2026-04-22T10:35:36.057Z</time></trkpt><trkpt lat="42.3978236" lon="11.5152383"><ele>13.0</ele><time>2026-04-22T10:35:37.056Z</time></trkpt><trkpt lat="42.397747" lon="11.5155222"><ele>13.0</ele><time>2026-04-22T10:35:38.043Z</time></trkpt><trkpt lat="42.3976709" lon="11.5158012"><ele>13.0</ele><time>2026-04-22T10:35:39.06Z</time></trkpt><trkpt lat="42.3975914" lon="11.5160803"><ele>13.0</ele><time>2026-04-22T10:35:40.044Z</time></trkpt><trkpt lat="42.3975122" lon="11.5163557"><ele>13.0</ele><time>2026-04-22T10:35:41.051Z</time></trkpt><trkpt lat="42.397438" lon="11.5166313"><ele>13.0</ele><time>2026-04-22T10:35:42.055Z</time></trkpt><trkpt lat="42.3973577" lon="11.5169083"><ele>13.0</ele><time>2026-04-22T10:35:43.037Z</time></trkpt><trkpt lat="42.3972801" lon="11.5171923"><ele>13.333333333333332</ele><time>2026-04-22T10:35:44.046Z</time></trkpt><trkpt lat="42.397201" lon="11.5174675"><ele>13.666666666666668</ele><time>2026-04-22T10:35:45.047Z</time></trkpt><trkpt lat="42.397126" lon="11.5177431"><ele>14.0</ele><time>2026-04-22T10:35:46.055Z</time></trkpt><trkpt lat="42.3970441" lon="11.5180157"><ele>14.333333333333334</ele><time>2026-04-22T10:35:47.05Z</time></trkpt><trkpt lat="42.3969661" lon="11.5182909"><ele>14.666666666666668</ele><time>2026-04-22T10:35:48.048Z</time></trkpt><trkpt lat="42.3968861" lon="11.5185749"><ele>15.0</ele><time>2026-04-22T10:35:49.051Z</time></trkpt><trkpt lat="42.3968073" lon="11.5188478"><ele>15.0</ele><time>2026-04-22T10:35:50.049Z</time></trkpt><trkpt lat="42.396721" lon="11.5191335"><ele>15.0</ele><time>2026-04-22T10:35:51.046Z</time></trkpt><trkpt lat="42.3966455" lon="11.5194112"><ele>15.0</ele><time>2026-04-22T10:35:52.056Z</time></trkpt><trkpt lat="42.3965656" lon="11.5196861"><ele>16.0</ele><time>2026-04-22T10:35:53.035Z</time></trkpt><trkpt lat="42.3964885" lon="11.5199695"><ele>17.0</ele><time>2026-04-22T10:35:54.067Z</time></trkpt><trkpt lat="42.3964153" lon="11.5202474"><ele>18.0</ele><time>2026-04-22T10:35:55.06Z</time></trkpt><trkpt lat="42.396341" lon="11.520525"><ele>18.0</ele><time>2026-04-22T10:35:56.029Z</time></trkpt><trkpt lat="42.3962632" lon="11.520804"><ele>18.0</ele><time>2026-04-22T10:35:57.045Z</time></trkpt><trkpt lat="42.3961831" lon="11.5210845"><ele>18.0</ele><time>2026-04-22T10:35:58.077Z</time></trkpt><trkpt lat="42.3961029" lon="11.5213639"><ele>18.0</ele><time>2026-04-22T10:35:59.028Z</time></trkpt><trkpt lat="42.3960232" lon="11.5216438"><ele>18.0</ele><time>2026-04-22T10:36:00.043Z</time></trkpt><trkpt lat="42.3959393" lon="11.521929"><ele>18.0</ele><time>2026-04-22T10:36:01.068Z</time></trkpt><trkpt lat="42.395855" lon="11.5222041"><ele>18.666666666666668</ele><time>2026-04-22T10:36:02.045Z</time></trkpt><trkpt lat="42.3957742" lon="11.5224846"><ele>19.333333333333336</ele><time>2026-04-22T10:36:03.047Z</time></trkpt><trkpt lat="42.3956964" lon="11.5227647"><ele>20.0</ele><time>2026-04-22T10:36:04.048Z</time></trkpt><trkpt lat="42.3956188" lon="11.5230434"><ele>20.666666666666668</ele><time>2026-04-22T10:36:05.05Z</time></trkpt><trkpt lat="42.395539" lon="11.5233208"><ele>21.333333333333332</ele><time>2026-04-22T10:36:06.043Z</time></trkpt><trkpt lat="42.3954593" lon="11.523594"><ele>22.0</ele><time>2026-04-22T10:36:07.055Z</time></trkpt><trkpt lat="42.3953791" lon="11.5238694"><ele>22.0</ele><time>2026-04-22T10:36:08.057Z</time></trkpt><trkpt lat="42.3952976" lon="11.5241462"><ele>22.0</ele><time>2026-04-22T10:36:09.056Z</time></trkpt><trkpt lat="42.3952184" lon="11.5244296"><ele>22.0</ele><time>2026-04-22T10:36:10.035Z</time></trkpt><trkpt lat="42.3951441" lon="11.5247108"><ele>22.0</ele><time>2026-04-22T10:36:11.044Z</time></trkpt><trkpt lat="42.3950655" lon="11.5249941"><ele>22.0</ele><time>2026-04-22T10:36:12.049Z</time></trkpt><trkpt lat="42.3949867" lon="11.5252699"><ele>22.0</ele><time>2026-04-22T10:36:13.042Z</time></trkpt><trkpt lat="42.3949083" lon="11.525544"><ele>22.0</ele><time>2026-04-22T10:36:14.035Z</time></trkpt><trkpt lat="42.3948316" lon="11.5258299"><ele>22.0</ele><time>2026-04-22T10:36:15.05Z</time></trkpt><trkpt lat="42.3947523" lon="11.5261104"><ele>22.0</ele><time>2026-04-22T10:36:16.054Z</time></trkpt><trkpt lat="42.3946698" lon="11.5263857"><ele>21.0</ele><time>2026-04-22T10:36:17.051Z</time></trkpt><trkpt lat="42.3945892" lon="11.5266615"><ele>20.0</ele><time>2026-04-22T10:36:18.041Z</time></trkpt><trkpt lat="42.3945113" lon="11.5269385"><ele>19.0</ele><time>2026-04-22T10:36:19.033Z</time></trkpt><trkpt lat="42.3944354" lon="11.5272085"><ele>19.0</ele><time>2026-04-22T10:36:20.063Z</time></trkpt><trkpt lat="42.39436" lon="11.5274886"><ele>19.0</ele><time>2026-04-22T10:36:21.045Z</time></trkpt><trkpt lat="42.3942832" lon="11.5277689"><ele>19.0</ele><time>2026-04-22T10:36:22.078Z</time></trkpt><trkpt lat="42.3942059" lon="11.5280458"><ele>19.0</ele><time>2026-04-22T10:36:23.049Z</time></trkpt><trkpt lat="42.3941289" lon="11.5283269"><ele>19.0</ele><time>2026-04-22T10:36:24.055Z</time></trkpt><trkpt lat="42.3940513" lon="11.52861"><ele>19.0</ele><time>2026-04-22T10:36:25.048Z</time></trkpt><trkpt lat="42.3939731" lon="11.5288866"><ele>19.0</ele><time>2026-04-22T10:36:26.052Z</time></trkpt><trkpt lat="42.393895" lon="11.5291659"><ele>19.0</ele><time>2026-04-22T10:36:27.068Z</time></trkpt><trkpt lat="42.3938125" lon="11.5294485"><ele>19.0</ele><time>2026-04-22T10:36:28.053Z</time></trkpt><trkpt lat="42.3937266" lon="11.5297391"><ele>18.0</ele><time>2026-04-22T10:36:29.059Z</time></trkpt><trkpt lat="42.3936357" lon="11.5300358"><ele>17.0</ele><time>2026-04-22T10:36:30.064Z</time></trkpt><trkpt lat="42.3935496" lon="11.5303452"><ele>17.0</ele><time>2026-04-22T10:36:31.044Z</time></trkpt><trkpt lat="42.3934631" lon="11.5306532"><ele>17.0</ele><time>2026-04-22T10:36:32.055Z</time></trkpt><trkpt lat="42.3933748" lon="11.5309588"><ele>18.0</ele><time>2026-04-22T10:36:33.06Z</time></trkpt><trkpt lat="42.3932845" lon="11.5312675"><ele>19.0</ele><time>2026-04-22T10:36:34.054Z</time></trkpt><trkpt lat="42.3931984" lon="11.5315772"><ele>19.0</ele><time>2026-04-22T10:36:35.069Z</time></trkpt><trkpt lat="42.3931044" lon="11.5318826"><ele>19.0</ele><time>2026-04-22T10:36:36.057Z</time></trkpt><trkpt lat="42.393019" lon="11.5321839"><ele>20.5</ele><time>2026-04-22T10:36:37.03Z</time></trkpt><trkpt lat="42.3929346" lon="11.5324816"><ele>22.0</ele><time>2026-04-22T10:36:38.054Z</time></trkpt><trkpt lat="42.3928459" lon="11.532775"><ele>24.0</ele><time>2026-04-22T10:36:39.039Z</time></trkpt><trkpt lat="42.3927629" lon="11.5330632"><ele>26.0</ele><time>2026-04-22T10:36:40.042Z</time></trkpt><trkpt lat="42.3926844" lon="11.5333521"><ele>26.0</ele><time>2026-04-22T10:36:41.068Z</time></trkpt><trkpt lat="42.3925996" lon="11.5336437"><ele>26.0</ele><time>2026-04-22T10:36:42.057Z</time></trkpt><trkpt lat="42.3925155" lon="11.533931"><ele>25.5</ele><time>2026-04-22T10:36:43.05Z</time></trkpt><trkpt lat="42.3924327" lon="11.5342241"><ele>25.0</ele><time>2026-04-22T10:36:44.053Z</time></trkpt><trkpt lat="42.3923462" lon="11.5345105"><ele>26.5</ele><time>2026-04-22T10:36:45.061Z</time></trkpt><trkpt lat="42.3922656" lon="11.5347959"><ele>28.0</ele><time>2026-04-22T10:36:46.057Z</time></trkpt><trkpt lat="42.392184" lon="11.535082"><ele>27.5</ele><time>2026-04-22T10:36:47.039Z</time></trkpt><trkpt lat="42.3921054" lon="11.5353713"><ele>27.0</ele><time>2026-04-22T10:36:48.049Z</time></trkpt><trkpt lat="42.392027" lon="11.5356623"><ele>27.0</ele><time>2026-04-22T10:36:49.066Z</time></trkpt><trkpt lat="42.391951" lon="11.5359475"><ele>27.0</ele><time>2026-04-22T10:36:50.054Z</time></trkpt><trkpt lat="42.3918728" lon="11.5362329"><ele>27.0</ele><time>2026-04-22T10:36:51.053Z</time></trkpt><trkpt lat="42.3917896" lon="11.5365175"><ele>27.5</ele><time>2026-04-22T10:36:52.059Z</time></trkpt><trkpt lat="42.3917076" lon="11.5368014"><ele>28.0</ele><time>2026-04-22T10:36:53.047Z</time></trkpt><trkpt lat="42.3916248" lon="11.5370866"><ele>28.0</ele><time>2026-04-22T10:36:54.05Z</time></trkpt><trkpt lat="42.3915433" lon="11.5373719"><ele>28.0</ele><time>2026-04-22T10:36:55.052Z</time></trkpt><trkpt lat="42.3914647" lon="11.5376585"><ele>28.0</ele><time>2026-04-22T10:36:56.049Z</time></trkpt><trkpt lat="42.391387" lon="11.537943"><ele>28.0</ele><time>2026-04-22T10:36:57.048Z</time></trkpt><trkpt lat="42.3913109" lon="11.538227"><ele>28.0</ele><time>2026-04-22T10:36:58.036Z</time></trkpt><trkpt lat="42.3912256" lon="11.5385085"><ele>29.0</ele><time>2026-04-22T10:36:59.026Z</time></trkpt><trkpt lat="42.3911401" lon="11.5387972"><ele>30.0</ele><time>2026-04-22T10:37:00.058Z</time></trkpt><trkpt lat="42.3910558" lon="11.5390871"><ele>30.0</ele><time>2026-04-22T10:37:01.05Z</time></trkpt><trkpt lat="42.3909668" lon="11.5393732"><ele>30.0</ele><time>2026-04-22T10:37:02.051Z</time></trkpt><trkpt lat="42.390866" lon="11.5396504"><ele>30.5</ele><time>2026-04-22T10:37:03.053Z</time></trkpt><trkpt lat="42.3907568" lon="11.5399162"><ele>31.0</ele><time>2026-04-22T10:37:04.061Z</time></trkpt><trkpt lat="42.3906405" lon="11.5401785"><ele>30.0</ele><time>2026-04-22T10:37:05.019Z</time></trkpt><trkpt lat="42.3905186" lon="11.5404384"><ele>29.0</ele><time>2026-04-22T10:37:06.021Z</time></trkpt><trkpt lat="42.3903929" lon="11.5407"><ele>27.0</ele><time>2026-04-22T10:37:07.043Z</time></trkpt><trkpt lat="42.3902643" lon="11.5409528"><ele>25.0</ele><time>2026-04-22T10:37:08.054Z</time></trkpt><trkpt lat="42.3901162" lon="11.5411975"><ele>25.5</ele><time>2026-04-22T10:37:09.047Z</time></trkpt><trkpt lat="42.3899665" lon="11.5414407"><ele>26.0</ele><time>2026-04-22T10:37:10.046Z</time></trkpt><trkpt lat="42.3898133" lon="11.5416714"><ele>25.0</ele><time>2026-04-22T10:37:11.06Z</time></trkpt><trkpt lat="42.3896464" lon="11.5418973"><ele>24.0</ele><time>2026-04-22T10:37:12.048Z</time></trkpt><trkpt lat="42.3894797" lon="11.5421184"><ele>24.0</ele><time>2026-04-22T10:37:13.051Z</time></trkpt><trkpt lat="42.3892985" lon="11.542332"><ele>24.0</ele><time>2026-04-22T10:37:14.057Z</time></trkpt><trkpt lat="42.3891171" lon="11.5425298"><ele>24.0</ele><time>2026-04-22T10:37:15.062Z</time></trkpt><trkpt lat="42.3889319" lon="11.542728"><ele>24.0</ele><time>2026-04-22T10:37:16.039Z</time></trkpt><trkpt lat="42.3887462" lon="11.5429297"><ele>22.5</ele><time>2026-04-22T10:37:17.039Z</time></trkpt><trkpt lat="42.3885555" lon="11.5431329"><ele>21.0</ele><time>2026-04-22T10:37:18.055Z</time></trkpt><trkpt lat="42.3883597" lon="11.5433283"><ele>21.0</ele><time>2026-04-22T10:37:19.046Z</time></trkpt><trkpt lat="42.3881607" lon="11.5435222"><ele>21.0</ele><time>2026-04-22T10:37:20.06Z</time></trkpt><trkpt lat="42.3879646" lon="11.54373"><ele>18.5</ele><time>2026-04-22T10:37:21.041Z</time></trkpt><trkpt lat="42.3877678" lon="11.5439382"><ele>16.0</ele><time>2026-04-22T10:37:22.04Z</time></trkpt><trkpt lat="42.3875727" lon="11.5441487"><ele>16.0</ele><time>2026-04-22T10:37:23.043Z</time></trkpt><trkpt lat="42.3873787" lon="11.5443558"><ele>16.0</ele><time>2026-04-22T10:37:24.067Z</time></trkpt><trkpt lat="42.3871871" lon="11.5445589"><ele>15.5</ele><time>2026-04-22T10:37:25.042Z</time></trkpt><trkpt lat="42.3869919" lon="11.5447664"><ele>15.0</ele><time>2026-04-22T10:37:26.057Z</time></trkpt><trkpt lat="42.3867969" lon="11.5449731"><ele>15.0</ele><time>2026-04-22T10:37:27.055Z</time></trkpt><trkpt lat="42.3866058" lon="11.54518"><ele>15.0</ele><time>2026-04-22T10:37:28.037Z</time></trkpt><trkpt lat="42.3864119" lon="11.5453875"><ele>15.0</ele><time>2026-04-22T10:37:29.055Z</time></trkpt><trkpt lat="42.3862223" lon="11.545595"><ele>15.0</ele><time>2026-04-22T10:37:30.033Z</time></trkpt><trkpt lat="42.3860367" lon="11.5458051"><ele>15.0</ele><time>2026-04-22T10:37:31.042Z</time></trkpt><trkpt lat="42.385855" lon="11.5460241"><ele>15.0</ele><time>2026-04-22T10:37:32.052Z</time></trkpt><trkpt lat="42.3856733" lon="11.5462338"><ele>14.0</ele><time>2026-04-22T10:37:33.034Z</time></trkpt><trkpt lat="42.3854911" lon="11.5464484"><ele>13.0</ele><time>2026-04-22T10:37:34.052Z</time></trkpt><trkpt lat="42.3853082" lon="11.5466587"><ele>13.0</ele><time>2026-04-22T10:37:35.037Z</time></trkpt><trkpt lat="42.3851258" lon="11.5468688"><ele>13.0</ele><time>2026-04-22T10:37:36.057Z</time></trkpt><trkpt lat="42.3849442" lon="11.5470663"><ele>13.5</ele><time>2026-04-22T10:37:37.049Z</time></trkpt><trkpt lat="42.3847606" lon="11.5472809"><ele>14.0</ele><time>2026-04-22T10:37:38.044Z</time></trkpt><trkpt lat="42.384579" lon="11.5474974"><ele>14.5</ele><time>2026-04-22T10:37:39.045Z</time></trkpt><trkpt lat="42.3844015" lon="11.5477059"><ele>15.0</ele><time>2026-04-22T10:37:40.042Z</time></trkpt><trkpt lat="42.3842194" lon="11.5479126"><ele>16.5</ele><time>2026-04-22T10:37:41.048Z</time></trkpt><trkpt lat="42.3840411" lon="11.5481108"><ele>18.0</ele><time>2026-04-22T10:37:42.048Z</time></trkpt><trkpt lat="42.3838659" lon="11.5483128"><ele>18.5</ele><time>2026-04-22T10:37:43.039Z</time></trkpt><trkpt lat="42.3836857" lon="11.5485175"><ele>19.0</ele><time>2026-04-22T10:37:44.059Z</time></trkpt><trkpt lat="42.3835104" lon="11.548723"><ele>20.0</ele><time>2026-04-22T10:37:45.056Z</time></trkpt><trkpt lat="42.3833317" lon="11.5489272"><ele>21.0</ele><time>2026-04-22T10:37:46.063Z</time></trkpt><trkpt lat="42.3831569" lon="11.5491227"><ele>20.5</ele><time>2026-04-22T10:37:47.052Z</time></trkpt><trkpt lat="42.3829782" lon="11.5493259"><ele>20.0</ele><time>2026-04-22T10:37:48.044Z</time></trkpt><trkpt lat="42.3827999" lon="11.5495235"><ele>19.5</ele><time>2026-04-22T10:37:49.044Z</time></trkpt><trkpt lat="42.3826251" lon="11.549726"><ele>19.0</ele><time>2026-04-22T10:37:50.029Z</time></trkpt><trkpt lat="42.3824533" lon="11.5499285"><ele>19.0</ele><time>2026-04-22T10:37:51.064Z</time></trkpt><trkpt lat="42.3822731" lon="11.5501268"><ele>19.0</ele><time>2026-04-22T10:37:52.018Z</time></trkpt><trkpt lat="42.3820932" lon="11.5503225"><ele>20.0</ele><time>2026-04-22T10:37:53.027Z</time></trkpt><trkpt lat="42.3819144" lon="11.5505244"><ele>21.0</ele><time>2026-04-22T10:37:54.029Z</time></trkpt><trkpt lat="42.3817385" lon="11.5507335"><ele>21.0</ele><time>2026-04-22T10:37:55.055Z</time></trkpt><trkpt lat="42.3815629" lon="11.5509299"><ele>21.0</ele><time>2026-04-22T10:37:56.037Z</time></trkpt><trkpt lat="42.3813841" lon="11.5511359"><ele>21.5</ele><time>2026-04-22T10:37:57.042Z</time></trkpt><trkpt lat="42.3812065" lon="11.5513329"><ele>22.0</ele><time>2026-04-22T10:37:58.049Z</time></trkpt><trkpt lat="42.3810324" lon="11.551527"><ele>22.0</ele><time>2026-04-22T10:37:59.039Z</time></trkpt><trkpt lat="42.3808512" lon="11.5517239"><ele>22.0</ele><time>2026-04-22T10:38:00.04Z</time></trkpt><trkpt lat="42.3806734" lon="11.5519232"><ele>19.5</ele><time>2026-04-22T10:38:01.021Z</time></trkpt><trkpt lat="42.3804946" lon="11.5521256"><ele>17.0</ele><time>2026-04-22T10:38:02.046Z</time></trkpt><trkpt lat="42.3803168" lon="11.5523266"><ele>17.0</ele><time>2026-04-22T10:38:03.064Z</time></trkpt><trkpt lat="42.380138" lon="11.5525249"><ele>17.0</ele><time>2026-04-22T10:38:04.063Z</time></trkpt><trkpt lat="42.3799565" lon="11.5527217"><ele>18.5</ele><time>2026-04-22T10:38:05.034Z</time></trkpt><trkpt lat="42.3797725" lon="11.5529199"><ele>20.0</ele><time>2026-04-22T10:38:06.037Z</time></trkpt><trkpt lat="42.3795892" lon="11.553118"><ele>20.5</ele><time>2026-04-22T10:38:07.063Z</time></trkpt><trkpt lat="42.3794118" lon="11.5533181"><ele>21.0</ele><time>2026-04-22T10:38:08.047Z</time></trkpt><trkpt lat="42.3792362" lon="11.5535061"><ele>21.0</ele><time>2026-04-22T10:38:09.023Z</time></trkpt><trkpt lat="42.3790571" lon="11.5537023"><ele>21.0</ele><time>2026-04-22T10:38:10.045Z</time></trkpt><trkpt lat="42.3788827" lon="11.5538926"><ele>19.5</ele><time>2026-04-22T10:38:11.04Z</time></trkpt><trkpt lat="42.3787103" lon="11.5540892"><ele>18.0</ele><time>2026-04-22T10:38:12.037Z</time></trkpt><trkpt lat="42.3785372" lon="11.5542821"><ele>18.0</ele><time>2026-04-22T10:38:13.03Z</time></trkpt><trkpt lat="42.3783598" lon="11.5544816"><ele>18.0</ele><time>2026-04-22T10:38:14.053Z</time></trkpt><trkpt lat="42.3781831" lon="11.5546787"><ele>15.0</ele><time>2026-04-22T10:38:15.058Z</time></trkpt><trkpt lat="42.3780072" lon="11.5548731"><ele>12.0</ele><time>2026-04-22T10:38:16.061Z</time></trkpt><trkpt lat="42.377825" lon="11.5550716"><ele>12.0</ele><time>2026-04-22T10:38:17.057Z</time></trkpt><trkpt lat="42.3776457" lon="11.5552703"><ele>12.0</ele><time>2026-04-22T10:38:18.038Z</time></trkpt><trkpt lat="42.3774714" lon="11.5554604"><ele>11.5</ele><time>2026-04-22T10:38:19.069Z</time></trkpt><trkpt lat="42.3772956" lon="11.5556531"><ele>11.0</ele><time>2026-04-22T10:38:20.051Z</time></trkpt><trkpt lat="42.3771258" lon="11.5558499"><ele>10.333333333333332</ele><time>2026-04-22T10:38:21.051Z</time></trkpt><trkpt lat="42.3769504" lon="11.5560416"><ele>9.666666666666666</ele><time>2026-04-22T10:38:22.049Z</time></trkpt><trkpt lat="42.3767789" lon="11.5562354"><ele>9.0</ele><time>2026-04-22T10:38:23.056Z</time></trkpt><trkpt lat="42.3766105" lon="11.5564195"><ele>9.0</ele><time>2026-04-22T10:38:24.068Z</time></trkpt><trkpt lat="42.3764439" lon="11.5566073"><ele>9.0</ele><time>2026-04-22T10:38:25.062Z</time></trkpt><trkpt lat="42.3762749" lon="11.5567866"><ele>9.0</ele><time>2026-04-22T10:38:26.064Z</time></trkpt><trkpt lat="42.3761087" lon="11.5569688"><ele>9.666666666666666</ele><time>2026-04-22T10:38:27.043Z</time></trkpt><trkpt lat="42.375936" lon="11.5571526"><ele>10.333333333333332</ele><time>2026-04-22T10:38:28.041Z</time></trkpt><trkpt lat="42.375765" lon="11.5573421"><ele>11.0</ele><time>2026-04-22T10:38:29.044Z</time></trkpt><trkpt lat="42.3755891" lon="11.5575327"><ele>10.333333333333332</ele><time>2026-04-22T10:38:30.048Z</time></trkpt><trkpt lat="42.3754099" lon="11.5577161"><ele>9.666666666666666</ele><time>2026-04-22T10:38:31.046Z</time></trkpt><trkpt lat="42.3752328" lon="11.5578942"><ele>9.0</ele><time>2026-04-22T10:38:32.042Z</time></trkpt><trkpt lat="42.3750542" lon="11.558064"><ele>9.0</ele><time>2026-04-22T10:38:33.054Z</time></trkpt><trkpt lat="42.3748707" lon="11.5582378"><ele>9.0</ele><time>2026-04-22T10:38:34.047Z</time></trkpt><trkpt lat="42.3746846" lon="11.5584048"><ele>9.0</ele><time>2026-04-22T10:38:35.038Z</time></trkpt><trkpt lat="42.3744974" lon="11.558572"><ele>11.0</ele><time>2026-04-22T10:38:36.049Z</time></trkpt><trkpt lat="42.3743156" lon="11.5587358"><ele>13.0</ele><time>2026-04-22T10:38:37.052Z</time></trkpt><trkpt lat="42.3741264" lon="11.5589023"><ele>15.0</ele><time>2026-04-22T10:38:38.033Z</time></trkpt><trkpt lat="42.3739397" lon="11.5590657"><ele>15.0</ele><time>2026-04-22T10:38:39.04Z</time></trkpt><trkpt lat="42.3737568" lon="11.5592284"><ele>15.0</ele><time>2026-04-22T10:38:40.064Z</time></trkpt><trkpt lat="42.3735764" lon="11.5593968"><ele>15.0</ele><time>2026-04-22T10:38:41.045Z</time></trkpt><trkpt lat="42.3733949" lon="11.5595637"><ele>14.0</ele><time>2026-04-22T10:38:42.057Z</time></trkpt><trkpt lat="42.3732079" lon="11.5597282"><ele>13.0</ele><time>2026-04-22T10:38:43.068Z</time></trkpt><trkpt lat="42.3730235" lon="11.5598966"><ele>12.0</ele><time>2026-04-22T10:38:44.055Z</time></trkpt><trkpt lat="42.3728432" lon="11.560066"><ele>11.333333333333334</ele><time>2026-04-22T10:38:45.043Z</time></trkpt><trkpt lat="42.3726586" lon="11.5602269"><ele>10.666666666666668</ele><time>2026-04-22T10:38:46.071Z</time></trkpt><trkpt lat="42.3724694" lon="11.5603941"><ele>10.0</ele><time>2026-04-22T10:38:47.048Z</time></trkpt><trkpt lat="42.3722817" lon="11.5605599"><ele>11.666666666666668</ele><time>2026-04-22T10:38:48.045Z</time></trkpt><trkpt lat="42.3720983" lon="11.5607232"><ele>13.333333333333334</ele><time>2026-04-22T10:38:49.081Z</time></trkpt><trkpt lat="42.37191" lon="11.5608905"><ele>15.0</ele><time>2026-04-22T10:38:50.061Z</time></trkpt><trkpt lat="42.3717283" lon="11.5610573"><ele>16.333333333333332</ele><time>2026-04-22T10:38:51.045Z</time></trkpt><trkpt lat="42.3715437" lon="11.5612211"><ele>17.666666666666664</ele><time>2026-04-22T10:38:52.051Z</time></trkpt><trkpt lat="42.3713645" lon="11.5613819"><ele>19.0</ele><time>2026-04-22T10:38:53.039Z</time></trkpt><trkpt lat="42.3711842" lon="11.5615498"><ele>19.0</ele><time>2026-04-22T10:38:54.048Z</time></trkpt><trkpt lat="42.3710075" lon="11.5617229"><ele>19.0</ele><time>2026-04-22T10:38:55.051Z</time></trkpt><trkpt lat="42.3708393" lon="11.561904"><ele>19.0</ele><time>2026-04-22T10:38:56.043Z</time></trkpt><trkpt lat="42.370672" lon="11.5620958"><ele>21.0</ele><time>2026-04-22T10:38:57.054Z</time></trkpt><trkpt lat="42.370513" lon="11.5622947"><ele>23.0</ele><time>2026-04-22T10:38:58.039Z</time></trkpt><trkpt lat="42.3703521" lon="11.5625039"><ele>25.0</ele><time>2026-04-22T10:38:59.062Z</time></trkpt><trkpt lat="42.3701954" lon="11.5627172"><ele>25.333333333333336</ele><time>2026-04-22T10:39:00.044Z</time></trkpt><trkpt lat="42.3700431" lon="11.56293"><ele>25.666666666666664</ele><time>2026-04-22T10:39:01.053Z</time></trkpt><trkpt lat="42.3698902" lon="11.5631479"><ele>26.0</ele><time>2026-04-22T10:39:02.045Z</time></trkpt><trkpt lat="42.3697442" lon="11.5633737"><ele>26.333333333333332</ele><time>2026-04-22T10:39:03.041Z</time></trkpt><trkpt lat="42.3696087" lon="11.5636057"><ele>26.666666666666664</ele><time>2026-04-22T10:39:04.046Z</time></trkpt><trkpt lat="42.3694781" lon="11.5638413"><ele>27.0</ele><time>2026-04-22T10:39:05.058Z</time></trkpt><trkpt lat="42.3693484" lon="11.5640809"><ele>27.0</ele><time>2026-04-22T10:39:06.033Z</time></trkpt><trkpt lat="42.3692251" lon="11.5643295"><ele>27.0</ele><time>2026-04-22T10:39:07.039Z</time></trkpt><trkpt lat="42.3690969" lon="11.5645742"><ele>27.0</ele><time>2026-04-22T10:39:08.045Z</time></trkpt><trkpt lat="42.3689794" lon="11.5648253"><ele>27.0</ele><time>2026-04-22T10:39:09.035Z</time></trkpt><trkpt lat="42.3688724" lon="11.5650855"><ele>27.0</ele><time>2026-04-22T10:39:10.043Z</time></trkpt><trkpt lat="42.3687794" lon="11.5653592"><ele>27.0</ele><time>2026-04-22T10:39:11.034Z</time></trkpt><trkpt lat="42.368693" lon="11.5656335"><ele>27.0</ele><time>2026-04-22T10:39:12.061Z</time></trkpt><trkpt lat="42.3686103" lon="11.5659092"><ele>27.0</ele><time>2026-04-22T10:39:13.055Z</time></trkpt><trkpt lat="42.3685243" lon="11.5661801"><ele>27.0</ele><time>2026-04-22T10:39:14.072Z</time></trkpt><trkpt lat="42.3684482" lon="11.5664548"><ele>26.666666666666664</ele><time>2026-04-22T10:39:15.041Z</time></trkpt><trkpt lat="42.3683696" lon="11.5667365"><ele>26.333333333333332</ele><time>2026-04-22T10:39:16.058Z</time></trkpt><trkpt lat="42.3682921" lon="11.5670184"><ele>26.0</ele><time>2026-04-22T10:39:17.06Z</time></trkpt><trkpt lat="42.3682174" lon="11.5672995"><ele>26.0</ele><time>2026-04-22T10:39:18.049Z</time></trkpt><trkpt lat="42.3681418" lon="11.5675873"><ele>26.0</ele><time>2026-04-22T10:39:19.068Z</time></trkpt><trkpt lat="42.3680706" lon="11.5678684"><ele>26.0</ele><time>2026-04-22T10:39:20.054Z</time></trkpt><trkpt lat="42.3680049" lon="11.5681526"><ele>25.666666666666664</ele><time>2026-04-22T10:39:21.055Z</time></trkpt><trkpt lat="42.3679359" lon="11.5684334"><ele>25.333333333333336</ele><time>2026-04-22T10:39:22.073Z</time></trkpt><trkpt lat="42.3678656" lon="11.5687106"><ele>25.0</ele><time>2026-04-22T10:39:23.069Z</time></trkpt><trkpt lat="42.3677995" lon="11.5689902"><ele>24.333333333333336</ele><time>2026-04-22T10:39:24.026Z</time></trkpt><trkpt lat="42.3677284" lon="11.5692763"><ele>23.666666666666668</ele><time>2026-04-22T10:39:25.049Z</time></trkpt><trkpt lat="42.367657" lon="11.5695618"><ele>23.0</ele><time>2026-04-22T10:39:26.054Z</time></trkpt><trkpt lat="42.3675855" lon="11.5698387"><ele>23.0</ele><time>2026-04-22T10:39:27.061Z</time></trkpt><trkpt lat="42.3675124" lon="11.570119"><ele>23.0</ele><time>2026-04-22T10:39:28.056Z</time></trkpt><trkpt lat="42.3674467" lon="11.5704008"><ele>23.0</ele><time>2026-04-22T10:39:29.043Z</time></trkpt><trkpt lat="42.367375" lon="11.570684"><ele>23.0</ele><time>2026-04-22T10:39:30.053Z</time></trkpt><trkpt lat="42.3673033" lon="11.5709638"><ele>23.0</ele><time>2026-04-22T10:39:31.044Z</time></trkpt><trkpt lat="42.3672325" lon="11.5712514"><ele>23.0</ele><time>2026-04-22T10:39:32.047Z</time></trkpt><trkpt lat="42.3671628" lon="11.5715333"><ele>23.333333333333336</ele><time>2026-04-22T10:39:33.063Z</time></trkpt><trkpt lat="42.3670884" lon="11.5718212"><ele>23.666666666666668</ele><time>2026-04-22T10:39:34.055Z</time></trkpt><trkpt lat="42.3670175" lon="11.5721035"><ele>24.0</ele><time>2026-04-22T10:39:35.055Z</time></trkpt><trkpt lat="42.3669463" lon="11.5723794"><ele>25.0</ele><time>2026-04-22T10:39:36.062Z</time></trkpt><trkpt lat="42.3668794" lon="11.572663"><ele>26.0</ele><time>2026-04-22T10:39:37.045Z</time></trkpt><trkpt lat="42.3668119" lon="11.5729455"><ele>27.0</ele><time>2026-04-22T10:39:38.045Z</time></trkpt><trkpt lat="42.3667402" lon="11.5732235"><ele>27.666666666666664</ele><time>2026-04-22T10:39:39.058Z</time></trkpt><trkpt lat="42.3666706" lon="11.5735045"><ele>28.333333333333332</ele><time>2026-04-22T10:39:40.061Z</time></trkpt><trkpt lat="42.3666037" lon="11.573786"><ele>29.0</ele><time>2026-04-22T10:39:41.053Z</time></trkpt><trkpt lat="42.366533" lon="11.574072"><ele>29.0</ele><time>2026-04-22T10:39:42.047Z</time></trkpt><trkpt lat="42.3664619" lon="11.5743593"><ele>29.0</ele><time>2026-04-22T10:39:43.065Z</time></trkpt><trkpt lat="42.366382" lon="11.5746408"><ele>29.0</ele><time>2026-04-22T10:39:44.053Z</time></trkpt><trkpt lat="42.3663023" lon="11.5749168"><ele>29.0</ele><time>2026-04-22T10:39:45.067Z</time></trkpt><trkpt lat="42.3662147" lon="11.575189"><ele>29.0</ele><time>2026-04-22T10:39:46.054Z</time></trkpt><trkpt lat="42.3661246" lon="11.5754582"><ele>29.0</ele><time>2026-04-22T10:39:47.05Z</time></trkpt><trkpt lat="42.3660275" lon="11.5757203"><ele>29.0</ele><time>2026-04-22T10:39:48.065Z</time></trkpt><trkpt lat="42.3659244" lon="11.5759791"><ele>29.0</ele><time>2026-04-22T10:39:49.053Z</time></trkpt><trkpt lat="42.3658152" lon="11.5762361"><ele>29.0</ele><time>2026-04-22T10:39:50.028Z</time></trkpt><trkpt lat="42.3656999" lon="11.5764885"><ele>29.0</ele><time>2026-04-22T10:39:51.05Z</time></trkpt><trkpt lat="42.3655755" lon="11.5767443"><ele>29.0</ele><time>2026-04-22T10:39:52.046Z</time></trkpt><trkpt lat="42.3654535" lon="11.5769973"><ele>29.0</ele><time>2026-04-22T10:39:53.068Z</time></trkpt><trkpt lat="42.3653355" lon="11.5772446"><ele>29.0</ele><time>2026-04-22T10:39:54.046Z</time></trkpt><trkpt lat="42.3652167" lon="11.5774979"><ele>29.0</ele><time>2026-04-22T10:39:55.075Z</time></trkpt><trkpt lat="42.3650987" lon="11.5777426"><ele>29.0</ele><time>2026-04-22T10:39:56.026Z</time></trkpt><trkpt lat="42.364972" lon="11.577988"><ele>28.666666666666664</ele><time>2026-04-22T10:39:57.046Z</time></trkpt><trkpt lat="42.3648444" lon="11.5782352"><ele>28.333333333333336</ele><time>2026-04-22T10:39:58.044Z</time></trkpt><trkpt lat="42.3647183" lon="11.5784775"><ele>28.0</ele><time>2026-04-22T10:39:59.063Z</time></trkpt><trkpt lat="42.3645972" lon="11.5787222"><ele>29.333333333333336</ele><time>2026-04-22T10:40:00.038Z</time></trkpt><trkpt lat="42.3644755" lon="11.5789657"><ele>30.666666666666664</ele><time>2026-04-22T10:40:01.056Z</time></trkpt><trkpt lat="42.3643491" lon="11.5792148"><ele>32.0</ele><time>2026-04-22T10:40:02.035Z</time></trkpt><trkpt lat="42.3642231" lon="11.5794591"><ele>31.666666666666664</ele><time>2026-04-22T10:40:03.05Z</time></trkpt><trkpt lat="42.3641033" lon="11.5797037"><ele>31.333333333333336</ele><time>2026-04-22T10:40:04.05Z</time></trkpt><trkpt lat="42.3639789" lon="11.5799518"><ele>31.0</ele><time>2026-04-22T10:40:05.055Z</time></trkpt><trkpt lat="42.3638555" lon="11.5802004"><ele>30.333333333333336</ele><time>2026-04-22T10:40:06.034Z</time></trkpt><trkpt lat="42.3637317" lon="11.5804494"><ele>29.666666666666664</ele><time>2026-04-22T10:40:07.046Z</time></trkpt><trkpt lat="42.3636058" lon="11.5806911"><ele>29.0</ele><time>2026-04-22T10:40:08.078Z</time></trkpt><trkpt lat="42.3634793" lon="11.5809346"><ele>29.0</ele><time>2026-04-22T10:40:09.059Z</time></trkpt><trkpt lat="42.3633523" lon="11.5811769"><ele>29.0</ele><time>2026-04-22T10:40:10.037Z</time></trkpt><trkpt lat="42.3632287" lon="11.5814333"><ele>29.0</ele><time>2026-04-22T10:40:11.062Z</time></trkpt><trkpt lat="42.3631072" lon="11.5816857"><ele>29.0</ele><time>2026-04-22T10:40:12.058Z</time></trkpt><trkpt lat="42.3629821" lon="11.5819328"><ele>29.0</ele><time>2026-04-22T10:40:13.062Z</time></trkpt><trkpt lat="42.3628574" lon="11.5821811"><ele>29.0</ele><time>2026-04-22T10:40:14.049Z</time></trkpt><trkpt lat="42.3627254" lon="11.5824213"><ele>29.0</ele><time>2026-04-22T10:40:15.055Z</time></trkpt><trkpt lat="42.3625825" lon="11.5826557"><ele>29.0</ele><time>2026-04-22T10:40:16.04Z</time></trkpt><trkpt lat="42.3624315" lon="11.5828733"><ele>29.0</ele><time>2026-04-22T10:40:17.045Z</time></trkpt><trkpt lat="42.362276" lon="11.5830848"><ele>29.666666666666664</ele><time>2026-04-22T10:40:18.044Z</time></trkpt><trkpt lat="42.3621176" lon="11.5832867"><ele>30.333333333333336</ele><time>2026-04-22T10:40:19.045Z</time></trkpt><trkpt lat="42.3619489" lon="11.5834792"><ele>31.0</ele><time>2026-04-22T10:40:20.058Z</time></trkpt><trkpt lat="42.3617736" lon="11.58367"><ele>31.0</ele><time>2026-04-22T10:40:21.053Z</time></trkpt><trkpt lat="42.3615931" lon="11.5838473"><ele>31.0</ele><time>2026-04-22T10:40:22.051Z</time></trkpt><trkpt lat="42.3614126" lon="11.584021"><ele>31.0</ele><time>2026-04-22T10:40:23.043Z</time></trkpt><trkpt lat="42.3612227" lon="11.5841884"><ele>30.666666666666668</ele><time>2026-04-22T10:40:24.04Z</time></trkpt><trkpt lat="42.3610421" lon="11.5843596"><ele>30.333333333333336</ele><time>2026-04-22T10:40:25.043Z</time></trkpt><trkpt lat="42.3608552" lon="11.5845279"><ele>30.0</ele><time>2026-04-22T10:40:26.043Z</time></trkpt><trkpt lat="42.3606674" lon="11.5847021"><ele>29.0</ele><time>2026-04-22T10:40:27.045Z</time></trkpt><trkpt lat="42.3604822" lon="11.5848719"><ele>28.0</ele><time>2026-04-22T10:40:28.04Z</time></trkpt><trkpt lat="42.3603021" lon="11.5850413"><ele>27.0</ele><time>2026-04-22T10:40:29.055Z</time></trkpt><trkpt lat="42.3601234" lon="11.5852117"><ele>27.0</ele><time>2026-04-22T10:40:30.045Z</time></trkpt><trkpt lat="42.3599416" lon="11.585391"><ele>27.0</ele><time>2026-04-22T10:40:31.064Z</time></trkpt><trkpt lat="42.3597604" lon="11.5855613"><ele>27.0</ele><time>2026-04-22T10:40:32.053Z</time></trkpt><trkpt lat="42.3595773" lon="11.5857369"><ele>26.0</ele><time>2026-04-22T10:40:33.069Z</time></trkpt><trkpt lat="42.3594034" lon="11.5859252"><ele>25.0</ele><time>2026-04-22T10:40:34.047Z</time></trkpt><trkpt lat="42.3592358" lon="11.5861147"><ele>24.0</ele><time>2026-04-22T10:40:35.057Z</time></trkpt><trkpt lat="42.3590703" lon="11.5863149"><ele>23.666666666666668</ele><time>2026-04-22T10:40:36.047Z</time></trkpt><trkpt lat="42.3589121" lon="11.5865179"><ele>23.333333333333336</ele><time>2026-04-22T10:40:37.049Z</time></trkpt><trkpt lat="42.3587517" lon="11.5867225"><ele>23.0</ele><time>2026-04-22T10:40:38.035Z</time></trkpt><trkpt lat="42.3585948" lon="11.5869315"><ele>20.666666666666668</ele><time>2026-04-22T10:40:39.049Z</time></trkpt><trkpt lat="42.3584375" lon="11.5871437"><ele>18.333333333333332</ele><time>2026-04-22T10:40:40.053Z</time></trkpt><trkpt lat="42.3582871" lon="11.587348"><ele>16.0</ele><time>2026-04-22T10:40:41.049Z</time></trkpt><trkpt lat="42.3581387" lon="11.5875625"><ele>16.333333333333332</ele><time>2026-04-22T10:40:42.058Z</time></trkpt><trkpt lat="42.3579908" lon="11.5877807"><ele>16.666666666666668</ele><time>2026-04-22T10:40:43.044Z</time></trkpt><trkpt lat="42.3578432" lon="11.5880098"><ele>17.0</ele><time>2026-04-22T10:40:44.043Z</time></trkpt><trkpt lat="42.357701" lon="11.5882341"><ele>17.0</ele><time>2026-04-22T10:40:45.043Z</time></trkpt><trkpt lat="42.3575605" lon="11.5884604"><ele>17.0</ele><time>2026-04-22T10:40:46.047Z</time></trkpt><trkpt lat="42.3574215" lon="11.5886981"><ele>17.0</ele><time>2026-04-22T10:40:47.048Z</time></trkpt><trkpt lat="42.3572869" lon="11.5889287"><ele>16.0</ele><time>2026-04-22T10:40:48.029Z</time></trkpt><trkpt lat="42.357158" lon="11.5891763"><ele>15.0</ele><time>2026-04-22T10:40:49.055Z</time></trkpt><trkpt lat="42.3570294" lon="11.5894198"><ele>14.0</ele><time>2026-04-22T10:40:50.059Z</time></trkpt><trkpt lat="42.3569085" lon="11.5896712"><ele>14.0</ele><time>2026-04-22T10:40:51.044Z</time></trkpt><trkpt lat="42.3567888" lon="11.5899191"><ele>14.0</ele><time>2026-04-22T10:40:52.021Z</time></trkpt><trkpt lat="42.3566768" lon="11.5901771"><ele>14.0</ele><time>2026-04-22T10:40:53.05Z</time></trkpt><trkpt lat="42.356565" lon="11.5904292"><ele>12.0</ele><time>2026-04-22T10:40:54.028Z</time></trkpt><trkpt lat="42.3564554" lon="11.590693"><ele>10.0</ele><time>2026-04-22T10:40:55.033Z</time></trkpt><trkpt lat="42.3563508" lon="11.5909543"><ele>8.0</ele><time>2026-04-22T10:40:56.057Z</time></trkpt><trkpt lat="42.3562444" lon="11.5912164"><ele>8.0</ele><time>2026-04-22T10:40:57.045Z</time></trkpt><trkpt lat="42.356133" lon="11.5914805"><ele>8.0</ele><time>2026-04-22T10:40:58.032Z</time></trkpt><trkpt lat="42.3560266" lon="11.5917418"><ele>8.0</ele><time>2026-04-22T10:40:59.046Z</time></trkpt><trkpt lat="42.3559184" lon="11.5919988"><ele>9.0</ele><time>2026-04-22T10:41:00.069Z</time></trkpt><trkpt lat="42.3558058" lon="11.5922579"><ele>10.0</ele><time>2026-04-22T10:41:01.05Z</time></trkpt><trkpt lat="42.3556919" lon="11.5925173"><ele>11.0</ele><time>2026-04-22T10:41:02.026Z</time></trkpt><trkpt lat="42.355576" lon="11.5927769"><ele>9.333333333333332</ele><time>2026-04-22T10:41:03.057Z</time></trkpt><trkpt lat="42.355468" lon="11.5930393"><ele>7.666666666666666</ele><time>2026-04-22T10:41:04.046Z</time></trkpt><trkpt lat="42.3553591" lon="11.593297"><ele>6.0</ele><time>2026-04-22T10:41:05.06Z</time></trkpt><trkpt lat="42.3552463" lon="11.5935569"><ele>6.333333333333334</ele><time>2026-04-22T10:41:06.05Z</time></trkpt><trkpt lat="42.3551347" lon="11.593817"><ele>6.666666666666667</ele><time>2026-04-22T10:41:07.042Z</time></trkpt><trkpt lat="42.3550244" lon="11.5940727"><ele>7.0</ele><time>2026-04-22T10:41:08.032Z</time></trkpt><trkpt lat="42.3549173" lon="11.5943269"><ele>7.0</ele><time>2026-04-22T10:41:09.047Z</time></trkpt><trkpt lat="42.3548115" lon="11.5945838"><ele>7.0</ele><time>2026-04-22T10:41:10.047Z</time></trkpt><trkpt lat="42.3546968" lon="11.5948395"><ele>7.0</ele><time>2026-04-22T10:41:11.045Z</time></trkpt><trkpt lat="42.354583" lon="11.5950972"><ele>7.333333333333334</ele><time>2026-04-22T10:41:12.058Z</time></trkpt><trkpt lat="42.3544674" lon="11.5953492"><ele>7.666666666666666</ele><time>2026-04-22T10:41:13.059Z</time></trkpt><trkpt lat="42.3543406" lon="11.5955979"><ele>8.0</ele><time>2026-04-22T10:41:14.048Z</time></trkpt><trkpt lat="42.3542021" lon="11.5958447"><ele>8.0</ele><time>2026-04-22T10:41:15.057Z</time></trkpt><trkpt lat="42.3540586" lon="11.5960876"><ele>8.0</ele><time>2026-04-22T10:41:16.055Z</time></trkpt><trkpt lat="42.3539129" lon="11.5963201"><ele>7.333333333333333</ele><time>2026-04-22T10:41:17.048Z</time></trkpt><trkpt lat="42.3537617" lon="11.5965474"><ele>6.666666666666666</ele><time>2026-04-22T10:41:18.045Z</time></trkpt><trkpt lat="42.3536094" lon="11.5967673"><ele>6.0</ele><time>2026-04-22T10:41:19.061Z</time></trkpt><trkpt lat="42.3534586" lon="11.5969843"><ele>7.5</ele><time>2026-04-22T10:41:20.051Z</time></trkpt><trkpt lat="42.3533001" lon="11.5972043"><ele>9.0</ele><time>2026-04-22T10:41:21.076Z</time></trkpt><trkpt lat="42.3531346" lon="11.5974119"><ele>8.0</ele><time>2026-04-22T10:41:22.055Z</time></trkpt><trkpt lat="42.3529576" lon="11.5976008"><ele>7.0</ele><time>2026-04-22T10:41:23.063Z</time></trkpt><trkpt lat="42.3527756" lon="11.5977834"><ele>7.0</ele><time>2026-04-22T10:41:24.046Z</time></trkpt><trkpt lat="42.3525943" lon="11.5979657"><ele>7.0</ele><time>2026-04-22T10:41:25.052Z</time></trkpt><trkpt lat="42.3524052" lon="11.5981379"><ele>7.0</ele><time>2026-04-22T10:41:26.05Z</time></trkpt><trkpt lat="42.3522162" lon="11.5982948"><ele>7.0</ele><time>2026-04-22T10:41:27.055Z</time></trkpt><trkpt lat="42.3520187" lon="11.5984583"><ele>7.5</ele><time>2026-04-22T10:41:28.053Z</time></trkpt><trkpt lat="42.351825" lon="11.598621"><ele>8.0</ele><time>2026-04-22T10:41:29.042Z</time></trkpt><trkpt lat="42.3516342" lon="11.5987938"><ele>9.666666666666666</ele><time>2026-04-22T10:41:30.034Z</time></trkpt><trkpt lat="42.3514473" lon="11.5989553"><ele>11.333333333333332</ele><time>2026-04-22T10:41:31.047Z</time></trkpt><trkpt lat="42.3512605" lon="11.5991125"><ele>13.0</ele><time>2026-04-22T10:41:32.044Z</time></trkpt><trkpt lat="42.3510707" lon="11.599276"><ele>16.0</ele><time>2026-04-22T10:41:33.055Z</time></trkpt><trkpt lat="42.3508838" lon="11.5994398"><ele>19.0</ele><time>2026-04-22T10:41:34.053Z</time></trkpt><trkpt lat="42.3506936" lon="11.5996095"><ele>21.0</ele><time>2026-04-22T10:41:35.045Z</time></trkpt><trkpt lat="42.3505092" lon="11.5997808"><ele>23.0</ele><time>2026-04-22T10:41:36.059Z</time></trkpt><trkpt lat="42.350323" lon="11.5999605"><ele>23.0</ele><time>2026-04-22T10:41:37.058Z</time></trkpt><trkpt lat="42.3501465" lon="11.600147"><ele>23.0</ele><time>2026-04-22T10:41:38.056Z</time></trkpt><trkpt lat="42.3499678" lon="11.6003346"><ele>25.0</ele><time>2026-04-22T10:41:39.064Z</time></trkpt><trkpt lat="42.3497918" lon="11.6005358"><ele>27.0</ele><time>2026-04-22T10:41:40.045Z</time></trkpt><trkpt lat="42.3496262" lon="11.6007459"><ele>27.333333333333336</ele><time>2026-04-22T10:41:41.036Z</time></trkpt><trkpt lat="42.3494646" lon="11.6009559"><ele>27.666666666666668</ele><time>2026-04-22T10:41:42.042Z</time></trkpt><trkpt lat="42.3493035" lon="11.6011672"><ele>28.0</ele><time>2026-04-22T10:41:43.051Z</time></trkpt><trkpt lat="42.3491467" lon="11.6013783"><ele>28.333333333333336</ele><time>2026-04-22T10:41:44.033Z</time></trkpt><trkpt lat="42.3489983" lon="11.6015942"><ele>28.666666666666664</ele><time>2026-04-22T10:41:45.055Z</time></trkpt><trkpt lat="42.3488521" lon="11.6018227"><ele>29.0</ele><time>2026-04-22T10:41:46.039Z</time></trkpt><trkpt lat="42.3487076" lon="11.6020554"><ele>29.333333333333332</ele><time>2026-04-22T10:41:47.048Z</time></trkpt><trkpt lat="42.3485657" lon="11.6022877"><ele>29.666666666666664</ele><time>2026-04-22T10:41:48.059Z</time></trkpt><trkpt lat="42.3484317" lon="11.6025261"><ele>30.0</ele><time>2026-04-22T10:41:49.047Z</time></trkpt><trkpt lat="42.3483051" lon="11.6027758"><ele>29.5</ele><time>2026-04-22T10:41:50.05Z</time></trkpt><trkpt lat="42.3481827" lon="11.603029"><ele>29.0</ele><time>2026-04-22T10:41:51.047Z</time></trkpt><trkpt lat="42.3480662" lon="11.6032958"><ele>30.5</ele><time>2026-04-22T10:41:52.054Z</time></trkpt><trkpt lat="42.3479523" lon="11.6035674"><ele>32.0</ele><time>2026-04-22T10:41:53.062Z</time></trkpt><trkpt lat="42.3478446" lon="11.6038316"><ele>33.0</ele><time>2026-04-22T10:41:54.051Z</time></trkpt><trkpt lat="42.3477436" lon="11.6041024"><ele>34.0</ele><time>2026-04-22T10:41:55.019Z</time></trkpt><trkpt lat="42.3476425" lon="11.604377"><ele>34.0</ele><time>2026-04-22T10:41:56.034Z</time></trkpt><trkpt lat="42.3475468" lon="11.6046558"><ele>34.0</ele><time>2026-04-22T10:41:57.029Z</time></trkpt><trkpt lat="42.3474582" lon="11.6049418"><ele>34.0</ele><time>2026-04-22T10:41:58.03Z</time></trkpt><trkpt lat="42.3473792" lon="11.6052303"><ele>34.0</ele><time>2026-04-22T10:41:59.055Z</time></trkpt><trkpt lat="42.3473102" lon="11.6055179"><ele>33.333333333333336</ele><time>2026-04-22T10:42:00.023Z</time></trkpt><trkpt lat="42.3472437" lon="11.6058094"><ele>32.666666666666664</ele><time>2026-04-22T10:42:01.022Z</time></trkpt><trkpt lat="42.3471844" lon="11.6060971"><ele>32.0</ele><time>2026-04-22T10:42:02.028Z</time></trkpt><trkpt lat="42.3471228" lon="11.6063896"><ele>32.0</ele><time>2026-04-22T10:42:03.035Z</time></trkpt><trkpt lat="42.3470532" lon="11.6066778"><ele>32.0</ele><time>2026-04-22T10:42:04.065Z</time></trkpt><trkpt lat="42.3469909" lon="11.6069661"><ele>32.0</ele><time>2026-04-22T10:42:05.025Z</time></trkpt><trkpt lat="42.3469253" lon="11.6072495"><ele>32.0</ele><time>2026-04-22T10:42:06.036Z</time></trkpt><trkpt lat="42.3468582" lon="11.6075401"><ele>32.0</ele><time>2026-04-22T10:42:07.03Z</time></trkpt><trkpt lat="42.3467959" lon="11.6078306"><ele>32.0</ele><time>2026-04-22T10:42:08.042Z</time></trkpt><trkpt lat="42.3467293" lon="11.6081265"><ele>32.0</ele><time>2026-04-22T10:42:09.06Z</time></trkpt><trkpt lat="42.3466625" lon="11.6084252"><ele>32.0</ele><time>2026-04-22T10:42:10.036Z</time></trkpt><trkpt lat="42.3466007" lon="11.6087164"><ele>33.0</ele><time>2026-04-22T10:42:11.058Z</time></trkpt><trkpt lat="42.3465372" lon="11.6090112"><ele>34.0</ele><time>2026-04-22T10:42:12.046Z</time></trkpt><trkpt lat="42.3464736" lon="11.6093042"><ele>34.333333333333336</ele><time>2026-04-22T10:42:13.054Z</time></trkpt><trkpt lat="42.3464118" lon="11.6095943"><ele>34.666666666666664</ele><time>2026-04-22T10:42:14.057Z</time></trkpt><trkpt lat="42.3463474" lon="11.6098848"><ele>35.0</ele><time>2026-04-22T10:42:15.056Z</time></trkpt><trkpt lat="42.3462834" lon="11.6101749"><ele>36.0</ele><time>2026-04-22T10:42:16.056Z</time></trkpt><trkpt lat="42.3462153" lon="11.6104654"><ele>37.0</ele><time>2026-04-22T10:42:17.053Z</time></trkpt><trkpt lat="42.3461504" lon="11.6107573"><ele>37.0</ele><time>2026-04-22T10:42:18.05Z</time></trkpt><trkpt lat="42.3460833" lon="11.6110491"><ele>37.0</ele><time>2026-04-22T10:42:19.04Z</time></trkpt><trkpt lat="42.3460156" lon="11.6113402"><ele>36.0</ele><time>2026-04-22T10:42:20.042Z</time></trkpt><trkpt lat="42.3459482" lon="11.6116341"><ele>35.0</ele><time>2026-04-22T10:42:21.042Z</time></trkpt><trkpt lat="42.3458818" lon="11.611933"><ele>35.0</ele><time>2026-04-22T10:42:22.038Z</time></trkpt><trkpt lat="42.3458098" lon="11.6122252"><ele>35.0</ele><time>2026-04-22T10:42:23.059Z</time></trkpt><trkpt lat="42.3457351" lon="11.6125062"><ele>35.0</ele><time>2026-04-22T10:42:24.042Z</time></trkpt><trkpt lat="42.3456514" lon="11.6127848"><ele>34.5</ele><time>2026-04-22T10:42:25.034Z</time></trkpt><trkpt lat="42.345554" lon="11.613058"><ele>34.0</ele><time>2026-04-22T10:42:26.02Z</time></trkpt><trkpt lat="42.3454444" lon="11.6133252"><ele>35.0</ele><time>2026-04-22T10:42:27.049Z</time></trkpt><trkpt lat="42.3453281" lon="11.6135875"><ele>36.0</ele><time>2026-04-22T10:42:28.067Z</time></trkpt><trkpt lat="42.3452" lon="11.6138309"><ele>37.0</ele><time>2026-04-22T10:42:29.049Z</time></trkpt><trkpt lat="42.3450665" lon="11.6140666"><ele>37.0</ele><time>2026-04-22T10:42:30.049Z</time></trkpt><trkpt lat="42.3449323" lon="11.6143006"><ele>37.0</ele><time>2026-04-22T10:42:31.036Z</time></trkpt><trkpt lat="42.3447793" lon="11.6145299"><ele>37.0</ele><time>2026-04-22T10:42:32.055Z</time></trkpt><trkpt lat="42.344617" lon="11.6147409"><ele>37.66666666666667</ele><time>2026-04-22T10:42:33.039Z</time></trkpt><trkpt lat="42.3444483" lon="11.6149373"><ele>38.333333333333336</ele><time>2026-04-22T10:42:34.06Z</time></trkpt><trkpt lat="42.3442711" lon="11.6151267"><ele>39.0</ele><time>2026-04-22T10:42:35.054Z</time></trkpt><trkpt lat="42.3440799" lon="11.6152974"><ele>39.0</ele><time>2026-04-22T10:42:36.047Z</time></trkpt><trkpt lat="42.3438837" lon="11.6154669"><ele>39.0</ele><time>2026-04-22T10:42:37.054Z</time></trkpt><trkpt lat="42.3436833" lon="11.6156186"><ele>39.0</ele><time>2026-04-22T10:42:38.037Z</time></trkpt><trkpt lat="42.3434837" lon="11.6157573"><ele>39.0</ele><time>2026-04-22T10:42:39.04Z</time></trkpt><trkpt lat="42.3432821" lon="11.6158888"><ele>39.0</ele><time>2026-04-22T10:42:40.056Z</time></trkpt><trkpt lat="42.3430833" lon="11.6160398"><ele>39.5</ele><time>2026-04-22T10:42:41.052Z</time></trkpt><trkpt lat="42.3428856" lon="11.6161872"><ele>40.0</ele><time>2026-04-22T10:42:42.037Z</time></trkpt><trkpt lat="42.3426823" lon="11.6163272"><ele>40.0</ele><time>2026-04-22T10:42:43.039Z</time></trkpt><trkpt lat="42.3424826" lon="11.6164697"><ele>40.0</ele><time>2026-04-22T10:42:44.051Z</time></trkpt><trkpt lat="42.3422845" lon="11.6166141"><ele>40.0</ele><time>2026-04-22T10:42:45.053Z</time></trkpt><trkpt lat="42.3420869" lon="11.6167571"><ele>40.0</ele><time>2026-04-22T10:42:46.045Z</time></trkpt><trkpt lat="42.3418847" lon="11.6169"><ele>40.0</ele><time>2026-04-22T10:42:47.051Z</time></trkpt><trkpt lat="42.3416863" lon="11.6170461"><ele>40.0</ele><time>2026-04-22T10:42:48.056Z</time></trkpt><trkpt lat="42.3414937" lon="11.6171845"><ele>40.0</ele><time>2026-04-22T10:42:49.057Z</time></trkpt><trkpt lat="42.3412908" lon="11.6173306"><ele>39.5</ele><time>2026-04-22T10:42:50.043Z</time></trkpt><trkpt lat="42.3410909" lon="11.6174761"><ele>39.0</ele><time>2026-04-22T10:42:51.047Z</time></trkpt><trkpt lat="42.3408913" lon="11.6176211"><ele>39.0</ele><time>2026-04-22T10:42:52.056Z</time></trkpt><trkpt lat="42.3406928" lon="11.6177656"><ele>39.0</ele><time>2026-04-22T10:42:53.055Z</time></trkpt><trkpt lat="42.3404962" lon="11.6179068"><ele>39.0</ele><time>2026-04-22T10:42:54.055Z</time></trkpt><trkpt lat="42.3402996" lon="11.61805"><ele>39.0</ele><time>2026-04-22T10:42:55.067Z</time></trkpt><trkpt lat="42.3401006" lon="11.6181912"><ele>39.0</ele><time>2026-04-22T10:42:56.05Z</time></trkpt><trkpt lat="42.3399008" lon="11.6183367"><ele>38.5</ele><time>2026-04-22T10:42:57.048Z</time></trkpt><trkpt lat="42.3397056" lon="11.6184939"><ele>38.0</ele><time>2026-04-22T10:42:58.058Z</time></trkpt><trkpt lat="42.3395097" lon="11.6186572"><ele>38.0</ele><time>2026-04-22T10:42:59.046Z</time></trkpt><trkpt lat="42.3393185" lon="11.6188227"><ele>38.0</ele><time>2026-04-22T10:43:00.041Z</time></trkpt><trkpt lat="42.3391295" lon="11.6190029"><ele>38.0</ele><time>2026-04-22T10:43:01.034Z</time></trkpt><trkpt lat="42.3389464" lon="11.6191872"><ele>38.0</ele><time>2026-04-22T10:43:02.019Z</time></trkpt><trkpt lat="42.3387633" lon="11.6193761"><ele>38.0</ele><time>2026-04-22T10:43:03.023Z</time></trkpt><trkpt lat="42.3385854" lon="11.6195643"><ele>38.0</ele><time>2026-04-22T10:43:04.045Z</time></trkpt><trkpt lat="42.3384135" lon="11.6197517"><ele>38.0</ele><time>2026-04-22T10:43:05.048Z</time></trkpt><trkpt lat="42.3382373" lon="11.619941"><ele>38.0</ele><time>2026-04-22T10:43:06.058Z</time></trkpt><trkpt lat="42.3380641" lon="11.6201405"><ele>38.0</ele><time>2026-04-22T10:43:07.053Z</time></trkpt><trkpt lat="42.3378964" lon="11.6203409"><ele>36.666666666666664</ele><time>2026-04-22T10:43:08.044Z</time></trkpt><trkpt lat="42.3377301" lon="11.6205421"><ele>35.333333333333336</ele><time>2026-04-22T10:43:09.064Z</time></trkpt><trkpt lat="42.337563" lon="11.6207467"><ele>34.0</ele><time>2026-04-22T10:43:10.069Z</time></trkpt><trkpt lat="42.3374011" lon="11.6209572"><ele>33.0</ele><time>2026-04-22T10:43:11.045Z</time></trkpt><trkpt lat="42.3372295" lon="11.621163"><ele>32.0</ele><time>2026-04-22T10:43:12.04Z</time></trkpt><trkpt lat="42.3370618" lon="11.62137"><ele>31.0</ele><time>2026-04-22T10:43:13.056Z</time></trkpt><trkpt lat="42.3368952" lon="11.6215716"><ele>30.0</ele><time>2026-04-22T10:43:14.061Z</time></trkpt><trkpt lat="42.3367328" lon="11.6217691"><ele>29.0</ele><time>2026-04-22T10:43:15.059Z</time></trkpt><trkpt lat="42.3365667" lon="11.621969"><ele>28.0</ele><time>2026-04-22T10:43:16.07Z</time></trkpt><trkpt lat="42.3363976" lon="11.6221683"><ele>27.0</ele><time>2026-04-22T10:43:17.057Z</time></trkpt><trkpt lat="42.3362317" lon="11.6223677"><ele>26.0</ele><time>2026-04-22T10:43:18.052Z</time></trkpt><trkpt lat="42.3360617" lon="11.6225721"><ele>25.333333333333332</ele><time>2026-04-22T10:43:19.064Z</time></trkpt><trkpt lat="42.3358912" lon="11.6227711"><ele>24.666666666666664</ele><time>2026-04-22T10:43:20.061Z</time></trkpt><trkpt lat="42.3357244" lon="11.6229703"><ele>24.0</ele><time>2026-04-22T10:43:21.051Z</time></trkpt><trkpt lat="42.3355537" lon="11.6231762"><ele>24.0</ele><time>2026-04-22T10:43:22.063Z</time></trkpt><trkpt lat="42.3353878" lon="11.6233834"><ele>24.0</ele><time>2026-04-22T10:43:23.068Z</time></trkpt><trkpt lat="42.3352186" lon="11.6235884"><ele>26.0</ele><time>2026-04-22T10:43:24.064Z</time></trkpt><trkpt lat="42.3350497" lon="11.6237973"><ele>28.0</ele><time>2026-04-22T10:43:25.049Z</time></trkpt><trkpt lat="42.334878" lon="11.6240009"><ele>27.333333333333336</ele><time>2026-04-22T10:43:26.058Z</time></trkpt><trkpt lat="42.3347112" lon="11.6242037"><ele>26.666666666666664</ele><time>2026-04-22T10:43:27.038Z</time></trkpt><trkpt lat="42.334548" lon="11.6244109"><ele>26.0</ele><time>2026-04-22T10:43:28.066Z</time></trkpt><trkpt lat="42.3343779" lon="11.6246127"><ele>28.5</ele><time>2026-04-22T10:43:29.048Z</time></trkpt><trkpt lat="42.3342072" lon="11.6248144"><ele>31.0</ele><time>2026-04-22T10:43:30.048Z</time></trkpt><trkpt lat="42.3340433" lon="11.6250199"><ele>31.0</ele><time>2026-04-22T10:43:31.052Z</time></trkpt><trkpt lat="42.3338743" lon="11.625226"><ele>31.0</ele><time>2026-04-22T10:43:32.048Z</time></trkpt><trkpt lat="42.3337022" lon="11.6254285"><ele>31.666666666666668</ele><time>2026-04-22T10:43:33.05Z</time></trkpt><trkpt lat="42.3335361" lon="11.6256347"><ele>32.333333333333336</ele><time>2026-04-22T10:43:34.051Z</time></trkpt><trkpt lat="42.3333698" lon="11.6258303"><ele>33.0</ele><time>2026-04-22T10:43:35.056Z</time></trkpt><trkpt lat="42.3331978" lon="11.6260328"><ele>33.5</ele><time>2026-04-22T10:43:36.064Z</time></trkpt><trkpt lat="42.3330332" lon="11.6262455"><ele>34.0</ele><time>2026-04-22T10:43:37.05Z</time></trkpt><trkpt lat="42.3328636" lon="11.6264524"><ele>34.0</ele><time>2026-04-22T10:43:38.025Z</time></trkpt><trkpt lat="42.3327" lon="11.6266523"><ele>34.0</ele><time>2026-04-22T10:43:39.069Z</time></trkpt><trkpt lat="42.3325306" lon="11.6268586"><ele>34.0</ele><time>2026-04-22T10:43:40.069Z</time></trkpt><trkpt lat="42.3323616" lon="11.6270614"><ele>34.0</ele><time>2026-04-22T10:43:41.038Z</time></trkpt><trkpt lat="42.3321911" lon="11.6272707"><ele>34.0</ele><time>2026-04-22T10:43:42.044Z</time></trkpt><trkpt lat="42.3320229" lon="11.6274744"><ele>34.0</ele><time>2026-04-22T10:43:43.061Z</time></trkpt><trkpt lat="42.3318607" lon="11.6276827"><ele>34.0</ele><time>2026-04-22T10:43:44.059Z</time></trkpt><trkpt lat="42.3316986" lon="11.6278807"><ele>34.0</ele><time>2026-04-22T10:43:45.056Z</time></trkpt><trkpt lat="42.331528" lon="11.6280835"><ele>34.0</ele><time>2026-04-22T10:43:46.034Z</time></trkpt><trkpt lat="42.3313615" lon="11.6282871"><ele>34.0</ele><time>2026-04-22T10:43:47.047Z</time></trkpt><trkpt lat="42.3311915" lon="11.6284947"><ele>34.0</ele><time>2026-04-22T10:43:48.051Z</time></trkpt><trkpt lat="42.331023" lon="11.6286981"><ele>34.0</ele><time>2026-04-22T10:43:49.05Z</time></trkpt><trkpt lat="42.3308568" lon="11.6289038"><ele>34.0</ele><time>2026-04-22T10:43:50.056Z</time></trkpt><trkpt lat="42.3306909" lon="11.6291082"><ele>34.0</ele><time>2026-04-22T10:43:51.025Z</time></trkpt><trkpt lat="42.3305233" lon="11.6293056"><ele>34.0</ele><time>2026-04-22T10:43:52.028Z</time></trkpt><trkpt lat="42.3303497" lon="11.6295074"><ele>34.333333333333336</ele><time>2026-04-22T10:43:53.051Z</time></trkpt><trkpt lat="42.3301839" lon="11.6297062"><ele>34.666666666666664</ele><time>2026-04-22T10:43:54.051Z</time></trkpt><trkpt lat="42.3300128" lon="11.6299041"><ele>35.0</ele><time>2026-04-22T10:43:55.051Z</time></trkpt><trkpt lat="42.3298416" lon="11.6301018"><ele>34.0</ele><time>2026-04-22T10:43:56.049Z</time></trkpt><trkpt lat="42.3296752" lon="11.6303058"><ele>33.0</ele><time>2026-04-22T10:43:57.059Z</time></trkpt><trkpt lat="42.3295064" lon="11.6305102"><ele>33.0</ele><time>2026-04-22T10:43:58.047Z</time></trkpt><trkpt lat="42.3293327" lon="11.6307056"><ele>33.0</ele><time>2026-04-22T10:43:59.059Z</time></trkpt><trkpt lat="42.3291611" lon="11.6308994"><ele>33.0</ele><time>2026-04-22T10:44:00.041Z</time></trkpt><trkpt lat="42.3289852" lon="11.6310857"><ele>33.0</ele><time>2026-04-22T10:44:01.049Z</time></trkpt><trkpt lat="42.3288075" lon="11.6312775"><ele>33.0</ele><time>2026-04-22T10:44:02.05Z</time></trkpt><trkpt lat="42.3286277" lon="11.6314576"><ele>33.0</ele><time>2026-04-22T10:44:03.069Z</time></trkpt><trkpt lat="42.3284458" lon="11.6316353"><ele>33.0</ele><time>2026-04-22T10:44:04.065Z</time></trkpt><trkpt lat="42.3282612" lon="11.6318131"><ele>32.5</ele><time>2026-04-22T10:44:05.056Z</time></trkpt><trkpt lat="42.3280717" lon="11.6319789"><ele>32.0</ele><time>2026-04-22T10:44:06.056Z</time></trkpt><trkpt lat="42.3278829" lon="11.6321513"><ele>33.0</ele><time>2026-04-22T10:44:07.036Z</time></trkpt><trkpt lat="42.3276953" lon="11.6323208"><ele>34.0</ele><time>2026-04-22T10:44:08.058Z</time></trkpt><trkpt lat="42.3275067" lon="11.6324928"><ele>34.0</ele><time>2026-04-22T10:44:09.045Z</time></trkpt><trkpt lat="42.3273195" lon="11.6326619"><ele>34.0</ele><time>2026-04-22T10:44:10.048Z</time></trkpt><trkpt lat="42.3271315" lon="11.632836"><ele>33.5</ele><time>2026-04-22T10:44:11.05Z</time></trkpt><trkpt lat="42.3269446" lon="11.6330101"><ele>33.0</ele><time>2026-04-22T10:44:12.045Z</time></trkpt><trkpt lat="42.3267595" lon="11.6331866"><ele>33.0</ele><time>2026-04-22T10:44:13.041Z</time></trkpt><trkpt lat="42.32658" lon="11.6333707"><ele>33.0</ele><time>2026-04-22T10:44:14.045Z</time></trkpt><trkpt lat="42.326412" lon="11.6335768"><ele>34.0</ele><time>2026-04-22T10:44:15.039Z</time></trkpt><trkpt lat="42.3262528" lon="11.6338095"><ele>35.0</ele><time>2026-04-22T10:44:16.029Z</time></trkpt><trkpt lat="42.3261024" lon="11.6340406"><ele>35.0</ele><time>2026-04-22T10:44:17.04Z</time></trkpt><trkpt lat="42.3259722" lon="11.6342866"><ele>35.0</ele><time>2026-04-22T10:44:18.047Z</time></trkpt><trkpt lat="42.3258498" lon="11.6345248"><ele>35.0</ele><time>2026-04-22T10:44:19.054Z</time></trkpt><trkpt lat="42.325741" lon="11.6347975"><ele>34.5</ele><time>2026-04-22T10:44:20.044Z</time></trkpt><trkpt lat="42.3256451" lon="11.6350837"><ele>34.0</ele><time>2026-04-22T10:44:21.045Z</time></trkpt><trkpt lat="42.3255731" lon="11.6353635"><ele>33.66666666666667</ele><time>2026-04-22T10:44:22.045Z</time></trkpt><trkpt lat="42.3255042" lon="11.6356432"><ele>33.333333333333336</ele><time>2026-04-22T10:44:23.049Z</time></trkpt><trkpt lat="42.3254471" lon="11.6359381"><ele>33.0</ele><time>2026-04-22T10:44:24.052Z</time></trkpt><trkpt lat="42.325392" lon="11.6362357"><ele>32.0</ele><time>2026-04-22T10:44:25.051Z</time></trkpt><trkpt lat="42.3253328" lon="11.6365279"><ele>31.0</ele><time>2026-04-22T10:44:26.054Z</time></trkpt><trkpt lat="42.3252778" lon="11.6368129"><ele>30.0</ele><time>2026-04-22T10:44:27.036Z</time></trkpt><trkpt lat="42.3252231" lon="11.6371065"><ele>29.0</ele><time>2026-04-22T10:44:28.045Z</time></trkpt><trkpt lat="42.325165" lon="11.6374007"><ele>28.0</ele><time>2026-04-22T10:44:29.046Z</time></trkpt><trkpt lat="42.3251067" lon="11.637696"><ele>28.0</ele><time>2026-04-22T10:44:30.044Z</time></trkpt><trkpt lat="42.3250386" lon="11.6379832"><ele>28.0</ele><time>2026-04-22T10:44:31.049Z</time></trkpt><trkpt lat="42.3249561" lon="11.6382672"><ele>28.0</ele><time>2026-04-22T10:44:32.049Z</time></trkpt><trkpt lat="42.3248512" lon="11.6385381"><ele>28.5</ele><time>2026-04-22T10:44:33.04Z</time></trkpt><trkpt lat="42.3247349" lon="11.6387986"><ele>29.0</ele><time>2026-04-22T10:44:34.031Z</time></trkpt><trkpt lat="42.3246053" lon="11.6390549"><ele>29.0</ele><time>2026-04-22T10:44:35.034Z</time></trkpt><trkpt lat="42.3244664" lon="11.6392954"><ele>29.0</ele><time>2026-04-22T10:44:36.045Z</time></trkpt><trkpt lat="42.3243086" lon="11.6395267"><ele>25.5</ele><time>2026-04-22T10:44:37.044Z</time></trkpt><trkpt lat="42.3241428" lon="11.6397361"><ele>22.0</ele><time>2026-04-22T10:44:38.039Z</time></trkpt><trkpt lat="42.3239758" lon="11.6399388"><ele>21.0</ele><time>2026-04-22T10:44:39.053Z</time></trkpt><trkpt lat="42.3238091" lon="11.6401433"><ele>20.0</ele><time>2026-04-22T10:44:40.062Z</time></trkpt><trkpt lat="42.3236472" lon="11.6403477"><ele>19.0</ele><time>2026-04-22T10:44:41.071Z</time></trkpt><trkpt lat="42.3234876" lon="11.6405555"><ele>18.666666666666664</ele><time>2026-04-22T10:44:42.064Z</time></trkpt><trkpt lat="42.3233253" lon="11.6407664"><ele>18.333333333333332</ele><time>2026-04-22T10:44:43.045Z</time></trkpt><trkpt lat="42.3231607" lon="11.6409704"><ele>18.0</ele><time>2026-04-22T10:44:44.052Z</time></trkpt><trkpt lat="42.3229898" lon="11.6411811"><ele>18.0</ele><time>2026-04-22T10:44:45.045Z</time></trkpt><trkpt lat="42.3228203" lon="11.6413933"><ele>18.0</ele><time>2026-04-22T10:44:46.04Z</time></trkpt><trkpt lat="42.3226579" lon="11.6416025"><ele>18.0</ele><time>2026-04-22T10:44:47.064Z</time></trkpt><trkpt lat="42.3224954" lon="11.6418085"><ele>18.0</ele><time>2026-04-22T10:44:48.071Z</time></trkpt><trkpt lat="42.3223337" lon="11.6420127"><ele>18.0</ele><time>2026-04-22T10:44:49.063Z</time></trkpt><trkpt lat="42.3221696" lon="11.6422284"><ele>17.333333333333332</ele><time>2026-04-22T10:44:50.051Z</time></trkpt><trkpt lat="42.3220144" lon="11.6424429"><ele>16.666666666666664</ele><time>2026-04-22T10:44:51.033Z</time></trkpt><trkpt lat="42.3218624" lon="11.6426658"><ele>16.0</ele><time>2026-04-22T10:44:52.06Z</time></trkpt><trkpt lat="42.3217283" lon="11.642907"><ele>16.0</ele><time>2026-04-22T10:44:53.04Z</time></trkpt><trkpt lat="42.3215999" lon="11.6431633"><ele>16.0</ele><time>2026-04-22T10:44:54.055Z</time></trkpt><trkpt lat="42.3214874" lon="11.6434224"><ele>15.0</ele><time>2026-04-22T10:44:55.049Z</time></trkpt><trkpt lat="42.3213916" lon="11.6436894"><ele>14.0</ele><time>2026-04-22T10:44:56.039Z</time></trkpt><trkpt lat="42.3213143" lon="11.6439755"><ele>13.0</ele><time>2026-04-22T10:44:57.032Z</time></trkpt><trkpt lat="42.321244" lon="11.6442628"><ele>13.0</ele><time>2026-04-22T10:44:58.033Z</time></trkpt><trkpt lat="42.3211836" lon="11.6445616"><ele>13.0</ele><time>2026-04-22T10:44:59.06Z</time></trkpt><trkpt lat="42.3211235" lon="11.644851"><ele>13.0</ele><time>2026-04-22T10:45:00.052Z</time></trkpt><trkpt lat="42.3210697" lon="11.6451497"><ele>13.0</ele><time>2026-04-22T10:45:01.046Z</time></trkpt><trkpt lat="42.32102" lon="11.6454439"><ele>13.666666666666666</ele><time>2026-04-22T10:45:02.053Z</time></trkpt><trkpt lat="42.3209635" lon="11.6457399"><ele>14.333333333333332</ele><time>2026-04-22T10:45:03.054Z</time></trkpt><trkpt lat="42.320908" lon="11.646032"><ele>15.0</ele><time>2026-04-22T10:45:04.06Z</time></trkpt><trkpt lat="42.32085" lon="11.646324"><ele>16.0</ele><time>2026-04-22T10:45:05.058Z</time></trkpt><trkpt lat="42.3207913" lon="11.6466198"><ele>17.0</ele><time>2026-04-22T10:45:06.047Z</time></trkpt><trkpt lat="42.3207251" lon="11.6469135"><ele>17.333333333333336</ele><time>2026-04-22T10:45:07.05Z</time></trkpt><trkpt lat="42.3206546" lon="11.6472015"><ele>17.666666666666668</ele><time>2026-04-22T10:45:08.043Z</time></trkpt><trkpt lat="42.3205737" lon="11.64748"><ele>18.0</ele><time>2026-04-22T10:45:09.062Z</time></trkpt><trkpt lat="42.3204857" lon="11.6477563"><ele>16.5</ele><time>2026-04-22T10:45:10.064Z</time></trkpt><trkpt lat="42.3203917" lon="11.6480261"><ele>15.0</ele><time>2026-04-22T10:45:11.057Z</time></trkpt><trkpt lat="42.3202851" lon="11.6483038"><ele>15.0</ele><time>2026-04-22T10:45:12.057Z</time></trkpt><trkpt lat="42.3201767" lon="11.6485728"><ele>15.0</ele><time>2026-04-22T10:45:13.054Z</time></trkpt><trkpt lat="42.3200607" lon="11.648841"><ele>14.666666666666668</ele><time>2026-04-22T10:45:14.036Z</time></trkpt><trkpt lat="42.31994" lon="11.649095"><ele>14.333333333333334</ele><time>2026-04-22T10:45:15.053Z</time></trkpt><trkpt lat="42.319812" lon="11.6493462"><ele>14.0</ele><time>2026-04-22T10:45:16.055Z</time></trkpt><trkpt lat="42.3196676" lon="11.6495875"><ele>13.5</ele><time>2026-04-22T10:45:17.051Z</time></trkpt><trkpt lat="42.3195223" lon="11.649827"><ele>13.0</ele><time>2026-04-22T10:45:18.056Z</time></trkpt><trkpt lat="42.3193736" lon="11.650064"><ele>13.0</ele><time>2026-04-22T10:45:19.028Z</time></trkpt><trkpt lat="42.3192315" lon="11.6502848"><ele>13.0</ele><time>2026-04-22T10:45:20.058Z</time></trkpt><trkpt lat="42.3190808" lon="11.6505017"><ele>13.0</ele><time>2026-04-22T10:45:21.055Z</time></trkpt><trkpt lat="42.3189323" lon="11.6507268"><ele>12.0</ele><time>2026-04-22T10:45:22.049Z</time></trkpt><trkpt lat="42.3187828" lon="11.6509562"><ele>11.0</ele><time>2026-04-22T10:45:23.052Z</time></trkpt><trkpt lat="42.3186354" lon="11.6511843"><ele>12.333333333333332</ele><time>2026-04-22T10:45:24.057Z</time></trkpt><trkpt lat="42.3184867" lon="11.6514082"><ele>13.666666666666666</ele><time>2026-04-22T10:45:25.057Z</time></trkpt><trkpt lat="42.3183326" lon="11.6516328"><ele>15.0</ele><time>2026-04-22T10:45:26.028Z</time></trkpt><trkpt lat="42.3181701" lon="11.6518444"><ele>14.666666666666668</ele><time>2026-04-22T10:45:27.044Z</time></trkpt><trkpt lat="42.3180035" lon="11.6520433"><ele>14.333333333333334</ele><time>2026-04-22T10:45:28.045Z</time></trkpt><trkpt lat="42.3178265" lon="11.6522297"><ele>14.0</ele><time>2026-04-22T10:45:29.033Z</time></trkpt><trkpt lat="42.3176368" lon="11.6524023"><ele>14.0</ele><time>2026-04-22T10:45:30.034Z</time></trkpt><trkpt lat="42.3174437" lon="11.6525615"><ele>14.0</ele><time>2026-04-22T10:45:31.071Z</time></trkpt><trkpt lat="42.3172499" lon="11.6527103"><ele>14.0</ele><time>2026-04-22T10:45:32.049Z</time></trkpt><trkpt lat="42.3170447" lon="11.6528553"><ele>15.0</ele><time>2026-04-22T10:45:33.052Z</time></trkpt><trkpt lat="42.3168426" lon="11.6529938"><ele>16.0</ele><time>2026-04-22T10:45:34.043Z</time></trkpt><trkpt lat="42.3166332" lon="11.6531181"><ele>16.0</ele><time>2026-04-22T10:45:35.057Z</time></trkpt><trkpt lat="42.3164186" lon="11.6532209"><ele>16.0</ele><time>2026-04-22T10:45:36.042Z</time></trkpt><trkpt lat="42.3162064" lon="11.6533145"><ele>15.666666666666666</ele><time>2026-04-22T10:45:37.062Z</time></trkpt><trkpt lat="42.3159923" lon="11.6533933"><ele>15.333333333333332</ele><time>2026-04-22T10:45:38.051Z</time></trkpt><trkpt lat="42.3157732" lon="11.6534573"><ele>15.0</ele><time>2026-04-22T10:45:39.046Z</time></trkpt><trkpt lat="42.315549" lon="11.6535066"><ele>14.666666666666668</ele><time>2026-04-22T10:45:40.027Z</time></trkpt><trkpt lat="42.3153285" lon="11.6535565"><ele>14.333333333333334</ele><time>2026-04-22T10:45:41.02Z</time></trkpt><trkpt lat="42.3151037" lon="11.6535838"><ele>14.0</ele><time>2026-04-22T10:45:42.052Z</time></trkpt><trkpt lat="42.3148818" lon="11.6535982"><ele>14.0</ele><time>2026-04-22T10:45:43.059Z</time></trkpt><trkpt lat="42.3146588" lon="11.6536016"><ele>14.0</ele><time>2026-04-22T10:45:44.061Z</time></trkpt><trkpt lat="42.3144336" lon="11.6536139"><ele>14.0</ele><time>2026-04-22T10:45:45.058Z</time></trkpt><trkpt lat="42.3142061" lon="11.6536331"><ele>15.0</ele><time>2026-04-22T10:45:46.045Z</time></trkpt><trkpt lat="42.3139798" lon="11.65365"><ele>16.0</ele><time>2026-04-22T10:45:47.038Z</time></trkpt><trkpt lat="42.3137538" lon="11.6536725"><ele>16.0</ele><time>2026-04-22T10:45:48.069Z</time></trkpt><trkpt lat="42.3135283" lon="11.6536896"><ele>16.0</ele><time>2026-04-22T10:45:49.058Z</time></trkpt><trkpt lat="42.3133044" lon="11.6537025"><ele>16.0</ele><time>2026-04-22T10:45:50.056Z</time></trkpt><trkpt lat="42.3130782" lon="11.6537164"><ele>16.0</ele><time>2026-04-22T10:45:51.042Z</time></trkpt><trkpt lat="42.3128506" lon="11.6537283"><ele>17.666666666666664</ele><time>2026-04-22T10:45:52.053Z</time></trkpt><trkpt lat="42.3126314" lon="11.6537463"><ele>19.333333333333332</ele><time>2026-04-22T10:45:53.059Z</time></trkpt><trkpt lat="42.3124085" lon="11.653758"><ele>21.0</ele><time>2026-04-22T10:45:54.065Z</time></trkpt><trkpt lat="42.312184" lon="11.6537683"><ele>24.5</ele><time>2026-04-22T10:45:55.03Z</time></trkpt><trkpt lat="42.3119535" lon="11.6537846"><ele>28.0</ele><time>2026-04-22T10:45:56.054Z</time></trkpt><trkpt lat="42.3117268" lon="11.6538074"><ele>28.0</ele><time>2026-04-22T10:45:57.052Z</time></trkpt><trkpt lat="42.3115038" lon="11.6538353"><ele>28.0</ele><time>2026-04-22T10:45:58.055Z</time></trkpt><trkpt lat="42.3112806" lon="11.6538855"><ele>29.5</ele><time>2026-04-22T10:45:59.047Z</time></trkpt><trkpt lat="42.3110569" lon="11.6539614"><ele>31.0</ele><time>2026-04-22T10:46:00.032Z</time></trkpt><trkpt lat="42.3108411" lon="11.6540441"><ele>31.0</ele><time>2026-04-22T10:46:01.052Z</time></trkpt><trkpt lat="42.3106302" lon="11.6541464"><ele>31.0</ele><time>2026-04-22T10:46:02.053Z</time></trkpt><trkpt lat="42.3104181" lon="11.6542579"><ele>30.5</ele><time>2026-04-22T10:46:03.053Z</time></trkpt><trkpt lat="42.3102128" lon="11.6543713"><ele>30.0</ele><time>2026-04-22T10:46:04.053Z</time></trkpt><trkpt lat="42.3100109" lon="11.6545191"><ele>29.333333333333336</ele><time>2026-04-22T10:46:05.052Z</time></trkpt><trkpt lat="42.3098153" lon="11.6546627"><ele>28.666666666666668</ele><time>2026-04-22T10:46:06.047Z</time></trkpt><trkpt lat="42.3096252" lon="11.6548231"><ele>28.0</ele><time>2026-04-22T10:46:07.045Z</time></trkpt><trkpt lat="42.3094351" lon="11.6549986"><ele>27.666666666666668</ele><time>2026-04-22T10:46:08.05Z</time></trkpt><trkpt lat="42.3092559" lon="11.6551841"><ele>27.333333333333336</ele><time>2026-04-22T10:46:09.041Z</time></trkpt><trkpt lat="42.3090832" lon="11.6553727"><ele>27.0</ele><time>2026-04-22T10:46:10.034Z</time></trkpt><trkpt lat="42.3089152" lon="11.6555764"><ele>26.0</ele><time>2026-04-22T10:46:11.034Z</time></trkpt><trkpt lat="42.3087606" lon="11.6557995"><ele>25.0</ele><time>2026-04-22T10:46:12.045Z</time></trkpt><trkpt lat="42.3086149" lon="11.6560223"><ele>24.0</ele><time>2026-04-22T10:46:13.039Z</time></trkpt><trkpt lat="42.3084779" lon="11.6562633"><ele>23.5</ele><time>2026-04-22T10:46:14.055Z</time></trkpt><trkpt lat="42.3083448" lon="11.6565145"><ele>23.0</ele><time>2026-04-22T10:46:15.052Z</time></trkpt><trkpt lat="42.3082227" lon="11.6567767"><ele>24.0</ele><time>2026-04-22T10:46:16.036Z</time></trkpt><trkpt lat="42.3081025" lon="11.657024"><ele>25.0</ele><time>2026-04-22T10:46:17.042Z</time></trkpt><trkpt lat="42.3079826" lon="11.6572804"><ele>26.0</ele><time>2026-04-22T10:46:18.043Z</time></trkpt><trkpt lat="42.3078613" lon="11.6575359"><ele>27.5</ele><time>2026-04-22T10:46:19.032Z</time></trkpt><trkpt lat="42.3077355" lon="11.6577881"><ele>29.0</ele><time>2026-04-22T10:46:20.045Z</time></trkpt><trkpt lat="42.3076073" lon="11.6580467"><ele>29.0</ele><time>2026-04-22T10:46:21.042Z</time></trkpt><trkpt lat="42.307487" lon="11.6582988"><ele>29.0</ele><time>2026-04-22T10:46:22.041Z</time></trkpt><trkpt lat="42.3073683" lon="11.6585573"><ele>29.0</ele><time>2026-04-22T10:46:23.046Z</time></trkpt><trkpt lat="42.3072455" lon="11.6588094"><ele>29.333333333333332</ele><time>2026-04-22T10:46:24.03Z</time></trkpt><trkpt lat="42.3071242" lon="11.6590655"><ele>29.666666666666664</ele><time>2026-04-22T10:46:25.035Z</time></trkpt><trkpt lat="42.307003" lon="11.6593207"><ele>30.0</ele><time>2026-04-22T10:46:26.045Z</time></trkpt><trkpt lat="42.3068824" lon="11.6595793"><ele>30.5</ele><time>2026-04-22T10:46:27.051Z</time></trkpt><trkpt lat="42.3067637" lon="11.6598428"><ele>31.0</ele><time>2026-04-22T10:46:28.038Z</time></trkpt><trkpt lat="42.3066466" lon="11.6601"><ele>31.333333333333336</ele><time>2026-04-22T10:46:29.058Z</time></trkpt><trkpt lat="42.3065301" lon="11.6603534"><ele>31.666666666666664</ele><time>2026-04-22T10:46:30.058Z</time></trkpt><trkpt lat="42.3064132" lon="11.6606142"><ele>32.0</ele><time>2026-04-22T10:46:31.026Z</time></trkpt><trkpt lat="42.3062974" lon="11.6608772"><ele>31.5</ele><time>2026-04-22T10:46:32.049Z</time></trkpt><trkpt lat="42.3061756" lon="11.6611361"><ele>31.0</ele><time>2026-04-22T10:46:33.04Z</time></trkpt><trkpt lat="42.3060476" lon="11.6613962"><ele>31.0</ele><time>2026-04-22T10:46:34.024Z</time></trkpt><trkpt lat="42.3059256" lon="11.6616488"><ele>31.0</ele><time>2026-04-22T10:46:35.056Z</time></trkpt><trkpt lat="42.3058018" lon="11.6619035"><ele>31.0</ele><time>2026-04-22T10:46:36.045Z</time></trkpt><trkpt lat="42.3056793" lon="11.6621593"><ele>31.5</ele><time>2026-04-22T10:46:37.036Z</time></trkpt><trkpt lat="42.3055557" lon="11.6624167"><ele>32.0</ele><time>2026-04-22T10:46:38.044Z</time></trkpt><trkpt lat="42.3054374" lon="11.6626724"><ele>31.5</ele><time>2026-04-22T10:46:39.056Z</time></trkpt><trkpt lat="42.305315" lon="11.6629302"><ele>31.0</ele><time>2026-04-22T10:46:40.034Z</time></trkpt><trkpt lat="42.3051902" lon="11.6631805"><ele>31.0</ele><time>2026-04-22T10:46:41.026Z</time></trkpt><trkpt lat="42.3050637" lon="11.663434"><ele>31.0</ele><time>2026-04-22T10:46:42.039Z</time></trkpt><trkpt lat="42.3049332" lon="11.6636795"><ele>31.0</ele><time>2026-04-22T10:46:43.051Z</time></trkpt><trkpt lat="42.3048004" lon="11.6639198"><ele>31.0</ele><time>2026-04-22T10:46:44.04Z</time></trkpt><trkpt lat="42.304661" lon="11.6641601"><ele>31.0</ele><time>2026-04-22T10:46:45.047Z</time></trkpt><trkpt lat="42.30452" lon="11.6643979"><ele>29.666666666666668</ele><time>2026-04-22T10:46:46.041Z</time></trkpt><trkpt lat="42.3043752" lon="11.6646331"><ele>28.333333333333336</ele><time>2026-04-22T10:46:47.029Z</time></trkpt><trkpt lat="42.3042279" lon="11.6648583"><ele>27.0</ele><time>2026-04-22T10:46:48.056Z</time></trkpt><trkpt lat="42.3040774" lon="11.6650835"><ele>26.5</ele><time>2026-04-22T10:46:49.052Z</time></trkpt><trkpt lat="42.3039254" lon="11.6653142"><ele>26.0</ele><time>2026-04-22T10:46:50.059Z</time></trkpt><trkpt lat="42.3037714" lon="11.6655442"><ele>26.0</ele><time>2026-04-22T10:46:51.057Z</time></trkpt><trkpt lat="42.3036176" lon="11.6657718"><ele>26.0</ele><time>2026-04-22T10:46:52.046Z</time></trkpt><trkpt lat="42.3034679" lon="11.6660037"><ele>27.0</ele><time>2026-04-22T10:46:53.048Z</time></trkpt><trkpt lat="42.3033184" lon="11.666232"><ele>28.0</ele><time>2026-04-22T10:46:54.055Z</time></trkpt><trkpt lat="42.3031657" lon="11.6664567"><ele>29.5</ele><time>2026-04-22T10:46:55.068Z</time></trkpt><trkpt lat="42.303014" lon="11.6666834"><ele>31.0</ele><time>2026-04-22T10:46:56.067Z</time></trkpt><trkpt lat="42.3028635" lon="11.6669072"><ele>31.0</ele><time>2026-04-22T10:46:57.055Z</time></trkpt><trkpt lat="42.3027146" lon="11.6671335"><ele>31.0</ele><time>2026-04-22T10:46:58.07Z</time></trkpt><trkpt lat="42.3025643" lon="11.6673583"><ele>31.0</ele><time>2026-04-22T10:46:59.025Z</time></trkpt><trkpt lat="42.3024171" lon="11.6675779"><ele>31.333333333333336</ele><time>2026-04-22T10:47:00.051Z</time></trkpt><trkpt lat="42.3022724" lon="11.6677984"><ele>31.666666666666664</ele><time>2026-04-22T10:47:01.048Z</time></trkpt><trkpt lat="42.3021238" lon="11.6680244"><ele>32.0</ele><time>2026-04-22T10:47:02.054Z</time></trkpt><trkpt lat="42.3019713" lon="11.6682529"><ele>32.5</ele><time>2026-04-22T10:47:03.039Z</time></trkpt><trkpt lat="42.301819" lon="11.6684795"><ele>33.0</ele><time>2026-04-22T10:47:04.057Z</time></trkpt><trkpt lat="42.3016658" lon="11.6687005"><ele>33.0</ele><time>2026-04-22T10:47:05.044Z</time></trkpt><trkpt lat="42.3015106" lon="11.6689157"><ele>33.0</ele><time>2026-04-22T10:47:06.053Z</time></trkpt><trkpt lat="42.3013568" lon="11.6691335"><ele>33.0</ele><time>2026-04-22T10:47:07.052Z</time></trkpt><trkpt lat="42.3011981" lon="11.6693629"><ele>33.0</ele><time>2026-04-22T10:47:08.062Z</time></trkpt><trkpt lat="42.3010431" lon="11.6695884"><ele>33.0</ele><time>2026-04-22T10:47:09.05Z</time></trkpt><trkpt lat="42.3008919" lon="11.6698169"><ele>33.0</ele><time>2026-04-22T10:47:10.057Z</time></trkpt><trkpt lat="42.300746" lon="11.6700463"><ele>33.0</ele><time>2026-04-22T10:47:11.055Z</time></trkpt><trkpt lat="42.3006071" lon="11.6702771"><ele>33.0</ele><time>2026-04-22T10:47:12.051Z</time></trkpt><trkpt lat="42.3004686" lon="11.6705144"><ele>33.0</ele><time>2026-04-22T10:47:13.048Z</time></trkpt><trkpt lat="42.3003239" lon="11.6707497"><ele>33.0</ele><time>2026-04-22T10:47:14.019Z</time></trkpt><trkpt lat="42.3001797" lon="11.6709793"><ele>33.0</ele><time>2026-04-22T10:47:15.044Z</time></trkpt><trkpt lat="42.3000274" lon="11.671207"><ele>33.0</ele><time>2026-04-22T10:47:16.029Z</time></trkpt><trkpt lat="42.299873" lon="11.6714385"><ele>33.0</ele><time>2026-04-22T10:47:17.051Z</time></trkpt><trkpt lat="42.2997217" lon="11.6716668"><ele>31.5</ele><time>2026-04-22T10:47:18.057Z</time></trkpt><trkpt lat="42.2995696" lon="11.6718915"><ele>30.0</ele><time>2026-04-22T10:47:19.063Z</time></trkpt><trkpt lat="42.2994192" lon="11.6721209"><ele>30.0</ele><time>2026-04-22T10:47:20.071Z</time></trkpt><trkpt lat="42.2992709" lon="11.6723535"><ele>30.0</ele><time>2026-04-22T10:47:21.039Z</time></trkpt><trkpt lat="42.2991242" lon="11.6725798"><ele>30.0</ele><time>2026-04-22T10:47:22.057Z</time></trkpt><trkpt lat="42.2989776" lon="11.6728031"><ele>30.0</ele><time>2026-04-22T10:47:23.07Z</time></trkpt><trkpt lat="42.2988293" lon="11.6730314"><ele>30.0</ele><time>2026-04-22T10:47:24.061Z</time></trkpt><trkpt lat="42.2986797" lon="11.6732641"><ele>30.5</ele><time>2026-04-22T10:47:25.055Z</time></trkpt><trkpt lat="42.2985322" lon="11.6734917"><ele>31.0</ele><time>2026-04-22T10:47:26.075Z</time></trkpt><trkpt lat="42.2983805" lon="11.6737198"><ele>31.333333333333336</ele><time>2026-04-22T10:47:27.035Z</time></trkpt><trkpt lat="42.2982243" lon="11.6739371"><ele>31.666666666666664</ele><time>2026-04-22T10:47:28.053Z</time></trkpt><trkpt lat="42.2980677" lon="11.674151"><ele>32.0</ele><time>2026-04-22T10:47:29.091Z</time></trkpt><trkpt lat="42.297909" lon="11.6743586"><ele>30.5</ele><time>2026-04-22T10:47:30.023Z</time></trkpt><trkpt lat="42.2977455" lon="11.6745763"><ele>29.0</ele><time>2026-04-22T10:47:31.041Z</time></trkpt><trkpt lat="42.2975824" lon="11.6747928"><ele>29.0</ele><time>2026-04-22T10:47:32.048Z</time></trkpt><trkpt lat="42.2974196" lon="11.6749987"><ele>29.0</ele><time>2026-04-22T10:47:33.045Z</time></trkpt><trkpt lat="42.2972535" lon="11.6752096"><ele>28.333333333333332</ele><time>2026-04-22T10:47:34.036Z</time></trkpt><trkpt lat="42.2970858" lon="11.6754135"><ele>27.666666666666664</ele><time>2026-04-22T10:47:35.057Z</time></trkpt><trkpt lat="42.2969197" lon="11.6756116"><ele>27.0</ele><time>2026-04-22T10:47:36.053Z</time></trkpt><trkpt lat="42.2967499" lon="11.6758099"><ele>27.0</ele><time>2026-04-22T10:47:37.057Z</time></trkpt><trkpt lat="42.2965746" lon="11.6760089"><ele>27.0</ele><time>2026-04-22T10:47:38.06Z</time></trkpt><trkpt lat="42.2963974" lon="11.676213"><ele>26.0</ele><time>2026-04-22T10:47:39.052Z</time></trkpt><trkpt lat="42.2962243" lon="11.6764131"><ele>25.0</ele><time>2026-04-22T10:47:40.058Z</time></trkpt><trkpt lat="42.2960495" lon="11.6766076"><ele>25.0</ele><time>2026-04-22T10:47:41.027Z</time></trkpt><trkpt lat="42.2958782" lon="11.6768068"><ele>25.0</ele><time>2026-04-22T10:47:42.042Z</time></trkpt><trkpt lat="42.2957092" lon="11.6770084"><ele>26.0</ele><time>2026-04-22T10:47:43.055Z</time></trkpt><trkpt lat="42.2955383" lon="11.677206"><ele>27.0</ele><time>2026-04-22T10:47:44.051Z</time></trkpt><trkpt lat="42.2953663" lon="11.6774094"><ele>27.0</ele><time>2026-04-22T10:47:45.067Z</time></trkpt><trkpt lat="42.2951955" lon="11.6776071"><ele>27.0</ele><time>2026-04-22T10:47:46.063Z</time></trkpt><trkpt lat="42.2950263" lon="11.6778102"><ele>27.666666666666664</ele><time>2026-04-22T10:47:47.057Z</time></trkpt><trkpt lat="42.2948602" lon="11.6780115"><ele>28.333333333333332</ele><time>2026-04-22T10:47:48.068Z</time></trkpt><trkpt lat="42.2946922" lon="11.6782137"><ele>29.0</ele><time>2026-04-22T10:47:49.051Z</time></trkpt><trkpt lat="42.2945281" lon="11.6784137"><ele>29.5</ele><time>2026-04-22T10:47:50.051Z</time></trkpt><trkpt lat="42.2943586" lon="11.6786173"><ele>30.0</ele><time>2026-04-22T10:47:51.05Z</time></trkpt><trkpt lat="42.2941896" lon="11.6788233"><ele>30.0</ele><time>2026-04-22T10:47:52.056Z</time></trkpt><trkpt lat="42.2940196" lon="11.679032"><ele>30.0</ele><time>2026-04-22T10:47:53.053Z</time></trkpt><trkpt lat="42.2938481" lon="11.6792303"><ele>30.0</ele><time>2026-04-22T10:47:54.026Z</time></trkpt><trkpt lat="42.2936802" lon="11.6794285"><ele>30.0</ele><time>2026-04-22T10:47:55.047Z</time></trkpt><trkpt lat="42.293512" lon="11.6796292"><ele>30.0</ele><time>2026-04-22T10:47:56.071Z</time></trkpt><trkpt lat="42.2933477" lon="11.6798425"><ele>30.0</ele><time>2026-04-22T10:47:57.06Z</time></trkpt><trkpt lat="42.2931875" lon="11.6800443"><ele>30.0</ele><time>2026-04-22T10:47:58.042Z</time></trkpt><trkpt lat="42.2930236" lon="11.6802513"><ele>30.0</ele><time>2026-04-22T10:47:59.06Z</time></trkpt><trkpt lat="42.2928511" lon="11.6804494"><ele>30.0</ele><time>2026-04-22T10:48:00.068Z</time></trkpt><trkpt lat="42.2926817" lon="11.6806476"><ele>30.0</ele><time>2026-04-22T10:48:01.033Z</time></trkpt><trkpt lat="42.2925169" lon="11.6808478"><ele>30.0</ele><time>2026-04-22T10:48:02.04Z</time></trkpt><trkpt lat="42.2923454" lon="11.681047"><ele>29.5</ele><time>2026-04-22T10:48:03.053Z</time></trkpt><trkpt lat="42.2921757" lon="11.6812514"><ele>29.0</ele><time>2026-04-22T10:48:04.055Z</time></trkpt><trkpt lat="42.2920026" lon="11.6814504"><ele>29.0</ele><time>2026-04-22T10:48:05.039Z</time></trkpt><trkpt lat="42.2918351" lon="11.681646"><ele>29.0</ele><time>2026-04-22T10:48:06.051Z</time></trkpt><trkpt lat="42.2916672" lon="11.6818476"><ele>29.0</ele><time>2026-04-22T10:48:07.066Z</time></trkpt><trkpt lat="42.291495" lon="11.6820583"><ele>29.5</ele><time>2026-04-22T10:48:08.042Z</time></trkpt><trkpt lat="42.2913262" lon="11.6822575"><ele>30.0</ele><time>2026-04-22T10:48:09.039Z</time></trkpt><trkpt lat="42.2911561" lon="11.6824598"><ele>30.0</ele><time>2026-04-22T10:48:10.077Z</time></trkpt><trkpt lat="42.290989" lon="11.6826629"><ele>30.0</ele><time>2026-04-22T10:48:11.054Z</time></trkpt><trkpt lat="42.2908221" lon="11.6828581"><ele>30.0</ele><time>2026-04-22T10:48:12.051Z</time></trkpt><trkpt lat="42.2906562" lon="11.6830644"><ele>30.5</ele><time>2026-04-22T10:48:13.062Z</time></trkpt><trkpt lat="42.2904889" lon="11.68327"><ele>31.0</ele><time>2026-04-22T10:48:14.047Z</time></trkpt><trkpt lat="42.2903195" lon="11.6834705"><ele>31.0</ele><time>2026-04-22T10:48:15.045Z</time></trkpt><trkpt lat="42.2901477" lon="11.683678"><ele>31.0</ele><time>2026-04-22T10:48:16.068Z</time></trkpt><trkpt lat="42.289979" lon="11.6838825"><ele>31.0</ele><time>2026-04-22T10:48:17.06Z</time></trkpt><trkpt lat="42.2898084" lon="11.6840839"><ele>31.0</ele><time>2026-04-22T10:48:18.057Z</time></trkpt><trkpt lat="42.2896404" lon="11.6842785"><ele>31.0</ele><time>2026-04-22T10:48:19.066Z</time></trkpt><trkpt lat="42.2894679" lon="11.6844792"><ele>31.0</ele><time>2026-04-22T10:48:20.052Z</time></trkpt><trkpt lat="42.2893011" lon="11.6846804"><ele>31.0</ele><time>2026-04-22T10:48:21.055Z</time></trkpt><trkpt lat="42.2891322" lon="11.6848835"><ele>31.0</ele><time>2026-04-22T10:48:22.054Z</time></trkpt><trkpt lat="42.2889692" lon="11.6850851"><ele>31.0</ele><time>2026-04-22T10:48:23.054Z</time></trkpt><trkpt lat="42.2888015" lon="11.6852904"><ele>31.0</ele><time>2026-04-22T10:48:24.056Z</time></trkpt><trkpt lat="42.2886346" lon="11.6854939"><ele>31.0</ele><time>2026-04-22T10:48:25.051Z</time></trkpt><trkpt lat="42.2884648" lon="11.6857033"><ele>31.0</ele><time>2026-04-22T10:48:26.07Z</time></trkpt><trkpt lat="42.2882962" lon="11.6859075"><ele>30.5</ele><time>2026-04-22T10:48:27.051Z</time></trkpt><trkpt lat="42.2881265" lon="11.6861151"><ele>30.0</ele><time>2026-04-22T10:48:28.058Z</time></trkpt><trkpt lat="42.2879536" lon="11.6863271"><ele>29.5</ele><time>2026-04-22T10:48:29.05Z</time></trkpt><trkpt lat="42.2877787" lon="11.6865335"><ele>29.0</ele><time>2026-04-22T10:48:30.041Z</time></trkpt><trkpt lat="42.2876005" lon="11.6867391"><ele>28.5</ele><time>2026-04-22T10:48:31.055Z</time></trkpt><trkpt lat="42.2874252" lon="11.6869436"><ele>28.0</ele><time>2026-04-22T10:48:32.056Z</time></trkpt><trkpt lat="42.2872525" lon="11.6871506"><ele>27.0</ele><time>2026-04-22T10:48:33.075Z</time></trkpt><trkpt lat="42.287086" lon="11.687355"><ele>26.0</ele><time>2026-04-22T10:48:34.052Z</time></trkpt><trkpt lat="42.2869154" lon="11.6875633"><ele>25.5</ele><time>2026-04-22T10:48:35.06Z</time></trkpt><trkpt lat="42.2867468" lon="11.687786"><ele>25.0</ele><time>2026-04-22T10:48:36.042Z</time></trkpt><trkpt lat="42.2865831" lon="11.6880021"><ele>25.0</ele><time>2026-04-22T10:48:37.065Z</time></trkpt><trkpt lat="42.2864116" lon="11.6882142"><ele>25.0</ele><time>2026-04-22T10:48:38.043Z</time></trkpt><trkpt lat="42.2862407" lon="11.6884201"><ele>26.0</ele><time>2026-04-22T10:48:39.067Z</time></trkpt><trkpt lat="42.2860693" lon="11.688624"><ele>27.0</ele><time>2026-04-22T10:48:40.046Z</time></trkpt><trkpt lat="42.2858966" lon="11.6888363"><ele>27.0</ele><time>2026-04-22T10:48:41.047Z</time></trkpt><trkpt lat="42.2857223" lon="11.6890303"><ele>27.0</ele><time>2026-04-22T10:48:42.059Z</time></trkpt><trkpt lat="42.2855475" lon="11.6892281"><ele>29.0</ele><time>2026-04-22T10:48:43.055Z</time></trkpt><trkpt lat="42.2853663" lon="11.6894281"><ele>31.0</ele><time>2026-04-22T10:48:44.054Z</time></trkpt><trkpt lat="42.2851931" lon="11.6896283"><ele>31.0</ele><time>2026-04-22T10:48:45.056Z</time></trkpt><trkpt lat="42.2850215" lon="11.6898398"><ele>31.0</ele><time>2026-04-22T10:48:46.039Z</time></trkpt><trkpt lat="42.2848501" lon="11.6900488"><ele>31.5</ele><time>2026-04-22T10:48:47.054Z</time></trkpt><trkpt lat="42.2846784" lon="11.6902548"><ele>32.0</ele><time>2026-04-22T10:48:48.068Z</time></trkpt><trkpt lat="42.2845077" lon="11.6904636"><ele>32.0</ele><time>2026-04-22T10:48:49.061Z</time></trkpt><trkpt lat="42.2843345" lon="11.6906635"><ele>32.0</ele><time>2026-04-22T10:48:50.039Z</time></trkpt><trkpt lat="42.2841618" lon="11.6908711"><ele>32.0</ele><time>2026-04-22T10:48:51.055Z</time></trkpt><trkpt lat="42.2839911" lon="11.6910802"><ele>32.0</ele><time>2026-04-22T10:48:52.029Z</time></trkpt><trkpt lat="42.2838216" lon="11.691291"><ele>31.5</ele><time>2026-04-22T10:48:53.052Z</time></trkpt><trkpt lat="42.2836505" lon="11.6914941"><ele>31.0</ele><time>2026-04-22T10:48:54.061Z</time></trkpt><trkpt lat="42.283478" lon="11.6916974"><ele>31.0</ele><time>2026-04-22T10:48:55.052Z</time></trkpt><trkpt lat="42.283308" lon="11.6918967"><ele>31.0</ele><time>2026-04-22T10:48:56.056Z</time></trkpt><trkpt lat="42.2831353" lon="11.6920995"><ele>30.0</ele><time>2026-04-22T10:48:57.049Z</time></trkpt><trkpt lat="42.282963" lon="11.6923094"><ele>29.0</ele><time>2026-04-22T10:48:58.043Z</time></trkpt><trkpt lat="42.2827948" lon="11.6925148"><ele>29.0</ele><time>2026-04-22T10:48:59.051Z</time></trkpt><trkpt lat="42.2826304" lon="11.692716"><ele>29.0</ele><time>2026-04-22T10:49:00.049Z</time></trkpt><trkpt lat="42.2824635" lon="11.6929272"><ele>28.0</ele><time>2026-04-22T10:49:01.055Z</time></trkpt><trkpt lat="42.2823028" lon="11.6931435"><ele>27.0</ele><time>2026-04-22T10:49:02.046Z</time></trkpt><trkpt lat="42.2821461" lon="11.6933651"><ele>27.0</ele><time>2026-04-22T10:49:03.056Z</time></trkpt><trkpt lat="42.2819941" lon="11.6935971"><ele>27.0</ele><time>2026-04-22T10:49:04.058Z</time></trkpt><trkpt lat="42.2818429" lon="11.6938293"><ele>27.0</ele><time>2026-04-22T10:49:05.037Z</time></trkpt><trkpt lat="42.2816989" lon="11.694067"><ele>27.0</ele><time>2026-04-22T10:49:06.048Z</time></trkpt><trkpt lat="42.2815565" lon="11.6943007"><ele>28.5</ele><time>2026-04-22T10:49:07.033Z</time></trkpt><trkpt lat="42.2814163" lon="11.694544"><ele>30.0</ele><time>2026-04-22T10:49:08.056Z</time></trkpt><trkpt lat="42.2812772" lon="11.694793"><ele>30.0</ele><time>2026-04-22T10:49:09.055Z</time></trkpt><trkpt lat="42.2811415" lon="11.6950413"><ele>30.0</ele><time>2026-04-22T10:49:10.066Z</time></trkpt><trkpt lat="42.2810092" lon="11.6952812"><ele>30.666666666666664</ele><time>2026-04-22T10:49:11.059Z</time></trkpt><trkpt lat="42.2808775" lon="11.6955253"><ele>31.333333333333332</ele><time>2026-04-22T10:49:12.058Z</time></trkpt><trkpt lat="42.2807451" lon="11.6957717"><ele>32.0</ele><time>2026-04-22T10:49:13.049Z</time></trkpt><trkpt lat="42.2806112" lon="11.6960129"><ele>32.33333333333333</ele><time>2026-04-22T10:49:14.067Z</time></trkpt><trkpt lat="42.2804739" lon="11.6962479"><ele>32.666666666666664</ele><time>2026-04-22T10:49:15.054Z</time></trkpt><trkpt lat="42.2803437" lon="11.6964885"><ele>33.0</ele><time>2026-04-22T10:49:16.045Z</time></trkpt><trkpt lat="42.2802137" lon="11.6967383"><ele>33.0</ele><time>2026-04-22T10:49:17.067Z</time></trkpt><trkpt lat="42.28008" lon="11.6969841"><ele>33.0</ele><time>2026-04-22T10:49:18.055Z</time></trkpt><trkpt lat="42.2799451" lon="11.6972333"><ele>33.0</ele><time>2026-04-22T10:49:19.028Z</time></trkpt><trkpt lat="42.2798121" lon="11.6974738"><ele>33.0</ele><time>2026-04-22T10:49:20.047Z</time></trkpt><trkpt lat="42.27968" lon="11.697721"><ele>33.0</ele><time>2026-04-22T10:49:21.066Z</time></trkpt><trkpt lat="42.27955" lon="11.6979611"><ele>33.0</ele><time>2026-04-22T10:49:22.063Z</time></trkpt><trkpt lat="42.2794181" lon="11.6982122"><ele>33.0</ele><time>2026-04-22T10:49:23.059Z</time></trkpt><trkpt lat="42.2792914" lon="11.698456"><ele>33.0</ele><time>2026-04-22T10:49:24.064Z</time></trkpt><trkpt lat="42.2791606" lon="11.6987019"><ele>33.0</ele><time>2026-04-22T10:49:25.049Z</time></trkpt><trkpt lat="42.2790329" lon="11.6989435"><ele>33.0</ele><time>2026-04-22T10:49:26.05Z</time></trkpt><trkpt lat="42.2789038" lon="11.6991812"><ele>33.0</ele><time>2026-04-22T10:49:27.066Z</time></trkpt><trkpt lat="42.2787697" lon="11.6994239"><ele>32.333333333333336</ele><time>2026-04-22T10:49:28.044Z</time></trkpt><trkpt lat="42.2786393" lon="11.6996663"><ele>31.666666666666668</ele><time>2026-04-22T10:49:29.059Z</time></trkpt><trkpt lat="42.2785087" lon="11.6999019"><ele>31.0</ele><time>2026-04-22T10:49:30.042Z</time></trkpt><trkpt lat="42.2783789" lon="11.700144"><ele>31.666666666666668</ele><time>2026-04-22T10:49:31.053Z</time></trkpt><trkpt lat="42.2782528" lon="11.7003776"><ele>32.333333333333336</ele><time>2026-04-22T10:49:32.065Z</time></trkpt><trkpt lat="42.2781253" lon="11.700617"><ele>33.0</ele><time>2026-04-22T10:49:33.059Z</time></trkpt><trkpt lat="42.2779948" lon="11.7008613"><ele>33.333333333333336</ele><time>2026-04-22T10:49:34.055Z</time></trkpt><trkpt lat="42.2778618" lon="11.7011043"><ele>33.66666666666667</ele><time>2026-04-22T10:49:35.075Z</time></trkpt><trkpt lat="42.2777324" lon="11.7013448"><ele>34.0</ele><time>2026-04-22T10:49:36.028Z</time></trkpt><trkpt lat="42.2776021" lon="11.7015816"><ele>34.0</ele><time>2026-04-22T10:49:37.052Z</time></trkpt><trkpt lat="42.2774713" lon="11.7018215"><ele>34.0</ele><time>2026-04-22T10:49:38.041Z</time></trkpt><trkpt lat="42.2773401" lon="11.7020634"><ele>34.0</ele><time>2026-04-22T10:49:39.045Z</time></trkpt><trkpt lat="42.2772108" lon="11.7023"><ele>34.0</ele><time>2026-04-22T10:49:40.049Z</time></trkpt><trkpt lat="42.2770808" lon="11.7025416"><ele>34.0</ele><time>2026-04-22T10:49:41.061Z</time></trkpt><trkpt lat="42.2769468" lon="11.702784"><ele>34.0</ele><time>2026-04-22T10:49:42.068Z</time></trkpt><trkpt lat="42.2768159" lon="11.7030215"><ele>34.0</ele><time>2026-04-22T10:49:43.045Z</time></trkpt><trkpt lat="42.2766834" lon="11.7032683"><ele>34.0</ele><time>2026-04-22T10:49:44.027Z</time></trkpt><trkpt lat="42.2765546" lon="11.703508"><ele>34.0</ele><time>2026-04-22T10:49:45.017Z</time></trkpt><trkpt lat="42.2764226" lon="11.7037563"><ele>34.0</ele><time>2026-04-22T10:49:46.025Z</time></trkpt><trkpt lat="42.2762968" lon="11.7039914"><ele>34.0</ele><time>2026-04-22T10:49:47.025Z</time></trkpt><trkpt lat="42.2761631" lon="11.704238"><ele>34.0</ele><time>2026-04-22T10:49:48.04Z</time></trkpt><trkpt lat="42.2760292" lon="11.7044732"><ele>34.333333333333336</ele><time>2026-04-22T10:49:49.033Z</time></trkpt><trkpt lat="42.275902" lon="11.7047088"><ele>34.666666666666664</ele><time>2026-04-22T10:49:50.029Z</time></trkpt><trkpt lat="42.2757741" lon="11.7049465"><ele>35.0</ele><time>2026-04-22T10:49:51.033Z</time></trkpt><trkpt lat="42.2756417" lon="11.7051871"><ele>34.666666666666664</ele><time>2026-04-22T10:49:52.048Z</time></trkpt><trkpt lat="42.275511" lon="11.7054279"><ele>34.333333333333336</ele><time>2026-04-22T10:49:53.062Z</time></trkpt><trkpt lat="42.2753822" lon="11.7056698"><ele>34.0</ele><time>2026-04-22T10:49:54.049Z</time></trkpt><trkpt lat="42.2752543" lon="11.7059145"><ele>34.333333333333336</ele><time>2026-04-22T10:49:55.045Z</time></trkpt><trkpt lat="42.2751235" lon="11.7061526"><ele>34.666666666666664</ele><time>2026-04-22T10:49:56.074Z</time></trkpt><trkpt lat="42.274995" lon="11.7063857"><ele>35.0</ele><time>2026-04-22T10:49:57.057Z</time></trkpt><trkpt lat="42.2748632" lon="11.7066239"><ele>35.0</ele><time>2026-04-22T10:49:58.055Z</time></trkpt><trkpt lat="42.2747339" lon="11.7068625"><ele>35.0</ele><time>2026-04-22T10:49:59.053Z</time></trkpt><trkpt lat="42.2746022" lon="11.7071055"><ele>35.0</ele><time>2026-04-22T10:50:00.055Z</time></trkpt><trkpt lat="42.274471" lon="11.7073464"><ele>35.0</ele><time>2026-04-22T10:50:01.045Z</time></trkpt><trkpt lat="42.2743425" lon="11.7075923"><ele>35.0</ele><time>2026-04-22T10:50:02.054Z</time></trkpt><trkpt lat="42.2742084" lon="11.7078331"><ele>35.0</ele><time>2026-04-22T10:50:03.07Z</time></trkpt><trkpt lat="42.2740771" lon="11.7080712"><ele>35.0</ele><time>2026-04-22T10:50:04.045Z</time></trkpt><trkpt lat="42.2739457" lon="11.708308"><ele>35.0</ele><time>2026-04-22T10:50:05.047Z</time></trkpt><trkpt lat="42.2738199" lon="11.7085523"><ele>35.0</ele><time>2026-04-22T10:50:06.041Z</time></trkpt><trkpt lat="42.2736923" lon="11.7087955"><ele>35.0</ele><time>2026-04-22T10:50:07.067Z</time></trkpt><trkpt lat="42.2735649" lon="11.7090362"><ele>35.0</ele><time>2026-04-22T10:50:08.05Z</time></trkpt><trkpt lat="42.2734369" lon="11.7092776"><ele>35.0</ele><time>2026-04-22T10:50:09.058Z</time></trkpt><trkpt lat="42.2733074" lon="11.709511"><ele>35.0</ele><time>2026-04-22T10:50:10.055Z</time></trkpt><trkpt lat="42.2731744" lon="11.7097529"><ele>35.0</ele><time>2026-04-22T10:50:11.049Z</time></trkpt><trkpt lat="42.2730427" lon="11.7099943"><ele>35.0</ele><time>2026-04-22T10:50:12.061Z</time></trkpt><trkpt lat="42.2729153" lon="11.7102317"><ele>36.0</ele><time>2026-04-22T10:50:13.04Z</time></trkpt><trkpt lat="42.2727826" lon="11.7104752"><ele>37.0</ele><time>2026-04-22T10:50:14.044Z</time></trkpt><trkpt lat="42.2726542" lon="11.7107138"><ele>38.0</ele><time>2026-04-22T10:50:15.079Z</time></trkpt><trkpt lat="42.2725242" lon="11.710952"><ele>38.33333333333333</ele><time>2026-04-22T10:50:16.061Z</time></trkpt><trkpt lat="42.2723925" lon="11.7111955"><ele>38.666666666666664</ele><time>2026-04-22T10:50:17.042Z</time></trkpt><trkpt lat="42.2722594" lon="11.7114395"><ele>39.0</ele><time>2026-04-22T10:50:18.041Z</time></trkpt><trkpt lat="42.2721255" lon="11.7116804"><ele>39.0</ele><time>2026-04-22T10:50:19.037Z</time></trkpt><trkpt lat="42.2720003" lon="11.7119243"><ele>39.0</ele><time>2026-04-22T10:50:20.026Z</time></trkpt><trkpt lat="42.2718693" lon="11.7121614"><ele>39.0</ele><time>2026-04-22T10:50:21.059Z</time></trkpt><trkpt lat="42.271737" lon="11.7124035"><ele>39.0</ele><time>2026-04-22T10:50:22.054Z</time></trkpt><trkpt lat="42.2716014" lon="11.7126493"><ele>39.0</ele><time>2026-04-22T10:50:23.036Z</time></trkpt><trkpt lat="42.27147" lon="11.7128966"><ele>39.0</ele><time>2026-04-22T10:50:24.036Z</time></trkpt><trkpt lat="42.2713369" lon="11.7131348"><ele>39.0</ele><time>2026-04-22T10:50:25.052Z</time></trkpt><trkpt lat="42.2712097" lon="11.7133714"><ele>39.0</ele><time>2026-04-22T10:50:26.049Z</time></trkpt><trkpt lat="42.2710801" lon="11.7136155"><ele>39.0</ele><time>2026-04-22T10:50:27.065Z</time></trkpt><trkpt lat="42.2709492" lon="11.7138538"><ele>39.0</ele><time>2026-04-22T10:50:28.062Z</time></trkpt><trkpt lat="42.2708156" lon="11.7140934"><ele>39.0</ele><time>2026-04-22T10:50:29.059Z</time></trkpt><trkpt lat="42.2706801" lon="11.7143339"><ele>38.333333333333336</ele><time>2026-04-22T10:50:30.046Z</time></trkpt><trkpt lat="42.2705519" lon="11.714572"><ele>37.66666666666667</ele><time>2026-04-22T10:50:31.062Z</time></trkpt><trkpt lat="42.2704217" lon="11.7148062"><ele>37.0</ele><time>2026-04-22T10:50:32.05Z</time></trkpt><trkpt lat="42.2702872" lon="11.7150397"><ele>38.0</ele><time>2026-04-22T10:50:33.069Z</time></trkpt><trkpt lat="42.2701548" lon="11.7152795"><ele>39.0</ele><time>2026-04-22T10:50:34.047Z</time></trkpt><trkpt lat="42.2700171" lon="11.7155167"><ele>40.0</ele><time>2026-04-22T10:50:35.038Z</time></trkpt><trkpt lat="42.2698884" lon="11.7157569"><ele>40.333333333333336</ele><time>2026-04-22T10:50:36.06Z</time></trkpt><trkpt lat="42.2697588" lon="11.715996"><ele>40.666666666666664</ele><time>2026-04-22T10:50:37.025Z</time></trkpt><trkpt lat="42.2696275" lon="11.7162308"><ele>41.0</ele><time>2026-04-22T10:50:38.066Z</time></trkpt><trkpt lat="42.2694929" lon="11.7164724"><ele>41.0</ele><time>2026-04-22T10:50:39.049Z</time></trkpt><trkpt lat="42.2693592" lon="11.7167098"><ele>41.0</ele><time>2026-04-22T10:50:40.06Z</time></trkpt><trkpt lat="42.2692329" lon="11.716952"><ele>41.0</ele><time>2026-04-22T10:50:41.03Z</time></trkpt><trkpt lat="42.2691059" lon="11.7171909"><ele>41.0</ele><time>2026-04-22T10:50:42.038Z</time></trkpt><trkpt lat="42.2689751" lon="11.7174244"><ele>41.0</ele><time>2026-04-22T10:50:43.045Z</time></trkpt><trkpt lat="42.2688435" lon="11.7176615"><ele>41.0</ele><time>2026-04-22T10:50:44.058Z</time></trkpt><trkpt lat="42.2687033" lon="11.7178972"><ele>41.0</ele><time>2026-04-22T10:50:45.051Z</time></trkpt><trkpt lat="42.2685671" lon="11.7181358"><ele>41.0</ele><time>2026-04-22T10:50:46.047Z</time></trkpt><trkpt lat="42.2684351" lon="11.7183725"><ele>41.0</ele><time>2026-04-22T10:50:47.054Z</time></trkpt><trkpt lat="42.2682995" lon="11.7186119"><ele>41.33333333333333</ele><time>2026-04-22T10:50:48.061Z</time></trkpt><trkpt lat="42.2681633" lon="11.7188449"><ele>41.666666666666664</ele><time>2026-04-22T10:50:49.061Z</time></trkpt><trkpt lat="42.2680164" lon="11.7190655"><ele>42.0</ele><time>2026-04-22T10:50:50.063Z</time></trkpt><trkpt lat="42.2678599" lon="11.7192788"><ele>42.5</ele><time>2026-04-22T10:50:51.047Z</time></trkpt><trkpt lat="42.2676909" lon="11.7194857"><ele>43.0</ele><time>2026-04-22T10:50:52.058Z</time></trkpt><trkpt lat="42.2675191" lon="11.7196871"><ele>43.0</ele><time>2026-04-22T10:50:53.064Z</time></trkpt><trkpt lat="42.2673498" lon="11.7198778"><ele>43.0</ele><time>2026-04-22T10:50:54.051Z</time></trkpt><trkpt lat="42.2671783" lon="11.720054"><ele>43.0</ele><time>2026-04-22T10:50:55.046Z</time></trkpt><trkpt lat="42.2670008" lon="11.7202289"><ele>42.0</ele><time>2026-04-22T10:50:56.053Z</time></trkpt><trkpt lat="42.2668144" lon="11.7204008"><ele>41.0</ele><time>2026-04-22T10:50:57.063Z</time></trkpt><trkpt lat="42.2666308" lon="11.7205653"><ele>40.0</ele><time>2026-04-22T10:50:58.036Z</time></trkpt><trkpt lat="42.266445" lon="11.720726"><ele>40.0</ele><time>2026-04-22T10:50:59.081Z</time></trkpt><trkpt lat="42.2662572" lon="11.720876"><ele>40.0</ele><time>2026-04-22T10:51:00.058Z</time></trkpt><trkpt lat="42.2660629" lon="11.7210273"><ele>40.0</ele><time>2026-04-22T10:51:01.056Z</time></trkpt><trkpt lat="42.2658682" lon="11.7211815"><ele>40.0</ele><time>2026-04-22T10:51:02.045Z</time></trkpt><trkpt lat="42.2656688" lon="11.7213255"><ele>40.0</ele><time>2026-04-22T10:51:03.054Z</time></trkpt><trkpt lat="42.2654651" lon="11.7214637"><ele>37.5</ele><time>2026-04-22T10:51:04.052Z</time></trkpt><trkpt lat="42.2652606" lon="11.7215945"><ele>35.0</ele><time>2026-04-22T10:51:05.049Z</time></trkpt><trkpt lat="42.2650539" lon="11.7217262"><ele>35.0</ele><time>2026-04-22T10:51:06.043Z</time></trkpt><trkpt lat="42.2648458" lon="11.7218556"><ele>35.0</ele><time>2026-04-22T10:51:07.056Z</time></trkpt><trkpt lat="42.2646385" lon="11.7219817"><ele>35.666666666666664</ele><time>2026-04-22T10:51:08.059Z</time></trkpt><trkpt lat="42.2644345" lon="11.722109"><ele>36.333333333333336</ele><time>2026-04-22T10:51:09.055Z</time></trkpt><trkpt lat="42.2642308" lon="11.7222332"><ele>37.0</ele><time>2026-04-22T10:51:10.047Z</time></trkpt><trkpt lat="42.2640265" lon="11.7223584"><ele>36.66666666666667</ele><time>2026-04-22T10:51:11.055Z</time></trkpt><trkpt lat="42.2638234" lon="11.722479"><ele>36.333333333333336</ele><time>2026-04-22T10:51:12.051Z</time></trkpt><trkpt lat="42.2636174" lon="11.7226038"><ele>36.0</ele><time>2026-04-22T10:51:13.048Z</time></trkpt><trkpt lat="42.26341" lon="11.7227333"><ele>36.0</ele><time>2026-04-22T10:51:14.055Z</time></trkpt><trkpt lat="42.263206" lon="11.7228629"><ele>36.0</ele><time>2026-04-22T10:51:15.05Z</time></trkpt><trkpt lat="42.263001" lon="11.7229973"><ele>35.0</ele><time>2026-04-22T10:51:16.045Z</time></trkpt><trkpt lat="42.2627978" lon="11.7231283"><ele>34.0</ele><time>2026-04-22T10:51:17.051Z</time></trkpt><trkpt lat="42.2625915" lon="11.7232583"><ele>34.0</ele><time>2026-04-22T10:51:18.045Z</time></trkpt><trkpt lat="42.2623881" lon="11.7233998"><ele>34.0</ele><time>2026-04-22T10:51:19.066Z</time></trkpt><trkpt lat="42.2621812" lon="11.7235374"><ele>33.0</ele><time>2026-04-22T10:51:20.06Z</time></trkpt><trkpt lat="42.261978" lon="11.7236821"><ele>32.0</ele><time>2026-04-22T10:51:21.029Z</time></trkpt><trkpt lat="42.2617811" lon="11.7238295"><ele>32.0</ele><time>2026-04-22T10:51:22.069Z</time></trkpt><trkpt lat="42.2615835" lon="11.723973"><ele>32.0</ele><time>2026-04-22T10:51:23.051Z</time></trkpt><trkpt lat="42.2613876" lon="11.7241204"><ele>32.0</ele><time>2026-04-22T10:51:24.047Z</time></trkpt><trkpt lat="42.2611928" lon="11.7242677"><ele>32.5</ele><time>2026-04-22T10:51:25.061Z</time></trkpt><trkpt lat="42.2609965" lon="11.724424"><ele>33.0</ele><time>2026-04-22T10:51:26.04Z</time></trkpt><trkpt lat="42.2608003" lon="11.7245794"><ele>31.666666666666664</ele><time>2026-04-22T10:51:27.047Z</time></trkpt><trkpt lat="42.2606076" lon="11.7247357"><ele>30.333333333333332</ele><time>2026-04-22T10:51:28.064Z</time></trkpt><trkpt lat="42.2604234" lon="11.7248817"><ele>29.0</ele><time>2026-04-22T10:51:29.058Z</time></trkpt><trkpt lat="42.2602502" lon="11.7250222"><ele>29.0</ele><time>2026-04-22T10:51:30.062Z</time></trkpt><trkpt lat="42.26008" lon="11.7251606"><ele>29.0</ele><time>2026-04-22T10:51:31.063Z</time></trkpt><trkpt lat="42.2599165" lon="11.7252925"><ele>29.0</ele><time>2026-04-22T10:51:32.067Z</time></trkpt><trkpt lat="42.259753" lon="11.7254226"><ele>27.666666666666664</ele><time>2026-04-22T10:51:33.054Z</time></trkpt><trkpt lat="42.259601" lon="11.7255437"><ele>26.333333333333336</ele><time>2026-04-22T10:51:34.034Z</time></trkpt><trkpt lat="42.2594548" lon="11.7256621"><ele>25.0</ele><time>2026-04-22T10:51:35.065Z</time></trkpt><trkpt lat="42.2593124" lon="11.7257817"><ele>25.0</ele><time>2026-04-22T10:51:36.052Z</time></trkpt><trkpt lat="42.2591685" lon="11.725894"><ele>25.0</ele><time>2026-04-22T10:51:37.063Z</time></trkpt><trkpt lat="42.2590251" lon="11.7260078"><ele>25.0</ele><time>2026-04-22T10:51:38.06Z</time></trkpt><trkpt lat="42.2588779" lon="11.7261172"><ele>24.333333333333336</ele><time>2026-04-22T10:51:39.062Z</time></trkpt><trkpt lat="42.258721" lon="11.7262375"><ele>23.666666666666668</ele><time>2026-04-22T10:51:40.048Z</time></trkpt><trkpt lat="42.2585589" lon="11.7263647"><ele>23.0</ele><time>2026-04-22T10:51:41.037Z</time></trkpt><trkpt lat="42.2584007" lon="11.7264903"><ele>23.0</ele><time>2026-04-22T10:51:42.046Z</time></trkpt><trkpt lat="42.2582425" lon="11.7266025"><ele>23.0</ele><time>2026-04-22T10:51:43.049Z</time></trkpt><trkpt lat="42.2580809" lon="11.7267036"><ele>23.0</ele><time>2026-04-22T10:51:44.047Z</time></trkpt><trkpt lat="42.25792" lon="11.7268035"><ele>21.333333333333336</ele><time>2026-04-22T10:51:45.051Z</time></trkpt><trkpt lat="42.2577651" lon="11.7268949"><ele>19.666666666666668</ele><time>2026-04-22T10:51:46.084Z</time></trkpt><trkpt lat="42.2576141" lon="11.7269814"><ele>18.0</ele><time>2026-04-22T10:51:47.057Z</time></trkpt><trkpt lat="42.2574713" lon="11.7270742"><ele>18.0</ele><time>2026-04-22T10:51:48.066Z</time></trkpt><trkpt lat="42.2573357" lon="11.727165"><ele>18.0</ele><time>2026-04-22T10:51:49.061Z</time></trkpt><trkpt lat="42.2572048" lon="11.727255"><ele>18.0</ele><time>2026-04-22T10:51:50.058Z</time></trkpt><trkpt lat="42.2570937" lon="11.7273377"><ele>18.0</ele><time>2026-04-22T10:51:51.047Z</time></trkpt><trkpt lat="42.2570023" lon="11.7274102"><ele>18.0</ele><time>2026-04-22T10:51:52.045Z</time></trkpt><trkpt lat="42.2569347" lon="11.7274782"><ele>18.0</ele><time>2026-04-22T10:51:53.062Z</time></trkpt><trkpt lat="42.2568776" lon="11.7275484"><ele>18.0</ele><time>2026-04-22T10:51:54.052Z</time></trkpt><trkpt lat="42.2568118" lon="11.7276088"><ele>18.0</ele><time>2026-04-22T10:51:56.045Z</time></trkpt><trkpt lat="42.2567473" lon="11.7276403"><ele>18.0</ele><time>2026-04-22T10:52:40.052Z</time></trkpt><trkpt lat="42.2566576" lon="11.7277137"><ele>18.0</ele><time>2026-04-22T10:52:42.061Z</time></trkpt><trkpt lat="42.2565868" lon="11.727762"><ele>17.6</ele><time>2026-04-22T10:52:43.047Z</time></trkpt><trkpt lat="42.2565077" lon="11.7278166"><ele>17.200000000000003</ele><time>2026-04-22T10:52:44.053Z</time></trkpt><trkpt lat="42.2564122" lon="11.7279028"><ele>16.8</ele><time>2026-04-22T10:52:45.045Z</time></trkpt><trkpt lat="42.2563207" lon="11.7279931"><ele>16.400000000000002</ele><time>2026-04-22T10:52:46.063Z</time></trkpt><trkpt lat="42.2562219" lon="11.7281012"><ele>16.0</ele><time>2026-04-22T10:52:47.058Z</time></trkpt><trkpt lat="42.2561421" lon="11.7281903"><ele>16.0</ele><time>2026-04-22T10:52:48.062Z</time></trkpt><trkpt lat="42.2560616" lon="11.7282804"><ele>16.0</ele><time>2026-04-22T10:52:49.058Z</time></trkpt><trkpt lat="42.2559758" lon="11.7283699"><ele>16.0</ele><time>2026-04-22T10:52:50.061Z</time></trkpt><trkpt lat="42.255882" lon="11.7284683"><ele>16.0</ele><time>2026-04-22T10:52:51.061Z</time></trkpt><trkpt lat="42.2557878" lon="11.7285783"><ele>15.75</ele><time>2026-04-22T10:52:52.053Z</time></trkpt><trkpt lat="42.2556864" lon="11.7286929"><ele>15.5</ele><time>2026-04-22T10:52:53.055Z</time></trkpt><trkpt lat="42.2555774" lon="11.7288"><ele>15.25</ele><time>2026-04-22T10:52:54.049Z</time></trkpt><trkpt lat="42.2554643" lon="11.7289157"><ele>15.0</ele><time>2026-04-22T10:52:55.044Z</time></trkpt><trkpt lat="42.2553439" lon="11.729028"><ele>15.0</ele><time>2026-04-22T10:52:56.035Z</time></trkpt><trkpt lat="42.2552191" lon="11.7291378"><ele>15.0</ele><time>2026-04-22T10:52:57.047Z</time></trkpt><trkpt lat="42.2550905" lon="11.7292495"><ele>15.0</ele><time>2026-04-22T10:52:58.058Z</time></trkpt><trkpt lat="42.2549597" lon="11.729362"><ele>14.0</ele><time>2026-04-22T10:52:59.05Z</time></trkpt><trkpt lat="42.2548277" lon="11.7294649"><ele>13.0</ele><time>2026-04-22T10:53:00.048Z</time></trkpt><trkpt lat="42.254684" lon="11.729578"><ele>12.0</ele><time>2026-04-22T10:53:01.055Z</time></trkpt><trkpt lat="42.2545309" lon="11.7297134"><ele>12.0</ele><time>2026-04-22T10:53:02.047Z</time></trkpt><trkpt lat="42.2543704" lon="11.729849"><ele>12.0</ele><time>2026-04-22T10:53:03.045Z</time></trkpt><trkpt lat="42.2542066" lon="11.7299886"><ele>12.0</ele><time>2026-04-22T10:53:04.052Z</time></trkpt><trkpt lat="42.2540331" lon="11.7301341"><ele>11.666666666666666</ele><time>2026-04-22T10:53:05.058Z</time></trkpt><trkpt lat="42.2538487" lon="11.7302849"><ele>11.333333333333332</ele><time>2026-04-22T10:53:06.037Z</time></trkpt><trkpt lat="42.2536502" lon="11.7304458"><ele>11.0</ele><time>2026-04-22T10:53:07.049Z</time></trkpt><trkpt lat="42.2534493" lon="11.7306064"><ele>11.0</ele><time>2026-04-22T10:53:08.133Z</time></trkpt><trkpt lat="42.2532505" lon="11.7307757"><ele>11.0</ele><time>2026-04-22T10:53:09.058Z</time></trkpt><trkpt lat="42.2530541" lon="11.730948"><ele>11.0</ele><time>2026-04-22T10:53:10.057Z</time></trkpt><trkpt lat="42.2528534" lon="11.7311306"><ele>11.0</ele><time>2026-04-22T10:53:11.058Z</time></trkpt><trkpt lat="42.2526433" lon="11.7313179"><ele>11.0</ele><time>2026-04-22T10:53:12.056Z</time></trkpt><trkpt lat="42.2524343" lon="11.7315072"><ele>11.0</ele><time>2026-04-22T10:53:13.042Z</time></trkpt><trkpt lat="42.2522287" lon="11.7316982"><ele>10.5</ele><time>2026-04-22T10:53:14.051Z</time></trkpt><trkpt lat="42.2520214" lon="11.731872"><ele>10.0</ele><time>2026-04-22T10:53:15.039Z</time></trkpt><trkpt lat="42.251819" lon="11.7320532"><ele>10.0</ele><time>2026-04-22T10:53:16.061Z</time></trkpt><trkpt lat="42.2516182" lon="11.7322354"><ele>10.0</ele><time>2026-04-22T10:53:17.034Z</time></trkpt><trkpt lat="42.2514244" lon="11.7324255"><ele>9.5</ele><time>2026-04-22T10:53:18.049Z</time></trkpt><trkpt lat="42.2512294" lon="11.7326293"><ele>9.0</ele><time>2026-04-22T10:53:19.056Z</time></trkpt><trkpt lat="42.2510347" lon="11.732842"><ele>10.0</ele><time>2026-04-22T10:53:20.059Z</time></trkpt><trkpt lat="42.2508442" lon="11.7330589"><ele>11.0</ele><time>2026-04-22T10:53:21.043Z</time></trkpt><trkpt lat="42.2506607" lon="11.7332737"><ele>11.0</ele><time>2026-04-22T10:53:22.021Z</time></trkpt><trkpt lat="42.2504775" lon="11.7334817"><ele>11.0</ele><time>2026-04-22T10:53:23.062Z</time></trkpt><trkpt lat="42.2502924" lon="11.7336913"><ele>11.0</ele><time>2026-04-22T10:53:24.057Z</time></trkpt><trkpt lat="42.250107" lon="11.733901"><ele>11.0</ele><time>2026-04-22T10:53:25.039Z</time></trkpt><trkpt lat="42.249923" lon="11.7341146"><ele>11.0</ele><time>2026-04-22T10:53:26.056Z</time></trkpt><trkpt lat="42.2497376" lon="11.7343374"><ele>11.0</ele><time>2026-04-22T10:53:27.043Z</time></trkpt><trkpt lat="42.2495555" lon="11.7345478"><ele>11.5</ele><time>2026-04-22T10:53:28.049Z</time></trkpt><trkpt lat="42.2493687" lon="11.7347591"><ele>12.0</ele><time>2026-04-22T10:53:29.037Z</time></trkpt><trkpt lat="42.2491822" lon="11.7349724"><ele>12.0</ele><time>2026-04-22T10:53:30.049Z</time></trkpt><trkpt lat="42.2489955" lon="11.735182"><ele>12.0</ele><time>2026-04-22T10:53:31.064Z</time></trkpt><trkpt lat="42.2488083" lon="11.7353969"><ele>12.5</ele><time>2026-04-22T10:53:32.067Z</time></trkpt><trkpt lat="42.2486195" lon="11.7356139"><ele>13.0</ele><time>2026-04-22T10:53:33.058Z</time></trkpt><trkpt lat="42.248431" lon="11.7358328"><ele>13.0</ele><time>2026-04-22T10:53:34.063Z</time></trkpt><trkpt lat="42.2482436" lon="11.736044"><ele>13.0</ele><time>2026-04-22T10:53:35.051Z</time></trkpt><trkpt lat="42.2480654" lon="11.7362707"><ele>16.0</ele><time>2026-04-22T10:53:36.049Z</time></trkpt><trkpt lat="42.2478823" lon="11.7364952"><ele>19.0</ele><time>2026-04-22T10:53:37.052Z</time></trkpt><trkpt lat="42.2477003" lon="11.7367204"><ele>21.5</ele><time>2026-04-22T10:53:38.054Z</time></trkpt><trkpt lat="42.2475257" lon="11.7369492"><ele>24.0</ele><time>2026-04-22T10:53:39.056Z</time></trkpt><trkpt lat="42.2473563" lon="11.7371771"><ele>25.0</ele><time>2026-04-22T10:53:40.055Z</time></trkpt><trkpt lat="42.2471861" lon="11.7374104"><ele>26.0</ele><time>2026-04-22T10:53:41.043Z</time></trkpt><trkpt lat="42.2470127" lon="11.7376409"><ele>26.5</ele><time>2026-04-22T10:53:42.046Z</time></trkpt><trkpt lat="42.2468435" lon="11.7378838"><ele>27.0</ele><time>2026-04-22T10:53:43.045Z</time></trkpt><trkpt lat="42.246682" lon="11.7381277"><ele>27.0</ele><time>2026-04-22T10:53:44.059Z</time></trkpt><trkpt lat="42.2465241" lon="11.7383764"><ele>27.0</ele><time>2026-04-22T10:53:45.045Z</time></trkpt><trkpt lat="42.2463672" lon="11.738632"><ele>28.0</ele><time>2026-04-22T10:53:46.058Z</time></trkpt><trkpt lat="42.2462092" lon="11.7388852"><ele>29.0</ele><time>2026-04-22T10:53:47.055Z</time></trkpt><trkpt lat="42.2460551" lon="11.7391393"><ele>28.5</ele><time>2026-04-22T10:53:48.067Z</time></trkpt><trkpt lat="42.2459009" lon="11.7393964"><ele>28.0</ele><time>2026-04-22T10:53:49.048Z</time></trkpt><trkpt lat="42.2457483" lon="11.7396467"><ele>28.5</ele><time>2026-04-22T10:53:50.065Z</time></trkpt><trkpt lat="42.2455943" lon="11.739898"><ele>29.0</ele><time>2026-04-22T10:53:51.064Z</time></trkpt><trkpt lat="42.2454303" lon="11.7401444"><ele>28.5</ele><time>2026-04-22T10:53:52.048Z</time></trkpt><trkpt lat="42.2452704" lon="11.7403868"><ele>28.0</ele><time>2026-04-22T10:53:53.058Z</time></trkpt><trkpt lat="42.245111" lon="11.7406382"><ele>28.0</ele><time>2026-04-22T10:53:54.049Z</time></trkpt><trkpt lat="42.2449509" lon="11.7408921"><ele>28.0</ele><time>2026-04-22T10:53:55.071Z</time></trkpt><trkpt lat="42.2447992" lon="11.7411456"><ele>29.0</ele><time>2026-04-22T10:53:56.07Z</time></trkpt><trkpt lat="42.2446427" lon="11.7413975"><ele>30.0</ele><time>2026-04-22T10:53:57.053Z</time></trkpt><trkpt lat="42.2444879" lon="11.7416456"><ele>30.5</ele><time>2026-04-22T10:53:58.062Z</time></trkpt><trkpt lat="42.2443316" lon="11.7418937"><ele>31.0</ele><time>2026-04-22T10:53:59.051Z</time></trkpt><trkpt lat="42.2441765" lon="11.7421449"><ele>31.0</ele><time>2026-04-22T10:54:00.068Z</time></trkpt><trkpt lat="42.2440265" lon="11.7424086"><ele>31.0</ele><time>2026-04-22T10:54:01.065Z</time></trkpt><trkpt lat="42.2438804" lon="11.7426656"><ele>31.5</ele><time>2026-04-22T10:54:02.058Z</time></trkpt><trkpt lat="42.2437423" lon="11.742941"><ele>32.0</ele><time>2026-04-22T10:54:03.063Z</time></trkpt><trkpt lat="42.2436103" lon="11.7432178"><ele>32.0</ele><time>2026-04-22T10:54:04.068Z</time></trkpt><trkpt lat="42.2434875" lon="11.7435047"><ele>32.0</ele><time>2026-04-22T10:54:05.064Z</time></trkpt><trkpt lat="42.2433702" lon="11.7437962"><ele>32.5</ele><time>2026-04-22T10:54:06.058Z</time></trkpt><trkpt lat="42.2432538" lon="11.7440914"><ele>33.0</ele><time>2026-04-22T10:54:07.076Z</time></trkpt><trkpt lat="42.2431459" lon="11.7443875"><ele>33.5</ele><time>2026-04-22T10:54:08.055Z</time></trkpt><trkpt lat="42.2430409" lon="11.7446936"><ele>34.0</ele><time>2026-04-22T10:54:09.061Z</time></trkpt><trkpt lat="42.2429474" lon="11.7449923"><ele>35.0</ele><time>2026-04-22T10:54:10.088Z</time></trkpt><trkpt lat="42.2428638" lon="11.7453011"><ele>36.0</ele><time>2026-04-22T10:54:11.056Z</time></trkpt><trkpt lat="42.2427859" lon="11.7456117"><ele>36.0</ele><time>2026-04-22T10:54:12.06Z</time></trkpt><trkpt lat="42.2427115" lon="11.7459239"><ele>36.0</ele><time>2026-04-22T10:54:13.059Z</time></trkpt><trkpt lat="42.2426362" lon="11.746238"><ele>36.5</ele><time>2026-04-22T10:54:14.052Z</time></trkpt><trkpt lat="42.2425638" lon="11.746553"><ele>37.0</ele><time>2026-04-22T10:54:15.056Z</time></trkpt><trkpt lat="42.2424935" lon="11.7468623"><ele>36.0</ele><time>2026-04-22T10:54:16.052Z</time></trkpt><trkpt lat="42.242423" lon="11.747173"><ele>35.0</ele><time>2026-04-22T10:54:17.059Z</time></trkpt><trkpt lat="42.2423545" lon="11.7474938"><ele>35.0</ele><time>2026-04-22T10:54:18.05Z</time></trkpt><trkpt lat="42.242279" lon="11.7478092"><ele>35.0</ele><time>2026-04-22T10:54:19.054Z</time></trkpt><trkpt lat="42.2422078" lon="11.7481396"><ele>35.0</ele><time>2026-04-22T10:54:20.071Z</time></trkpt><trkpt lat="42.2421367" lon="11.7484642"><ele>35.0</ele><time>2026-04-22T10:54:21.049Z</time></trkpt><trkpt lat="42.2420705" lon="11.7487889"><ele>35.5</ele><time>2026-04-22T10:54:22.062Z</time></trkpt><trkpt lat="42.2420019" lon="11.7491145"><ele>36.0</ele><time>2026-04-22T10:54:23.068Z</time></trkpt><trkpt lat="42.2419398" lon="11.7494326"><ele>37.0</ele><time>2026-04-22T10:54:24.06Z</time></trkpt><trkpt lat="42.2418755" lon="11.7497586"><ele>38.0</ele><time>2026-04-22T10:54:25.044Z</time></trkpt><trkpt lat="42.2418096" lon="11.7500792"><ele>38.5</ele><time>2026-04-22T10:54:26.061Z</time></trkpt><trkpt lat="42.2417388" lon="11.750405"><ele>39.0</ele><time>2026-04-22T10:54:27.057Z</time></trkpt><trkpt lat="42.2416686" lon="11.7507421"><ele>40.0</ele><time>2026-04-22T10:54:28.066Z</time></trkpt><trkpt lat="42.2415911" lon="11.751083"><ele>41.0</ele><time>2026-04-22T10:54:29.068Z</time></trkpt><trkpt lat="42.2415167" lon="11.7514335"><ele>39.5</ele><time>2026-04-22T10:54:30.062Z</time></trkpt><trkpt lat="42.2414438" lon="11.7517896"><ele>38.0</ele><time>2026-04-22T10:54:31.047Z</time></trkpt><trkpt lat="42.2413645" lon="11.75214"><ele>37.5</ele><time>2026-04-22T10:54:32.049Z</time></trkpt><trkpt lat="42.2412751" lon="11.7524836"><ele>37.0</ele><time>2026-04-22T10:54:33.072Z</time></trkpt><trkpt lat="42.2411897" lon="11.7528166"><ele>38.0</ele><time>2026-04-22T10:54:34.057Z</time></trkpt><trkpt lat="42.2411134" lon="11.7531634"><ele>39.0</ele><time>2026-04-22T10:54:35.037Z</time></trkpt><trkpt lat="42.241039" lon="11.7535081"><ele>40.0</ele><time>2026-04-22T10:54:36.05Z</time></trkpt><trkpt lat="42.2409682" lon="11.7538571"><ele>41.0</ele><time>2026-04-22T10:54:37.047Z</time></trkpt><trkpt lat="42.2408999" lon="11.7542132"><ele>41.5</ele><time>2026-04-22T10:54:38.038Z</time></trkpt><trkpt lat="42.2408245" lon="11.7545527"><ele>42.0</ele><time>2026-04-22T10:54:39.045Z</time></trkpt><trkpt lat="42.2407547" lon="11.7548804"><ele>42.0</ele><time>2026-04-22T10:54:40.06Z</time></trkpt><trkpt lat="42.2406745" lon="11.7552077"><ele>42.0</ele><time>2026-04-22T10:54:41.064Z</time></trkpt><trkpt lat="42.2405963" lon="11.7555285"><ele>42.0</ele><time>2026-04-22T10:54:42.042Z</time></trkpt><trkpt lat="42.2405141" lon="11.7558578"><ele>42.0</ele><time>2026-04-22T10:54:43.051Z</time></trkpt><trkpt lat="42.2404245" lon="11.756179"><ele>42.0</ele><time>2026-04-22T10:54:44.033Z</time></trkpt><trkpt lat="42.240326" lon="11.7564923"><ele>42.0</ele><time>2026-04-22T10:54:45.041Z</time></trkpt><trkpt lat="42.2402203" lon="11.7568044"><ele>43.0</ele><time>2026-04-22T10:54:46.063Z</time></trkpt><trkpt lat="42.2401094" lon="11.7571062"><ele>44.0</ele><time>2026-04-22T10:54:47.074Z</time></trkpt><trkpt lat="42.239994" lon="11.757404"><ele>44.0</ele><time>2026-04-22T10:54:48.053Z</time></trkpt><trkpt lat="42.2398764" lon="11.7576914"><ele>44.0</ele><time>2026-04-22T10:54:49.047Z</time></trkpt><trkpt lat="42.2397497" lon="11.7579746"><ele>45.0</ele><time>2026-04-22T10:54:50.052Z</time></trkpt><trkpt lat="42.2396169" lon="11.7582445"><ele>46.0</ele><time>2026-04-22T10:54:51.046Z</time></trkpt><trkpt lat="42.2394748" lon="11.7585083"><ele>47.0</ele><time>2026-04-22T10:54:52.095Z</time></trkpt><trkpt lat="42.2393293" lon="11.7587655"><ele>48.0</ele><time>2026-04-22T10:54:53.055Z</time></trkpt><trkpt lat="42.2391691" lon="11.7590186"><ele>48.0</ele><time>2026-04-22T10:54:54.06Z</time></trkpt><trkpt lat="42.2390115" lon="11.7592578"><ele>48.0</ele><time>2026-04-22T10:54:55.046Z</time></trkpt><trkpt lat="42.2388385" lon="11.7594893"><ele>47.5</ele><time>2026-04-22T10:54:56.062Z</time></trkpt><trkpt lat="42.2386595" lon="11.7597031"><ele>47.0</ele><time>2026-04-22T10:54:57.067Z</time></trkpt><trkpt lat="42.2384751" lon="11.759916"><ele>47.0</ele><time>2026-04-22T10:54:58.07Z</time></trkpt><trkpt lat="42.2382796" lon="11.7601048"><ele>47.0</ele><time>2026-04-22T10:54:59.058Z</time></trkpt><trkpt lat="42.2380762" lon="11.7602848"><ele>46.5</ele><time>2026-04-22T10:55:00.024Z</time></trkpt><trkpt lat="42.2378597" lon="11.7604489"><ele>46.0</ele><time>2026-04-22T10:55:01.052Z</time></trkpt><trkpt lat="42.2376496" lon="11.7606068"><ele>46.0</ele><time>2026-04-22T10:55:02.037Z</time></trkpt><trkpt lat="42.2374347" lon="11.7607599"><ele>46.0</ele><time>2026-04-22T10:55:03.054Z</time></trkpt><trkpt lat="42.2372169" lon="11.7609032"><ele>46.5</ele><time>2026-04-22T10:55:04.046Z</time></trkpt><trkpt lat="42.2369982" lon="11.7610431"><ele>47.0</ele><time>2026-04-22T10:55:05.043Z</time></trkpt><trkpt lat="42.2367746" lon="11.7611783"><ele>47.0</ele><time>2026-04-22T10:55:06.047Z</time></trkpt><trkpt lat="42.2365503" lon="11.7613099"><ele>47.0</ele><time>2026-04-22T10:55:07.056Z</time></trkpt><trkpt lat="42.2363297" lon="11.761446"><ele>46.5</ele><time>2026-04-22T10:55:08.046Z</time></trkpt><trkpt lat="42.2361077" lon="11.7615894"><ele>46.0</ele><time>2026-04-22T10:55:09.055Z</time></trkpt><trkpt lat="42.2358899" lon="11.7617402"><ele>45.5</ele><time>2026-04-22T10:55:10.036Z</time></trkpt><trkpt lat="42.2356713" lon="11.7618993"><ele>45.0</ele><time>2026-04-22T10:55:11.05Z</time></trkpt><trkpt lat="42.2354602" lon="11.7620722"><ele>45.0</ele><time>2026-04-22T10:55:12.14Z</time></trkpt><trkpt lat="42.2352569" lon="11.7622629"><ele>45.0</ele><time>2026-04-22T10:55:13.104Z</time></trkpt><trkpt lat="42.2350671" lon="11.7624599"><ele>45.0</ele><time>2026-04-22T10:55:14.103Z</time></trkpt><trkpt lat="42.2348738" lon="11.7626708"><ele>45.0</ele><time>2026-04-22T10:55:15.048Z</time></trkpt><trkpt lat="42.2346873" lon="11.7628821"><ele>45.0</ele><time>2026-04-22T10:55:16.049Z</time></trkpt><trkpt lat="42.2345007" lon="11.7630977"><ele>45.0</ele><time>2026-04-22T10:55:17.049Z</time></trkpt><trkpt lat="42.2343103" lon="11.7633109"><ele>45.0</ele><time>2026-04-22T10:55:18.039Z</time></trkpt><trkpt lat="42.2341217" lon="11.7635228"><ele>45.0</ele><time>2026-04-22T10:55:19.104Z</time></trkpt><trkpt lat="42.2339267" lon="11.7637304"><ele>45.0</ele><time>2026-04-22T10:55:20.106Z</time></trkpt><trkpt lat="42.2337311" lon="11.7639376"><ele>45.0</ele><time>2026-04-22T10:55:21.115Z</time></trkpt><trkpt lat="42.2335316" lon="11.7641429"><ele>45.0</ele><time>2026-04-22T10:55:22.111Z</time></trkpt><trkpt lat="42.23333" lon="11.764348"><ele>45.0</ele><time>2026-04-22T10:55:23.104Z</time></trkpt><trkpt lat="42.2331289" lon="11.7645346"><ele>45.5</ele><time>2026-04-22T10:55:24.111Z</time></trkpt><trkpt lat="42.2329212" lon="11.7647118"><ele>46.0</ele><time>2026-04-22T10:55:25.081Z</time></trkpt><trkpt lat="42.2327083" lon="11.7648828"><ele>46.0</ele><time>2026-04-22T10:55:26.097Z</time></trkpt><trkpt lat="42.2324853" lon="11.7650432"><ele>46.0</ele><time>2026-04-22T10:55:27.111Z</time></trkpt><trkpt lat="42.2322647" lon="11.7652057"><ele>44.5</ele><time>2026-04-22T10:55:28.116Z</time></trkpt><trkpt lat="42.2320398" lon="11.7653529"><ele>43.0</ele><time>2026-04-22T10:55:29.096Z</time></trkpt><trkpt lat="42.2318157" lon="11.7654995"><ele>43.0</ele><time>2026-04-22T10:55:30.122Z</time></trkpt><trkpt lat="42.2315894" lon="11.7656331"><ele>43.0</ele><time>2026-04-22T10:55:31.101Z</time></trkpt><trkpt lat="42.2313607" lon="11.7657665"><ele>42.5</ele><time>2026-04-22T10:55:32.086Z</time></trkpt><trkpt lat="42.2311353" lon="11.7659004"><ele>42.0</ele><time>2026-04-22T10:55:33.113Z</time></trkpt><trkpt lat="42.2309068" lon="11.7660327"><ele>42.5</ele><time>2026-04-22T10:55:34.122Z</time></trkpt><trkpt lat="42.2306674" lon="11.7661585"><ele>43.0</ele><time>2026-04-22T10:55:35.117Z</time></trkpt><trkpt lat="42.230438" lon="11.7662877"><ele>43.0</ele><time>2026-04-22T10:55:36.116Z</time></trkpt><trkpt lat="42.2302088" lon="11.7664176"><ele>43.0</ele><time>2026-04-22T10:55:37.106Z</time></trkpt><trkpt lat="42.2299719" lon="11.7665483"><ele>43.0</ele><time>2026-04-22T10:55:38.104Z</time></trkpt><trkpt lat="42.22974" lon="11.7666717"><ele>43.0</ele><time>2026-04-22T10:55:39.107Z</time></trkpt><trkpt lat="42.2295041" lon="11.7667957"><ele>44.0</ele><time>2026-04-22T10:55:40.105Z</time></trkpt><trkpt lat="42.2292726" lon="11.7669155"><ele>45.0</ele><time>2026-04-22T10:55:41.111Z</time></trkpt><trkpt lat="42.2290405" lon="11.7670379"><ele>44.0</ele><time>2026-04-22T10:55:42.106Z</time></trkpt><trkpt lat="42.2288023" lon="11.7671583"><ele>43.0</ele><time>2026-04-22T10:55:43.095Z</time></trkpt><trkpt lat="42.2285675" lon="11.7672832"><ele>43.0</ele><time>2026-04-22T10:55:44.108Z</time></trkpt><trkpt lat="42.2283332" lon="11.7674037"><ele>43.0</ele><time>2026-04-22T10:55:45.119Z</time></trkpt><trkpt lat="42.2280954" lon="11.7675203"><ele>42.5</ele><time>2026-04-22T10:55:46.122Z</time></trkpt><trkpt lat="42.2278584" lon="11.7676353"><ele>42.0</ele><time>2026-04-22T10:55:47.12Z</time></trkpt><trkpt lat="42.2276205" lon="11.7677476"><ele>42.0</ele><time>2026-04-22T10:55:48.115Z</time></trkpt><trkpt lat="42.2273871" lon="11.767868"><ele>42.0</ele><time>2026-04-22T10:55:49.113Z</time></trkpt><trkpt lat="42.2271496" lon="11.7679882"><ele>42.5</ele><time>2026-04-22T10:55:50.11Z</time></trkpt><trkpt lat="42.2269101" lon="11.7681014"><ele>43.0</ele><time>2026-04-22T10:55:51.103Z</time></trkpt><trkpt lat="42.2266706" lon="11.7682085"><ele>42.5</ele><time>2026-04-22T10:55:52.109Z</time></trkpt><trkpt lat="42.2264323" lon="11.7683211"><ele>42.0</ele><time>2026-04-22T10:55:53.101Z</time></trkpt><trkpt lat="42.2261952" lon="11.7684351"><ele>41.5</ele><time>2026-04-22T10:55:54.101Z</time></trkpt><trkpt lat="42.2259598" lon="11.7685507"><ele>41.0</ele><time>2026-04-22T10:55:55.1Z</time></trkpt><trkpt lat="42.2257221" lon="11.7686766"><ele>41.0</ele><time>2026-04-22T10:55:56.108Z</time></trkpt><trkpt lat="42.2254882" lon="11.768793"><ele>41.0</ele><time>2026-04-22T10:55:57.122Z</time></trkpt><trkpt lat="42.225248" lon="11.7689091"><ele>41.0</ele><time>2026-04-22T10:55:58.121Z</time></trkpt><trkpt lat="42.2250113" lon="11.7690224"><ele>41.0</ele><time>2026-04-22T10:55:59.089Z</time></trkpt><trkpt lat="42.2247747" lon="11.7691373"><ele>40.5</ele><time>2026-04-22T10:56:00.09Z</time></trkpt><trkpt lat="42.2245369" lon="11.7692581"><ele>40.0</ele><time>2026-04-22T10:56:01.101Z</time></trkpt><trkpt lat="42.2243008" lon="11.7693739"><ele>40.5</ele><time>2026-04-22T10:56:02.11Z</time></trkpt><trkpt lat="42.2240672" lon="11.769485"><ele>41.0</ele><time>2026-04-22T10:56:03.1Z</time></trkpt><trkpt lat="42.223829" lon="11.7695998"><ele>41.0</ele><time>2026-04-22T10:56:04.117Z</time></trkpt><trkpt lat="42.2235925" lon="11.7697155"><ele>41.0</ele><time>2026-04-22T10:56:05.106Z</time></trkpt><trkpt lat="42.2233568" lon="11.7698369"><ele>40.0</ele><time>2026-04-22T10:56:06.109Z</time></trkpt><trkpt lat="42.2231213" lon="11.7699525"><ele>39.0</ele><time>2026-04-22T10:56:07.127Z</time></trkpt><trkpt lat="42.2228891" lon="11.7700663"><ele>39.0</ele><time>2026-04-22T10:56:08.097Z</time></trkpt><trkpt lat="42.2226542" lon="11.7701887"><ele>39.0</ele><time>2026-04-22T10:56:09.101Z</time></trkpt><trkpt lat="42.2224178" lon="11.7703036"><ele>39.5</ele><time>2026-04-22T10:56:10.112Z</time></trkpt><trkpt lat="42.222184" lon="11.7704188"><ele>40.0</ele><time>2026-04-22T10:56:11.121Z</time></trkpt><trkpt lat="42.2219495" lon="11.7705335"><ele>40.0</ele><time>2026-04-22T10:56:12.113Z</time></trkpt><trkpt lat="42.2217113" lon="11.7706492"><ele>40.0</ele><time>2026-04-22T10:56:13.117Z</time></trkpt><trkpt lat="42.2214744" lon="11.7707623"><ele>39.0</ele><time>2026-04-22T10:56:14.09Z</time></trkpt><trkpt lat="42.221241" lon="11.7708869"><ele>38.0</ele><time>2026-04-22T10:56:15.095Z</time></trkpt><trkpt lat="42.2210084" lon="11.7710145"><ele>39.0</ele><time>2026-04-22T10:56:16.101Z</time></trkpt><trkpt lat="42.2207736" lon="11.7711409"><ele>40.0</ele><time>2026-04-22T10:56:17.12Z</time></trkpt><trkpt lat="42.2205395" lon="11.7712746"><ele>40.0</ele><time>2026-04-22T10:56:18.097Z</time></trkpt><trkpt lat="42.220305" lon="11.7713989"><ele>40.0</ele><time>2026-04-22T10:56:19.101Z</time></trkpt><trkpt lat="42.220067" lon="11.7715218"><ele>40.0</ele><time>2026-04-22T10:56:20.11Z</time></trkpt><trkpt lat="42.2198344" lon="11.7716513"><ele>40.0</ele><time>2026-04-22T10:56:21.114Z</time></trkpt><trkpt lat="42.2196037" lon="11.7717865"><ele>39.5</ele><time>2026-04-22T10:56:22.11Z</time></trkpt><trkpt lat="42.2193756" lon="11.7719268"><ele>39.0</ele><time>2026-04-22T10:56:23.115Z</time></trkpt><trkpt lat="42.2191494" lon="11.7720725"><ele>37.5</ele><time>2026-04-22T10:56:24.12Z</time></trkpt><trkpt lat="42.2189218" lon="11.7722187"><ele>36.0</ele><time>2026-04-22T10:56:25.093Z</time></trkpt><trkpt lat="42.2186976" lon="11.7723734"><ele>36.0</ele><time>2026-04-22T10:56:26.096Z</time></trkpt><trkpt lat="42.2184703" lon="11.7725337"><ele>36.0</ele><time>2026-04-22T10:56:27.094Z</time></trkpt><trkpt lat="42.2182445" lon="11.7726924"><ele>35.5</ele><time>2026-04-22T10:56:28.095Z</time></trkpt><trkpt lat="42.2180235" lon="11.7728585"><ele>35.0</ele><time>2026-04-22T10:56:29.113Z</time></trkpt><trkpt lat="42.2178033" lon="11.7730318"><ele>35.0</ele><time>2026-04-22T10:56:30.123Z</time></trkpt><trkpt lat="42.2175916" lon="11.7732112"><ele>35.0</ele><time>2026-04-22T10:56:31.099Z</time></trkpt><trkpt lat="42.217379" lon="11.773385"><ele>36.5</ele><time>2026-04-22T10:56:32.102Z</time></trkpt><trkpt lat="42.2171671" lon="11.7735649"><ele>38.0</ele><time>2026-04-22T10:56:33.113Z</time></trkpt><trkpt lat="42.2169544" lon="11.7737505"><ele>38.0</ele><time>2026-04-22T10:56:34.083Z</time></trkpt><trkpt lat="42.2167481" lon="11.773946"><ele>38.0</ele><time>2026-04-22T10:56:35.121Z</time></trkpt><trkpt lat="42.2165415" lon="11.7741399"><ele>38.0</ele><time>2026-04-22T10:56:36.127Z</time></trkpt><trkpt lat="42.2163341" lon="11.7743346"><ele>38.0</ele><time>2026-04-22T10:56:37.101Z</time></trkpt><trkpt lat="42.2161303" lon="11.7745314"><ele>38.0</ele><time>2026-04-22T10:56:38.11Z</time></trkpt><trkpt lat="42.215926" lon="11.774731"><ele>38.0</ele><time>2026-04-22T10:56:39.096Z</time></trkpt><trkpt lat="42.2157305" lon="11.7749391"><ele>38.0</ele><time>2026-04-22T10:56:40.114Z</time></trkpt><trkpt lat="42.2155319" lon="11.7751506"><ele>38.0</ele><time>2026-04-22T10:56:41.098Z</time></trkpt><trkpt lat="42.2153306" lon="11.7753609"><ele>38.0</ele><time>2026-04-22T10:56:42.127Z</time></trkpt><trkpt lat="42.2151329" lon="11.7755754"><ele>38.0</ele><time>2026-04-22T10:56:43.072Z</time></trkpt><trkpt lat="42.2149441" lon="11.7757887"><ele>38.0</ele><time>2026-04-22T10:56:44.071Z</time></trkpt><trkpt lat="42.2147602" lon="11.7760143"><ele>38.0</ele><time>2026-04-22T10:56:45.079Z</time></trkpt><trkpt lat="42.2145746" lon="11.7762464"><ele>38.0</ele><time>2026-04-22T10:56:46.094Z</time></trkpt><trkpt lat="42.214386" lon="11.7764734"><ele>38.0</ele><time>2026-04-22T10:56:47.118Z</time></trkpt><trkpt lat="42.2142026" lon="11.7767054"><ele>38.0</ele><time>2026-04-22T10:56:48.111Z</time></trkpt><trkpt lat="42.2140225" lon="11.7769345"><ele>38.0</ele><time>2026-04-22T10:56:49.093Z</time></trkpt><trkpt lat="42.213842" lon="11.7771721"><ele>37.0</ele><time>2026-04-22T10:56:50.079Z</time></trkpt><trkpt lat="42.2136605" lon="11.7774033"><ele>36.0</ele><time>2026-04-22T10:56:51.103Z</time></trkpt><trkpt lat="42.2134791" lon="11.777639"><ele>36.0</ele><time>2026-04-22T10:56:52.13Z</time></trkpt><trkpt lat="42.2132948" lon="11.7778846"><ele>36.0</ele><time>2026-04-22T10:56:53.113Z</time></trkpt><trkpt lat="42.2131145" lon="11.7781236"><ele>36.0</ele><time>2026-04-22T10:56:54.1Z</time></trkpt><trkpt lat="42.2129351" lon="11.7783642"><ele>36.0</ele><time>2026-04-22T10:56:55.099Z</time></trkpt><trkpt lat="42.2127558" lon="11.7786"><ele>36.0</ele><time>2026-04-22T10:56:56.103Z</time></trkpt><trkpt lat="42.2125723" lon="11.7788329"><ele>36.0</ele><time>2026-04-22T10:56:57.086Z</time></trkpt><trkpt lat="42.2123948" lon="11.7790669"><ele>37.0</ele><time>2026-04-22T10:56:58.084Z</time></trkpt><trkpt lat="42.2122083" lon="11.7792997"><ele>38.0</ele><time>2026-04-22T10:56:59.11Z</time></trkpt><trkpt lat="42.2120239" lon="11.7795328"><ele>38.0</ele><time>2026-04-22T10:57:00.112Z</time></trkpt><trkpt lat="42.2118388" lon="11.7797579"><ele>38.0</ele><time>2026-04-22T10:57:01.109Z</time></trkpt><trkpt lat="42.2116572" lon="11.7799894"><ele>38.0</ele><time>2026-04-22T10:57:02.111Z</time></trkpt><trkpt lat="42.211464" lon="11.7802173"><ele>38.0</ele><time>2026-04-22T10:57:03.111Z</time></trkpt><trkpt lat="42.211276" lon="11.7804437"><ele>38.0</ele><time>2026-04-22T10:57:04.108Z</time></trkpt><trkpt lat="42.2110785" lon="11.7806544"><ele>38.0</ele><time>2026-04-22T10:57:05.107Z</time></trkpt><trkpt lat="42.2108768" lon="11.7808548"><ele>38.0</ele><time>2026-04-22T10:57:06.079Z</time></trkpt><trkpt lat="42.2106732" lon="11.7810566"><ele>38.0</ele><time>2026-04-22T10:57:07.103Z</time></trkpt><trkpt lat="42.2104668" lon="11.7812608"><ele>38.0</ele><time>2026-04-22T10:57:08.113Z</time></trkpt><trkpt lat="42.210256" lon="11.7814549"><ele>38.0</ele><time>2026-04-22T10:57:09.111Z</time></trkpt><trkpt lat="42.2100487" lon="11.78165"><ele>38.0</ele><time>2026-04-22T10:57:10.121Z</time></trkpt><trkpt lat="42.2098408" lon="11.7818378"><ele>38.0</ele><time>2026-04-22T10:57:11.111Z</time></trkpt><trkpt lat="42.2096322" lon="11.7820189"><ele>36.5</ele><time>2026-04-22T10:57:12.112Z</time></trkpt><trkpt lat="42.2094154" lon="11.7821979"><ele>35.0</ele><time>2026-04-22T10:57:13.095Z</time></trkpt><trkpt lat="42.2091981" lon="11.7823723"><ele>35.0</ele><time>2026-04-22T10:57:14.106Z</time></trkpt><trkpt lat="42.208976" lon="11.7825378"><ele>35.0</ele><time>2026-04-22T10:57:15.109Z</time></trkpt><trkpt lat="42.2087509" lon="11.7827041"><ele>35.5</ele><time>2026-04-22T10:57:16.123Z</time></trkpt><trkpt lat="42.2085301" lon="11.7828618"><ele>36.0</ele><time>2026-04-22T10:57:17.104Z</time></trkpt><trkpt lat="42.2083082" lon="11.7830133"><ele>36.5</ele><time>2026-04-22T10:57:18.086Z</time></trkpt><trkpt lat="42.2080834" lon="11.7831626"><ele>37.0</ele><time>2026-04-22T10:57:19.113Z</time></trkpt><trkpt lat="42.2078531" lon="11.7833115"><ele>37.0</ele><time>2026-04-22T10:57:20.114Z</time></trkpt><trkpt lat="42.2076224" lon="11.7834548"><ele>37.0</ele><time>2026-04-22T10:57:21.096Z</time></trkpt><trkpt lat="42.2073904" lon="11.7835883"><ele>34.5</ele><time>2026-04-22T10:57:22.109Z</time></trkpt><trkpt lat="42.2071612" lon="11.7837115"><ele>32.0</ele><time>2026-04-22T10:57:23.081Z</time></trkpt><trkpt lat="42.2069271" lon="11.7838329"><ele>32.0</ele><time>2026-04-22T10:57:24.109Z</time></trkpt><trkpt lat="42.2066873" lon="11.7839532"><ele>32.0</ele><time>2026-04-22T10:57:25.096Z</time></trkpt><trkpt lat="42.2064522" lon="11.7840692"><ele>33.5</ele><time>2026-04-22T10:57:26.106Z</time></trkpt><trkpt lat="42.2062145" lon="11.7841835"><ele>35.0</ele><time>2026-04-22T10:57:27.114Z</time></trkpt><trkpt lat="42.205976" lon="11.7842939"><ele>27.0</ele><time>2026-04-22T10:57:28.097Z</time></trkpt><trkpt lat="42.2057321" lon="11.7843972"><ele>19.0</ele><time>2026-04-22T10:57:29.092Z</time></trkpt><trkpt lat="42.2054941" lon="11.7844897"><ele>19.0</ele><time>2026-04-22T10:57:30.1Z</time></trkpt><trkpt lat="42.2052507" lon="11.7845714"><ele>19.0</ele><time>2026-04-22T10:57:31.111Z</time></trkpt><trkpt lat="42.2050036" lon="11.7846545"><ele>19.0</ele><time>2026-04-22T10:57:32.109Z</time></trkpt><trkpt lat="42.2047523" lon="11.7847307"><ele>19.0</ele><time>2026-04-22T10:57:33.102Z</time></trkpt><trkpt lat="42.2045083" lon="11.7848088"><ele>19.0</ele><time>2026-04-22T10:57:34.116Z</time></trkpt><trkpt lat="42.2042584" lon="11.7848772"><ele>19.0</ele><time>2026-04-22T10:57:35.103Z</time></trkpt><trkpt lat="42.2040098" lon="11.7849414"><ele>17.5</ele><time>2026-04-22T10:57:36.108Z</time></trkpt><trkpt lat="42.2037593" lon="11.7849958"><ele>16.0</ele><time>2026-04-22T10:57:37.101Z</time></trkpt><trkpt lat="42.203512" lon="11.7850455"><ele>16.0</ele><time>2026-04-22T10:57:38.104Z</time></trkpt><trkpt lat="42.2032649" lon="11.7850982"><ele>16.0</ele><time>2026-04-22T10:57:39.074Z</time></trkpt><trkpt lat="42.2030213" lon="11.785146"><ele>13.0</ele><time>2026-04-22T10:57:40.107Z</time></trkpt><trkpt lat="42.2027709" lon="11.7851807"><ele>10.0</ele><time>2026-04-22T10:57:41.113Z</time></trkpt><trkpt lat="42.202522" lon="11.7852099"><ele>8.5</ele><time>2026-04-22T10:57:42.099Z</time></trkpt><trkpt lat="42.2022698" lon="11.7852418"><ele>7.0</ele><time>2026-04-22T10:57:43.104Z</time></trkpt><trkpt lat="42.2020197" lon="11.7852614"><ele>7.0</ele><time>2026-04-22T10:57:44.109Z</time></trkpt><trkpt lat="42.2017653" lon="11.7852895"><ele>7.0</ele><time>2026-04-22T10:57:45.101Z</time></trkpt><trkpt lat="42.2015141" lon="11.7853242"><ele>7.0</ele><time>2026-04-22T10:57:46.099Z</time></trkpt><trkpt lat="42.2012578" lon="11.7853522"><ele>7.0</ele><time>2026-04-22T10:57:47.106Z</time></trkpt><trkpt lat="42.2010048" lon="11.7853802"><ele>7.0</ele><time>2026-04-22T10:57:48.099Z</time></trkpt><trkpt lat="42.2007533" lon="11.7854045"><ele>7.0</ele><time>2026-04-22T10:57:49.117Z</time></trkpt><trkpt lat="42.2005031" lon="11.7854302"><ele>7.5</ele><time>2026-04-22T10:57:50.083Z</time></trkpt><trkpt lat="42.2002489" lon="11.7854527"><ele>8.0</ele><time>2026-04-22T10:57:51.109Z</time></trkpt><trkpt lat="42.2000007" lon="11.7854831"><ele>7.5</ele><time>2026-04-22T10:57:52.1Z</time></trkpt><trkpt lat="42.1997532" lon="11.7855086"><ele>7.0</ele><time>2026-04-22T10:57:53.11Z</time></trkpt><trkpt lat="42.1994976" lon="11.7855324"><ele>7.0</ele><time>2026-04-22T10:57:54.114Z</time></trkpt><trkpt lat="42.1992455" lon="11.7855512"><ele>7.0</ele><time>2026-04-22T10:57:55.103Z</time></trkpt><trkpt lat="42.1990008" lon="11.7855709"><ele>6.0</ele><time>2026-04-22T10:57:56.095Z</time></trkpt><trkpt lat="42.1987519" lon="11.7856014"><ele>5.0</ele><time>2026-04-22T10:57:57.115Z</time></trkpt><trkpt lat="42.1984977" lon="11.7856274"><ele>5.0</ele><time>2026-04-22T10:57:58.111Z</time></trkpt><trkpt lat="42.1982409" lon="11.7856554"><ele>5.0</ele><time>2026-04-22T10:57:59.109Z</time></trkpt><trkpt lat="42.197986" lon="11.7856773"><ele>5.5</ele><time>2026-04-22T10:58:00.108Z</time></trkpt><trkpt lat="42.1977343" lon="11.7857008"><ele>6.0</ele><time>2026-04-22T10:58:01.1Z</time></trkpt><trkpt lat="42.1974821" lon="11.7857208"><ele>6.0</ele><time>2026-04-22T10:58:02.109Z</time></trkpt><trkpt lat="42.1972307" lon="11.7857408"><ele>6.0</ele><time>2026-04-22T10:58:03.094Z</time></trkpt><trkpt lat="42.1969819" lon="11.7857664"><ele>6.0</ele><time>2026-04-22T10:58:04.128Z</time></trkpt><trkpt lat="42.1967289" lon="11.785787"><ele>6.0</ele><time>2026-04-22T10:58:05.106Z</time></trkpt><trkpt lat="42.1964791" lon="11.7858125"><ele>7.0</ele><time>2026-04-22T10:58:06.11Z</time></trkpt><trkpt lat="42.196227" lon="11.7858379"><ele>8.0</ele><time>2026-04-22T10:58:07.099Z</time></trkpt><trkpt lat="42.1959727" lon="11.7858555"><ele>8.0</ele><time>2026-04-22T10:58:08.106Z</time></trkpt><trkpt lat="42.1957194" lon="11.7858791"><ele>8.0</ele><time>2026-04-22T10:58:09.094Z</time></trkpt><trkpt lat="42.1954693" lon="11.7859075"><ele>6.5</ele><time>2026-04-22T10:58:10.101Z</time></trkpt><trkpt lat="42.1952181" lon="11.7859375"><ele>5.0</ele><time>2026-04-22T10:58:11.115Z</time></trkpt><trkpt lat="42.194972" lon="11.7859602"><ele>5.0</ele><time>2026-04-22T10:58:12.11Z</time></trkpt><trkpt lat="42.1947243" lon="11.7859853"><ele>5.0</ele><time>2026-04-22T10:58:13.127Z</time></trkpt><trkpt lat="42.19447" lon="11.786012"><ele>5.0</ele><time>2026-04-22T10:58:14.103Z</time></trkpt><trkpt lat="42.1942204" lon="11.7860406"><ele>5.0</ele><time>2026-04-22T10:58:15.108Z</time></trkpt><trkpt lat="42.1939671" lon="11.7860681"><ele>5.0</ele><time>2026-04-22T10:58:16.122Z</time></trkpt><trkpt lat="42.1937127" lon="11.7860943"><ele>5.0</ele><time>2026-04-22T10:58:17.11Z</time></trkpt><trkpt lat="42.193459" lon="11.7861178"><ele>5.0</ele><time>2026-04-22T10:58:18.11Z</time></trkpt><trkpt lat="42.1932089" lon="11.7861464"><ele>5.0</ele><time>2026-04-22T10:58:19.113Z</time></trkpt><trkpt lat="42.1929549" lon="11.7861718"><ele>4.5</ele><time>2026-04-22T10:58:20.116Z</time></trkpt><trkpt lat="42.1927018" lon="11.7861985"><ele>4.0</ele><time>2026-04-22T10:58:21.095Z</time></trkpt><trkpt lat="42.1924522" lon="11.786224"><ele>4.5</ele><time>2026-04-22T10:58:22.086Z</time></trkpt><trkpt lat="42.192204" lon="11.7862478"><ele>5.0</ele><time>2026-04-22T10:58:23.112Z</time></trkpt><trkpt lat="42.1919551" lon="11.7862756"><ele>5.0</ele><time>2026-04-22T10:58:24.11Z</time></trkpt><trkpt lat="42.1917046" lon="11.7863017"><ele>5.0</ele><time>2026-04-22T10:58:25.092Z</time></trkpt><trkpt lat="42.1914529" lon="11.7863232"><ele>4.5</ele><time>2026-04-22T10:58:26.125Z</time></trkpt><trkpt lat="42.1912068" lon="11.7863478"><ele>4.0</ele><time>2026-04-22T10:58:27.114Z</time></trkpt><trkpt lat="42.1909556" lon="11.7863687"><ele>4.0</ele><time>2026-04-22T10:58:28.115Z</time></trkpt><trkpt lat="42.1907034" lon="11.7863929"><ele>4.0</ele><time>2026-04-22T10:58:29.123Z</time></trkpt><trkpt lat="42.190448" lon="11.7864193"><ele>4.5</ele><time>2026-04-22T10:58:30.114Z</time></trkpt><trkpt lat="42.1902005" lon="11.7864461"><ele>5.0</ele><time>2026-04-22T10:58:31.101Z</time></trkpt><trkpt lat="42.1899492" lon="11.786472"><ele>6.5</ele><time>2026-04-22T10:58:32.112Z</time></trkpt><trkpt lat="42.1897002" lon="11.7865037"><ele>8.0</ele><time>2026-04-22T10:58:33.116Z</time></trkpt><trkpt lat="42.1894533" lon="11.7865351"><ele>8.0</ele><time>2026-04-22T10:58:34.112Z</time></trkpt><trkpt lat="42.1892022" lon="11.7865565"><ele>8.0</ele><time>2026-04-22T10:58:35.108Z</time></trkpt><trkpt lat="42.1889532" lon="11.7865799"><ele>15.0</ele><time>2026-04-22T10:58:36.107Z</time></trkpt><trkpt lat="42.1887072" lon="11.7866043"><ele>22.0</ele><time>2026-04-22T10:58:37.114Z</time></trkpt><trkpt lat="42.1884576" lon="11.7866336"><ele>22.0</ele><time>2026-04-22T10:58:38.11Z</time></trkpt><trkpt lat="42.188207" lon="11.7866752"><ele>22.0</ele><time>2026-04-22T10:58:39.097Z</time></trkpt><trkpt lat="42.1879558" lon="11.7867184"><ele>25.0</ele><time>2026-04-22T10:58:40.105Z</time></trkpt><trkpt lat="42.187707" lon="11.7867663"><ele>28.0</ele><time>2026-04-22T10:58:41.102Z</time></trkpt><trkpt lat="42.1874581" lon="11.7868297"><ele>31.5</ele><time>2026-04-22T10:58:42.106Z</time></trkpt><trkpt lat="42.1872072" lon="11.7869034"><ele>35.0</ele><time>2026-04-22T10:58:43.11Z</time></trkpt><trkpt lat="42.1869639" lon="11.7869828"><ele>35.0</ele><time>2026-04-22T10:58:44.092Z</time></trkpt><trkpt lat="42.1867251" lon="11.7870813"><ele>35.0</ele><time>2026-04-22T10:58:45.116Z</time></trkpt><trkpt lat="42.1864889" lon="11.7871899"><ele>35.0</ele><time>2026-04-22T10:58:46.113Z</time></trkpt><trkpt lat="42.1862556" lon="11.787312"><ele>35.0</ele><time>2026-04-22T10:58:47.113Z</time></trkpt><trkpt lat="42.1860202" lon="11.787444"><ele>35.0</ele><time>2026-04-22T10:58:48.109Z</time></trkpt><trkpt lat="42.1857858" lon="11.7875755"><ele>35.0</ele><time>2026-04-22T10:58:49.101Z</time></trkpt><trkpt lat="42.1855565" lon="11.7877084"><ele>37.0</ele><time>2026-04-22T10:58:50.117Z</time></trkpt><trkpt lat="42.1853298" lon="11.7878446"><ele>39.0</ele><time>2026-04-22T10:58:51.103Z</time></trkpt><trkpt lat="42.1851034" lon="11.7879908"><ele>39.0</ele><time>2026-04-22T10:58:52.097Z</time></trkpt><trkpt lat="42.1848745" lon="11.788135"><ele>39.0</ele><time>2026-04-22T10:58:53.104Z</time></trkpt><trkpt lat="42.1846457" lon="11.7882753"><ele>39.5</ele><time>2026-04-22T10:58:54.121Z</time></trkpt><trkpt lat="42.1844152" lon="11.78841"><ele>40.0</ele><time>2026-04-22T10:58:55.091Z</time></trkpt><trkpt lat="42.1841783" lon="11.7885436"><ele>40.5</ele><time>2026-04-22T10:58:56.12Z</time></trkpt><trkpt lat="42.1839411" lon="11.7886674"><ele>41.0</ele><time>2026-04-22T10:58:57.117Z</time></trkpt><trkpt lat="42.1837044" lon="11.7887809"><ele>41.0</ele><time>2026-04-22T10:58:58.087Z</time></trkpt><trkpt lat="42.1834615" lon="11.7888752"><ele>41.0</ele><time>2026-04-22T10:58:59.113Z</time></trkpt><trkpt lat="42.1832152" lon="11.7889603"><ele>40.0</ele><time>2026-04-22T10:59:00.116Z</time></trkpt><trkpt lat="42.1829669" lon="11.789026"><ele>39.0</ele><time>2026-04-22T10:59:01.117Z</time></trkpt><trkpt lat="42.1827138" lon="11.7890777"><ele>39.0</ele><time>2026-04-22T10:59:02.103Z</time></trkpt><trkpt lat="42.1824765" lon="11.789073"><ele>39.0</ele><time>2026-04-22T10:59:03.084Z</time></trkpt><trkpt lat="42.1822243" lon="11.7890836"><ele>38.5</ele><time>2026-04-22T10:59:04.081Z</time></trkpt><trkpt lat="42.1819729" lon="11.7890805"><ele>38.0</ele><time>2026-04-22T10:59:05.09Z</time></trkpt><trkpt lat="42.1817201" lon="11.7890599"><ele>36.0</ele><time>2026-04-22T10:59:06.092Z</time></trkpt><trkpt lat="42.1814681" lon="11.7890249"><ele>34.0</ele><time>2026-04-22T10:59:07.089Z</time></trkpt><trkpt lat="42.1812179" lon="11.7889716"><ele>34.0</ele><time>2026-04-22T10:59:08.085Z</time></trkpt><trkpt lat="42.1809714" lon="11.788908"><ele>34.0</ele><time>2026-04-22T10:59:09.097Z</time></trkpt><trkpt lat="42.1807244" lon="11.7888284"><ele>34.5</ele><time>2026-04-22T10:59:10.077Z</time></trkpt><trkpt lat="42.1804841" lon="11.7887346"><ele>35.0</ele><time>2026-04-22T10:59:11.083Z</time></trkpt><trkpt lat="42.1802433" lon="11.788627"><ele>35.0</ele><time>2026-04-22T10:59:12.075Z</time></trkpt><trkpt lat="42.1800028" lon="11.7885183"><ele>35.0</ele><time>2026-04-22T10:59:13.101Z</time></trkpt><trkpt lat="42.1797653" lon="11.7884045"><ele>35.0</ele><time>2026-04-22T10:59:14.117Z</time></trkpt><trkpt lat="42.1795309" lon="11.7882924"><ele>35.0</ele><time>2026-04-22T10:59:15.101Z</time></trkpt><trkpt lat="42.1792911" lon="11.7881744"><ele>35.0</ele><time>2026-04-22T10:59:16.123Z</time></trkpt><trkpt lat="42.1790557" lon="11.7880608"><ele>35.0</ele><time>2026-04-22T10:59:17.109Z</time></trkpt><trkpt lat="42.1788159" lon="11.787951"><ele>37.5</ele><time>2026-04-22T10:59:18.104Z</time></trkpt><trkpt lat="42.1785764" lon="11.787851"><ele>40.0</ele><time>2026-04-22T10:59:19.107Z</time></trkpt><trkpt lat="42.1783336" lon="11.7877559"><ele>39.0</ele><time>2026-04-22T10:59:20.106Z</time></trkpt><trkpt lat="42.1780904" lon="11.7876749"><ele>38.0</ele><time>2026-04-22T10:59:21.104Z</time></trkpt><trkpt lat="42.1778444" lon="11.7876001"><ele>38.0</ele><time>2026-04-22T10:59:22.105Z</time></trkpt><trkpt lat="42.1775949" lon="11.7875422"><ele>38.0</ele><time>2026-04-22T10:59:23.107Z</time></trkpt><trkpt lat="42.1773471" lon="11.7874905"><ele>37.5</ele><time>2026-04-22T10:59:24.099Z</time></trkpt><trkpt lat="42.1770934" lon="11.7874563"><ele>37.0</ele><time>2026-04-22T10:59:25.106Z</time></trkpt><trkpt lat="42.1768431" lon="11.7874273"><ele>37.0</ele><time>2026-04-22T10:59:26.101Z</time></trkpt><trkpt lat="42.1765862" lon="11.787413"><ele>37.0</ele><time>2026-04-22T10:59:27.103Z</time></trkpt><trkpt lat="42.1763352" lon="11.7874071"><ele>36.5</ele><time>2026-04-22T10:59:28.097Z</time></trkpt><trkpt lat="42.1760834" lon="11.7874111"><ele>36.0</ele><time>2026-04-22T10:59:29.1Z</time></trkpt><trkpt lat="42.1758325" lon="11.7874209"><ele>35.5</ele><time>2026-04-22T10:59:30.114Z</time></trkpt><trkpt lat="42.1755785" lon="11.7874378"><ele>35.0</ele><time>2026-04-22T10:59:31.101Z</time></trkpt><trkpt lat="42.1753271" lon="11.7874538"><ele>35.0</ele><time>2026-04-22T10:59:32.111Z</time></trkpt><trkpt lat="42.1750762" lon="11.787476"><ele>35.0</ele><time>2026-04-22T10:59:33.098Z</time></trkpt><trkpt lat="42.1748229" lon="11.7874984"><ele>34.5</ele><time>2026-04-22T10:59:34.118Z</time></trkpt><trkpt lat="42.1745717" lon="11.7875211"><ele>34.0</ele><time>2026-04-22T10:59:35.105Z</time></trkpt><trkpt lat="42.17432" lon="11.787542"><ele>34.0</ele><time>2026-04-22T10:59:36.118Z</time></trkpt><trkpt lat="42.1740757" lon="11.7875681"><ele>34.0</ele><time>2026-04-22T10:59:37.114Z</time></trkpt><trkpt lat="42.1738406" lon="11.7875921"><ele>34.333333333333336</ele><time>2026-04-22T10:59:38.106Z</time></trkpt><trkpt lat="42.1736163" lon="11.7876126"><ele>34.666666666666664</ele><time>2026-04-22T10:59:39.104Z</time></trkpt><trkpt lat="42.1733989" lon="11.7876267"><ele>35.0</ele><time>2026-04-22T10:59:40.092Z</time></trkpt><trkpt lat="42.173192" lon="11.787643"><ele>34.666666666666664</ele><time>2026-04-22T10:59:41.098Z</time></trkpt><trkpt lat="42.1729914" lon="11.787656"><ele>34.333333333333336</ele><time>2026-04-22T10:59:42.099Z</time></trkpt><trkpt lat="42.1728021" lon="11.7876687"><ele>34.0</ele><time>2026-04-22T10:59:43.119Z</time></trkpt><trkpt lat="42.1726156" lon="11.787679"><ele>34.66666666666667</ele><time>2026-04-22T10:59:44.112Z</time></trkpt><trkpt lat="42.172425" lon="11.7876884"><ele>35.333333333333336</ele><time>2026-04-22T10:59:45.11Z</time></trkpt><trkpt lat="42.1722361" lon="11.787697"><ele>36.0</ele><time>2026-04-22T10:59:46.115Z</time></trkpt><trkpt lat="42.1720455" lon="11.7877082"><ele>36.0</ele><time>2026-04-22T10:59:47.093Z</time></trkpt><trkpt lat="42.1718522" lon="11.7877204"><ele>36.0</ele><time>2026-04-22T10:59:48.137Z</time></trkpt><trkpt lat="42.1716606" lon="11.7877343"><ele>36.0</ele><time>2026-04-22T10:59:49.118Z</time></trkpt><trkpt lat="42.1714654" lon="11.7877495"><ele>35.333333333333336</ele><time>2026-04-22T10:59:50.127Z</time></trkpt><trkpt lat="42.1712703" lon="11.7877666"><ele>34.66666666666667</ele><time>2026-04-22T10:59:51.096Z</time></trkpt><trkpt lat="42.1710736" lon="11.787783"><ele>34.0</ele><time>2026-04-22T10:59:52.134Z</time></trkpt><trkpt lat="42.170878" lon="11.7877996"><ele>34.0</ele><time>2026-04-22T10:59:53.113Z</time></trkpt><trkpt lat="42.1706815" lon="11.7878126"><ele>34.0</ele><time>2026-04-22T10:59:54.114Z</time></trkpt><trkpt lat="42.1704834" lon="11.7878226"><ele>34.0</ele><time>2026-04-22T10:59:55.103Z</time></trkpt><trkpt lat="42.1702839" lon="11.7878334"><ele>34.0</ele><time>2026-04-22T10:59:56.112Z</time></trkpt><trkpt lat="42.1700846" lon="11.7878402"><ele>34.0</ele><time>2026-04-22T10:59:57.107Z</time></trkpt><trkpt lat="42.1698872" lon="11.7878444"><ele>34.0</ele><time>2026-04-22T10:59:58.113Z</time></trkpt><trkpt lat="42.1696895" lon="11.7878428"><ele>33.66666666666667</ele><time>2026-04-22T10:59:59.097Z</time></trkpt><trkpt lat="42.1694966" lon="11.7878423"><ele>33.333333333333336</ele><time>2026-04-22T11:00:00.1Z</time></trkpt><trkpt lat="42.1693045" lon="11.787848"><ele>33.0</ele><time>2026-04-22T11:00:01.108Z</time></trkpt><trkpt lat="42.1691177" lon="11.7878538"><ele>33.666666666666664</ele><time>2026-04-22T11:00:02.109Z</time></trkpt><trkpt lat="42.1689308" lon="11.7878645"><ele>34.33333333333333</ele><time>2026-04-22T11:00:03.097Z</time></trkpt><trkpt lat="42.1687418" lon="11.7878774"><ele>35.0</ele><time>2026-04-22T11:00:04.117Z</time></trkpt><trkpt lat="42.1685555" lon="11.7878939"><ele>35.0</ele><time>2026-04-22T11:00:05.107Z</time></trkpt><trkpt lat="42.1683656" lon="11.787907"><ele>35.0</ele><time>2026-04-22T11:00:06.087Z</time></trkpt><trkpt lat="42.1681802" lon="11.7879196"><ele>35.0</ele><time>2026-04-22T11:00:07.109Z</time></trkpt><trkpt lat="42.1679936" lon="11.7879346"><ele>36.0</ele><time>2026-04-22T11:00:08.114Z</time></trkpt><trkpt lat="42.1678092" lon="11.7879526"><ele>37.0</ele><time>2026-04-22T11:00:09.103Z</time></trkpt><trkpt lat="42.1676215" lon="11.7879672"><ele>38.0</ele><time>2026-04-22T11:00:10.106Z</time></trkpt><trkpt lat="42.1674325" lon="11.7879801"><ele>37.0</ele><time>2026-04-22T11:00:11.122Z</time></trkpt><trkpt lat="42.1672438" lon="11.7879959"><ele>36.0</ele><time>2026-04-22T11:00:12.084Z</time></trkpt><trkpt lat="42.1670553" lon="11.7880137"><ele>35.0</ele><time>2026-04-22T11:00:13.111Z</time></trkpt><trkpt lat="42.1668651" lon="11.7880294"><ele>35.0</ele><time>2026-04-22T11:00:14.111Z</time></trkpt><trkpt lat="42.1666732" lon="11.7880462"><ele>35.0</ele><time>2026-04-22T11:00:15.106Z</time></trkpt><trkpt lat="42.166482" lon="11.7880605"><ele>35.0</ele><time>2026-04-22T11:00:16.117Z</time></trkpt><trkpt lat="42.16629" lon="11.7880729"><ele>35.0</ele><time>2026-04-22T11:00:17.114Z</time></trkpt><trkpt lat="42.1660947" lon="11.7880845"><ele>35.0</ele><time>2026-04-22T11:00:18.107Z</time></trkpt><trkpt lat="42.1658955" lon="11.7881027"><ele>35.0</ele><time>2026-04-22T11:00:19.116Z</time></trkpt><trkpt lat="42.1656941" lon="11.7881204"><ele>34.666666666666664</ele><time>2026-04-22T11:00:20.11Z</time></trkpt><trkpt lat="42.1654922" lon="11.7881368"><ele>34.333333333333336</ele><time>2026-04-22T11:00:21.111Z</time></trkpt><trkpt lat="42.1652957" lon="11.788151"><ele>34.0</ele><time>2026-04-22T11:00:22.11Z</time></trkpt><trkpt lat="42.1651071" lon="11.7881596"><ele>34.0</ele><time>2026-04-22T11:00:23.109Z</time></trkpt><trkpt lat="42.1649279" lon="11.7881719"><ele>34.0</ele><time>2026-04-22T11:00:24.095Z</time></trkpt><trkpt lat="42.1647568" lon="11.7881893"><ele>34.0</ele><time>2026-04-22T11:00:25.092Z</time></trkpt><trkpt lat="42.1646036" lon="11.7882137"><ele>33.75</ele><time>2026-04-22T11:00:26.091Z</time></trkpt><trkpt lat="42.1644739" lon="11.7882416"><ele>33.5</ele><time>2026-04-22T11:00:27.119Z</time></trkpt><trkpt lat="42.1643566" lon="11.7882784"><ele>33.25</ele><time>2026-04-22T11:00:28.121Z</time></trkpt><trkpt lat="42.1642507" lon="11.7882952"><ele>33.0</ele><time>2026-04-22T11:00:29.102Z</time></trkpt><trkpt lat="42.1641347" lon="11.788314"><ele>33.5</ele><time>2026-04-22T11:00:30.098Z</time></trkpt><trkpt lat="42.1640018" lon="11.7883291"><ele>34.0</ele><time>2026-04-22T11:00:31.113Z</time></trkpt><trkpt lat="42.1638744" lon="11.7883342"><ele>34.5</ele><time>2026-04-22T11:00:32.111Z</time></trkpt><trkpt lat="42.1637549" lon="11.7883261"><ele>35.0</ele><time>2026-04-22T11:00:33.108Z</time></trkpt><trkpt lat="42.1636444" lon="11.7883079"><ele>35.0</ele><time>2026-04-22T11:00:34.103Z</time></trkpt><trkpt lat="42.163553" lon="11.7882489"><ele>35.0</ele><time>2026-04-22T11:00:35.106Z</time></trkpt><trkpt lat="42.1634719" lon="11.788152"><ele>35.0</ele><time>2026-04-22T11:00:36.103Z</time></trkpt><trkpt lat="42.1633859" lon="11.7880323"><ele>35.0</ele><time>2026-04-22T11:00:37.109Z</time></trkpt><trkpt lat="42.1632967" lon="11.7879304"><ele>35.0</ele><time>2026-04-22T11:00:38.109Z</time></trkpt><trkpt lat="42.1631982" lon="11.7878466"><ele>35.0</ele><time>2026-04-22T11:00:39.087Z</time></trkpt><trkpt lat="42.1630895" lon="11.7877908"><ele>35.0</ele><time>2026-04-22T11:00:40.101Z</time></trkpt><trkpt lat="42.1629703" lon="11.7877629"><ele>35.0</ele><time>2026-04-22T11:00:41.094Z</time></trkpt><trkpt lat="42.16284" lon="11.7877715"><ele>35.25</ele><time>2026-04-22T11:00:42.106Z</time></trkpt><trkpt lat="42.162691" lon="11.7878272"><ele>35.5</ele><time>2026-04-22T11:00:43.121Z</time></trkpt><trkpt lat="42.1625501" lon="11.7879032"><ele>35.75</ele><time>2026-04-22T11:00:44.101Z</time></trkpt><trkpt lat="42.1624226" lon="11.7879885"><ele>36.0</ele><time>2026-04-22T11:00:45.109Z</time></trkpt><trkpt lat="42.1622922" lon="11.7880768"><ele>36.0</ele><time>2026-04-22T11:00:46.108Z</time></trkpt><trkpt lat="42.1621594" lon="11.7881681"><ele>36.0</ele><time>2026-04-22T11:00:47.104Z</time></trkpt><trkpt lat="42.162025" lon="11.7882655"><ele>36.0</ele><time>2026-04-22T11:00:48.092Z</time></trkpt><trkpt lat="42.1618758" lon="11.7883588"><ele>36.0</ele><time>2026-04-22T11:00:49.094Z</time></trkpt><trkpt lat="42.1617165" lon="11.7884291"><ele>36.0</ele><time>2026-04-22T11:00:50.094Z</time></trkpt><trkpt lat="42.1615473" lon="11.7884834"><ele>36.0</ele><time>2026-04-22T11:00:51.094Z</time></trkpt><trkpt lat="42.1613754" lon="11.7885196"><ele>34.666666666666664</ele><time>2026-04-22T11:00:52.102Z</time></trkpt><trkpt lat="42.1612006" lon="11.7885453"><ele>33.33333333333333</ele><time>2026-04-22T11:00:53.118Z</time></trkpt><trkpt lat="42.1610253" lon="11.7885649"><ele>32.0</ele><time>2026-04-22T11:00:54.112Z</time></trkpt><trkpt lat="42.1608476" lon="11.7885858"><ele>30.0</ele><time>2026-04-22T11:00:55.104Z</time></trkpt><trkpt lat="42.1606667" lon="11.7886084"><ele>28.0</ele><time>2026-04-22T11:00:56.122Z</time></trkpt><trkpt lat="42.1604757" lon="11.7886378"><ele>26.0</ele><time>2026-04-22T11:00:57.123Z</time></trkpt><trkpt lat="42.1602736" lon="11.7886715"><ele>26.0</ele><time>2026-04-22T11:00:58.092Z</time></trkpt><trkpt lat="42.1600677" lon="11.788711"><ele>26.0</ele><time>2026-04-22T11:00:59.13Z</time></trkpt><trkpt lat="42.1598728" lon="11.7887462"><ele>26.0</ele><time>2026-04-22T11:01:00.101Z</time></trkpt><trkpt lat="42.1596654" lon="11.7887878"><ele>26.5</ele><time>2026-04-22T11:01:01.108Z</time></trkpt><trkpt lat="42.1594478" lon="11.7888432"><ele>27.0</ele><time>2026-04-22T11:01:02.116Z</time></trkpt><trkpt lat="42.1592238" lon="11.7889075"><ele>30.5</ele><time>2026-04-22T11:01:03.125Z</time></trkpt><trkpt lat="42.1589975" lon="11.7889777"><ele>34.0</ele><time>2026-04-22T11:01:04.118Z</time></trkpt><trkpt lat="42.158774" lon="11.7890453"><ele>34.0</ele><time>2026-04-22T11:01:05.109Z</time></trkpt><trkpt lat="42.1585548" lon="11.7891091"><ele>34.0</ele><time>2026-04-22T11:01:06.104Z</time></trkpt><trkpt lat="42.1583299" lon="11.7891772"><ele>36.0</ele><time>2026-04-22T11:01:07.105Z</time></trkpt><trkpt lat="42.1581096" lon="11.7892485"><ele>38.0</ele><time>2026-04-22T11:01:08.113Z</time></trkpt><trkpt lat="42.1578909" lon="11.7893196"><ele>37.33333333333333</ele><time>2026-04-22T11:01:09.101Z</time></trkpt><trkpt lat="42.1576761" lon="11.7893888"><ele>36.666666666666664</ele><time>2026-04-22T11:01:10.098Z</time></trkpt><trkpt lat="42.1574594" lon="11.7894605"><ele>36.0</ele><time>2026-04-22T11:01:11.106Z</time></trkpt><trkpt lat="42.1572432" lon="11.7895377"><ele>37.333333333333336</ele><time>2026-04-22T11:01:12.132Z</time></trkpt><trkpt lat="42.1570314" lon="11.7896185"><ele>38.66666666666667</ele><time>2026-04-22T11:01:13.121Z</time></trkpt><trkpt lat="42.1568201" lon="11.7897061"><ele>40.0</ele><time>2026-04-22T11:01:14.102Z</time></trkpt><trkpt lat="42.1566105" lon="11.7897986"><ele>41.0</ele><time>2026-04-22T11:01:15.114Z</time></trkpt><trkpt lat="42.1564121" lon="11.78989"><ele>42.0</ele><time>2026-04-22T11:01:16.121Z</time></trkpt><trkpt lat="42.1562114" lon="11.7899848"><ele>43.0</ele><time>2026-04-22T11:01:17.115Z</time></trkpt><trkpt lat="42.1560161" lon="11.7900836"><ele>43.66666666666667</ele><time>2026-04-22T11:01:18.111Z</time></trkpt><trkpt lat="42.1558231" lon="11.7901838"><ele>44.333333333333336</ele><time>2026-04-22T11:01:19.109Z</time></trkpt><trkpt lat="42.1556341" lon="11.790281"><ele>45.0</ele><time>2026-04-22T11:01:20.088Z</time></trkpt><trkpt lat="42.1554364" lon="11.7903728"><ele>45.0</ele><time>2026-04-22T11:01:21.104Z</time></trkpt><trkpt lat="42.1552439" lon="11.7904675"><ele>45.0</ele><time>2026-04-22T11:01:22.109Z</time></trkpt><trkpt lat="42.1550458" lon="11.7905617"><ele>45.0</ele><time>2026-04-22T11:01:23.11Z</time></trkpt><trkpt lat="42.154847" lon="11.7906633"><ele>45.333333333333336</ele><time>2026-04-22T11:01:24.116Z</time></trkpt><trkpt lat="42.1546455" lon="11.7907659"><ele>45.66666666666667</ele><time>2026-04-22T11:01:25.099Z</time></trkpt><trkpt lat="42.1544472" lon="11.7908655"><ele>46.0</ele><time>2026-04-22T11:01:26.103Z</time></trkpt><trkpt lat="42.1542508" lon="11.7909602"><ele>45.66666666666667</ele><time>2026-04-22T11:01:27.092Z</time></trkpt><trkpt lat="42.1540534" lon="11.7910545"><ele>45.333333333333336</ele><time>2026-04-22T11:01:28.079Z</time></trkpt><trkpt lat="42.1538612" lon="11.7911511"><ele>45.0</ele><time>2026-04-22T11:01:29.106Z</time></trkpt><trkpt lat="42.1536613" lon="11.791244"><ele>45.0</ele><time>2026-04-22T11:01:30.091Z</time></trkpt><trkpt lat="42.1534585" lon="11.7913337"><ele>45.0</ele><time>2026-04-22T11:01:31.108Z</time></trkpt><trkpt lat="42.1532605" lon="11.7914091"><ele>45.0</ele><time>2026-04-22T11:01:32.104Z</time></trkpt><trkpt lat="42.1530539" lon="11.7914799"><ele>45.0</ele><time>2026-04-22T11:01:33.102Z</time></trkpt><trkpt lat="42.1528472" lon="11.7915406"><ele>45.0</ele><time>2026-04-22T11:01:34.102Z</time></trkpt><trkpt lat="42.1526404" lon="11.7915914"><ele>45.0</ele><time>2026-04-22T11:01:35.091Z</time></trkpt><trkpt lat="42.1524338" lon="11.7916301"><ele>43.0</ele><time>2026-04-22T11:01:36.101Z</time></trkpt><trkpt lat="42.1522225" lon="11.7916594"><ele>41.0</ele><time>2026-04-22T11:01:37.096Z</time></trkpt><trkpt lat="42.1520031" lon="11.7916819"><ele>39.0</ele><time>2026-04-22T11:01:38.112Z</time></trkpt><trkpt lat="42.151783" lon="11.7916977"><ele>39.0</ele><time>2026-04-22T11:01:39.134Z</time></trkpt><trkpt lat="42.1515558" lon="11.7917035"><ele>39.0</ele><time>2026-04-22T11:01:40.112Z</time></trkpt><trkpt lat="42.1513279" lon="11.7916964"><ele>38.5</ele><time>2026-04-22T11:01:41.13Z</time></trkpt><trkpt lat="42.1510979" lon="11.7916909"><ele>38.0</ele><time>2026-04-22T11:01:42.117Z</time></trkpt><trkpt lat="42.1508666" lon="11.7916849"><ele>32.5</ele><time>2026-04-22T11:01:43.111Z</time></trkpt><trkpt lat="42.1506369" lon="11.7916812"><ele>27.0</ele><time>2026-04-22T11:01:44.118Z</time></trkpt><trkpt lat="42.1504073" lon="11.7916785"><ele>27.0</ele><time>2026-04-22T11:01:45.118Z</time></trkpt><trkpt lat="42.1501782" lon="11.7916749"><ele>27.0</ele><time>2026-04-22T11:01:46.118Z</time></trkpt><trkpt lat="42.1499518" lon="11.7916671"><ele>27.5</ele><time>2026-04-22T11:01:47.119Z</time></trkpt><trkpt lat="42.1497267" lon="11.7916636"><ele>28.0</ele><time>2026-04-22T11:01:48.128Z</time></trkpt><trkpt lat="42.1494996" lon="11.7916556"><ele>28.0</ele><time>2026-04-22T11:01:49.111Z</time></trkpt><trkpt lat="42.1492771" lon="11.7916521"><ele>28.0</ele><time>2026-04-22T11:01:50.089Z</time></trkpt><trkpt lat="42.1490582" lon="11.7916443"><ele>28.0</ele><time>2026-04-22T11:01:51.106Z</time></trkpt><trkpt lat="42.1488392" lon="11.791642"><ele>32.5</ele><time>2026-04-22T11:01:52.116Z</time></trkpt><trkpt lat="42.1486153" lon="11.7916396"><ele>37.0</ele><time>2026-04-22T11:01:53.105Z</time></trkpt><trkpt lat="42.1483892" lon="11.7916398"><ele>41.5</ele><time>2026-04-22T11:01:54.11Z</time></trkpt><trkpt lat="42.1481618" lon="11.7916367"><ele>46.0</ele><time>2026-04-22T11:01:55.095Z</time></trkpt><trkpt lat="42.1479342" lon="11.7916351"><ele>46.0</ele><time>2026-04-22T11:01:56.114Z</time></trkpt><trkpt lat="42.1477097" lon="11.791634"><ele>46.0</ele><time>2026-04-22T11:01:57.096Z</time></trkpt><trkpt lat="42.1474837" lon="11.7916327"><ele>46.66666666666667</ele><time>2026-04-22T11:01:58.112Z</time></trkpt><trkpt lat="42.147257" lon="11.7916365"><ele>47.333333333333336</ele><time>2026-04-22T11:01:59.095Z</time></trkpt><trkpt lat="42.1470357" lon="11.7916499"><ele>48.0</ele><time>2026-04-22T11:02:00.097Z</time></trkpt><trkpt lat="42.1468201" lon="11.7916689"><ele>48.0</ele><time>2026-04-22T11:02:01.105Z</time></trkpt><trkpt lat="42.1466081" lon="11.7916922"><ele>48.0</ele><time>2026-04-22T11:02:02.114Z</time></trkpt><trkpt lat="42.1463995" lon="11.7917177"><ele>48.0</ele><time>2026-04-22T11:02:03.112Z</time></trkpt><trkpt lat="42.1461961" lon="11.7917483"><ele>47.333333333333336</ele><time>2026-04-22T11:02:04.112Z</time></trkpt><trkpt lat="42.1459943" lon="11.7917896"><ele>46.66666666666667</ele><time>2026-04-22T11:02:05.105Z</time></trkpt><trkpt lat="42.1457937" lon="11.7918403"><ele>46.0</ele><time>2026-04-22T11:02:06.107Z</time></trkpt><trkpt lat="42.1456092" lon="11.7918996"><ele>48.66666666666667</ele><time>2026-04-22T11:02:07.103Z</time></trkpt><trkpt lat="42.1454344" lon="11.7919639"><ele>51.333333333333336</ele><time>2026-04-22T11:02:08.111Z</time></trkpt><trkpt lat="42.1452688" lon="11.792027"><ele>54.0</ele><time>2026-04-22T11:02:09.115Z</time></trkpt><trkpt lat="42.1451081" lon="11.7920884"><ele>54.0</ele><time>2026-04-22T11:02:10.119Z</time></trkpt><trkpt lat="42.1449445" lon="11.7921507"><ele>54.0</ele><time>2026-04-22T11:02:11.11Z</time></trkpt><trkpt lat="42.1447813" lon="11.792215"><ele>54.0</ele><time>2026-04-22T11:02:12.116Z</time></trkpt><trkpt lat="42.1446143" lon="11.7922769"><ele>53.66666666666667</ele><time>2026-04-22T11:02:13.104Z</time></trkpt><trkpt lat="42.144453" lon="11.7923446"><ele>53.333333333333336</ele><time>2026-04-22T11:02:14.087Z</time></trkpt><trkpt lat="42.1442918" lon="11.7924117"><ele>53.0</ele><time>2026-04-22T11:02:15.093Z</time></trkpt><trkpt lat="42.1441133" lon="11.7924842"><ele>53.66666666666667</ele><time>2026-04-22T11:02:16.102Z</time></trkpt><trkpt lat="42.1439266" lon="11.7925578"><ele>54.33333333333333</ele><time>2026-04-22T11:02:17.113Z</time></trkpt><trkpt lat="42.1437308" lon="11.7926333"><ele>55.0</ele><time>2026-04-22T11:02:18.106Z</time></trkpt><trkpt lat="42.1435295" lon="11.792711"><ele>56.0</ele><time>2026-04-22T11:02:19.106Z</time></trkpt><trkpt lat="42.1433207" lon="11.7927895"><ele>57.0</ele><time>2026-04-22T11:02:20.107Z</time></trkpt><trkpt lat="42.143109" lon="11.7928733"><ele>58.0</ele><time>2026-04-22T11:02:21.107Z</time></trkpt><trkpt lat="42.1428916" lon="11.7929601"><ele>60.0</ele><time>2026-04-22T11:02:22.126Z</time></trkpt><trkpt lat="42.1426728" lon="11.7930491"><ele>62.0</ele><time>2026-04-22T11:02:23.107Z</time></trkpt><trkpt lat="42.1424552" lon="11.793139"><ele>63.0</ele><time>2026-04-22T11:02:24.113Z</time></trkpt><trkpt lat="42.1422351" lon="11.7932255"><ele>64.0</ele><time>2026-04-22T11:02:25.096Z</time></trkpt><trkpt lat="42.1420112" lon="11.7933121"><ele>64.0</ele><time>2026-04-22T11:02:26.106Z</time></trkpt><trkpt lat="42.1417869" lon="11.7934008"><ele>64.0</ele><time>2026-04-22T11:02:27.106Z</time></trkpt><trkpt lat="42.141558" lon="11.7934913"><ele>66.0</ele><time>2026-04-22T11:02:28.116Z</time></trkpt><trkpt lat="42.1413244" lon="11.7935827"><ele>68.0</ele><time>2026-04-22T11:02:29.099Z</time></trkpt><trkpt lat="42.1410889" lon="11.7936761"><ele>68.0</ele><time>2026-04-22T11:02:30.126Z</time></trkpt><trkpt lat="42.1408516" lon="11.7937688"><ele>68.0</ele><time>2026-04-22T11:02:31.1Z</time></trkpt><trkpt lat="42.140617" lon="11.7938597"><ele>69.0</ele><time>2026-04-22T11:02:32.104Z</time></trkpt><trkpt lat="42.1403808" lon="11.7939461"><ele>70.0</ele><time>2026-04-22T11:02:33.116Z</time></trkpt><trkpt lat="42.1401456" lon="11.794024"><ele>70.0</ele><time>2026-04-22T11:02:34.119Z</time></trkpt><trkpt lat="42.139909" lon="11.7941007"><ele>70.0</ele><time>2026-04-22T11:02:35.108Z</time></trkpt><trkpt lat="42.1396713" lon="11.7941877"><ele>71.5</ele><time>2026-04-22T11:02:36.084Z</time></trkpt><trkpt lat="42.1394377" lon="11.7942759"><ele>73.0</ele><time>2026-04-22T11:02:37.124Z</time></trkpt><trkpt lat="42.1392061" lon="11.7943676"><ele>78.0</ele><time>2026-04-22T11:02:38.129Z</time></trkpt><trkpt lat="42.1389705" lon="11.7944579"><ele>83.0</ele><time>2026-04-22T11:02:39.107Z</time></trkpt><trkpt lat="42.1387395" lon="11.794552"><ele>83.0</ele><time>2026-04-22T11:02:40.115Z</time></trkpt><trkpt lat="42.1385053" lon="11.7946354"><ele>83.0</ele><time>2026-04-22T11:02:41.121Z</time></trkpt><trkpt lat="42.1382707" lon="11.7947193"><ele>85.0</ele><time>2026-04-22T11:02:42.118Z</time></trkpt><trkpt lat="42.1380321" lon="11.7947862"><ele>87.0</ele><time>2026-04-22T11:02:43.114Z</time></trkpt><trkpt lat="42.1377928" lon="11.7948501"><ele>87.0</ele><time>2026-04-22T11:02:44.128Z</time></trkpt><trkpt lat="42.1375448" lon="11.7948997"><ele>87.0</ele><time>2026-04-22T11:02:45.108Z</time></trkpt><trkpt lat="42.1373047" lon="11.7949399"><ele>89.0</ele><time>2026-04-22T11:02:46.092Z</time></trkpt><trkpt lat="42.1370604" lon="11.7949644"><ele>91.0</ele><time>2026-04-22T11:02:47.116Z</time></trkpt><trkpt lat="42.1368172" lon="11.7949774"><ele>91.0</ele><time>2026-04-22T11:02:48.125Z</time></trkpt><trkpt lat="42.1365713" lon="11.7949711"><ele>91.0</ele><time>2026-04-22T11:02:49.119Z</time></trkpt><trkpt lat="42.1363265" lon="11.7949538"><ele>92.0</ele><time>2026-04-22T11:02:50.102Z</time></trkpt><trkpt lat="42.136082" lon="11.7949228"><ele>93.0</ele><time>2026-04-22T11:02:51.098Z</time></trkpt><trkpt lat="42.1358394" lon="11.7948818"><ele>93.5</ele><time>2026-04-22T11:02:52.11Z</time></trkpt><trkpt lat="42.1355976" lon="11.7948221"><ele>94.0</ele><time>2026-04-22T11:02:53.107Z</time></trkpt><trkpt lat="42.1353599" lon="11.7947548"><ele>94.0</ele><time>2026-04-22T11:02:54.115Z</time></trkpt><trkpt lat="42.1351212" lon="11.7946753"><ele>94.0</ele><time>2026-04-22T11:02:55.113Z</time></trkpt><trkpt lat="42.1348839" lon="11.7945937"><ele>95.0</ele><time>2026-04-22T11:02:56.093Z</time></trkpt><trkpt lat="42.1346436" lon="11.7945049"><ele>96.0</ele><time>2026-04-22T11:02:57.109Z</time></trkpt><trkpt lat="42.1344076" lon="11.7944174"><ele>94.5</ele><time>2026-04-22T11:02:58.103Z</time></trkpt><trkpt lat="42.1341704" lon="11.7943301"><ele>93.0</ele><time>2026-04-22T11:02:59.126Z</time></trkpt><trkpt lat="42.1339337" lon="11.7942427"><ele>93.0</ele><time>2026-04-22T11:03:00.107Z</time></trkpt><trkpt lat="42.1336951" lon="11.7941548"><ele>93.0</ele><time>2026-04-22T11:03:01.101Z</time></trkpt><trkpt lat="42.1334575" lon="11.7940697"><ele>92.0</ele><time>2026-04-22T11:03:02.108Z</time></trkpt><trkpt lat="42.1332218" lon="11.7939834"><ele>91.0</ele><time>2026-04-22T11:03:03.105Z</time></trkpt><trkpt lat="42.1329851" lon="11.7938988"><ele>91.0</ele><time>2026-04-22T11:03:04.11Z</time></trkpt><trkpt lat="42.1327503" lon="11.7938109"><ele>91.0</ele><time>2026-04-22T11:03:05.098Z</time></trkpt><trkpt lat="42.1325119" lon="11.7937199"><ele>91.0</ele><time>2026-04-22T11:03:06.102Z</time></trkpt><trkpt lat="42.1322758" lon="11.7936301"><ele>91.0</ele><time>2026-04-22T11:03:07.111Z</time></trkpt><trkpt lat="42.1320395" lon="11.7935409"><ele>89.0</ele><time>2026-04-22T11:03:08.11Z</time></trkpt><trkpt lat="42.1318016" lon="11.7934536"><ele>87.0</ele><time>2026-04-22T11:03:09.11Z</time></trkpt><trkpt lat="42.131565" lon="11.7933648"><ele>85.0</ele><time>2026-04-22T11:03:10.11Z</time></trkpt><trkpt lat="42.1313288" lon="11.7932807"><ele>83.0</ele><time>2026-04-22T11:03:11.104Z</time></trkpt><trkpt lat="42.131092" lon="11.7931921"><ele>83.0</ele><time>2026-04-22T11:03:12.116Z</time></trkpt><trkpt lat="42.1308559" lon="11.7931052"><ele>83.0</ele><time>2026-04-22T11:03:13.111Z</time></trkpt><trkpt lat="42.1306185" lon="11.7930181"><ele>82.0</ele><time>2026-04-22T11:03:14.107Z</time></trkpt><trkpt lat="42.1303814" lon="11.7929351"><ele>81.0</ele><time>2026-04-22T11:03:15.113Z</time></trkpt><trkpt lat="42.1301452" lon="11.7928463"><ele>81.0</ele><time>2026-04-22T11:03:16.111Z</time></trkpt><trkpt lat="42.1299094" lon="11.7927609"><ele>81.0</ele><time>2026-04-22T11:03:17.116Z</time></trkpt><trkpt lat="42.1296723" lon="11.7926711"><ele>75.5</ele><time>2026-04-22T11:03:18.11Z</time></trkpt><trkpt lat="42.129437" lon="11.7925801"><ele>70.0</ele><time>2026-04-22T11:03:19.104Z</time></trkpt><trkpt lat="42.1291995" lon="11.7924908"><ele>69.0</ele><time>2026-04-22T11:03:20.108Z</time></trkpt><trkpt lat="42.128962" lon="11.7924066"><ele>68.0</ele><time>2026-04-22T11:03:21.138Z</time></trkpt><trkpt lat="42.1287269" lon="11.7923209"><ele>68.0</ele><time>2026-04-22T11:03:22.11Z</time></trkpt><trkpt lat="42.1284923" lon="11.7922337"><ele>68.0</ele><time>2026-04-22T11:03:23.111Z</time></trkpt><trkpt lat="42.1282547" lon="11.7921464"><ele>65.0</ele><time>2026-04-22T11:03:24.099Z</time></trkpt><trkpt lat="42.128016" lon="11.7920572"><ele>62.0</ele><time>2026-04-22T11:03:25.101Z</time></trkpt><trkpt lat="42.1277773" lon="11.7919713"><ele>62.0</ele><time>2026-04-22T11:03:26.118Z</time></trkpt><trkpt lat="42.1275458" lon="11.7918867"><ele>62.0</ele><time>2026-04-22T11:03:27.112Z</time></trkpt><trkpt lat="42.1273243" lon="11.7918069"><ele>61.0</ele><time>2026-04-22T11:03:28.127Z</time></trkpt><trkpt lat="42.1271014" lon="11.7917244"><ele>60.0</ele><time>2026-04-22T11:03:29.119Z</time></trkpt><trkpt lat="42.1268813" lon="11.7916467"><ele>60.0</ele><time>2026-04-22T11:03:30.103Z</time></trkpt><trkpt lat="42.1266611" lon="11.7915662"><ele>60.0</ele><time>2026-04-22T11:03:31.097Z</time></trkpt><trkpt lat="42.1264405" lon="11.791488"><ele>60.0</ele><time>2026-04-22T11:03:32.106Z</time></trkpt><trkpt lat="42.1262145" lon="11.791413"><ele>60.0</ele><time>2026-04-22T11:03:33.119Z</time></trkpt><trkpt lat="42.1259877" lon="11.791349"><ele>60.0</ele><time>2026-04-22T11:03:34.115Z</time></trkpt><trkpt lat="42.1257554" lon="11.7912843"><ele>60.0</ele><time>2026-04-22T11:03:35.117Z</time></trkpt><trkpt lat="42.1255226" lon="11.7912275"><ele>58.0</ele><time>2026-04-22T11:03:36.117Z</time></trkpt><trkpt lat="42.1252911" lon="11.7911698"><ele>56.0</ele><time>2026-04-22T11:03:37.113Z</time></trkpt><trkpt lat="42.1250553" lon="11.7911176"><ele>56.0</ele><time>2026-04-22T11:03:38.107Z</time></trkpt><trkpt lat="42.1248185" lon="11.7910728"><ele>56.0</ele><time>2026-04-22T11:03:39.098Z</time></trkpt><trkpt lat="42.1245809" lon="11.7910327"><ele>56.5</ele><time>2026-04-22T11:03:40.094Z</time></trkpt><trkpt lat="42.124343" lon="11.7909955"><ele>57.0</ele><time>2026-04-22T11:03:41.11Z</time></trkpt><trkpt lat="42.1241023" lon="11.7909597"><ele>55.0</ele><time>2026-04-22T11:03:42.115Z</time></trkpt><trkpt lat="42.1238618" lon="11.7909306"><ele>53.0</ele><time>2026-04-22T11:03:43.092Z</time></trkpt><trkpt lat="42.1236194" lon="11.790901"><ele>53.0</ele><time>2026-04-22T11:03:44.107Z</time></trkpt><trkpt lat="42.1233801" lon="11.7908796"><ele>53.0</ele><time>2026-04-22T11:03:45.114Z</time></trkpt><trkpt lat="42.1231393" lon="11.7908617"><ele>47.5</ele><time>2026-04-22T11:03:46.119Z</time></trkpt><trkpt lat="42.1229016" lon="11.7908514"><ele>42.0</ele><time>2026-04-22T11:03:47.109Z</time></trkpt><trkpt lat="42.1226677" lon="11.7908399"><ele>42.0</ele><time>2026-04-22T11:03:48.111Z</time></trkpt><trkpt lat="42.1224335" lon="11.7908312"><ele>42.0</ele><time>2026-04-22T11:03:49.114Z</time></trkpt><trkpt lat="42.1222013" lon="11.7908281"><ele>38.5</ele><time>2026-04-22T11:03:50.108Z</time></trkpt><trkpt lat="42.1219716" lon="11.7908305"><ele>35.0</ele><time>2026-04-22T11:03:51.107Z</time></trkpt><trkpt lat="42.1217421" lon="11.790839"><ele>39.0</ele><time>2026-04-22T11:03:52.135Z</time></trkpt><trkpt lat="42.1215116" lon="11.7908527"><ele>43.0</ele><time>2026-04-22T11:03:53.119Z</time></trkpt><trkpt lat="42.1212789" lon="11.7908715"><ele>43.0</ele><time>2026-04-22T11:03:54.104Z</time></trkpt><trkpt lat="42.1210435" lon="11.7908943"><ele>43.0</ele><time>2026-04-22T11:03:55.095Z</time></trkpt><trkpt lat="42.1208047" lon="11.7909199"><ele>45.0</ele><time>2026-04-22T11:03:56.118Z</time></trkpt><trkpt lat="42.1205603" lon="11.7909492"><ele>47.0</ele><time>2026-04-22T11:03:57.107Z</time></trkpt><trkpt lat="42.1203155" lon="11.7909819"><ele>45.0</ele><time>2026-04-22T11:03:58.099Z</time></trkpt><trkpt lat="42.1200706" lon="11.7910202"><ele>43.0</ele><time>2026-04-22T11:03:59.118Z</time></trkpt><trkpt lat="42.1198269" lon="11.7910617"><ele>43.0</ele><time>2026-04-22T11:04:00.112Z</time></trkpt><trkpt lat="42.1195839" lon="11.7911118"><ele>43.0</ele><time>2026-04-22T11:04:01.118Z</time></trkpt><trkpt lat="42.119341" lon="11.7911649"><ele>43.0</ele><time>2026-04-22T11:04:02.113Z</time></trkpt><trkpt lat="42.1190961" lon="11.7912187"><ele>43.0</ele><time>2026-04-22T11:04:03.098Z</time></trkpt><trkpt lat="42.118852" lon="11.7912753"><ele>40.5</ele><time>2026-04-22T11:04:04.103Z</time></trkpt><trkpt lat="42.11861" lon="11.791329"><ele>38.0</ele><time>2026-04-22T11:04:05.114Z</time></trkpt><trkpt lat="42.1183685" lon="11.7913815"><ele>39.5</ele><time>2026-04-22T11:04:06.104Z</time></trkpt><trkpt lat="42.1181263" lon="11.7914328"><ele>41.0</ele><time>2026-04-22T11:04:07.113Z</time></trkpt><trkpt lat="42.1178873" lon="11.7914853"><ele>41.0</ele><time>2026-04-22T11:04:08.122Z</time></trkpt><trkpt lat="42.117651" lon="11.7915367"><ele>41.0</ele><time>2026-04-22T11:04:09.111Z</time></trkpt><trkpt lat="42.1174166" lon="11.7915939"><ele>44.0</ele><time>2026-04-22T11:04:10.098Z</time></trkpt><trkpt lat="42.1171871" lon="11.7916525"><ele>47.0</ele><time>2026-04-22T11:04:11.088Z</time></trkpt><trkpt lat="42.1169594" lon="11.7917125"><ele>47.0</ele><time>2026-04-22T11:04:12.102Z</time></trkpt><trkpt lat="42.1167323" lon="11.791764"><ele>47.0</ele><time>2026-04-22T11:04:13.115Z</time></trkpt><trkpt lat="42.1165111" lon="11.7918134"><ele>46.666666666666664</ele><time>2026-04-22T11:04:14.106Z</time></trkpt><trkpt lat="42.1162898" lon="11.7918618"><ele>46.333333333333336</ele><time>2026-04-22T11:04:15.125Z</time></trkpt><trkpt lat="42.1160732" lon="11.7919082"><ele>46.0</ele><time>2026-04-22T11:04:16.115Z</time></trkpt><trkpt lat="42.1158577" lon="11.791961"><ele>48.0</ele><time>2026-04-22T11:04:17.105Z</time></trkpt><trkpt lat="42.1156433" lon="11.792016"><ele>50.0</ele><time>2026-04-22T11:04:18.108Z</time></trkpt><trkpt lat="42.1154203" lon="11.7920701"><ele>52.0</ele><time>2026-04-22T11:04:19.092Z</time></trkpt><trkpt lat="42.1151967" lon="11.7921242"><ele>52.0</ele><time>2026-04-22T11:04:20.097Z</time></trkpt><trkpt lat="42.1149684" lon="11.792177"><ele>52.0</ele><time>2026-04-22T11:04:21.1Z</time></trkpt><trkpt lat="42.1147374" lon="11.7922214"><ele>52.0</ele><time>2026-04-22T11:04:22.105Z</time></trkpt><trkpt lat="42.1144997" lon="11.7922611"><ele>52.0</ele><time>2026-04-22T11:04:23.107Z</time></trkpt><trkpt lat="42.1142576" lon="11.7922949"><ele>50.5</ele><time>2026-04-22T11:04:24.102Z</time></trkpt><trkpt lat="42.1140148" lon="11.7923217"><ele>49.0</ele><time>2026-04-22T11:04:25.101Z</time></trkpt><trkpt lat="42.1137714" lon="11.7923426"><ele>49.0</ele><time>2026-04-22T11:04:26.107Z</time></trkpt><trkpt lat="42.1135282" lon="11.7923568"><ele>49.0</ele><time>2026-04-22T11:04:27.107Z</time></trkpt><trkpt lat="42.1132862" lon="11.7923678"><ele>46.5</ele><time>2026-04-22T11:04:28.096Z</time></trkpt><trkpt lat="42.1130388" lon="11.7923773"><ele>44.0</ele><time>2026-04-22T11:04:29.1Z</time></trkpt><trkpt lat="42.1127926" lon="11.7923907"><ele>44.0</ele><time>2026-04-22T11:04:30.108Z</time></trkpt><trkpt lat="42.1125486" lon="11.7924021"><ele>44.0</ele><time>2026-04-22T11:04:31.104Z</time></trkpt><trkpt lat="42.1123065" lon="11.792414"><ele>40.5</ele><time>2026-04-22T11:04:32.09Z</time></trkpt><trkpt lat="42.1120619" lon="11.7924254"><ele>37.0</ele><time>2026-04-22T11:04:33.099Z</time></trkpt><trkpt lat="42.1118192" lon="11.7924371"><ele>37.0</ele><time>2026-04-22T11:04:34.115Z</time></trkpt><trkpt lat="42.1115756" lon="11.7924497"><ele>37.0</ele><time>2026-04-22T11:04:35.102Z</time></trkpt><trkpt lat="42.1113323" lon="11.7924623"><ele>34.0</ele><time>2026-04-22T11:04:36.118Z</time></trkpt><trkpt lat="42.1110858" lon="11.7924714"><ele>31.0</ele><time>2026-04-22T11:04:37.123Z</time></trkpt><trkpt lat="42.1108399" lon="11.7924804"><ele>31.0</ele><time>2026-04-22T11:04:38.112Z</time></trkpt><trkpt lat="42.1105967" lon="11.7924914"><ele>31.0</ele><time>2026-04-22T11:04:39.087Z</time></trkpt><trkpt lat="42.1103576" lon="11.7925035"><ele>31.0</ele><time>2026-04-22T11:04:40.118Z</time></trkpt><trkpt lat="42.1101179" lon="11.7925176"><ele>31.0</ele><time>2026-04-22T11:04:41.103Z</time></trkpt><trkpt lat="42.1098758" lon="11.7925304"><ele>27.5</ele><time>2026-04-22T11:04:42.108Z</time></trkpt><trkpt lat="42.1096376" lon="11.7925427"><ele>24.0</ele><time>2026-04-22T11:04:43.105Z</time></trkpt><trkpt lat="42.1094064" lon="11.7925541"><ele>24.0</ele><time>2026-04-22T11:04:44.106Z</time></trkpt><trkpt lat="42.1091775" lon="11.7925607"><ele>24.0</ele><time>2026-04-22T11:04:45.112Z</time></trkpt><trkpt lat="42.1089513" lon="11.7925595"><ele>21.0</ele><time>2026-04-22T11:04:46.103Z</time></trkpt><trkpt lat="42.1087203" lon="11.7925345"><ele>18.0</ele><time>2026-04-22T11:04:47.102Z</time></trkpt><trkpt lat="42.1084957" lon="11.7924837"><ele>18.0</ele><time>2026-04-22T11:04:48.127Z</time></trkpt><trkpt lat="42.1082691" lon="11.7924035"><ele>18.0</ele><time>2026-04-22T11:04:49.111Z</time></trkpt><trkpt lat="42.1080445" lon="11.7923013"><ele>16.0</ele><time>2026-04-22T11:04:50.106Z</time></trkpt><trkpt lat="42.107823" lon="11.7921742"><ele>14.0</ele><time>2026-04-22T11:04:51.105Z</time></trkpt><trkpt lat="42.1076117" lon="11.7920238"><ele>13.0</ele><time>2026-04-22T11:04:52.105Z</time></trkpt><trkpt lat="42.107407" lon="11.7918542"><ele>12.0</ele><time>2026-04-22T11:04:53.09Z</time></trkpt><trkpt lat="42.1072152" lon="11.7916591"><ele>12.0</ele><time>2026-04-22T11:04:54.128Z</time></trkpt><trkpt lat="42.1070387" lon="11.7914466"><ele>12.0</ele><time>2026-04-22T11:04:55.112Z</time></trkpt><trkpt lat="42.1068717" lon="11.7912162"><ele>12.0</ele><time>2026-04-22T11:04:56.117Z</time></trkpt><trkpt lat="42.1067174" lon="11.7909701"><ele>12.0</ele><time>2026-04-22T11:04:57.106Z</time></trkpt><trkpt lat="42.106574" lon="11.7907135"><ele>12.0</ele><time>2026-04-22T11:04:58.108Z</time></trkpt><trkpt lat="42.1064335" lon="11.7904506"><ele>12.0</ele><time>2026-04-22T11:04:59.102Z</time></trkpt><trkpt lat="42.1062911" lon="11.7901902"><ele>10.5</ele><time>2026-04-22T11:05:00.098Z</time></trkpt><trkpt lat="42.1061507" lon="11.7899293"><ele>9.0</ele><time>2026-04-22T11:05:01.095Z</time></trkpt><trkpt lat="42.1060115" lon="11.7896721"><ele>9.0</ele><time>2026-04-22T11:05:02.089Z</time></trkpt><trkpt lat="42.1058712" lon="11.7894112"><ele>9.0</ele><time>2026-04-22T11:05:03.115Z</time></trkpt><trkpt lat="42.1057328" lon="11.7891537"><ele>9.5</ele><time>2026-04-22T11:05:04.086Z</time></trkpt><trkpt lat="42.1055977" lon="11.7888935"><ele>10.0</ele><time>2026-04-22T11:05:05.098Z</time></trkpt><trkpt lat="42.1054648" lon="11.7886348"><ele>8.5</ele><time>2026-04-22T11:05:06.119Z</time></trkpt><trkpt lat="42.1053352" lon="11.7883761"><ele>7.0</ele><time>2026-04-22T11:05:07.111Z</time></trkpt><trkpt lat="42.1052088" lon="11.788123"><ele>7.0</ele><time>2026-04-22T11:05:08.104Z</time></trkpt><trkpt lat="42.1050838" lon="11.787872"><ele>7.0</ele><time>2026-04-22T11:05:09.117Z</time></trkpt><trkpt lat="42.1049621" lon="11.7876262"><ele>7.0</ele><time>2026-04-22T11:05:10.122Z</time></trkpt><trkpt lat="42.1048421" lon="11.7873866"><ele>7.333333333333334</ele><time>2026-04-22T11:05:11.122Z</time></trkpt><trkpt lat="42.1047224" lon="11.7871474"><ele>7.666666666666666</ele><time>2026-04-22T11:05:12.12Z</time></trkpt><trkpt lat="42.1046077" lon="11.7869194"><ele>8.0</ele><time>2026-04-22T11:05:13.124Z</time></trkpt><trkpt lat="42.1044964" lon="11.7866972"><ele>8.0</ele><time>2026-04-22T11:05:14.087Z</time></trkpt><trkpt lat="42.1043925" lon="11.7864835"><ele>8.0</ele><time>2026-04-22T11:05:15.108Z</time></trkpt><trkpt lat="42.1042888" lon="11.786266"><ele>8.0</ele><time>2026-04-22T11:05:16.114Z</time></trkpt><trkpt lat="42.1041879" lon="11.7860567"><ele>7.333333333333333</ele><time>2026-04-22T11:05:17.107Z</time></trkpt><trkpt lat="42.1040865" lon="11.7858471"><ele>6.666666666666666</ele><time>2026-04-22T11:05:18.11Z</time></trkpt><trkpt lat="42.103988" lon="11.7856446"><ele>6.0</ele><time>2026-04-22T11:05:19.101Z</time></trkpt><trkpt lat="42.1038871" lon="11.7854349"><ele>5.0</ele><time>2026-04-22T11:05:20.117Z</time></trkpt><trkpt lat="42.1037859" lon="11.7852267"><ele>4.0</ele><time>2026-04-22T11:05:21.117Z</time></trkpt><trkpt lat="42.1036857" lon="11.7850196"><ele>3.0</ele><time>2026-04-22T11:05:22.111Z</time></trkpt><trkpt lat="42.103591" lon="11.7848151"><ele>3.0</ele><time>2026-04-22T11:05:23.102Z</time></trkpt><trkpt lat="42.1035022" lon="11.7846135"><ele>3.0</ele><time>2026-04-22T11:05:24.099Z</time></trkpt><trkpt lat="42.1034168" lon="11.7844146"><ele>3.0</ele><time>2026-04-22T11:05:25.091Z</time></trkpt><trkpt lat="42.1033374" lon="11.7842234"><ele>3.0</ele><time>2026-04-22T11:05:26.081Z</time></trkpt><trkpt lat="42.1032566" lon="11.7840391"><ele>3.0</ele><time>2026-04-22T11:05:27.088Z</time></trkpt><trkpt lat="42.1031806" lon="11.7838687"><ele>3.0</ele><time>2026-04-22T11:05:28.106Z</time></trkpt><trkpt lat="42.1031087" lon="11.7837037"><ele>3.0</ele><time>2026-04-22T11:05:29.126Z</time></trkpt><trkpt lat="42.1030432" lon="11.7835448"><ele>2.5</ele><time>2026-04-22T11:05:30.112Z</time></trkpt><trkpt lat="42.1029806" lon="11.7833938"><ele>2.0</ele><time>2026-04-22T11:05:31.1Z</time></trkpt><trkpt lat="42.1029172" lon="11.7832524"><ele>1.5</ele><time>2026-04-22T11:05:32.109Z</time></trkpt><trkpt lat="42.1028403" lon="11.7831245"><ele>1.0</ele><time>2026-04-22T11:05:33.097Z</time></trkpt><trkpt lat="42.1027533" lon="11.7830207"><ele>1.0</ele><time>2026-04-22T11:05:34.11Z</time></trkpt><trkpt lat="42.1026527" lon="11.7829434"><ele>1.0</ele><time>2026-04-22T11:05:35.115Z</time></trkpt><trkpt lat="42.1025361" lon="11.7828848"><ele>1.0</ele><time>2026-04-22T11:05:36.105Z</time></trkpt><trkpt lat="42.1024112" lon="11.7828554"><ele>1.0</ele><time>2026-04-22T11:05:37.081Z</time></trkpt><trkpt lat="42.102286" lon="11.7828607"><ele>0.5</ele><time>2026-04-22T11:05:38.111Z</time></trkpt><trkpt lat="42.1021579" lon="11.7829026"><ele>0.0</ele><time>2026-04-22T11:05:39.109Z</time></trkpt><trkpt lat="42.1020334" lon="11.7829745"><ele>-0.5</ele><time>2026-04-22T11:05:40.115Z</time></trkpt><trkpt lat="42.1019056" lon="11.7830592"><ele>-1.0</ele><time>2026-04-22T11:05:41.1Z</time></trkpt><trkpt lat="42.101778" lon="11.7831403"><ele>-1.0</ele><time>2026-04-22T11:05:42.117Z</time></trkpt><trkpt lat="42.1016499" lon="11.7832243"><ele>-1.0</ele><time>2026-04-22T11:05:43.107Z</time></trkpt><trkpt lat="42.1015156" lon="11.7833093"><ele>-1.0</ele><time>2026-04-22T11:05:44.109Z</time></trkpt><trkpt lat="42.1013734" lon="11.783404"><ele>-1.0</ele><time>2026-04-22T11:05:45.107Z</time></trkpt><trkpt lat="42.1012314" lon="11.7835021"><ele>0.0</ele><time>2026-04-22T11:05:46.107Z</time></trkpt><trkpt lat="42.1010882" lon="11.7835931"><ele>1.0</ele><time>2026-04-22T11:05:47.105Z</time></trkpt><trkpt lat="42.100949" lon="11.7836811"><ele>2.0</ele><time>2026-04-22T11:05:48.125Z</time></trkpt><trkpt lat="42.1008079" lon="11.7837691"><ele>2.0</ele><time>2026-04-22T11:05:49.116Z</time></trkpt><trkpt lat="42.1006676" lon="11.7838591"><ele>2.0</ele><time>2026-04-22T11:05:50.123Z</time></trkpt><trkpt lat="42.1005285" lon="11.7839488"><ele>2.0</ele><time>2026-04-22T11:05:51.12Z</time></trkpt><trkpt lat="42.100394" lon="11.7840361"><ele>2.0</ele><time>2026-04-22T11:05:52.114Z</time></trkpt><trkpt lat="42.1002626" lon="11.7841247"><ele>2.0</ele><time>2026-04-22T11:05:53.127Z</time></trkpt><trkpt lat="42.1001374" lon="11.7842094"><ele>2.0</ele><time>2026-04-22T11:05:54.089Z</time></trkpt><trkpt lat="42.100017" lon="11.7842841"><ele>2.0</ele><time>2026-04-22T11:05:55.094Z</time></trkpt><trkpt lat="42.0999053" lon="11.7843523"><ele>2.2</ele><time>2026-04-22T11:05:56.121Z</time></trkpt><trkpt lat="42.099823" lon="11.7844028"><ele>2.4000000000000004</ele><time>2026-04-22T11:05:57.118Z</time></trkpt><trkpt lat="42.0997584" lon="11.784441"><ele>2.5999999999999996</ele><time>2026-04-22T11:05:58.123Z</time></trkpt><trkpt lat="42.0996784" lon="11.7844832"><ele>2.8</ele><time>2026-04-22T11:06:00.102Z</time></trkpt><trkpt lat="42.0996063" lon="11.7845397"><ele>3.0</ele><time>2026-04-22T11:08:34.112Z</time></trkpt><trkpt lat="42.0995022" lon="11.7846332"><ele>3.0</ele><time>2026-04-22T11:08:36.079Z</time></trkpt><trkpt lat="42.0994326" lon="11.7847035"><ele>3.0</ele><time>2026-04-22T11:08:37.084Z</time></trkpt><trkpt lat="42.0993614" lon="11.7847804"><ele>3.0</ele><time>2026-04-22T11:08:38.115Z</time></trkpt><trkpt lat="42.0992844" lon="11.7848554"><ele>3.0</ele><time>2026-04-22T11:08:39.143Z</time></trkpt><trkpt lat="42.0992028" lon="11.7849367"><ele>3.0</ele><time>2026-04-22T11:08:40.096Z</time></trkpt><trkpt lat="42.0991294" lon="11.7850144"><ele>2.8</ele><time>2026-04-22T11:08:41.12Z</time></trkpt><trkpt lat="42.0990547" lon="11.7850938"><ele>2.5999999999999996</ele><time>2026-04-22T11:08:42.1Z</time></trkpt><trkpt lat="42.0989811" lon="11.7851738"><ele>2.4000000000000004</ele><time>2026-04-22T11:08:43.157Z</time></trkpt><trkpt lat="42.0989045" lon="11.7852465"><ele>2.2</ele><time>2026-04-22T11:08:44.134Z</time></trkpt><trkpt lat="42.0988224" lon="11.7853036"><ele>2.0</ele><time>2026-04-22T11:08:45.121Z</time></trkpt><trkpt lat="42.0987346" lon="11.7853511"><ele>1.9999999999999998</ele><time>2026-04-22T11:08:46.121Z</time></trkpt><trkpt lat="42.0986484" lon="11.7853875"><ele>2.0</ele><time>2026-04-22T11:08:47.119Z</time></trkpt><trkpt lat="42.0985636" lon="11.7854083"><ele>2.0</ele><time>2026-04-22T11:08:48.157Z</time></trkpt><trkpt lat="42.0984792" lon="11.7854167"><ele>2.0</ele><time>2026-04-22T11:08:49.142Z</time></trkpt><trkpt lat="42.0983981" lon="11.7854216"><ele>1.9999999999999998</ele><time>2026-04-22T11:08:50.126Z</time></trkpt><trkpt lat="42.0983211" lon="11.7854381"><ele>2.0</ele><time>2026-04-22T11:08:51.154Z</time></trkpt><trkpt lat="42.0982609" lon="11.7854848"><ele>2.0</ele><time>2026-04-22T11:08:52.164Z</time></trkpt><trkpt lat="42.0982067" lon="11.7855621"><ele>2.0</ele><time>2026-04-22T11:08:53.152Z</time></trkpt><trkpt lat="42.0981814" lon="11.7856592"><ele>2.0</ele><time>2026-04-22T11:08:54.159Z</time></trkpt><trkpt lat="42.0981625" lon="11.7859094"><ele>2.0</ele><time>2026-04-22T11:08:56.085Z</time></trkpt><trkpt lat="42.0981258" lon="11.7860035"><ele>2.0</ele><time>2026-04-22T11:08:57.082Z</time></trkpt><trkpt lat="42.0980753" lon="11.7861047"><ele>2.0</ele><time>2026-04-22T11:08:58.088Z</time></trkpt><trkpt lat="42.0979969" lon="11.786181"><ele>2.0</ele><time>2026-04-22T11:08:59.079Z</time></trkpt><trkpt lat="42.0979068" lon="11.7862607"><ele>2.0</ele><time>2026-04-22T11:09:00.093Z</time></trkpt><trkpt lat="42.0978223" lon="11.7863372"><ele>2.0</ele><time>2026-04-22T11:09:01.074Z</time></trkpt><trkpt lat="42.0977395" lon="11.7864151"><ele>2.0</ele><time>2026-04-22T11:09:02.068Z</time></trkpt><trkpt lat="42.0976494" lon="11.7864918"><ele>2.0</ele><time>2026-04-22T11:09:03.04Z</time></trkpt><trkpt lat="42.0975747" lon="11.7865717"><ele>2.0</ele><time>2026-04-22T11:09:04.018Z</time></trkpt><trkpt lat="42.0975046" lon="11.7866534"><ele>2.0</ele><time>2026-04-22T11:09:05.032Z</time></trkpt><trkpt lat="42.0974339" lon="11.7867236"><ele>2.0</ele><time>2026-04-22T11:09:06.051Z</time></trkpt><trkpt lat="42.0973674" lon="11.7868047"><ele>2.0</ele><time>2026-04-22T11:09:07.154Z</time></trkpt><trkpt lat="42.0970717" lon="11.7870952"><ele>3.0</ele><time>2026-04-22T11:09:11.08Z</time></trkpt><trkpt lat="42.0970018" lon="11.7874024"><ele>4.0</ele><time>2026-04-22T11:09:14.02Z</time></trkpt><trkpt lat="42.0970292" lon="11.7875093"><ele>5.0</ele><time>2026-04-22T11:09:15.032Z</time></trkpt><trkpt lat="42.0970494" lon="11.7876101"><ele>6.0</ele><time>2026-04-22T11:09:16.019Z</time></trkpt><trkpt lat="42.0970802" lon="11.7877693"><ele>6.0</ele><time>2026-04-22T11:09:18.02Z</time></trkpt><trkpt lat="42.0971129" lon="11.7879331"><ele>6.0</ele><time>2026-04-22T11:09:20.031Z</time></trkpt><trkpt lat="42.0971254" lon="11.7880189"><ele>6.0</ele><time>2026-04-22T11:09:21.028Z</time></trkpt><trkpt lat="42.0971317" lon="11.7881245"><ele>6.0</ele><time>2026-04-22T11:09:22.028Z</time></trkpt><trkpt lat="42.0971334" lon="11.7882252"><ele>6.0</ele><time>2026-04-22T11:09:23.023Z</time></trkpt><trkpt lat="42.0971282" lon="11.7883285"><ele>6.0</ele><time>2026-04-22T11:09:24.095Z</time></trkpt><trkpt lat="42.0971189" lon="11.7884209"><ele>6.199999999999999</ele><time>2026-04-22T11:09:25.021Z</time></trkpt><trkpt lat="42.0970995" lon="11.7885887"><ele>6.3999999999999995</ele><time>2026-04-22T11:09:27.057Z</time></trkpt><trkpt lat="42.0970722" lon="11.7887353"><ele>6.6</ele><time>2026-04-22T11:09:29.031Z</time></trkpt><trkpt lat="42.0970249" lon="11.7889054"><ele>6.8</ele><time>2026-04-22T11:09:31.03Z</time></trkpt><trkpt lat="42.0970014" lon="11.7889853"><ele>7.0</ele><time>2026-04-22T11:09:32.033Z</time></trkpt><trkpt lat="42.096949" lon="11.7891153"><ele>7.0</ele><time>2026-04-22T11:09:34.045Z</time></trkpt><trkpt lat="42.0969173" lon="11.7891963"><ele>6.999999999999999</ele><time>2026-04-22T11:09:37.029Z</time></trkpt><trkpt lat="42.0968663" lon="11.7893037"><ele>6.999999999999999</ele><time>2026-04-22T11:09:40.042Z</time></trkpt><trkpt lat="42.0967999" lon="11.7893943"><ele>7.0</ele><time>2026-04-22T11:09:42.066Z</time></trkpt><trkpt lat="42.0967081" lon="11.789458"><ele>7.0</ele><time>2026-04-22T11:09:44.06Z</time></trkpt><trkpt lat="42.0965887" lon="11.7894889"><ele>7.6</ele><time>2026-04-22T11:09:46.052Z</time></trkpt><trkpt lat="42.0965191" lon="11.789517"><ele>8.2</ele><time>2026-04-22T11:09:47.039Z</time></trkpt><trkpt lat="42.0964017" lon="11.7895486"><ele>8.8</ele><time>2026-04-22T11:09:49.062Z</time></trkpt><trkpt lat="42.0963067" lon="11.7895496"><ele>9.4</ele><time>2026-04-22T11:09:51.064Z</time></trkpt><trkpt lat="42.096215" lon="11.7895679"><ele>10.0</ele><time>2026-04-22T11:09:53.034Z</time></trkpt><trkpt lat="42.0961243" lon="11.7895947"><ele>10.0</ele><time>2026-04-22T11:09:55.059Z</time></trkpt><trkpt lat="42.0960121" lon="11.7895988"><ele>10.0</ele><time>2026-04-22T11:09:57.06Z</time></trkpt><trkpt lat="42.0959448" lon="11.7896098"><ele>10.0</ele><time>2026-04-22T11:09:58.052Z</time></trkpt><trkpt lat="42.0958744" lon="11.7896381"><ele>10.0</ele><time>2026-04-22T11:09:59.05Z</time></trkpt><trkpt lat="42.0958094" lon="11.7896682"><ele>10.0</ele><time>2026-04-22T11:10:00.034Z</time></trkpt><trkpt lat="42.0957036" lon="11.7896859"><ele>10.0</ele><time>2026-04-22T11:10:02.055Z</time></trkpt><trkpt lat="42.0956377" lon="11.7896814"><ele>10.0</ele><time>2026-04-22T11:10:04.042Z</time></trkpt><trkpt lat="42.0955547" lon="11.7896862"><ele>10.0</ele><time>2026-04-22T11:10:07.059Z</time></trkpt><trkpt lat="42.0954563" lon="11.7897221"><ele>10.0</ele><time>2026-04-22T11:10:09.058Z</time></trkpt><trkpt lat="42.0953307" lon="11.7897751"><ele>10.0</ele><time>2026-04-22T11:10:11.03Z</time></trkpt><trkpt lat="42.0952598" lon="11.7897906"><ele>10.0</ele><time>2026-04-22T11:10:12.051Z</time></trkpt><trkpt lat="42.0951867" lon="11.7897972"><ele>10.0</ele><time>2026-04-22T11:10:13.061Z</time></trkpt><trkpt lat="42.0951153" lon="11.789812"><ele>10.0</ele><time>2026-04-22T11:10:14.02Z</time></trkpt><trkpt lat="42.0950463" lon="11.7898423"><ele>10.0</ele><time>2026-04-22T11:10:15.043Z</time></trkpt><trkpt lat="42.0949699" lon="11.7898769"><ele>10.0</ele><time>2026-04-22T11:10:16.017Z</time></trkpt><trkpt lat="42.094882" lon="11.7899047"><ele>10.0</ele><time>2026-04-22T11:10:17.012Z</time></trkpt><trkpt lat="42.094799" lon="11.7899292"><ele>10.0</ele><time>2026-04-22T11:10:18.012Z</time></trkpt><trkpt lat="42.0947275" lon="11.7899765"><ele>9.666666666666668</ele><time>2026-04-22T11:10:19.018Z</time></trkpt><trkpt lat="42.0946584" lon="11.7900239"><ele>9.333333333333334</ele><time>2026-04-22T11:10:20.029Z</time></trkpt><trkpt lat="42.0945977" lon="11.7900824"><ele>9.0</ele><time>2026-04-22T11:10:21.047Z</time></trkpt><trkpt lat="42.0945294" lon="11.7901389"><ele>8.666666666666666</ele><time>2026-04-22T11:10:22.017Z</time></trkpt><trkpt lat="42.0944599" lon="11.7901953"><ele>8.333333333333332</ele><time>2026-04-22T11:10:23.052Z</time></trkpt><trkpt lat="42.0944002" lon="11.7902564"><ele>8.0</ele><time>2026-04-22T11:10:24.047Z</time></trkpt><trkpt lat="42.0943477" lon="11.7903096"><ele>9.4</ele><time>2026-04-22T11:10:25.063Z</time></trkpt><trkpt lat="42.0942374" lon="11.7903772"><ele>10.8</ele><time>2026-04-22T11:10:27.042Z</time></trkpt><trkpt lat="42.0941803" lon="11.7904228"><ele>12.2</ele><time>2026-04-22T11:10:28.033Z</time></trkpt><trkpt lat="42.0941263" lon="11.7904713"><ele>13.6</ele><time>2026-04-22T11:10:29.033Z</time></trkpt><trkpt lat="42.0940193" lon="11.7905521"><ele>15.0</ele><time>2026-04-22T11:10:31.031Z</time></trkpt><trkpt lat="42.093907" lon="11.7906186"><ele>15.8</ele><time>2026-04-22T11:10:33.039Z</time></trkpt><trkpt lat="42.093811" lon="11.790678"><ele>16.6</ele><time>2026-04-22T11:10:35.038Z</time></trkpt><trkpt lat="42.0937206" lon="11.7907291"><ele>17.4</ele><time>2026-04-22T11:10:37.018Z</time></trkpt><trkpt lat="42.0936281" lon="11.7907809"><ele>18.2</ele><time>2026-04-22T11:10:39.042Z</time></trkpt><trkpt lat="42.0935309" lon="11.7908362"><ele>19.0</ele><time>2026-04-22T11:10:41.046Z</time></trkpt><trkpt lat="42.0934266" lon="11.7908788"><ele>19.0</ele><time>2026-04-22T11:10:43.027Z</time></trkpt><trkpt lat="42.0933322" lon="11.7909358"><ele>19.0</ele><time>2026-04-22T11:10:45.02Z</time></trkpt><trkpt lat="42.0932655" lon="11.7909472"><ele>19.0</ele><time>2026-04-22T11:10:46.035Z</time></trkpt><trkpt lat="42.0931811" lon="11.7910052"><ele>19.0</ele><time>2026-04-22T11:10:48.038Z</time></trkpt><trkpt lat="42.0931007" lon="11.791094"><ele>19.0</ele><time>2026-04-22T11:10:50.059Z</time></trkpt><trkpt lat="42.0930107" lon="11.7911707"><ele>18.599999999999998</ele><time>2026-04-22T11:10:52.035Z</time></trkpt><trkpt lat="42.0929213" lon="11.7912178"><ele>18.2</ele><time>2026-04-22T11:10:54.059Z</time></trkpt><trkpt lat="42.0928483" lon="11.7912803"><ele>17.799999999999997</ele><time>2026-04-22T11:10:56.04Z</time></trkpt><trkpt lat="42.0927723" lon="11.7913533"><ele>17.4</ele><time>2026-04-22T11:10:58.042Z</time></trkpt><trkpt lat="42.0926808" lon="11.791407"><ele>17.0</ele><time>2026-04-22T11:11:00.033Z</time></trkpt><trkpt lat="42.0925936" lon="11.7914991"><ele>17.0</ele><time>2026-04-22T11:11:02.061Z</time></trkpt><trkpt lat="42.0924949" lon="11.7915859"><ele>17.0</ele><time>2026-04-22T11:11:04.039Z</time></trkpt><trkpt lat="42.0923957" lon="11.7916913"><ele>17.0</ele><time>2026-04-22T11:11:06.057Z</time></trkpt><trkpt lat="42.0923279" lon="11.7917362"><ele>17.0</ele><time>2026-04-22T11:11:07.036Z</time></trkpt><trkpt lat="42.0922643" lon="11.7917992"><ele>17.0</ele><time>2026-04-22T11:11:08.057Z</time></trkpt><trkpt lat="42.0921895" lon="11.7918807"><ele>16.6</ele><time>2026-04-22T11:11:09.041Z</time></trkpt><trkpt lat="42.0921079" lon="11.7919523"><ele>16.2</ele><time>2026-04-22T11:11:10.033Z</time></trkpt><trkpt lat="42.0920297" lon="11.7920226"><ele>15.8</ele><time>2026-04-22T11:11:11.049Z</time></trkpt><trkpt lat="42.0919479" lon="11.7920894"><ele>15.4</ele><time>2026-04-22T11:11:12.043Z</time></trkpt><trkpt lat="42.0918674" lon="11.7921523"><ele>15.0</ele><time>2026-04-22T11:11:13.059Z</time></trkpt><trkpt lat="42.0917961" lon="11.7922213"><ele>15.0</ele><time>2026-04-22T11:11:14.068Z</time></trkpt><trkpt lat="42.0917216" lon="11.7922875"><ele>15.0</ele><time>2026-04-22T11:11:15.059Z</time></trkpt><trkpt lat="42.0916564" lon="11.7923474"><ele>15.0</ele><time>2026-04-22T11:11:16.049Z</time></trkpt><trkpt lat="42.0915984" lon="11.7924089"><ele>15.0</ele><time>2026-04-22T11:11:17.047Z</time></trkpt><trkpt lat="42.0915429" lon="11.7924697"><ele>15.0</ele><time>2026-04-22T11:11:18.061Z</time></trkpt><trkpt lat="42.0914468" lon="11.7925593"><ele>15.0</ele><time>2026-04-22T11:11:20.057Z</time></trkpt><trkpt lat="42.091355" lon="11.7926417"><ele>15.0</ele><time>2026-04-22T11:11:22.067Z</time></trkpt><trkpt lat="42.0912796" lon="11.7926955"><ele>15.0</ele><time>2026-04-22T11:11:24.053Z</time></trkpt><trkpt lat="42.0912286" lon="11.7927544"><ele>15.0</ele><time>2026-04-22T11:11:26.057Z</time></trkpt><trkpt lat="42.091164" lon="11.7928054"><ele>15.0</ele><time>2026-04-22T11:11:29.04Z</time></trkpt><trkpt lat="42.0910667" lon="11.7928288"><ele>15.0</ele><time>2026-04-22T11:11:32.045Z</time></trkpt><trkpt lat="42.0910035" lon="11.7927941"><ele>15.0</ele><time>2026-04-22T11:11:34.045Z</time></trkpt><trkpt lat="42.0909562" lon="11.7927134"><ele>14.5</ele><time>2026-04-22T11:11:36.053Z</time></trkpt><trkpt lat="42.0909049" lon="11.792657"><ele>14.0</ele><time>2026-04-22T11:11:38.047Z</time></trkpt><trkpt lat="42.0908525" lon="11.7925945"><ele>13.5</ele><time>2026-04-22T11:11:40.056Z</time></trkpt><trkpt lat="42.0907919" lon="11.7925212"><ele>13.0</ele><time>2026-04-22T11:11:42.06Z</time></trkpt><trkpt lat="42.0907305" lon="11.7924508"><ele>12.5</ele><time>2026-04-22T11:11:44.062Z</time></trkpt><trkpt lat="42.0906608" lon="11.7923617"><ele>12.0</ele><time>2026-04-22T11:11:46.057Z</time></trkpt><trkpt lat="42.0905884" lon="11.7922788"><ele>10.799999999999999</ele><time>2026-04-22T11:11:48.058Z</time></trkpt><trkpt lat="42.0905164" lon="11.7922448"><ele>9.6</ele><time>2026-04-22T11:11:50.052Z</time></trkpt><trkpt lat="42.0904335" lon="11.7923109"><ele>8.399999999999999</ele><time>2026-04-22T11:11:53.073Z</time></trkpt><trkpt lat="42.0903814" lon="11.792409"><ele>7.199999999999999</ele><time>2026-04-22T11:11:55.053Z</time></trkpt><trkpt lat="42.090324" lon="11.7925241"><ele>6.0</ele><time>2026-04-22T11:11:57.038Z</time></trkpt><trkpt lat="42.0902737" lon="11.792632"><ele>6.4</ele><time>2026-04-22T11:11:59.017Z</time></trkpt><trkpt lat="42.0902195" lon="11.7927377"><ele>6.8</ele><time>2026-04-22T11:12:01.064Z</time></trkpt><trkpt lat="42.0901532" lon="11.7928657"><ele>7.200000000000001</ele><time>2026-04-22T11:12:03.044Z</time></trkpt><trkpt lat="42.0900915" lon="11.7929796"><ele>7.6000000000000005</ele><time>2026-04-22T11:12:05.041Z</time></trkpt><trkpt lat="42.0900395" lon="11.7930919"><ele>8.0</ele><time>2026-04-22T11:12:07.057Z</time></trkpt><trkpt lat="42.089988" lon="11.7931897"><ele>7.999999999999999</ele><time>2026-04-22T11:12:09.051Z</time></trkpt><trkpt lat="42.0899405" lon="11.7932823"><ele>8.0</ele><time>2026-04-22T11:12:11.063Z</time></trkpt><trkpt lat="42.0898962" lon="11.7933859"><ele>8.0</ele><time>2026-04-22T11:12:13.045Z</time></trkpt><trkpt lat="42.0898596" lon="11.7934643"><ele>8.0</ele><time>2026-04-22T11:12:18.028Z</time></trkpt><trkpt lat="42.0898188" lon="11.7935505"><ele>7.999999999999999</ele><time>2026-04-22T11:12:23.058Z</time></trkpt><trkpt lat="42.0897868" lon="11.7936263"><ele>8.0</ele><time>2026-04-22T11:12:26.049Z</time></trkpt><trkpt lat="42.089751" lon="11.7937073"><ele>7.166666666666666</ele><time>2026-04-22T11:12:28.053Z</time></trkpt><trkpt lat="42.0897095" lon="11.7937918"><ele>6.333333333333333</ele><time>2026-04-22T11:12:30.033Z</time></trkpt><trkpt lat="42.0896661" lon="11.7938807"><ele>5.5</ele><time>2026-04-22T11:12:33.063Z</time></trkpt><trkpt lat="42.0896211" lon="11.7939789"><ele>4.666666666666666</ele><time>2026-04-22T11:12:36.047Z</time></trkpt><trkpt lat="42.0895732" lon="11.7940665"><ele>3.833333333333333</ele><time>2026-04-22T11:12:39.049Z</time></trkpt><trkpt lat="42.0895221" lon="11.7941889"><ele>3.0</ele><time>2026-04-22T11:12:42.061Z</time></trkpt><trkpt lat="42.0894746" lon="11.7943088"><ele>3.666666666666667</ele><time>2026-04-22T11:12:44.043Z</time></trkpt><trkpt lat="42.0894178" lon="11.7944317"><ele>4.333333333333334</ele><time>2026-04-22T11:12:46.055Z</time></trkpt><trkpt lat="42.0893501" lon="11.7945589"><ele>5.0</ele><time>2026-04-22T11:12:48.062Z</time></trkpt><trkpt lat="42.0893127" lon="11.7946293"><ele>5.666666666666667</ele><time>2026-04-22T11:12:49.059Z</time></trkpt><trkpt lat="42.0892727" lon="11.7947063"><ele>6.333333333333334</ele><time>2026-04-22T11:12:50.062Z</time></trkpt><trkpt lat="42.0892356" lon="11.7947869"><ele>7.0</ele><time>2026-04-22T11:12:51.041Z</time></trkpt><trkpt lat="42.0891962" lon="11.7948701"><ele>7.0</ele><time>2026-04-22T11:12:52.041Z</time></trkpt><trkpt lat="42.0891633" lon="11.7949582"><ele>7.0</ele><time>2026-04-22T11:12:53.056Z</time></trkpt><trkpt lat="42.0891251" lon="11.7950357"><ele>7.0</ele><time>2026-04-22T11:12:54.064Z</time></trkpt><trkpt lat="42.0890875" lon="11.7951167"><ele>7.0</ele><time>2026-04-22T11:12:55.053Z</time></trkpt><trkpt lat="42.0890483" lon="11.7951933"><ele>7.0</ele><time>2026-04-22T11:12:56.032Z</time></trkpt><trkpt lat="42.089011" lon="11.7952758"><ele>7.0</ele><time>2026-04-22T11:12:57.048Z</time></trkpt><trkpt lat="42.0889707" lon="11.795359"><ele>7.0</ele><time>2026-04-22T11:12:58.05Z</time></trkpt><trkpt lat="42.0889334" lon="11.7954348"><ele>6.666666666666667</ele><time>2026-04-22T11:12:59.053Z</time></trkpt><trkpt lat="42.0889009" lon="11.7955129"><ele>6.333333333333334</ele><time>2026-04-22T11:13:00.041Z</time></trkpt><trkpt lat="42.0888687" lon="11.7955928"><ele>6.0</ele><time>2026-04-22T11:13:01.068Z</time></trkpt><trkpt lat="42.0888307" lon="11.7956931"><ele>5.666666666666667</ele><time>2026-04-22T11:13:02.045Z</time></trkpt><trkpt lat="42.0887902" lon="11.7958022"><ele>5.333333333333334</ele><time>2026-04-22T11:13:03.047Z</time></trkpt><trkpt lat="42.0887383" lon="11.7959165"><ele>5.0</ele><time>2026-04-22T11:13:04.03Z</time></trkpt><trkpt lat="42.0886775" lon="11.7960397"><ele>5.0</ele><time>2026-04-22T11:13:05.018Z</time></trkpt><trkpt lat="42.0886152" lon="11.7961479"><ele>5.0</ele><time>2026-04-22T11:13:06.025Z</time></trkpt><trkpt lat="42.0885643" lon="11.7962486"><ele>5.0</ele><time>2026-04-22T11:13:07.056Z</time></trkpt><trkpt lat="42.0885096" lon="11.7963503"><ele>5.0</ele><time>2026-04-22T11:13:08.059Z</time></trkpt><trkpt lat="42.0884626" lon="11.7964392"><ele>5.0</ele><time>2026-04-22T11:13:09.05Z</time></trkpt><trkpt lat="42.0884201" lon="11.7965302"><ele>5.0</ele><time>2026-04-22T11:13:10.065Z</time></trkpt><trkpt lat="42.0883849" lon="11.7966093"><ele>5.0</ele><time>2026-04-22T11:13:11.055Z</time></trkpt><trkpt lat="42.0883519" lon="11.7966877"><ele>5.0</ele><time>2026-04-22T11:13:12.075Z</time></trkpt><trkpt lat="42.088314" lon="11.7967587"><ele>5.0</ele><time>2026-04-22T11:13:13.044Z</time></trkpt><trkpt lat="42.0882707" lon="11.7968342"><ele>5.0</ele><time>2026-04-22T11:13:14.052Z</time></trkpt><trkpt lat="42.0882293" lon="11.7969139"><ele>5.0</ele><time>2026-04-22T11:13:15.075Z</time></trkpt><trkpt lat="42.0881911" lon="11.7969974"><ele>5.0</ele><time>2026-04-22T11:13:16.058Z</time></trkpt><trkpt lat="42.0881555" lon="11.7970809"><ele>5.0</ele><time>2026-04-22T11:13:17.06Z</time></trkpt><trkpt lat="42.0881174" lon="11.7971682"><ele>5.4</ele><time>2026-04-22T11:13:18.062Z</time></trkpt><trkpt lat="42.0880806" lon="11.7972532"><ele>5.8</ele><time>2026-04-22T11:13:20.055Z</time></trkpt><trkpt lat="42.0880444" lon="11.7973445"><ele>6.199999999999999</ele><time>2026-04-22T11:13:23.073Z</time></trkpt><trkpt lat="42.0879814" lon="11.7974816"><ele>6.6</ele><time>2026-04-22T11:13:25.057Z</time></trkpt><trkpt lat="42.0879498" lon="11.7975565"><ele>7.0</ele><time>2026-04-22T11:13:26.047Z</time></trkpt><trkpt lat="42.0878809" lon="11.7977114"><ele>7.6</ele><time>2026-04-22T11:13:28.052Z</time></trkpt><trkpt lat="42.0878337" lon="11.7978144"><ele>8.2</ele><time>2026-04-22T11:13:29.061Z</time></trkpt><trkpt lat="42.0877818" lon="11.7979393"><ele>8.8</ele><time>2026-04-22T11:13:30.075Z</time></trkpt><trkpt lat="42.0877156" lon="11.7980685"><ele>9.4</ele><time>2026-04-22T11:13:31.069Z</time></trkpt><trkpt lat="42.0876383" lon="11.7982098"><ele>10.0</ele><time>2026-04-22T11:13:32.052Z</time></trkpt><trkpt lat="42.0875691" lon="11.7983416"><ele>10.0</ele><time>2026-04-22T11:13:33.058Z</time></trkpt><trkpt lat="42.087504" lon="11.7984628"><ele>10.0</ele><time>2026-04-22T11:13:34.048Z</time></trkpt><trkpt lat="42.0874397" lon="11.7985868"><ele>10.0</ele><time>2026-04-22T11:13:35.055Z</time></trkpt><trkpt lat="42.087387" lon="11.798706"><ele>10.0</ele><time>2026-04-22T11:13:36.051Z</time></trkpt><trkpt lat="42.0873388" lon="11.7988087"><ele>10.0</ele><time>2026-04-22T11:13:37.063Z</time></trkpt><trkpt lat="42.0872933" lon="11.7989093"><ele>9.571428571428571</ele><time>2026-04-22T11:13:38.064Z</time></trkpt><trkpt lat="42.0872509" lon="11.7989997"><ele>9.142857142857142</ele><time>2026-04-22T11:13:39.048Z</time></trkpt><trkpt lat="42.0872133" lon="11.7990732"><ele>8.714285714285715</ele><time>2026-04-22T11:13:40.055Z</time></trkpt><trkpt lat="42.0871705" lon="11.799147"><ele>8.285714285714285</ele><time>2026-04-22T11:13:42.049Z</time></trkpt><trkpt lat="42.0871154" lon="11.7992141"><ele>7.857142857142858</ele><time>2026-04-22T11:13:45.057Z</time></trkpt><trkpt lat="42.0870952" lon="11.7993089"><ele>7.428571428571429</ele><time>2026-04-22T11:14:22.049Z</time></trkpt><trkpt lat="42.0870569" lon="11.7993904"><ele>7.0</ele><time>2026-04-22T11:14:25.048Z</time></trkpt><trkpt lat="42.0870199" lon="11.7994771"><ele>7.0</ele><time>2026-04-22T11:14:27.039Z</time></trkpt><trkpt lat="42.086952" lon="11.7996094"><ele>6.999999999999999</ele><time>2026-04-22T11:14:29.026Z</time></trkpt><trkpt lat="42.086892" lon="11.7997508"><ele>6.999999999999999</ele><time>2026-04-22T11:14:31.047Z</time></trkpt><trkpt lat="42.0868582" lon="11.7998248"><ele>7.0</ele><time>2026-04-22T11:14:32.054Z</time></trkpt><trkpt lat="42.0868175" lon="11.7999061"><ele>7.0</ele><time>2026-04-22T11:14:33.05Z</time></trkpt><trkpt lat="42.0867468" lon="11.8000314"><ele>7.0</ele><time>2026-04-22T11:14:35.023Z</time></trkpt><trkpt lat="42.0867064" lon="11.8001012"><ele>6.999999999999999</ele><time>2026-04-22T11:14:36.061Z</time></trkpt><trkpt lat="42.0866657" lon="11.8001688"><ele>6.999999999999999</ele><time>2026-04-22T11:14:37.048Z</time></trkpt><trkpt lat="42.086596" lon="11.8002978"><ele>7.0</ele><time>2026-04-22T11:14:39.043Z</time></trkpt><trkpt lat="42.0865285" lon="11.8004298"><ele>7.0</ele><time>2026-04-22T11:14:41.046Z</time></trkpt><trkpt lat="42.0864724" lon="11.8005522"><ele>7.000000000000001</ele><time>2026-04-22T11:14:43.044Z</time></trkpt><trkpt lat="42.0864301" lon="11.8006428"><ele>7.0</ele><time>2026-04-22T11:14:45.056Z</time></trkpt><trkpt lat="42.0863737" lon="11.8006894"><ele>7.0</ele><time>2026-04-22T11:14:48.063Z</time></trkpt><trkpt lat="42.0862915" lon="11.8007"><ele>7.0</ele><time>2026-04-22T11:14:52.04Z</time></trkpt><trkpt lat="42.0862525" lon="11.8008106"><ele>7.000000000000001</ele><time>2026-04-22T11:14:55.041Z</time></trkpt><trkpt lat="42.0862077" lon="11.8008825"><ele>7.0</ele><time>2026-04-22T11:14:58.043Z</time></trkpt><trkpt lat="42.0861667" lon="11.8009587"><ele>7.000000000000001</ele><time>2026-04-22T11:15:01.03Z</time></trkpt><trkpt lat="42.0861392" lon="11.8010477"><ele>7.0</ele><time>2026-04-22T11:15:03.05Z</time></trkpt><trkpt lat="42.0860917" lon="11.8011334"><ele>7.0</ele><time>2026-04-22T11:15:06.041Z</time></trkpt><trkpt lat="42.0860087" lon="11.8011338"><ele>7.0</ele><time>2026-04-22T11:15:09.048Z</time></trkpt><trkpt lat="42.0859364" lon="11.8011237"><ele>7.000000000000001</ele><time>2026-04-22T11:15:12.046Z</time></trkpt><trkpt lat="42.0858631" lon="11.8010516"><ele>7.0</ele><time>2026-04-22T11:15:15.036Z</time></trkpt><trkpt lat="42.0858078" lon="11.8009805"><ele>7.0</ele><time>2026-04-22T11:15:17.038Z</time></trkpt><trkpt lat="42.0857466" lon="11.8008988"><ele>2.0</ele><time>2026-04-22T11:15:20.052Z</time></trkpt><trkpt lat="42.0856659" lon="11.800864"><ele>2.0</ele><time>2026-04-22T11:15:24.065Z</time></trkpt><trkpt lat="42.0856017" lon="11.8009148"><ele>2.0</ele><time>2026-04-22T11:15:28.052Z</time></trkpt><trkpt lat="42.0855358" lon="11.8009523"><ele>2.0</ele><time>2026-04-22T11:15:34.057Z</time></trkpt><trkpt lat="42.0854784" lon="11.8010187"><ele>9.0</ele><time>2026-04-22T11:15:39.05Z</time></trkpt></trkseg></trk></gpx>